<?xml version="1.0" encoding="UTF-8" standalone="no" ?>
<gpx xmlns="http://www.topografix.com/GPX/1/1" xmlns:xsi="http://www.w3.org/2001/XMLSchema-instance" xsi:schemaLocation="http://www.topografix.com/GPX/1/1 http://www.topografix.com/GPX/1/1/gpx.xsd" version="1.1" creator="VisuGPX - https://www.visugpx.com">
  <metadata>
    <name>Le verre noie</name>
    <desc><![CDATA[Temps idéal aujourd\'hui. Fraicheur et chemins encore plein de grip.]]></desc>
  </metadata>
  <wpt lat="47.49299" lon="6.75775">
    <ele>318</ele>
    <name><![CDATA[Point de cheminement 1]]></name>
    <desc><![CDATA[]]></desc>
  </wpt>
  <wpt lat="47.49961" lon="6.72963">
    <ele>339</ele>
    <name><![CDATA[Point de cheminement 2]]></name>
    <desc><![CDATA[]]></desc>
  </wpt>
  <wpt lat="47.51936" lon="6.72183">
    <ele>382</ele>
    <name><![CDATA[Point de cheminement 3]]></name>
    <desc><![CDATA[]]></desc>
  </wpt>
  <wpt lat="47.5328" lon="6.70339">
    <ele>401</ele>
    <name><![CDATA[Point de cheminement 4]]></name>
    <desc><![CDATA[]]></desc>
  </wpt>
  <wpt lat="47.53688" lon="6.67745">
    <ele>373</ele>
    <name><![CDATA[Point de cheminement 5]]></name>
    <desc><![CDATA[]]></desc>
  </wpt>
  <wpt lat="47.55723" lon="6.67012">
    <ele>508</ele>
    <name><![CDATA[Point de cheminement 6]]></name>
    <desc><![CDATA[]]></desc>
  </wpt>
  <wpt lat="47.53974" lon="6.65137">
    <ele>483</ele>
    <name><![CDATA[Point de cheminement 7]]></name>
    <desc><![CDATA[]]></desc>
  </wpt>
  <wpt lat="47.52296" lon="6.68563">
    <ele>366</ele>
    <name><![CDATA[Point de cheminement 8]]></name>
    <desc><![CDATA[]]></desc>
  </wpt>
  <wpt lat="47.51649" lon="6.70999">
    <ele>415</ele>
    <name><![CDATA[Point de cheminement 9]]></name>
    <desc><![CDATA[]]></desc>
  </wpt>
  <wpt lat="47.5063" lon="6.7355">
    <ele>378</ele>
    <name><![CDATA[Point de cheminement 10]]></name>
    <desc><![CDATA[]]></desc>
  </wpt>
  <wpt lat="47.50175" lon="6.76379">
    <ele>391</ele>
    <name><![CDATA[Point de cheminement 11]]></name>
    <desc><![CDATA[]]></desc>
  </wpt>
  <trk>
    <name><![CDATA[Rue Antoine Coysevox]]></name>
    <desc><![CDATA[]]></desc>
    <trkseg>
      <trkpt lat="47.51817" lon="6.77492">
        <ele>387</ele>
        <time>2015-09-27T07:15:20.911Z</time>
      </trkpt>
      <trkpt lat="47.51825" lon="6.77539">
        <ele>389</ele>
        <time>2015-09-27T07:15:21.911Z</time>
      </trkpt>
      <trkpt lat="47.51832" lon="6.77503">
        <ele>387</ele>
        <time>2015-09-27T07:15:23.914Z</time>
      </trkpt>
      <trkpt lat="47.51825" lon="6.77464">
        <ele>387</ele>
        <time>2015-09-27T07:15:24.921Z</time>
      </trkpt>
      <trkpt lat="47.51822" lon="6.7748">
        <ele>387</ele>
        <time>2015-09-27T07:15:26.908Z</time>
      </trkpt>
      <trkpt lat="47.51815" lon="6.77501">
        <ele>388</ele>
        <time>2015-09-27T07:15:27.899Z</time>
      </trkpt>
      <trkpt lat="47.51809" lon="6.77501">
        <ele>389</ele>
        <time>2015-09-27T07:15:28.917Z</time>
      </trkpt>
      <trkpt lat="47.51806" lon="6.77489">
        <ele>388</ele>
        <time>2015-09-27T07:15:29.919Z</time>
      </trkpt>
      <trkpt lat="47.51811" lon="6.77503">
        <ele>388</ele>
        <time>2015-09-27T07:15:30.914Z</time>
      </trkpt>
      <trkpt lat="47.51805" lon="6.77504">
        <ele>389</ele>
        <time>2015-09-27T07:15:31.925Z</time>
      </trkpt>
      <trkpt lat="47.51802" lon="6.77511">
        <ele>389</ele>
        <time>2015-09-27T07:15:32.919Z</time>
      </trkpt>
      <trkpt lat="47.51806" lon="6.7752">
        <ele>389</ele>
        <time>2015-09-27T07:15:33.919Z</time>
      </trkpt>
      <trkpt lat="47.51804" lon="6.77529">
        <ele>389</ele>
        <time>2015-09-27T07:15:34.923Z</time>
      </trkpt>
      <trkpt lat="47.51808" lon="6.77543">
        <ele>389</ele>
        <time>2015-09-27T07:15:35.923Z</time>
      </trkpt>
      <trkpt lat="47.51801" lon="6.77532">
        <ele>389</ele>
        <time>2015-09-27T07:15:36.923Z</time>
      </trkpt>
      <trkpt lat="47.51806" lon="6.7753">
        <ele>389</ele>
        <time>2015-09-27T07:15:37.925Z</time>
      </trkpt>
      <trkpt lat="47.518" lon="6.7751">
        <ele>389</ele>
        <time>2015-09-27T07:15:38.898Z</time>
      </trkpt>
      <trkpt lat="47.51795" lon="6.77501">
        <ele>389</ele>
        <time>2015-09-27T07:15:39.899Z</time>
      </trkpt>
      <trkpt lat="47.51797" lon="6.77498">
        <ele>388</ele>
        <time>2015-09-27T07:15:40.897Z</time>
      </trkpt>
      <trkpt lat="47.51797" lon="6.77495">
        <ele>388</ele>
        <time>2015-09-27T07:15:41.899Z</time>
      </trkpt>
      <trkpt lat="47.51801" lon="6.77477">
        <ele>388</ele>
        <time>2015-09-27T07:15:42.899Z</time>
      </trkpt>
      <trkpt lat="47.51804" lon="6.77465">
        <ele>388</ele>
        <time>2015-09-27T07:15:43.899Z</time>
      </trkpt>
      <trkpt lat="47.51803" lon="6.7746">
        <ele>388</ele>
        <time>2015-09-27T07:15:45.899Z</time>
      </trkpt>
      <trkpt lat="47.518" lon="6.77456">
        <ele>388</ele>
        <time>2015-09-27T07:15:46.899Z</time>
      </trkpt>
      <trkpt lat="47.51801" lon="6.77466">
        <ele>388</ele>
        <time>2015-09-27T07:15:47.898Z</time>
      </trkpt>
      <trkpt lat="47.51795" lon="6.77468">
        <ele>388</ele>
        <time>2015-09-27T07:15:48.898Z</time>
      </trkpt>
      <trkpt lat="47.51799" lon="6.77469">
        <ele>388</ele>
        <time>2015-09-27T07:15:49.899Z</time>
      </trkpt>
      <trkpt lat="47.51798" lon="6.77486">
        <ele>388</ele>
        <time>2015-09-27T07:15:50.899Z</time>
      </trkpt>
      <trkpt lat="47.51798" lon="6.77484">
        <ele>388</ele>
        <time>2015-09-27T07:15:51.899Z</time>
      </trkpt>
      <trkpt lat="47.51793" lon="6.77482">
        <ele>388</ele>
        <time>2015-09-27T07:15:52.899Z</time>
      </trkpt>
      <trkpt lat="47.518" lon="6.77486">
        <ele>388</ele>
        <time>2015-09-27T07:15:53.898Z</time>
      </trkpt>
      <trkpt lat="47.51803" lon="6.77487">
        <ele>388</ele>
        <time>2015-09-27T07:15:54.899Z</time>
      </trkpt>
      <trkpt lat="47.51805" lon="6.77475">
        <ele>388</ele>
        <time>2015-09-27T07:15:55.899Z</time>
      </trkpt>
      <trkpt lat="47.51791" lon="6.77492">
        <ele>388</ele>
        <time>2015-09-27T07:15:56.899Z</time>
      </trkpt>
      <trkpt lat="47.5179" lon="6.77494">
        <ele>388</ele>
        <time>2015-09-27T07:15:57.899Z</time>
      </trkpt>
      <trkpt lat="47.51794" lon="6.77479">
        <ele>388</ele>
        <time>2015-09-27T07:15:58.898Z</time>
      </trkpt>
      <trkpt lat="47.51799" lon="6.77489">
        <ele>388</ele>
        <time>2015-09-27T07:15:59.899Z</time>
      </trkpt>
      <trkpt lat="47.51798" lon="6.77484">
        <ele>388</ele>
        <time>2015-09-27T07:16:00.899Z</time>
      </trkpt>
      <trkpt lat="47.51795" lon="6.77478">
        <ele>388</ele>
        <time>2015-09-27T07:16:01.899Z</time>
      </trkpt>
      <trkpt lat="47.51802" lon="6.77459">
        <ele>388</ele>
        <time>2015-09-27T07:16:02.899Z</time>
      </trkpt>
      <trkpt lat="47.51804" lon="6.77474">
        <ele>388</ele>
        <time>2015-09-27T07:16:03.899Z</time>
      </trkpt>
      <trkpt lat="47.51814" lon="6.77486">
        <ele>388</ele>
        <time>2015-09-27T07:16:04.899Z</time>
      </trkpt>
      <trkpt lat="47.51812" lon="6.7749">
        <ele>388</ele>
        <time>2015-09-27T07:16:05.899Z</time>
      </trkpt>
      <trkpt lat="47.5182" lon="6.77491">
        <ele>387</ele>
        <time>2015-09-27T07:16:06.899Z</time>
      </trkpt>
      <trkpt lat="47.51823" lon="6.77472">
        <ele>387</ele>
        <time>2015-09-27T07:16:07.899Z</time>
      </trkpt>
      <trkpt lat="47.5182" lon="6.77478">
        <ele>387</ele>
        <time>2015-09-27T07:16:08.899Z</time>
      </trkpt>
      <trkpt lat="47.51812" lon="6.77477">
        <ele>388</ele>
        <time>2015-09-27T07:16:09.899Z</time>
      </trkpt>
      <trkpt lat="47.51797" lon="6.77476">
        <ele>388</ele>
        <time>2015-09-27T07:16:10.899Z</time>
      </trkpt>
      <trkpt lat="47.51805" lon="6.77479">
        <ele>388</ele>
        <time>2015-09-27T07:16:11.899Z</time>
      </trkpt>
      <trkpt lat="47.51812" lon="6.77472">
        <ele>388</ele>
        <time>2015-09-27T07:16:12.899Z</time>
      </trkpt>
      <trkpt lat="47.51813" lon="6.77478">
        <ele>388</ele>
        <time>2015-09-27T07:16:13.899Z</time>
      </trkpt>
      <trkpt lat="47.51805" lon="6.77477">
        <ele>388</ele>
        <time>2015-09-27T07:16:14.899Z</time>
      </trkpt>
      <trkpt lat="47.51792" lon="6.77475">
        <ele>388</ele>
        <time>2015-09-27T07:16:15.899Z</time>
      </trkpt>
      <trkpt lat="47.51807" lon="6.77472">
        <ele>388</ele>
        <time>2015-09-27T07:16:16.899Z</time>
      </trkpt>
      <trkpt lat="47.51807" lon="6.77476">
        <ele>388</ele>
        <time>2015-09-27T07:16:17.899Z</time>
      </trkpt>
      <trkpt lat="47.51781" lon="6.77463">
        <ele>388</ele>
        <time>2015-09-27T07:16:18.899Z</time>
      </trkpt>
      <trkpt lat="47.51789" lon="6.77464">
        <ele>388</ele>
        <time>2015-09-27T07:16:19.899Z</time>
      </trkpt>
      <trkpt lat="47.51789" lon="6.77455">
        <ele>388</ele>
        <time>2015-09-27T07:16:20.899Z</time>
      </trkpt>
      <trkpt lat="47.51778" lon="6.77447">
        <ele>388</ele>
        <time>2015-09-27T07:16:21.899Z</time>
      </trkpt>
      <trkpt lat="47.51779" lon="6.77413">
        <ele>387</ele>
        <time>2015-09-27T07:16:22.899Z</time>
      </trkpt>
      <trkpt lat="47.51797" lon="6.77458">
        <ele>388</ele>
        <time>2015-09-27T07:16:23.899Z</time>
      </trkpt>
      <trkpt lat="47.51807" lon="6.77472">
        <ele>388</ele>
        <time>2015-09-27T07:16:24.899Z</time>
      </trkpt>
      <trkpt lat="47.51795" lon="6.77481">
        <ele>388</ele>
        <time>2015-09-27T07:16:25.899Z</time>
      </trkpt>
      <trkpt lat="47.51792" lon="6.77475">
        <ele>388</ele>
        <time>2015-09-27T07:16:26.899Z</time>
      </trkpt>
      <trkpt lat="47.51805" lon="6.77483">
        <ele>388</ele>
        <time>2015-09-27T07:16:27.899Z</time>
      </trkpt>
      <trkpt lat="47.51799" lon="6.77469">
        <ele>388</ele>
        <time>2015-09-27T07:16:28.899Z</time>
      </trkpt>
      <trkpt lat="47.51791" lon="6.77472">
        <ele>388</ele>
        <time>2015-09-27T07:16:29.899Z</time>
      </trkpt>
      <trkpt lat="47.5177" lon="6.77461">
        <ele>388</ele>
        <time>2015-09-27T07:16:30.899Z</time>
      </trkpt>
      <trkpt lat="47.51768" lon="6.77455">
        <ele>388</ele>
        <time>2015-09-27T07:16:31.899Z</time>
      </trkpt>
      <trkpt lat="47.51785" lon="6.77459">
        <ele>388</ele>
        <time>2015-09-27T07:16:32.899Z</time>
      </trkpt>
      <trkpt lat="47.51805" lon="6.77457">
        <ele>388</ele>
        <time>2015-09-27T07:16:33.899Z</time>
      </trkpt>
      <trkpt lat="47.51814" lon="6.77479">
        <ele>388</ele>
        <time>2015-09-27T07:16:34.899Z</time>
      </trkpt>
      <trkpt lat="47.51814" lon="6.77485">
        <ele>388</ele>
        <time>2015-09-27T07:16:36.899Z</time>
      </trkpt>
      <trkpt lat="47.51813" lon="6.77497">
        <ele>388</ele>
        <time>2015-09-27T07:16:37.899Z</time>
      </trkpt>
      <trkpt lat="47.51814" lon="6.77495">
        <ele>388</ele>
        <time>2015-09-27T07:16:40.899Z</time>
      </trkpt>
      <trkpt lat="47.5182" lon="6.77494">
        <ele>387</ele>
        <time>2015-09-27T07:16:41.899Z</time>
      </trkpt>
      <trkpt lat="47.51817" lon="6.77486">
        <ele>387</ele>
        <time>2015-09-27T07:16:42.899Z</time>
      </trkpt>
      <trkpt lat="47.51818" lon="6.77493">
        <ele>387</ele>
        <time>2015-09-27T07:16:43.899Z</time>
      </trkpt>
      <trkpt lat="47.51817" lon="6.77494">
        <ele>387</ele>
        <time>2015-09-27T07:16:44.899Z</time>
      </trkpt>
      <trkpt lat="47.51816" lon="6.77476">
        <ele>388</ele>
        <time>2015-09-27T07:16:45.902Z</time>
      </trkpt>
      <trkpt lat="47.51807" lon="6.77467">
        <ele>388</ele>
        <time>2015-09-27T07:16:47.000Z</time>
      </trkpt>
      <trkpt lat="47.51808" lon="6.77473">
        <ele>388</ele>
        <time>2015-09-27T07:17:05.000Z</time>
      </trkpt>
      <trkpt lat="47.51808" lon="6.77474">
        <ele>388</ele>
        <time>2015-09-27T07:17:06.000Z</time>
      </trkpt>
      <trkpt lat="47.51807" lon="6.7748">
        <ele>388</ele>
        <time>2015-09-27T07:18:29.000Z</time>
      </trkpt>
      <trkpt lat="47.51805" lon="6.77481">
        <ele>388</ele>
        <time>2015-09-27T07:18:30.000Z</time>
      </trkpt>
      <trkpt lat="47.51808" lon="6.77485">
        <ele>388</ele>
        <time>2015-09-27T07:18:36.000Z</time>
      </trkpt>
      <trkpt lat="47.51808" lon="6.77487">
        <ele>388</ele>
        <time>2015-09-27T07:18:37.000Z</time>
      </trkpt>
      <trkpt lat="47.51807" lon="6.77491">
        <ele>388</ele>
        <time>2015-09-27T07:18:39.000Z</time>
      </trkpt>
      <trkpt lat="47.51806" lon="6.77493">
        <ele>388</ele>
        <time>2015-09-27T07:18:40.000Z</time>
      </trkpt>
      <trkpt lat="47.51803" lon="6.77494">
        <ele>388</ele>
        <time>2015-09-27T07:18:41.000Z</time>
      </trkpt>
      <trkpt lat="47.518" lon="6.77494">
        <ele>388</ele>
        <time>2015-09-27T07:18:42.000Z</time>
      </trkpt>
      <trkpt lat="47.51797" lon="6.77493">
        <ele>388</ele>
        <time>2015-09-27T07:18:43.000Z</time>
      </trkpt>
      <trkpt lat="47.51794" lon="6.77491">
        <ele>388</ele>
        <time>2015-09-27T07:18:44.000Z</time>
      </trkpt>
      <trkpt lat="47.5179" lon="6.77488">
        <ele>388</ele>
        <time>2015-09-27T07:18:45.000Z</time>
      </trkpt>
      <trkpt lat="47.51787" lon="6.77486">
        <ele>388</ele>
        <time>2015-09-27T07:18:46.000Z</time>
      </trkpt>
      <trkpt lat="47.51784" lon="6.77484">
        <ele>388</ele>
        <time>2015-09-27T07:18:47.000Z</time>
      </trkpt>
      <trkpt lat="47.5178" lon="6.77482">
        <ele>388</ele>
        <time>2015-09-27T07:18:48.000Z</time>
      </trkpt>
      <trkpt lat="47.51777" lon="6.7748">
        <ele>388</ele>
        <time>2015-09-27T07:18:49.000Z</time>
      </trkpt>
      <trkpt lat="47.51774" lon="6.77479">
        <ele>388</ele>
        <time>2015-09-27T07:18:50.000Z</time>
      </trkpt>
      <trkpt lat="47.5177" lon="6.77478">
        <ele>388</ele>
        <time>2015-09-27T07:18:51.000Z</time>
      </trkpt>
      <trkpt lat="47.51767" lon="6.77477">
        <ele>388</ele>
        <time>2015-09-27T07:18:52.000Z</time>
      </trkpt>
      <trkpt lat="47.51763" lon="6.77476">
        <ele>388</ele>
        <time>2015-09-27T07:18:53.000Z</time>
      </trkpt>
      <trkpt lat="47.51759" lon="6.77476">
        <ele>389</ele>
        <time>2015-09-27T07:18:54.000Z</time>
      </trkpt>
      <trkpt lat="47.51755" lon="6.77475">
        <ele>389</ele>
        <time>2015-09-27T07:18:55.000Z</time>
      </trkpt>
      <trkpt lat="47.5175" lon="6.77474">
        <ele>389</ele>
        <time>2015-09-27T07:18:56.000Z</time>
      </trkpt>
      <trkpt lat="47.51746" lon="6.77473">
        <ele>389</ele>
        <time>2015-09-27T07:18:57.000Z</time>
      </trkpt>
      <trkpt lat="47.51741" lon="6.77473">
        <ele>389</ele>
        <time>2015-09-27T07:18:58.000Z</time>
      </trkpt>
      <trkpt lat="47.51737" lon="6.77473">
        <ele>389</ele>
        <time>2015-09-27T07:18:59.000Z</time>
      </trkpt>
      <trkpt lat="47.51733" lon="6.77474">
        <ele>389</ele>
        <time>2015-09-27T07:19:00.000Z</time>
      </trkpt>
      <trkpt lat="47.51729" lon="6.77478">
        <ele>389</ele>
        <time>2015-09-27T07:19:01.000Z</time>
      </trkpt>
      <trkpt lat="47.5173" lon="6.77491">
        <ele>389</ele>
        <time>2015-09-27T07:19:02.000Z</time>
      </trkpt>
      <trkpt lat="47.51729" lon="6.77499">
        <ele>389</ele>
        <time>2015-09-27T07:19:03.000Z</time>
      </trkpt>
      <trkpt lat="47.51726" lon="6.77506">
        <ele>390</ele>
        <time>2015-09-27T07:19:04.000Z</time>
      </trkpt>
      <trkpt lat="47.51725" lon="6.77512">
        <ele>390</ele>
        <time>2015-09-27T07:19:05.000Z</time>
      </trkpt>
      <trkpt lat="47.51724" lon="6.77519">
        <ele>390</ele>
        <time>2015-09-27T07:19:06.000Z</time>
      </trkpt>
      <trkpt lat="47.51723" lon="6.77525">
        <ele>390</ele>
        <time>2015-09-27T07:19:07.000Z</time>
      </trkpt>
      <trkpt lat="47.51722" lon="6.77531">
        <ele>390</ele>
        <time>2015-09-27T07:19:08.000Z</time>
      </trkpt>
      <trkpt lat="47.51721" lon="6.77537">
        <ele>390</ele>
        <time>2015-09-27T07:19:09.000Z</time>
      </trkpt>
      <trkpt lat="47.5172" lon="6.77543">
        <ele>390</ele>
        <time>2015-09-27T07:19:10.000Z</time>
      </trkpt>
      <trkpt lat="47.51719" lon="6.77549">
        <ele>390</ele>
        <time>2015-09-27T07:19:11.000Z</time>
      </trkpt>
      <trkpt lat="47.51715" lon="6.77552">
        <ele>390</ele>
        <time>2015-09-27T07:19:12.000Z</time>
      </trkpt>
      <trkpt lat="47.5171" lon="6.77553">
        <ele>390</ele>
        <time>2015-09-27T07:19:13.000Z</time>
      </trkpt>
      <trkpt lat="47.51705" lon="6.77549">
        <ele>390</ele>
        <time>2015-09-27T07:19:14.000Z</time>
      </trkpt>
      <trkpt lat="47.517" lon="6.77544">
        <ele>390</ele>
        <time>2015-09-27T07:19:15.000Z</time>
      </trkpt>
      <trkpt lat="47.51695" lon="6.77538">
        <ele>390</ele>
        <time>2015-09-27T07:19:16.000Z</time>
      </trkpt>
      <trkpt lat="47.5169" lon="6.77532">
        <ele>390</ele>
        <time>2015-09-27T07:19:17.000Z</time>
      </trkpt>
      <trkpt lat="47.51685" lon="6.77526">
        <ele>390</ele>
        <time>2015-09-27T07:19:18.000Z</time>
      </trkpt>
      <trkpt lat="47.5168" lon="6.7752">
        <ele>390</ele>
        <time>2015-09-27T07:19:19.000Z</time>
      </trkpt>
      <trkpt lat="47.51675" lon="6.77513">
        <ele>389</ele>
        <time>2015-09-27T07:19:20.000Z</time>
      </trkpt>
      <trkpt lat="47.51669" lon="6.77507">
        <ele>389</ele>
        <time>2015-09-27T07:19:20.999Z</time>
      </trkpt>
      <trkpt lat="47.51664" lon="6.775">
        <ele>389</ele>
        <time>2015-09-27T07:19:22.000Z</time>
      </trkpt>
      <trkpt lat="47.51658" lon="6.77493">
        <ele>388</ele>
        <time>2015-09-27T07:19:23.000Z</time>
      </trkpt>
      <trkpt lat="47.51654" lon="6.77487">
        <ele>387</ele>
        <time>2015-09-27T07:19:24.000Z</time>
      </trkpt>
      <trkpt lat="47.51649" lon="6.77481">
        <ele>387</ele>
        <time>2015-09-27T07:19:25.000Z</time>
      </trkpt>
      <trkpt lat="47.51643" lon="6.77475">
        <ele>386</ele>
        <time>2015-09-27T07:19:26.000Z</time>
      </trkpt>
      <trkpt lat="47.51638" lon="6.77468">
        <ele>386</ele>
        <time>2015-09-27T07:19:27.000Z</time>
      </trkpt>
      <trkpt lat="47.51633" lon="6.77462">
        <ele>386</ele>
        <time>2015-09-27T07:19:28.000Z</time>
      </trkpt>
      <trkpt lat="47.51627" lon="6.77456">
        <ele>386</ele>
        <time>2015-09-27T07:19:29.000Z</time>
      </trkpt>
      <trkpt lat="47.51622" lon="6.77447">
        <ele>386</ele>
        <time>2015-09-27T07:19:30.000Z</time>
      </trkpt>
      <trkpt lat="47.51617" lon="6.77439">
        <ele>385</ele>
        <time>2015-09-27T07:19:30.999Z</time>
      </trkpt>
      <trkpt lat="47.5161" lon="6.77432">
        <ele>385</ele>
        <time>2015-09-27T07:19:32.000Z</time>
      </trkpt>
      <trkpt lat="47.51605" lon="6.77424">
        <ele>385</ele>
        <time>2015-09-27T07:19:33.000Z</time>
      </trkpt>
      <trkpt lat="47.51598" lon="6.77416">
        <ele>383</ele>
        <time>2015-09-27T07:19:34.000Z</time>
      </trkpt>
      <trkpt lat="47.51592" lon="6.77409">
        <ele>383</ele>
        <time>2015-09-27T07:19:34.999Z</time>
      </trkpt>
      <trkpt lat="47.51585" lon="6.77399">
        <ele>383</ele>
        <time>2015-09-27T07:19:36.000Z</time>
      </trkpt>
      <trkpt lat="47.51578" lon="6.7739">
        <ele>381</ele>
        <time>2015-09-27T07:19:37.000Z</time>
      </trkpt>
      <trkpt lat="47.51571" lon="6.77382">
        <ele>381</ele>
        <time>2015-09-27T07:19:38.000Z</time>
      </trkpt>
      <trkpt lat="47.51564" lon="6.77372">
        <ele>381</ele>
        <time>2015-09-27T07:19:39.000Z</time>
      </trkpt>
      <trkpt lat="47.51557" lon="6.77362">
        <ele>381</ele>
        <time>2015-09-27T07:19:39.999Z</time>
      </trkpt>
      <trkpt lat="47.5155" lon="6.77353">
        <ele>380</ele>
        <time>2015-09-27T07:19:41.001Z</time>
      </trkpt>
      <trkpt lat="47.51542" lon="6.77344">
        <ele>380</ele>
        <time>2015-09-27T07:19:42.000Z</time>
      </trkpt>
      <trkpt lat="47.51534" lon="6.77334">
        <ele>380</ele>
        <time>2015-09-27T07:19:43.000Z</time>
      </trkpt>
      <trkpt lat="47.51527" lon="6.77325">
        <ele>379</ele>
        <time>2015-09-27T07:19:44.000Z</time>
      </trkpt>
      <trkpt lat="47.51519" lon="6.77316">
        <ele>378</ele>
        <time>2015-09-27T07:19:45.000Z</time>
      </trkpt>
      <trkpt lat="47.5151" lon="6.77307">
        <ele>378</ele>
        <time>2015-09-27T07:19:46.000Z</time>
      </trkpt>
      <trkpt lat="47.51502" lon="6.77296">
        <ele>378</ele>
        <time>2015-09-27T07:19:47.000Z</time>
      </trkpt>
      <trkpt lat="47.51496" lon="6.77284">
        <ele>377</ele>
        <time>2015-09-27T07:19:48.000Z</time>
      </trkpt>
      <trkpt lat="47.51492" lon="6.7727">
        <ele>376</ele>
        <time>2015-09-27T07:19:49.000Z</time>
      </trkpt>
      <trkpt lat="47.5149" lon="6.77256">
        <ele>376</ele>
        <time>2015-09-27T07:19:50.000Z</time>
      </trkpt>
      <trkpt lat="47.51489" lon="6.77242">
        <ele>376</ele>
        <time>2015-09-27T07:19:51.000Z</time>
      </trkpt>
      <trkpt lat="47.51488" lon="6.77228">
        <ele>375</ele>
        <time>2015-09-27T07:19:52.000Z</time>
      </trkpt>
      <trkpt lat="47.51487" lon="6.77215">
        <ele>375</ele>
        <time>2015-09-27T07:19:53.000Z</time>
      </trkpt>
      <trkpt lat="47.51486" lon="6.77202">
        <ele>375</ele>
        <time>2015-09-27T07:19:54.000Z</time>
      </trkpt>
      <trkpt lat="47.51481" lon="6.77192">
        <ele>375</ele>
        <time>2015-09-27T07:19:55.000Z</time>
      </trkpt>
      <trkpt lat="47.51474" lon="6.77188">
        <ele>375</ele>
        <time>2015-09-27T07:19:56.000Z</time>
      </trkpt>
      <trkpt lat="47.51468" lon="6.77185">
        <ele>375</ele>
        <time>2015-09-27T07:19:57.000Z</time>
      </trkpt>
      <trkpt lat="47.51458" lon="6.77191">
        <ele>375</ele>
        <time>2015-09-27T07:19:58.000Z</time>
      </trkpt>
      <trkpt lat="47.5145" lon="6.77195">
        <ele>375</ele>
        <time>2015-09-27T07:19:59.000Z</time>
      </trkpt>
      <trkpt lat="47.51442" lon="6.772">
        <ele>375</ele>
        <time>2015-09-27T07:20:00.000Z</time>
      </trkpt>
      <trkpt lat="47.51434" lon="6.77205">
        <ele>375</ele>
        <time>2015-09-27T07:20:01.000Z</time>
      </trkpt>
      <trkpt lat="47.51427" lon="6.77208">
        <ele>375</ele>
        <time>2015-09-27T07:20:02.000Z</time>
      </trkpt>
      <trkpt lat="47.51419" lon="6.77212">
        <ele>375</ele>
        <time>2015-09-27T07:20:03.000Z</time>
      </trkpt>
      <trkpt lat="47.51412" lon="6.77215">
        <ele>375</ele>
        <time>2015-09-27T07:20:04.000Z</time>
      </trkpt>
      <trkpt lat="47.51406" lon="6.77219">
        <ele>376</ele>
        <time>2015-09-27T07:20:05.000Z</time>
      </trkpt>
      <trkpt lat="47.51399" lon="6.77223">
        <ele>376</ele>
        <time>2015-09-27T07:20:06.000Z</time>
      </trkpt>
      <trkpt lat="47.51393" lon="6.77226">
        <ele>376</ele>
        <time>2015-09-27T07:20:07.000Z</time>
      </trkpt>
      <trkpt lat="47.51388" lon="6.7723">
        <ele>376</ele>
        <time>2015-09-27T07:20:08.000Z</time>
      </trkpt>
      <trkpt lat="47.51382" lon="6.77233">
        <ele>376</ele>
        <time>2015-09-27T07:20:09.000Z</time>
      </trkpt>
      <trkpt lat="47.51378" lon="6.77236">
        <ele>376</ele>
        <time>2015-09-27T07:20:10.000Z</time>
      </trkpt>
      <trkpt lat="47.51373" lon="6.77239">
        <ele>376</ele>
        <time>2015-09-27T07:20:11.000Z</time>
      </trkpt>
      <trkpt lat="47.51369" lon="6.77241">
        <ele>376</ele>
        <time>2015-09-27T07:20:12.000Z</time>
      </trkpt>
      <trkpt lat="47.51365" lon="6.77246">
        <ele>376</ele>
        <time>2015-09-27T07:20:13.000Z</time>
      </trkpt>
      <trkpt lat="47.51362" lon="6.7725">
        <ele>376</ele>
        <time>2015-09-27T07:20:14.000Z</time>
      </trkpt>
      <trkpt lat="47.51358" lon="6.77254">
        <ele>378</ele>
        <time>2015-09-27T07:20:15.000Z</time>
      </trkpt>
      <trkpt lat="47.51355" lon="6.77257">
        <ele>378</ele>
        <time>2015-09-27T07:20:16.000Z</time>
      </trkpt>
      <trkpt lat="47.51352" lon="6.77259">
        <ele>378</ele>
        <time>2015-09-27T07:20:17.000Z</time>
      </trkpt>
      <trkpt lat="47.51349" lon="6.77261">
        <ele>378</ele>
        <time>2015-09-27T07:20:18.000Z</time>
      </trkpt>
      <trkpt lat="47.51346" lon="6.77263">
        <ele>378</ele>
        <time>2015-09-27T07:20:19.000Z</time>
      </trkpt>
      <trkpt lat="47.51343" lon="6.77265">
        <ele>378</ele>
        <time>2015-09-27T07:20:20.000Z</time>
      </trkpt>
      <trkpt lat="47.5134" lon="6.77267">
        <ele>378</ele>
        <time>2015-09-27T07:20:21.000Z</time>
      </trkpt>
      <trkpt lat="47.51337" lon="6.7727">
        <ele>378</ele>
        <time>2015-09-27T07:20:22.000Z</time>
      </trkpt>
      <trkpt lat="47.51334" lon="6.77271">
        <ele>378</ele>
        <time>2015-09-27T07:20:23.000Z</time>
      </trkpt>
      <trkpt lat="47.5133" lon="6.77272">
        <ele>377</ele>
        <time>2015-09-27T07:20:24.000Z</time>
      </trkpt>
      <trkpt lat="47.51327" lon="6.77273">
        <ele>377</ele>
        <time>2015-09-27T07:20:25.000Z</time>
      </trkpt>
      <trkpt lat="47.51323" lon="6.77273">
        <ele>377</ele>
        <time>2015-09-27T07:20:26.000Z</time>
      </trkpt>
      <trkpt lat="47.5132" lon="6.77273">
        <ele>377</ele>
        <time>2015-09-27T07:20:27.000Z</time>
      </trkpt>
      <trkpt lat="47.51316" lon="6.77272">
        <ele>377</ele>
        <time>2015-09-27T07:20:28.000Z</time>
      </trkpt>
      <trkpt lat="47.51312" lon="6.77271">
        <ele>377</ele>
        <time>2015-09-27T07:20:29.000Z</time>
      </trkpt>
      <trkpt lat="47.51309" lon="6.77269">
        <ele>377</ele>
        <time>2015-09-27T07:20:30.000Z</time>
      </trkpt>
      <trkpt lat="47.51305" lon="6.77265">
        <ele>377</ele>
        <time>2015-09-27T07:20:31.000Z</time>
      </trkpt>
      <trkpt lat="47.51301" lon="6.77263">
        <ele>377</ele>
        <time>2015-09-27T07:20:32.000Z</time>
      </trkpt>
      <trkpt lat="47.51298" lon="6.77261">
        <ele>377</ele>
        <time>2015-09-27T07:20:33.000Z</time>
      </trkpt>
      <trkpt lat="47.51294" lon="6.77259">
        <ele>377</ele>
        <time>2015-09-27T07:20:34.000Z</time>
      </trkpt>
      <trkpt lat="47.5129" lon="6.77258">
        <ele>377</ele>
        <time>2015-09-27T07:20:35.000Z</time>
      </trkpt>
      <trkpt lat="47.51286" lon="6.77255">
        <ele>377</ele>
        <time>2015-09-27T07:20:36.000Z</time>
      </trkpt>
      <trkpt lat="47.51283" lon="6.77253">
        <ele>377</ele>
        <time>2015-09-27T07:20:37.000Z</time>
      </trkpt>
      <trkpt lat="47.51279" lon="6.77251">
        <ele>377</ele>
        <time>2015-09-27T07:20:38.000Z</time>
      </trkpt>
      <trkpt lat="47.51276" lon="6.7725">
        <ele>378</ele>
        <time>2015-09-27T07:20:39.000Z</time>
      </trkpt>
      <trkpt lat="47.51272" lon="6.77247">
        <ele>378</ele>
        <time>2015-09-27T07:20:40.000Z</time>
      </trkpt>
      <trkpt lat="47.51269" lon="6.77245">
        <ele>378</ele>
        <time>2015-09-27T07:20:41.000Z</time>
      </trkpt>
      <trkpt lat="47.51265" lon="6.77243">
        <ele>378</ele>
        <time>2015-09-27T07:20:42.000Z</time>
      </trkpt>
      <trkpt lat="47.51261" lon="6.77238">
        <ele>378</ele>
        <time>2015-09-27T07:20:43.000Z</time>
      </trkpt>
      <trkpt lat="47.51258" lon="6.77233">
        <ele>378</ele>
        <time>2015-09-27T07:20:44.000Z</time>
      </trkpt>
      <trkpt lat="47.51255" lon="6.77227">
        <ele>378</ele>
        <time>2015-09-27T07:20:45.000Z</time>
      </trkpt>
      <trkpt lat="47.51251" lon="6.77222">
        <ele>378</ele>
        <time>2015-09-27T07:20:46.000Z</time>
      </trkpt>
      <trkpt lat="47.51246" lon="6.77217">
        <ele>376</ele>
        <time>2015-09-27T07:20:47.000Z</time>
      </trkpt>
      <trkpt lat="47.51243" lon="6.77208">
        <ele>376</ele>
        <time>2015-09-27T07:20:48.000Z</time>
      </trkpt>
      <trkpt lat="47.5124" lon="6.772">
        <ele>376</ele>
        <time>2015-09-27T07:20:49.000Z</time>
      </trkpt>
      <trkpt lat="47.51235" lon="6.77193">
        <ele>376</ele>
        <time>2015-09-27T07:20:50.000Z</time>
      </trkpt>
      <trkpt lat="47.51231" lon="6.77185">
        <ele>377</ele>
        <time>2015-09-27T07:20:51.000Z</time>
      </trkpt>
      <trkpt lat="47.51228" lon="6.77178">
        <ele>377</ele>
        <time>2015-09-27T07:20:52.000Z</time>
      </trkpt>
      <trkpt lat="47.51224" lon="6.7717">
        <ele>377</ele>
        <time>2015-09-27T07:20:53.000Z</time>
      </trkpt>
      <trkpt lat="47.5122" lon="6.77162">
        <ele>378</ele>
        <time>2015-09-27T07:20:54.000Z</time>
      </trkpt>
      <trkpt lat="47.51216" lon="6.77154">
        <ele>378</ele>
        <time>2015-09-27T07:20:55.000Z</time>
      </trkpt>
      <trkpt lat="47.51212" lon="6.77146">
        <ele>378</ele>
        <time>2015-09-27T07:20:56.000Z</time>
      </trkpt>
      <trkpt lat="47.51208" lon="6.77138">
        <ele>378</ele>
        <time>2015-09-27T07:20:57.000Z</time>
      </trkpt>
      <trkpt lat="47.51203" lon="6.7713">
        <ele>378</ele>
        <time>2015-09-27T07:20:58.000Z</time>
      </trkpt>
      <trkpt lat="47.512" lon="6.77121">
        <ele>378</ele>
        <time>2015-09-27T07:20:59.000Z</time>
      </trkpt>
      <trkpt lat="47.51196" lon="6.77112">
        <ele>377</ele>
        <time>2015-09-27T07:21:00.000Z</time>
      </trkpt>
      <trkpt lat="47.5119" lon="6.77104">
        <ele>378</ele>
        <time>2015-09-27T07:21:01.000Z</time>
      </trkpt>
      <trkpt lat="47.51186" lon="6.77095">
        <ele>378</ele>
        <time>2015-09-27T07:21:02.000Z</time>
      </trkpt>
      <trkpt lat="47.51181" lon="6.77086">
        <ele>378</ele>
        <time>2015-09-27T07:21:03.000Z</time>
      </trkpt>
      <trkpt lat="47.51176" lon="6.77076">
        <ele>377</ele>
        <time>2015-09-27T07:21:04.000Z</time>
      </trkpt>
      <trkpt lat="47.5117" lon="6.77067">
        <ele>377</ele>
        <time>2015-09-27T07:21:05.000Z</time>
      </trkpt>
      <trkpt lat="47.51164" lon="6.77058">
        <ele>376</ele>
        <time>2015-09-27T07:21:06.000Z</time>
      </trkpt>
      <trkpt lat="47.51158" lon="6.7705">
        <ele>376</ele>
        <time>2015-09-27T07:21:07.000Z</time>
      </trkpt>
      <trkpt lat="47.51152" lon="6.77043">
        <ele>376</ele>
        <time>2015-09-27T07:21:08.000Z</time>
      </trkpt>
      <trkpt lat="47.51145" lon="6.77037">
        <ele>375</ele>
        <time>2015-09-27T07:21:09.000Z</time>
      </trkpt>
      <trkpt lat="47.51138" lon="6.77031">
        <ele>375</ele>
        <time>2015-09-27T07:21:10.000Z</time>
      </trkpt>
      <trkpt lat="47.51131" lon="6.77025">
        <ele>375</ele>
        <time>2015-09-27T07:21:11.000Z</time>
      </trkpt>
      <trkpt lat="47.51124" lon="6.77019">
        <ele>375</ele>
        <time>2015-09-27T07:21:12.000Z</time>
      </trkpt>
      <trkpt lat="47.51117" lon="6.77013">
        <ele>375</ele>
        <time>2015-09-27T07:21:13.000Z</time>
      </trkpt>
      <trkpt lat="47.5111" lon="6.77006">
        <ele>375</ele>
        <time>2015-09-27T07:21:14.000Z</time>
      </trkpt>
      <trkpt lat="47.51104" lon="6.77">
        <ele>375</ele>
        <time>2015-09-27T07:21:15.000Z</time>
      </trkpt>
      <trkpt lat="47.51097" lon="6.76994">
        <ele>375</ele>
        <time>2015-09-27T07:21:16.000Z</time>
      </trkpt>
      <trkpt lat="47.5109" lon="6.76988">
        <ele>375</ele>
        <time>2015-09-27T07:21:17.000Z</time>
      </trkpt>
      <trkpt lat="47.51083" lon="6.76983">
        <ele>375</ele>
        <time>2015-09-27T07:21:18.000Z</time>
      </trkpt>
      <trkpt lat="47.51076" lon="6.76977">
        <ele>375</ele>
        <time>2015-09-27T07:21:19.000Z</time>
      </trkpt>
      <trkpt lat="47.5107" lon="6.76971">
        <ele>375</ele>
        <time>2015-09-27T07:21:20.000Z</time>
      </trkpt>
      <trkpt lat="47.51063" lon="6.76966">
        <ele>375</ele>
        <time>2015-09-27T07:21:21.000Z</time>
      </trkpt>
      <trkpt lat="47.51057" lon="6.76961">
        <ele>375</ele>
        <time>2015-09-27T07:21:22.000Z</time>
      </trkpt>
      <trkpt lat="47.51051" lon="6.76955">
        <ele>375</ele>
        <time>2015-09-27T07:21:23.000Z</time>
      </trkpt>
      <trkpt lat="47.51044" lon="6.76951">
        <ele>375</ele>
        <time>2015-09-27T07:21:24.000Z</time>
      </trkpt>
      <trkpt lat="47.51038" lon="6.76946">
        <ele>375</ele>
        <time>2015-09-27T07:21:25.000Z</time>
      </trkpt>
      <trkpt lat="47.51032" lon="6.76941">
        <ele>375</ele>
        <time>2015-09-27T07:21:26.000Z</time>
      </trkpt>
      <trkpt lat="47.51026" lon="6.76936">
        <ele>375</ele>
        <time>2015-09-27T07:21:27.000Z</time>
      </trkpt>
      <trkpt lat="47.5102" lon="6.76932">
        <ele>375</ele>
        <time>2015-09-27T07:21:28.000Z</time>
      </trkpt>
      <trkpt lat="47.51014" lon="6.76928">
        <ele>375</ele>
        <time>2015-09-27T07:21:29.000Z</time>
      </trkpt>
      <trkpt lat="47.51008" lon="6.76923">
        <ele>376</ele>
        <time>2015-09-27T07:21:30.000Z</time>
      </trkpt>
      <trkpt lat="47.51002" lon="6.7692">
        <ele>376</ele>
        <time>2015-09-27T07:21:31.000Z</time>
      </trkpt>
      <trkpt lat="47.50997" lon="6.76916">
        <ele>376</ele>
        <time>2015-09-27T07:21:32.000Z</time>
      </trkpt>
      <trkpt lat="47.50993" lon="6.76908">
        <ele>376</ele>
        <time>2015-09-27T07:21:33.000Z</time>
      </trkpt>
      <trkpt lat="47.50992" lon="6.76899">
        <ele>377</ele>
        <time>2015-09-27T07:21:34.000Z</time>
      </trkpt>
      <trkpt lat="47.50989" lon="6.76891">
        <ele>377</ele>
        <time>2015-09-27T07:21:35.000Z</time>
      </trkpt>
      <trkpt lat="47.50983" lon="6.76887">
        <ele>377</ele>
        <time>2015-09-27T07:21:36.000Z</time>
      </trkpt>
      <trkpt lat="47.50978" lon="6.76887">
        <ele>377</ele>
        <time>2015-09-27T07:21:37.000Z</time>
      </trkpt>
      <trkpt lat="47.50972" lon="6.76887">
        <ele>377</ele>
        <time>2015-09-27T07:21:38.000Z</time>
      </trkpt>
      <trkpt lat="47.50966" lon="6.76886">
        <ele>377</ele>
        <time>2015-09-27T07:21:39.000Z</time>
      </trkpt>
      <trkpt lat="47.50961" lon="6.76883">
        <ele>377</ele>
        <time>2015-09-27T07:21:40.000Z</time>
      </trkpt>
      <trkpt lat="47.50956" lon="6.76881">
        <ele>378</ele>
        <time>2015-09-27T07:21:41.000Z</time>
      </trkpt>
      <trkpt lat="47.50951" lon="6.76878">
        <ele>378</ele>
        <time>2015-09-27T07:21:42.000Z</time>
      </trkpt>
      <trkpt lat="47.50946" lon="6.76874">
        <ele>378</ele>
        <time>2015-09-27T07:21:43.000Z</time>
      </trkpt>
      <trkpt lat="47.50942" lon="6.76868">
        <ele>378</ele>
        <time>2015-09-27T07:21:44.000Z</time>
      </trkpt>
      <trkpt lat="47.50937" lon="6.76863">
        <ele>378</ele>
        <time>2015-09-27T07:21:45.000Z</time>
      </trkpt>
      <trkpt lat="47.50933" lon="6.76857">
        <ele>378</ele>
        <time>2015-09-27T07:21:46.000Z</time>
      </trkpt>
      <trkpt lat="47.5093" lon="6.76853">
        <ele>378</ele>
        <time>2015-09-27T07:21:47.000Z</time>
      </trkpt>
      <trkpt lat="47.50926" lon="6.76846">
        <ele>379</ele>
        <time>2015-09-27T07:21:48.000Z</time>
      </trkpt>
      <trkpt lat="47.50923" lon="6.76841">
        <ele>379</ele>
        <time>2015-09-27T07:21:49.000Z</time>
      </trkpt>
      <trkpt lat="47.5092" lon="6.76835">
        <ele>380</ele>
        <time>2015-09-27T07:21:50.000Z</time>
      </trkpt>
      <trkpt lat="47.50917" lon="6.76829">
        <ele>379</ele>
        <time>2015-09-27T07:21:51.000Z</time>
      </trkpt>
      <trkpt lat="47.50914" lon="6.76824">
        <ele>380</ele>
        <time>2015-09-27T07:21:52.000Z</time>
      </trkpt>
      <trkpt lat="47.50911" lon="6.76818">
        <ele>381</ele>
        <time>2015-09-27T07:21:53.000Z</time>
      </trkpt>
      <trkpt lat="47.50909" lon="6.76811">
        <ele>381</ele>
        <time>2015-09-27T07:21:54.000Z</time>
      </trkpt>
      <trkpt lat="47.50906" lon="6.76805">
        <ele>381</ele>
        <time>2015-09-27T07:21:55.000Z</time>
      </trkpt>
      <trkpt lat="47.50903" lon="6.76799">
        <ele>381</ele>
        <time>2015-09-27T07:21:56.000Z</time>
      </trkpt>
      <trkpt lat="47.509" lon="6.76793">
        <ele>381</ele>
        <time>2015-09-27T07:21:57.000Z</time>
      </trkpt>
      <trkpt lat="47.50897" lon="6.76787">
        <ele>381</ele>
        <time>2015-09-27T07:21:58.000Z</time>
      </trkpt>
      <trkpt lat="47.50895" lon="6.76781">
        <ele>381</ele>
        <time>2015-09-27T07:21:59.000Z</time>
      </trkpt>
      <trkpt lat="47.50892" lon="6.76775">
        <ele>381</ele>
        <time>2015-09-27T07:22:00.000Z</time>
      </trkpt>
      <trkpt lat="47.5089" lon="6.76769">
        <ele>381</ele>
        <time>2015-09-27T07:22:01.000Z</time>
      </trkpt>
      <trkpt lat="47.50888" lon="6.76763">
        <ele>381</ele>
        <time>2015-09-27T07:22:02.000Z</time>
      </trkpt>
      <trkpt lat="47.50885" lon="6.76758">
        <ele>381</ele>
        <time>2015-09-27T07:22:03.000Z</time>
      </trkpt>
      <trkpt lat="47.50883" lon="6.76752">
        <ele>381</ele>
        <time>2015-09-27T07:22:04.000Z</time>
      </trkpt>
      <trkpt lat="47.5088" lon="6.76748">
        <ele>382</ele>
        <time>2015-09-27T07:22:05.000Z</time>
      </trkpt>
      <trkpt lat="47.50878" lon="6.76741">
        <ele>383</ele>
        <time>2015-09-27T07:22:06.000Z</time>
      </trkpt>
      <trkpt lat="47.50876" lon="6.76735">
        <ele>383</ele>
        <time>2015-09-27T07:22:07.000Z</time>
      </trkpt>
      <trkpt lat="47.50874" lon="6.7673">
        <ele>383</ele>
        <time>2015-09-27T07:22:08.000Z</time>
      </trkpt>
      <trkpt lat="47.50872" lon="6.76726">
        <ele>383</ele>
        <time>2015-09-27T07:22:09.000Z</time>
      </trkpt>
      <trkpt lat="47.50871" lon="6.76721">
        <ele>383</ele>
        <time>2015-09-27T07:22:10.000Z</time>
      </trkpt>
      <trkpt lat="47.50869" lon="6.76716">
        <ele>383</ele>
        <time>2015-09-27T07:22:11.000Z</time>
      </trkpt>
      <trkpt lat="47.50867" lon="6.76712">
        <ele>384</ele>
        <time>2015-09-27T07:22:12.000Z</time>
      </trkpt>
      <trkpt lat="47.50865" lon="6.76707">
        <ele>384</ele>
        <time>2015-09-27T07:22:13.000Z</time>
      </trkpt>
      <trkpt lat="47.50863" lon="6.76703">
        <ele>384</ele>
        <time>2015-09-27T07:22:14.000Z</time>
      </trkpt>
      <trkpt lat="47.50861" lon="6.76698">
        <ele>384</ele>
        <time>2015-09-27T07:22:15.000Z</time>
      </trkpt>
      <trkpt lat="47.50859" lon="6.76694">
        <ele>384</ele>
        <time>2015-09-27T07:22:16.000Z</time>
      </trkpt>
      <trkpt lat="47.50857" lon="6.76688">
        <ele>385</ele>
        <time>2015-09-27T07:22:17.000Z</time>
      </trkpt>
      <trkpt lat="47.50855" lon="6.76683">
        <ele>385</ele>
        <time>2015-09-27T07:22:18.000Z</time>
      </trkpt>
      <trkpt lat="47.50853" lon="6.76678">
        <ele>386</ele>
        <time>2015-09-27T07:22:19.000Z</time>
      </trkpt>
      <trkpt lat="47.5085" lon="6.76673">
        <ele>386</ele>
        <time>2015-09-27T07:22:20.000Z</time>
      </trkpt>
      <trkpt lat="47.50848" lon="6.76668">
        <ele>386</ele>
        <time>2015-09-27T07:22:21.000Z</time>
      </trkpt>
      <trkpt lat="47.50846" lon="6.76663">
        <ele>388</ele>
        <time>2015-09-27T07:22:22.000Z</time>
      </trkpt>
      <trkpt lat="47.50844" lon="6.76659">
        <ele>388</ele>
        <time>2015-09-27T07:22:23.000Z</time>
      </trkpt>
      <trkpt lat="47.50842" lon="6.76654">
        <ele>388</ele>
        <time>2015-09-27T07:22:24.000Z</time>
      </trkpt>
      <trkpt lat="47.5084" lon="6.7665">
        <ele>387</ele>
        <time>2015-09-27T07:22:25.000Z</time>
      </trkpt>
      <trkpt lat="47.50838" lon="6.76646">
        <ele>387</ele>
        <time>2015-09-27T07:22:26.000Z</time>
      </trkpt>
      <trkpt lat="47.50836" lon="6.76642">
        <ele>387</ele>
        <time>2015-09-27T07:22:27.000Z</time>
      </trkpt>
      <trkpt lat="47.50834" lon="6.76638">
        <ele>387</ele>
        <time>2015-09-27T07:22:28.000Z</time>
      </trkpt>
      <trkpt lat="47.50832" lon="6.76634">
        <ele>390</ele>
        <time>2015-09-27T07:22:29.000Z</time>
      </trkpt>
      <trkpt lat="47.5083" lon="6.76629">
        <ele>390</ele>
        <time>2015-09-27T07:22:29.999Z</time>
      </trkpt>
      <trkpt lat="47.50829" lon="6.76625">
        <ele>390</ele>
        <time>2015-09-27T07:22:31.000Z</time>
      </trkpt>
      <trkpt lat="47.50827" lon="6.76621">
        <ele>390</ele>
        <time>2015-09-27T07:22:32.000Z</time>
      </trkpt>
      <trkpt lat="47.50826" lon="6.76617">
        <ele>390</ele>
        <time>2015-09-27T07:22:33.000Z</time>
      </trkpt>
      <trkpt lat="47.50824" lon="6.76613">
        <ele>390</ele>
        <time>2015-09-27T07:22:34.000Z</time>
      </trkpt>
      <trkpt lat="47.50823" lon="6.76608">
        <ele>390</ele>
        <time>2015-09-27T07:22:35.000Z</time>
      </trkpt>
      <trkpt lat="47.50821" lon="6.76603">
        <ele>390</ele>
        <time>2015-09-27T07:22:36.000Z</time>
      </trkpt>
      <trkpt lat="47.50821" lon="6.76598">
        <ele>390</ele>
        <time>2015-09-27T07:22:37.000Z</time>
      </trkpt>
      <trkpt lat="47.5082" lon="6.76594">
        <ele>390</ele>
        <time>2015-09-27T07:22:38.000Z</time>
      </trkpt>
      <trkpt lat="47.5082" lon="6.76591">
        <ele>390</ele>
        <time>2015-09-27T07:22:39.000Z</time>
      </trkpt>
      <trkpt lat="47.50817" lon="6.76589">
        <ele>390</ele>
        <time>2015-09-27T07:22:41.000Z</time>
      </trkpt>
      <trkpt lat="47.50815" lon="6.76591">
        <ele>390</ele>
        <time>2015-09-27T07:22:42.000Z</time>
      </trkpt>
      <trkpt lat="47.50812" lon="6.76593">
        <ele>390</ele>
        <time>2015-09-27T07:22:43.000Z</time>
      </trkpt>
      <trkpt lat="47.5081" lon="6.76593">
        <ele>390</ele>
        <time>2015-09-27T07:22:44.000Z</time>
      </trkpt>
      <trkpt lat="47.50808" lon="6.76591">
        <ele>390</ele>
        <time>2015-09-27T07:22:45.000Z</time>
      </trkpt>
      <trkpt lat="47.50806" lon="6.76587">
        <ele>390</ele>
        <time>2015-09-27T07:22:46.000Z</time>
      </trkpt>
      <trkpt lat="47.50804" lon="6.76584">
        <ele>391</ele>
        <time>2015-09-27T07:22:47.000Z</time>
      </trkpt>
      <trkpt lat="47.50801" lon="6.76582">
        <ele>391</ele>
        <time>2015-09-27T07:22:48.000Z</time>
      </trkpt>
      <trkpt lat="47.50798" lon="6.76582">
        <ele>392</ele>
        <time>2015-09-27T07:22:49.000Z</time>
      </trkpt>
      <trkpt lat="47.50794" lon="6.76583">
        <ele>392</ele>
        <time>2015-09-27T07:22:50.000Z</time>
      </trkpt>
      <trkpt lat="47.50791" lon="6.76584">
        <ele>391</ele>
        <time>2015-09-27T07:22:51.000Z</time>
      </trkpt>
      <trkpt lat="47.50789" lon="6.76585">
        <ele>391</ele>
        <time>2015-09-27T07:22:52.000Z</time>
      </trkpt>
      <trkpt lat="47.50785" lon="6.76589">
        <ele>391</ele>
        <time>2015-09-27T07:22:54.000Z</time>
      </trkpt>
      <trkpt lat="47.50784" lon="6.76592">
        <ele>391</ele>
        <time>2015-09-27T07:22:55.000Z</time>
      </trkpt>
      <trkpt lat="47.50782" lon="6.76594">
        <ele>391</ele>
        <time>2015-09-27T07:22:56.000Z</time>
      </trkpt>
      <trkpt lat="47.50779" lon="6.76596">
        <ele>391</ele>
        <time>2015-09-27T07:22:57.000Z</time>
      </trkpt>
      <trkpt lat="47.50776" lon="6.76598">
        <ele>392</ele>
        <time>2015-09-27T07:22:58.000Z</time>
      </trkpt>
      <trkpt lat="47.50773" lon="6.76599">
        <ele>392</ele>
        <time>2015-09-27T07:22:59.000Z</time>
      </trkpt>
      <trkpt lat="47.5077" lon="6.76599">
        <ele>392</ele>
        <time>2015-09-27T07:23:00.000Z</time>
      </trkpt>
      <trkpt lat="47.50767" lon="6.766">
        <ele>392</ele>
        <time>2015-09-27T07:23:01.000Z</time>
      </trkpt>
      <trkpt lat="47.50763" lon="6.766">
        <ele>392</ele>
        <time>2015-09-27T07:23:02.000Z</time>
      </trkpt>
      <trkpt lat="47.50759" lon="6.766">
        <ele>392</ele>
        <time>2015-09-27T07:23:03.000Z</time>
      </trkpt>
      <trkpt lat="47.50756" lon="6.766">
        <ele>392</ele>
        <time>2015-09-27T07:23:04.000Z</time>
      </trkpt>
      <trkpt lat="47.50752" lon="6.766">
        <ele>392</ele>
        <time>2015-09-27T07:23:05.000Z</time>
      </trkpt>
      <trkpt lat="47.50749" lon="6.76599">
        <ele>394</ele>
        <time>2015-09-27T07:23:06.000Z</time>
      </trkpt>
      <trkpt lat="47.50745" lon="6.76599">
        <ele>394</ele>
        <time>2015-09-27T07:23:07.000Z</time>
      </trkpt>
      <trkpt lat="47.50742" lon="6.76598">
        <ele>394</ele>
        <time>2015-09-27T07:23:08.000Z</time>
      </trkpt>
      <trkpt lat="47.50738" lon="6.76598">
        <ele>394</ele>
        <time>2015-09-27T07:23:09.000Z</time>
      </trkpt>
      <trkpt lat="47.50734" lon="6.76598">
        <ele>394</ele>
        <time>2015-09-27T07:23:10.000Z</time>
      </trkpt>
      <trkpt lat="47.50731" lon="6.76597">
        <ele>394</ele>
        <time>2015-09-27T07:23:11.000Z</time>
      </trkpt>
      <trkpt lat="47.50727" lon="6.76597">
        <ele>394</ele>
        <time>2015-09-27T07:23:12.000Z</time>
      </trkpt>
      <trkpt lat="47.50723" lon="6.76596">
        <ele>394</ele>
        <time>2015-09-27T07:23:13.000Z</time>
      </trkpt>
      <trkpt lat="47.50719" lon="6.76596">
        <ele>394</ele>
        <time>2015-09-27T07:23:14.000Z</time>
      </trkpt>
      <trkpt lat="47.50715" lon="6.76595">
        <ele>394</ele>
        <time>2015-09-27T07:23:15.000Z</time>
      </trkpt>
      <trkpt lat="47.50712" lon="6.76594">
        <ele>395</ele>
        <time>2015-09-27T07:23:16.000Z</time>
      </trkpt>
      <trkpt lat="47.50708" lon="6.76594">
        <ele>395</ele>
        <time>2015-09-27T07:23:17.000Z</time>
      </trkpt>
      <trkpt lat="47.50704" lon="6.76593">
        <ele>395</ele>
        <time>2015-09-27T07:23:18.000Z</time>
      </trkpt>
      <trkpt lat="47.507" lon="6.76592">
        <ele>395</ele>
        <time>2015-09-27T07:23:19.000Z</time>
      </trkpt>
      <trkpt lat="47.50696" lon="6.76592">
        <ele>395</ele>
        <time>2015-09-27T07:23:20.000Z</time>
      </trkpt>
      <trkpt lat="47.50693" lon="6.76592">
        <ele>395</ele>
        <time>2015-09-27T07:23:21.000Z</time>
      </trkpt>
      <trkpt lat="47.50689" lon="6.76592">
        <ele>395</ele>
        <time>2015-09-27T07:23:22.000Z</time>
      </trkpt>
      <trkpt lat="47.50686" lon="6.76593">
        <ele>395</ele>
        <time>2015-09-27T07:23:23.000Z</time>
      </trkpt>
      <trkpt lat="47.50682" lon="6.76593">
        <ele>396</ele>
        <time>2015-09-27T07:23:24.000Z</time>
      </trkpt>
      <trkpt lat="47.50679" lon="6.76593">
        <ele>396</ele>
        <time>2015-09-27T07:23:25.000Z</time>
      </trkpt>
      <trkpt lat="47.50675" lon="6.76594">
        <ele>396</ele>
        <time>2015-09-27T07:23:26.000Z</time>
      </trkpt>
      <trkpt lat="47.50672" lon="6.76595">
        <ele>396</ele>
        <time>2015-09-27T07:23:27.000Z</time>
      </trkpt>
      <trkpt lat="47.50668" lon="6.76596">
        <ele>396</ele>
        <time>2015-09-27T07:23:28.000Z</time>
      </trkpt>
      <trkpt lat="47.50665" lon="6.76598">
        <ele>397</ele>
        <time>2015-09-27T07:23:29.000Z</time>
      </trkpt>
      <trkpt lat="47.50661" lon="6.76599">
        <ele>397</ele>
        <time>2015-09-27T07:23:30.000Z</time>
      </trkpt>
      <trkpt lat="47.50658" lon="6.766">
        <ele>397</ele>
        <time>2015-09-27T07:23:31.000Z</time>
      </trkpt>
      <trkpt lat="47.50655" lon="6.76601">
        <ele>397</ele>
        <time>2015-09-27T07:23:32.000Z</time>
      </trkpt>
      <trkpt lat="47.50651" lon="6.76602">
        <ele>397</ele>
        <time>2015-09-27T07:23:33.000Z</time>
      </trkpt>
      <trkpt lat="47.50647" lon="6.76604">
        <ele>397</ele>
        <time>2015-09-27T07:23:34.000Z</time>
      </trkpt>
      <trkpt lat="47.50644" lon="6.76605">
        <ele>397</ele>
        <time>2015-09-27T07:23:35.000Z</time>
      </trkpt>
      <trkpt lat="47.5064" lon="6.76607">
        <ele>397</ele>
        <time>2015-09-27T07:23:36.000Z</time>
      </trkpt>
      <trkpt lat="47.50637" lon="6.76609">
        <ele>397</ele>
        <time>2015-09-27T07:23:37.000Z</time>
      </trkpt>
      <trkpt lat="47.50634" lon="6.76611">
        <ele>397</ele>
        <time>2015-09-27T07:23:38.000Z</time>
      </trkpt>
      <trkpt lat="47.5063" lon="6.76613">
        <ele>397</ele>
        <time>2015-09-27T07:23:39.000Z</time>
      </trkpt>
      <trkpt lat="47.50627" lon="6.76615">
        <ele>397</ele>
        <time>2015-09-27T07:23:40.000Z</time>
      </trkpt>
      <trkpt lat="47.50624" lon="6.76617">
        <ele>397</ele>
        <time>2015-09-27T07:23:41.000Z</time>
      </trkpt>
      <trkpt lat="47.50621" lon="6.76619">
        <ele>397</ele>
        <time>2015-09-27T07:23:42.000Z</time>
      </trkpt>
      <trkpt lat="47.50618" lon="6.76621">
        <ele>397</ele>
        <time>2015-09-27T07:23:43.000Z</time>
      </trkpt>
      <trkpt lat="47.50615" lon="6.76623">
        <ele>397</ele>
        <time>2015-09-27T07:23:44.000Z</time>
      </trkpt>
      <trkpt lat="47.50612" lon="6.76624">
        <ele>397</ele>
        <time>2015-09-27T07:23:45.000Z</time>
      </trkpt>
      <trkpt lat="47.50608" lon="6.76626">
        <ele>397</ele>
        <time>2015-09-27T07:23:46.000Z</time>
      </trkpt>
      <trkpt lat="47.50605" lon="6.76627">
        <ele>398</ele>
        <time>2015-09-27T07:23:47.000Z</time>
      </trkpt>
      <trkpt lat="47.50602" lon="6.76629">
        <ele>398</ele>
        <time>2015-09-27T07:23:48.000Z</time>
      </trkpt>
      <trkpt lat="47.50598" lon="6.7663">
        <ele>398</ele>
        <time>2015-09-27T07:23:49.000Z</time>
      </trkpt>
      <trkpt lat="47.50595" lon="6.76631">
        <ele>398</ele>
        <time>2015-09-27T07:23:50.000Z</time>
      </trkpt>
      <trkpt lat="47.50592" lon="6.76632">
        <ele>398</ele>
        <time>2015-09-27T07:23:51.000Z</time>
      </trkpt>
      <trkpt lat="47.50589" lon="6.76633">
        <ele>398</ele>
        <time>2015-09-27T07:23:52.000Z</time>
      </trkpt>
      <trkpt lat="47.50582" lon="6.7663">
        <ele>399</ele>
        <time>2015-09-27T07:23:53.000Z</time>
      </trkpt>
      <trkpt lat="47.50577" lon="6.7663">
        <ele>399</ele>
        <time>2015-09-27T07:23:54.000Z</time>
      </trkpt>
      <trkpt lat="47.50574" lon="6.76631">
        <ele>399</ele>
        <time>2015-09-27T07:23:55.000Z</time>
      </trkpt>
      <trkpt lat="47.50571" lon="6.76632">
        <ele>399</ele>
        <time>2015-09-27T07:23:56.000Z</time>
      </trkpt>
      <trkpt lat="47.50568" lon="6.76633">
        <ele>399</ele>
        <time>2015-09-27T07:23:57.000Z</time>
      </trkpt>
      <trkpt lat="47.50565" lon="6.76634">
        <ele>399</ele>
        <time>2015-09-27T07:23:58.000Z</time>
      </trkpt>
      <trkpt lat="47.50562" lon="6.76635">
        <ele>399</ele>
        <time>2015-09-27T07:23:59.000Z</time>
      </trkpt>
      <trkpt lat="47.50559" lon="6.76635">
        <ele>399</ele>
        <time>2015-09-27T07:24:00.000Z</time>
      </trkpt>
      <trkpt lat="47.50555" lon="6.76637">
        <ele>399</ele>
        <time>2015-09-27T07:24:01.000Z</time>
      </trkpt>
      <trkpt lat="47.50551" lon="6.76638">
        <ele>399</ele>
        <time>2015-09-27T07:24:02.000Z</time>
      </trkpt>
      <trkpt lat="47.50548" lon="6.76639">
        <ele>399</ele>
        <time>2015-09-27T07:24:03.000Z</time>
      </trkpt>
      <trkpt lat="47.50544" lon="6.7664">
        <ele>399</ele>
        <time>2015-09-27T07:24:04.000Z</time>
      </trkpt>
      <trkpt lat="47.50541" lon="6.76641">
        <ele>399</ele>
        <time>2015-09-27T07:24:05.000Z</time>
      </trkpt>
      <trkpt lat="47.50537" lon="6.76642">
        <ele>399</ele>
        <time>2015-09-27T07:24:06.000Z</time>
      </trkpt>
      <trkpt lat="47.50533" lon="6.76643">
        <ele>399</ele>
        <time>2015-09-27T07:24:07.000Z</time>
      </trkpt>
      <trkpt lat="47.50528" lon="6.76644">
        <ele>399</ele>
        <time>2015-09-27T07:24:08.000Z</time>
      </trkpt>
      <trkpt lat="47.50523" lon="6.76645">
        <ele>399</ele>
        <time>2015-09-27T07:24:09.000Z</time>
      </trkpt>
      <trkpt lat="47.50518" lon="6.76647">
        <ele>399</ele>
        <time>2015-09-27T07:24:10.000Z</time>
      </trkpt>
      <trkpt lat="47.50513" lon="6.76648">
        <ele>399</ele>
        <time>2015-09-27T07:24:11.000Z</time>
      </trkpt>
      <trkpt lat="47.50508" lon="6.76649">
        <ele>399</ele>
        <time>2015-09-27T07:24:12.000Z</time>
      </trkpt>
      <trkpt lat="47.50503" lon="6.76651">
        <ele>399</ele>
        <time>2015-09-27T07:24:13.000Z</time>
      </trkpt>
      <trkpt lat="47.50499" lon="6.76654">
        <ele>399</ele>
        <time>2015-09-27T07:24:14.000Z</time>
      </trkpt>
      <trkpt lat="47.50493" lon="6.76655">
        <ele>399</ele>
        <time>2015-09-27T07:24:15.000Z</time>
      </trkpt>
      <trkpt lat="47.50488" lon="6.76657">
        <ele>399</ele>
        <time>2015-09-27T07:24:16.000Z</time>
      </trkpt>
      <trkpt lat="47.50483" lon="6.76659">
        <ele>399</ele>
        <time>2015-09-27T07:24:17.000Z</time>
      </trkpt>
      <trkpt lat="47.50478" lon="6.76661">
        <ele>399</ele>
        <time>2015-09-27T07:24:18.000Z</time>
      </trkpt>
      <trkpt lat="47.50473" lon="6.76664">
        <ele>398</ele>
        <time>2015-09-27T07:24:19.000Z</time>
      </trkpt>
      <trkpt lat="47.50468" lon="6.76667">
        <ele>397</ele>
        <time>2015-09-27T07:24:20.000Z</time>
      </trkpt>
      <trkpt lat="47.50463" lon="6.7667">
        <ele>397</ele>
        <time>2015-09-27T07:24:21.000Z</time>
      </trkpt>
      <trkpt lat="47.50457" lon="6.76672">
        <ele>397</ele>
        <time>2015-09-27T07:24:22.000Z</time>
      </trkpt>
      <trkpt lat="47.50452" lon="6.76673">
        <ele>397</ele>
        <time>2015-09-27T07:24:23.000Z</time>
      </trkpt>
      <trkpt lat="47.50447" lon="6.76675">
        <ele>397</ele>
        <time>2015-09-27T07:24:24.000Z</time>
      </trkpt>
      <trkpt lat="47.50442" lon="6.76676">
        <ele>397</ele>
        <time>2015-09-27T07:24:25.000Z</time>
      </trkpt>
      <trkpt lat="47.50437" lon="6.76678">
        <ele>397</ele>
        <time>2015-09-27T07:24:26.000Z</time>
      </trkpt>
      <trkpt lat="47.50433" lon="6.76681">
        <ele>397</ele>
        <time>2015-09-27T07:24:27.000Z</time>
      </trkpt>
      <trkpt lat="47.50428" lon="6.76683">
        <ele>397</ele>
        <time>2015-09-27T07:24:28.000Z</time>
      </trkpt>
      <trkpt lat="47.50423" lon="6.76685">
        <ele>397</ele>
        <time>2015-09-27T07:24:29.000Z</time>
      </trkpt>
      <trkpt lat="47.50417" lon="6.76686">
        <ele>397</ele>
        <time>2015-09-27T07:24:30.000Z</time>
      </trkpt>
      <trkpt lat="47.50412" lon="6.76689">
        <ele>397</ele>
        <time>2015-09-27T07:24:31.000Z</time>
      </trkpt>
      <trkpt lat="47.50407" lon="6.76691">
        <ele>397</ele>
        <time>2015-09-27T07:24:32.000Z</time>
      </trkpt>
      <trkpt lat="47.50402" lon="6.76694">
        <ele>397</ele>
        <time>2015-09-27T07:24:33.000Z</time>
      </trkpt>
      <trkpt lat="47.50398" lon="6.76696">
        <ele>397</ele>
        <time>2015-09-27T07:24:34.000Z</time>
      </trkpt>
      <trkpt lat="47.50394" lon="6.76699">
        <ele>397</ele>
        <time>2015-09-27T07:24:35.000Z</time>
      </trkpt>
      <trkpt lat="47.5039" lon="6.76702">
        <ele>397</ele>
        <time>2015-09-27T07:24:35.999Z</time>
      </trkpt>
      <trkpt lat="47.50385" lon="6.76703">
        <ele>397</ele>
        <time>2015-09-27T07:24:37.000Z</time>
      </trkpt>
      <trkpt lat="47.50381" lon="6.76705">
        <ele>397</ele>
        <time>2015-09-27T07:24:38.000Z</time>
      </trkpt>
      <trkpt lat="47.50376" lon="6.76708">
        <ele>397</ele>
        <time>2015-09-27T07:24:39.000Z</time>
      </trkpt>
      <trkpt lat="47.50372" lon="6.7671">
        <ele>398</ele>
        <time>2015-09-27T07:24:40.000Z</time>
      </trkpt>
      <trkpt lat="47.50368" lon="6.76712">
        <ele>398</ele>
        <time>2015-09-27T07:24:41.000Z</time>
      </trkpt>
      <trkpt lat="47.50363" lon="6.76714">
        <ele>398</ele>
        <time>2015-09-27T07:24:42.000Z</time>
      </trkpt>
      <trkpt lat="47.50359" lon="6.76716">
        <ele>398</ele>
        <time>2015-09-27T07:24:43.000Z</time>
      </trkpt>
      <trkpt lat="47.50355" lon="6.76718">
        <ele>398</ele>
        <time>2015-09-27T07:24:44.000Z</time>
      </trkpt>
      <trkpt lat="47.50351" lon="6.7672">
        <ele>398</ele>
        <time>2015-09-27T07:24:45.000Z</time>
      </trkpt>
      <trkpt lat="47.50346" lon="6.76722">
        <ele>398</ele>
        <time>2015-09-27T07:24:46.000Z</time>
      </trkpt>
      <trkpt lat="47.50342" lon="6.76725">
        <ele>398</ele>
        <time>2015-09-27T07:24:47.000Z</time>
      </trkpt>
      <trkpt lat="47.50337" lon="6.76727">
        <ele>398</ele>
        <time>2015-09-27T07:24:48.000Z</time>
      </trkpt>
      <trkpt lat="47.50332" lon="6.76728">
        <ele>398</ele>
        <time>2015-09-27T07:24:49.000Z</time>
      </trkpt>
      <trkpt lat="47.50328" lon="6.76729">
        <ele>398</ele>
        <time>2015-09-27T07:24:50.000Z</time>
      </trkpt>
      <trkpt lat="47.50323" lon="6.76731">
        <ele>398</ele>
        <time>2015-09-27T07:24:51.000Z</time>
      </trkpt>
      <trkpt lat="47.50319" lon="6.76732">
        <ele>398</ele>
        <time>2015-09-27T07:24:52.000Z</time>
      </trkpt>
      <trkpt lat="47.50314" lon="6.76734">
        <ele>398</ele>
        <time>2015-09-27T07:24:53.000Z</time>
      </trkpt>
      <trkpt lat="47.5031" lon="6.76735">
        <ele>398</ele>
        <time>2015-09-27T07:24:54.000Z</time>
      </trkpt>
      <trkpt lat="47.50306" lon="6.76737">
        <ele>398</ele>
        <time>2015-09-27T07:24:55.000Z</time>
      </trkpt>
      <trkpt lat="47.50302" lon="6.7674">
        <ele>398</ele>
        <time>2015-09-27T07:24:56.000Z</time>
      </trkpt>
      <trkpt lat="47.50298" lon="6.76741">
        <ele>399</ele>
        <time>2015-09-27T07:24:57.000Z</time>
      </trkpt>
      <trkpt lat="47.50294" lon="6.76744">
        <ele>399</ele>
        <time>2015-09-27T07:24:58.000Z</time>
      </trkpt>
      <trkpt lat="47.5029" lon="6.76745">
        <ele>399</ele>
        <time>2015-09-27T07:24:59.000Z</time>
      </trkpt>
      <trkpt lat="47.50286" lon="6.76746">
        <ele>399</ele>
        <time>2015-09-27T07:25:00.000Z</time>
      </trkpt>
      <trkpt lat="47.50282" lon="6.76747">
        <ele>399</ele>
        <time>2015-09-27T07:25:01.000Z</time>
      </trkpt>
      <trkpt lat="47.50277" lon="6.76747">
        <ele>399</ele>
        <time>2015-09-27T07:25:02.000Z</time>
      </trkpt>
      <trkpt lat="47.50274" lon="6.76748">
        <ele>399</ele>
        <time>2015-09-27T07:25:03.000Z</time>
      </trkpt>
      <trkpt lat="47.5027" lon="6.76749">
        <ele>399</ele>
        <time>2015-09-27T07:25:04.000Z</time>
      </trkpt>
      <trkpt lat="47.50266" lon="6.7675">
        <ele>398</ele>
        <time>2015-09-27T07:25:05.000Z</time>
      </trkpt>
      <trkpt lat="47.50262" lon="6.76751">
        <ele>399</ele>
        <time>2015-09-27T07:25:06.000Z</time>
      </trkpt>
      <trkpt lat="47.50259" lon="6.76751">
        <ele>399</ele>
        <time>2015-09-27T07:25:07.000Z</time>
      </trkpt>
      <trkpt lat="47.50255" lon="6.76752">
        <ele>399</ele>
        <time>2015-09-27T07:25:08.000Z</time>
      </trkpt>
      <trkpt lat="47.50252" lon="6.76751">
        <ele>400</ele>
        <time>2015-09-27T07:25:09.000Z</time>
      </trkpt>
      <trkpt lat="47.50248" lon="6.7675">
        <ele>400</ele>
        <time>2015-09-27T07:25:10.000Z</time>
      </trkpt>
      <trkpt lat="47.50246" lon="6.76747">
        <ele>400</ele>
        <time>2015-09-27T07:25:11.000Z</time>
      </trkpt>
      <trkpt lat="47.50244" lon="6.76744">
        <ele>401</ele>
        <time>2015-09-27T07:25:12.000Z</time>
      </trkpt>
      <trkpt lat="47.50242" lon="6.76741">
        <ele>401</ele>
        <time>2015-09-27T07:25:13.000Z</time>
      </trkpt>
      <trkpt lat="47.5024" lon="6.76738">
        <ele>401</ele>
        <time>2015-09-27T07:25:14.000Z</time>
      </trkpt>
      <trkpt lat="47.50239" lon="6.76735">
        <ele>401</ele>
        <time>2015-09-27T07:25:15.000Z</time>
      </trkpt>
      <trkpt lat="47.50237" lon="6.76731">
        <ele>401</ele>
        <time>2015-09-27T07:25:16.000Z</time>
      </trkpt>
      <trkpt lat="47.50234" lon="6.76727">
        <ele>401</ele>
        <time>2015-09-27T07:25:17.000Z</time>
      </trkpt>
      <trkpt lat="47.50232" lon="6.76722">
        <ele>402</ele>
        <time>2015-09-27T07:25:18.000Z</time>
      </trkpt>
      <trkpt lat="47.5023" lon="6.76717">
        <ele>402</ele>
        <time>2015-09-27T07:25:19.000Z</time>
      </trkpt>
      <trkpt lat="47.50228" lon="6.76711">
        <ele>402</ele>
        <time>2015-09-27T07:25:20.000Z</time>
      </trkpt>
      <trkpt lat="47.50225" lon="6.76705">
        <ele>402</ele>
        <time>2015-09-27T07:25:21.000Z</time>
      </trkpt>
      <trkpt lat="47.50223" lon="6.767">
        <ele>402</ele>
        <time>2015-09-27T07:25:22.000Z</time>
      </trkpt>
      <trkpt lat="47.5022" lon="6.76694">
        <ele>402</ele>
        <time>2015-09-27T07:25:23.000Z</time>
      </trkpt>
      <trkpt lat="47.50218" lon="6.76688">
        <ele>402</ele>
        <time>2015-09-27T07:25:24.000Z</time>
      </trkpt>
      <trkpt lat="47.50215" lon="6.76682">
        <ele>402</ele>
        <time>2015-09-27T07:25:25.000Z</time>
      </trkpt>
      <trkpt lat="47.50212" lon="6.76671">
        <ele>402</ele>
        <time>2015-09-27T07:25:26.000Z</time>
      </trkpt>
      <trkpt lat="47.50211" lon="6.76665">
        <ele>402</ele>
        <time>2015-09-27T07:25:27.000Z</time>
      </trkpt>
      <trkpt lat="47.50209" lon="6.76659">
        <ele>402</ele>
        <time>2015-09-27T07:25:28.000Z</time>
      </trkpt>
      <trkpt lat="47.50207" lon="6.76653">
        <ele>402</ele>
        <time>2015-09-27T07:25:29.000Z</time>
      </trkpt>
      <trkpt lat="47.50205" lon="6.76648">
        <ele>402</ele>
        <time>2015-09-27T07:25:30.000Z</time>
      </trkpt>
      <trkpt lat="47.50202" lon="6.76642">
        <ele>402</ele>
        <time>2015-09-27T07:25:31.000Z</time>
      </trkpt>
      <trkpt lat="47.50201" lon="6.76637">
        <ele>402</ele>
        <time>2015-09-27T07:25:32.000Z</time>
      </trkpt>
      <trkpt lat="47.50199" lon="6.76631">
        <ele>402</ele>
        <time>2015-09-27T07:25:33.000Z</time>
      </trkpt>
      <trkpt lat="47.50198" lon="6.76624">
        <ele>402</ele>
        <time>2015-09-27T07:25:34.000Z</time>
      </trkpt>
      <trkpt lat="47.50196" lon="6.76618">
        <ele>403</ele>
        <time>2015-09-27T07:25:35.000Z</time>
      </trkpt>
      <trkpt lat="47.50195" lon="6.76612">
        <ele>403</ele>
        <time>2015-09-27T07:25:36.000Z</time>
      </trkpt>
      <trkpt lat="47.50193" lon="6.76606">
        <ele>403</ele>
        <time>2015-09-27T07:25:37.000Z</time>
      </trkpt>
      <trkpt lat="47.50192" lon="6.766">
        <ele>403</ele>
        <time>2015-09-27T07:25:38.000Z</time>
      </trkpt>
      <trkpt lat="47.5019" lon="6.76594">
        <ele>404</ele>
        <time>2015-09-27T07:25:39.000Z</time>
      </trkpt>
      <trkpt lat="47.50189" lon="6.76588">
        <ele>404</ele>
        <time>2015-09-27T07:25:40.000Z</time>
      </trkpt>
      <trkpt lat="47.50188" lon="6.76584">
        <ele>404</ele>
        <time>2015-09-27T07:25:41.000Z</time>
      </trkpt>
      <trkpt lat="47.50188" lon="6.7658">
        <ele>403</ele>
        <time>2015-09-27T07:25:42.000Z</time>
      </trkpt>
      <trkpt lat="47.50187" lon="6.76575">
        <ele>403</ele>
        <time>2015-09-27T07:25:42.999Z</time>
      </trkpt>
      <trkpt lat="47.50188" lon="6.76569">
        <ele>403</ele>
        <time>2015-09-27T07:25:46.000Z</time>
      </trkpt>
      <trkpt lat="47.50189" lon="6.76566">
        <ele>403</ele>
        <time>2015-09-27T07:25:47.000Z</time>
      </trkpt>
      <trkpt lat="47.5019" lon="6.76563">
        <ele>403</ele>
        <time>2015-09-27T07:25:48.000Z</time>
      </trkpt>
      <trkpt lat="47.50192" lon="6.7656">
        <ele>402</ele>
        <time>2015-09-27T07:25:49.000Z</time>
      </trkpt>
      <trkpt lat="47.50195" lon="6.76557">
        <ele>402</ele>
        <time>2015-09-27T07:25:50.000Z</time>
      </trkpt>
      <trkpt lat="47.50197" lon="6.76554">
        <ele>402</ele>
        <time>2015-09-27T07:25:51.000Z</time>
      </trkpt>
      <trkpt lat="47.50199" lon="6.7655">
        <ele>402</ele>
        <time>2015-09-27T07:25:52.000Z</time>
      </trkpt>
      <trkpt lat="47.50202" lon="6.76547">
        <ele>401</ele>
        <time>2015-09-27T07:25:53.000Z</time>
      </trkpt>
      <trkpt lat="47.50203" lon="6.76543">
        <ele>401</ele>
        <time>2015-09-27T07:25:54.000Z</time>
      </trkpt>
      <trkpt lat="47.50204" lon="6.76539">
        <ele>401</ele>
        <time>2015-09-27T07:25:55.000Z</time>
      </trkpt>
      <trkpt lat="47.50204" lon="6.76535">
        <ele>401</ele>
        <time>2015-09-27T07:25:56.000Z</time>
      </trkpt>
      <trkpt lat="47.50203" lon="6.7653">
        <ele>401</ele>
        <time>2015-09-27T07:25:57.000Z</time>
      </trkpt>
      <trkpt lat="47.50201" lon="6.76525">
        <ele>401</ele>
        <time>2015-09-27T07:25:58.000Z</time>
      </trkpt>
      <trkpt lat="47.50199" lon="6.7652">
        <ele>401</ele>
        <time>2015-09-27T07:25:59.000Z</time>
      </trkpt>
      <trkpt lat="47.50196" lon="6.76514">
        <ele>401</ele>
        <time>2015-09-27T07:26:00.000Z</time>
      </trkpt>
      <trkpt lat="47.50189" lon="6.76503">
        <ele>402</ele>
        <time>2015-09-27T07:26:01.000Z</time>
      </trkpt>
      <trkpt lat="47.50186" lon="6.76493">
        <ele>400</ele>
        <time>2015-09-27T07:26:02.000Z</time>
      </trkpt>
      <trkpt lat="47.50182" lon="6.76482">
        <ele>399</ele>
        <time>2015-09-27T07:26:03.000Z</time>
      </trkpt>
      <trkpt lat="47.50179" lon="6.76471">
        <ele>399</ele>
        <time>2015-09-27T07:26:04.000Z</time>
      </trkpt>
      <trkpt lat="47.50176" lon="6.76462">
        <ele>398</ele>
        <time>2015-09-27T07:26:05.000Z</time>
      </trkpt>
      <trkpt lat="47.50174" lon="6.76452">
        <ele>397</ele>
        <time>2015-09-27T07:26:06.000Z</time>
      </trkpt>
      <trkpt lat="47.50172" lon="6.76439">
        <ele>397</ele>
        <time>2015-09-27T07:26:07.000Z</time>
      </trkpt>
      <trkpt lat="47.50169" lon="6.76429">
        <ele>398</ele>
        <time>2015-09-27T07:26:08.000Z</time>
      </trkpt>
      <trkpt lat="47.50165" lon="6.76424">
        <ele>401</ele>
        <time>2015-09-27T07:26:09.000Z</time>
      </trkpt>
      <trkpt lat="47.50163" lon="6.76417">
        <ele>400</ele>
        <time>2015-09-27T07:26:10.000Z</time>
      </trkpt>
      <trkpt lat="47.5016" lon="6.76405">
        <ele>400</ele>
        <time>2015-09-27T07:26:11.000Z</time>
      </trkpt>
      <trkpt lat="47.50158" lon="6.76395">
        <ele>401</ele>
        <time>2015-09-27T07:26:12.000Z</time>
      </trkpt>
      <trkpt lat="47.50155" lon="6.76388">
        <ele>401</ele>
        <time>2015-09-27T07:26:13.000Z</time>
      </trkpt>
      <trkpt lat="47.50151" lon="6.76379">
        <ele>401</ele>
        <time>2015-09-27T07:26:14.000Z</time>
      </trkpt>
      <trkpt lat="47.50149" lon="6.76371">
        <ele>400</ele>
        <time>2015-09-27T07:26:15.000Z</time>
      </trkpt>
      <trkpt lat="47.50146" lon="6.76362">
        <ele>400</ele>
        <time>2015-09-27T07:26:16.000Z</time>
      </trkpt>
      <trkpt lat="47.50144" lon="6.76357">
        <ele>400</ele>
        <time>2015-09-27T07:26:17.000Z</time>
      </trkpt>
      <trkpt lat="47.50139" lon="6.76349">
        <ele>400</ele>
        <time>2015-09-27T07:26:18.000Z</time>
      </trkpt>
      <trkpt lat="47.50137" lon="6.7634">
        <ele>400</ele>
        <time>2015-09-27T07:26:19.000Z</time>
      </trkpt>
      <trkpt lat="47.50134" lon="6.76331">
        <ele>397</ele>
        <time>2015-09-27T07:26:20.000Z</time>
      </trkpt>
      <trkpt lat="47.50131" lon="6.76322">
        <ele>397</ele>
        <time>2015-09-27T07:26:21.000Z</time>
      </trkpt>
      <trkpt lat="47.50128" lon="6.76309">
        <ele>397</ele>
        <time>2015-09-27T07:26:22.000Z</time>
      </trkpt>
      <trkpt lat="47.50124" lon="6.76296">
        <ele>397</ele>
        <time>2015-09-27T07:26:23.000Z</time>
      </trkpt>
      <trkpt lat="47.50121" lon="6.76282">
        <ele>397</ele>
        <time>2015-09-27T07:26:24.000Z</time>
      </trkpt>
      <trkpt lat="47.50117" lon="6.7627">
        <ele>398</ele>
        <time>2015-09-27T07:26:25.000Z</time>
      </trkpt>
      <trkpt lat="47.50114" lon="6.76254">
        <ele>398</ele>
        <time>2015-09-27T07:26:26.000Z</time>
      </trkpt>
      <trkpt lat="47.50113" lon="6.76244">
        <ele>394</ele>
        <time>2015-09-27T07:26:27.000Z</time>
      </trkpt>
      <trkpt lat="47.50109" lon="6.76235">
        <ele>394</ele>
        <time>2015-09-27T07:26:28.000Z</time>
      </trkpt>
      <trkpt lat="47.50105" lon="6.76225">
        <ele>394</ele>
        <time>2015-09-27T07:26:29.000Z</time>
      </trkpt>
      <trkpt lat="47.50102" lon="6.76214">
        <ele>393</ele>
        <time>2015-09-27T07:26:30.000Z</time>
      </trkpt>
      <trkpt lat="47.501" lon="6.762">
        <ele>393</ele>
        <time>2015-09-27T07:26:31.000Z</time>
      </trkpt>
      <trkpt lat="47.50098" lon="6.76188">
        <ele>393</ele>
        <time>2015-09-27T07:26:32.000Z</time>
      </trkpt>
      <trkpt lat="47.50095" lon="6.76179">
        <ele>393</ele>
        <time>2015-09-27T07:26:33.000Z</time>
      </trkpt>
      <trkpt lat="47.50092" lon="6.76168">
        <ele>394</ele>
        <time>2015-09-27T07:26:34.000Z</time>
      </trkpt>
      <trkpt lat="47.50089" lon="6.76151">
        <ele>390</ele>
        <time>2015-09-27T07:26:35.000Z</time>
      </trkpt>
      <trkpt lat="47.50088" lon="6.76139">
        <ele>388</ele>
        <time>2015-09-27T07:26:36.000Z</time>
      </trkpt>
      <trkpt lat="47.50086" lon="6.76127">
        <ele>387</ele>
        <time>2015-09-27T07:26:37.000Z</time>
      </trkpt>
      <trkpt lat="47.50084" lon="6.76115">
        <ele>387</ele>
        <time>2015-09-27T07:26:38.000Z</time>
      </trkpt>
      <trkpt lat="47.50082" lon="6.76103">
        <ele>393</ele>
        <time>2015-09-27T07:26:39.000Z</time>
      </trkpt>
      <trkpt lat="47.50079" lon="6.76087">
        <ele>391</ele>
        <time>2015-09-27T07:26:40.000Z</time>
      </trkpt>
      <trkpt lat="47.50076" lon="6.76061">
        <ele>388</ele>
        <time>2015-09-27T07:26:41.000Z</time>
      </trkpt>
      <trkpt lat="47.50073" lon="6.76046">
        <ele>387</ele>
        <time>2015-09-27T07:26:42.000Z</time>
      </trkpt>
      <trkpt lat="47.50071" lon="6.76033">
        <ele>386</ele>
        <time>2015-09-27T07:26:43.000Z</time>
      </trkpt>
      <trkpt lat="47.50068" lon="6.76023">
        <ele>385</ele>
        <time>2015-09-27T07:26:44.000Z</time>
      </trkpt>
      <trkpt lat="47.50064" lon="6.76014">
        <ele>384</ele>
        <time>2015-09-27T07:26:45.000Z</time>
      </trkpt>
      <trkpt lat="47.50059" lon="6.76005">
        <ele>384</ele>
        <time>2015-09-27T07:26:46.000Z</time>
      </trkpt>
      <trkpt lat="47.50054" lon="6.75996">
        <ele>380</ele>
        <time>2015-09-27T07:26:47.000Z</time>
      </trkpt>
      <trkpt lat="47.50051" lon="6.75987">
        <ele>379</ele>
        <time>2015-09-27T07:26:48.000Z</time>
      </trkpt>
      <trkpt lat="47.50045" lon="6.75978">
        <ele>379</ele>
        <time>2015-09-27T07:26:49.000Z</time>
      </trkpt>
      <trkpt lat="47.5004" lon="6.7597">
        <ele>379</ele>
        <time>2015-09-27T07:26:50.000Z</time>
      </trkpt>
      <trkpt lat="47.50038" lon="6.75959">
        <ele>379</ele>
        <time>2015-09-27T07:26:51.000Z</time>
      </trkpt>
      <trkpt lat="47.50034" lon="6.75952">
        <ele>379</ele>
        <time>2015-09-27T07:26:52.000Z</time>
      </trkpt>
      <trkpt lat="47.5003" lon="6.75944">
        <ele>379</ele>
        <time>2015-09-27T07:26:53.000Z</time>
      </trkpt>
      <trkpt lat="47.50024" lon="6.75937">
        <ele>378</ele>
        <time>2015-09-27T07:26:54.000Z</time>
      </trkpt>
      <trkpt lat="47.5002" lon="6.75928">
        <ele>378</ele>
        <time>2015-09-27T07:26:55.000Z</time>
      </trkpt>
      <trkpt lat="47.50013" lon="6.75918">
        <ele>378</ele>
        <time>2015-09-27T07:26:56.000Z</time>
      </trkpt>
      <trkpt lat="47.50007" lon="6.75903">
        <ele>377</ele>
        <time>2015-09-27T07:26:57.000Z</time>
      </trkpt>
      <trkpt lat="47.50002" lon="6.75894">
        <ele>377</ele>
        <time>2015-09-27T07:26:58.000Z</time>
      </trkpt>
      <trkpt lat="47.49999" lon="6.75884">
        <ele>377</ele>
        <time>2015-09-27T07:26:59.000Z</time>
      </trkpt>
      <trkpt lat="47.49995" lon="6.75879">
        <ele>377</ele>
        <time>2015-09-27T07:27:00.000Z</time>
      </trkpt>
      <trkpt lat="47.49989" lon="6.75868">
        <ele>377</ele>
        <time>2015-09-27T07:27:01.000Z</time>
      </trkpt>
      <trkpt lat="47.49983" lon="6.75857">
        <ele>377</ele>
        <time>2015-09-27T07:27:02.000Z</time>
      </trkpt>
      <trkpt lat="47.49977" lon="6.75851">
        <ele>377</ele>
        <time>2015-09-27T07:27:03.000Z</time>
      </trkpt>
      <trkpt lat="47.49971" lon="6.75843">
        <ele>377</ele>
        <time>2015-09-27T07:27:04.000Z</time>
      </trkpt>
      <trkpt lat="47.49966" lon="6.75832">
        <ele>375</ele>
        <time>2015-09-27T07:27:05.000Z</time>
      </trkpt>
      <trkpt lat="47.49961" lon="6.75823">
        <ele>374</ele>
        <time>2015-09-27T07:27:06.000Z</time>
      </trkpt>
      <trkpt lat="47.49954" lon="6.75814">
        <ele>374</ele>
        <time>2015-09-27T07:27:07.000Z</time>
      </trkpt>
      <trkpt lat="47.49948" lon="6.75808">
        <ele>373</ele>
        <time>2015-09-27T07:27:08.000Z</time>
      </trkpt>
      <trkpt lat="47.49939" lon="6.75796">
        <ele>373</ele>
        <time>2015-09-27T07:27:09.000Z</time>
      </trkpt>
      <trkpt lat="47.49933" lon="6.75784">
        <ele>372</ele>
        <time>2015-09-27T07:27:10.000Z</time>
      </trkpt>
      <trkpt lat="47.49928" lon="6.75776">
        <ele>372</ele>
        <time>2015-09-27T07:27:11.000Z</time>
      </trkpt>
      <trkpt lat="47.49921" lon="6.75761">
        <ele>371</ele>
        <time>2015-09-27T07:27:12.000Z</time>
      </trkpt>
      <trkpt lat="47.49915" lon="6.75748">
        <ele>368</ele>
        <time>2015-09-27T07:27:13.000Z</time>
      </trkpt>
      <trkpt lat="47.49907" lon="6.75739">
        <ele>366</ele>
        <time>2015-09-27T07:27:14.000Z</time>
      </trkpt>
      <trkpt lat="47.499" lon="6.75735">
        <ele>365</ele>
        <time>2015-09-27T07:27:15.000Z</time>
      </trkpt>
      <trkpt lat="47.49891" lon="6.75735">
        <ele>364</ele>
        <time>2015-09-27T07:27:16.000Z</time>
      </trkpt>
      <trkpt lat="47.49881" lon="6.75735">
        <ele>363</ele>
        <time>2015-09-27T07:27:17.000Z</time>
      </trkpt>
      <trkpt lat="47.49874" lon="6.75734">
        <ele>363</ele>
        <time>2015-09-27T07:27:18.000Z</time>
      </trkpt>
      <trkpt lat="47.49865" lon="6.75735">
        <ele>362</ele>
        <time>2015-09-27T07:27:19.000Z</time>
      </trkpt>
      <trkpt lat="47.49856" lon="6.75736">
        <ele>361</ele>
        <time>2015-09-27T07:27:20.000Z</time>
      </trkpt>
      <trkpt lat="47.49846" lon="6.75738">
        <ele>361</ele>
        <time>2015-09-27T07:27:21.000Z</time>
      </trkpt>
      <trkpt lat="47.49838" lon="6.75742">
        <ele>360</ele>
        <time>2015-09-27T07:27:22.000Z</time>
      </trkpt>
      <trkpt lat="47.49827" lon="6.75745">
        <ele>357</ele>
        <time>2015-09-27T07:27:23.000Z</time>
      </trkpt>
      <trkpt lat="47.49819" lon="6.75754">
        <ele>360</ele>
        <time>2015-09-27T07:27:24.000Z</time>
      </trkpt>
      <trkpt lat="47.49808" lon="6.75761">
        <ele>360</ele>
        <time>2015-09-27T07:27:25.000Z</time>
      </trkpt>
      <trkpt lat="47.49798" lon="6.7576">
        <ele>359</ele>
        <time>2015-09-27T07:27:26.000Z</time>
      </trkpt>
      <trkpt lat="47.49786" lon="6.75763">
        <ele>359</ele>
        <time>2015-09-27T07:27:27.000Z</time>
      </trkpt>
      <trkpt lat="47.49774" lon="6.75766">
        <ele>358</ele>
        <time>2015-09-27T07:27:28.000Z</time>
      </trkpt>
      <trkpt lat="47.49765" lon="6.75768">
        <ele>357</ele>
        <time>2015-09-27T07:27:29.000Z</time>
      </trkpt>
      <trkpt lat="47.49755" lon="6.7577">
        <ele>357</ele>
        <time>2015-09-27T07:27:30.000Z</time>
      </trkpt>
      <trkpt lat="47.49743" lon="6.75772">
        <ele>354</ele>
        <time>2015-09-27T07:27:31.000Z</time>
      </trkpt>
      <trkpt lat="47.49734" lon="6.75776">
        <ele>354</ele>
        <time>2015-09-27T07:27:32.000Z</time>
      </trkpt>
      <trkpt lat="47.49724" lon="6.75779">
        <ele>354</ele>
        <time>2015-09-27T07:27:33.000Z</time>
      </trkpt>
      <trkpt lat="47.49714" lon="6.75783">
        <ele>354</ele>
        <time>2015-09-27T07:27:34.000Z</time>
      </trkpt>
      <trkpt lat="47.49704" lon="6.75789">
        <ele>354</ele>
        <time>2015-09-27T07:27:35.000Z</time>
      </trkpt>
      <trkpt lat="47.49696" lon="6.7579">
        <ele>354</ele>
        <time>2015-09-27T07:27:36.000Z</time>
      </trkpt>
      <trkpt lat="47.49687" lon="6.75792">
        <ele>354</ele>
        <time>2015-09-27T07:27:37.000Z</time>
      </trkpt>
      <trkpt lat="47.49679" lon="6.75793">
        <ele>354</ele>
        <time>2015-09-27T07:27:38.000Z</time>
      </trkpt>
      <trkpt lat="47.4967" lon="6.75794">
        <ele>354</ele>
        <time>2015-09-27T07:27:39.000Z</time>
      </trkpt>
      <trkpt lat="47.49663" lon="6.75794">
        <ele>348</ele>
        <time>2015-09-27T07:27:40.000Z</time>
      </trkpt>
      <trkpt lat="47.49657" lon="6.75792">
        <ele>348</ele>
        <time>2015-09-27T07:27:41.000Z</time>
      </trkpt>
      <trkpt lat="47.4965" lon="6.75791">
        <ele>347</ele>
        <time>2015-09-27T07:27:42.000Z</time>
      </trkpt>
      <trkpt lat="47.49644" lon="6.7579">
        <ele>347</ele>
        <time>2015-09-27T07:27:43.000Z</time>
      </trkpt>
      <trkpt lat="47.49636" lon="6.7579">
        <ele>347</ele>
        <time>2015-09-27T07:27:44.000Z</time>
      </trkpt>
      <trkpt lat="47.49628" lon="6.75789">
        <ele>346</ele>
        <time>2015-09-27T07:27:45.000Z</time>
      </trkpt>
      <trkpt lat="47.4962" lon="6.7579">
        <ele>346</ele>
        <time>2015-09-27T07:27:46.000Z</time>
      </trkpt>
      <trkpt lat="47.49612" lon="6.75791">
        <ele>346</ele>
        <time>2015-09-27T07:27:47.000Z</time>
      </trkpt>
      <trkpt lat="47.49608" lon="6.75792">
        <ele>345</ele>
        <time>2015-09-27T07:27:48.000Z</time>
      </trkpt>
      <trkpt lat="47.49601" lon="6.75791">
        <ele>345</ele>
        <time>2015-09-27T07:27:49.000Z</time>
      </trkpt>
      <trkpt lat="47.49591" lon="6.75789">
        <ele>344</ele>
        <time>2015-09-27T07:27:50.000Z</time>
      </trkpt>
      <trkpt lat="47.49582" lon="6.75786">
        <ele>338</ele>
        <time>2015-09-27T07:27:51.000Z</time>
      </trkpt>
      <trkpt lat="47.49574" lon="6.75785">
        <ele>337</ele>
        <time>2015-09-27T07:27:52.000Z</time>
      </trkpt>
      <trkpt lat="47.49569" lon="6.75782">
        <ele>337</ele>
        <time>2015-09-27T07:27:53.000Z</time>
      </trkpt>
      <trkpt lat="47.49559" lon="6.75774">
        <ele>336</ele>
        <time>2015-09-27T07:27:54.000Z</time>
      </trkpt>
      <trkpt lat="47.49547" lon="6.75769">
        <ele>335</ele>
        <time>2015-09-27T07:27:55.000Z</time>
      </trkpt>
      <trkpt lat="47.49547" lon="6.75765">
        <ele>335</ele>
        <time>2015-09-27T07:27:56.000Z</time>
      </trkpt>
      <trkpt lat="47.49549" lon="6.75758">
        <ele>334</ele>
        <time>2015-09-27T07:27:57.000Z</time>
      </trkpt>
      <trkpt lat="47.49554" lon="6.75751">
        <ele>334</ele>
        <time>2015-09-27T07:27:58.000Z</time>
      </trkpt>
      <trkpt lat="47.49558" lon="6.75749">
        <ele>328</ele>
        <time>2015-09-27T07:27:59.000Z</time>
      </trkpt>
      <trkpt lat="47.49563" lon="6.75746">
        <ele>329</ele>
        <time>2015-09-27T07:28:00.000Z</time>
      </trkpt>
      <trkpt lat="47.49567" lon="6.75742">
        <ele>329</ele>
        <time>2015-09-27T07:28:01.000Z</time>
      </trkpt>
      <trkpt lat="47.49571" lon="6.75739">
        <ele>329</ele>
        <time>2015-09-27T07:28:02.000Z</time>
      </trkpt>
      <trkpt lat="47.49574" lon="6.75737">
        <ele>330</ele>
        <time>2015-09-27T07:28:03.000Z</time>
      </trkpt>
      <trkpt lat="47.49577" lon="6.75733">
        <ele>329</ele>
        <time>2015-09-27T07:28:04.000Z</time>
      </trkpt>
      <trkpt lat="47.49581" lon="6.7573">
        <ele>329</ele>
        <time>2015-09-27T07:28:05.000Z</time>
      </trkpt>
      <trkpt lat="47.49584" lon="6.75726">
        <ele>332</ele>
        <time>2015-09-27T07:28:06.000Z</time>
      </trkpt>
      <trkpt lat="47.49587" lon="6.75723">
        <ele>332</ele>
        <time>2015-09-27T07:28:07.000Z</time>
      </trkpt>
      <trkpt lat="47.4959" lon="6.7572">
        <ele>331</ele>
        <time>2015-09-27T07:28:08.000Z</time>
      </trkpt>
      <trkpt lat="47.49592" lon="6.75718">
        <ele>331</ele>
        <time>2015-09-27T07:28:09.000Z</time>
      </trkpt>
      <trkpt lat="47.49594" lon="6.75713">
        <ele>331</ele>
        <time>2015-09-27T07:28:13.000Z</time>
      </trkpt>
      <trkpt lat="47.49595" lon="6.75711">
        <ele>330</ele>
        <time>2015-09-27T07:28:14.000Z</time>
      </trkpt>
      <trkpt lat="47.49594" lon="6.75707">
        <ele>330</ele>
        <time>2015-09-27T07:28:15.000Z</time>
      </trkpt>
      <trkpt lat="47.49594" lon="6.75703">
        <ele>330</ele>
        <time>2015-09-27T07:28:16.000Z</time>
      </trkpt>
      <trkpt lat="47.49593" lon="6.75697">
        <ele>329</ele>
        <time>2015-09-27T07:28:17.000Z</time>
      </trkpt>
      <trkpt lat="47.49591" lon="6.75691">
        <ele>328</ele>
        <time>2015-09-27T07:28:18.000Z</time>
      </trkpt>
      <trkpt lat="47.49589" lon="6.75685">
        <ele>327</ele>
        <time>2015-09-27T07:28:19.000Z</time>
      </trkpt>
      <trkpt lat="47.49581" lon="6.75676">
        <ele>322</ele>
        <time>2015-09-27T07:28:20.000Z</time>
      </trkpt>
      <trkpt lat="47.49577" lon="6.7567">
        <ele>322</ele>
        <time>2015-09-27T07:28:21.000Z</time>
      </trkpt>
      <trkpt lat="47.49573" lon="6.75666">
        <ele>321</ele>
        <time>2015-09-27T07:28:22.000Z</time>
      </trkpt>
      <trkpt lat="47.4957" lon="6.75662">
        <ele>321</ele>
        <time>2015-09-27T07:28:23.000Z</time>
      </trkpt>
      <trkpt lat="47.49565" lon="6.7566">
        <ele>321</ele>
        <time>2015-09-27T07:28:24.000Z</time>
      </trkpt>
      <trkpt lat="47.49559" lon="6.75661">
        <ele>321</ele>
        <time>2015-09-27T07:28:25.000Z</time>
      </trkpt>
      <trkpt lat="47.49557" lon="6.75675">
        <ele>324</ele>
        <time>2015-09-27T07:28:26.000Z</time>
      </trkpt>
      <trkpt lat="47.49553" lon="6.75681">
        <ele>324</ele>
        <time>2015-09-27T07:28:27.000Z</time>
      </trkpt>
      <trkpt lat="47.49549" lon="6.75687">
        <ele>324</ele>
        <time>2015-09-27T07:28:28.000Z</time>
      </trkpt>
      <trkpt lat="47.49545" lon="6.75694">
        <ele>324</ele>
        <time>2015-09-27T07:28:29.000Z</time>
      </trkpt>
      <trkpt lat="47.49541" lon="6.757">
        <ele>325</ele>
        <time>2015-09-27T07:28:30.000Z</time>
      </trkpt>
      <trkpt lat="47.49536" lon="6.75705">
        <ele>325</ele>
        <time>2015-09-27T07:28:31.000Z</time>
      </trkpt>
      <trkpt lat="47.49532" lon="6.7571">
        <ele>325</ele>
        <time>2015-09-27T07:28:32.000Z</time>
      </trkpt>
      <trkpt lat="47.49527" lon="6.75715">
        <ele>325</ele>
        <time>2015-09-27T07:28:33.000Z</time>
      </trkpt>
      <trkpt lat="47.49522" lon="6.7572">
        <ele>325</ele>
        <time>2015-09-27T07:28:34.000Z</time>
      </trkpt>
      <trkpt lat="47.49517" lon="6.75724">
        <ele>325</ele>
        <time>2015-09-27T07:28:35.000Z</time>
      </trkpt>
      <trkpt lat="47.49512" lon="6.75727">
        <ele>325</ele>
        <time>2015-09-27T07:28:36.000Z</time>
      </trkpt>
      <trkpt lat="47.49506" lon="6.75731">
        <ele>325</ele>
        <time>2015-09-27T07:28:37.000Z</time>
      </trkpt>
      <trkpt lat="47.495" lon="6.75734">
        <ele>324</ele>
        <time>2015-09-27T07:28:38.000Z</time>
      </trkpt>
      <trkpt lat="47.49494" lon="6.75737">
        <ele>323</ele>
        <time>2015-09-27T07:28:39.000Z</time>
      </trkpt>
      <trkpt lat="47.49489" lon="6.75739">
        <ele>323</ele>
        <time>2015-09-27T07:28:40.000Z</time>
      </trkpt>
      <trkpt lat="47.49483" lon="6.75738">
        <ele>322</ele>
        <time>2015-09-27T07:28:41.000Z</time>
      </trkpt>
      <trkpt lat="47.49478" lon="6.75733">
        <ele>322</ele>
        <time>2015-09-27T07:28:42.000Z</time>
      </trkpt>
      <trkpt lat="47.49473" lon="6.75723">
        <ele>322</ele>
        <time>2015-09-27T07:28:43.000Z</time>
      </trkpt>
      <trkpt lat="47.49471" lon="6.75715">
        <ele>321</ele>
        <time>2015-09-27T07:28:44.000Z</time>
      </trkpt>
      <trkpt lat="47.49468" lon="6.75707">
        <ele>321</ele>
        <time>2015-09-27T07:28:45.000Z</time>
      </trkpt>
      <trkpt lat="47.49465" lon="6.757">
        <ele>321</ele>
        <time>2015-09-27T07:28:46.000Z</time>
      </trkpt>
      <trkpt lat="47.49462" lon="6.75693">
        <ele>321</ele>
        <time>2015-09-27T07:28:47.000Z</time>
      </trkpt>
      <trkpt lat="47.49458" lon="6.75686">
        <ele>321</ele>
        <time>2015-09-27T07:28:48.000Z</time>
      </trkpt>
      <trkpt lat="47.49453" lon="6.75683">
        <ele>321</ele>
        <time>2015-09-27T07:28:49.000Z</time>
      </trkpt>
      <trkpt lat="47.49448" lon="6.75696">
        <ele>321</ele>
        <time>2015-09-27T07:28:50.000Z</time>
      </trkpt>
      <trkpt lat="47.49443" lon="6.75698">
        <ele>321</ele>
        <time>2015-09-27T07:28:51.000Z</time>
      </trkpt>
      <trkpt lat="47.49437" lon="6.75698">
        <ele>321</ele>
        <time>2015-09-27T07:28:52.000Z</time>
      </trkpt>
      <trkpt lat="47.49436" lon="6.75687">
        <ele>320</ele>
        <time>2015-09-27T07:28:53.000Z</time>
      </trkpt>
      <trkpt lat="47.49435" lon="6.7568">
        <ele>320</ele>
        <time>2015-09-27T07:28:54.000Z</time>
      </trkpt>
      <trkpt lat="47.49433" lon="6.75674">
        <ele>320</ele>
        <time>2015-09-27T07:28:55.000Z</time>
      </trkpt>
      <trkpt lat="47.4943" lon="6.75668">
        <ele>320</ele>
        <time>2015-09-27T07:28:56.000Z</time>
      </trkpt>
      <trkpt lat="47.49427" lon="6.75663">
        <ele>320</ele>
        <time>2015-09-27T07:28:57.000Z</time>
      </trkpt>
      <trkpt lat="47.49425" lon="6.75664">
        <ele>319</ele>
        <time>2015-09-27T07:28:58.000Z</time>
      </trkpt>
      <trkpt lat="47.49422" lon="6.75666">
        <ele>319</ele>
        <time>2015-09-27T07:28:59.000Z</time>
      </trkpt>
      <trkpt lat="47.49417" lon="6.75669">
        <ele>319</ele>
        <time>2015-09-27T07:29:00.000Z</time>
      </trkpt>
      <trkpt lat="47.49412" lon="6.75673">
        <ele>319</ele>
        <time>2015-09-27T07:29:01.000Z</time>
      </trkpt>
      <trkpt lat="47.49408" lon="6.75678">
        <ele>319</ele>
        <time>2015-09-27T07:29:02.000Z</time>
      </trkpt>
      <trkpt lat="47.49406" lon="6.75686">
        <ele>319</ele>
        <time>2015-09-27T07:29:03.000Z</time>
      </trkpt>
      <trkpt lat="47.49399" lon="6.75688">
        <ele>319</ele>
        <time>2015-09-27T07:29:04.000Z</time>
      </trkpt>
      <trkpt lat="47.49394" lon="6.75693">
        <ele>319</ele>
        <time>2015-09-27T07:29:05.000Z</time>
      </trkpt>
      <trkpt lat="47.49389" lon="6.75696">
        <ele>319</ele>
        <time>2015-09-27T07:29:06.000Z</time>
      </trkpt>
      <trkpt lat="47.49384" lon="6.75698">
        <ele>319</ele>
        <time>2015-09-27T07:29:07.000Z</time>
      </trkpt>
      <trkpt lat="47.4938" lon="6.75702">
        <ele>319</ele>
        <time>2015-09-27T07:29:08.000Z</time>
      </trkpt>
      <trkpt lat="47.49375" lon="6.75704">
        <ele>319</ele>
        <time>2015-09-27T07:29:09.000Z</time>
      </trkpt>
      <trkpt lat="47.49371" lon="6.75707">
        <ele>319</ele>
        <time>2015-09-27T07:29:10.000Z</time>
      </trkpt>
      <trkpt lat="47.49366" lon="6.7571">
        <ele>319</ele>
        <time>2015-09-27T07:29:11.000Z</time>
      </trkpt>
      <trkpt lat="47.49361" lon="6.75711">
        <ele>319</ele>
        <time>2015-09-27T07:29:12.000Z</time>
      </trkpt>
      <trkpt lat="47.49364" lon="6.75717">
        <ele>319</ele>
        <time>2015-09-27T07:29:13.000Z</time>
      </trkpt>
      <trkpt lat="47.49362" lon="6.7572">
        <ele>319</ele>
        <time>2015-09-27T07:29:14.000Z</time>
      </trkpt>
      <trkpt lat="47.4936" lon="6.75722">
        <ele>319</ele>
        <time>2015-09-27T07:29:15.000Z</time>
      </trkpt>
      <trkpt lat="47.49358" lon="6.75724">
        <ele>319</ele>
        <time>2015-09-27T07:29:16.000Z</time>
      </trkpt>
      <trkpt lat="47.49355" lon="6.75726">
        <ele>319</ele>
        <time>2015-09-27T07:29:17.000Z</time>
      </trkpt>
      <trkpt lat="47.49353" lon="6.75728">
        <ele>319</ele>
        <time>2015-09-27T07:29:18.000Z</time>
      </trkpt>
      <trkpt lat="47.49347" lon="6.75733">
        <ele>318</ele>
        <time>2015-09-27T07:29:19.000Z</time>
      </trkpt>
      <trkpt lat="47.49344" lon="6.75735">
        <ele>318</ele>
        <time>2015-09-27T07:29:20.000Z</time>
      </trkpt>
      <trkpt lat="47.49337" lon="6.75738">
        <ele>318</ele>
        <time>2015-09-27T07:29:21.000Z</time>
      </trkpt>
      <trkpt lat="47.49332" lon="6.75741">
        <ele>318</ele>
        <time>2015-09-27T07:29:22.000Z</time>
      </trkpt>
      <trkpt lat="47.49326" lon="6.75743">
        <ele>318</ele>
        <time>2015-09-27T07:29:23.000Z</time>
      </trkpt>
      <trkpt lat="47.4932" lon="6.75753">
        <ele>318</ele>
        <time>2015-09-27T07:29:24.000Z</time>
      </trkpt>
      <trkpt lat="47.49313" lon="6.75759">
        <ele>318</ele>
        <time>2015-09-27T07:29:25.000Z</time>
      </trkpt>
      <trkpt lat="47.49308" lon="6.75765">
        <ele>318</ele>
        <time>2015-09-27T07:29:26.000Z</time>
      </trkpt>
      <trkpt lat="47.49304" lon="6.7577">
        <ele>318</ele>
        <time>2015-09-27T07:29:27.000Z</time>
      </trkpt>
      <trkpt lat="47.49299" lon="6.75775">
        <ele>318</ele>
        <time>2015-09-27T07:29:28.000Z</time>
      </trkpt>
      <trkpt lat="47.4929" lon="6.75787">
        <ele>318</ele>
        <time>2015-09-27T07:29:30.000Z</time>
      </trkpt>
      <trkpt lat="47.49286" lon="6.75793">
        <ele>318</ele>
        <time>2015-09-27T07:29:31.000Z</time>
      </trkpt>
      <trkpt lat="47.49282" lon="6.758">
        <ele>318</ele>
        <time>2015-09-27T07:29:32.000Z</time>
      </trkpt>
      <trkpt lat="47.49277" lon="6.75806">
        <ele>317</ele>
        <time>2015-09-27T07:29:33.000Z</time>
      </trkpt>
      <trkpt lat="47.49274" lon="6.75813">
        <ele>317</ele>
        <time>2015-09-27T07:29:34.000Z</time>
      </trkpt>
      <trkpt lat="47.4927" lon="6.7582">
        <ele>316</ele>
        <time>2015-09-27T07:29:35.000Z</time>
      </trkpt>
      <trkpt lat="47.49266" lon="6.75828">
        <ele>316</ele>
        <time>2015-09-27T07:29:36.000Z</time>
      </trkpt>
      <trkpt lat="47.49263" lon="6.75836">
        <ele>316</ele>
        <time>2015-09-27T07:29:37.000Z</time>
      </trkpt>
      <trkpt lat="47.49258" lon="6.75842">
        <ele>316</ele>
        <time>2015-09-27T07:29:38.000Z</time>
      </trkpt>
      <trkpt lat="47.49256" lon="6.7585">
        <ele>317</ele>
        <time>2015-09-27T07:29:39.000Z</time>
      </trkpt>
      <trkpt lat="47.49252" lon="6.75857">
        <ele>317</ele>
        <time>2015-09-27T07:29:40.000Z</time>
      </trkpt>
      <trkpt lat="47.49248" lon="6.75864">
        <ele>317</ele>
        <time>2015-09-27T07:29:41.000Z</time>
      </trkpt>
      <trkpt lat="47.49245" lon="6.75871">
        <ele>318</ele>
        <time>2015-09-27T07:29:42.000Z</time>
      </trkpt>
      <trkpt lat="47.49242" lon="6.75878">
        <ele>318</ele>
        <time>2015-09-27T07:29:43.000Z</time>
      </trkpt>
      <trkpt lat="47.49238" lon="6.75886">
        <ele>318</ele>
        <time>2015-09-27T07:29:44.000Z</time>
      </trkpt>
      <trkpt lat="47.49235" lon="6.75894">
        <ele>318</ele>
        <time>2015-09-27T07:29:45.000Z</time>
      </trkpt>
      <trkpt lat="47.49231" lon="6.75902">
        <ele>318</ele>
        <time>2015-09-27T07:29:46.000Z</time>
      </trkpt>
      <trkpt lat="47.49228" lon="6.75908">
        <ele>318</ele>
        <time>2015-09-27T07:29:47.000Z</time>
      </trkpt>
      <trkpt lat="47.49224" lon="6.75915">
        <ele>318</ele>
        <time>2015-09-27T07:29:48.000Z</time>
      </trkpt>
      <trkpt lat="47.4922" lon="6.75923">
        <ele>319</ele>
        <time>2015-09-27T07:29:49.000Z</time>
      </trkpt>
      <trkpt lat="47.49217" lon="6.7593">
        <ele>320</ele>
        <time>2015-09-27T07:29:50.000Z</time>
      </trkpt>
      <trkpt lat="47.49215" lon="6.75937">
        <ele>320</ele>
        <time>2015-09-27T07:29:51.000Z</time>
      </trkpt>
      <trkpt lat="47.49213" lon="6.75944">
        <ele>320</ele>
        <time>2015-09-27T07:29:52.000Z</time>
      </trkpt>
      <trkpt lat="47.4921" lon="6.75951">
        <ele>320</ele>
        <time>2015-09-27T07:29:53.000Z</time>
      </trkpt>
      <trkpt lat="47.49208" lon="6.75956">
        <ele>320</ele>
        <time>2015-09-27T07:29:54.000Z</time>
      </trkpt>
      <trkpt lat="47.49207" lon="6.75963">
        <ele>320</ele>
        <time>2015-09-27T07:29:55.000Z</time>
      </trkpt>
      <trkpt lat="47.49205" lon="6.75968">
        <ele>320</ele>
        <time>2015-09-27T07:29:56.000Z</time>
      </trkpt>
      <trkpt lat="47.49201" lon="6.75975">
        <ele>320</ele>
        <time>2015-09-27T07:29:57.000Z</time>
      </trkpt>
      <trkpt lat="47.49198" lon="6.7598">
        <ele>320</ele>
        <time>2015-09-27T07:29:58.000Z</time>
      </trkpt>
      <trkpt lat="47.49195" lon="6.75986">
        <ele>320</ele>
        <time>2015-09-27T07:29:59.000Z</time>
      </trkpt>
      <trkpt lat="47.49192" lon="6.75991">
        <ele>320</ele>
        <time>2015-09-27T07:30:00.000Z</time>
      </trkpt>
      <trkpt lat="47.49189" lon="6.75997">
        <ele>320</ele>
        <time>2015-09-27T07:30:01.000Z</time>
      </trkpt>
      <trkpt lat="47.49186" lon="6.76005">
        <ele>320</ele>
        <time>2015-09-27T07:30:02.000Z</time>
      </trkpt>
      <trkpt lat="47.49183" lon="6.76011">
        <ele>320</ele>
        <time>2015-09-27T07:30:03.000Z</time>
      </trkpt>
      <trkpt lat="47.4918" lon="6.76018">
        <ele>320</ele>
        <time>2015-09-27T07:30:04.000Z</time>
      </trkpt>
      <trkpt lat="47.49177" lon="6.76025">
        <ele>320</ele>
        <time>2015-09-27T07:30:05.000Z</time>
      </trkpt>
      <trkpt lat="47.49174" lon="6.76033">
        <ele>320</ele>
        <time>2015-09-27T07:30:06.000Z</time>
      </trkpt>
      <trkpt lat="47.49171" lon="6.7604">
        <ele>320</ele>
        <time>2015-09-27T07:30:07.000Z</time>
      </trkpt>
      <trkpt lat="47.49167" lon="6.76048">
        <ele>320</ele>
        <time>2015-09-27T07:30:08.000Z</time>
      </trkpt>
      <trkpt lat="47.49163" lon="6.76056">
        <ele>322</ele>
        <time>2015-09-27T07:30:09.000Z</time>
      </trkpt>
      <trkpt lat="47.49161" lon="6.76063">
        <ele>321</ele>
        <time>2015-09-27T07:30:10.000Z</time>
      </trkpt>
      <trkpt lat="47.49158" lon="6.76071">
        <ele>321</ele>
        <time>2015-09-27T07:30:11.000Z</time>
      </trkpt>
      <trkpt lat="47.49156" lon="6.76079">
        <ele>320</ele>
        <time>2015-09-27T07:30:12.000Z</time>
      </trkpt>
      <trkpt lat="47.49154" lon="6.76087">
        <ele>320</ele>
        <time>2015-09-27T07:30:13.000Z</time>
      </trkpt>
      <trkpt lat="47.49152" lon="6.76095">
        <ele>320</ele>
        <time>2015-09-27T07:30:14.000Z</time>
      </trkpt>
      <trkpt lat="47.4915" lon="6.76104">
        <ele>321</ele>
        <time>2015-09-27T07:30:15.000Z</time>
      </trkpt>
      <trkpt lat="47.49148" lon="6.76112">
        <ele>321</ele>
        <time>2015-09-27T07:30:16.000Z</time>
      </trkpt>
      <trkpt lat="47.49146" lon="6.7612">
        <ele>321</ele>
        <time>2015-09-27T07:30:17.000Z</time>
      </trkpt>
      <trkpt lat="47.49144" lon="6.76128">
        <ele>321</ele>
        <time>2015-09-27T07:30:18.000Z</time>
      </trkpt>
      <trkpt lat="47.49143" lon="6.76137">
        <ele>321</ele>
        <time>2015-09-27T07:30:19.000Z</time>
      </trkpt>
      <trkpt lat="47.49141" lon="6.76145">
        <ele>321</ele>
        <time>2015-09-27T07:30:20.000Z</time>
      </trkpt>
      <trkpt lat="47.4914" lon="6.76153">
        <ele>321</ele>
        <time>2015-09-27T07:30:21.000Z</time>
      </trkpt>
      <trkpt lat="47.49139" lon="6.76161">
        <ele>321</ele>
        <time>2015-09-27T07:30:22.000Z</time>
      </trkpt>
      <trkpt lat="47.49138" lon="6.76169">
        <ele>321</ele>
        <time>2015-09-27T07:30:23.000Z</time>
      </trkpt>
      <trkpt lat="47.49134" lon="6.76176">
        <ele>321</ele>
        <time>2015-09-27T07:30:24.000Z</time>
      </trkpt>
      <trkpt lat="47.49131" lon="6.76183">
        <ele>321</ele>
        <time>2015-09-27T07:30:25.000Z</time>
      </trkpt>
      <trkpt lat="47.4913" lon="6.76191">
        <ele>321</ele>
        <time>2015-09-27T07:30:26.000Z</time>
      </trkpt>
      <trkpt lat="47.4913" lon="6.762">
        <ele>321</ele>
        <time>2015-09-27T07:30:27.000Z</time>
      </trkpt>
      <trkpt lat="47.49129" lon="6.76208">
        <ele>321</ele>
        <time>2015-09-27T07:30:28.000Z</time>
      </trkpt>
      <trkpt lat="47.49131" lon="6.76213">
        <ele>321</ele>
        <time>2015-09-27T07:30:29.000Z</time>
      </trkpt>
      <trkpt lat="47.49132" lon="6.7622">
        <ele>321</ele>
        <time>2015-09-27T07:30:30.000Z</time>
      </trkpt>
      <trkpt lat="47.49133" lon="6.76226">
        <ele>320</ele>
        <time>2015-09-27T07:30:31.000Z</time>
      </trkpt>
      <trkpt lat="47.49133" lon="6.76235">
        <ele>320</ele>
        <time>2015-09-27T07:30:32.000Z</time>
      </trkpt>
      <trkpt lat="47.49133" lon="6.76242">
        <ele>320</ele>
        <time>2015-09-27T07:30:33.000Z</time>
      </trkpt>
      <trkpt lat="47.49133" lon="6.76251">
        <ele>319</ele>
        <time>2015-09-27T07:30:34.000Z</time>
      </trkpt>
      <trkpt lat="47.49134" lon="6.76259">
        <ele>319</ele>
        <time>2015-09-27T07:30:35.000Z</time>
      </trkpt>
      <trkpt lat="47.49135" lon="6.76267">
        <ele>319</ele>
        <time>2015-09-27T07:30:36.000Z</time>
      </trkpt>
      <trkpt lat="47.49134" lon="6.76274">
        <ele>319</ele>
        <time>2015-09-27T07:30:37.000Z</time>
      </trkpt>
      <trkpt lat="47.49135" lon="6.76282">
        <ele>319</ele>
        <time>2015-09-27T07:30:38.000Z</time>
      </trkpt>
      <trkpt lat="47.49136" lon="6.76291">
        <ele>319</ele>
        <time>2015-09-27T07:30:39.000Z</time>
      </trkpt>
      <trkpt lat="47.49137" lon="6.76299">
        <ele>319</ele>
        <time>2015-09-27T07:30:40.000Z</time>
      </trkpt>
      <trkpt lat="47.49138" lon="6.76308">
        <ele>319</ele>
        <time>2015-09-27T07:30:41.000Z</time>
      </trkpt>
      <trkpt lat="47.49138" lon="6.76316">
        <ele>318</ele>
        <time>2015-09-27T07:30:42.000Z</time>
      </trkpt>
      <trkpt lat="47.49136" lon="6.76325">
        <ele>318</ele>
        <time>2015-09-27T07:30:43.000Z</time>
      </trkpt>
      <trkpt lat="47.49135" lon="6.76335">
        <ele>317</ele>
        <time>2015-09-27T07:30:44.000Z</time>
      </trkpt>
      <trkpt lat="47.49135" lon="6.76344">
        <ele>317</ele>
        <time>2015-09-27T07:30:45.000Z</time>
      </trkpt>
      <trkpt lat="47.49134" lon="6.76353">
        <ele>317</ele>
        <time>2015-09-27T07:30:46.000Z</time>
      </trkpt>
      <trkpt lat="47.49133" lon="6.76362">
        <ele>317</ele>
        <time>2015-09-27T07:30:47.000Z</time>
      </trkpt>
      <trkpt lat="47.49133" lon="6.76372">
        <ele>317</ele>
        <time>2015-09-27T07:30:48.000Z</time>
      </trkpt>
      <trkpt lat="47.49134" lon="6.7638">
        <ele>317</ele>
        <time>2015-09-27T07:30:49.000Z</time>
      </trkpt>
      <trkpt lat="47.49135" lon="6.76389">
        <ele>317</ele>
        <time>2015-09-27T07:30:50.000Z</time>
      </trkpt>
      <trkpt lat="47.49136" lon="6.76398">
        <ele>317</ele>
        <time>2015-09-27T07:30:51.000Z</time>
      </trkpt>
      <trkpt lat="47.49135" lon="6.76408">
        <ele>317</ele>
        <time>2015-09-27T07:30:52.000Z</time>
      </trkpt>
      <trkpt lat="47.49134" lon="6.76418">
        <ele>316</ele>
        <time>2015-09-27T07:30:53.000Z</time>
      </trkpt>
      <trkpt lat="47.49133" lon="6.76428">
        <ele>316</ele>
        <time>2015-09-27T07:30:54.000Z</time>
      </trkpt>
      <trkpt lat="47.49133" lon="6.76437">
        <ele>317</ele>
        <time>2015-09-27T07:30:55.000Z</time>
      </trkpt>
      <trkpt lat="47.49132" lon="6.76446">
        <ele>317</ele>
        <time>2015-09-27T07:30:56.000Z</time>
      </trkpt>
      <trkpt lat="47.49131" lon="6.76456">
        <ele>317</ele>
        <time>2015-09-27T07:30:57.000Z</time>
      </trkpt>
      <trkpt lat="47.4913" lon="6.76465">
        <ele>317</ele>
        <time>2015-09-27T07:30:58.000Z</time>
      </trkpt>
      <trkpt lat="47.49129" lon="6.76475">
        <ele>317</ele>
        <time>2015-09-27T07:30:59.000Z</time>
      </trkpt>
      <trkpt lat="47.49128" lon="6.76485">
        <ele>317</ele>
        <time>2015-09-27T07:31:00.000Z</time>
      </trkpt>
      <trkpt lat="47.49127" lon="6.76496">
        <ele>317</ele>
        <time>2015-09-27T07:31:01.000Z</time>
      </trkpt>
      <trkpt lat="47.49126" lon="6.76506">
        <ele>316</ele>
        <time>2015-09-27T07:31:02.000Z</time>
      </trkpt>
      <trkpt lat="47.49125" lon="6.76514">
        <ele>316</ele>
        <time>2015-09-27T07:31:03.000Z</time>
      </trkpt>
      <trkpt lat="47.49126" lon="6.76516">
        <ele>316</ele>
        <time>2015-09-27T07:31:04.000Z</time>
      </trkpt>
      <trkpt lat="47.49137" lon="6.76511">
        <ele>315</ele>
        <time>2015-09-27T07:31:05.000Z</time>
      </trkpt>
      <trkpt lat="47.49144" lon="6.7651">
        <ele>315</ele>
        <time>2015-09-27T07:31:06.000Z</time>
      </trkpt>
      <trkpt lat="47.49148" lon="6.76507">
        <ele>315</ele>
        <time>2015-09-27T07:31:07.000Z</time>
      </trkpt>
      <trkpt lat="47.49154" lon="6.76507">
        <ele>314</ele>
        <time>2015-09-27T07:31:08.000Z</time>
      </trkpt>
      <trkpt lat="47.49158" lon="6.76503">
        <ele>314</ele>
        <time>2015-09-27T07:31:09.000Z</time>
      </trkpt>
      <trkpt lat="47.49164" lon="6.76502">
        <ele>313</ele>
        <time>2015-09-27T07:31:10.000Z</time>
      </trkpt>
      <trkpt lat="47.49167" lon="6.76499">
        <ele>313</ele>
        <time>2015-09-27T07:31:11.000Z</time>
      </trkpt>
      <trkpt lat="47.49169" lon="6.76495">
        <ele>314</ele>
        <time>2015-09-27T07:31:12.000Z</time>
      </trkpt>
      <trkpt lat="47.49172" lon="6.76492">
        <ele>315</ele>
        <time>2015-09-27T07:31:13.000Z</time>
      </trkpt>
      <trkpt lat="47.49173" lon="6.76487">
        <ele>315</ele>
        <time>2015-09-27T07:31:14.000Z</time>
      </trkpt>
      <trkpt lat="47.49175" lon="6.76482">
        <ele>316</ele>
        <time>2015-09-27T07:31:15.000Z</time>
      </trkpt>
      <trkpt lat="47.49173" lon="6.76477">
        <ele>316</ele>
        <time>2015-09-27T07:31:16.000Z</time>
      </trkpt>
      <trkpt lat="47.4917" lon="6.76472">
        <ele>316</ele>
        <time>2015-09-27T07:31:18.000Z</time>
      </trkpt>
      <trkpt lat="47.49167" lon="6.76472">
        <ele>316</ele>
        <time>2015-09-27T07:31:19.000Z</time>
      </trkpt>
      <trkpt lat="47.49171" lon="6.76474">
        <ele>316</ele>
        <time>2015-09-27T07:32:00.000Z</time>
      </trkpt>
      <trkpt lat="47.49172" lon="6.76475">
        <ele>316</ele>
        <time>2015-09-27T07:32:01.000Z</time>
      </trkpt>
      <trkpt lat="47.49175" lon="6.76478">
        <ele>316</ele>
        <time>2015-09-27T07:32:04.000Z</time>
      </trkpt>
      <trkpt lat="47.49177" lon="6.7648">
        <ele>316</ele>
        <time>2015-09-27T07:32:05.000Z</time>
      </trkpt>
      <trkpt lat="47.49179" lon="6.76482">
        <ele>316</ele>
        <time>2015-09-27T07:32:06.000Z</time>
      </trkpt>
      <trkpt lat="47.4918" lon="6.76485">
        <ele>316</ele>
        <time>2015-09-27T07:32:07.000Z</time>
      </trkpt>
      <trkpt lat="47.49182" lon="6.76488">
        <ele>316</ele>
        <time>2015-09-27T07:32:08.000Z</time>
      </trkpt>
      <trkpt lat="47.49183" lon="6.7649">
        <ele>316</ele>
        <time>2015-09-27T07:32:09.000Z</time>
      </trkpt>
      <trkpt lat="47.49183" lon="6.76496">
        <ele>315</ele>
        <time>2015-09-27T07:32:12.000Z</time>
      </trkpt>
      <trkpt lat="47.49182" lon="6.76497">
        <ele>315</ele>
        <time>2015-09-27T07:32:13.000Z</time>
      </trkpt>
      <trkpt lat="47.49178" lon="6.76498">
        <ele>315</ele>
        <time>2015-09-27T07:32:20.000Z</time>
      </trkpt>
      <trkpt lat="47.49177" lon="6.76499">
        <ele>315</ele>
        <time>2015-09-27T07:32:21.000Z</time>
      </trkpt>
      <trkpt lat="47.49173" lon="6.76501">
        <ele>314</ele>
        <time>2015-09-27T07:32:23.000Z</time>
      </trkpt>
      <trkpt lat="47.49171" lon="6.76503">
        <ele>314</ele>
        <time>2015-09-27T07:32:24.000Z</time>
      </trkpt>
      <trkpt lat="47.49168" lon="6.76505">
        <ele>314</ele>
        <time>2015-09-27T07:32:25.000Z</time>
      </trkpt>
      <trkpt lat="47.49162" lon="6.76513">
        <ele>314</ele>
        <time>2015-09-27T07:32:26.000Z</time>
      </trkpt>
      <trkpt lat="47.49157" lon="6.76517">
        <ele>314</ele>
        <time>2015-09-27T07:32:27.000Z</time>
      </trkpt>
      <trkpt lat="47.49152" lon="6.7652">
        <ele>315</ele>
        <time>2015-09-27T07:32:28.000Z</time>
      </trkpt>
      <trkpt lat="47.49141" lon="6.76526">
        <ele>315</ele>
        <time>2015-09-27T07:32:30.000Z</time>
      </trkpt>
      <trkpt lat="47.49135" lon="6.76525">
        <ele>316</ele>
        <time>2015-09-27T07:32:31.000Z</time>
      </trkpt>
      <trkpt lat="47.4913" lon="6.76525">
        <ele>316</ele>
        <time>2015-09-27T07:32:32.000Z</time>
      </trkpt>
      <trkpt lat="47.49125" lon="6.76522">
        <ele>316</ele>
        <time>2015-09-27T07:32:33.000Z</time>
      </trkpt>
      <trkpt lat="47.49121" lon="6.76516">
        <ele>316</ele>
        <time>2015-09-27T07:32:34.000Z</time>
      </trkpt>
      <trkpt lat="47.49119" lon="6.76511">
        <ele>317</ele>
        <time>2015-09-27T07:32:35.000Z</time>
      </trkpt>
      <trkpt lat="47.4912" lon="6.76503">
        <ele>317</ele>
        <time>2015-09-27T07:32:36.000Z</time>
      </trkpt>
      <trkpt lat="47.49119" lon="6.76497">
        <ele>317</ele>
        <time>2015-09-27T07:32:37.000Z</time>
      </trkpt>
      <trkpt lat="47.49119" lon="6.76491">
        <ele>317</ele>
        <time>2015-09-27T07:32:38.000Z</time>
      </trkpt>
      <trkpt lat="47.49119" lon="6.76485">
        <ele>317</ele>
        <time>2015-09-27T07:32:39.000Z</time>
      </trkpt>
      <trkpt lat="47.49119" lon="6.76481">
        <ele>317</ele>
        <time>2015-09-27T07:32:40.000Z</time>
      </trkpt>
      <trkpt lat="47.49119" lon="6.76478">
        <ele>317</ele>
        <time>2015-09-27T07:32:41.000Z</time>
      </trkpt>
      <trkpt lat="47.49118" lon="6.76473">
        <ele>317</ele>
        <time>2015-09-27T07:32:42.000Z</time>
      </trkpt>
      <trkpt lat="47.49118" lon="6.76467">
        <ele>317</ele>
        <time>2015-09-27T07:32:43.000Z</time>
      </trkpt>
      <trkpt lat="47.49118" lon="6.76462">
        <ele>317</ele>
        <time>2015-09-27T07:32:44.000Z</time>
      </trkpt>
      <trkpt lat="47.49118" lon="6.76458">
        <ele>317</ele>
        <time>2015-09-27T07:32:45.000Z</time>
      </trkpt>
      <trkpt lat="47.49118" lon="6.76454">
        <ele>317</ele>
        <time>2015-09-27T07:32:46.000Z</time>
      </trkpt>
      <trkpt lat="47.49118" lon="6.7645">
        <ele>317</ele>
        <time>2015-09-27T07:32:47.000Z</time>
      </trkpt>
      <trkpt lat="47.49118" lon="6.76445">
        <ele>317</ele>
        <time>2015-09-27T07:32:48.000Z</time>
      </trkpt>
      <trkpt lat="47.49118" lon="6.76441">
        <ele>317</ele>
        <time>2015-09-27T07:32:49.000Z</time>
      </trkpt>
      <trkpt lat="47.49119" lon="6.76437">
        <ele>317</ele>
        <time>2015-09-27T07:32:50.000Z</time>
      </trkpt>
      <trkpt lat="47.49117" lon="6.76432">
        <ele>317</ele>
        <time>2015-09-27T07:32:52.000Z</time>
      </trkpt>
      <trkpt lat="47.49116" lon="6.76431">
        <ele>318</ele>
        <time>2015-09-27T07:32:53.000Z</time>
      </trkpt>
      <trkpt lat="47.49113" lon="6.76432">
        <ele>318</ele>
        <time>2015-09-27T07:32:55.000Z</time>
      </trkpt>
      <trkpt lat="47.49111" lon="6.76432">
        <ele>318</ele>
        <time>2015-09-27T07:32:56.000Z</time>
      </trkpt>
      <trkpt lat="47.49107" lon="6.76433">
        <ele>318</ele>
        <time>2015-09-27T07:32:58.000Z</time>
      </trkpt>
      <trkpt lat="47.49104" lon="6.76434">
        <ele>318</ele>
        <time>2015-09-27T07:32:59.000Z</time>
      </trkpt>
      <trkpt lat="47.49101" lon="6.76432">
        <ele>319</ele>
        <time>2015-09-27T07:33:00.000Z</time>
      </trkpt>
      <trkpt lat="47.49099" lon="6.76428">
        <ele>319</ele>
        <time>2015-09-27T07:33:01.000Z</time>
      </trkpt>
      <trkpt lat="47.49098" lon="6.76424">
        <ele>319</ele>
        <time>2015-09-27T07:33:02.000Z</time>
      </trkpt>
      <trkpt lat="47.49099" lon="6.76418">
        <ele>319</ele>
        <time>2015-09-27T07:33:03.000Z</time>
      </trkpt>
      <trkpt lat="47.49099" lon="6.76413">
        <ele>319</ele>
        <time>2015-09-27T07:33:04.000Z</time>
      </trkpt>
      <trkpt lat="47.491" lon="6.76408">
        <ele>319</ele>
        <time>2015-09-27T07:33:05.000Z</time>
      </trkpt>
      <trkpt lat="47.49101" lon="6.76403">
        <ele>319</ele>
        <time>2015-09-27T07:33:06.000Z</time>
      </trkpt>
      <trkpt lat="47.49101" lon="6.76398">
        <ele>319</ele>
        <time>2015-09-27T07:33:07.000Z</time>
      </trkpt>
      <trkpt lat="47.49101" lon="6.76393">
        <ele>319</ele>
        <time>2015-09-27T07:33:08.000Z</time>
      </trkpt>
      <trkpt lat="47.491" lon="6.76388">
        <ele>319</ele>
        <time>2015-09-27T07:33:09.000Z</time>
      </trkpt>
      <trkpt lat="47.49099" lon="6.76383">
        <ele>319</ele>
        <time>2015-09-27T07:33:10.000Z</time>
      </trkpt>
      <trkpt lat="47.49098" lon="6.76378">
        <ele>319</ele>
        <time>2015-09-27T07:33:11.000Z</time>
      </trkpt>
      <trkpt lat="47.49098" lon="6.76373">
        <ele>319</ele>
        <time>2015-09-27T07:33:12.000Z</time>
      </trkpt>
      <trkpt lat="47.49097" lon="6.76368">
        <ele>319</ele>
        <time>2015-09-27T07:33:13.000Z</time>
      </trkpt>
      <trkpt lat="47.49096" lon="6.76363">
        <ele>319</ele>
        <time>2015-09-27T07:33:14.000Z</time>
      </trkpt>
      <trkpt lat="47.49095" lon="6.76358">
        <ele>320</ele>
        <time>2015-09-27T07:33:15.000Z</time>
      </trkpt>
      <trkpt lat="47.49094" lon="6.76353">
        <ele>320</ele>
        <time>2015-09-27T07:33:16.000Z</time>
      </trkpt>
      <trkpt lat="47.49094" lon="6.76347">
        <ele>320</ele>
        <time>2015-09-27T07:33:17.000Z</time>
      </trkpt>
      <trkpt lat="47.49093" lon="6.76342">
        <ele>321</ele>
        <time>2015-09-27T07:33:18.000Z</time>
      </trkpt>
      <trkpt lat="47.49092" lon="6.76335">
        <ele>321</ele>
        <time>2015-09-27T07:33:19.000Z</time>
      </trkpt>
      <trkpt lat="47.49092" lon="6.76329">
        <ele>322</ele>
        <time>2015-09-27T07:33:20.000Z</time>
      </trkpt>
      <trkpt lat="47.49092" lon="6.76323">
        <ele>322</ele>
        <time>2015-09-27T07:33:21.000Z</time>
      </trkpt>
      <trkpt lat="47.49091" lon="6.76317">
        <ele>321</ele>
        <time>2015-09-27T07:33:22.000Z</time>
      </trkpt>
      <trkpt lat="47.49091" lon="6.76311">
        <ele>321</ele>
        <time>2015-09-27T07:33:23.000Z</time>
      </trkpt>
      <trkpt lat="47.4909" lon="6.76306">
        <ele>321</ele>
        <time>2015-09-27T07:33:24.000Z</time>
      </trkpt>
      <trkpt lat="47.4909" lon="6.763">
        <ele>321</ele>
        <time>2015-09-27T07:33:25.000Z</time>
      </trkpt>
      <trkpt lat="47.49089" lon="6.76294">
        <ele>321</ele>
        <time>2015-09-27T07:33:26.000Z</time>
      </trkpt>
      <trkpt lat="47.49089" lon="6.76288">
        <ele>321</ele>
        <time>2015-09-27T07:33:27.000Z</time>
      </trkpt>
      <trkpt lat="47.49088" lon="6.76282">
        <ele>321</ele>
        <time>2015-09-27T07:33:28.000Z</time>
      </trkpt>
      <trkpt lat="47.49088" lon="6.76276">
        <ele>322</ele>
        <time>2015-09-27T07:33:29.000Z</time>
      </trkpt>
      <trkpt lat="47.49088" lon="6.76269">
        <ele>322</ele>
        <time>2015-09-27T07:33:30.000Z</time>
      </trkpt>
      <trkpt lat="47.49088" lon="6.76262">
        <ele>323</ele>
        <time>2015-09-27T07:33:31.000Z</time>
      </trkpt>
      <trkpt lat="47.49087" lon="6.76254">
        <ele>324</ele>
        <time>2015-09-27T07:33:32.000Z</time>
      </trkpt>
      <trkpt lat="47.49087" lon="6.76246">
        <ele>324</ele>
        <time>2015-09-27T07:33:33.000Z</time>
      </trkpt>
      <trkpt lat="47.49086" lon="6.76239">
        <ele>324</ele>
        <time>2015-09-27T07:33:34.000Z</time>
      </trkpt>
      <trkpt lat="47.49086" lon="6.76232">
        <ele>323</ele>
        <time>2015-09-27T07:33:35.000Z</time>
      </trkpt>
      <trkpt lat="47.49085" lon="6.76225">
        <ele>323</ele>
        <time>2015-09-27T07:33:36.000Z</time>
      </trkpt>
      <trkpt lat="47.49085" lon="6.76218">
        <ele>322</ele>
        <time>2015-09-27T07:33:37.000Z</time>
      </trkpt>
      <trkpt lat="47.49085" lon="6.76212">
        <ele>322</ele>
        <time>2015-09-27T07:33:38.000Z</time>
      </trkpt>
      <trkpt lat="47.49085" lon="6.76206">
        <ele>322</ele>
        <time>2015-09-27T07:33:39.000Z</time>
      </trkpt>
      <trkpt lat="47.49085" lon="6.76199">
        <ele>322</ele>
        <time>2015-09-27T07:33:40.000Z</time>
      </trkpt>
      <trkpt lat="47.49085" lon="6.76192">
        <ele>322</ele>
        <time>2015-09-27T07:33:41.000Z</time>
      </trkpt>
      <trkpt lat="47.49085" lon="6.76185">
        <ele>323</ele>
        <time>2015-09-27T07:33:42.000Z</time>
      </trkpt>
      <trkpt lat="47.49085" lon="6.76178">
        <ele>323</ele>
        <time>2015-09-27T07:33:43.000Z</time>
      </trkpt>
      <trkpt lat="47.49085" lon="6.76172">
        <ele>323</ele>
        <time>2015-09-27T07:33:44.000Z</time>
      </trkpt>
      <trkpt lat="47.49086" lon="6.76166">
        <ele>324</ele>
        <time>2015-09-27T07:33:45.000Z</time>
      </trkpt>
      <trkpt lat="47.49086" lon="6.76161">
        <ele>324</ele>
        <time>2015-09-27T07:33:46.000Z</time>
      </trkpt>
      <trkpt lat="47.49087" lon="6.76155">
        <ele>323</ele>
        <time>2015-09-27T07:33:47.000Z</time>
      </trkpt>
      <trkpt lat="47.49087" lon="6.76149">
        <ele>323</ele>
        <time>2015-09-27T07:33:48.000Z</time>
      </trkpt>
      <trkpt lat="47.49087" lon="6.76143">
        <ele>323</ele>
        <time>2015-09-27T07:33:49.000Z</time>
      </trkpt>
      <trkpt lat="47.49087" lon="6.76137">
        <ele>323</ele>
        <time>2015-09-27T07:33:50.000Z</time>
      </trkpt>
      <trkpt lat="47.49087" lon="6.76131">
        <ele>323</ele>
        <time>2015-09-27T07:33:51.000Z</time>
      </trkpt>
      <trkpt lat="47.49087" lon="6.76126">
        <ele>324</ele>
        <time>2015-09-27T07:33:52.000Z</time>
      </trkpt>
      <trkpt lat="47.49086" lon="6.76121">
        <ele>324</ele>
        <time>2015-09-27T07:33:53.000Z</time>
      </trkpt>
      <trkpt lat="47.49086" lon="6.76116">
        <ele>324</ele>
        <time>2015-09-27T07:33:54.000Z</time>
      </trkpt>
      <trkpt lat="47.49086" lon="6.76112">
        <ele>324</ele>
        <time>2015-09-27T07:33:55.000Z</time>
      </trkpt>
      <trkpt lat="47.49086" lon="6.76108">
        <ele>324</ele>
        <time>2015-09-27T07:33:56.000Z</time>
      </trkpt>
      <trkpt lat="47.49086" lon="6.76104">
        <ele>325</ele>
        <time>2015-09-27T07:33:57.000Z</time>
      </trkpt>
      <trkpt lat="47.49086" lon="6.761">
        <ele>325</ele>
        <time>2015-09-27T07:33:58.000Z</time>
      </trkpt>
      <trkpt lat="47.49085" lon="6.76096">
        <ele>326</ele>
        <time>2015-09-27T07:33:59.000Z</time>
      </trkpt>
      <trkpt lat="47.49085" lon="6.76091">
        <ele>326</ele>
        <time>2015-09-27T07:34:00.000Z</time>
      </trkpt>
      <trkpt lat="47.49086" lon="6.76086">
        <ele>327</ele>
        <time>2015-09-27T07:34:01.000Z</time>
      </trkpt>
      <trkpt lat="47.49086" lon="6.76081">
        <ele>328</ele>
        <time>2015-09-27T07:34:02.000Z</time>
      </trkpt>
      <trkpt lat="47.49087" lon="6.76076">
        <ele>327</ele>
        <time>2015-09-27T07:34:03.000Z</time>
      </trkpt>
      <trkpt lat="47.49088" lon="6.76072">
        <ele>327</ele>
        <time>2015-09-27T07:34:04.000Z</time>
      </trkpt>
      <trkpt lat="47.49089" lon="6.76067">
        <ele>327</ele>
        <time>2015-09-27T07:34:05.000Z</time>
      </trkpt>
      <trkpt lat="47.4909" lon="6.76062">
        <ele>326</ele>
        <time>2015-09-27T07:34:06.000Z</time>
      </trkpt>
      <trkpt lat="47.49091" lon="6.76057">
        <ele>326</ele>
        <time>2015-09-27T07:34:07.000Z</time>
      </trkpt>
      <trkpt lat="47.49092" lon="6.76051">
        <ele>326</ele>
        <time>2015-09-27T07:34:08.000Z</time>
      </trkpt>
      <trkpt lat="47.49094" lon="6.76046">
        <ele>326</ele>
        <time>2015-09-27T07:34:09.000Z</time>
      </trkpt>
      <trkpt lat="47.49096" lon="6.7604">
        <ele>326</ele>
        <time>2015-09-27T07:34:10.000Z</time>
      </trkpt>
      <trkpt lat="47.49097" lon="6.76034">
        <ele>327</ele>
        <time>2015-09-27T07:34:11.000Z</time>
      </trkpt>
      <trkpt lat="47.49099" lon="6.76028">
        <ele>327</ele>
        <time>2015-09-27T07:34:12.000Z</time>
      </trkpt>
      <trkpt lat="47.491" lon="6.76023">
        <ele>327</ele>
        <time>2015-09-27T07:34:13.000Z</time>
      </trkpt>
      <trkpt lat="47.49101" lon="6.76017">
        <ele>328</ele>
        <time>2015-09-27T07:34:14.000Z</time>
      </trkpt>
      <trkpt lat="47.49103" lon="6.76011">
        <ele>328</ele>
        <time>2015-09-27T07:34:15.000Z</time>
      </trkpt>
      <trkpt lat="47.49104" lon="6.76006">
        <ele>328</ele>
        <time>2015-09-27T07:34:16.000Z</time>
      </trkpt>
      <trkpt lat="47.49105" lon="6.76">
        <ele>328</ele>
        <time>2015-09-27T07:34:17.000Z</time>
      </trkpt>
      <trkpt lat="47.49106" lon="6.75995">
        <ele>330</ele>
        <time>2015-09-27T07:34:18.000Z</time>
      </trkpt>
      <trkpt lat="47.49106" lon="6.75989">
        <ele>330</ele>
        <time>2015-09-27T07:34:19.000Z</time>
      </trkpt>
      <trkpt lat="47.49107" lon="6.75984">
        <ele>329</ele>
        <time>2015-09-27T07:34:20.000Z</time>
      </trkpt>
      <trkpt lat="47.49108" lon="6.75978">
        <ele>329</ele>
        <time>2015-09-27T07:34:21.000Z</time>
      </trkpt>
      <trkpt lat="47.4911" lon="6.75972">
        <ele>329</ele>
        <time>2015-09-27T07:34:22.000Z</time>
      </trkpt>
      <trkpt lat="47.49112" lon="6.75967">
        <ele>329</ele>
        <time>2015-09-27T07:34:23.000Z</time>
      </trkpt>
      <trkpt lat="47.49113" lon="6.75961">
        <ele>329</ele>
        <time>2015-09-27T07:34:24.000Z</time>
      </trkpt>
      <trkpt lat="47.49115" lon="6.75955">
        <ele>329</ele>
        <time>2015-09-27T07:34:25.000Z</time>
      </trkpt>
      <trkpt lat="47.49117" lon="6.75949">
        <ele>329</ele>
        <time>2015-09-27T07:34:26.000Z</time>
      </trkpt>
      <trkpt lat="47.49118" lon="6.75943">
        <ele>329</ele>
        <time>2015-09-27T07:34:27.000Z</time>
      </trkpt>
      <trkpt lat="47.4912" lon="6.75937">
        <ele>329</ele>
        <time>2015-09-27T07:34:28.000Z</time>
      </trkpt>
      <trkpt lat="47.49121" lon="6.75932">
        <ele>329</ele>
        <time>2015-09-27T07:34:29.000Z</time>
      </trkpt>
      <trkpt lat="47.49122" lon="6.75927">
        <ele>329</ele>
        <time>2015-09-27T07:34:30.000Z</time>
      </trkpt>
      <trkpt lat="47.49123" lon="6.75922">
        <ele>329</ele>
        <time>2015-09-27T07:34:31.000Z</time>
      </trkpt>
      <trkpt lat="47.49125" lon="6.75917">
        <ele>329</ele>
        <time>2015-09-27T07:34:32.000Z</time>
      </trkpt>
      <trkpt lat="47.49126" lon="6.75912">
        <ele>332</ele>
        <time>2015-09-27T07:34:33.000Z</time>
      </trkpt>
      <trkpt lat="47.49127" lon="6.75907">
        <ele>332</ele>
        <time>2015-09-27T07:34:34.000Z</time>
      </trkpt>
      <trkpt lat="47.49129" lon="6.75901">
        <ele>332</ele>
        <time>2015-09-27T07:34:35.000Z</time>
      </trkpt>
      <trkpt lat="47.49131" lon="6.75895">
        <ele>332</ele>
        <time>2015-09-27T07:34:36.000Z</time>
      </trkpt>
      <trkpt lat="47.49133" lon="6.75889">
        <ele>332</ele>
        <time>2015-09-27T07:34:37.000Z</time>
      </trkpt>
      <trkpt lat="47.49134" lon="6.75882">
        <ele>332</ele>
        <time>2015-09-27T07:34:38.000Z</time>
      </trkpt>
      <trkpt lat="47.49136" lon="6.75876">
        <ele>332</ele>
        <time>2015-09-27T07:34:39.000Z</time>
      </trkpt>
      <trkpt lat="47.49137" lon="6.7587">
        <ele>332</ele>
        <time>2015-09-27T07:34:40.000Z</time>
      </trkpt>
      <trkpt lat="47.49139" lon="6.75864">
        <ele>332</ele>
        <time>2015-09-27T07:34:41.000Z</time>
      </trkpt>
      <trkpt lat="47.4914" lon="6.75859">
        <ele>332</ele>
        <time>2015-09-27T07:34:41.998Z</time>
      </trkpt>
      <trkpt lat="47.49143" lon="6.7585">
        <ele>331</ele>
        <time>2015-09-27T07:34:43.000Z</time>
      </trkpt>
      <trkpt lat="47.49145" lon="6.75843">
        <ele>331</ele>
        <time>2015-09-27T07:34:44.000Z</time>
      </trkpt>
      <trkpt lat="47.49148" lon="6.75835">
        <ele>330</ele>
        <time>2015-09-27T07:34:45.000Z</time>
      </trkpt>
      <trkpt lat="47.4915" lon="6.75827">
        <ele>333</ele>
        <time>2015-09-27T07:34:46.000Z</time>
      </trkpt>
      <trkpt lat="47.49152" lon="6.75819">
        <ele>334</ele>
        <time>2015-09-27T07:34:47.000Z</time>
      </trkpt>
      <trkpt lat="47.49154" lon="6.75811">
        <ele>335</ele>
        <time>2015-09-27T07:34:48.000Z</time>
      </trkpt>
      <trkpt lat="47.49157" lon="6.75803">
        <ele>335</ele>
        <time>2015-09-27T07:34:49.000Z</time>
      </trkpt>
      <trkpt lat="47.49159" lon="6.75795">
        <ele>336</ele>
        <time>2015-09-27T07:34:50.000Z</time>
      </trkpt>
      <trkpt lat="47.49166" lon="6.75777">
        <ele>337</ele>
        <time>2015-09-27T07:34:51.000Z</time>
      </trkpt>
      <trkpt lat="47.49169" lon="6.75768">
        <ele>329</ele>
        <time>2015-09-27T07:34:52.000Z</time>
      </trkpt>
      <trkpt lat="47.49172" lon="6.7576">
        <ele>331</ele>
        <time>2015-09-27T07:34:53.000Z</time>
      </trkpt>
      <trkpt lat="47.49173" lon="6.75751">
        <ele>332</ele>
        <time>2015-09-27T07:34:54.000Z</time>
      </trkpt>
      <trkpt lat="47.49176" lon="6.75742">
        <ele>334</ele>
        <time>2015-09-27T07:34:55.000Z</time>
      </trkpt>
      <trkpt lat="47.49178" lon="6.75735">
        <ele>333</ele>
        <time>2015-09-27T07:34:56.000Z</time>
      </trkpt>
      <trkpt lat="47.49179" lon="6.7573">
        <ele>333</ele>
        <time>2015-09-27T07:34:57.000Z</time>
      </trkpt>
      <trkpt lat="47.4918" lon="6.75722">
        <ele>333</ele>
        <time>2015-09-27T07:34:58.000Z</time>
      </trkpt>
      <trkpt lat="47.49183" lon="6.75716">
        <ele>334</ele>
        <time>2015-09-27T07:34:59.000Z</time>
      </trkpt>
      <trkpt lat="47.49185" lon="6.7571">
        <ele>334</ele>
        <time>2015-09-27T07:35:00.000Z</time>
      </trkpt>
      <trkpt lat="47.49189" lon="6.75703">
        <ele>334</ele>
        <time>2015-09-27T07:35:01.000Z</time>
      </trkpt>
      <trkpt lat="47.49191" lon="6.75698">
        <ele>334</ele>
        <time>2015-09-27T07:35:02.000Z</time>
      </trkpt>
      <trkpt lat="47.49194" lon="6.75692">
        <ele>334</ele>
        <time>2015-09-27T07:35:03.000Z</time>
      </trkpt>
      <trkpt lat="47.49196" lon="6.75687">
        <ele>335</ele>
        <time>2015-09-27T07:35:04.000Z</time>
      </trkpt>
      <trkpt lat="47.49197" lon="6.75682">
        <ele>335</ele>
        <time>2015-09-27T07:35:05.000Z</time>
      </trkpt>
      <trkpt lat="47.49199" lon="6.75676">
        <ele>335</ele>
        <time>2015-09-27T07:35:06.000Z</time>
      </trkpt>
      <trkpt lat="47.49199" lon="6.75671">
        <ele>335</ele>
        <time>2015-09-27T07:35:07.000Z</time>
      </trkpt>
      <trkpt lat="47.492" lon="6.75666">
        <ele>340</ele>
        <time>2015-09-27T07:35:08.000Z</time>
      </trkpt>
      <trkpt lat="47.49201" lon="6.75662">
        <ele>340</ele>
        <time>2015-09-27T07:35:09.000Z</time>
      </trkpt>
      <trkpt lat="47.49201" lon="6.75657">
        <ele>340</ele>
        <time>2015-09-27T07:35:10.000Z</time>
      </trkpt>
      <trkpt lat="47.49202" lon="6.75653">
        <ele>340</ele>
        <time>2015-09-27T07:35:11.000Z</time>
      </trkpt>
      <trkpt lat="47.49203" lon="6.75648">
        <ele>340</ele>
        <time>2015-09-27T07:35:12.000Z</time>
      </trkpt>
      <trkpt lat="47.49204" lon="6.75643">
        <ele>340</ele>
        <time>2015-09-27T07:35:13.000Z</time>
      </trkpt>
      <trkpt lat="47.49205" lon="6.75638">
        <ele>340</ele>
        <time>2015-09-27T07:35:14.000Z</time>
      </trkpt>
      <trkpt lat="47.49205" lon="6.75632">
        <ele>340</ele>
        <time>2015-09-27T07:35:15.000Z</time>
      </trkpt>
      <trkpt lat="47.49207" lon="6.75627">
        <ele>340</ele>
        <time>2015-09-27T07:35:16.000Z</time>
      </trkpt>
      <trkpt lat="47.49208" lon="6.75622">
        <ele>340</ele>
        <time>2015-09-27T07:35:17.000Z</time>
      </trkpt>
      <trkpt lat="47.49209" lon="6.75616">
        <ele>340</ele>
        <time>2015-09-27T07:35:18.000Z</time>
      </trkpt>
      <trkpt lat="47.4921" lon="6.75611">
        <ele>340</ele>
        <time>2015-09-27T07:35:19.000Z</time>
      </trkpt>
      <trkpt lat="47.49212" lon="6.75606">
        <ele>340</ele>
        <time>2015-09-27T07:35:20.000Z</time>
      </trkpt>
      <trkpt lat="47.49213" lon="6.75601">
        <ele>340</ele>
        <time>2015-09-27T07:35:21.000Z</time>
      </trkpt>
      <trkpt lat="47.49214" lon="6.75595">
        <ele>340</ele>
        <time>2015-09-27T07:35:22.000Z</time>
      </trkpt>
      <trkpt lat="47.49216" lon="6.7559">
        <ele>340</ele>
        <time>2015-09-27T07:35:23.000Z</time>
      </trkpt>
      <trkpt lat="47.49217" lon="6.75585">
        <ele>340</ele>
        <time>2015-09-27T07:35:24.000Z</time>
      </trkpt>
      <trkpt lat="47.49218" lon="6.75579">
        <ele>344</ele>
        <time>2015-09-27T07:35:25.000Z</time>
      </trkpt>
      <trkpt lat="47.4922" lon="6.75573">
        <ele>344</ele>
        <time>2015-09-27T07:35:26.000Z</time>
      </trkpt>
      <trkpt lat="47.49222" lon="6.75567">
        <ele>344</ele>
        <time>2015-09-27T07:35:27.000Z</time>
      </trkpt>
      <trkpt lat="47.49223" lon="6.75561">
        <ele>344</ele>
        <time>2015-09-27T07:35:28.000Z</time>
      </trkpt>
      <trkpt lat="47.49224" lon="6.75555">
        <ele>344</ele>
        <time>2015-09-27T07:35:29.000Z</time>
      </trkpt>
      <trkpt lat="47.49225" lon="6.75549">
        <ele>345</ele>
        <time>2015-09-27T07:35:30.000Z</time>
      </trkpt>
      <trkpt lat="47.49226" lon="6.75544">
        <ele>345</ele>
        <time>2015-09-27T07:35:31.000Z</time>
      </trkpt>
      <trkpt lat="47.49228" lon="6.75538">
        <ele>345</ele>
        <time>2015-09-27T07:35:32.000Z</time>
      </trkpt>
      <trkpt lat="47.49229" lon="6.75533">
        <ele>345</ele>
        <time>2015-09-27T07:35:33.000Z</time>
      </trkpt>
      <trkpt lat="47.4923" lon="6.75528">
        <ele>345</ele>
        <time>2015-09-27T07:35:34.000Z</time>
      </trkpt>
      <trkpt lat="47.49231" lon="6.75523">
        <ele>345</ele>
        <time>2015-09-27T07:35:35.000Z</time>
      </trkpt>
      <trkpt lat="47.49232" lon="6.75519">
        <ele>344</ele>
        <time>2015-09-27T07:35:36.000Z</time>
      </trkpt>
      <trkpt lat="47.49233" lon="6.75515">
        <ele>344</ele>
        <time>2015-09-27T07:35:37.000Z</time>
      </trkpt>
      <trkpt lat="47.49233" lon="6.7551">
        <ele>344</ele>
        <time>2015-09-27T07:35:38.000Z</time>
      </trkpt>
      <trkpt lat="47.49234" lon="6.75504">
        <ele>343</ele>
        <time>2015-09-27T07:35:39.000Z</time>
      </trkpt>
      <trkpt lat="47.49235" lon="6.75498">
        <ele>346</ele>
        <time>2015-09-27T07:35:40.000Z</time>
      </trkpt>
      <trkpt lat="47.49235" lon="6.75492">
        <ele>346</ele>
        <time>2015-09-27T07:35:41.000Z</time>
      </trkpt>
      <trkpt lat="47.49236" lon="6.75487">
        <ele>347</ele>
        <time>2015-09-27T07:35:42.000Z</time>
      </trkpt>
      <trkpt lat="47.49237" lon="6.75481">
        <ele>348</ele>
        <time>2015-09-27T07:35:43.000Z</time>
      </trkpt>
      <trkpt lat="47.49237" lon="6.75476">
        <ele>348</ele>
        <time>2015-09-27T07:35:44.000Z</time>
      </trkpt>
      <trkpt lat="47.49238" lon="6.7547">
        <ele>349</ele>
        <time>2015-09-27T07:35:45.000Z</time>
      </trkpt>
      <trkpt lat="47.49239" lon="6.75464">
        <ele>349</ele>
        <time>2015-09-27T07:35:46.000Z</time>
      </trkpt>
      <trkpt lat="47.4924" lon="6.75457">
        <ele>350</ele>
        <time>2015-09-27T07:35:47.000Z</time>
      </trkpt>
      <trkpt lat="47.49241" lon="6.7545">
        <ele>350</ele>
        <time>2015-09-27T07:35:48.000Z</time>
      </trkpt>
      <trkpt lat="47.49243" lon="6.75443">
        <ele>349</ele>
        <time>2015-09-27T07:35:49.000Z</time>
      </trkpt>
      <trkpt lat="47.49245" lon="6.75434">
        <ele>348</ele>
        <time>2015-09-27T07:35:50.000Z</time>
      </trkpt>
      <trkpt lat="47.49247" lon="6.75425">
        <ele>347</ele>
        <time>2015-09-27T07:35:51.000Z</time>
      </trkpt>
      <trkpt lat="47.49249" lon="6.75417">
        <ele>345</ele>
        <time>2015-09-27T07:35:52.000Z</time>
      </trkpt>
      <trkpt lat="47.4925" lon="6.7541">
        <ele>343</ele>
        <time>2015-09-27T07:35:53.000Z</time>
      </trkpt>
      <trkpt lat="47.49251" lon="6.75404">
        <ele>342</ele>
        <time>2015-09-27T07:35:54.000Z</time>
      </trkpt>
      <trkpt lat="47.49253" lon="6.75397">
        <ele>341</ele>
        <time>2015-09-27T07:35:55.000Z</time>
      </trkpt>
      <trkpt lat="47.49254" lon="6.75392">
        <ele>341</ele>
        <time>2015-09-27T07:35:56.000Z</time>
      </trkpt>
      <trkpt lat="47.49255" lon="6.75388">
        <ele>341</ele>
        <time>2015-09-27T07:35:57.000Z</time>
      </trkpt>
      <trkpt lat="47.49256" lon="6.75383">
        <ele>341</ele>
        <time>2015-09-27T07:35:58.000Z</time>
      </trkpt>
      <trkpt lat="47.49257" lon="6.75379">
        <ele>341</ele>
        <time>2015-09-27T07:35:59.000Z</time>
      </trkpt>
      <trkpt lat="47.49257" lon="6.75374">
        <ele>341</ele>
        <time>2015-09-27T07:36:00.000Z</time>
      </trkpt>
      <trkpt lat="47.49258" lon="6.75369">
        <ele>341</ele>
        <time>2015-09-27T07:36:01.000Z</time>
      </trkpt>
      <trkpt lat="47.49259" lon="6.75363">
        <ele>341</ele>
        <time>2015-09-27T07:36:02.000Z</time>
      </trkpt>
      <trkpt lat="47.4926" lon="6.75358">
        <ele>342</ele>
        <time>2015-09-27T07:36:03.000Z</time>
      </trkpt>
      <trkpt lat="47.49261" lon="6.75352">
        <ele>342</ele>
        <time>2015-09-27T07:36:04.000Z</time>
      </trkpt>
      <trkpt lat="47.49262" lon="6.75346">
        <ele>343</ele>
        <time>2015-09-27T07:36:05.000Z</time>
      </trkpt>
      <trkpt lat="47.49263" lon="6.7534">
        <ele>344</ele>
        <time>2015-09-27T07:36:06.000Z</time>
      </trkpt>
      <trkpt lat="47.49264" lon="6.75335">
        <ele>344</ele>
        <time>2015-09-27T07:36:07.000Z</time>
      </trkpt>
      <trkpt lat="47.49265" lon="6.75329">
        <ele>344</ele>
        <time>2015-09-27T07:36:08.000Z</time>
      </trkpt>
      <trkpt lat="47.49265" lon="6.75324">
        <ele>344</ele>
        <time>2015-09-27T07:36:09.000Z</time>
      </trkpt>
      <trkpt lat="47.49266" lon="6.75318">
        <ele>343</ele>
        <time>2015-09-27T07:36:10.000Z</time>
      </trkpt>
      <trkpt lat="47.49266" lon="6.75314">
        <ele>343</ele>
        <time>2015-09-27T07:36:11.000Z</time>
      </trkpt>
      <trkpt lat="47.49267" lon="6.75308">
        <ele>342</ele>
        <time>2015-09-27T07:36:12.000Z</time>
      </trkpt>
      <trkpt lat="47.49268" lon="6.75302">
        <ele>342</ele>
        <time>2015-09-27T07:36:13.000Z</time>
      </trkpt>
      <trkpt lat="47.49268" lon="6.75296">
        <ele>342</ele>
        <time>2015-09-27T07:36:14.000Z</time>
      </trkpt>
      <trkpt lat="47.49269" lon="6.7529">
        <ele>342</ele>
        <time>2015-09-27T07:36:15.000Z</time>
      </trkpt>
      <trkpt lat="47.49269" lon="6.75285">
        <ele>342</ele>
        <time>2015-09-27T07:36:16.000Z</time>
      </trkpt>
      <trkpt lat="47.4927" lon="6.7528">
        <ele>342</ele>
        <time>2015-09-27T07:36:17.000Z</time>
      </trkpt>
      <trkpt lat="47.4927" lon="6.75275">
        <ele>342</ele>
        <time>2015-09-27T07:36:18.000Z</time>
      </trkpt>
      <trkpt lat="47.4927" lon="6.75271">
        <ele>343</ele>
        <time>2015-09-27T07:36:19.000Z</time>
      </trkpt>
      <trkpt lat="47.4927" lon="6.75266">
        <ele>343</ele>
        <time>2015-09-27T07:36:20.000Z</time>
      </trkpt>
      <trkpt lat="47.4927" lon="6.75261">
        <ele>343</ele>
        <time>2015-09-27T07:36:21.000Z</time>
      </trkpt>
      <trkpt lat="47.4927" lon="6.75256">
        <ele>343</ele>
        <time>2015-09-27T07:36:22.000Z</time>
      </trkpt>
      <trkpt lat="47.49271" lon="6.75251">
        <ele>344</ele>
        <time>2015-09-27T07:36:23.000Z</time>
      </trkpt>
      <trkpt lat="47.49271" lon="6.75246">
        <ele>345</ele>
        <time>2015-09-27T07:36:24.000Z</time>
      </trkpt>
      <trkpt lat="47.49271" lon="6.7524">
        <ele>345</ele>
        <time>2015-09-27T07:36:25.000Z</time>
      </trkpt>
      <trkpt lat="47.49272" lon="6.75234">
        <ele>345</ele>
        <time>2015-09-27T07:36:26.000Z</time>
      </trkpt>
      <trkpt lat="47.49272" lon="6.75228">
        <ele>345</ele>
        <time>2015-09-27T07:36:27.000Z</time>
      </trkpt>
      <trkpt lat="47.49273" lon="6.75223">
        <ele>345</ele>
        <time>2015-09-27T07:36:28.000Z</time>
      </trkpt>
      <trkpt lat="47.49273" lon="6.75218">
        <ele>345</ele>
        <time>2015-09-27T07:36:29.000Z</time>
      </trkpt>
      <trkpt lat="47.49274" lon="6.75213">
        <ele>345</ele>
        <time>2015-09-27T07:36:30.000Z</time>
      </trkpt>
      <trkpt lat="47.49274" lon="6.75209">
        <ele>345</ele>
        <time>2015-09-27T07:36:31.000Z</time>
      </trkpt>
      <trkpt lat="47.49274" lon="6.75204">
        <ele>345</ele>
        <time>2015-09-27T07:36:32.000Z</time>
      </trkpt>
      <trkpt lat="47.49274" lon="6.75198">
        <ele>345</ele>
        <time>2015-09-27T07:36:33.000Z</time>
      </trkpt>
      <trkpt lat="47.49274" lon="6.75192">
        <ele>346</ele>
        <time>2015-09-27T07:36:34.000Z</time>
      </trkpt>
      <trkpt lat="47.49274" lon="6.75186">
        <ele>346</ele>
        <time>2015-09-27T07:36:35.000Z</time>
      </trkpt>
      <trkpt lat="47.49274" lon="6.75181">
        <ele>346</ele>
        <time>2015-09-27T07:36:36.000Z</time>
      </trkpt>
      <trkpt lat="47.49273" lon="6.75176">
        <ele>347</ele>
        <time>2015-09-27T07:36:37.000Z</time>
      </trkpt>
      <trkpt lat="47.49273" lon="6.75171">
        <ele>347</ele>
        <time>2015-09-27T07:36:38.000Z</time>
      </trkpt>
      <trkpt lat="47.49273" lon="6.75166">
        <ele>349</ele>
        <time>2015-09-27T07:36:39.000Z</time>
      </trkpt>
      <trkpt lat="47.49273" lon="6.7516">
        <ele>349</ele>
        <time>2015-09-27T07:36:40.000Z</time>
      </trkpt>
      <trkpt lat="47.49273" lon="6.75155">
        <ele>349</ele>
        <time>2015-09-27T07:36:41.000Z</time>
      </trkpt>
      <trkpt lat="47.49272" lon="6.75148">
        <ele>349</ele>
        <time>2015-09-27T07:36:42.000Z</time>
      </trkpt>
      <trkpt lat="47.49273" lon="6.75141">
        <ele>349</ele>
        <time>2015-09-27T07:36:43.000Z</time>
      </trkpt>
      <trkpt lat="47.49273" lon="6.75135">
        <ele>349</ele>
        <time>2015-09-27T07:36:44.000Z</time>
      </trkpt>
      <trkpt lat="47.49274" lon="6.75129">
        <ele>349</ele>
        <time>2015-09-27T07:36:45.000Z</time>
      </trkpt>
      <trkpt lat="47.49275" lon="6.75123">
        <ele>349</ele>
        <time>2015-09-27T07:36:46.000Z</time>
      </trkpt>
      <trkpt lat="47.49275" lon="6.75118">
        <ele>349</ele>
        <time>2015-09-27T07:36:47.000Z</time>
      </trkpt>
      <trkpt lat="47.49276" lon="6.75112">
        <ele>349</ele>
        <time>2015-09-27T07:36:48.000Z</time>
      </trkpt>
      <trkpt lat="47.49277" lon="6.75105">
        <ele>349</ele>
        <time>2015-09-27T07:36:49.000Z</time>
      </trkpt>
      <trkpt lat="47.4928" lon="6.75097">
        <ele>350</ele>
        <time>2015-09-27T07:36:50.000Z</time>
      </trkpt>
      <trkpt lat="47.49282" lon="6.75088">
        <ele>349</ele>
        <time>2015-09-27T07:36:51.000Z</time>
      </trkpt>
      <trkpt lat="47.49285" lon="6.75079">
        <ele>351</ele>
        <time>2015-09-27T07:36:52.000Z</time>
      </trkpt>
      <trkpt lat="47.49289" lon="6.75071">
        <ele>351</ele>
        <time>2015-09-27T07:36:53.000Z</time>
      </trkpt>
      <trkpt lat="47.49292" lon="6.75064">
        <ele>350</ele>
        <time>2015-09-27T07:36:54.000Z</time>
      </trkpt>
      <trkpt lat="47.49295" lon="6.75058">
        <ele>350</ele>
        <time>2015-09-27T07:36:55.000Z</time>
      </trkpt>
      <trkpt lat="47.49299" lon="6.75051">
        <ele>350</ele>
        <time>2015-09-27T07:36:56.000Z</time>
      </trkpt>
      <trkpt lat="47.49301" lon="6.75044">
        <ele>350</ele>
        <time>2015-09-27T07:36:57.000Z</time>
      </trkpt>
      <trkpt lat="47.49303" lon="6.75037">
        <ele>350</ele>
        <time>2015-09-27T07:36:58.000Z</time>
      </trkpt>
      <trkpt lat="47.49304" lon="6.7503">
        <ele>350</ele>
        <time>2015-09-27T07:36:59.000Z</time>
      </trkpt>
      <trkpt lat="47.49305" lon="6.75024">
        <ele>349</ele>
        <time>2015-09-27T07:37:00.000Z</time>
      </trkpt>
      <trkpt lat="47.49305" lon="6.75019">
        <ele>349</ele>
        <time>2015-09-27T07:37:01.000Z</time>
      </trkpt>
      <trkpt lat="47.49305" lon="6.75015">
        <ele>349</ele>
        <time>2015-09-27T07:37:02.000Z</time>
      </trkpt>
      <trkpt lat="47.49306" lon="6.75012">
        <ele>349</ele>
        <time>2015-09-27T07:37:03.000Z</time>
      </trkpt>
      <trkpt lat="47.49307" lon="6.75006">
        <ele>349</ele>
        <time>2015-09-27T07:37:05.000Z</time>
      </trkpt>
      <trkpt lat="47.49308" lon="6.75003">
        <ele>349</ele>
        <time>2015-09-27T07:37:06.000Z</time>
      </trkpt>
      <trkpt lat="47.49309" lon="6.74998">
        <ele>351</ele>
        <time>2015-09-27T07:37:08.000Z</time>
      </trkpt>
      <trkpt lat="47.49309" lon="6.74996">
        <ele>351</ele>
        <time>2015-09-27T07:37:09.000Z</time>
      </trkpt>
      <trkpt lat="47.49309" lon="6.7499">
        <ele>352</ele>
        <time>2015-09-27T07:37:11.000Z</time>
      </trkpt>
      <trkpt lat="47.4931" lon="6.74987">
        <ele>352</ele>
        <time>2015-09-27T07:37:12.000Z</time>
      </trkpt>
      <trkpt lat="47.4931" lon="6.74981">
        <ele>352</ele>
        <time>2015-09-27T07:37:14.000Z</time>
      </trkpt>
      <trkpt lat="47.49311" lon="6.74978">
        <ele>352</ele>
        <time>2015-09-27T07:37:15.000Z</time>
      </trkpt>
      <trkpt lat="47.49312" lon="6.74973">
        <ele>353</ele>
        <time>2015-09-27T07:37:17.000Z</time>
      </trkpt>
      <trkpt lat="47.49312" lon="6.74971">
        <ele>353</ele>
        <time>2015-09-27T07:37:18.000Z</time>
      </trkpt>
      <trkpt lat="47.49313" lon="6.74967">
        <ele>353</ele>
        <time>2015-09-27T07:37:19.000Z</time>
      </trkpt>
      <trkpt lat="47.49313" lon="6.74964">
        <ele>353</ele>
        <time>2015-09-27T07:37:20.000Z</time>
      </trkpt>
      <trkpt lat="47.49314" lon="6.7496">
        <ele>353</ele>
        <time>2015-09-27T07:37:21.000Z</time>
      </trkpt>
      <trkpt lat="47.49315" lon="6.74956">
        <ele>353</ele>
        <time>2015-09-27T07:37:22.000Z</time>
      </trkpt>
      <trkpt lat="47.49316" lon="6.74952">
        <ele>353</ele>
        <time>2015-09-27T07:37:23.000Z</time>
      </trkpt>
      <trkpt lat="47.49317" lon="6.74948">
        <ele>353</ele>
        <time>2015-09-27T07:37:24.000Z</time>
      </trkpt>
      <trkpt lat="47.49317" lon="6.74944">
        <ele>353</ele>
        <time>2015-09-27T07:37:25.000Z</time>
      </trkpt>
      <trkpt lat="47.49317" lon="6.7494">
        <ele>353</ele>
        <time>2015-09-27T07:37:26.000Z</time>
      </trkpt>
      <trkpt lat="47.49317" lon="6.74937">
        <ele>353</ele>
        <time>2015-09-27T07:37:27.000Z</time>
      </trkpt>
      <trkpt lat="47.49316" lon="6.74933">
        <ele>353</ele>
        <time>2015-09-27T07:37:28.000Z</time>
      </trkpt>
      <trkpt lat="47.49316" lon="6.74929">
        <ele>353</ele>
        <time>2015-09-27T07:37:29.000Z</time>
      </trkpt>
      <trkpt lat="47.49315" lon="6.74926">
        <ele>353</ele>
        <time>2015-09-27T07:37:30.000Z</time>
      </trkpt>
      <trkpt lat="47.49315" lon="6.74922">
        <ele>353</ele>
        <time>2015-09-27T07:37:31.000Z</time>
      </trkpt>
      <trkpt lat="47.49315" lon="6.74918">
        <ele>353</ele>
        <time>2015-09-27T07:37:32.000Z</time>
      </trkpt>
      <trkpt lat="47.49314" lon="6.74912">
        <ele>355</ele>
        <time>2015-09-27T07:37:34.000Z</time>
      </trkpt>
      <trkpt lat="47.49314" lon="6.74909">
        <ele>355</ele>
        <time>2015-09-27T07:37:35.000Z</time>
      </trkpt>
      <trkpt lat="47.49314" lon="6.74903">
        <ele>355</ele>
        <time>2015-09-27T07:37:37.000Z</time>
      </trkpt>
      <trkpt lat="47.49314" lon="6.749">
        <ele>356</ele>
        <time>2015-09-27T07:37:38.000Z</time>
      </trkpt>
      <trkpt lat="47.49314" lon="6.74896">
        <ele>356</ele>
        <time>2015-09-27T07:37:39.000Z</time>
      </trkpt>
      <trkpt lat="47.49314" lon="6.74893">
        <ele>356</ele>
        <time>2015-09-27T07:37:40.000Z</time>
      </trkpt>
      <trkpt lat="47.49314" lon="6.74887">
        <ele>357</ele>
        <time>2015-09-27T07:37:42.000Z</time>
      </trkpt>
      <trkpt lat="47.49313" lon="6.74883">
        <ele>357</ele>
        <time>2015-09-27T07:37:43.000Z</time>
      </trkpt>
      <trkpt lat="47.49314" lon="6.74878">
        <ele>357</ele>
        <time>2015-09-27T07:37:44.000Z</time>
      </trkpt>
      <trkpt lat="47.49314" lon="6.74873">
        <ele>357</ele>
        <time>2015-09-27T07:37:45.000Z</time>
      </trkpt>
      <trkpt lat="47.49315" lon="6.74867">
        <ele>357</ele>
        <time>2015-09-27T07:37:46.000Z</time>
      </trkpt>
      <trkpt lat="47.49315" lon="6.74862">
        <ele>357</ele>
        <time>2015-09-27T07:37:47.000Z</time>
      </trkpt>
      <trkpt lat="47.49315" lon="6.74858">
        <ele>356</ele>
        <time>2015-09-27T07:37:48.000Z</time>
      </trkpt>
      <trkpt lat="47.49315" lon="6.74854">
        <ele>356</ele>
        <time>2015-09-27T07:37:49.000Z</time>
      </trkpt>
      <trkpt lat="47.49315" lon="6.7485">
        <ele>356</ele>
        <time>2015-09-27T07:37:50.000Z</time>
      </trkpt>
      <trkpt lat="47.49315" lon="6.74846">
        <ele>356</ele>
        <time>2015-09-27T07:37:51.000Z</time>
      </trkpt>
      <trkpt lat="47.49315" lon="6.74842">
        <ele>355</ele>
        <time>2015-09-27T07:37:52.000Z</time>
      </trkpt>
      <trkpt lat="47.49315" lon="6.74837">
        <ele>355</ele>
        <time>2015-09-27T07:37:53.000Z</time>
      </trkpt>
      <trkpt lat="47.49315" lon="6.74832">
        <ele>357</ele>
        <time>2015-09-27T07:37:54.000Z</time>
      </trkpt>
      <trkpt lat="47.49316" lon="6.74826">
        <ele>357</ele>
        <time>2015-09-27T07:37:55.000Z</time>
      </trkpt>
      <trkpt lat="47.49316" lon="6.74821">
        <ele>358</ele>
        <time>2015-09-27T07:37:56.000Z</time>
      </trkpt>
      <trkpt lat="47.49317" lon="6.74815">
        <ele>358</ele>
        <time>2015-09-27T07:37:57.000Z</time>
      </trkpt>
      <trkpt lat="47.49317" lon="6.7481">
        <ele>359</ele>
        <time>2015-09-27T07:37:58.000Z</time>
      </trkpt>
      <trkpt lat="47.49318" lon="6.74805">
        <ele>359</ele>
        <time>2015-09-27T07:37:59.000Z</time>
      </trkpt>
      <trkpt lat="47.49318" lon="6.74801">
        <ele>360</ele>
        <time>2015-09-27T07:38:00.000Z</time>
      </trkpt>
      <trkpt lat="47.49318" lon="6.74796">
        <ele>360</ele>
        <time>2015-09-27T07:38:01.000Z</time>
      </trkpt>
      <trkpt lat="47.49319" lon="6.74791">
        <ele>360</ele>
        <time>2015-09-27T07:38:02.000Z</time>
      </trkpt>
      <trkpt lat="47.49319" lon="6.74787">
        <ele>360</ele>
        <time>2015-09-27T07:38:03.000Z</time>
      </trkpt>
      <trkpt lat="47.4932" lon="6.74782">
        <ele>360</ele>
        <time>2015-09-27T07:38:04.000Z</time>
      </trkpt>
      <trkpt lat="47.4932" lon="6.74777">
        <ele>360</ele>
        <time>2015-09-27T07:38:05.000Z</time>
      </trkpt>
      <trkpt lat="47.4932" lon="6.74771">
        <ele>360</ele>
        <time>2015-09-27T07:38:06.000Z</time>
      </trkpt>
      <trkpt lat="47.4932" lon="6.74766">
        <ele>359</ele>
        <time>2015-09-27T07:38:07.000Z</time>
      </trkpt>
      <trkpt lat="47.49321" lon="6.74761">
        <ele>359</ele>
        <time>2015-09-27T07:38:08.000Z</time>
      </trkpt>
      <trkpt lat="47.49321" lon="6.74756">
        <ele>358</ele>
        <time>2015-09-27T07:38:09.000Z</time>
      </trkpt>
      <trkpt lat="47.49322" lon="6.74752">
        <ele>358</ele>
        <time>2015-09-27T07:38:10.000Z</time>
      </trkpt>
      <trkpt lat="47.49323" lon="6.74748">
        <ele>359</ele>
        <time>2015-09-27T07:38:11.000Z</time>
      </trkpt>
      <trkpt lat="47.49322" lon="6.74743">
        <ele>360</ele>
        <time>2015-09-27T07:38:12.000Z</time>
      </trkpt>
      <trkpt lat="47.49321" lon="6.74738">
        <ele>361</ele>
        <time>2015-09-27T07:38:13.000Z</time>
      </trkpt>
      <trkpt lat="47.49321" lon="6.74733">
        <ele>362</ele>
        <time>2015-09-27T07:38:14.000Z</time>
      </trkpt>
      <trkpt lat="47.49321" lon="6.74729">
        <ele>363</ele>
        <time>2015-09-27T07:38:15.000Z</time>
      </trkpt>
      <trkpt lat="47.49321" lon="6.74723">
        <ele>364</ele>
        <time>2015-09-27T07:38:17.000Z</time>
      </trkpt>
      <trkpt lat="47.49322" lon="6.7472">
        <ele>364</ele>
        <time>2015-09-27T07:38:18.000Z</time>
      </trkpt>
      <trkpt lat="47.49322" lon="6.74717">
        <ele>365</ele>
        <time>2015-09-27T07:38:19.000Z</time>
      </trkpt>
      <trkpt lat="47.49322" lon="6.74713">
        <ele>365</ele>
        <time>2015-09-27T07:38:20.000Z</time>
      </trkpt>
      <trkpt lat="47.49322" lon="6.74709">
        <ele>365</ele>
        <time>2015-09-27T07:38:21.000Z</time>
      </trkpt>
      <trkpt lat="47.49322" lon="6.74704">
        <ele>365</ele>
        <time>2015-09-27T07:38:22.000Z</time>
      </trkpt>
      <trkpt lat="47.49322" lon="6.74699">
        <ele>365</ele>
        <time>2015-09-27T07:38:23.000Z</time>
      </trkpt>
      <trkpt lat="47.49322" lon="6.74694">
        <ele>365</ele>
        <time>2015-09-27T07:38:24.000Z</time>
      </trkpt>
      <trkpt lat="47.49322" lon="6.7469">
        <ele>365</ele>
        <time>2015-09-27T07:38:25.000Z</time>
      </trkpt>
      <trkpt lat="47.49322" lon="6.74687">
        <ele>365</ele>
        <time>2015-09-27T07:38:26.000Z</time>
      </trkpt>
      <trkpt lat="47.49322" lon="6.74681">
        <ele>365</ele>
        <time>2015-09-27T07:38:28.000Z</time>
      </trkpt>
      <trkpt lat="47.49322" lon="6.74677">
        <ele>364</ele>
        <time>2015-09-27T07:38:29.000Z</time>
      </trkpt>
      <trkpt lat="47.49321" lon="6.74672">
        <ele>364</ele>
        <time>2015-09-27T07:38:30.000Z</time>
      </trkpt>
      <trkpt lat="47.49321" lon="6.74667">
        <ele>364</ele>
        <time>2015-09-27T07:38:31.000Z</time>
      </trkpt>
      <trkpt lat="47.49321" lon="6.74663">
        <ele>365</ele>
        <time>2015-09-27T07:38:32.000Z</time>
      </trkpt>
      <trkpt lat="47.49321" lon="6.74658">
        <ele>365</ele>
        <time>2015-09-27T07:38:33.000Z</time>
      </trkpt>
      <trkpt lat="47.4932" lon="6.74655">
        <ele>366</ele>
        <time>2015-09-27T07:38:34.000Z</time>
      </trkpt>
      <trkpt lat="47.4932" lon="6.74652">
        <ele>366</ele>
        <time>2015-09-27T07:38:35.000Z</time>
      </trkpt>
      <trkpt lat="47.4932" lon="6.74648">
        <ele>367</ele>
        <time>2015-09-27T07:38:36.000Z</time>
      </trkpt>
      <trkpt lat="47.4932" lon="6.74643">
        <ele>367</ele>
        <time>2015-09-27T07:38:37.000Z</time>
      </trkpt>
      <trkpt lat="47.4932" lon="6.74639">
        <ele>368</ele>
        <time>2015-09-27T07:38:38.000Z</time>
      </trkpt>
      <trkpt lat="47.4932" lon="6.74635">
        <ele>368</ele>
        <time>2015-09-27T07:38:39.000Z</time>
      </trkpt>
      <trkpt lat="47.49319" lon="6.74631">
        <ele>368</ele>
        <time>2015-09-27T07:38:40.000Z</time>
      </trkpt>
      <trkpt lat="47.49319" lon="6.74628">
        <ele>368</ele>
        <time>2015-09-27T07:38:41.000Z</time>
      </trkpt>
      <trkpt lat="47.49319" lon="6.74624">
        <ele>368</ele>
        <time>2015-09-27T07:38:42.000Z</time>
      </trkpt>
      <trkpt lat="47.49318" lon="6.74621">
        <ele>368</ele>
        <time>2015-09-27T07:38:43.000Z</time>
      </trkpt>
      <trkpt lat="47.49318" lon="6.74616">
        <ele>368</ele>
        <time>2015-09-27T07:38:44.000Z</time>
      </trkpt>
      <trkpt lat="47.49319" lon="6.74611">
        <ele>368</ele>
        <time>2015-09-27T07:38:45.000Z</time>
      </trkpt>
      <trkpt lat="47.49319" lon="6.74606">
        <ele>368</ele>
        <time>2015-09-27T07:38:46.000Z</time>
      </trkpt>
      <trkpt lat="47.49319" lon="6.74603">
        <ele>367</ele>
        <time>2015-09-27T07:38:47.000Z</time>
      </trkpt>
      <trkpt lat="47.4932" lon="6.74596">
        <ele>366</ele>
        <time>2015-09-27T07:38:48.000Z</time>
      </trkpt>
      <trkpt lat="47.4932" lon="6.74591">
        <ele>366</ele>
        <time>2015-09-27T07:38:49.000Z</time>
      </trkpt>
      <trkpt lat="47.4932" lon="6.74586">
        <ele>365</ele>
        <time>2015-09-27T07:38:50.000Z</time>
      </trkpt>
      <trkpt lat="47.49321" lon="6.74581">
        <ele>365</ele>
        <time>2015-09-27T07:38:51.000Z</time>
      </trkpt>
      <trkpt lat="47.49321" lon="6.74576">
        <ele>366</ele>
        <time>2015-09-27T07:38:52.000Z</time>
      </trkpt>
      <trkpt lat="47.49321" lon="6.74571">
        <ele>366</ele>
        <time>2015-09-27T07:38:53.000Z</time>
      </trkpt>
      <trkpt lat="47.49322" lon="6.74566">
        <ele>367</ele>
        <time>2015-09-27T07:38:54.000Z</time>
      </trkpt>
      <trkpt lat="47.49323" lon="6.74561">
        <ele>368</ele>
        <time>2015-09-27T07:38:55.000Z</time>
      </trkpt>
      <trkpt lat="47.49323" lon="6.74555">
        <ele>368</ele>
        <time>2015-09-27T07:38:56.000Z</time>
      </trkpt>
      <trkpt lat="47.49324" lon="6.74548">
        <ele>369</ele>
        <time>2015-09-27T07:38:57.000Z</time>
      </trkpt>
      <trkpt lat="47.49325" lon="6.74541">
        <ele>369</ele>
        <time>2015-09-27T07:38:58.000Z</time>
      </trkpt>
      <trkpt lat="47.49326" lon="6.74534">
        <ele>369</ele>
        <time>2015-09-27T07:38:59.000Z</time>
      </trkpt>
      <trkpt lat="47.49327" lon="6.74527">
        <ele>368</ele>
        <time>2015-09-27T07:39:00.000Z</time>
      </trkpt>
      <trkpt lat="47.49328" lon="6.74522">
        <ele>368</ele>
        <time>2015-09-27T07:39:01.000Z</time>
      </trkpt>
      <trkpt lat="47.49328" lon="6.74516">
        <ele>367</ele>
        <time>2015-09-27T07:39:02.000Z</time>
      </trkpt>
      <trkpt lat="47.49329" lon="6.74512">
        <ele>366</ele>
        <time>2015-09-27T07:39:03.000Z</time>
      </trkpt>
      <trkpt lat="47.49329" lon="6.74508">
        <ele>365</ele>
        <time>2015-09-27T07:39:04.000Z</time>
      </trkpt>
      <trkpt lat="47.49329" lon="6.74504">
        <ele>364</ele>
        <time>2015-09-27T07:39:05.000Z</time>
      </trkpt>
      <trkpt lat="47.49329" lon="6.745">
        <ele>364</ele>
        <time>2015-09-27T07:39:06.000Z</time>
      </trkpt>
      <trkpt lat="47.49329" lon="6.74496">
        <ele>365</ele>
        <time>2015-09-27T07:39:07.000Z</time>
      </trkpt>
      <trkpt lat="47.49329" lon="6.74492">
        <ele>366</ele>
        <time>2015-09-27T07:39:08.000Z</time>
      </trkpt>
      <trkpt lat="47.49328" lon="6.74486">
        <ele>367</ele>
        <time>2015-09-27T07:39:10.000Z</time>
      </trkpt>
      <trkpt lat="47.49325" lon="6.74479">
        <ele>369</ele>
        <time>2015-09-27T07:39:12.000Z</time>
      </trkpt>
      <trkpt lat="47.49324" lon="6.74476">
        <ele>369</ele>
        <time>2015-09-27T07:39:13.000Z</time>
      </trkpt>
      <trkpt lat="47.49322" lon="6.74472">
        <ele>370</ele>
        <time>2015-09-27T07:39:14.000Z</time>
      </trkpt>
      <trkpt lat="47.49321" lon="6.74469">
        <ele>370</ele>
        <time>2015-09-27T07:39:15.000Z</time>
      </trkpt>
      <trkpt lat="47.49321" lon="6.74464">
        <ele>370</ele>
        <time>2015-09-27T07:39:16.000Z</time>
      </trkpt>
      <trkpt lat="47.4932" lon="6.74458">
        <ele>371</ele>
        <time>2015-09-27T07:39:17.000Z</time>
      </trkpt>
      <trkpt lat="47.4932" lon="6.74451">
        <ele>371</ele>
        <time>2015-09-27T07:39:18.000Z</time>
      </trkpt>
      <trkpt lat="47.4932" lon="6.74445">
        <ele>370</ele>
        <time>2015-09-27T07:39:19.000Z</time>
      </trkpt>
      <trkpt lat="47.4932" lon="6.7444">
        <ele>370</ele>
        <time>2015-09-27T07:39:20.000Z</time>
      </trkpt>
      <trkpt lat="47.49319" lon="6.74435">
        <ele>370</ele>
        <time>2015-09-27T07:39:21.000Z</time>
      </trkpt>
      <trkpt lat="47.49318" lon="6.7443">
        <ele>370</ele>
        <time>2015-09-27T07:39:22.000Z</time>
      </trkpt>
      <trkpt lat="47.49318" lon="6.74425">
        <ele>369</ele>
        <time>2015-09-27T07:39:23.000Z</time>
      </trkpt>
      <trkpt lat="47.49317" lon="6.74419">
        <ele>369</ele>
        <time>2015-09-27T07:39:24.000Z</time>
      </trkpt>
      <trkpt lat="47.49317" lon="6.74413">
        <ele>370</ele>
        <time>2015-09-27T07:39:25.000Z</time>
      </trkpt>
      <trkpt lat="47.49317" lon="6.74407">
        <ele>370</ele>
        <time>2015-09-27T07:39:26.000Z</time>
      </trkpt>
      <trkpt lat="47.49318" lon="6.74402">
        <ele>370</ele>
        <time>2015-09-27T07:39:27.000Z</time>
      </trkpt>
      <trkpt lat="47.49319" lon="6.74399">
        <ele>371</ele>
        <time>2015-09-27T07:39:28.000Z</time>
      </trkpt>
      <trkpt lat="47.4932" lon="6.74395">
        <ele>371</ele>
        <time>2015-09-27T07:39:29.000Z</time>
      </trkpt>
      <trkpt lat="47.49321" lon="6.74392">
        <ele>371</ele>
        <time>2015-09-27T07:39:30.000Z</time>
      </trkpt>
      <trkpt lat="47.49322" lon="6.74389">
        <ele>371</ele>
        <time>2015-09-27T07:39:31.000Z</time>
      </trkpt>
      <trkpt lat="47.49322" lon="6.74385">
        <ele>372</ele>
        <time>2015-09-27T07:39:32.000Z</time>
      </trkpt>
      <trkpt lat="47.49323" lon="6.74382">
        <ele>372</ele>
        <time>2015-09-27T07:39:33.000Z</time>
      </trkpt>
      <trkpt lat="47.49324" lon="6.74378">
        <ele>372</ele>
        <time>2015-09-27T07:39:34.000Z</time>
      </trkpt>
      <trkpt lat="47.49325" lon="6.74374">
        <ele>372</ele>
        <time>2015-09-27T07:39:35.000Z</time>
      </trkpt>
      <trkpt lat="47.49326" lon="6.74371">
        <ele>372</ele>
        <time>2015-09-27T07:39:36.000Z</time>
      </trkpt>
      <trkpt lat="47.49326" lon="6.74367">
        <ele>372</ele>
        <time>2015-09-27T07:39:37.000Z</time>
      </trkpt>
      <trkpt lat="47.49327" lon="6.74362">
        <ele>372</ele>
        <time>2015-09-27T07:39:38.000Z</time>
      </trkpt>
      <trkpt lat="47.49327" lon="6.74356">
        <ele>371</ele>
        <time>2015-09-27T07:39:39.000Z</time>
      </trkpt>
      <trkpt lat="47.49328" lon="6.74349">
        <ele>371</ele>
        <time>2015-09-27T07:39:40.000Z</time>
      </trkpt>
      <trkpt lat="47.49328" lon="6.74342">
        <ele>370</ele>
        <time>2015-09-27T07:39:41.000Z</time>
      </trkpt>
      <trkpt lat="47.49329" lon="6.74335">
        <ele>368</ele>
        <time>2015-09-27T07:39:42.000Z</time>
      </trkpt>
      <trkpt lat="47.4933" lon="6.74329">
        <ele>369</ele>
        <time>2015-09-27T07:39:43.000Z</time>
      </trkpt>
      <trkpt lat="47.49331" lon="6.74324">
        <ele>370</ele>
        <time>2015-09-27T07:39:44.000Z</time>
      </trkpt>
      <trkpt lat="47.49331" lon="6.7432">
        <ele>371</ele>
        <time>2015-09-27T07:39:45.000Z</time>
      </trkpt>
      <trkpt lat="47.49331" lon="6.74316">
        <ele>372</ele>
        <time>2015-09-27T07:39:46.000Z</time>
      </trkpt>
      <trkpt lat="47.49332" lon="6.74311">
        <ele>373</ele>
        <time>2015-09-27T07:39:47.000Z</time>
      </trkpt>
      <trkpt lat="47.49333" lon="6.74306">
        <ele>373</ele>
        <time>2015-09-27T07:39:48.000Z</time>
      </trkpt>
      <trkpt lat="47.49334" lon="6.74301">
        <ele>361</ele>
        <time>2015-09-27T07:39:49.000Z</time>
      </trkpt>
      <trkpt lat="47.49335" lon="6.74296">
        <ele>361</ele>
        <time>2015-09-27T07:39:50.000Z</time>
      </trkpt>
      <trkpt lat="47.49336" lon="6.74291">
        <ele>361</ele>
        <time>2015-09-27T07:39:51.000Z</time>
      </trkpt>
      <trkpt lat="47.49336" lon="6.74287">
        <ele>361</ele>
        <time>2015-09-27T07:39:52.000Z</time>
      </trkpt>
      <trkpt lat="47.49337" lon="6.74281">
        <ele>361</ele>
        <time>2015-09-27T07:39:54.000Z</time>
      </trkpt>
      <trkpt lat="47.49338" lon="6.7428">
        <ele>362</ele>
        <time>2015-09-27T07:39:55.000Z</time>
      </trkpt>
      <trkpt lat="47.4934" lon="6.74274">
        <ele>362</ele>
        <time>2015-09-27T07:39:58.000Z</time>
      </trkpt>
      <trkpt lat="47.4934" lon="6.74271">
        <ele>362</ele>
        <time>2015-09-27T07:39:59.000Z</time>
      </trkpt>
      <trkpt lat="47.4934" lon="6.74267">
        <ele>363</ele>
        <time>2015-09-27T07:40:01.000Z</time>
      </trkpt>
      <trkpt lat="47.49341" lon="6.74264">
        <ele>364</ele>
        <time>2015-09-27T07:40:02.000Z</time>
      </trkpt>
      <trkpt lat="47.49342" lon="6.74261">
        <ele>364</ele>
        <time>2015-09-27T07:40:03.000Z</time>
      </trkpt>
      <trkpt lat="47.49343" lon="6.74257">
        <ele>365</ele>
        <time>2015-09-27T07:40:04.000Z</time>
      </trkpt>
      <trkpt lat="47.49344" lon="6.74252">
        <ele>365</ele>
        <time>2015-09-27T07:40:05.000Z</time>
      </trkpt>
      <trkpt lat="47.49344" lon="6.74246">
        <ele>365</ele>
        <time>2015-09-27T07:40:06.000Z</time>
      </trkpt>
      <trkpt lat="47.49345" lon="6.74241">
        <ele>364</ele>
        <time>2015-09-27T07:40:07.000Z</time>
      </trkpt>
      <trkpt lat="47.49347" lon="6.74235">
        <ele>363</ele>
        <time>2015-09-27T07:40:08.000Z</time>
      </trkpt>
      <trkpt lat="47.4935" lon="6.74229">
        <ele>362</ele>
        <time>2015-09-27T07:40:09.000Z</time>
      </trkpt>
      <trkpt lat="47.49352" lon="6.74224">
        <ele>361</ele>
        <time>2015-09-27T07:40:10.000Z</time>
      </trkpt>
      <trkpt lat="47.49355" lon="6.74218">
        <ele>361</ele>
        <time>2015-09-27T07:40:11.000Z</time>
      </trkpt>
      <trkpt lat="47.49357" lon="6.74212">
        <ele>361</ele>
        <time>2015-09-27T07:40:12.000Z</time>
      </trkpt>
      <trkpt lat="47.49358" lon="6.74207">
        <ele>360</ele>
        <time>2015-09-27T07:40:13.000Z</time>
      </trkpt>
      <trkpt lat="47.4936" lon="6.74201">
        <ele>360</ele>
        <time>2015-09-27T07:40:14.000Z</time>
      </trkpt>
      <trkpt lat="47.49361" lon="6.74194">
        <ele>360</ele>
        <time>2015-09-27T07:40:15.000Z</time>
      </trkpt>
      <trkpt lat="47.49362" lon="6.74175">
        <ele>361</ele>
        <time>2015-09-27T07:40:16.000Z</time>
      </trkpt>
      <trkpt lat="47.49362" lon="6.74167">
        <ele>361</ele>
        <time>2015-09-27T07:40:17.000Z</time>
      </trkpt>
      <trkpt lat="47.49364" lon="6.74157">
        <ele>360</ele>
        <time>2015-09-27T07:40:18.000Z</time>
      </trkpt>
      <trkpt lat="47.49365" lon="6.74146">
        <ele>360</ele>
        <time>2015-09-27T07:40:19.000Z</time>
      </trkpt>
      <trkpt lat="47.49367" lon="6.74135">
        <ele>359</ele>
        <time>2015-09-27T07:40:20.000Z</time>
      </trkpt>
      <trkpt lat="47.49368" lon="6.74125">
        <ele>359</ele>
        <time>2015-09-27T07:40:21.000Z</time>
      </trkpt>
      <trkpt lat="47.49371" lon="6.74113">
        <ele>358</ele>
        <time>2015-09-27T07:40:22.000Z</time>
      </trkpt>
      <trkpt lat="47.49374" lon="6.741">
        <ele>358</ele>
        <time>2015-09-27T07:40:23.000Z</time>
      </trkpt>
      <trkpt lat="47.49377" lon="6.74086">
        <ele>357</ele>
        <time>2015-09-27T07:40:24.000Z</time>
      </trkpt>
      <trkpt lat="47.49379" lon="6.74074">
        <ele>356</ele>
        <time>2015-09-27T07:40:25.000Z</time>
      </trkpt>
      <trkpt lat="47.49382" lon="6.74062">
        <ele>355</ele>
        <time>2015-09-27T07:40:26.000Z</time>
      </trkpt>
      <trkpt lat="47.49387" lon="6.74048">
        <ele>355</ele>
        <time>2015-09-27T07:40:27.000Z</time>
      </trkpt>
      <trkpt lat="47.49391" lon="6.74039">
        <ele>355</ele>
        <time>2015-09-27T07:40:28.000Z</time>
      </trkpt>
      <trkpt lat="47.49395" lon="6.74023">
        <ele>354</ele>
        <time>2015-09-27T07:40:29.000Z</time>
      </trkpt>
      <trkpt lat="47.494" lon="6.74009">
        <ele>353</ele>
        <time>2015-09-27T07:40:30.000Z</time>
      </trkpt>
      <trkpt lat="47.49402" lon="6.73998">
        <ele>351</ele>
        <time>2015-09-27T07:40:31.000Z</time>
      </trkpt>
      <trkpt lat="47.49404" lon="6.73989">
        <ele>351</ele>
        <time>2015-09-27T07:40:32.000Z</time>
      </trkpt>
      <trkpt lat="47.49406" lon="6.73978">
        <ele>352</ele>
        <time>2015-09-27T07:40:33.000Z</time>
      </trkpt>
      <trkpt lat="47.49407" lon="6.73969">
        <ele>352</ele>
        <time>2015-09-27T07:40:34.000Z</time>
      </trkpt>
      <trkpt lat="47.49406" lon="6.73961">
        <ele>352</ele>
        <time>2015-09-27T07:40:35.000Z</time>
      </trkpt>
      <trkpt lat="47.49405" lon="6.73955">
        <ele>352</ele>
        <time>2015-09-27T07:40:36.000Z</time>
      </trkpt>
      <trkpt lat="47.49403" lon="6.7395">
        <ele>352</ele>
        <time>2015-09-27T07:40:37.000Z</time>
      </trkpt>
      <trkpt lat="47.49401" lon="6.73945">
        <ele>352</ele>
        <time>2015-09-27T07:40:38.000Z</time>
      </trkpt>
      <trkpt lat="47.494" lon="6.7394">
        <ele>351</ele>
        <time>2015-09-27T07:40:39.000Z</time>
      </trkpt>
      <trkpt lat="47.49398" lon="6.73935">
        <ele>351</ele>
        <time>2015-09-27T07:40:40.000Z</time>
      </trkpt>
      <trkpt lat="47.49397" lon="6.73928">
        <ele>351</ele>
        <time>2015-09-27T07:40:41.000Z</time>
      </trkpt>
      <trkpt lat="47.49395" lon="6.7392">
        <ele>351</ele>
        <time>2015-09-27T07:40:42.000Z</time>
      </trkpt>
      <trkpt lat="47.49394" lon="6.73914">
        <ele>349</ele>
        <time>2015-09-27T07:40:43.000Z</time>
      </trkpt>
      <trkpt lat="47.49393" lon="6.7391">
        <ele>349</ele>
        <time>2015-09-27T07:40:44.000Z</time>
      </trkpt>
      <trkpt lat="47.49391" lon="6.73904">
        <ele>350</ele>
        <time>2015-09-27T07:40:45.000Z</time>
      </trkpt>
      <trkpt lat="47.49389" lon="6.73898">
        <ele>350</ele>
        <time>2015-09-27T07:40:46.000Z</time>
      </trkpt>
      <trkpt lat="47.49388" lon="6.73892">
        <ele>350</ele>
        <time>2015-09-27T07:40:47.000Z</time>
      </trkpt>
      <trkpt lat="47.49387" lon="6.73886">
        <ele>350</ele>
        <time>2015-09-27T07:40:48.000Z</time>
      </trkpt>
      <trkpt lat="47.49387" lon="6.73879">
        <ele>350</ele>
        <time>2015-09-27T07:40:49.000Z</time>
      </trkpt>
      <trkpt lat="47.49387" lon="6.73872">
        <ele>350</ele>
        <time>2015-09-27T07:40:50.000Z</time>
      </trkpt>
      <trkpt lat="47.49387" lon="6.73865">
        <ele>350</ele>
        <time>2015-09-27T07:40:51.000Z</time>
      </trkpt>
      <trkpt lat="47.49388" lon="6.73859">
        <ele>349</ele>
        <time>2015-09-27T07:40:52.000Z</time>
      </trkpt>
      <trkpt lat="47.49388" lon="6.73853">
        <ele>349</ele>
        <time>2015-09-27T07:40:53.000Z</time>
      </trkpt>
      <trkpt lat="47.49387" lon="6.73847">
        <ele>349</ele>
        <time>2015-09-27T07:40:54.000Z</time>
      </trkpt>
      <trkpt lat="47.49388" lon="6.73842">
        <ele>349</ele>
        <time>2015-09-27T07:40:55.000Z</time>
      </trkpt>
      <trkpt lat="47.49388" lon="6.73836">
        <ele>349</ele>
        <time>2015-09-27T07:40:56.000Z</time>
      </trkpt>
      <trkpt lat="47.49389" lon="6.73829">
        <ele>348</ele>
        <time>2015-09-27T07:40:57.000Z</time>
      </trkpt>
      <trkpt lat="47.4939" lon="6.73822">
        <ele>348</ele>
        <time>2015-09-27T07:40:58.000Z</time>
      </trkpt>
      <trkpt lat="47.49392" lon="6.73815">
        <ele>348</ele>
        <time>2015-09-27T07:40:59.000Z</time>
      </trkpt>
      <trkpt lat="47.49394" lon="6.73808">
        <ele>348</ele>
        <time>2015-09-27T07:41:00.000Z</time>
      </trkpt>
      <trkpt lat="47.49397" lon="6.73801">
        <ele>348</ele>
        <time>2015-09-27T07:41:01.000Z</time>
      </trkpt>
      <trkpt lat="47.494" lon="6.73793">
        <ele>348</ele>
        <time>2015-09-27T07:41:02.000Z</time>
      </trkpt>
      <trkpt lat="47.49404" lon="6.73785">
        <ele>348</ele>
        <time>2015-09-27T07:41:03.000Z</time>
      </trkpt>
      <trkpt lat="47.49409" lon="6.73777">
        <ele>348</ele>
        <time>2015-09-27T07:41:04.000Z</time>
      </trkpt>
      <trkpt lat="47.49413" lon="6.73769">
        <ele>347</ele>
        <time>2015-09-27T07:41:05.000Z</time>
      </trkpt>
      <trkpt lat="47.49418" lon="6.73762">
        <ele>343</ele>
        <time>2015-09-27T07:41:06.000Z</time>
      </trkpt>
      <trkpt lat="47.49422" lon="6.73755">
        <ele>343</ele>
        <time>2015-09-27T07:41:07.000Z</time>
      </trkpt>
      <trkpt lat="47.49427" lon="6.73748">
        <ele>343</ele>
        <time>2015-09-27T07:41:08.000Z</time>
      </trkpt>
      <trkpt lat="47.49431" lon="6.7374">
        <ele>342</ele>
        <time>2015-09-27T07:41:09.000Z</time>
      </trkpt>
      <trkpt lat="47.49434" lon="6.73733">
        <ele>341</ele>
        <time>2015-09-27T07:41:10.000Z</time>
      </trkpt>
      <trkpt lat="47.49438" lon="6.73726">
        <ele>340</ele>
        <time>2015-09-27T07:41:11.000Z</time>
      </trkpt>
      <trkpt lat="47.49442" lon="6.73719">
        <ele>340</ele>
        <time>2015-09-27T07:41:12.000Z</time>
      </trkpt>
      <trkpt lat="47.49449" lon="6.73704">
        <ele>339</ele>
        <time>2015-09-27T07:41:13.000Z</time>
      </trkpt>
      <trkpt lat="47.49452" lon="6.73699">
        <ele>339</ele>
        <time>2015-09-27T07:41:14.000Z</time>
      </trkpt>
      <trkpt lat="47.49456" lon="6.73693">
        <ele>339</ele>
        <time>2015-09-27T07:41:15.000Z</time>
      </trkpt>
      <trkpt lat="47.49459" lon="6.73688">
        <ele>338</ele>
        <time>2015-09-27T07:41:16.000Z</time>
      </trkpt>
      <trkpt lat="47.49462" lon="6.73682">
        <ele>338</ele>
        <time>2015-09-27T07:41:17.000Z</time>
      </trkpt>
      <trkpt lat="47.49465" lon="6.73677">
        <ele>338</ele>
        <time>2015-09-27T07:41:18.000Z</time>
      </trkpt>
      <trkpt lat="47.49468" lon="6.73672">
        <ele>337</ele>
        <time>2015-09-27T07:41:19.000Z</time>
      </trkpt>
      <trkpt lat="47.49473" lon="6.73665">
        <ele>337</ele>
        <time>2015-09-27T07:41:20.000Z</time>
      </trkpt>
      <trkpt lat="47.49475" lon="6.73659">
        <ele>337</ele>
        <time>2015-09-27T07:41:21.000Z</time>
      </trkpt>
      <trkpt lat="47.49478" lon="6.73654">
        <ele>337</ele>
        <time>2015-09-27T07:41:22.000Z</time>
      </trkpt>
      <trkpt lat="47.49481" lon="6.73648">
        <ele>337</ele>
        <time>2015-09-27T07:41:23.000Z</time>
      </trkpt>
      <trkpt lat="47.49484" lon="6.73643">
        <ele>337</ele>
        <time>2015-09-27T07:41:24.000Z</time>
      </trkpt>
      <trkpt lat="47.49487" lon="6.73638">
        <ele>337</ele>
        <time>2015-09-27T07:41:25.000Z</time>
      </trkpt>
      <trkpt lat="47.49489" lon="6.73633">
        <ele>337</ele>
        <time>2015-09-27T07:41:26.000Z</time>
      </trkpt>
      <trkpt lat="47.49493" lon="6.73628">
        <ele>337</ele>
        <time>2015-09-27T07:41:27.000Z</time>
      </trkpt>
      <trkpt lat="47.49493" lon="6.73623">
        <ele>337</ele>
        <time>2015-09-27T07:41:28.000Z</time>
      </trkpt>
      <trkpt lat="47.49497" lon="6.73618">
        <ele>337</ele>
        <time>2015-09-27T07:41:29.000Z</time>
      </trkpt>
      <trkpt lat="47.49501" lon="6.73614">
        <ele>332</ele>
        <time>2015-09-27T07:41:30.000Z</time>
      </trkpt>
      <trkpt lat="47.49504" lon="6.73609">
        <ele>332</ele>
        <time>2015-09-27T07:41:31.000Z</time>
      </trkpt>
      <trkpt lat="47.49507" lon="6.73604">
        <ele>332</ele>
        <time>2015-09-27T07:41:32.000Z</time>
      </trkpt>
      <trkpt lat="47.49511" lon="6.736">
        <ele>333</ele>
        <time>2015-09-27T07:41:33.000Z</time>
      </trkpt>
      <trkpt lat="47.49515" lon="6.73595">
        <ele>333</ele>
        <time>2015-09-27T07:41:34.000Z</time>
      </trkpt>
      <trkpt lat="47.49519" lon="6.73591">
        <ele>333</ele>
        <time>2015-09-27T07:41:35.000Z</time>
      </trkpt>
      <trkpt lat="47.49523" lon="6.73586">
        <ele>332</ele>
        <time>2015-09-27T07:41:36.000Z</time>
      </trkpt>
      <trkpt lat="47.49527" lon="6.73582">
        <ele>334</ele>
        <time>2015-09-27T07:41:37.000Z</time>
      </trkpt>
      <trkpt lat="47.4953" lon="6.73578">
        <ele>334</ele>
        <time>2015-09-27T07:41:38.000Z</time>
      </trkpt>
      <trkpt lat="47.49534" lon="6.73573">
        <ele>334</ele>
        <time>2015-09-27T07:41:39.000Z</time>
      </trkpt>
      <trkpt lat="47.49538" lon="6.73569">
        <ele>334</ele>
        <time>2015-09-27T07:41:40.000Z</time>
      </trkpt>
      <trkpt lat="47.49542" lon="6.73565">
        <ele>334</ele>
        <time>2015-09-27T07:41:41.000Z</time>
      </trkpt>
      <trkpt lat="47.49546" lon="6.7356">
        <ele>334</ele>
        <time>2015-09-27T07:41:42.000Z</time>
      </trkpt>
      <trkpt lat="47.4955" lon="6.73557">
        <ele>334</ele>
        <time>2015-09-27T07:41:43.000Z</time>
      </trkpt>
      <trkpt lat="47.49555" lon="6.73552">
        <ele>334</ele>
        <time>2015-09-27T07:41:44.000Z</time>
      </trkpt>
      <trkpt lat="47.49559" lon="6.73547">
        <ele>334</ele>
        <time>2015-09-27T07:41:45.000Z</time>
      </trkpt>
      <trkpt lat="47.49563" lon="6.73544">
        <ele>334</ele>
        <time>2015-09-27T07:41:46.000Z</time>
      </trkpt>
      <trkpt lat="47.49567" lon="6.7354">
        <ele>334</ele>
        <time>2015-09-27T07:41:47.000Z</time>
      </trkpt>
      <trkpt lat="47.4957" lon="6.73536">
        <ele>334</ele>
        <time>2015-09-27T07:41:48.000Z</time>
      </trkpt>
      <trkpt lat="47.49574" lon="6.73534">
        <ele>334</ele>
        <time>2015-09-27T07:41:49.000Z</time>
      </trkpt>
      <trkpt lat="47.49578" lon="6.7353">
        <ele>334</ele>
        <time>2015-09-27T07:41:50.000Z</time>
      </trkpt>
      <trkpt lat="47.49582" lon="6.73527">
        <ele>333</ele>
        <time>2015-09-27T07:41:51.000Z</time>
      </trkpt>
      <trkpt lat="47.49586" lon="6.73523">
        <ele>332</ele>
        <time>2015-09-27T07:41:52.000Z</time>
      </trkpt>
      <trkpt lat="47.4959" lon="6.73519">
        <ele>332</ele>
        <time>2015-09-27T07:41:53.000Z</time>
      </trkpt>
      <trkpt lat="47.49593" lon="6.73515">
        <ele>332</ele>
        <time>2015-09-27T07:41:54.000Z</time>
      </trkpt>
      <trkpt lat="47.49597" lon="6.73513">
        <ele>332</ele>
        <time>2015-09-27T07:41:55.000Z</time>
      </trkpt>
      <trkpt lat="47.496" lon="6.73509">
        <ele>332</ele>
        <time>2015-09-27T07:41:56.000Z</time>
      </trkpt>
      <trkpt lat="47.49603" lon="6.73505">
        <ele>332</ele>
        <time>2015-09-27T07:41:57.000Z</time>
      </trkpt>
      <trkpt lat="47.49607" lon="6.73501">
        <ele>332</ele>
        <time>2015-09-27T07:41:58.000Z</time>
      </trkpt>
      <trkpt lat="47.4961" lon="6.73497">
        <ele>334</ele>
        <time>2015-09-27T07:41:59.000Z</time>
      </trkpt>
      <trkpt lat="47.49613" lon="6.73493">
        <ele>334</ele>
        <time>2015-09-27T07:42:00.000Z</time>
      </trkpt>
      <trkpt lat="47.49616" lon="6.73489">
        <ele>334</ele>
        <time>2015-09-27T07:42:01.000Z</time>
      </trkpt>
      <trkpt lat="47.49619" lon="6.73485">
        <ele>334</ele>
        <time>2015-09-27T07:42:02.000Z</time>
      </trkpt>
      <trkpt lat="47.49622" lon="6.7348">
        <ele>334</ele>
        <time>2015-09-27T07:42:03.000Z</time>
      </trkpt>
      <trkpt lat="47.49626" lon="6.73476">
        <ele>334</ele>
        <time>2015-09-27T07:42:04.000Z</time>
      </trkpt>
      <trkpt lat="47.49629" lon="6.73472">
        <ele>334</ele>
        <time>2015-09-27T07:42:05.000Z</time>
      </trkpt>
      <trkpt lat="47.49632" lon="6.73467">
        <ele>334</ele>
        <time>2015-09-27T07:42:06.000Z</time>
      </trkpt>
      <trkpt lat="47.49635" lon="6.73463">
        <ele>334</ele>
        <time>2015-09-27T07:42:07.000Z</time>
      </trkpt>
      <trkpt lat="47.49638" lon="6.73459">
        <ele>334</ele>
        <time>2015-09-27T07:42:08.000Z</time>
      </trkpt>
      <trkpt lat="47.49641" lon="6.73455">
        <ele>334</ele>
        <time>2015-09-27T07:42:09.000Z</time>
      </trkpt>
      <trkpt lat="47.49644" lon="6.73452">
        <ele>334</ele>
        <time>2015-09-27T07:42:10.000Z</time>
      </trkpt>
      <trkpt lat="47.49647" lon="6.73448">
        <ele>334</ele>
        <time>2015-09-27T07:42:11.000Z</time>
      </trkpt>
      <trkpt lat="47.4965" lon="6.73444">
        <ele>334</ele>
        <time>2015-09-27T07:42:12.000Z</time>
      </trkpt>
      <trkpt lat="47.49654" lon="6.7344">
        <ele>334</ele>
        <time>2015-09-27T07:42:13.000Z</time>
      </trkpt>
      <trkpt lat="47.49657" lon="6.73436">
        <ele>334</ele>
        <time>2015-09-27T07:42:14.000Z</time>
      </trkpt>
      <trkpt lat="47.4966" lon="6.73432">
        <ele>334</ele>
        <time>2015-09-27T07:42:15.000Z</time>
      </trkpt>
      <trkpt lat="47.49663" lon="6.73428">
        <ele>334</ele>
        <time>2015-09-27T07:42:16.000Z</time>
      </trkpt>
      <trkpt lat="47.49666" lon="6.73424">
        <ele>334</ele>
        <time>2015-09-27T07:42:17.000Z</time>
      </trkpt>
      <trkpt lat="47.49669" lon="6.7342">
        <ele>334</ele>
        <time>2015-09-27T07:42:18.000Z</time>
      </trkpt>
      <trkpt lat="47.49672" lon="6.73416">
        <ele>334</ele>
        <time>2015-09-27T07:42:19.000Z</time>
      </trkpt>
      <trkpt lat="47.49675" lon="6.73411">
        <ele>334</ele>
        <time>2015-09-27T07:42:20.000Z</time>
      </trkpt>
      <trkpt lat="47.49678" lon="6.73407">
        <ele>334</ele>
        <time>2015-09-27T07:42:21.000Z</time>
      </trkpt>
      <trkpt lat="47.49681" lon="6.73403">
        <ele>334</ele>
        <time>2015-09-27T07:42:22.000Z</time>
      </trkpt>
      <trkpt lat="47.49684" lon="6.73399">
        <ele>334</ele>
        <time>2015-09-27T07:42:23.000Z</time>
      </trkpt>
      <trkpt lat="47.49687" lon="6.73395">
        <ele>334</ele>
        <time>2015-09-27T07:42:24.000Z</time>
      </trkpt>
      <trkpt lat="47.4969" lon="6.7339">
        <ele>334</ele>
        <time>2015-09-27T07:42:25.000Z</time>
      </trkpt>
      <trkpt lat="47.49693" lon="6.73386">
        <ele>334</ele>
        <time>2015-09-27T07:42:26.000Z</time>
      </trkpt>
      <trkpt lat="47.49696" lon="6.73381">
        <ele>334</ele>
        <time>2015-09-27T07:42:27.000Z</time>
      </trkpt>
      <trkpt lat="47.497" lon="6.73377">
        <ele>334</ele>
        <time>2015-09-27T07:42:28.000Z</time>
      </trkpt>
      <trkpt lat="47.49702" lon="6.73373">
        <ele>334</ele>
        <time>2015-09-27T07:42:29.000Z</time>
      </trkpt>
      <trkpt lat="47.49705" lon="6.73368">
        <ele>334</ele>
        <time>2015-09-27T07:42:30.000Z</time>
      </trkpt>
      <trkpt lat="47.49708" lon="6.73364">
        <ele>334</ele>
        <time>2015-09-27T07:42:31.000Z</time>
      </trkpt>
      <trkpt lat="47.49711" lon="6.73359">
        <ele>334</ele>
        <time>2015-09-27T07:42:32.000Z</time>
      </trkpt>
      <trkpt lat="47.49714" lon="6.73354">
        <ele>334</ele>
        <time>2015-09-27T07:42:33.000Z</time>
      </trkpt>
      <trkpt lat="47.49718" lon="6.7335">
        <ele>334</ele>
        <time>2015-09-27T07:42:34.000Z</time>
      </trkpt>
      <trkpt lat="47.49721" lon="6.73345">
        <ele>334</ele>
        <time>2015-09-27T07:42:35.000Z</time>
      </trkpt>
      <trkpt lat="47.49724" lon="6.73341">
        <ele>334</ele>
        <time>2015-09-27T07:42:36.000Z</time>
      </trkpt>
      <trkpt lat="47.49727" lon="6.73336">
        <ele>333</ele>
        <time>2015-09-27T07:42:37.000Z</time>
      </trkpt>
      <trkpt lat="47.49731" lon="6.73332">
        <ele>334</ele>
        <time>2015-09-27T07:42:38.000Z</time>
      </trkpt>
      <trkpt lat="47.49734" lon="6.73327">
        <ele>334</ele>
        <time>2015-09-27T07:42:39.000Z</time>
      </trkpt>
      <trkpt lat="47.49737" lon="6.73323">
        <ele>334</ele>
        <time>2015-09-27T07:42:40.000Z</time>
      </trkpt>
      <trkpt lat="47.4974" lon="6.73318">
        <ele>334</ele>
        <time>2015-09-27T07:42:41.000Z</time>
      </trkpt>
      <trkpt lat="47.49743" lon="6.73313">
        <ele>335</ele>
        <time>2015-09-27T07:42:42.000Z</time>
      </trkpt>
      <trkpt lat="47.49746" lon="6.73308">
        <ele>335</ele>
        <time>2015-09-27T07:42:43.000Z</time>
      </trkpt>
      <trkpt lat="47.49749" lon="6.73303">
        <ele>335</ele>
        <time>2015-09-27T07:42:44.000Z</time>
      </trkpt>
      <trkpt lat="47.49752" lon="6.73299">
        <ele>334</ele>
        <time>2015-09-27T07:42:45.000Z</time>
      </trkpt>
      <trkpt lat="47.49755" lon="6.73295">
        <ele>334</ele>
        <time>2015-09-27T07:42:46.000Z</time>
      </trkpt>
      <trkpt lat="47.49758" lon="6.7329">
        <ele>334</ele>
        <time>2015-09-27T07:42:47.000Z</time>
      </trkpt>
      <trkpt lat="47.49761" lon="6.73285">
        <ele>334</ele>
        <time>2015-09-27T07:42:48.000Z</time>
      </trkpt>
      <trkpt lat="47.49764" lon="6.7328">
        <ele>335</ele>
        <time>2015-09-27T07:42:49.000Z</time>
      </trkpt>
      <trkpt lat="47.49767" lon="6.73275">
        <ele>335</ele>
        <time>2015-09-27T07:42:50.000Z</time>
      </trkpt>
      <trkpt lat="47.4977" lon="6.73271">
        <ele>335</ele>
        <time>2015-09-27T07:42:51.000Z</time>
      </trkpt>
      <trkpt lat="47.49772" lon="6.73266">
        <ele>335</ele>
        <time>2015-09-27T07:42:52.000Z</time>
      </trkpt>
      <trkpt lat="47.49775" lon="6.73261">
        <ele>335</ele>
        <time>2015-09-27T07:42:53.000Z</time>
      </trkpt>
      <trkpt lat="47.49777" lon="6.73256">
        <ele>335</ele>
        <time>2015-09-27T07:42:54.000Z</time>
      </trkpt>
      <trkpt lat="47.49779" lon="6.73251">
        <ele>335</ele>
        <time>2015-09-27T07:42:55.000Z</time>
      </trkpt>
      <trkpt lat="47.49782" lon="6.73246">
        <ele>337</ele>
        <time>2015-09-27T07:42:56.000Z</time>
      </trkpt>
      <trkpt lat="47.49784" lon="6.73241">
        <ele>337</ele>
        <time>2015-09-27T07:42:57.000Z</time>
      </trkpt>
      <trkpt lat="47.49786" lon="6.73237">
        <ele>337</ele>
        <time>2015-09-27T07:42:58.000Z</time>
      </trkpt>
      <trkpt lat="47.49788" lon="6.73232">
        <ele>337</ele>
        <time>2015-09-27T07:42:59.000Z</time>
      </trkpt>
      <trkpt lat="47.4979" lon="6.73227">
        <ele>337</ele>
        <time>2015-09-27T07:43:00.000Z</time>
      </trkpt>
      <trkpt lat="47.49793" lon="6.73221">
        <ele>337</ele>
        <time>2015-09-27T07:43:01.000Z</time>
      </trkpt>
      <trkpt lat="47.49795" lon="6.73216">
        <ele>337</ele>
        <time>2015-09-27T07:43:02.000Z</time>
      </trkpt>
      <trkpt lat="47.49797" lon="6.73211">
        <ele>337</ele>
        <time>2015-09-27T07:43:03.000Z</time>
      </trkpt>
      <trkpt lat="47.49798" lon="6.73206">
        <ele>337</ele>
        <time>2015-09-27T07:43:04.000Z</time>
      </trkpt>
      <trkpt lat="47.49801" lon="6.732">
        <ele>337</ele>
        <time>2015-09-27T07:43:05.000Z</time>
      </trkpt>
      <trkpt lat="47.49803" lon="6.73194">
        <ele>337</ele>
        <time>2015-09-27T07:43:06.000Z</time>
      </trkpt>
      <trkpt lat="47.49805" lon="6.73189">
        <ele>337</ele>
        <time>2015-09-27T07:43:07.000Z</time>
      </trkpt>
      <trkpt lat="47.49807" lon="6.73184">
        <ele>337</ele>
        <time>2015-09-27T07:43:08.000Z</time>
      </trkpt>
      <trkpt lat="47.49809" lon="6.73178">
        <ele>337</ele>
        <time>2015-09-27T07:43:09.000Z</time>
      </trkpt>
      <trkpt lat="47.4981" lon="6.73172">
        <ele>337</ele>
        <time>2015-09-27T07:43:10.000Z</time>
      </trkpt>
      <trkpt lat="47.49812" lon="6.73167">
        <ele>337</ele>
        <time>2015-09-27T07:43:11.000Z</time>
      </trkpt>
      <trkpt lat="47.49813" lon="6.73161">
        <ele>338</ele>
        <time>2015-09-27T07:43:12.000Z</time>
      </trkpt>
      <trkpt lat="47.49814" lon="6.73156">
        <ele>338</ele>
        <time>2015-09-27T07:43:13.000Z</time>
      </trkpt>
      <trkpt lat="47.49816" lon="6.73151">
        <ele>338</ele>
        <time>2015-09-27T07:43:14.000Z</time>
      </trkpt>
      <trkpt lat="47.49817" lon="6.73147">
        <ele>338</ele>
        <time>2015-09-27T07:43:15.000Z</time>
      </trkpt>
      <trkpt lat="47.49819" lon="6.73142">
        <ele>339</ele>
        <time>2015-09-27T07:43:16.000Z</time>
      </trkpt>
      <trkpt lat="47.4982" lon="6.73138">
        <ele>339</ele>
        <time>2015-09-27T07:43:17.000Z</time>
      </trkpt>
      <trkpt lat="47.49822" lon="6.73133">
        <ele>339</ele>
        <time>2015-09-27T07:43:18.000Z</time>
      </trkpt>
      <trkpt lat="47.49823" lon="6.73128">
        <ele>339</ele>
        <time>2015-09-27T07:43:19.000Z</time>
      </trkpt>
      <trkpt lat="47.49824" lon="6.73123">
        <ele>339</ele>
        <time>2015-09-27T07:43:20.000Z</time>
      </trkpt>
      <trkpt lat="47.49825" lon="6.73118">
        <ele>339</ele>
        <time>2015-09-27T07:43:21.000Z</time>
      </trkpt>
      <trkpt lat="47.49826" lon="6.73113">
        <ele>339</ele>
        <time>2015-09-27T07:43:22.000Z</time>
      </trkpt>
      <trkpt lat="47.49827" lon="6.73108">
        <ele>339</ele>
        <time>2015-09-27T07:43:23.000Z</time>
      </trkpt>
      <trkpt lat="47.49829" lon="6.73104">
        <ele>339</ele>
        <time>2015-09-27T07:43:24.000Z</time>
      </trkpt>
      <trkpt lat="47.4983" lon="6.73099">
        <ele>340</ele>
        <time>2015-09-27T07:43:25.000Z</time>
      </trkpt>
      <trkpt lat="47.49831" lon="6.73095">
        <ele>340</ele>
        <time>2015-09-27T07:43:26.000Z</time>
      </trkpt>
      <trkpt lat="47.49832" lon="6.7309">
        <ele>340</ele>
        <time>2015-09-27T07:43:27.000Z</time>
      </trkpt>
      <trkpt lat="47.49834" lon="6.73085">
        <ele>340</ele>
        <time>2015-09-27T07:43:28.000Z</time>
      </trkpt>
      <trkpt lat="47.49835" lon="6.7308">
        <ele>340</ele>
        <time>2015-09-27T07:43:29.000Z</time>
      </trkpt>
      <trkpt lat="47.49837" lon="6.73074">
        <ele>340</ele>
        <time>2015-09-27T07:43:30.000Z</time>
      </trkpt>
      <trkpt lat="47.49839" lon="6.73069">
        <ele>340</ele>
        <time>2015-09-27T07:43:31.000Z</time>
      </trkpt>
      <trkpt lat="47.4984" lon="6.73063">
        <ele>340</ele>
        <time>2015-09-27T07:43:32.000Z</time>
      </trkpt>
      <trkpt lat="47.49842" lon="6.73058">
        <ele>340</ele>
        <time>2015-09-27T07:43:33.000Z</time>
      </trkpt>
      <trkpt lat="47.49844" lon="6.73052">
        <ele>340</ele>
        <time>2015-09-27T07:43:34.000Z</time>
      </trkpt>
      <trkpt lat="47.49846" lon="6.73047">
        <ele>340</ele>
        <time>2015-09-27T07:43:35.000Z</time>
      </trkpt>
      <trkpt lat="47.49847" lon="6.73042">
        <ele>340</ele>
        <time>2015-09-27T07:43:36.000Z</time>
      </trkpt>
      <trkpt lat="47.49849" lon="6.73037">
        <ele>341</ele>
        <time>2015-09-27T07:43:37.000Z</time>
      </trkpt>
      <trkpt lat="47.49851" lon="6.73032">
        <ele>341</ele>
        <time>2015-09-27T07:43:38.000Z</time>
      </trkpt>
      <trkpt lat="47.49854" lon="6.73027">
        <ele>341</ele>
        <time>2015-09-27T07:43:39.000Z</time>
      </trkpt>
      <trkpt lat="47.49856" lon="6.73022">
        <ele>341</ele>
        <time>2015-09-27T07:43:40.000Z</time>
      </trkpt>
      <trkpt lat="47.49858" lon="6.73018">
        <ele>341</ele>
        <time>2015-09-27T07:43:41.000Z</time>
      </trkpt>
      <trkpt lat="47.4986" lon="6.73013">
        <ele>341</ele>
        <time>2015-09-27T07:43:42.000Z</time>
      </trkpt>
      <trkpt lat="47.49862" lon="6.73009">
        <ele>341</ele>
        <time>2015-09-27T07:43:43.000Z</time>
      </trkpt>
      <trkpt lat="47.49863" lon="6.73005">
        <ele>341</ele>
        <time>2015-09-27T07:43:44.000Z</time>
      </trkpt>
      <trkpt lat="47.49865" lon="6.73">
        <ele>341</ele>
        <time>2015-09-27T07:43:45.000Z</time>
      </trkpt>
      <trkpt lat="47.49867" lon="6.72996">
        <ele>342</ele>
        <time>2015-09-27T07:43:46.000Z</time>
      </trkpt>
      <trkpt lat="47.49869" lon="6.72991">
        <ele>342</ele>
        <time>2015-09-27T07:43:47.000Z</time>
      </trkpt>
      <trkpt lat="47.49871" lon="6.72987">
        <ele>342</ele>
        <time>2015-09-27T07:43:48.000Z</time>
      </trkpt>
      <trkpt lat="47.49873" lon="6.72982">
        <ele>342</ele>
        <time>2015-09-27T07:43:49.000Z</time>
      </trkpt>
      <trkpt lat="47.49875" lon="6.72978">
        <ele>342</ele>
        <time>2015-09-27T07:43:50.000Z</time>
      </trkpt>
      <trkpt lat="47.49877" lon="6.72973">
        <ele>342</ele>
        <time>2015-09-27T07:43:51.000Z</time>
      </trkpt>
      <trkpt lat="47.49879" lon="6.72968">
        <ele>342</ele>
        <time>2015-09-27T07:43:52.000Z</time>
      </trkpt>
      <trkpt lat="47.49881" lon="6.72963">
        <ele>342</ele>
        <time>2015-09-27T07:43:53.000Z</time>
      </trkpt>
      <trkpt lat="47.49883" lon="6.72958">
        <ele>342</ele>
        <time>2015-09-27T07:43:54.000Z</time>
      </trkpt>
      <trkpt lat="47.49885" lon="6.72953">
        <ele>342</ele>
        <time>2015-09-27T07:43:55.000Z</time>
      </trkpt>
      <trkpt lat="47.49887" lon="6.72949">
        <ele>342</ele>
        <time>2015-09-27T07:43:56.000Z</time>
      </trkpt>
      <trkpt lat="47.49888" lon="6.72945">
        <ele>342</ele>
        <time>2015-09-27T07:43:57.000Z</time>
      </trkpt>
      <trkpt lat="47.49891" lon="6.7294">
        <ele>342</ele>
        <time>2015-09-27T07:43:59.000Z</time>
      </trkpt>
      <trkpt lat="47.49892" lon="6.72939">
        <ele>342</ele>
        <time>2015-09-27T07:44:00.000Z</time>
      </trkpt>
      <trkpt lat="47.49896" lon="6.7294">
        <ele>342</ele>
        <time>2015-09-27T07:44:03.000Z</time>
      </trkpt>
      <trkpt lat="47.49899" lon="6.72942">
        <ele>342</ele>
        <time>2015-09-27T07:44:04.000Z</time>
      </trkpt>
      <trkpt lat="47.49901" lon="6.72945">
        <ele>342</ele>
        <time>2015-09-27T07:44:05.000Z</time>
      </trkpt>
      <trkpt lat="47.49905" lon="6.72948">
        <ele>342</ele>
        <time>2015-09-27T07:44:06.000Z</time>
      </trkpt>
      <trkpt lat="47.49908" lon="6.7295">
        <ele>341</ele>
        <time>2015-09-27T07:44:07.000Z</time>
      </trkpt>
      <trkpt lat="47.49912" lon="6.72952">
        <ele>341</ele>
        <time>2015-09-27T07:44:08.000Z</time>
      </trkpt>
      <trkpt lat="47.49915" lon="6.72953">
        <ele>341</ele>
        <time>2015-09-27T07:44:09.000Z</time>
      </trkpt>
      <trkpt lat="47.49919" lon="6.72953">
        <ele>339</ele>
        <time>2015-09-27T07:44:10.000Z</time>
      </trkpt>
      <trkpt lat="47.49922" lon="6.72953">
        <ele>339</ele>
        <time>2015-09-27T07:44:11.000Z</time>
      </trkpt>
      <trkpt lat="47.49925" lon="6.72953">
        <ele>339</ele>
        <time>2015-09-27T07:44:12.000Z</time>
      </trkpt>
      <trkpt lat="47.49927" lon="6.72953">
        <ele>339</ele>
        <time>2015-09-27T07:44:13.000Z</time>
      </trkpt>
      <trkpt lat="47.49929" lon="6.72954">
        <ele>339</ele>
        <time>2015-09-27T07:44:14.000Z</time>
      </trkpt>
      <trkpt lat="47.49933" lon="6.72957">
        <ele>339</ele>
        <time>2015-09-27T07:44:16.000Z</time>
      </trkpt>
      <trkpt lat="47.49935" lon="6.72958">
        <ele>339</ele>
        <time>2015-09-27T07:44:17.000Z</time>
      </trkpt>
      <trkpt lat="47.49938" lon="6.72959">
        <ele>339</ele>
        <time>2015-09-27T07:44:18.000Z</time>
      </trkpt>
      <trkpt lat="47.4994" lon="6.7296">
        <ele>339</ele>
        <time>2015-09-27T07:44:19.000Z</time>
      </trkpt>
      <trkpt lat="47.49943" lon="6.72961">
        <ele>339</ele>
        <time>2015-09-27T07:44:20.000Z</time>
      </trkpt>
      <trkpt lat="47.49946" lon="6.72961">
        <ele>339</ele>
        <time>2015-09-27T07:44:21.000Z</time>
      </trkpt>
      <trkpt lat="47.49948" lon="6.72961">
        <ele>339</ele>
        <time>2015-09-27T07:44:22.000Z</time>
      </trkpt>
      <trkpt lat="47.4995" lon="6.72961">
        <ele>339</ele>
        <time>2015-09-27T07:44:23.000Z</time>
      </trkpt>
      <trkpt lat="47.49953" lon="6.72961">
        <ele>339</ele>
        <time>2015-09-27T07:44:24.000Z</time>
      </trkpt>
      <trkpt lat="47.49955" lon="6.72961">
        <ele>339</ele>
        <time>2015-09-27T07:44:25.000Z</time>
      </trkpt>
      <trkpt lat="47.4996" lon="6.72962">
        <ele>339</ele>
        <time>2015-09-27T07:44:27.000Z</time>
      </trkpt>
      <trkpt lat="47.49961" lon="6.72963">
        <ele>339</ele>
        <time>2015-09-27T07:44:28.000Z</time>
      </trkpt>
      <trkpt lat="47.49965" lon="6.72962">
        <ele>339</ele>
        <time>2015-09-27T07:44:34.000Z</time>
      </trkpt>
      <trkpt lat="47.49966" lon="6.72961">
        <ele>339</ele>
        <time>2015-09-27T07:44:35.000Z</time>
      </trkpt>
      <trkpt lat="47.4997" lon="6.72963">
        <ele>339</ele>
        <time>2015-09-27T07:44:37.000Z</time>
      </trkpt>
      <trkpt lat="47.49973" lon="6.72966">
        <ele>338</ele>
        <time>2015-09-27T07:44:38.000Z</time>
      </trkpt>
      <trkpt lat="47.49976" lon="6.72969">
        <ele>338</ele>
        <time>2015-09-27T07:44:39.000Z</time>
      </trkpt>
      <trkpt lat="47.49978" lon="6.72973">
        <ele>338</ele>
        <time>2015-09-27T07:44:40.000Z</time>
      </trkpt>
      <trkpt lat="47.4998" lon="6.72976">
        <ele>338</ele>
        <time>2015-09-27T07:44:41.000Z</time>
      </trkpt>
      <trkpt lat="47.49981" lon="6.7298">
        <ele>338</ele>
        <time>2015-09-27T07:44:42.000Z</time>
      </trkpt>
      <trkpt lat="47.49983" lon="6.72983">
        <ele>338</ele>
        <time>2015-09-27T07:44:43.000Z</time>
      </trkpt>
      <trkpt lat="47.49984" lon="6.72985">
        <ele>338</ele>
        <time>2015-09-27T07:44:44.000Z</time>
      </trkpt>
      <trkpt lat="47.49987" lon="6.72989">
        <ele>338</ele>
        <time>2015-09-27T07:44:48.000Z</time>
      </trkpt>
      <trkpt lat="47.49988" lon="6.7299">
        <ele>338</ele>
        <time>2015-09-27T07:44:49.000Z</time>
      </trkpt>
      <trkpt lat="47.4999" lon="6.72992">
        <ele>338</ele>
        <time>2015-09-27T07:44:50.000Z</time>
      </trkpt>
      <trkpt lat="47.49991" lon="6.72996">
        <ele>338</ele>
        <time>2015-09-27T07:44:51.000Z</time>
      </trkpt>
      <trkpt lat="47.49993" lon="6.73">
        <ele>337</ele>
        <time>2015-09-27T07:44:52.000Z</time>
      </trkpt>
      <trkpt lat="47.49994" lon="6.73004">
        <ele>337</ele>
        <time>2015-09-27T07:44:53.000Z</time>
      </trkpt>
      <trkpt lat="47.49995" lon="6.73008">
        <ele>337</ele>
        <time>2015-09-27T07:44:54.000Z</time>
      </trkpt>
      <trkpt lat="47.49997" lon="6.7301">
        <ele>337</ele>
        <time>2015-09-27T07:44:55.000Z</time>
      </trkpt>
      <trkpt lat="47.49999" lon="6.73012">
        <ele>337</ele>
        <time>2015-09-27T07:44:56.000Z</time>
      </trkpt>
      <trkpt lat="47.50001" lon="6.73014">
        <ele>337</ele>
        <time>2015-09-27T07:44:57.000Z</time>
      </trkpt>
      <trkpt lat="47.50004" lon="6.73016">
        <ele>337</ele>
        <time>2015-09-27T07:44:58.000Z</time>
      </trkpt>
      <trkpt lat="47.50007" lon="6.73018">
        <ele>337</ele>
        <time>2015-09-27T07:44:59.000Z</time>
      </trkpt>
      <trkpt lat="47.50009" lon="6.7302">
        <ele>337</ele>
        <time>2015-09-27T07:45:00.000Z</time>
      </trkpt>
      <trkpt lat="47.50012" lon="6.73022">
        <ele>337</ele>
        <time>2015-09-27T07:45:01.000Z</time>
      </trkpt>
      <trkpt lat="47.50014" lon="6.73023">
        <ele>337</ele>
        <time>2015-09-27T07:45:02.000Z</time>
      </trkpt>
      <trkpt lat="47.50016" lon="6.73025">
        <ele>337</ele>
        <time>2015-09-27T07:45:03.000Z</time>
      </trkpt>
      <trkpt lat="47.50018" lon="6.73028">
        <ele>337</ele>
        <time>2015-09-27T07:45:04.000Z</time>
      </trkpt>
      <trkpt lat="47.5002" lon="6.73031">
        <ele>337</ele>
        <time>2015-09-27T07:45:05.000Z</time>
      </trkpt>
      <trkpt lat="47.50022" lon="6.73034">
        <ele>337</ele>
        <time>2015-09-27T07:45:06.000Z</time>
      </trkpt>
      <trkpt lat="47.50025" lon="6.73036">
        <ele>337</ele>
        <time>2015-09-27T07:45:07.000Z</time>
      </trkpt>
      <trkpt lat="47.50027" lon="6.73038">
        <ele>337</ele>
        <time>2015-09-27T07:45:08.000Z</time>
      </trkpt>
      <trkpt lat="47.50028" lon="6.7304">
        <ele>337</ele>
        <time>2015-09-27T07:45:09.000Z</time>
      </trkpt>
      <trkpt lat="47.5003" lon="6.73045">
        <ele>337</ele>
        <time>2015-09-27T07:45:11.000Z</time>
      </trkpt>
      <trkpt lat="47.50031" lon="6.73047">
        <ele>337</ele>
        <time>2015-09-27T07:45:12.000Z</time>
      </trkpt>
      <trkpt lat="47.50034" lon="6.7305">
        <ele>337</ele>
        <time>2015-09-27T07:45:17.000Z</time>
      </trkpt>
      <trkpt lat="47.50035" lon="6.73051">
        <ele>337</ele>
        <time>2015-09-27T07:45:18.000Z</time>
      </trkpt>
      <trkpt lat="47.50038" lon="6.73055">
        <ele>337</ele>
        <time>2015-09-27T07:45:21.000Z</time>
      </trkpt>
      <trkpt lat="47.50039" lon="6.73056">
        <ele>337</ele>
        <time>2015-09-27T07:45:22.000Z</time>
      </trkpt>
      <trkpt lat="47.50042" lon="6.73059">
        <ele>337</ele>
        <time>2015-09-27T07:45:26.000Z</time>
      </trkpt>
      <trkpt lat="47.50044" lon="6.73061">
        <ele>337</ele>
        <time>2015-09-27T07:45:27.000Z</time>
      </trkpt>
      <trkpt lat="47.50047" lon="6.73064">
        <ele>337</ele>
        <time>2015-09-27T07:45:29.000Z</time>
      </trkpt>
      <trkpt lat="47.50048" lon="6.73065">
        <ele>337</ele>
        <time>2015-09-27T07:45:30.000Z</time>
      </trkpt>
      <trkpt lat="47.50052" lon="6.73066">
        <ele>337</ele>
        <time>2015-09-27T07:45:33.000Z</time>
      </trkpt>
      <trkpt lat="47.50053" lon="6.73067">
        <ele>337</ele>
        <time>2015-09-27T07:45:34.000Z</time>
      </trkpt>
      <trkpt lat="47.50057" lon="6.7307">
        <ele>337</ele>
        <time>2015-09-27T07:45:36.000Z</time>
      </trkpt>
      <trkpt lat="47.50058" lon="6.73071">
        <ele>337</ele>
        <time>2015-09-27T07:45:37.000Z</time>
      </trkpt>
      <trkpt lat="47.50062" lon="6.73074">
        <ele>337</ele>
        <time>2015-09-27T07:45:40.000Z</time>
      </trkpt>
      <trkpt lat="47.50063" lon="6.73075">
        <ele>337</ele>
        <time>2015-09-27T07:45:41.000Z</time>
      </trkpt>
      <trkpt lat="47.50067" lon="6.73076">
        <ele>337</ele>
        <time>2015-09-27T07:45:43.000Z</time>
      </trkpt>
      <trkpt lat="47.5007" lon="6.73078">
        <ele>338</ele>
        <time>2015-09-27T07:45:44.000Z</time>
      </trkpt>
      <trkpt lat="47.50072" lon="6.7308">
        <ele>338</ele>
        <time>2015-09-27T07:45:45.000Z</time>
      </trkpt>
      <trkpt lat="47.50075" lon="6.73082">
        <ele>338</ele>
        <time>2015-09-27T07:45:46.000Z</time>
      </trkpt>
      <trkpt lat="47.50078" lon="6.73086">
        <ele>338</ele>
        <time>2015-09-27T07:45:48.000Z</time>
      </trkpt>
      <trkpt lat="47.50079" lon="6.73087">
        <ele>338</ele>
        <time>2015-09-27T07:45:49.000Z</time>
      </trkpt>
      <trkpt lat="47.50083" lon="6.73089">
        <ele>338</ele>
        <time>2015-09-27T07:45:52.000Z</time>
      </trkpt>
      <trkpt lat="47.50084" lon="6.73091">
        <ele>338</ele>
        <time>2015-09-27T07:45:53.000Z</time>
      </trkpt>
      <trkpt lat="47.50087" lon="6.73094">
        <ele>338</ele>
        <time>2015-09-27T07:45:56.000Z</time>
      </trkpt>
      <trkpt lat="47.50088" lon="6.73095">
        <ele>339</ele>
        <time>2015-09-27T07:45:57.000Z</time>
      </trkpt>
      <trkpt lat="47.5009" lon="6.73097">
        <ele>339</ele>
        <time>2015-09-27T07:45:59.000Z</time>
      </trkpt>
      <trkpt lat="47.50092" lon="6.73098">
        <ele>339</ele>
        <time>2015-09-27T07:46:00.000Z</time>
      </trkpt>
      <trkpt lat="47.50096" lon="6.731">
        <ele>339</ele>
        <time>2015-09-27T07:46:02.000Z</time>
      </trkpt>
      <trkpt lat="47.50098" lon="6.73101">
        <ele>339</ele>
        <time>2015-09-27T07:46:03.000Z</time>
      </trkpt>
      <trkpt lat="47.50102" lon="6.731">
        <ele>339</ele>
        <time>2015-09-27T07:46:05.000Z</time>
      </trkpt>
      <trkpt lat="47.50104" lon="6.73099">
        <ele>339</ele>
        <time>2015-09-27T07:46:06.000Z</time>
      </trkpt>
      <trkpt lat="47.50109" lon="6.73099">
        <ele>339</ele>
        <time>2015-09-27T07:46:09.000Z</time>
      </trkpt>
      <trkpt lat="47.50109" lon="6.731">
        <ele>339</ele>
        <time>2015-09-27T07:46:10.000Z</time>
      </trkpt>
      <trkpt lat="47.50112" lon="6.73103">
        <ele>339</ele>
        <time>2015-09-27T07:46:14.000Z</time>
      </trkpt>
      <trkpt lat="47.50114" lon="6.73103">
        <ele>339</ele>
        <time>2015-09-27T07:46:15.000Z</time>
      </trkpt>
      <trkpt lat="47.50118" lon="6.73104">
        <ele>339</ele>
        <time>2015-09-27T07:46:17.000Z</time>
      </trkpt>
      <trkpt lat="47.5012" lon="6.73104">
        <ele>339</ele>
        <time>2015-09-27T07:46:18.000Z</time>
      </trkpt>
      <trkpt lat="47.50125" lon="6.73104">
        <ele>339</ele>
        <time>2015-09-27T07:46:20.000Z</time>
      </trkpt>
      <trkpt lat="47.50127" lon="6.73104">
        <ele>339</ele>
        <time>2015-09-27T07:46:21.000Z</time>
      </trkpt>
      <trkpt lat="47.5013" lon="6.73103">
        <ele>339</ele>
        <time>2015-09-27T07:46:22.000Z</time>
      </trkpt>
      <trkpt lat="47.50133" lon="6.73102">
        <ele>340</ele>
        <time>2015-09-27T07:46:23.000Z</time>
      </trkpt>
      <trkpt lat="47.50136" lon="6.73102">
        <ele>340</ele>
        <time>2015-09-27T07:46:24.000Z</time>
      </trkpt>
      <trkpt lat="47.50139" lon="6.73102">
        <ele>340</ele>
        <time>2015-09-27T07:46:25.000Z</time>
      </trkpt>
      <trkpt lat="47.50142" lon="6.73102">
        <ele>340</ele>
        <time>2015-09-27T07:46:26.000Z</time>
      </trkpt>
      <trkpt lat="47.50144" lon="6.73103">
        <ele>340</ele>
        <time>2015-09-27T07:46:27.000Z</time>
      </trkpt>
      <trkpt lat="47.50147" lon="6.73103">
        <ele>340</ele>
        <time>2015-09-27T07:46:28.000Z</time>
      </trkpt>
      <trkpt lat="47.5015" lon="6.73103">
        <ele>340</ele>
        <time>2015-09-27T07:46:29.000Z</time>
      </trkpt>
      <trkpt lat="47.50152" lon="6.73102">
        <ele>340</ele>
        <time>2015-09-27T07:46:30.000Z</time>
      </trkpt>
      <trkpt lat="47.50154" lon="6.73102">
        <ele>340</ele>
        <time>2015-09-27T07:46:31.000Z</time>
      </trkpt>
      <trkpt lat="47.50157" lon="6.73103">
        <ele>340</ele>
        <time>2015-09-27T07:46:32.000Z</time>
      </trkpt>
      <trkpt lat="47.50161" lon="6.73105">
        <ele>340</ele>
        <time>2015-09-27T07:46:33.000Z</time>
      </trkpt>
      <trkpt lat="47.50164" lon="6.73109">
        <ele>340</ele>
        <time>2015-09-27T07:46:34.000Z</time>
      </trkpt>
      <trkpt lat="47.50167" lon="6.73113">
        <ele>341</ele>
        <time>2015-09-27T07:46:35.000Z</time>
      </trkpt>
      <trkpt lat="47.50169" lon="6.73116">
        <ele>341</ele>
        <time>2015-09-27T07:46:36.000Z</time>
      </trkpt>
      <trkpt lat="47.50171" lon="6.73119">
        <ele>341</ele>
        <time>2015-09-27T07:46:37.000Z</time>
      </trkpt>
      <trkpt lat="47.50175" lon="6.73121">
        <ele>341</ele>
        <time>2015-09-27T07:46:40.000Z</time>
      </trkpt>
      <trkpt lat="47.50177" lon="6.73121">
        <ele>341</ele>
        <time>2015-09-27T07:46:41.000Z</time>
      </trkpt>
      <trkpt lat="47.50179" lon="6.73121">
        <ele>341</ele>
        <time>2015-09-27T07:46:42.000Z</time>
      </trkpt>
      <trkpt lat="47.50182" lon="6.73119">
        <ele>341</ele>
        <time>2015-09-27T07:46:43.000Z</time>
      </trkpt>
      <trkpt lat="47.50184" lon="6.73115">
        <ele>341</ele>
        <time>2015-09-27T07:46:44.000Z</time>
      </trkpt>
      <trkpt lat="47.50187" lon="6.7311">
        <ele>341</ele>
        <time>2015-09-27T07:46:45.000Z</time>
      </trkpt>
      <trkpt lat="47.50189" lon="6.73104">
        <ele>341</ele>
        <time>2015-09-27T07:46:46.000Z</time>
      </trkpt>
      <trkpt lat="47.50192" lon="6.73093">
        <ele>341</ele>
        <time>2015-09-27T07:46:47.000Z</time>
      </trkpt>
      <trkpt lat="47.50195" lon="6.73087">
        <ele>341</ele>
        <time>2015-09-27T07:46:48.000Z</time>
      </trkpt>
      <trkpt lat="47.50197" lon="6.73081">
        <ele>340</ele>
        <time>2015-09-27T07:46:49.000Z</time>
      </trkpt>
      <trkpt lat="47.502" lon="6.73075">
        <ele>340</ele>
        <time>2015-09-27T07:46:50.000Z</time>
      </trkpt>
      <trkpt lat="47.50203" lon="6.73069">
        <ele>340</ele>
        <time>2015-09-27T07:46:51.000Z</time>
      </trkpt>
      <trkpt lat="47.50205" lon="6.73062">
        <ele>340</ele>
        <time>2015-09-27T07:46:51.999Z</time>
      </trkpt>
      <trkpt lat="47.50208" lon="6.73056">
        <ele>340</ele>
        <time>2015-09-27T07:46:53.000Z</time>
      </trkpt>
      <trkpt lat="47.50211" lon="6.7305">
        <ele>341</ele>
        <time>2015-09-27T07:46:54.000Z</time>
      </trkpt>
      <trkpt lat="47.50213" lon="6.73043">
        <ele>341</ele>
        <time>2015-09-27T07:46:55.000Z</time>
      </trkpt>
      <trkpt lat="47.50215" lon="6.73037">
        <ele>341</ele>
        <time>2015-09-27T07:46:56.000Z</time>
      </trkpt>
      <trkpt lat="47.50218" lon="6.73031">
        <ele>341</ele>
        <time>2015-09-27T07:46:57.000Z</time>
      </trkpt>
      <trkpt lat="47.50221" lon="6.73025">
        <ele>341</ele>
        <time>2015-09-27T07:46:58.000Z</time>
      </trkpt>
      <trkpt lat="47.50224" lon="6.7302">
        <ele>341</ele>
        <time>2015-09-27T07:46:59.000Z</time>
      </trkpt>
      <trkpt lat="47.50225" lon="6.73013">
        <ele>341</ele>
        <time>2015-09-27T07:47:00.000Z</time>
      </trkpt>
      <trkpt lat="47.50228" lon="6.73007">
        <ele>341</ele>
        <time>2015-09-27T07:47:01.000Z</time>
      </trkpt>
      <trkpt lat="47.5023" lon="6.73">
        <ele>340</ele>
        <time>2015-09-27T07:47:02.000Z</time>
      </trkpt>
      <trkpt lat="47.50232" lon="6.72993">
        <ele>340</ele>
        <time>2015-09-27T07:47:03.000Z</time>
      </trkpt>
      <trkpt lat="47.50236" lon="6.72987">
        <ele>340</ele>
        <time>2015-09-27T07:47:04.000Z</time>
      </trkpt>
      <trkpt lat="47.50239" lon="6.7298">
        <ele>340</ele>
        <time>2015-09-27T07:47:05.000Z</time>
      </trkpt>
      <trkpt lat="47.50241" lon="6.72973">
        <ele>340</ele>
        <time>2015-09-27T07:47:06.000Z</time>
      </trkpt>
      <trkpt lat="47.50244" lon="6.72966">
        <ele>340</ele>
        <time>2015-09-27T07:47:07.000Z</time>
      </trkpt>
      <trkpt lat="47.50247" lon="6.72959">
        <ele>340</ele>
        <time>2015-09-27T07:47:08.000Z</time>
      </trkpt>
      <trkpt lat="47.5025" lon="6.72953">
        <ele>340</ele>
        <time>2015-09-27T07:47:09.000Z</time>
      </trkpt>
      <trkpt lat="47.50253" lon="6.72946">
        <ele>341</ele>
        <time>2015-09-27T07:47:10.000Z</time>
      </trkpt>
      <trkpt lat="47.50256" lon="6.7294">
        <ele>341</ele>
        <time>2015-09-27T07:47:11.000Z</time>
      </trkpt>
      <trkpt lat="47.50258" lon="6.72933">
        <ele>341</ele>
        <time>2015-09-27T07:47:12.000Z</time>
      </trkpt>
      <trkpt lat="47.50261" lon="6.72928">
        <ele>341</ele>
        <time>2015-09-27T07:47:13.000Z</time>
      </trkpt>
      <trkpt lat="47.50263" lon="6.72922">
        <ele>341</ele>
        <time>2015-09-27T07:47:14.000Z</time>
      </trkpt>
      <trkpt lat="47.50265" lon="6.72917">
        <ele>341</ele>
        <time>2015-09-27T07:47:15.000Z</time>
      </trkpt>
      <trkpt lat="47.50266" lon="6.72916">
        <ele>341</ele>
        <time>2015-09-27T07:47:16.000Z</time>
      </trkpt>
      <trkpt lat="47.50268" lon="6.72911">
        <ele>341</ele>
        <time>2015-09-27T07:47:20.000Z</time>
      </trkpt>
      <trkpt lat="47.50269" lon="6.7291">
        <ele>341</ele>
        <time>2015-09-27T07:47:21.000Z</time>
      </trkpt>
      <trkpt lat="47.50271" lon="6.72905">
        <ele>341</ele>
        <time>2015-09-27T07:47:23.000Z</time>
      </trkpt>
      <trkpt lat="47.50272" lon="6.72903">
        <ele>341</ele>
        <time>2015-09-27T07:47:24.000Z</time>
      </trkpt>
      <trkpt lat="47.50273" lon="6.72899">
        <ele>341</ele>
        <time>2015-09-27T07:47:25.000Z</time>
      </trkpt>
      <trkpt lat="47.50275" lon="6.72895">
        <ele>341</ele>
        <time>2015-09-27T07:47:26.000Z</time>
      </trkpt>
      <trkpt lat="47.50278" lon="6.72892">
        <ele>341</ele>
        <time>2015-09-27T07:47:27.000Z</time>
      </trkpt>
      <trkpt lat="47.50282" lon="6.72891">
        <ele>341</ele>
        <time>2015-09-27T07:47:28.000Z</time>
      </trkpt>
      <trkpt lat="47.50287" lon="6.72892">
        <ele>341</ele>
        <time>2015-09-27T07:47:29.000Z</time>
      </trkpt>
      <trkpt lat="47.50291" lon="6.72894">
        <ele>341</ele>
        <time>2015-09-27T07:47:30.000Z</time>
      </trkpt>
      <trkpt lat="47.50296" lon="6.72896">
        <ele>342</ele>
        <time>2015-09-27T07:47:31.000Z</time>
      </trkpt>
      <trkpt lat="47.503" lon="6.72899">
        <ele>342</ele>
        <time>2015-09-27T07:47:32.000Z</time>
      </trkpt>
      <trkpt lat="47.50307" lon="6.72902">
        <ele>342</ele>
        <time>2015-09-27T07:47:33.000Z</time>
      </trkpt>
      <trkpt lat="47.50312" lon="6.72903">
        <ele>342</ele>
        <time>2015-09-27T07:47:34.000Z</time>
      </trkpt>
      <trkpt lat="47.50317" lon="6.72905">
        <ele>342</ele>
        <time>2015-09-27T07:47:35.000Z</time>
      </trkpt>
      <trkpt lat="47.50322" lon="6.72905">
        <ele>342</ele>
        <time>2015-09-27T07:47:36.000Z</time>
      </trkpt>
      <trkpt lat="47.50326" lon="6.72907">
        <ele>342</ele>
        <time>2015-09-27T07:47:37.000Z</time>
      </trkpt>
      <trkpt lat="47.50331" lon="6.72909">
        <ele>343</ele>
        <time>2015-09-27T07:47:38.000Z</time>
      </trkpt>
      <trkpt lat="47.50335" lon="6.72909">
        <ele>344</ele>
        <time>2015-09-27T07:47:39.000Z</time>
      </trkpt>
      <trkpt lat="47.5034" lon="6.7291">
        <ele>344</ele>
        <time>2015-09-27T07:47:40.000Z</time>
      </trkpt>
      <trkpt lat="47.50344" lon="6.72912">
        <ele>344</ele>
        <time>2015-09-27T07:47:41.000Z</time>
      </trkpt>
      <trkpt lat="47.50349" lon="6.72914">
        <ele>344</ele>
        <time>2015-09-27T07:47:42.000Z</time>
      </trkpt>
      <trkpt lat="47.50353" lon="6.72914">
        <ele>345</ele>
        <time>2015-09-27T07:47:43.000Z</time>
      </trkpt>
      <trkpt lat="47.50357" lon="6.72915">
        <ele>345</ele>
        <time>2015-09-27T07:47:44.000Z</time>
      </trkpt>
      <trkpt lat="47.50361" lon="6.72917">
        <ele>345</ele>
        <time>2015-09-27T07:47:45.000Z</time>
      </trkpt>
      <trkpt lat="47.50365" lon="6.72917">
        <ele>346</ele>
        <time>2015-09-27T07:47:46.000Z</time>
      </trkpt>
      <trkpt lat="47.50368" lon="6.72918">
        <ele>346</ele>
        <time>2015-09-27T07:47:47.000Z</time>
      </trkpt>
      <trkpt lat="47.50372" lon="6.72919">
        <ele>346</ele>
        <time>2015-09-27T07:47:48.000Z</time>
      </trkpt>
      <trkpt lat="47.50376" lon="6.72922">
        <ele>346</ele>
        <time>2015-09-27T07:47:49.000Z</time>
      </trkpt>
      <trkpt lat="47.5038" lon="6.72924">
        <ele>346</ele>
        <time>2015-09-27T07:47:50.000Z</time>
      </trkpt>
      <trkpt lat="47.50384" lon="6.72925">
        <ele>347</ele>
        <time>2015-09-27T07:47:51.000Z</time>
      </trkpt>
      <trkpt lat="47.50388" lon="6.72926">
        <ele>347</ele>
        <time>2015-09-27T07:47:52.000Z</time>
      </trkpt>
      <trkpt lat="47.50391" lon="6.72927">
        <ele>347</ele>
        <time>2015-09-27T07:47:53.000Z</time>
      </trkpt>
      <trkpt lat="47.50395" lon="6.72927">
        <ele>347</ele>
        <time>2015-09-27T07:47:54.000Z</time>
      </trkpt>
      <trkpt lat="47.50398" lon="6.72928">
        <ele>347</ele>
        <time>2015-09-27T07:47:55.000Z</time>
      </trkpt>
      <trkpt lat="47.50401" lon="6.72929">
        <ele>347</ele>
        <time>2015-09-27T07:47:56.000Z</time>
      </trkpt>
      <trkpt lat="47.50404" lon="6.72929">
        <ele>348</ele>
        <time>2015-09-27T07:47:57.000Z</time>
      </trkpt>
      <trkpt lat="47.50407" lon="6.7293">
        <ele>348</ele>
        <time>2015-09-27T07:47:58.000Z</time>
      </trkpt>
      <trkpt lat="47.5041" lon="6.72929">
        <ele>348</ele>
        <time>2015-09-27T07:47:59.000Z</time>
      </trkpt>
      <trkpt lat="47.50414" lon="6.7293">
        <ele>348</ele>
        <time>2015-09-27T07:48:00.000Z</time>
      </trkpt>
      <trkpt lat="47.50417" lon="6.7293">
        <ele>351</ele>
        <time>2015-09-27T07:48:01.000Z</time>
      </trkpt>
      <trkpt lat="47.50421" lon="6.7293">
        <ele>351</ele>
        <time>2015-09-27T07:48:02.000Z</time>
      </trkpt>
      <trkpt lat="47.50424" lon="6.7293">
        <ele>351</ele>
        <time>2015-09-27T07:48:03.000Z</time>
      </trkpt>
      <trkpt lat="47.50427" lon="6.7293">
        <ele>351</ele>
        <time>2015-09-27T07:48:04.000Z</time>
      </trkpt>
      <trkpt lat="47.5043" lon="6.7293">
        <ele>351</ele>
        <time>2015-09-27T07:48:05.000Z</time>
      </trkpt>
      <trkpt lat="47.50433" lon="6.7293">
        <ele>352</ele>
        <time>2015-09-27T07:48:06.000Z</time>
      </trkpt>
      <trkpt lat="47.50435" lon="6.7293">
        <ele>352</ele>
        <time>2015-09-27T07:48:07.000Z</time>
      </trkpt>
      <trkpt lat="47.50438" lon="6.7293">
        <ele>352</ele>
        <time>2015-09-27T07:48:08.000Z</time>
      </trkpt>
      <trkpt lat="47.50441" lon="6.72931">
        <ele>352</ele>
        <time>2015-09-27T07:48:09.000Z</time>
      </trkpt>
      <trkpt lat="47.50443" lon="6.72931">
        <ele>352</ele>
        <time>2015-09-27T07:48:10.000Z</time>
      </trkpt>
      <trkpt lat="47.50446" lon="6.72931">
        <ele>352</ele>
        <time>2015-09-27T07:48:11.000Z</time>
      </trkpt>
      <trkpt lat="47.50448" lon="6.72931">
        <ele>353</ele>
        <time>2015-09-27T07:48:12.000Z</time>
      </trkpt>
      <trkpt lat="47.5045" lon="6.72931">
        <ele>353</ele>
        <time>2015-09-27T07:48:13.000Z</time>
      </trkpt>
      <trkpt lat="47.50453" lon="6.72931">
        <ele>353</ele>
        <time>2015-09-27T07:48:14.000Z</time>
      </trkpt>
      <trkpt lat="47.50456" lon="6.7293">
        <ele>353</ele>
        <time>2015-09-27T07:48:15.000Z</time>
      </trkpt>
      <trkpt lat="47.5046" lon="6.72929">
        <ele>353</ele>
        <time>2015-09-27T07:48:16.000Z</time>
      </trkpt>
      <trkpt lat="47.50463" lon="6.72928">
        <ele>354</ele>
        <time>2015-09-27T07:48:17.000Z</time>
      </trkpt>
      <trkpt lat="47.50465" lon="6.72926">
        <ele>354</ele>
        <time>2015-09-27T07:48:18.000Z</time>
      </trkpt>
      <trkpt lat="47.50468" lon="6.72923">
        <ele>354</ele>
        <time>2015-09-27T07:48:19.000Z</time>
      </trkpt>
      <trkpt lat="47.5047" lon="6.7292">
        <ele>354</ele>
        <time>2015-09-27T07:48:20.000Z</time>
      </trkpt>
      <trkpt lat="47.50472" lon="6.72916">
        <ele>354</ele>
        <time>2015-09-27T07:48:21.000Z</time>
      </trkpt>
      <trkpt lat="47.50475" lon="6.72913">
        <ele>354</ele>
        <time>2015-09-27T07:48:22.000Z</time>
      </trkpt>
      <trkpt lat="47.50477" lon="6.72909">
        <ele>354</ele>
        <time>2015-09-27T07:48:23.000Z</time>
      </trkpt>
      <trkpt lat="47.50479" lon="6.72906">
        <ele>354</ele>
        <time>2015-09-27T07:48:24.000Z</time>
      </trkpt>
      <trkpt lat="47.50481" lon="6.72902">
        <ele>354</ele>
        <time>2015-09-27T07:48:25.000Z</time>
      </trkpt>
      <trkpt lat="47.50484" lon="6.72899">
        <ele>354</ele>
        <time>2015-09-27T07:48:26.000Z</time>
      </trkpt>
      <trkpt lat="47.50486" lon="6.72896">
        <ele>354</ele>
        <time>2015-09-27T07:48:27.000Z</time>
      </trkpt>
      <trkpt lat="47.50488" lon="6.72893">
        <ele>354</ele>
        <time>2015-09-27T07:48:28.000Z</time>
      </trkpt>
      <trkpt lat="47.50491" lon="6.7289">
        <ele>354</ele>
        <time>2015-09-27T07:48:29.000Z</time>
      </trkpt>
      <trkpt lat="47.50493" lon="6.72888">
        <ele>354</ele>
        <time>2015-09-27T07:48:30.000Z</time>
      </trkpt>
      <trkpt lat="47.50496" lon="6.72885">
        <ele>354</ele>
        <time>2015-09-27T07:48:31.000Z</time>
      </trkpt>
      <trkpt lat="47.50498" lon="6.72883">
        <ele>354</ele>
        <time>2015-09-27T07:48:32.000Z</time>
      </trkpt>
      <trkpt lat="47.50499" lon="6.72881">
        <ele>354</ele>
        <time>2015-09-27T07:48:33.000Z</time>
      </trkpt>
      <trkpt lat="47.50501" lon="6.72879">
        <ele>362</ele>
        <time>2015-09-27T07:48:34.000Z</time>
      </trkpt>
      <trkpt lat="47.50504" lon="6.72874">
        <ele>362</ele>
        <time>2015-09-27T07:48:36.000Z</time>
      </trkpt>
      <trkpt lat="47.50506" lon="6.72872">
        <ele>362</ele>
        <time>2015-09-27T07:48:37.000Z</time>
      </trkpt>
      <trkpt lat="47.50508" lon="6.72867">
        <ele>362</ele>
        <time>2015-09-27T07:48:39.000Z</time>
      </trkpt>
      <trkpt lat="47.5051" lon="6.72864">
        <ele>362</ele>
        <time>2015-09-27T07:48:40.000Z</time>
      </trkpt>
      <trkpt lat="47.50512" lon="6.72859">
        <ele>362</ele>
        <time>2015-09-27T07:48:42.000Z</time>
      </trkpt>
      <trkpt lat="47.50514" lon="6.72857">
        <ele>362</ele>
        <time>2015-09-27T07:48:43.000Z</time>
      </trkpt>
      <trkpt lat="47.50518" lon="6.72854">
        <ele>362</ele>
        <time>2015-09-27T07:48:45.000Z</time>
      </trkpt>
      <trkpt lat="47.5052" lon="6.72853">
        <ele>363</ele>
        <time>2015-09-27T07:48:46.000Z</time>
      </trkpt>
      <trkpt lat="47.50522" lon="6.72852">
        <ele>363</ele>
        <time>2015-09-27T07:48:47.000Z</time>
      </trkpt>
      <trkpt lat="47.50524" lon="6.7285">
        <ele>363</ele>
        <time>2015-09-27T07:48:48.000Z</time>
      </trkpt>
      <trkpt lat="47.50526" lon="6.72849">
        <ele>363</ele>
        <time>2015-09-27T07:48:49.000Z</time>
      </trkpt>
      <trkpt lat="47.50528" lon="6.72847">
        <ele>363</ele>
        <time>2015-09-27T07:48:50.000Z</time>
      </trkpt>
      <trkpt lat="47.5053" lon="6.72845">
        <ele>364</ele>
        <time>2015-09-27T07:48:51.000Z</time>
      </trkpt>
      <trkpt lat="47.50532" lon="6.72844">
        <ele>364</ele>
        <time>2015-09-27T07:48:52.000Z</time>
      </trkpt>
      <trkpt lat="47.50536" lon="6.7284">
        <ele>364</ele>
        <time>2015-09-27T07:48:54.000Z</time>
      </trkpt>
      <trkpt lat="47.50538" lon="6.72839">
        <ele>364</ele>
        <time>2015-09-27T07:48:55.000Z</time>
      </trkpt>
      <trkpt lat="47.50541" lon="6.72836">
        <ele>365</ele>
        <time>2015-09-27T07:48:57.000Z</time>
      </trkpt>
      <trkpt lat="47.50543" lon="6.72834">
        <ele>365</ele>
        <time>2015-09-27T07:48:58.000Z</time>
      </trkpt>
      <trkpt lat="47.50547" lon="6.72831">
        <ele>364</ele>
        <time>2015-09-27T07:49:00.000Z</time>
      </trkpt>
      <trkpt lat="47.50549" lon="6.7283">
        <ele>364</ele>
        <time>2015-09-27T07:49:01.000Z</time>
      </trkpt>
      <trkpt lat="47.50552" lon="6.72827">
        <ele>365</ele>
        <time>2015-09-27T07:49:03.000Z</time>
      </trkpt>
      <trkpt lat="47.50554" lon="6.72826">
        <ele>365</ele>
        <time>2015-09-27T07:49:04.000Z</time>
      </trkpt>
      <trkpt lat="47.50556" lon="6.72823">
        <ele>365</ele>
        <time>2015-09-27T07:49:06.000Z</time>
      </trkpt>
      <trkpt lat="47.50558" lon="6.72821">
        <ele>365</ele>
        <time>2015-09-27T07:49:07.000Z</time>
      </trkpt>
      <trkpt lat="47.50561" lon="6.72818">
        <ele>366</ele>
        <time>2015-09-27T07:49:09.000Z</time>
      </trkpt>
      <trkpt lat="47.50562" lon="6.72816">
        <ele>366</ele>
        <time>2015-09-27T07:49:10.000Z</time>
      </trkpt>
      <trkpt lat="47.50564" lon="6.72811">
        <ele>365</ele>
        <time>2015-09-27T07:49:12.000Z</time>
      </trkpt>
      <trkpt lat="47.50565" lon="6.72808">
        <ele>365</ele>
        <time>2015-09-27T07:49:13.000Z</time>
      </trkpt>
      <trkpt lat="47.50568" lon="6.72805">
        <ele>365</ele>
        <time>2015-09-27T07:49:15.000Z</time>
      </trkpt>
      <trkpt lat="47.5057" lon="6.72804">
        <ele>366</ele>
        <time>2015-09-27T07:49:16.000Z</time>
      </trkpt>
      <trkpt lat="47.50573" lon="6.72802">
        <ele>366</ele>
        <time>2015-09-27T07:49:17.000Z</time>
      </trkpt>
      <trkpt lat="47.50575" lon="6.728">
        <ele>366</ele>
        <time>2015-09-27T07:49:18.000Z</time>
      </trkpt>
      <trkpt lat="47.50577" lon="6.72799">
        <ele>366</ele>
        <time>2015-09-27T07:49:19.000Z</time>
      </trkpt>
      <trkpt lat="47.50579" lon="6.72798">
        <ele>366</ele>
        <time>2015-09-27T07:49:20.000Z</time>
      </trkpt>
      <trkpt lat="47.50581" lon="6.72796">
        <ele>366</ele>
        <time>2015-09-27T07:49:21.000Z</time>
      </trkpt>
      <trkpt lat="47.50583" lon="6.72795">
        <ele>366</ele>
        <time>2015-09-27T07:49:22.000Z</time>
      </trkpt>
      <trkpt lat="47.50585" lon="6.72794">
        <ele>376</ele>
        <time>2015-09-27T07:49:23.000Z</time>
      </trkpt>
      <trkpt lat="47.50587" lon="6.72792">
        <ele>376</ele>
        <time>2015-09-27T07:49:24.000Z</time>
      </trkpt>
      <trkpt lat="47.50589" lon="6.72791">
        <ele>376</ele>
        <time>2015-09-27T07:49:25.000Z</time>
      </trkpt>
      <trkpt lat="47.50591" lon="6.72789">
        <ele>376</ele>
        <time>2015-09-27T07:49:26.000Z</time>
      </trkpt>
      <trkpt lat="47.50593" lon="6.72788">
        <ele>376</ele>
        <time>2015-09-27T07:49:27.000Z</time>
      </trkpt>
      <trkpt lat="47.50596" lon="6.72787">
        <ele>377</ele>
        <time>2015-09-27T07:49:28.000Z</time>
      </trkpt>
      <trkpt lat="47.50598" lon="6.72786">
        <ele>377</ele>
        <time>2015-09-27T07:49:29.000Z</time>
      </trkpt>
      <trkpt lat="47.50601" lon="6.72785">
        <ele>377</ele>
        <time>2015-09-27T07:49:30.000Z</time>
      </trkpt>
      <trkpt lat="47.50604" lon="6.72784">
        <ele>377</ele>
        <time>2015-09-27T07:49:31.000Z</time>
      </trkpt>
      <trkpt lat="47.50606" lon="6.72783">
        <ele>377</ele>
        <time>2015-09-27T07:49:32.000Z</time>
      </trkpt>
      <trkpt lat="47.5061" lon="6.7278">
        <ele>378</ele>
        <time>2015-09-27T07:49:34.000Z</time>
      </trkpt>
      <trkpt lat="47.50612" lon="6.72779">
        <ele>378</ele>
        <time>2015-09-27T07:49:35.000Z</time>
      </trkpt>
      <trkpt lat="47.50614" lon="6.72775">
        <ele>378</ele>
        <time>2015-09-27T07:49:37.000Z</time>
      </trkpt>
      <trkpt lat="47.50616" lon="6.72773">
        <ele>378</ele>
        <time>2015-09-27T07:49:38.000Z</time>
      </trkpt>
      <trkpt lat="47.50618" lon="6.7277">
        <ele>378</ele>
        <time>2015-09-27T07:49:40.000Z</time>
      </trkpt>
      <trkpt lat="47.50619" lon="6.72768">
        <ele>379</ele>
        <time>2015-09-27T07:49:41.000Z</time>
      </trkpt>
      <trkpt lat="47.50622" lon="6.72764">
        <ele>379</ele>
        <time>2015-09-27T07:49:43.000Z</time>
      </trkpt>
      <trkpt lat="47.50623" lon="6.72762">
        <ele>379</ele>
        <time>2015-09-27T07:49:44.000Z</time>
      </trkpt>
      <trkpt lat="47.50626" lon="6.72759">
        <ele>380</ele>
        <time>2015-09-27T07:49:46.000Z</time>
      </trkpt>
      <trkpt lat="47.50628" lon="6.72757">
        <ele>380</ele>
        <time>2015-09-27T07:49:47.000Z</time>
      </trkpt>
      <trkpt lat="47.50631" lon="6.72752">
        <ele>380</ele>
        <time>2015-09-27T07:49:49.000Z</time>
      </trkpt>
      <trkpt lat="47.50632" lon="6.7275">
        <ele>380</ele>
        <time>2015-09-27T07:49:50.000Z</time>
      </trkpt>
      <trkpt lat="47.50634" lon="6.72745">
        <ele>378</ele>
        <time>2015-09-27T07:49:52.000Z</time>
      </trkpt>
      <trkpt lat="47.50636" lon="6.72743">
        <ele>378</ele>
        <time>2015-09-27T07:49:53.000Z</time>
      </trkpt>
      <trkpt lat="47.50639" lon="6.72739">
        <ele>378</ele>
        <time>2015-09-27T07:49:55.000Z</time>
      </trkpt>
      <trkpt lat="47.5064" lon="6.72737">
        <ele>379</ele>
        <time>2015-09-27T07:49:56.000Z</time>
      </trkpt>
      <trkpt lat="47.50643" lon="6.72734">
        <ele>379</ele>
        <time>2015-09-27T07:49:58.000Z</time>
      </trkpt>
      <trkpt lat="47.50645" lon="6.72732">
        <ele>379</ele>
        <time>2015-09-27T07:49:59.000Z</time>
      </trkpt>
      <trkpt lat="47.50648" lon="6.72727">
        <ele>379</ele>
        <time>2015-09-27T07:50:01.000Z</time>
      </trkpt>
      <trkpt lat="47.5065" lon="6.72725">
        <ele>379</ele>
        <time>2015-09-27T07:50:02.000Z</time>
      </trkpt>
      <trkpt lat="47.50652" lon="6.72724">
        <ele>379</ele>
        <time>2015-09-27T07:50:03.000Z</time>
      </trkpt>
      <trkpt lat="47.50654" lon="6.72722">
        <ele>379</ele>
        <time>2015-09-27T07:50:04.000Z</time>
      </trkpt>
      <trkpt lat="47.50658" lon="6.72718">
        <ele>379</ele>
        <time>2015-09-27T07:50:06.000Z</time>
      </trkpt>
      <trkpt lat="47.50659" lon="6.72717">
        <ele>379</ele>
        <time>2015-09-27T07:50:07.000Z</time>
      </trkpt>
      <trkpt lat="47.50661" lon="6.72713">
        <ele>379</ele>
        <time>2015-09-27T07:50:09.000Z</time>
      </trkpt>
      <trkpt lat="47.50663" lon="6.7271">
        <ele>378</ele>
        <time>2015-09-27T07:50:10.000Z</time>
      </trkpt>
      <trkpt lat="47.50666" lon="6.72706">
        <ele>378</ele>
        <time>2015-09-27T07:50:12.000Z</time>
      </trkpt>
      <trkpt lat="47.50668" lon="6.72703">
        <ele>389</ele>
        <time>2015-09-27T07:50:13.000Z</time>
      </trkpt>
      <trkpt lat="47.5067" lon="6.72701">
        <ele>389</ele>
        <time>2015-09-27T07:50:14.000Z</time>
      </trkpt>
      <trkpt lat="47.50673" lon="6.72699">
        <ele>389</ele>
        <time>2015-09-27T07:50:15.000Z</time>
      </trkpt>
      <trkpt lat="47.50676" lon="6.72697">
        <ele>389</ele>
        <time>2015-09-27T07:50:16.000Z</time>
      </trkpt>
      <trkpt lat="47.50678" lon="6.72695">
        <ele>389</ele>
        <time>2015-09-27T07:50:17.000Z</time>
      </trkpt>
      <trkpt lat="47.5068" lon="6.72691">
        <ele>388</ele>
        <time>2015-09-27T07:50:19.000Z</time>
      </trkpt>
      <trkpt lat="47.50681" lon="6.72689">
        <ele>388</ele>
        <time>2015-09-27T07:50:20.000Z</time>
      </trkpt>
      <trkpt lat="47.50683" lon="6.72685">
        <ele>388</ele>
        <time>2015-09-27T07:50:22.000Z</time>
      </trkpt>
      <trkpt lat="47.50684" lon="6.72683">
        <ele>388</ele>
        <time>2015-09-27T07:50:23.000Z</time>
      </trkpt>
      <trkpt lat="47.50687" lon="6.72678">
        <ele>388</ele>
        <time>2015-09-27T07:50:25.000Z</time>
      </trkpt>
      <trkpt lat="47.50688" lon="6.72676">
        <ele>388</ele>
        <time>2015-09-27T07:50:26.000Z</time>
      </trkpt>
      <trkpt lat="47.50691" lon="6.72672">
        <ele>388</ele>
        <time>2015-09-27T07:50:28.000Z</time>
      </trkpt>
      <trkpt lat="47.50692" lon="6.7267">
        <ele>388</ele>
        <time>2015-09-27T07:50:29.000Z</time>
      </trkpt>
      <trkpt lat="47.50696" lon="6.72667">
        <ele>389</ele>
        <time>2015-09-27T07:50:31.000Z</time>
      </trkpt>
      <trkpt lat="47.50699" lon="6.72665">
        <ele>385</ele>
        <time>2015-09-27T07:50:32.000Z</time>
      </trkpt>
      <trkpt lat="47.50702" lon="6.72662">
        <ele>385</ele>
        <time>2015-09-27T07:50:33.000Z</time>
      </trkpt>
      <trkpt lat="47.50704" lon="6.7266">
        <ele>386</ele>
        <time>2015-09-27T07:50:34.000Z</time>
      </trkpt>
      <trkpt lat="47.50707" lon="6.72657">
        <ele>386</ele>
        <time>2015-09-27T07:50:35.000Z</time>
      </trkpt>
      <trkpt lat="47.5071" lon="6.72654">
        <ele>386</ele>
        <time>2015-09-27T07:50:36.000Z</time>
      </trkpt>
      <trkpt lat="47.50713" lon="6.72651">
        <ele>386</ele>
        <time>2015-09-27T07:50:37.000Z</time>
      </trkpt>
      <trkpt lat="47.50716" lon="6.72648">
        <ele>387</ele>
        <time>2015-09-27T07:50:38.000Z</time>
      </trkpt>
      <trkpt lat="47.50718" lon="6.72645">
        <ele>387</ele>
        <time>2015-09-27T07:50:39.000Z</time>
      </trkpt>
      <trkpt lat="47.5072" lon="6.72642">
        <ele>387</ele>
        <time>2015-09-27T07:50:40.000Z</time>
      </trkpt>
      <trkpt lat="47.50722" lon="6.72639">
        <ele>387</ele>
        <time>2015-09-27T07:50:41.000Z</time>
      </trkpt>
      <trkpt lat="47.50724" lon="6.72636">
        <ele>387</ele>
        <time>2015-09-27T07:50:42.000Z</time>
      </trkpt>
      <trkpt lat="47.50727" lon="6.72633">
        <ele>387</ele>
        <time>2015-09-27T07:50:43.000Z</time>
      </trkpt>
      <trkpt lat="47.50729" lon="6.7263">
        <ele>387</ele>
        <time>2015-09-27T07:50:44.000Z</time>
      </trkpt>
      <trkpt lat="47.50731" lon="6.72627">
        <ele>387</ele>
        <time>2015-09-27T07:50:45.000Z</time>
      </trkpt>
      <trkpt lat="47.50734" lon="6.72624">
        <ele>387</ele>
        <time>2015-09-27T07:50:46.000Z</time>
      </trkpt>
      <trkpt lat="47.50736" lon="6.72621">
        <ele>387</ele>
        <time>2015-09-27T07:50:47.000Z</time>
      </trkpt>
      <trkpt lat="47.50739" lon="6.72618">
        <ele>387</ele>
        <time>2015-09-27T07:50:48.000Z</time>
      </trkpt>
      <trkpt lat="47.50742" lon="6.72615">
        <ele>387</ele>
        <time>2015-09-27T07:50:49.000Z</time>
      </trkpt>
      <trkpt lat="47.50744" lon="6.72612">
        <ele>387</ele>
        <time>2015-09-27T07:50:50.000Z</time>
      </trkpt>
      <trkpt lat="47.50746" lon="6.72609">
        <ele>387</ele>
        <time>2015-09-27T07:50:51.000Z</time>
      </trkpt>
      <trkpt lat="47.50748" lon="6.72606">
        <ele>387</ele>
        <time>2015-09-27T07:50:52.000Z</time>
      </trkpt>
      <trkpt lat="47.5075" lon="6.72603">
        <ele>387</ele>
        <time>2015-09-27T07:50:53.000Z</time>
      </trkpt>
      <trkpt lat="47.50751" lon="6.72601">
        <ele>394</ele>
        <time>2015-09-27T07:50:54.000Z</time>
      </trkpt>
      <trkpt lat="47.50753" lon="6.72598">
        <ele>393</ele>
        <time>2015-09-27T07:50:55.000Z</time>
      </trkpt>
      <trkpt lat="47.50754" lon="6.72595">
        <ele>393</ele>
        <time>2015-09-27T07:50:56.000Z</time>
      </trkpt>
      <trkpt lat="47.50756" lon="6.72593">
        <ele>392</ele>
        <time>2015-09-27T07:50:57.000Z</time>
      </trkpt>
      <trkpt lat="47.50757" lon="6.7259">
        <ele>392</ele>
        <time>2015-09-27T07:50:58.000Z</time>
      </trkpt>
      <trkpt lat="47.5076" lon="6.72585">
        <ele>392</ele>
        <time>2015-09-27T07:51:00.000Z</time>
      </trkpt>
      <trkpt lat="47.50762" lon="6.72583">
        <ele>389</ele>
        <time>2015-09-27T07:51:01.000Z</time>
      </trkpt>
      <trkpt lat="47.50765" lon="6.7258">
        <ele>389</ele>
        <time>2015-09-27T07:51:02.000Z</time>
      </trkpt>
      <trkpt lat="47.50767" lon="6.72578">
        <ele>390</ele>
        <time>2015-09-27T07:51:03.000Z</time>
      </trkpt>
      <trkpt lat="47.5077" lon="6.72575">
        <ele>390</ele>
        <time>2015-09-27T07:51:04.000Z</time>
      </trkpt>
      <trkpt lat="47.50773" lon="6.72571">
        <ele>390</ele>
        <time>2015-09-27T07:51:05.000Z</time>
      </trkpt>
      <trkpt lat="47.50776" lon="6.72568">
        <ele>390</ele>
        <time>2015-09-27T07:51:06.000Z</time>
      </trkpt>
      <trkpt lat="47.50779" lon="6.72564">
        <ele>390</ele>
        <time>2015-09-27T07:51:07.000Z</time>
      </trkpt>
      <trkpt lat="47.50781" lon="6.7256">
        <ele>390</ele>
        <time>2015-09-27T07:51:08.000Z</time>
      </trkpt>
      <trkpt lat="47.50784" lon="6.72557">
        <ele>390</ele>
        <time>2015-09-27T07:51:09.000Z</time>
      </trkpt>
      <trkpt lat="47.50786" lon="6.72554">
        <ele>390</ele>
        <time>2015-09-27T07:51:10.000Z</time>
      </trkpt>
      <trkpt lat="47.50789" lon="6.72551">
        <ele>391</ele>
        <time>2015-09-27T07:51:11.000Z</time>
      </trkpt>
      <trkpt lat="47.50791" lon="6.72547">
        <ele>391</ele>
        <time>2015-09-27T07:51:12.000Z</time>
      </trkpt>
      <trkpt lat="47.50794" lon="6.72544">
        <ele>391</ele>
        <time>2015-09-27T07:51:13.000Z</time>
      </trkpt>
      <trkpt lat="47.50797" lon="6.72541">
        <ele>391</ele>
        <time>2015-09-27T07:51:14.000Z</time>
      </trkpt>
      <trkpt lat="47.508" lon="6.72539">
        <ele>391</ele>
        <time>2015-09-27T07:51:15.000Z</time>
      </trkpt>
      <trkpt lat="47.50804" lon="6.72536">
        <ele>391</ele>
        <time>2015-09-27T07:51:16.000Z</time>
      </trkpt>
      <trkpt lat="47.50808" lon="6.72533">
        <ele>391</ele>
        <time>2015-09-27T07:51:17.000Z</time>
      </trkpt>
      <trkpt lat="47.50812" lon="6.72531">
        <ele>391</ele>
        <time>2015-09-27T07:51:18.000Z</time>
      </trkpt>
      <trkpt lat="47.50816" lon="6.72529">
        <ele>391</ele>
        <time>2015-09-27T07:51:19.000Z</time>
      </trkpt>
      <trkpt lat="47.5082" lon="6.72527">
        <ele>391</ele>
        <time>2015-09-27T07:51:20.000Z</time>
      </trkpt>
      <trkpt lat="47.50824" lon="6.72525">
        <ele>391</ele>
        <time>2015-09-27T07:51:21.000Z</time>
      </trkpt>
      <trkpt lat="47.50827" lon="6.72523">
        <ele>391</ele>
        <time>2015-09-27T07:51:22.000Z</time>
      </trkpt>
      <trkpt lat="47.50829" lon="6.72521">
        <ele>391</ele>
        <time>2015-09-27T07:51:23.000Z</time>
      </trkpt>
      <trkpt lat="47.50831" lon="6.72519">
        <ele>391</ele>
        <time>2015-09-27T07:51:24.000Z</time>
      </trkpt>
      <trkpt lat="47.50834" lon="6.72517">
        <ele>397</ele>
        <time>2015-09-27T07:51:25.000Z</time>
      </trkpt>
      <trkpt lat="47.50836" lon="6.72515">
        <ele>397</ele>
        <time>2015-09-27T07:51:26.000Z</time>
      </trkpt>
      <trkpt lat="47.50838" lon="6.72514">
        <ele>396</ele>
        <time>2015-09-27T07:51:27.000Z</time>
      </trkpt>
      <trkpt lat="47.50841" lon="6.72513">
        <ele>396</ele>
        <time>2015-09-27T07:51:28.000Z</time>
      </trkpt>
      <trkpt lat="47.50843" lon="6.72511">
        <ele>396</ele>
        <time>2015-09-27T07:51:29.000Z</time>
      </trkpt>
      <trkpt lat="47.50845" lon="6.7251">
        <ele>397</ele>
        <time>2015-09-27T07:51:30.000Z</time>
      </trkpt>
      <trkpt lat="47.50847" lon="6.72508">
        <ele>397</ele>
        <time>2015-09-27T07:51:31.000Z</time>
      </trkpt>
      <trkpt lat="47.5085" lon="6.72507">
        <ele>397</ele>
        <time>2015-09-27T07:51:32.000Z</time>
      </trkpt>
      <trkpt lat="47.50852" lon="6.72506">
        <ele>398</ele>
        <time>2015-09-27T07:51:33.000Z</time>
      </trkpt>
      <trkpt lat="47.50854" lon="6.72504">
        <ele>398</ele>
        <time>2015-09-27T07:51:34.000Z</time>
      </trkpt>
      <trkpt lat="47.50856" lon="6.72502">
        <ele>398</ele>
        <time>2015-09-27T07:51:35.000Z</time>
      </trkpt>
      <trkpt lat="47.50858" lon="6.72501">
        <ele>399</ele>
        <time>2015-09-27T07:51:36.000Z</time>
      </trkpt>
      <trkpt lat="47.5086" lon="6.72499">
        <ele>393</ele>
        <time>2015-09-27T07:51:37.000Z</time>
      </trkpt>
      <trkpt lat="47.50864" lon="6.72498">
        <ele>394</ele>
        <time>2015-09-27T07:51:39.000Z</time>
      </trkpt>
      <trkpt lat="47.50865" lon="6.72497">
        <ele>394</ele>
        <time>2015-09-27T07:51:40.000Z</time>
      </trkpt>
      <trkpt lat="47.50868" lon="6.72497">
        <ele>394</ele>
        <time>2015-09-27T07:51:42.000Z</time>
      </trkpt>
      <trkpt lat="47.5087" lon="6.72497">
        <ele>394</ele>
        <time>2015-09-27T07:51:43.000Z</time>
      </trkpt>
      <trkpt lat="47.50874" lon="6.72495">
        <ele>395</ele>
        <time>2015-09-27T07:51:46.000Z</time>
      </trkpt>
      <trkpt lat="47.50876" lon="6.72495">
        <ele>395</ele>
        <time>2015-09-27T07:51:47.000Z</time>
      </trkpt>
      <trkpt lat="47.5088" lon="6.72493">
        <ele>396</ele>
        <time>2015-09-27T07:51:49.000Z</time>
      </trkpt>
      <trkpt lat="47.50882" lon="6.72493">
        <ele>396</ele>
        <time>2015-09-27T07:51:50.000Z</time>
      </trkpt>
      <trkpt lat="47.50886" lon="6.72491">
        <ele>397</ele>
        <time>2015-09-27T07:51:52.000Z</time>
      </trkpt>
      <trkpt lat="47.50887" lon="6.7249">
        <ele>397</ele>
        <time>2015-09-27T07:51:53.000Z</time>
      </trkpt>
      <trkpt lat="47.50891" lon="6.72487">
        <ele>397</ele>
        <time>2015-09-27T07:51:55.000Z</time>
      </trkpt>
      <trkpt lat="47.50893" lon="6.72486">
        <ele>397</ele>
        <time>2015-09-27T07:51:56.000Z</time>
      </trkpt>
      <trkpt lat="47.50897" lon="6.72484">
        <ele>398</ele>
        <time>2015-09-27T07:51:58.000Z</time>
      </trkpt>
      <trkpt lat="47.50898" lon="6.72483">
        <ele>398</ele>
        <time>2015-09-27T07:51:59.000Z</time>
      </trkpt>
      <trkpt lat="47.50902" lon="6.72481">
        <ele>398</ele>
        <time>2015-09-27T07:52:01.000Z</time>
      </trkpt>
      <trkpt lat="47.50903" lon="6.7248">
        <ele>398</ele>
        <time>2015-09-27T07:52:02.000Z</time>
      </trkpt>
      <trkpt lat="47.50907" lon="6.72479">
        <ele>398</ele>
        <time>2015-09-27T07:52:04.000Z</time>
      </trkpt>
      <trkpt lat="47.50909" lon="6.72479">
        <ele>399</ele>
        <time>2015-09-27T07:52:05.000Z</time>
      </trkpt>
      <trkpt lat="47.50912" lon="6.72478">
        <ele>399</ele>
        <time>2015-09-27T07:52:07.000Z</time>
      </trkpt>
      <trkpt lat="47.50914" lon="6.72478">
        <ele>399</ele>
        <time>2015-09-27T07:52:08.000Z</time>
      </trkpt>
      <trkpt lat="47.50917" lon="6.72477">
        <ele>406</ele>
        <time>2015-09-27T07:52:10.000Z</time>
      </trkpt>
      <trkpt lat="47.50919" lon="6.72477">
        <ele>406</ele>
        <time>2015-09-27T07:52:11.000Z</time>
      </trkpt>
      <trkpt lat="47.50923" lon="6.72477">
        <ele>406</ele>
        <time>2015-09-27T07:52:13.000Z</time>
      </trkpt>
      <trkpt lat="47.50924" lon="6.72477">
        <ele>406</ele>
        <time>2015-09-27T07:52:14.000Z</time>
      </trkpt>
      <trkpt lat="47.50928" lon="6.72477">
        <ele>406</ele>
        <time>2015-09-27T07:52:16.000Z</time>
      </trkpt>
      <trkpt lat="47.5093" lon="6.72478">
        <ele>406</ele>
        <time>2015-09-27T07:52:17.000Z</time>
      </trkpt>
      <trkpt lat="47.50933" lon="6.72477">
        <ele>406</ele>
        <time>2015-09-27T07:52:19.000Z</time>
      </trkpt>
      <trkpt lat="47.50934" lon="6.72476">
        <ele>406</ele>
        <time>2015-09-27T07:52:20.000Z</time>
      </trkpt>
      <trkpt lat="47.50938" lon="6.72475">
        <ele>406</ele>
        <time>2015-09-27T07:52:23.000Z</time>
      </trkpt>
      <trkpt lat="47.5094" lon="6.72475">
        <ele>406</ele>
        <time>2015-09-27T07:52:24.000Z</time>
      </trkpt>
      <trkpt lat="47.50942" lon="6.72476">
        <ele>406</ele>
        <time>2015-09-27T07:52:25.000Z</time>
      </trkpt>
      <trkpt lat="47.50944" lon="6.72476">
        <ele>407</ele>
        <time>2015-09-27T07:52:26.000Z</time>
      </trkpt>
      <trkpt lat="47.50947" lon="6.72477">
        <ele>407</ele>
        <time>2015-09-27T07:52:27.000Z</time>
      </trkpt>
      <trkpt lat="47.5095" lon="6.72478">
        <ele>407</ele>
        <time>2015-09-27T07:52:28.000Z</time>
      </trkpt>
      <trkpt lat="47.50953" lon="6.72478">
        <ele>407</ele>
        <time>2015-09-27T07:52:29.000Z</time>
      </trkpt>
      <trkpt lat="47.50955" lon="6.72478">
        <ele>407</ele>
        <time>2015-09-27T07:52:30.000Z</time>
      </trkpt>
      <trkpt lat="47.50959" lon="6.72478">
        <ele>408</ele>
        <time>2015-09-27T07:52:32.000Z</time>
      </trkpt>
      <trkpt lat="47.50961" lon="6.72478">
        <ele>408</ele>
        <time>2015-09-27T07:52:33.000Z</time>
      </trkpt>
      <trkpt lat="47.50965" lon="6.72476">
        <ele>408</ele>
        <time>2015-09-27T07:52:35.000Z</time>
      </trkpt>
      <trkpt lat="47.50967" lon="6.72475">
        <ele>408</ele>
        <time>2015-09-27T07:52:36.000Z</time>
      </trkpt>
      <trkpt lat="47.5097" lon="6.72473">
        <ele>408</ele>
        <time>2015-09-27T07:52:38.000Z</time>
      </trkpt>
      <trkpt lat="47.50971" lon="6.72472">
        <ele>408</ele>
        <time>2015-09-27T07:52:39.000Z</time>
      </trkpt>
      <trkpt lat="47.50974" lon="6.7247">
        <ele>408</ele>
        <time>2015-09-27T07:52:41.000Z</time>
      </trkpt>
      <trkpt lat="47.50975" lon="6.72468">
        <ele>408</ele>
        <time>2015-09-27T07:52:42.000Z</time>
      </trkpt>
      <trkpt lat="47.50978" lon="6.72466">
        <ele>408</ele>
        <time>2015-09-27T07:52:44.000Z</time>
      </trkpt>
      <trkpt lat="47.5098" lon="6.72465">
        <ele>408</ele>
        <time>2015-09-27T07:52:45.000Z</time>
      </trkpt>
      <trkpt lat="47.50984" lon="6.72466">
        <ele>409</ele>
        <time>2015-09-27T07:52:48.000Z</time>
      </trkpt>
      <trkpt lat="47.50986" lon="6.72466">
        <ele>409</ele>
        <time>2015-09-27T07:52:49.000Z</time>
      </trkpt>
      <trkpt lat="47.50989" lon="6.72467">
        <ele>409</ele>
        <time>2015-09-27T07:52:51.000Z</time>
      </trkpt>
      <trkpt lat="47.50991" lon="6.72467">
        <ele>409</ele>
        <time>2015-09-27T07:52:52.000Z</time>
      </trkpt>
      <trkpt lat="47.50995" lon="6.72467">
        <ele>409</ele>
        <time>2015-09-27T07:52:54.000Z</time>
      </trkpt>
      <trkpt lat="47.50997" lon="6.72467">
        <ele>410</ele>
        <time>2015-09-27T07:52:55.000Z</time>
      </trkpt>
      <trkpt lat="47.51001" lon="6.72468">
        <ele>418</ele>
        <time>2015-09-27T07:52:57.000Z</time>
      </trkpt>
      <trkpt lat="47.51002" lon="6.72469">
        <ele>418</ele>
        <time>2015-09-27T07:52:58.000Z</time>
      </trkpt>
      <trkpt lat="47.51007" lon="6.72471">
        <ele>418</ele>
        <time>2015-09-27T07:53:00.000Z</time>
      </trkpt>
      <trkpt lat="47.51009" lon="6.72472">
        <ele>418</ele>
        <time>2015-09-27T07:53:01.000Z</time>
      </trkpt>
      <trkpt lat="47.51011" lon="6.72473">
        <ele>419</ele>
        <time>2015-09-27T07:53:02.000Z</time>
      </trkpt>
      <trkpt lat="47.51013" lon="6.72473">
        <ele>419</ele>
        <time>2015-09-27T07:53:03.000Z</time>
      </trkpt>
      <trkpt lat="47.51015" lon="6.72474">
        <ele>419</ele>
        <time>2015-09-27T07:53:04.000Z</time>
      </trkpt>
      <trkpt lat="47.51018" lon="6.72475">
        <ele>419</ele>
        <time>2015-09-27T07:53:05.000Z</time>
      </trkpt>
      <trkpt lat="47.51022" lon="6.72475">
        <ele>419</ele>
        <time>2015-09-27T07:53:07.000Z</time>
      </trkpt>
      <trkpt lat="47.51024" lon="6.72476">
        <ele>420</ele>
        <time>2015-09-27T07:53:08.000Z</time>
      </trkpt>
      <trkpt lat="47.51028" lon="6.72477">
        <ele>420</ele>
        <time>2015-09-27T07:53:10.000Z</time>
      </trkpt>
      <trkpt lat="47.5103" lon="6.72477">
        <ele>420</ele>
        <time>2015-09-27T07:53:11.000Z</time>
      </trkpt>
      <trkpt lat="47.51033" lon="6.72479">
        <ele>420</ele>
        <time>2015-09-27T07:53:13.000Z</time>
      </trkpt>
      <trkpt lat="47.51034" lon="6.72479">
        <ele>421</ele>
        <time>2015-09-27T07:53:14.000Z</time>
      </trkpt>
      <trkpt lat="47.51038" lon="6.72479">
        <ele>421</ele>
        <time>2015-09-27T07:53:16.000Z</time>
      </trkpt>
      <trkpt lat="47.5104" lon="6.72479">
        <ele>421</ele>
        <time>2015-09-27T07:53:17.000Z</time>
      </trkpt>
      <trkpt lat="47.51044" lon="6.72479">
        <ele>422</ele>
        <time>2015-09-27T07:53:19.000Z</time>
      </trkpt>
      <trkpt lat="47.51046" lon="6.72479">
        <ele>422</ele>
        <time>2015-09-27T07:53:20.000Z</time>
      </trkpt>
      <trkpt lat="47.51049" lon="6.72481">
        <ele>422</ele>
        <time>2015-09-27T07:53:22.000Z</time>
      </trkpt>
      <trkpt lat="47.5105" lon="6.72482">
        <ele>422</ele>
        <time>2015-09-27T07:53:23.000Z</time>
      </trkpt>
      <trkpt lat="47.51054" lon="6.72485">
        <ele>423</ele>
        <time>2015-09-27T07:53:26.000Z</time>
      </trkpt>
      <trkpt lat="47.51055" lon="6.72486">
        <ele>423</ele>
        <time>2015-09-27T07:53:27.000Z</time>
      </trkpt>
      <trkpt lat="47.51059" lon="6.72487">
        <ele>424</ele>
        <time>2015-09-27T07:53:29.000Z</time>
      </trkpt>
      <trkpt lat="47.51061" lon="6.72487">
        <ele>424</ele>
        <time>2015-09-27T07:53:30.000Z</time>
      </trkpt>
      <trkpt lat="47.51066" lon="6.72488">
        <ele>425</ele>
        <time>2015-09-27T07:53:32.000Z</time>
      </trkpt>
      <trkpt lat="47.51068" lon="6.72487">
        <ele>425</ele>
        <time>2015-09-27T07:53:33.000Z</time>
      </trkpt>
      <trkpt lat="47.51072" lon="6.72487">
        <ele>426</ele>
        <time>2015-09-27T07:53:35.000Z</time>
      </trkpt>
      <trkpt lat="47.51074" lon="6.72487">
        <ele>426</ele>
        <time>2015-09-27T07:53:36.000Z</time>
      </trkpt>
      <trkpt lat="47.51077" lon="6.72489">
        <ele>427</ele>
        <time>2015-09-27T07:53:39.000Z</time>
      </trkpt>
      <trkpt lat="47.51078" lon="6.72489">
        <ele>427</ele>
        <time>2015-09-27T07:53:40.000Z</time>
      </trkpt>
      <trkpt lat="47.51082" lon="6.72489">
        <ele>428</ele>
        <time>2015-09-27T07:53:42.000Z</time>
      </trkpt>
      <trkpt lat="47.51084" lon="6.7249">
        <ele>431</ele>
        <time>2015-09-27T07:53:43.000Z</time>
      </trkpt>
      <trkpt lat="47.51088" lon="6.7249">
        <ele>431</ele>
        <time>2015-09-27T07:53:45.000Z</time>
      </trkpt>
      <trkpt lat="47.5109" lon="6.72491">
        <ele>431</ele>
        <time>2015-09-27T07:53:46.000Z</time>
      </trkpt>
      <trkpt lat="47.51094" lon="6.72491">
        <ele>431</ele>
        <time>2015-09-27T07:53:48.000Z</time>
      </trkpt>
      <trkpt lat="47.51096" lon="6.72492">
        <ele>432</ele>
        <time>2015-09-27T07:53:49.000Z</time>
      </trkpt>
      <trkpt lat="47.51099" lon="6.72493">
        <ele>432</ele>
        <time>2015-09-27T07:53:51.000Z</time>
      </trkpt>
      <trkpt lat="47.51102" lon="6.72493">
        <ele>432</ele>
        <time>2015-09-27T07:53:52.000Z</time>
      </trkpt>
      <trkpt lat="47.51104" lon="6.72493">
        <ele>432</ele>
        <time>2015-09-27T07:53:53.000Z</time>
      </trkpt>
      <trkpt lat="47.51106" lon="6.72492">
        <ele>432</ele>
        <time>2015-09-27T07:53:54.000Z</time>
      </trkpt>
      <trkpt lat="47.51109" lon="6.72491">
        <ele>432</ele>
        <time>2015-09-27T07:53:56.000Z</time>
      </trkpt>
      <trkpt lat="47.51111" lon="6.72491">
        <ele>432</ele>
        <time>2015-09-27T07:53:57.000Z</time>
      </trkpt>
      <trkpt lat="47.51114" lon="6.72492">
        <ele>432</ele>
        <time>2015-09-27T07:53:59.000Z</time>
      </trkpt>
      <trkpt lat="47.51116" lon="6.72493">
        <ele>432</ele>
        <time>2015-09-27T07:54:00.000Z</time>
      </trkpt>
      <trkpt lat="47.51119" lon="6.72496">
        <ele>432</ele>
        <time>2015-09-27T07:54:02.000Z</time>
      </trkpt>
      <trkpt lat="47.51121" lon="6.72499">
        <ele>432</ele>
        <time>2015-09-27T07:54:03.000Z</time>
      </trkpt>
      <trkpt lat="47.51123" lon="6.72501">
        <ele>431</ele>
        <time>2015-09-27T07:54:04.000Z</time>
      </trkpt>
      <trkpt lat="47.51125" lon="6.72504">
        <ele>431</ele>
        <time>2015-09-27T07:54:05.000Z</time>
      </trkpt>
      <trkpt lat="47.51127" lon="6.72506">
        <ele>431</ele>
        <time>2015-09-27T07:54:06.000Z</time>
      </trkpt>
      <trkpt lat="47.51129" lon="6.72507">
        <ele>431</ele>
        <time>2015-09-27T07:54:07.000Z</time>
      </trkpt>
      <trkpt lat="47.51131" lon="6.72509">
        <ele>431</ele>
        <time>2015-09-27T07:54:08.000Z</time>
      </trkpt>
      <trkpt lat="47.51133" lon="6.72511">
        <ele>431</ele>
        <time>2015-09-27T07:54:09.000Z</time>
      </trkpt>
      <trkpt lat="47.51135" lon="6.72512">
        <ele>431</ele>
        <time>2015-09-27T07:54:10.000Z</time>
      </trkpt>
      <trkpt lat="47.51137" lon="6.72513">
        <ele>431</ele>
        <time>2015-09-27T07:54:11.000Z</time>
      </trkpt>
      <trkpt lat="47.51139" lon="6.72514">
        <ele>431</ele>
        <time>2015-09-27T07:54:12.000Z</time>
      </trkpt>
      <trkpt lat="47.51141" lon="6.72515">
        <ele>432</ele>
        <time>2015-09-27T07:54:13.000Z</time>
      </trkpt>
      <trkpt lat="47.51143" lon="6.72516">
        <ele>432</ele>
        <time>2015-09-27T07:54:14.000Z</time>
      </trkpt>
      <trkpt lat="47.51145" lon="6.72518">
        <ele>432</ele>
        <time>2015-09-27T07:54:15.000Z</time>
      </trkpt>
      <trkpt lat="47.51148" lon="6.72521">
        <ele>432</ele>
        <time>2015-09-27T07:54:17.000Z</time>
      </trkpt>
      <trkpt lat="47.5115" lon="6.72522">
        <ele>432</ele>
        <time>2015-09-27T07:54:18.000Z</time>
      </trkpt>
      <trkpt lat="47.51153" lon="6.72526">
        <ele>431</ele>
        <time>2015-09-27T07:54:26.000Z</time>
      </trkpt>
      <trkpt lat="47.51153" lon="6.72526">
        <ele>431</ele>
        <time>2015-09-27T07:54:27.000Z</time>
      </trkpt>
      <trkpt lat="47.51157" lon="6.72529">
        <ele>431</ele>
        <time>2015-09-27T07:55:02.000Z</time>
      </trkpt>
      <trkpt lat="47.51158" lon="6.72529">
        <ele>431</ele>
        <time>2015-09-27T07:55:03.000Z</time>
      </trkpt>
      <trkpt lat="47.51162" lon="6.72528">
        <ele>431</ele>
        <time>2015-09-27T07:55:07.000Z</time>
      </trkpt>
      <trkpt lat="47.51163" lon="6.72527">
        <ele>431</ele>
        <time>2015-09-27T07:55:08.000Z</time>
      </trkpt>
      <trkpt lat="47.51167" lon="6.72527">
        <ele>432</ele>
        <time>2015-09-27T07:55:11.000Z</time>
      </trkpt>
      <trkpt lat="47.51168" lon="6.72527">
        <ele>432</ele>
        <time>2015-09-27T07:55:12.000Z</time>
      </trkpt>
      <trkpt lat="47.51172" lon="6.72529">
        <ele>431</ele>
        <time>2015-09-27T07:55:14.000Z</time>
      </trkpt>
      <trkpt lat="47.51175" lon="6.7253">
        <ele>431</ele>
        <time>2015-09-27T07:55:15.000Z</time>
      </trkpt>
      <trkpt lat="47.51177" lon="6.72531">
        <ele>431</ele>
        <time>2015-09-27T07:55:16.000Z</time>
      </trkpt>
      <trkpt lat="47.5118" lon="6.72531">
        <ele>431</ele>
        <time>2015-09-27T07:55:17.000Z</time>
      </trkpt>
      <trkpt lat="47.51182" lon="6.72531">
        <ele>431</ele>
        <time>2015-09-27T07:55:18.000Z</time>
      </trkpt>
      <trkpt lat="47.51185" lon="6.72531">
        <ele>431</ele>
        <time>2015-09-27T07:55:19.000Z</time>
      </trkpt>
      <trkpt lat="47.51187" lon="6.72532">
        <ele>431</ele>
        <time>2015-09-27T07:55:20.000Z</time>
      </trkpt>
      <trkpt lat="47.51189" lon="6.72532">
        <ele>431</ele>
        <time>2015-09-27T07:55:21.000Z</time>
      </trkpt>
      <trkpt lat="47.51193" lon="6.72532">
        <ele>431</ele>
        <time>2015-09-27T07:55:23.000Z</time>
      </trkpt>
      <trkpt lat="47.51195" lon="6.72532">
        <ele>431</ele>
        <time>2015-09-27T07:55:24.000Z</time>
      </trkpt>
      <trkpt lat="47.512" lon="6.72531">
        <ele>431</ele>
        <time>2015-09-27T07:55:26.000Z</time>
      </trkpt>
      <trkpt lat="47.51202" lon="6.72532">
        <ele>431</ele>
        <time>2015-09-27T07:55:27.000Z</time>
      </trkpt>
      <trkpt lat="47.51206" lon="6.72533">
        <ele>431</ele>
        <time>2015-09-27T07:55:29.000Z</time>
      </trkpt>
      <trkpt lat="47.51208" lon="6.72534">
        <ele>431</ele>
        <time>2015-09-27T07:55:30.000Z</time>
      </trkpt>
      <trkpt lat="47.5121" lon="6.72535">
        <ele>431</ele>
        <time>2015-09-27T07:55:31.000Z</time>
      </trkpt>
      <trkpt lat="47.51212" lon="6.72536">
        <ele>431</ele>
        <time>2015-09-27T07:55:32.000Z</time>
      </trkpt>
      <trkpt lat="47.51215" lon="6.72538">
        <ele>431</ele>
        <time>2015-09-27T07:55:33.000Z</time>
      </trkpt>
      <trkpt lat="47.51218" lon="6.72539">
        <ele>431</ele>
        <time>2015-09-27T07:55:34.000Z</time>
      </trkpt>
      <trkpt lat="47.51222" lon="6.7254">
        <ele>431</ele>
        <time>2015-09-27T07:55:35.000Z</time>
      </trkpt>
      <trkpt lat="47.51225" lon="6.7254">
        <ele>430</ele>
        <time>2015-09-27T07:55:36.000Z</time>
      </trkpt>
      <trkpt lat="47.51229" lon="6.72539">
        <ele>431</ele>
        <time>2015-09-27T07:55:37.000Z</time>
      </trkpt>
      <trkpt lat="47.51232" lon="6.72538">
        <ele>431</ele>
        <time>2015-09-27T07:55:38.000Z</time>
      </trkpt>
      <trkpt lat="47.51236" lon="6.72537">
        <ele>431</ele>
        <time>2015-09-27T07:55:39.000Z</time>
      </trkpt>
      <trkpt lat="47.51239" lon="6.72536">
        <ele>431</ele>
        <time>2015-09-27T07:55:40.000Z</time>
      </trkpt>
      <trkpt lat="47.51242" lon="6.72535">
        <ele>431</ele>
        <time>2015-09-27T07:55:41.000Z</time>
      </trkpt>
      <trkpt lat="47.51245" lon="6.72534">
        <ele>431</ele>
        <time>2015-09-27T07:55:42.000Z</time>
      </trkpt>
      <trkpt lat="47.51248" lon="6.72534">
        <ele>431</ele>
        <time>2015-09-27T07:55:43.000Z</time>
      </trkpt>
      <trkpt lat="47.5125" lon="6.72535">
        <ele>429</ele>
        <time>2015-09-27T07:55:44.000Z</time>
      </trkpt>
      <trkpt lat="47.51253" lon="6.72535">
        <ele>429</ele>
        <time>2015-09-27T07:55:45.000Z</time>
      </trkpt>
      <trkpt lat="47.51256" lon="6.72536">
        <ele>429</ele>
        <time>2015-09-27T07:55:46.000Z</time>
      </trkpt>
      <trkpt lat="47.51259" lon="6.72537">
        <ele>429</ele>
        <time>2015-09-27T07:55:47.000Z</time>
      </trkpt>
      <trkpt lat="47.51262" lon="6.72538">
        <ele>428</ele>
        <time>2015-09-27T07:55:48.000Z</time>
      </trkpt>
      <trkpt lat="47.51266" lon="6.72539">
        <ele>428</ele>
        <time>2015-09-27T07:55:49.000Z</time>
      </trkpt>
      <trkpt lat="47.5127" lon="6.72541">
        <ele>428</ele>
        <time>2015-09-27T07:55:50.000Z</time>
      </trkpt>
      <trkpt lat="47.51274" lon="6.72542">
        <ele>428</ele>
        <time>2015-09-27T07:55:51.000Z</time>
      </trkpt>
      <trkpt lat="47.51279" lon="6.72544">
        <ele>428</ele>
        <time>2015-09-27T07:55:52.000Z</time>
      </trkpt>
      <trkpt lat="47.51283" lon="6.72546">
        <ele>428</ele>
        <time>2015-09-27T07:55:53.000Z</time>
      </trkpt>
      <trkpt lat="47.51288" lon="6.72547">
        <ele>427</ele>
        <time>2015-09-27T07:55:54.000Z</time>
      </trkpt>
      <trkpt lat="47.51292" lon="6.72549">
        <ele>427</ele>
        <time>2015-09-27T07:55:55.000Z</time>
      </trkpt>
      <trkpt lat="47.51296" lon="6.72551">
        <ele>427</ele>
        <time>2015-09-27T07:55:56.000Z</time>
      </trkpt>
      <trkpt lat="47.51301" lon="6.72553">
        <ele>427</ele>
        <time>2015-09-27T07:55:57.000Z</time>
      </trkpt>
      <trkpt lat="47.51305" lon="6.72556">
        <ele>427</ele>
        <time>2015-09-27T07:55:58.000Z</time>
      </trkpt>
      <trkpt lat="47.51309" lon="6.72561">
        <ele>426</ele>
        <time>2015-09-27T07:55:59.000Z</time>
      </trkpt>
      <trkpt lat="47.51314" lon="6.72566">
        <ele>426</ele>
        <time>2015-09-27T07:56:00.000Z</time>
      </trkpt>
      <trkpt lat="47.51318" lon="6.72572">
        <ele>426</ele>
        <time>2015-09-27T07:56:01.000Z</time>
      </trkpt>
      <trkpt lat="47.51322" lon="6.72577">
        <ele>425</ele>
        <time>2015-09-27T07:56:02.000Z</time>
      </trkpt>
      <trkpt lat="47.51326" lon="6.72583">
        <ele>425</ele>
        <time>2015-09-27T07:56:03.000Z</time>
      </trkpt>
      <trkpt lat="47.51328" lon="6.72588">
        <ele>424</ele>
        <time>2015-09-27T07:56:04.000Z</time>
      </trkpt>
      <trkpt lat="47.5133" lon="6.72592">
        <ele>424</ele>
        <time>2015-09-27T07:56:05.000Z</time>
      </trkpt>
      <trkpt lat="47.51332" lon="6.72595">
        <ele>424</ele>
        <time>2015-09-27T07:56:06.000Z</time>
      </trkpt>
      <trkpt lat="47.51335" lon="6.72597">
        <ele>425</ele>
        <time>2015-09-27T07:56:07.000Z</time>
      </trkpt>
      <trkpt lat="47.51337" lon="6.72598">
        <ele>425</ele>
        <time>2015-09-27T07:56:08.000Z</time>
      </trkpt>
      <trkpt lat="47.5134" lon="6.72598">
        <ele>425</ele>
        <time>2015-09-27T07:56:09.000Z</time>
      </trkpt>
      <trkpt lat="47.51344" lon="6.72599">
        <ele>425</ele>
        <time>2015-09-27T07:56:11.000Z</time>
      </trkpt>
      <trkpt lat="47.51345" lon="6.72599">
        <ele>425</ele>
        <time>2015-09-27T07:56:12.000Z</time>
      </trkpt>
      <trkpt lat="47.51348" lon="6.72599">
        <ele>426</ele>
        <time>2015-09-27T07:56:14.000Z</time>
      </trkpt>
      <trkpt lat="47.5135" lon="6.72598">
        <ele>426</ele>
        <time>2015-09-27T07:56:15.000Z</time>
      </trkpt>
      <trkpt lat="47.51353" lon="6.72597">
        <ele>426</ele>
        <time>2015-09-27T07:56:17.000Z</time>
      </trkpt>
      <trkpt lat="47.51355" lon="6.72596">
        <ele>426</ele>
        <time>2015-09-27T07:56:18.000Z</time>
      </trkpt>
      <trkpt lat="47.51359" lon="6.72595">
        <ele>426</ele>
        <time>2015-09-27T07:56:20.000Z</time>
      </trkpt>
      <trkpt lat="47.51361" lon="6.72595">
        <ele>426</ele>
        <time>2015-09-27T07:56:21.000Z</time>
      </trkpt>
      <trkpt lat="47.51364" lon="6.72595">
        <ele>426</ele>
        <time>2015-09-27T07:56:22.000Z</time>
      </trkpt>
      <trkpt lat="47.51367" lon="6.72595">
        <ele>426</ele>
        <time>2015-09-27T07:56:23.000Z</time>
      </trkpt>
      <trkpt lat="47.51371" lon="6.72594">
        <ele>426</ele>
        <time>2015-09-27T07:56:25.000Z</time>
      </trkpt>
      <trkpt lat="47.51373" lon="6.72593">
        <ele>427</ele>
        <time>2015-09-27T07:56:26.000Z</time>
      </trkpt>
      <trkpt lat="47.51375" lon="6.72589">
        <ele>427</ele>
        <time>2015-09-27T07:56:32.000Z</time>
      </trkpt>
      <trkpt lat="47.51375" lon="6.72587">
        <ele>427</ele>
        <time>2015-09-27T07:56:33.000Z</time>
      </trkpt>
      <trkpt lat="47.51374" lon="6.72582">
        <ele>426</ele>
        <time>2015-09-27T07:56:35.000Z</time>
      </trkpt>
      <trkpt lat="47.51374" lon="6.72579">
        <ele>426</ele>
        <time>2015-09-27T07:56:36.000Z</time>
      </trkpt>
      <trkpt lat="47.51373" lon="6.72573">
        <ele>426</ele>
        <time>2015-09-27T07:56:38.000Z</time>
      </trkpt>
      <trkpt lat="47.51372" lon="6.7257">
        <ele>426</ele>
        <time>2015-09-27T07:56:39.000Z</time>
      </trkpt>
      <trkpt lat="47.51371" lon="6.72564">
        <ele>426</ele>
        <time>2015-09-27T07:56:41.000Z</time>
      </trkpt>
      <trkpt lat="47.5137" lon="6.7256">
        <ele>426</ele>
        <time>2015-09-27T07:56:42.000Z</time>
      </trkpt>
      <trkpt lat="47.5137" lon="6.72556">
        <ele>426</ele>
        <time>2015-09-27T07:56:43.000Z</time>
      </trkpt>
      <trkpt lat="47.5137" lon="6.72551">
        <ele>426</ele>
        <time>2015-09-27T07:56:44.000Z</time>
      </trkpt>
      <trkpt lat="47.51369" lon="6.72547">
        <ele>426</ele>
        <time>2015-09-27T07:56:45.000Z</time>
      </trkpt>
      <trkpt lat="47.51369" lon="6.72543">
        <ele>426</ele>
        <time>2015-09-27T07:56:46.000Z</time>
      </trkpt>
      <trkpt lat="47.51369" lon="6.72539">
        <ele>426</ele>
        <time>2015-09-27T07:56:47.000Z</time>
      </trkpt>
      <trkpt lat="47.51369" lon="6.72535">
        <ele>426</ele>
        <time>2015-09-27T07:56:48.000Z</time>
      </trkpt>
      <trkpt lat="47.51368" lon="6.72531">
        <ele>426</ele>
        <time>2015-09-27T07:56:49.000Z</time>
      </trkpt>
      <trkpt lat="47.51366" lon="6.72527">
        <ele>426</ele>
        <time>2015-09-27T07:56:50.000Z</time>
      </trkpt>
      <trkpt lat="47.51365" lon="6.72523">
        <ele>426</ele>
        <time>2015-09-27T07:56:51.000Z</time>
      </trkpt>
      <trkpt lat="47.51363" lon="6.72519">
        <ele>426</ele>
        <time>2015-09-27T07:56:52.000Z</time>
      </trkpt>
      <trkpt lat="47.51362" lon="6.72515">
        <ele>426</ele>
        <time>2015-09-27T07:56:53.000Z</time>
      </trkpt>
      <trkpt lat="47.51361" lon="6.72511">
        <ele>426</ele>
        <time>2015-09-27T07:56:54.000Z</time>
      </trkpt>
      <trkpt lat="47.5136" lon="6.72507">
        <ele>426</ele>
        <time>2015-09-27T07:56:55.000Z</time>
      </trkpt>
      <trkpt lat="47.51359" lon="6.72502">
        <ele>426</ele>
        <time>2015-09-27T07:56:56.000Z</time>
      </trkpt>
      <trkpt lat="47.51358" lon="6.72498">
        <ele>427</ele>
        <time>2015-09-27T07:56:57.000Z</time>
      </trkpt>
      <trkpt lat="47.51357" lon="6.72493">
        <ele>427</ele>
        <time>2015-09-27T07:56:58.000Z</time>
      </trkpt>
      <trkpt lat="47.51356" lon="6.72489">
        <ele>427</ele>
        <time>2015-09-27T07:56:59.000Z</time>
      </trkpt>
      <trkpt lat="47.51355" lon="6.72486">
        <ele>427</ele>
        <time>2015-09-27T07:57:00.000Z</time>
      </trkpt>
      <trkpt lat="47.51354" lon="6.72482">
        <ele>427</ele>
        <time>2015-09-27T07:57:01.000Z</time>
      </trkpt>
      <trkpt lat="47.51354" lon="6.72478">
        <ele>427</ele>
        <time>2015-09-27T07:57:02.000Z</time>
      </trkpt>
      <trkpt lat="47.51353" lon="6.72475">
        <ele>427</ele>
        <time>2015-09-27T07:57:03.000Z</time>
      </trkpt>
      <trkpt lat="47.51353" lon="6.72471">
        <ele>427</ele>
        <time>2015-09-27T07:57:04.000Z</time>
      </trkpt>
      <trkpt lat="47.51352" lon="6.72466">
        <ele>427</ele>
        <time>2015-09-27T07:57:06.000Z</time>
      </trkpt>
      <trkpt lat="47.51352" lon="6.72464">
        <ele>428</ele>
        <time>2015-09-27T07:57:07.000Z</time>
      </trkpt>
      <trkpt lat="47.51351" lon="6.72459">
        <ele>428</ele>
        <time>2015-09-27T07:57:09.000Z</time>
      </trkpt>
      <trkpt lat="47.5135" lon="6.72456">
        <ele>428</ele>
        <time>2015-09-27T07:57:10.000Z</time>
      </trkpt>
      <trkpt lat="47.5135" lon="6.72453">
        <ele>428</ele>
        <time>2015-09-27T07:57:11.000Z</time>
      </trkpt>
      <trkpt lat="47.51349" lon="6.72448">
        <ele>428</ele>
        <time>2015-09-27T07:57:12.000Z</time>
      </trkpt>
      <trkpt lat="47.51348" lon="6.72444">
        <ele>429</ele>
        <time>2015-09-27T07:57:13.000Z</time>
      </trkpt>
      <trkpt lat="47.51347" lon="6.7244">
        <ele>429</ele>
        <time>2015-09-27T07:57:14.000Z</time>
      </trkpt>
      <trkpt lat="47.51346" lon="6.72436">
        <ele>429</ele>
        <time>2015-09-27T07:57:15.000Z</time>
      </trkpt>
      <trkpt lat="47.51346" lon="6.72432">
        <ele>430</ele>
        <time>2015-09-27T07:57:16.000Z</time>
      </trkpt>
      <trkpt lat="47.51345" lon="6.72428">
        <ele>430</ele>
        <time>2015-09-27T07:57:17.000Z</time>
      </trkpt>
      <trkpt lat="47.51345" lon="6.72425">
        <ele>431</ele>
        <time>2015-09-27T07:57:18.000Z</time>
      </trkpt>
      <trkpt lat="47.51345" lon="6.72419">
        <ele>431</ele>
        <time>2015-09-27T07:57:20.000Z</time>
      </trkpt>
      <trkpt lat="47.51345" lon="6.72416">
        <ele>431</ele>
        <time>2015-09-27T07:57:21.000Z</time>
      </trkpt>
      <trkpt lat="47.51345" lon="6.72411">
        <ele>431</ele>
        <time>2015-09-27T07:57:23.000Z</time>
      </trkpt>
      <trkpt lat="47.51345" lon="6.72409">
        <ele>431</ele>
        <time>2015-09-27T07:57:24.000Z</time>
      </trkpt>
      <trkpt lat="47.51344" lon="6.72405">
        <ele>430</ele>
        <time>2015-09-27T07:57:26.000Z</time>
      </trkpt>
      <trkpt lat="47.51344" lon="6.72402">
        <ele>430</ele>
        <time>2015-09-27T07:57:27.000Z</time>
      </trkpt>
      <trkpt lat="47.51343" lon="6.72397">
        <ele>430</ele>
        <time>2015-09-27T07:57:29.000Z</time>
      </trkpt>
      <trkpt lat="47.51342" lon="6.72393">
        <ele>429</ele>
        <time>2015-09-27T07:57:30.000Z</time>
      </trkpt>
      <trkpt lat="47.51342" lon="6.7239">
        <ele>429</ele>
        <time>2015-09-27T07:57:31.000Z</time>
      </trkpt>
      <trkpt lat="47.51341" lon="6.72386">
        <ele>429</ele>
        <time>2015-09-27T07:57:32.000Z</time>
      </trkpt>
      <trkpt lat="47.5134" lon="6.72382">
        <ele>429</ele>
        <time>2015-09-27T07:57:33.000Z</time>
      </trkpt>
      <trkpt lat="47.5134" lon="6.72377">
        <ele>429</ele>
        <time>2015-09-27T07:57:34.000Z</time>
      </trkpt>
      <trkpt lat="47.51339" lon="6.72373">
        <ele>429</ele>
        <time>2015-09-27T07:57:35.000Z</time>
      </trkpt>
      <trkpt lat="47.51339" lon="6.7237">
        <ele>429</ele>
        <time>2015-09-27T07:57:36.000Z</time>
      </trkpt>
      <trkpt lat="47.51338" lon="6.72366">
        <ele>429</ele>
        <time>2015-09-27T07:57:37.000Z</time>
      </trkpt>
      <trkpt lat="47.51338" lon="6.72362">
        <ele>429</ele>
        <time>2015-09-27T07:57:38.000Z</time>
      </trkpt>
      <trkpt lat="47.51338" lon="6.72358">
        <ele>430</ele>
        <time>2015-09-27T07:57:39.000Z</time>
      </trkpt>
      <trkpt lat="47.51339" lon="6.72355">
        <ele>430</ele>
        <time>2015-09-27T07:57:40.000Z</time>
      </trkpt>
      <trkpt lat="47.5134" lon="6.72351">
        <ele>430</ele>
        <time>2015-09-27T07:57:41.000Z</time>
      </trkpt>
      <trkpt lat="47.51342" lon="6.72347">
        <ele>431</ele>
        <time>2015-09-27T07:57:42.000Z</time>
      </trkpt>
      <trkpt lat="47.51344" lon="6.72343">
        <ele>431</ele>
        <time>2015-09-27T07:57:43.000Z</time>
      </trkpt>
      <trkpt lat="47.51346" lon="6.7234">
        <ele>431</ele>
        <time>2015-09-27T07:57:44.000Z</time>
      </trkpt>
      <trkpt lat="47.51349" lon="6.72336">
        <ele>431</ele>
        <time>2015-09-27T07:57:45.000Z</time>
      </trkpt>
      <trkpt lat="47.51352" lon="6.72332">
        <ele>428</ele>
        <time>2015-09-27T07:57:46.000Z</time>
      </trkpt>
      <trkpt lat="47.51355" lon="6.72328">
        <ele>427</ele>
        <time>2015-09-27T07:57:47.000Z</time>
      </trkpt>
      <trkpt lat="47.51358" lon="6.72324">
        <ele>426</ele>
        <time>2015-09-27T07:57:48.000Z</time>
      </trkpt>
      <trkpt lat="47.51362" lon="6.72321">
        <ele>425</ele>
        <time>2015-09-27T07:57:49.000Z</time>
      </trkpt>
      <trkpt lat="47.51366" lon="6.72317">
        <ele>424</ele>
        <time>2015-09-27T07:57:50.000Z</time>
      </trkpt>
      <trkpt lat="47.51369" lon="6.72312">
        <ele>423</ele>
        <time>2015-09-27T07:57:51.000Z</time>
      </trkpt>
      <trkpt lat="47.51374" lon="6.72308">
        <ele>422</ele>
        <time>2015-09-27T07:57:52.000Z</time>
      </trkpt>
      <trkpt lat="47.51379" lon="6.72303">
        <ele>421</ele>
        <time>2015-09-27T07:57:53.000Z</time>
      </trkpt>
      <trkpt lat="47.51394" lon="6.72292">
        <ele>419</ele>
        <time>2015-09-27T07:57:54.000Z</time>
      </trkpt>
      <trkpt lat="47.51401" lon="6.72289">
        <ele>418</ele>
        <time>2015-09-27T07:57:55.000Z</time>
      </trkpt>
      <trkpt lat="47.51407" lon="6.72287">
        <ele>417</ele>
        <time>2015-09-27T07:57:56.000Z</time>
      </trkpt>
      <trkpt lat="47.51414" lon="6.72285">
        <ele>416</ele>
        <time>2015-09-27T07:57:57.000Z</time>
      </trkpt>
      <trkpt lat="47.51423" lon="6.7228">
        <ele>407</ele>
        <time>2015-09-27T07:57:58.000Z</time>
      </trkpt>
      <trkpt lat="47.5143" lon="6.72276">
        <ele>407</ele>
        <time>2015-09-27T07:57:59.000Z</time>
      </trkpt>
      <trkpt lat="47.51438" lon="6.72273">
        <ele>407</ele>
        <time>2015-09-27T07:58:00.000Z</time>
      </trkpt>
      <trkpt lat="47.51445" lon="6.72271">
        <ele>407</ele>
        <time>2015-09-27T07:58:01.000Z</time>
      </trkpt>
      <trkpt lat="47.5145" lon="6.72269">
        <ele>406</ele>
        <time>2015-09-27T07:58:02.000Z</time>
      </trkpt>
      <trkpt lat="47.51457" lon="6.72266">
        <ele>406</ele>
        <time>2015-09-27T07:58:03.000Z</time>
      </trkpt>
      <trkpt lat="47.51463" lon="6.72263">
        <ele>406</ele>
        <time>2015-09-27T07:58:04.000Z</time>
      </trkpt>
      <trkpt lat="47.5147" lon="6.7226">
        <ele>405</ele>
        <time>2015-09-27T07:58:05.000Z</time>
      </trkpt>
      <trkpt lat="47.51481" lon="6.72259">
        <ele>404</ele>
        <time>2015-09-27T07:58:06.000Z</time>
      </trkpt>
      <trkpt lat="47.51488" lon="6.72256">
        <ele>403</ele>
        <time>2015-09-27T07:58:07.000Z</time>
      </trkpt>
      <trkpt lat="47.51494" lon="6.72254">
        <ele>402</ele>
        <time>2015-09-27T07:58:08.000Z</time>
      </trkpt>
      <trkpt lat="47.515" lon="6.72252">
        <ele>402</ele>
        <time>2015-09-27T07:58:09.000Z</time>
      </trkpt>
      <trkpt lat="47.51507" lon="6.72248">
        <ele>400</ele>
        <time>2015-09-27T07:58:10.000Z</time>
      </trkpt>
      <trkpt lat="47.51514" lon="6.72246">
        <ele>399</ele>
        <time>2015-09-27T07:58:11.000Z</time>
      </trkpt>
      <trkpt lat="47.51523" lon="6.72244">
        <ele>398</ele>
        <time>2015-09-27T07:58:12.000Z</time>
      </trkpt>
      <trkpt lat="47.51528" lon="6.72241">
        <ele>398</ele>
        <time>2015-09-27T07:58:13.000Z</time>
      </trkpt>
      <trkpt lat="47.51534" lon="6.72239">
        <ele>397</ele>
        <time>2015-09-27T07:58:14.000Z</time>
      </trkpt>
      <trkpt lat="47.51539" lon="6.72238">
        <ele>397</ele>
        <time>2015-09-27T07:58:15.000Z</time>
      </trkpt>
      <trkpt lat="47.51544" lon="6.72234">
        <ele>397</ele>
        <time>2015-09-27T07:58:16.000Z</time>
      </trkpt>
      <trkpt lat="47.51551" lon="6.72231">
        <ele>396</ele>
        <time>2015-09-27T07:58:17.000Z</time>
      </trkpt>
      <trkpt lat="47.51557" lon="6.72228">
        <ele>396</ele>
        <time>2015-09-27T07:58:18.000Z</time>
      </trkpt>
      <trkpt lat="47.51564" lon="6.72225">
        <ele>395</ele>
        <time>2015-09-27T07:58:19.000Z</time>
      </trkpt>
      <trkpt lat="47.51571" lon="6.72223">
        <ele>395</ele>
        <time>2015-09-27T07:58:20.000Z</time>
      </trkpt>
      <trkpt lat="47.51578" lon="6.7222">
        <ele>395</ele>
        <time>2015-09-27T07:58:21.000Z</time>
      </trkpt>
      <trkpt lat="47.51586" lon="6.72217">
        <ele>392</ele>
        <time>2015-09-27T07:58:22.000Z</time>
      </trkpt>
      <trkpt lat="47.51594" lon="6.72214">
        <ele>392</ele>
        <time>2015-09-27T07:58:23.000Z</time>
      </trkpt>
      <trkpt lat="47.51605" lon="6.72211">
        <ele>392</ele>
        <time>2015-09-27T07:58:24.000Z</time>
      </trkpt>
      <trkpt lat="47.51615" lon="6.72206">
        <ele>392</ele>
        <time>2015-09-27T07:58:25.000Z</time>
      </trkpt>
      <trkpt lat="47.51625" lon="6.72202">
        <ele>391</ele>
        <time>2015-09-27T07:58:26.000Z</time>
      </trkpt>
      <trkpt lat="47.51636" lon="6.72196">
        <ele>391</ele>
        <time>2015-09-27T07:58:27.000Z</time>
      </trkpt>
      <trkpt lat="47.51648" lon="6.72192">
        <ele>391</ele>
        <time>2015-09-27T07:58:28.000Z</time>
      </trkpt>
      <trkpt lat="47.51662" lon="6.72191">
        <ele>391</ele>
        <time>2015-09-27T07:58:29.000Z</time>
      </trkpt>
      <trkpt lat="47.51671" lon="6.72187">
        <ele>390</ele>
        <time>2015-09-27T07:58:30.000Z</time>
      </trkpt>
      <trkpt lat="47.51682" lon="6.72184">
        <ele>390</ele>
        <time>2015-09-27T07:58:31.000Z</time>
      </trkpt>
      <trkpt lat="47.51694" lon="6.7218">
        <ele>391</ele>
        <time>2015-09-27T07:58:32.000Z</time>
      </trkpt>
      <trkpt lat="47.51702" lon="6.72177">
        <ele>391</ele>
        <time>2015-09-27T07:58:33.000Z</time>
      </trkpt>
      <trkpt lat="47.51707" lon="6.72176">
        <ele>391</ele>
        <time>2015-09-27T07:58:34.000Z</time>
      </trkpt>
      <trkpt lat="47.51712" lon="6.72174">
        <ele>391</ele>
        <time>2015-09-27T07:58:35.000Z</time>
      </trkpt>
      <trkpt lat="47.51717" lon="6.72171">
        <ele>391</ele>
        <time>2015-09-27T07:58:36.000Z</time>
      </trkpt>
      <trkpt lat="47.51721" lon="6.72169">
        <ele>391</ele>
        <time>2015-09-27T07:58:38.000Z</time>
      </trkpt>
      <trkpt lat="47.51724" lon="6.72167">
        <ele>391</ele>
        <time>2015-09-27T07:58:39.000Z</time>
      </trkpt>
      <trkpt lat="47.51727" lon="6.72167">
        <ele>391</ele>
        <time>2015-09-27T07:58:40.000Z</time>
      </trkpt>
      <trkpt lat="47.5173" lon="6.72168">
        <ele>391</ele>
        <time>2015-09-27T07:58:41.000Z</time>
      </trkpt>
      <trkpt lat="47.51735" lon="6.72167">
        <ele>391</ele>
        <time>2015-09-27T07:58:42.000Z</time>
      </trkpt>
      <trkpt lat="47.5174" lon="6.72166">
        <ele>393</ele>
        <time>2015-09-27T07:58:43.000Z</time>
      </trkpt>
      <trkpt lat="47.51744" lon="6.72166">
        <ele>392</ele>
        <time>2015-09-27T07:58:44.000Z</time>
      </trkpt>
      <trkpt lat="47.51747" lon="6.72165">
        <ele>392</ele>
        <time>2015-09-27T07:58:45.000Z</time>
      </trkpt>
      <trkpt lat="47.51751" lon="6.72164">
        <ele>392</ele>
        <time>2015-09-27T07:58:46.000Z</time>
      </trkpt>
      <trkpt lat="47.51755" lon="6.72164">
        <ele>392</ele>
        <time>2015-09-27T07:58:47.000Z</time>
      </trkpt>
      <trkpt lat="47.51758" lon="6.72163">
        <ele>392</ele>
        <time>2015-09-27T07:58:48.000Z</time>
      </trkpt>
      <trkpt lat="47.51768" lon="6.72167">
        <ele>390</ele>
        <time>2015-09-27T07:58:49.000Z</time>
      </trkpt>
      <trkpt lat="47.51774" lon="6.72169">
        <ele>390</ele>
        <time>2015-09-27T07:58:50.000Z</time>
      </trkpt>
      <trkpt lat="47.51778" lon="6.72169">
        <ele>389</ele>
        <time>2015-09-27T07:58:51.000Z</time>
      </trkpt>
      <trkpt lat="47.51782" lon="6.72169">
        <ele>389</ele>
        <time>2015-09-27T07:58:52.000Z</time>
      </trkpt>
      <trkpt lat="47.51787" lon="6.72168">
        <ele>389</ele>
        <time>2015-09-27T07:58:53.000Z</time>
      </trkpt>
      <trkpt lat="47.51792" lon="6.72171">
        <ele>389</ele>
        <time>2015-09-27T07:58:54.000Z</time>
      </trkpt>
      <trkpt lat="47.51797" lon="6.72173">
        <ele>388</ele>
        <time>2015-09-27T07:58:55.000Z</time>
      </trkpt>
      <trkpt lat="47.51802" lon="6.72172">
        <ele>388</ele>
        <time>2015-09-27T07:58:56.000Z</time>
      </trkpt>
      <trkpt lat="47.51808" lon="6.72173">
        <ele>388</ele>
        <time>2015-09-27T07:58:57.000Z</time>
      </trkpt>
      <trkpt lat="47.51815" lon="6.72175">
        <ele>387</ele>
        <time>2015-09-27T07:58:58.000Z</time>
      </trkpt>
      <trkpt lat="47.51822" lon="6.72177">
        <ele>387</ele>
        <time>2015-09-27T07:58:59.000Z</time>
      </trkpt>
      <trkpt lat="47.51827" lon="6.72177">
        <ele>387</ele>
        <time>2015-09-27T07:59:00.000Z</time>
      </trkpt>
      <trkpt lat="47.51833" lon="6.72176">
        <ele>387</ele>
        <time>2015-09-27T07:59:01.000Z</time>
      </trkpt>
      <trkpt lat="47.51839" lon="6.72175">
        <ele>385</ele>
        <time>2015-09-27T07:59:02.000Z</time>
      </trkpt>
      <trkpt lat="47.51849" lon="6.72176">
        <ele>384</ele>
        <time>2015-09-27T07:59:03.000Z</time>
      </trkpt>
      <trkpt lat="47.5186" lon="6.72178">
        <ele>384</ele>
        <time>2015-09-27T07:59:04.000Z</time>
      </trkpt>
      <trkpt lat="47.51867" lon="6.7218">
        <ele>384</ele>
        <time>2015-09-27T07:59:05.000Z</time>
      </trkpt>
      <trkpt lat="47.51874" lon="6.72182">
        <ele>383</ele>
        <time>2015-09-27T07:59:06.000Z</time>
      </trkpt>
      <trkpt lat="47.51877" lon="6.72183">
        <ele>383</ele>
        <time>2015-09-27T07:59:07.000Z</time>
      </trkpt>
      <trkpt lat="47.51879" lon="6.72182">
        <ele>383</ele>
        <time>2015-09-27T07:59:08.000Z</time>
      </trkpt>
      <trkpt lat="47.51882" lon="6.72184">
        <ele>383</ele>
        <time>2015-09-27T07:59:09.000Z</time>
      </trkpt>
      <trkpt lat="47.51884" lon="6.72184">
        <ele>383</ele>
        <time>2015-09-27T07:59:10.000Z</time>
      </trkpt>
      <trkpt lat="47.51887" lon="6.72185">
        <ele>383</ele>
        <time>2015-09-27T07:59:11.000Z</time>
      </trkpt>
      <trkpt lat="47.51889" lon="6.72185">
        <ele>383</ele>
        <time>2015-09-27T07:59:12.000Z</time>
      </trkpt>
      <trkpt lat="47.51892" lon="6.72187">
        <ele>382</ele>
        <time>2015-09-27T07:59:13.000Z</time>
      </trkpt>
      <trkpt lat="47.51895" lon="6.72186">
        <ele>382</ele>
        <time>2015-09-27T07:59:14.000Z</time>
      </trkpt>
      <trkpt lat="47.51899" lon="6.72184">
        <ele>382</ele>
        <time>2015-09-27T07:59:15.000Z</time>
      </trkpt>
      <trkpt lat="47.51903" lon="6.72182">
        <ele>382</ele>
        <time>2015-09-27T07:59:16.000Z</time>
      </trkpt>
      <trkpt lat="47.51906" lon="6.7218">
        <ele>382</ele>
        <time>2015-09-27T07:59:17.000Z</time>
      </trkpt>
      <trkpt lat="47.5191" lon="6.72179">
        <ele>381</ele>
        <time>2015-09-27T07:59:18.000Z</time>
      </trkpt>
      <trkpt lat="47.51913" lon="6.72178">
        <ele>381</ele>
        <time>2015-09-27T07:59:19.000Z</time>
      </trkpt>
      <trkpt lat="47.51917" lon="6.72177">
        <ele>381</ele>
        <time>2015-09-27T07:59:20.000Z</time>
      </trkpt>
      <trkpt lat="47.5192" lon="6.72176">
        <ele>381</ele>
        <time>2015-09-27T07:59:21.000Z</time>
      </trkpt>
      <trkpt lat="47.51923" lon="6.72176">
        <ele>381</ele>
        <time>2015-09-27T07:59:22.000Z</time>
      </trkpt>
      <trkpt lat="47.51925" lon="6.72177">
        <ele>381</ele>
        <time>2015-09-27T07:59:23.000Z</time>
      </trkpt>
      <trkpt lat="47.51928" lon="6.72178">
        <ele>381</ele>
        <time>2015-09-27T07:59:24.000Z</time>
      </trkpt>
      <trkpt lat="47.5193" lon="6.72179">
        <ele>381</ele>
        <time>2015-09-27T07:59:25.000Z</time>
      </trkpt>
      <trkpt lat="47.51934" lon="6.72181">
        <ele>382</ele>
        <time>2015-09-27T07:59:27.000Z</time>
      </trkpt>
      <trkpt lat="47.51936" lon="6.72183">
        <ele>382</ele>
        <time>2015-09-27T07:59:28.000Z</time>
      </trkpt>
      <trkpt lat="47.51939" lon="6.72185">
        <ele>382</ele>
        <time>2015-09-27T07:59:30.000Z</time>
      </trkpt>
      <trkpt lat="47.5194" lon="6.72186">
        <ele>382</ele>
        <time>2015-09-27T07:59:31.000Z</time>
      </trkpt>
      <trkpt lat="47.51944" lon="6.72188">
        <ele>382</ele>
        <time>2015-09-27T07:59:33.000Z</time>
      </trkpt>
      <trkpt lat="47.51945" lon="6.72189">
        <ele>382</ele>
        <time>2015-09-27T07:59:34.000Z</time>
      </trkpt>
      <trkpt lat="47.51949" lon="6.7219">
        <ele>382</ele>
        <time>2015-09-27T07:59:36.000Z</time>
      </trkpt>
      <trkpt lat="47.5195" lon="6.72191">
        <ele>382</ele>
        <time>2015-09-27T07:59:37.000Z</time>
      </trkpt>
      <trkpt lat="47.51954" lon="6.72192">
        <ele>383</ele>
        <time>2015-09-27T07:59:39.000Z</time>
      </trkpt>
      <trkpt lat="47.51956" lon="6.72191">
        <ele>383</ele>
        <time>2015-09-27T07:59:40.000Z</time>
      </trkpt>
      <trkpt lat="47.5196" lon="6.72191">
        <ele>383</ele>
        <time>2015-09-27T07:59:42.000Z</time>
      </trkpt>
      <trkpt lat="47.51962" lon="6.72191">
        <ele>383</ele>
        <time>2015-09-27T07:59:43.000Z</time>
      </trkpt>
      <trkpt lat="47.51965" lon="6.7219">
        <ele>383</ele>
        <time>2015-09-27T07:59:45.000Z</time>
      </trkpt>
      <trkpt lat="47.51967" lon="6.7219">
        <ele>383</ele>
        <time>2015-09-27T07:59:46.000Z</time>
      </trkpt>
      <trkpt lat="47.5197" lon="6.7219">
        <ele>383</ele>
        <time>2015-09-27T07:59:47.000Z</time>
      </trkpt>
      <trkpt lat="47.51972" lon="6.72191">
        <ele>383</ele>
        <time>2015-09-27T07:59:48.000Z</time>
      </trkpt>
      <trkpt lat="47.51976" lon="6.72191">
        <ele>383</ele>
        <time>2015-09-27T07:59:50.000Z</time>
      </trkpt>
      <trkpt lat="47.51978" lon="6.7219">
        <ele>383</ele>
        <time>2015-09-27T07:59:51.000Z</time>
      </trkpt>
      <trkpt lat="47.51981" lon="6.72187">
        <ele>384</ele>
        <time>2015-09-27T07:59:53.000Z</time>
      </trkpt>
      <trkpt lat="47.51983" lon="6.72186">
        <ele>384</ele>
        <time>2015-09-27T07:59:54.000Z</time>
      </trkpt>
      <trkpt lat="47.51987" lon="6.72185">
        <ele>384</ele>
        <time>2015-09-27T07:59:57.000Z</time>
      </trkpt>
      <trkpt lat="47.51988" lon="6.72185">
        <ele>384</ele>
        <time>2015-09-27T07:59:58.000Z</time>
      </trkpt>
      <trkpt lat="47.5199" lon="6.72179">
        <ele>385</ele>
        <time>2015-09-27T08:00:03.000Z</time>
      </trkpt>
      <trkpt lat="47.5199" lon="6.72178">
        <ele>385</ele>
        <time>2015-09-27T08:00:04.000Z</time>
      </trkpt>
      <trkpt lat="47.51993" lon="6.72174">
        <ele>385</ele>
        <time>2015-09-27T08:00:10.000Z</time>
      </trkpt>
      <trkpt lat="47.51994" lon="6.72172">
        <ele>386</ele>
        <time>2015-09-27T08:00:11.000Z</time>
      </trkpt>
      <trkpt lat="47.51997" lon="6.72168">
        <ele>386</ele>
        <time>2015-09-27T08:00:13.000Z</time>
      </trkpt>
      <trkpt lat="47.51997" lon="6.72165">
        <ele>387</ele>
        <time>2015-09-27T08:00:14.000Z</time>
      </trkpt>
      <trkpt lat="47.51998" lon="6.72161">
        <ele>387</ele>
        <time>2015-09-27T08:00:15.000Z</time>
      </trkpt>
      <trkpt lat="47.51998" lon="6.72158">
        <ele>387</ele>
        <time>2015-09-27T08:00:16.000Z</time>
      </trkpt>
      <trkpt lat="47.51998" lon="6.72152">
        <ele>387</ele>
        <time>2015-09-27T08:00:18.000Z</time>
      </trkpt>
      <trkpt lat="47.51999" lon="6.7215">
        <ele>387</ele>
        <time>2015-09-27T08:00:19.000Z</time>
      </trkpt>
      <trkpt lat="47.52001" lon="6.72144">
        <ele>389</ele>
        <time>2015-09-27T08:00:22.000Z</time>
      </trkpt>
      <trkpt lat="47.52001" lon="6.72142">
        <ele>389</ele>
        <time>2015-09-27T08:00:23.000Z</time>
      </trkpt>
      <trkpt lat="47.52002" lon="6.72137">
        <ele>389</ele>
        <time>2015-09-27T08:00:25.000Z</time>
      </trkpt>
      <trkpt lat="47.52002" lon="6.72134">
        <ele>389</ele>
        <time>2015-09-27T08:00:26.000Z</time>
      </trkpt>
      <trkpt lat="47.52003" lon="6.72128">
        <ele>390</ele>
        <time>2015-09-27T08:00:28.000Z</time>
      </trkpt>
      <trkpt lat="47.52004" lon="6.72125">
        <ele>390</ele>
        <time>2015-09-27T08:00:29.000Z</time>
      </trkpt>
      <trkpt lat="47.52005" lon="6.7212">
        <ele>390</ele>
        <time>2015-09-27T08:00:31.000Z</time>
      </trkpt>
      <trkpt lat="47.52006" lon="6.72118">
        <ele>390</ele>
        <time>2015-09-27T08:00:32.000Z</time>
      </trkpt>
      <trkpt lat="47.52007" lon="6.72114">
        <ele>390</ele>
        <time>2015-09-27T08:00:34.000Z</time>
      </trkpt>
      <trkpt lat="47.52008" lon="6.72112">
        <ele>390</ele>
        <time>2015-09-27T08:00:35.000Z</time>
      </trkpt>
      <trkpt lat="47.52009" lon="6.72109">
        <ele>391</ele>
        <time>2015-09-27T08:00:37.000Z</time>
      </trkpt>
      <trkpt lat="47.52011" lon="6.72106">
        <ele>391</ele>
        <time>2015-09-27T08:00:38.000Z</time>
      </trkpt>
      <trkpt lat="47.52012" lon="6.72103">
        <ele>391</ele>
        <time>2015-09-27T08:00:39.000Z</time>
      </trkpt>
      <trkpt lat="47.52013" lon="6.721">
        <ele>391</ele>
        <time>2015-09-27T08:00:40.000Z</time>
      </trkpt>
      <trkpt lat="47.52014" lon="6.72097">
        <ele>391</ele>
        <time>2015-09-27T08:00:41.000Z</time>
      </trkpt>
      <trkpt lat="47.52015" lon="6.72094">
        <ele>391</ele>
        <time>2015-09-27T08:00:42.000Z</time>
      </trkpt>
      <trkpt lat="47.52017" lon="6.72089">
        <ele>391</ele>
        <time>2015-09-27T08:00:44.000Z</time>
      </trkpt>
      <trkpt lat="47.52017" lon="6.72087">
        <ele>391</ele>
        <time>2015-09-27T08:00:45.000Z</time>
      </trkpt>
      <trkpt lat="47.52019" lon="6.72082">
        <ele>393</ele>
        <time>2015-09-27T08:00:48.000Z</time>
      </trkpt>
      <trkpt lat="47.52018" lon="6.7208">
        <ele>393</ele>
        <time>2015-09-27T08:00:49.000Z</time>
      </trkpt>
      <trkpt lat="47.52018" lon="6.72074">
        <ele>393</ele>
        <time>2015-09-27T08:00:51.000Z</time>
      </trkpt>
      <trkpt lat="47.52018" lon="6.72072">
        <ele>393</ele>
        <time>2015-09-27T08:00:52.000Z</time>
      </trkpt>
      <trkpt lat="47.52018" lon="6.72067">
        <ele>394</ele>
        <time>2015-09-27T08:00:54.000Z</time>
      </trkpt>
      <trkpt lat="47.52019" lon="6.72064">
        <ele>394</ele>
        <time>2015-09-27T08:00:55.000Z</time>
      </trkpt>
      <trkpt lat="47.52019" lon="6.72059">
        <ele>394</ele>
        <time>2015-09-27T08:00:57.000Z</time>
      </trkpt>
      <trkpt lat="47.5202" lon="6.72056">
        <ele>394</ele>
        <time>2015-09-27T08:00:58.000Z</time>
      </trkpt>
      <trkpt lat="47.5202" lon="6.7205">
        <ele>394</ele>
        <time>2015-09-27T08:01:00.000Z</time>
      </trkpt>
      <trkpt lat="47.5202" lon="6.72046">
        <ele>394</ele>
        <time>2015-09-27T08:01:01.000Z</time>
      </trkpt>
      <trkpt lat="47.5202" lon="6.72042">
        <ele>394</ele>
        <time>2015-09-27T08:01:02.000Z</time>
      </trkpt>
      <trkpt lat="47.5202" lon="6.72039">
        <ele>395</ele>
        <time>2015-09-27T08:01:03.000Z</time>
      </trkpt>
      <trkpt lat="47.5202" lon="6.72033">
        <ele>395</ele>
        <time>2015-09-27T08:01:05.000Z</time>
      </trkpt>
      <trkpt lat="47.5202" lon="6.72031">
        <ele>395</ele>
        <time>2015-09-27T08:01:06.000Z</time>
      </trkpt>
      <trkpt lat="47.5202" lon="6.72026">
        <ele>395</ele>
        <time>2015-09-27T08:01:08.000Z</time>
      </trkpt>
      <trkpt lat="47.52021" lon="6.72023">
        <ele>395</ele>
        <time>2015-09-27T08:01:09.000Z</time>
      </trkpt>
      <trkpt lat="47.52022" lon="6.72017">
        <ele>395</ele>
        <time>2015-09-27T08:01:11.000Z</time>
      </trkpt>
      <trkpt lat="47.52022" lon="6.72014">
        <ele>395</ele>
        <time>2015-09-27T08:01:12.000Z</time>
      </trkpt>
      <trkpt lat="47.52021" lon="6.72008">
        <ele>395</ele>
        <time>2015-09-27T08:01:15.000Z</time>
      </trkpt>
      <trkpt lat="47.52021" lon="6.72006">
        <ele>395</ele>
        <time>2015-09-27T08:01:16.000Z</time>
      </trkpt>
      <trkpt lat="47.5202" lon="6.72001">
        <ele>395</ele>
        <time>2015-09-27T08:01:18.000Z</time>
      </trkpt>
      <trkpt lat="47.5202" lon="6.71999">
        <ele>397</ele>
        <time>2015-09-27T08:01:19.000Z</time>
      </trkpt>
      <trkpt lat="47.52018" lon="6.71993">
        <ele>397</ele>
        <time>2015-09-27T08:01:21.000Z</time>
      </trkpt>
      <trkpt lat="47.52018" lon="6.7199">
        <ele>397</ele>
        <time>2015-09-27T08:01:22.000Z</time>
      </trkpt>
      <trkpt lat="47.52017" lon="6.71986">
        <ele>397</ele>
        <time>2015-09-27T08:01:23.000Z</time>
      </trkpt>
      <trkpt lat="47.52017" lon="6.71983">
        <ele>397</ele>
        <time>2015-09-27T08:01:24.000Z</time>
      </trkpt>
      <trkpt lat="47.52016" lon="6.7198">
        <ele>397</ele>
        <time>2015-09-27T08:01:25.000Z</time>
      </trkpt>
      <trkpt lat="47.52016" lon="6.71976">
        <ele>397</ele>
        <time>2015-09-27T08:01:26.000Z</time>
      </trkpt>
      <trkpt lat="47.52015" lon="6.71972">
        <ele>397</ele>
        <time>2015-09-27T08:01:27.000Z</time>
      </trkpt>
      <trkpt lat="47.52015" lon="6.71968">
        <ele>397</ele>
        <time>2015-09-27T08:01:28.000Z</time>
      </trkpt>
      <trkpt lat="47.52015" lon="6.71964">
        <ele>397</ele>
        <time>2015-09-27T08:01:29.000Z</time>
      </trkpt>
      <trkpt lat="47.52015" lon="6.71961">
        <ele>397</ele>
        <time>2015-09-27T08:01:30.000Z</time>
      </trkpt>
      <trkpt lat="47.52015" lon="6.71954">
        <ele>398</ele>
        <time>2015-09-27T08:01:32.000Z</time>
      </trkpt>
      <trkpt lat="47.52015" lon="6.71951">
        <ele>398</ele>
        <time>2015-09-27T08:01:33.000Z</time>
      </trkpt>
      <trkpt lat="47.52014" lon="6.71946">
        <ele>398</ele>
        <time>2015-09-27T08:01:35.000Z</time>
      </trkpt>
      <trkpt lat="47.52014" lon="6.71944">
        <ele>398</ele>
        <time>2015-09-27T08:01:36.000Z</time>
      </trkpt>
      <trkpt lat="47.52014" lon="6.71939">
        <ele>398</ele>
        <time>2015-09-27T08:01:38.000Z</time>
      </trkpt>
      <trkpt lat="47.52014" lon="6.71937">
        <ele>398</ele>
        <time>2015-09-27T08:01:39.000Z</time>
      </trkpt>
      <trkpt lat="47.52014" lon="6.71932">
        <ele>398</ele>
        <time>2015-09-27T08:01:41.000Z</time>
      </trkpt>
      <trkpt lat="47.52014" lon="6.71929">
        <ele>398</ele>
        <time>2015-09-27T08:01:42.000Z</time>
      </trkpt>
      <trkpt lat="47.52014" lon="6.71922">
        <ele>398</ele>
        <time>2015-09-27T08:01:44.000Z</time>
      </trkpt>
      <trkpt lat="47.52014" lon="6.71919">
        <ele>398</ele>
        <time>2015-09-27T08:01:45.000Z</time>
      </trkpt>
      <trkpt lat="47.52014" lon="6.71915">
        <ele>399</ele>
        <time>2015-09-27T08:01:46.000Z</time>
      </trkpt>
      <trkpt lat="47.52015" lon="6.71912">
        <ele>399</ele>
        <time>2015-09-27T08:01:47.000Z</time>
      </trkpt>
      <trkpt lat="47.52015" lon="6.71908">
        <ele>399</ele>
        <time>2015-09-27T08:01:48.000Z</time>
      </trkpt>
      <trkpt lat="47.52015" lon="6.71904">
        <ele>399</ele>
        <time>2015-09-27T08:01:49.000Z</time>
      </trkpt>
      <trkpt lat="47.52015" lon="6.719">
        <ele>399</ele>
        <time>2015-09-27T08:01:50.000Z</time>
      </trkpt>
      <trkpt lat="47.52016" lon="6.71897">
        <ele>399</ele>
        <time>2015-09-27T08:01:51.000Z</time>
      </trkpt>
      <trkpt lat="47.52016" lon="6.71891">
        <ele>400</ele>
        <time>2015-09-27T08:01:53.000Z</time>
      </trkpt>
      <trkpt lat="47.52015" lon="6.71888">
        <ele>400</ele>
        <time>2015-09-27T08:01:54.000Z</time>
      </trkpt>
      <trkpt lat="47.52015" lon="6.71885">
        <ele>400</ele>
        <time>2015-09-27T08:01:55.000Z</time>
      </trkpt>
      <trkpt lat="47.52016" lon="6.71881">
        <ele>400</ele>
        <time>2015-09-27T08:01:56.000Z</time>
      </trkpt>
      <trkpt lat="47.52016" lon="6.71877">
        <ele>400</ele>
        <time>2015-09-27T08:01:57.000Z</time>
      </trkpt>
      <trkpt lat="47.52016" lon="6.71873">
        <ele>400</ele>
        <time>2015-09-27T08:01:58.000Z</time>
      </trkpt>
      <trkpt lat="47.52016" lon="6.71868">
        <ele>400</ele>
        <time>2015-09-27T08:01:59.000Z</time>
      </trkpt>
      <trkpt lat="47.52016" lon="6.71864">
        <ele>400</ele>
        <time>2015-09-27T08:02:00.000Z</time>
      </trkpt>
      <trkpt lat="47.52016" lon="6.71859">
        <ele>400</ele>
        <time>2015-09-27T08:02:01.000Z</time>
      </trkpt>
      <trkpt lat="47.52017" lon="6.71855">
        <ele>401</ele>
        <time>2015-09-27T08:02:02.000Z</time>
      </trkpt>
      <trkpt lat="47.52017" lon="6.7185">
        <ele>401</ele>
        <time>2015-09-27T08:02:03.000Z</time>
      </trkpt>
      <trkpt lat="47.52017" lon="6.71846">
        <ele>401</ele>
        <time>2015-09-27T08:02:04.000Z</time>
      </trkpt>
      <trkpt lat="47.52017" lon="6.71841">
        <ele>401</ele>
        <time>2015-09-27T08:02:05.000Z</time>
      </trkpt>
      <trkpt lat="47.52017" lon="6.71837">
        <ele>401</ele>
        <time>2015-09-27T08:02:06.000Z</time>
      </trkpt>
      <trkpt lat="47.52017" lon="6.71834">
        <ele>401</ele>
        <time>2015-09-27T08:02:07.000Z</time>
      </trkpt>
      <trkpt lat="47.52016" lon="6.71831">
        <ele>403</ele>
        <time>2015-09-27T08:02:08.000Z</time>
      </trkpt>
      <trkpt lat="47.52016" lon="6.71825">
        <ele>403</ele>
        <time>2015-09-27T08:02:10.000Z</time>
      </trkpt>
      <trkpt lat="47.52015" lon="6.71822">
        <ele>403</ele>
        <time>2015-09-27T08:02:11.000Z</time>
      </trkpt>
      <trkpt lat="47.52014" lon="6.71816">
        <ele>403</ele>
        <time>2015-09-27T08:02:13.000Z</time>
      </trkpt>
      <trkpt lat="47.52014" lon="6.71813">
        <ele>404</ele>
        <time>2015-09-27T08:02:14.000Z</time>
      </trkpt>
      <trkpt lat="47.52014" lon="6.7181">
        <ele>404</ele>
        <time>2015-09-27T08:02:15.000Z</time>
      </trkpt>
      <trkpt lat="47.52014" lon="6.71806">
        <ele>404</ele>
        <time>2015-09-27T08:02:16.000Z</time>
      </trkpt>
      <trkpt lat="47.52013" lon="6.718">
        <ele>404</ele>
        <time>2015-09-27T08:02:18.000Z</time>
      </trkpt>
      <trkpt lat="47.52013" lon="6.71798">
        <ele>404</ele>
        <time>2015-09-27T08:02:19.000Z</time>
      </trkpt>
      <trkpt lat="47.52013" lon="6.71791">
        <ele>405</ele>
        <time>2015-09-27T08:02:21.000Z</time>
      </trkpt>
      <trkpt lat="47.52013" lon="6.71788">
        <ele>405</ele>
        <time>2015-09-27T08:02:22.000Z</time>
      </trkpt>
      <trkpt lat="47.52014" lon="6.71784">
        <ele>405</ele>
        <time>2015-09-27T08:02:23.000Z</time>
      </trkpt>
      <trkpt lat="47.52014" lon="6.7178">
        <ele>405</ele>
        <time>2015-09-27T08:02:24.000Z</time>
      </trkpt>
      <trkpt lat="47.52015" lon="6.71776">
        <ele>406</ele>
        <time>2015-09-27T08:02:25.000Z</time>
      </trkpt>
      <trkpt lat="47.52016" lon="6.71772">
        <ele>406</ele>
        <time>2015-09-27T08:02:26.000Z</time>
      </trkpt>
      <trkpt lat="47.52017" lon="6.71769">
        <ele>406</ele>
        <time>2015-09-27T08:02:27.000Z</time>
      </trkpt>
      <trkpt lat="47.52018" lon="6.71765">
        <ele>406</ele>
        <time>2015-09-27T08:02:28.000Z</time>
      </trkpt>
      <trkpt lat="47.52018" lon="6.71761">
        <ele>407</ele>
        <time>2015-09-27T08:02:29.000Z</time>
      </trkpt>
      <trkpt lat="47.52019" lon="6.71757">
        <ele>407</ele>
        <time>2015-09-27T08:02:30.000Z</time>
      </trkpt>
      <trkpt lat="47.5202" lon="6.71754">
        <ele>407</ele>
        <time>2015-09-27T08:02:31.000Z</time>
      </trkpt>
      <trkpt lat="47.52022" lon="6.7175">
        <ele>410</ele>
        <time>2015-09-27T08:02:32.000Z</time>
      </trkpt>
      <trkpt lat="47.52025" lon="6.71746">
        <ele>410</ele>
        <time>2015-09-27T08:02:33.000Z</time>
      </trkpt>
      <trkpt lat="47.52027" lon="6.71741">
        <ele>410</ele>
        <time>2015-09-27T08:02:34.000Z</time>
      </trkpt>
      <trkpt lat="47.52029" lon="6.71736">
        <ele>410</ele>
        <time>2015-09-27T08:02:35.000Z</time>
      </trkpt>
      <trkpt lat="47.52031" lon="6.71731">
        <ele>410</ele>
        <time>2015-09-27T08:02:36.000Z</time>
      </trkpt>
      <trkpt lat="47.52033" lon="6.71726">
        <ele>410</ele>
        <time>2015-09-27T08:02:37.000Z</time>
      </trkpt>
      <trkpt lat="47.52034" lon="6.71722">
        <ele>410</ele>
        <time>2015-09-27T08:02:38.000Z</time>
      </trkpt>
      <trkpt lat="47.52036" lon="6.71717">
        <ele>410</ele>
        <time>2015-09-27T08:02:39.000Z</time>
      </trkpt>
      <trkpt lat="47.52038" lon="6.71713">
        <ele>410</ele>
        <time>2015-09-27T08:02:40.000Z</time>
      </trkpt>
      <trkpt lat="47.5204" lon="6.71709">
        <ele>410</ele>
        <time>2015-09-27T08:02:41.000Z</time>
      </trkpt>
      <trkpt lat="47.52042" lon="6.71705">
        <ele>410</ele>
        <time>2015-09-27T08:02:42.000Z</time>
      </trkpt>
      <trkpt lat="47.52044" lon="6.71701">
        <ele>410</ele>
        <time>2015-09-27T08:02:43.000Z</time>
      </trkpt>
      <trkpt lat="47.52046" lon="6.71698">
        <ele>410</ele>
        <time>2015-09-27T08:02:44.000Z</time>
      </trkpt>
      <trkpt lat="47.52048" lon="6.71694">
        <ele>410</ele>
        <time>2015-09-27T08:02:45.000Z</time>
      </trkpt>
      <trkpt lat="47.5205" lon="6.71691">
        <ele>410</ele>
        <time>2015-09-27T08:02:46.000Z</time>
      </trkpt>
      <trkpt lat="47.52053" lon="6.71688">
        <ele>410</ele>
        <time>2015-09-27T08:02:47.000Z</time>
      </trkpt>
      <trkpt lat="47.52055" lon="6.71685">
        <ele>410</ele>
        <time>2015-09-27T08:02:48.000Z</time>
      </trkpt>
      <trkpt lat="47.52057" lon="6.71681">
        <ele>411</ele>
        <time>2015-09-27T08:02:49.000Z</time>
      </trkpt>
      <trkpt lat="47.52059" lon="6.71678">
        <ele>411</ele>
        <time>2015-09-27T08:02:50.000Z</time>
      </trkpt>
      <trkpt lat="47.52062" lon="6.71675">
        <ele>411</ele>
        <time>2015-09-27T08:02:51.000Z</time>
      </trkpt>
      <trkpt lat="47.52064" lon="6.71672">
        <ele>411</ele>
        <time>2015-09-27T08:02:52.000Z</time>
      </trkpt>
      <trkpt lat="47.52067" lon="6.71669">
        <ele>411</ele>
        <time>2015-09-27T08:02:53.000Z</time>
      </trkpt>
      <trkpt lat="47.5207" lon="6.71666">
        <ele>412</ele>
        <time>2015-09-27T08:02:54.000Z</time>
      </trkpt>
      <trkpt lat="47.52073" lon="6.71662">
        <ele>412</ele>
        <time>2015-09-27T08:02:55.000Z</time>
      </trkpt>
      <trkpt lat="47.52077" lon="6.71658">
        <ele>412</ele>
        <time>2015-09-27T08:02:56.000Z</time>
      </trkpt>
      <trkpt lat="47.5208" lon="6.71654">
        <ele>412</ele>
        <time>2015-09-27T08:02:57.000Z</time>
      </trkpt>
      <trkpt lat="47.52083" lon="6.71651">
        <ele>412</ele>
        <time>2015-09-27T08:02:58.000Z</time>
      </trkpt>
      <trkpt lat="47.52087" lon="6.71647">
        <ele>407</ele>
        <time>2015-09-27T08:02:59.000Z</time>
      </trkpt>
      <trkpt lat="47.52091" lon="6.71643">
        <ele>406</ele>
        <time>2015-09-27T08:03:00.000Z</time>
      </trkpt>
      <trkpt lat="47.52094" lon="6.71639">
        <ele>405</ele>
        <time>2015-09-27T08:03:01.000Z</time>
      </trkpt>
      <trkpt lat="47.52098" lon="6.71634">
        <ele>405</ele>
        <time>2015-09-27T08:03:02.000Z</time>
      </trkpt>
      <trkpt lat="47.52104" lon="6.71628">
        <ele>404</ele>
        <time>2015-09-27T08:03:03.000Z</time>
      </trkpt>
      <trkpt lat="47.52107" lon="6.71623">
        <ele>404</ele>
        <time>2015-09-27T08:03:04.000Z</time>
      </trkpt>
      <trkpt lat="47.52111" lon="6.71619">
        <ele>404</ele>
        <time>2015-09-27T08:03:05.000Z</time>
      </trkpt>
      <trkpt lat="47.52115" lon="6.71614">
        <ele>404</ele>
        <time>2015-09-27T08:03:06.000Z</time>
      </trkpt>
      <trkpt lat="47.52119" lon="6.71609">
        <ele>403</ele>
        <time>2015-09-27T08:03:07.000Z</time>
      </trkpt>
      <trkpt lat="47.52124" lon="6.71605">
        <ele>403</ele>
        <time>2015-09-27T08:03:08.000Z</time>
      </trkpt>
      <trkpt lat="47.52128" lon="6.71602">
        <ele>402</ele>
        <time>2015-09-27T08:03:09.000Z</time>
      </trkpt>
      <trkpt lat="47.52133" lon="6.71599">
        <ele>402</ele>
        <time>2015-09-27T08:03:10.000Z</time>
      </trkpt>
      <trkpt lat="47.52138" lon="6.71598">
        <ele>401</ele>
        <time>2015-09-27T08:03:11.000Z</time>
      </trkpt>
      <trkpt lat="47.52143" lon="6.71597">
        <ele>400</ele>
        <time>2015-09-27T08:03:12.000Z</time>
      </trkpt>
      <trkpt lat="47.52147" lon="6.71595">
        <ele>400</ele>
        <time>2015-09-27T08:03:13.000Z</time>
      </trkpt>
      <trkpt lat="47.52151" lon="6.71593">
        <ele>399</ele>
        <time>2015-09-27T08:03:14.000Z</time>
      </trkpt>
      <trkpt lat="47.52155" lon="6.71592">
        <ele>398</ele>
        <time>2015-09-27T08:03:15.000Z</time>
      </trkpt>
      <trkpt lat="47.52159" lon="6.71588">
        <ele>397</ele>
        <time>2015-09-27T08:03:16.000Z</time>
      </trkpt>
      <trkpt lat="47.52162" lon="6.71583">
        <ele>396</ele>
        <time>2015-09-27T08:03:17.000Z</time>
      </trkpt>
      <trkpt lat="47.52163" lon="6.71575">
        <ele>397</ele>
        <time>2015-09-27T08:03:18.000Z</time>
      </trkpt>
      <trkpt lat="47.52164" lon="6.71569">
        <ele>398</ele>
        <time>2015-09-27T08:03:19.000Z</time>
      </trkpt>
      <trkpt lat="47.52164" lon="6.7156">
        <ele>398</ele>
        <time>2015-09-27T08:03:20.000Z</time>
      </trkpt>
      <trkpt lat="47.52164" lon="6.71551">
        <ele>399</ele>
        <time>2015-09-27T08:03:21.000Z</time>
      </trkpt>
      <trkpt lat="47.52164" lon="6.71543">
        <ele>399</ele>
        <time>2015-09-27T08:03:22.000Z</time>
      </trkpt>
      <trkpt lat="47.52164" lon="6.71535">
        <ele>399</ele>
        <time>2015-09-27T08:03:23.000Z</time>
      </trkpt>
      <trkpt lat="47.52164" lon="6.71527">
        <ele>398</ele>
        <time>2015-09-27T08:03:24.000Z</time>
      </trkpt>
      <trkpt lat="47.52164" lon="6.71519">
        <ele>397</ele>
        <time>2015-09-27T08:03:25.000Z</time>
      </trkpt>
      <trkpt lat="47.52164" lon="6.7151">
        <ele>396</ele>
        <time>2015-09-27T08:03:26.000Z</time>
      </trkpt>
      <trkpt lat="47.52164" lon="6.71501">
        <ele>395</ele>
        <time>2015-09-27T08:03:27.000Z</time>
      </trkpt>
      <trkpt lat="47.52165" lon="6.71492">
        <ele>394</ele>
        <time>2015-09-27T08:03:28.000Z</time>
      </trkpt>
      <trkpt lat="47.52165" lon="6.71483">
        <ele>394</ele>
        <time>2015-09-27T08:03:29.000Z</time>
      </trkpt>
      <trkpt lat="47.52164" lon="6.71474">
        <ele>394</ele>
        <time>2015-09-27T08:03:30.000Z</time>
      </trkpt>
      <trkpt lat="47.52162" lon="6.71466">
        <ele>394</ele>
        <time>2015-09-27T08:03:31.000Z</time>
      </trkpt>
      <trkpt lat="47.52161" lon="6.71456">
        <ele>394</ele>
        <time>2015-09-27T08:03:32.000Z</time>
      </trkpt>
      <trkpt lat="47.5216" lon="6.71447">
        <ele>393</ele>
        <time>2015-09-27T08:03:33.000Z</time>
      </trkpt>
      <trkpt lat="47.52158" lon="6.71436">
        <ele>392</ele>
        <time>2015-09-27T08:03:34.000Z</time>
      </trkpt>
      <trkpt lat="47.52156" lon="6.71426">
        <ele>391</ele>
        <time>2015-09-27T08:03:35.000Z</time>
      </trkpt>
      <trkpt lat="47.52154" lon="6.71417">
        <ele>390</ele>
        <time>2015-09-27T08:03:36.000Z</time>
      </trkpt>
      <trkpt lat="47.52152" lon="6.71408">
        <ele>388</ele>
        <time>2015-09-27T08:03:37.000Z</time>
      </trkpt>
      <trkpt lat="47.5215" lon="6.71399">
        <ele>389</ele>
        <time>2015-09-27T08:03:38.000Z</time>
      </trkpt>
      <trkpt lat="47.52148" lon="6.71391">
        <ele>389</ele>
        <time>2015-09-27T08:03:39.000Z</time>
      </trkpt>
      <trkpt lat="47.52145" lon="6.71384">
        <ele>389</ele>
        <time>2015-09-27T08:03:40.000Z</time>
      </trkpt>
      <trkpt lat="47.52143" lon="6.71376">
        <ele>389</ele>
        <time>2015-09-27T08:03:41.000Z</time>
      </trkpt>
      <trkpt lat="47.52141" lon="6.71367">
        <ele>388</ele>
        <time>2015-09-27T08:03:42.000Z</time>
      </trkpt>
      <trkpt lat="47.52141" lon="6.71359">
        <ele>388</ele>
        <time>2015-09-27T08:03:43.000Z</time>
      </trkpt>
      <trkpt lat="47.52142" lon="6.7135">
        <ele>387</ele>
        <time>2015-09-27T08:03:44.000Z</time>
      </trkpt>
      <trkpt lat="47.52146" lon="6.7134">
        <ele>386</ele>
        <time>2015-09-27T08:03:45.000Z</time>
      </trkpt>
      <trkpt lat="47.5215" lon="6.71331">
        <ele>384</ele>
        <time>2015-09-27T08:03:46.000Z</time>
      </trkpt>
      <trkpt lat="47.52157" lon="6.7132">
        <ele>383</ele>
        <time>2015-09-27T08:03:47.000Z</time>
      </trkpt>
      <trkpt lat="47.52165" lon="6.71313">
        <ele>383</ele>
        <time>2015-09-27T08:03:48.000Z</time>
      </trkpt>
      <trkpt lat="47.52173" lon="6.713">
        <ele>378</ele>
        <time>2015-09-27T08:03:49.000Z</time>
      </trkpt>
      <trkpt lat="47.52182" lon="6.7129">
        <ele>377</ele>
        <time>2015-09-27T08:03:50.000Z</time>
      </trkpt>
      <trkpt lat="47.52192" lon="6.7128">
        <ele>377</ele>
        <time>2015-09-27T08:03:51.000Z</time>
      </trkpt>
      <trkpt lat="47.52203" lon="6.71273">
        <ele>376</ele>
        <time>2015-09-27T08:03:52.000Z</time>
      </trkpt>
      <trkpt lat="47.52212" lon="6.71264">
        <ele>375</ele>
        <time>2015-09-27T08:03:53.000Z</time>
      </trkpt>
      <trkpt lat="47.52222" lon="6.71255">
        <ele>375</ele>
        <time>2015-09-27T08:03:54.000Z</time>
      </trkpt>
      <trkpt lat="47.52231" lon="6.71249">
        <ele>372</ele>
        <time>2015-09-27T08:03:55.000Z</time>
      </trkpt>
      <trkpt lat="47.52239" lon="6.71242">
        <ele>371</ele>
        <time>2015-09-27T08:03:56.000Z</time>
      </trkpt>
      <trkpt lat="47.52246" lon="6.71236">
        <ele>371</ele>
        <time>2015-09-27T08:03:57.000Z</time>
      </trkpt>
      <trkpt lat="47.52253" lon="6.71231">
        <ele>369</ele>
        <time>2015-09-27T08:03:58.000Z</time>
      </trkpt>
      <trkpt lat="47.52258" lon="6.71227">
        <ele>369</ele>
        <time>2015-09-27T08:03:59.000Z</time>
      </trkpt>
      <trkpt lat="47.52262" lon="6.71221">
        <ele>368</ele>
        <time>2015-09-27T08:04:00.000Z</time>
      </trkpt>
      <trkpt lat="47.52267" lon="6.71219">
        <ele>368</ele>
        <time>2015-09-27T08:04:01.000Z</time>
      </trkpt>
      <trkpt lat="47.52273" lon="6.71216">
        <ele>368</ele>
        <time>2015-09-27T08:04:02.000Z</time>
      </trkpt>
      <trkpt lat="47.52278" lon="6.71212">
        <ele>368</ele>
        <time>2015-09-27T08:04:03.000Z</time>
      </trkpt>
      <trkpt lat="47.52283" lon="6.71207">
        <ele>368</ele>
        <time>2015-09-27T08:04:04.000Z</time>
      </trkpt>
      <trkpt lat="47.52288" lon="6.71201">
        <ele>367</ele>
        <time>2015-09-27T08:04:05.000Z</time>
      </trkpt>
      <trkpt lat="47.52292" lon="6.71195">
        <ele>367</ele>
        <time>2015-09-27T08:04:06.000Z</time>
      </trkpt>
      <trkpt lat="47.52297" lon="6.71188">
        <ele>367</ele>
        <time>2015-09-27T08:04:07.000Z</time>
      </trkpt>
      <trkpt lat="47.52301" lon="6.71183">
        <ele>367</ele>
        <time>2015-09-27T08:04:08.000Z</time>
      </trkpt>
      <trkpt lat="47.52306" lon="6.71177">
        <ele>367</ele>
        <time>2015-09-27T08:04:09.000Z</time>
      </trkpt>
      <trkpt lat="47.5231" lon="6.71171">
        <ele>367</ele>
        <time>2015-09-27T08:04:10.000Z</time>
      </trkpt>
      <trkpt lat="47.52314" lon="6.71167">
        <ele>367</ele>
        <time>2015-09-27T08:04:11.000Z</time>
      </trkpt>
      <trkpt lat="47.52319" lon="6.71162">
        <ele>366</ele>
        <time>2015-09-27T08:04:12.000Z</time>
      </trkpt>
      <trkpt lat="47.52324" lon="6.71157">
        <ele>366</ele>
        <time>2015-09-27T08:04:13.000Z</time>
      </trkpt>
      <trkpt lat="47.52329" lon="6.71154">
        <ele>366</ele>
        <time>2015-09-27T08:04:14.000Z</time>
      </trkpt>
      <trkpt lat="47.52335" lon="6.71154">
        <ele>366</ele>
        <time>2015-09-27T08:04:15.000Z</time>
      </trkpt>
      <trkpt lat="47.52339" lon="6.71156">
        <ele>366</ele>
        <time>2015-09-27T08:04:16.000Z</time>
      </trkpt>
      <trkpt lat="47.52344" lon="6.71158">
        <ele>366</ele>
        <time>2015-09-27T08:04:17.000Z</time>
      </trkpt>
      <trkpt lat="47.52348" lon="6.7116">
        <ele>366</ele>
        <time>2015-09-27T08:04:18.000Z</time>
      </trkpt>
      <trkpt lat="47.52352" lon="6.71166">
        <ele>366</ele>
        <time>2015-09-27T08:04:19.000Z</time>
      </trkpt>
      <trkpt lat="47.52356" lon="6.7117">
        <ele>365</ele>
        <time>2015-09-27T08:04:20.000Z</time>
      </trkpt>
      <trkpt lat="47.52361" lon="6.71174">
        <ele>365</ele>
        <time>2015-09-27T08:04:21.000Z</time>
      </trkpt>
      <trkpt lat="47.52364" lon="6.71178">
        <ele>365</ele>
        <time>2015-09-27T08:04:22.000Z</time>
      </trkpt>
      <trkpt lat="47.52368" lon="6.71178">
        <ele>365</ele>
        <time>2015-09-27T08:04:23.000Z</time>
      </trkpt>
      <trkpt lat="47.52374" lon="6.71178">
        <ele>364</ele>
        <time>2015-09-27T08:04:24.000Z</time>
      </trkpt>
      <trkpt lat="47.5238" lon="6.71179">
        <ele>364</ele>
        <time>2015-09-27T08:04:25.000Z</time>
      </trkpt>
      <trkpt lat="47.52386" lon="6.71179">
        <ele>364</ele>
        <time>2015-09-27T08:04:26.000Z</time>
      </trkpt>
      <trkpt lat="47.52391" lon="6.71178">
        <ele>364</ele>
        <time>2015-09-27T08:04:27.000Z</time>
      </trkpt>
      <trkpt lat="47.52398" lon="6.71177">
        <ele>364</ele>
        <time>2015-09-27T08:04:28.000Z</time>
      </trkpt>
      <trkpt lat="47.52405" lon="6.71177">
        <ele>363</ele>
        <time>2015-09-27T08:04:29.000Z</time>
      </trkpt>
      <trkpt lat="47.52412" lon="6.71176">
        <ele>363</ele>
        <time>2015-09-27T08:04:30.000Z</time>
      </trkpt>
      <trkpt lat="47.52418" lon="6.71176">
        <ele>362</ele>
        <time>2015-09-27T08:04:31.000Z</time>
      </trkpt>
      <trkpt lat="47.52425" lon="6.71176">
        <ele>362</ele>
        <time>2015-09-27T08:04:32.000Z</time>
      </trkpt>
      <trkpt lat="47.52432" lon="6.71174">
        <ele>362</ele>
        <time>2015-09-27T08:04:33.000Z</time>
      </trkpt>
      <trkpt lat="47.52437" lon="6.71171">
        <ele>362</ele>
        <time>2015-09-27T08:04:34.000Z</time>
      </trkpt>
      <trkpt lat="47.52443" lon="6.71171">
        <ele>361</ele>
        <time>2015-09-27T08:04:35.000Z</time>
      </trkpt>
      <trkpt lat="47.52449" lon="6.71171">
        <ele>361</ele>
        <time>2015-09-27T08:04:36.000Z</time>
      </trkpt>
      <trkpt lat="47.52456" lon="6.7117">
        <ele>361</ele>
        <time>2015-09-27T08:04:37.000Z</time>
      </trkpt>
      <trkpt lat="47.52462" lon="6.71169">
        <ele>361</ele>
        <time>2015-09-27T08:04:38.000Z</time>
      </trkpt>
      <trkpt lat="47.52469" lon="6.71168">
        <ele>361</ele>
        <time>2015-09-27T08:04:39.000Z</time>
      </trkpt>
      <trkpt lat="47.52476" lon="6.71173">
        <ele>361</ele>
        <time>2015-09-27T08:04:40.000Z</time>
      </trkpt>
      <trkpt lat="47.52483" lon="6.7118">
        <ele>361</ele>
        <time>2015-09-27T08:04:41.000Z</time>
      </trkpt>
      <trkpt lat="47.52489" lon="6.71186">
        <ele>360</ele>
        <time>2015-09-27T08:04:42.000Z</time>
      </trkpt>
      <trkpt lat="47.52495" lon="6.71192">
        <ele>360</ele>
        <time>2015-09-27T08:04:43.000Z</time>
      </trkpt>
      <trkpt lat="47.52501" lon="6.71199">
        <ele>361</ele>
        <time>2015-09-27T08:04:44.000Z</time>
      </trkpt>
      <trkpt lat="47.52506" lon="6.71205">
        <ele>360</ele>
        <time>2015-09-27T08:04:45.000Z</time>
      </trkpt>
      <trkpt lat="47.52511" lon="6.71212">
        <ele>360</ele>
        <time>2015-09-27T08:04:46.000Z</time>
      </trkpt>
      <trkpt lat="47.52516" lon="6.71217">
        <ele>360</ele>
        <time>2015-09-27T08:04:47.000Z</time>
      </trkpt>
      <trkpt lat="47.52521" lon="6.71221">
        <ele>360</ele>
        <time>2015-09-27T08:04:48.000Z</time>
      </trkpt>
      <trkpt lat="47.52527" lon="6.71224">
        <ele>360</ele>
        <time>2015-09-27T08:04:49.000Z</time>
      </trkpt>
      <trkpt lat="47.52532" lon="6.71228">
        <ele>360</ele>
        <time>2015-09-27T08:04:50.000Z</time>
      </trkpt>
      <trkpt lat="47.52537" lon="6.7123">
        <ele>360</ele>
        <time>2015-09-27T08:04:51.000Z</time>
      </trkpt>
      <trkpt lat="47.52542" lon="6.71232">
        <ele>361</ele>
        <time>2015-09-27T08:04:52.000Z</time>
      </trkpt>
      <trkpt lat="47.52547" lon="6.71235">
        <ele>361</ele>
        <time>2015-09-27T08:04:53.000Z</time>
      </trkpt>
      <trkpt lat="47.52552" lon="6.71237">
        <ele>361</ele>
        <time>2015-09-27T08:04:54.000Z</time>
      </trkpt>
      <trkpt lat="47.52557" lon="6.71239">
        <ele>361</ele>
        <time>2015-09-27T08:04:55.000Z</time>
      </trkpt>
      <trkpt lat="47.52563" lon="6.7124">
        <ele>361</ele>
        <time>2015-09-27T08:04:56.000Z</time>
      </trkpt>
      <trkpt lat="47.52568" lon="6.71241">
        <ele>361</ele>
        <time>2015-09-27T08:04:57.000Z</time>
      </trkpt>
      <trkpt lat="47.52573" lon="6.71242">
        <ele>362</ele>
        <time>2015-09-27T08:04:58.000Z</time>
      </trkpt>
      <trkpt lat="47.52578" lon="6.71241">
        <ele>362</ele>
        <time>2015-09-27T08:04:59.000Z</time>
      </trkpt>
      <trkpt lat="47.52581" lon="6.71241">
        <ele>362</ele>
        <time>2015-09-27T08:05:00.000Z</time>
      </trkpt>
      <trkpt lat="47.52585" lon="6.7124">
        <ele>362</ele>
        <time>2015-09-27T08:05:01.000Z</time>
      </trkpt>
      <trkpt lat="47.52588" lon="6.7124">
        <ele>362</ele>
        <time>2015-09-27T08:05:02.000Z</time>
      </trkpt>
      <trkpt lat="47.52593" lon="6.71241">
        <ele>362</ele>
        <time>2015-09-27T08:05:03.000Z</time>
      </trkpt>
      <trkpt lat="47.52596" lon="6.71241">
        <ele>362</ele>
        <time>2015-09-27T08:05:04.000Z</time>
      </trkpt>
      <trkpt lat="47.52601" lon="6.7124">
        <ele>362</ele>
        <time>2015-09-27T08:05:05.000Z</time>
      </trkpt>
      <trkpt lat="47.52609" lon="6.71239">
        <ele>362</ele>
        <time>2015-09-27T08:05:06.000Z</time>
      </trkpt>
      <trkpt lat="47.52614" lon="6.71238">
        <ele>362</ele>
        <time>2015-09-27T08:05:07.000Z</time>
      </trkpt>
      <trkpt lat="47.52619" lon="6.7124">
        <ele>362</ele>
        <time>2015-09-27T08:05:08.000Z</time>
      </trkpt>
      <trkpt lat="47.52624" lon="6.7124">
        <ele>362</ele>
        <time>2015-09-27T08:05:09.000Z</time>
      </trkpt>
      <trkpt lat="47.5263" lon="6.71241">
        <ele>362</ele>
        <time>2015-09-27T08:05:10.000Z</time>
      </trkpt>
      <trkpt lat="47.52634" lon="6.71241">
        <ele>362</ele>
        <time>2015-09-27T08:05:11.000Z</time>
      </trkpt>
      <trkpt lat="47.5264" lon="6.71242">
        <ele>362</ele>
        <time>2015-09-27T08:05:12.000Z</time>
      </trkpt>
      <trkpt lat="47.52645" lon="6.71242">
        <ele>362</ele>
        <time>2015-09-27T08:05:13.000Z</time>
      </trkpt>
      <trkpt lat="47.52653" lon="6.71243">
        <ele>361</ele>
        <time>2015-09-27T08:05:14.000Z</time>
      </trkpt>
      <trkpt lat="47.52662" lon="6.71248">
        <ele>361</ele>
        <time>2015-09-27T08:05:15.000Z</time>
      </trkpt>
      <trkpt lat="47.52669" lon="6.7125">
        <ele>360</ele>
        <time>2015-09-27T08:05:16.000Z</time>
      </trkpt>
      <trkpt lat="47.52677" lon="6.7125">
        <ele>362</ele>
        <time>2015-09-27T08:05:17.000Z</time>
      </trkpt>
      <trkpt lat="47.52685" lon="6.7125">
        <ele>361</ele>
        <time>2015-09-27T08:05:18.000Z</time>
      </trkpt>
      <trkpt lat="47.52692" lon="6.7125">
        <ele>361</ele>
        <time>2015-09-27T08:05:19.000Z</time>
      </trkpt>
      <trkpt lat="47.52699" lon="6.71254">
        <ele>363</ele>
        <time>2015-09-27T08:05:20.000Z</time>
      </trkpt>
      <trkpt lat="47.52703" lon="6.71251">
        <ele>364</ele>
        <time>2015-09-27T08:05:21.000Z</time>
      </trkpt>
      <trkpt lat="47.52708" lon="6.71254">
        <ele>364</ele>
        <time>2015-09-27T08:05:22.000Z</time>
      </trkpt>
      <trkpt lat="47.52709" lon="6.71251">
        <ele>364</ele>
        <time>2015-09-27T08:05:25.000Z</time>
      </trkpt>
      <trkpt lat="47.52708" lon="6.71246">
        <ele>361</ele>
        <time>2015-09-27T08:05:26.000Z</time>
      </trkpt>
      <trkpt lat="47.52705" lon="6.71241">
        <ele>361</ele>
        <time>2015-09-27T08:05:31.000Z</time>
      </trkpt>
      <trkpt lat="47.52704" lon="6.71239">
        <ele>361</ele>
        <time>2015-09-27T08:05:32.000Z</time>
      </trkpt>
      <trkpt lat="47.52703" lon="6.71234">
        <ele>361</ele>
        <time>2015-09-27T08:05:35.000Z</time>
      </trkpt>
      <trkpt lat="47.52702" lon="6.71232">
        <ele>361</ele>
        <time>2015-09-27T08:05:36.000Z</time>
      </trkpt>
      <trkpt lat="47.527" lon="6.71226">
        <ele>361</ele>
        <time>2015-09-27T08:05:41.000Z</time>
      </trkpt>
      <trkpt lat="47.527" lon="6.71224">
        <ele>361</ele>
        <time>2015-09-27T08:05:42.000Z</time>
      </trkpt>
      <trkpt lat="47.527" lon="6.71219">
        <ele>361</ele>
        <time>2015-09-27T08:05:44.000Z</time>
      </trkpt>
      <trkpt lat="47.527" lon="6.71216">
        <ele>361</ele>
        <time>2015-09-27T08:05:45.000Z</time>
      </trkpt>
      <trkpt lat="47.52701" lon="6.71212">
        <ele>361</ele>
        <time>2015-09-27T08:05:46.000Z</time>
      </trkpt>
      <trkpt lat="47.52703" lon="6.71209">
        <ele>361</ele>
        <time>2015-09-27T08:05:47.000Z</time>
      </trkpt>
      <trkpt lat="47.52705" lon="6.71204">
        <ele>361</ele>
        <time>2015-09-27T08:05:48.000Z</time>
      </trkpt>
      <trkpt lat="47.52707" lon="6.71199">
        <ele>361</ele>
        <time>2015-09-27T08:05:49.000Z</time>
      </trkpt>
      <trkpt lat="47.5271" lon="6.71194">
        <ele>361</ele>
        <time>2015-09-27T08:05:50.000Z</time>
      </trkpt>
      <trkpt lat="47.52713" lon="6.71189">
        <ele>361</ele>
        <time>2015-09-27T08:05:51.000Z</time>
      </trkpt>
      <trkpt lat="47.52716" lon="6.71185">
        <ele>361</ele>
        <time>2015-09-27T08:05:52.000Z</time>
      </trkpt>
      <trkpt lat="47.5272" lon="6.71181">
        <ele>361</ele>
        <time>2015-09-27T08:05:53.000Z</time>
      </trkpt>
      <trkpt lat="47.52724" lon="6.71177">
        <ele>361</ele>
        <time>2015-09-27T08:05:54.000Z</time>
      </trkpt>
      <trkpt lat="47.52729" lon="6.71173">
        <ele>361</ele>
        <time>2015-09-27T08:05:55.000Z</time>
      </trkpt>
      <trkpt lat="47.52734" lon="6.71169">
        <ele>360</ele>
        <time>2015-09-27T08:05:56.000Z</time>
      </trkpt>
      <trkpt lat="47.52737" lon="6.71163">
        <ele>360</ele>
        <time>2015-09-27T08:05:57.000Z</time>
      </trkpt>
      <trkpt lat="47.5274" lon="6.71145">
        <ele>360</ele>
        <time>2015-09-27T08:05:58.000Z</time>
      </trkpt>
      <trkpt lat="47.52738" lon="6.71136">
        <ele>360</ele>
        <time>2015-09-27T08:05:59.000Z</time>
      </trkpt>
      <trkpt lat="47.52737" lon="6.71122">
        <ele>360</ele>
        <time>2015-09-27T08:06:00.000Z</time>
      </trkpt>
      <trkpt lat="47.52735" lon="6.71112">
        <ele>360</ele>
        <time>2015-09-27T08:06:01.000Z</time>
      </trkpt>
      <trkpt lat="47.52733" lon="6.711">
        <ele>359</ele>
        <time>2015-09-27T08:06:02.000Z</time>
      </trkpt>
      <trkpt lat="47.52733" lon="6.71087">
        <ele>358</ele>
        <time>2015-09-27T08:06:03.000Z</time>
      </trkpt>
      <trkpt lat="47.52733" lon="6.71077">
        <ele>358</ele>
        <time>2015-09-27T08:06:04.000Z</time>
      </trkpt>
      <trkpt lat="47.52733" lon="6.71068">
        <ele>359</ele>
        <time>2015-09-27T08:06:05.000Z</time>
      </trkpt>
      <trkpt lat="47.52737" lon="6.71061">
        <ele>359</ele>
        <time>2015-09-27T08:06:06.000Z</time>
      </trkpt>
      <trkpt lat="47.52738" lon="6.71051">
        <ele>359</ele>
        <time>2015-09-27T08:06:07.000Z</time>
      </trkpt>
      <trkpt lat="47.52739" lon="6.71042">
        <ele>359</ele>
        <time>2015-09-27T08:06:08.000Z</time>
      </trkpt>
      <trkpt lat="47.52736" lon="6.71036">
        <ele>359</ele>
        <time>2015-09-27T08:06:09.000Z</time>
      </trkpt>
      <trkpt lat="47.52734" lon="6.71032">
        <ele>359</ele>
        <time>2015-09-27T08:06:10.000Z</time>
      </trkpt>
      <trkpt lat="47.52731" lon="6.71026">
        <ele>359</ele>
        <time>2015-09-27T08:06:11.000Z</time>
      </trkpt>
      <trkpt lat="47.52729" lon="6.71022">
        <ele>359</ele>
        <time>2015-09-27T08:06:12.000Z</time>
      </trkpt>
      <trkpt lat="47.52726" lon="6.71019">
        <ele>360</ele>
        <time>2015-09-27T08:06:13.000Z</time>
      </trkpt>
      <trkpt lat="47.52724" lon="6.71016">
        <ele>360</ele>
        <time>2015-09-27T08:06:14.000Z</time>
      </trkpt>
      <trkpt lat="47.52722" lon="6.71012">
        <ele>360</ele>
        <time>2015-09-27T08:06:15.000Z</time>
      </trkpt>
      <trkpt lat="47.52721" lon="6.71008">
        <ele>360</ele>
        <time>2015-09-27T08:06:16.000Z</time>
      </trkpt>
      <trkpt lat="47.52721" lon="6.71002">
        <ele>360</ele>
        <time>2015-09-27T08:06:17.000Z</time>
      </trkpt>
      <trkpt lat="47.52719" lon="6.70998">
        <ele>361</ele>
        <time>2015-09-27T08:06:18.000Z</time>
      </trkpt>
      <trkpt lat="47.52718" lon="6.70994">
        <ele>361</ele>
        <time>2015-09-27T08:06:19.000Z</time>
      </trkpt>
      <trkpt lat="47.52718" lon="6.70989">
        <ele>361</ele>
        <time>2015-09-27T08:06:20.000Z</time>
      </trkpt>
      <trkpt lat="47.52717" lon="6.70984">
        <ele>361</ele>
        <time>2015-09-27T08:06:21.000Z</time>
      </trkpt>
      <trkpt lat="47.52717" lon="6.70978">
        <ele>362</ele>
        <time>2015-09-27T08:06:22.000Z</time>
      </trkpt>
      <trkpt lat="47.52717" lon="6.70972">
        <ele>362</ele>
        <time>2015-09-27T08:06:23.000Z</time>
      </trkpt>
      <trkpt lat="47.52717" lon="6.70966">
        <ele>362</ele>
        <time>2015-09-27T08:06:24.000Z</time>
      </trkpt>
      <trkpt lat="47.52716" lon="6.70959">
        <ele>362</ele>
        <time>2015-09-27T08:06:25.000Z</time>
      </trkpt>
      <trkpt lat="47.52716" lon="6.70953">
        <ele>362</ele>
        <time>2015-09-27T08:06:26.000Z</time>
      </trkpt>
      <trkpt lat="47.52717" lon="6.70946">
        <ele>362</ele>
        <time>2015-09-27T08:06:27.000Z</time>
      </trkpt>
      <trkpt lat="47.52717" lon="6.70939">
        <ele>362</ele>
        <time>2015-09-27T08:06:28.000Z</time>
      </trkpt>
      <trkpt lat="47.52718" lon="6.70933">
        <ele>361</ele>
        <time>2015-09-27T08:06:29.000Z</time>
      </trkpt>
      <trkpt lat="47.52718" lon="6.70927">
        <ele>361</ele>
        <time>2015-09-27T08:06:30.000Z</time>
      </trkpt>
      <trkpt lat="47.52719" lon="6.70921">
        <ele>361</ele>
        <time>2015-09-27T08:06:31.000Z</time>
      </trkpt>
      <trkpt lat="47.5272" lon="6.70915">
        <ele>361</ele>
        <time>2015-09-27T08:06:32.000Z</time>
      </trkpt>
      <trkpt lat="47.5272" lon="6.70908">
        <ele>361</ele>
        <time>2015-09-27T08:06:33.000Z</time>
      </trkpt>
      <trkpt lat="47.5272" lon="6.70901">
        <ele>361</ele>
        <time>2015-09-27T08:06:34.000Z</time>
      </trkpt>
      <trkpt lat="47.52721" lon="6.70894">
        <ele>361</ele>
        <time>2015-09-27T08:06:35.000Z</time>
      </trkpt>
      <trkpt lat="47.52722" lon="6.70887">
        <ele>361</ele>
        <time>2015-09-27T08:06:36.000Z</time>
      </trkpt>
      <trkpt lat="47.52723" lon="6.70879">
        <ele>361</ele>
        <time>2015-09-27T08:06:37.000Z</time>
      </trkpt>
      <trkpt lat="47.52724" lon="6.70873">
        <ele>361</ele>
        <time>2015-09-27T08:06:38.000Z</time>
      </trkpt>
      <trkpt lat="47.52725" lon="6.70866">
        <ele>361</ele>
        <time>2015-09-27T08:06:39.000Z</time>
      </trkpt>
      <trkpt lat="47.52726" lon="6.70861">
        <ele>361</ele>
        <time>2015-09-27T08:06:40.000Z</time>
      </trkpt>
      <trkpt lat="47.52726" lon="6.70855">
        <ele>361</ele>
        <time>2015-09-27T08:06:41.000Z</time>
      </trkpt>
      <trkpt lat="47.52726" lon="6.7085">
        <ele>361</ele>
        <time>2015-09-27T08:06:42.000Z</time>
      </trkpt>
      <trkpt lat="47.52727" lon="6.70845">
        <ele>360</ele>
        <time>2015-09-27T08:06:43.000Z</time>
      </trkpt>
      <trkpt lat="47.52727" lon="6.70839">
        <ele>360</ele>
        <time>2015-09-27T08:06:44.000Z</time>
      </trkpt>
      <trkpt lat="47.52728" lon="6.70833">
        <ele>361</ele>
        <time>2015-09-27T08:06:45.000Z</time>
      </trkpt>
      <trkpt lat="47.52728" lon="6.70828">
        <ele>361</ele>
        <time>2015-09-27T08:06:46.000Z</time>
      </trkpt>
      <trkpt lat="47.52728" lon="6.70823">
        <ele>361</ele>
        <time>2015-09-27T08:06:47.000Z</time>
      </trkpt>
      <trkpt lat="47.52728" lon="6.70817">
        <ele>362</ele>
        <time>2015-09-27T08:06:48.000Z</time>
      </trkpt>
      <trkpt lat="47.52728" lon="6.70812">
        <ele>362</ele>
        <time>2015-09-27T08:06:49.000Z</time>
      </trkpt>
      <trkpt lat="47.52728" lon="6.70807">
        <ele>363</ele>
        <time>2015-09-27T08:06:50.000Z</time>
      </trkpt>
      <trkpt lat="47.52727" lon="6.70802">
        <ele>363</ele>
        <time>2015-09-27T08:06:51.000Z</time>
      </trkpt>
      <trkpt lat="47.52727" lon="6.70797">
        <ele>363</ele>
        <time>2015-09-27T08:06:52.000Z</time>
      </trkpt>
      <trkpt lat="47.52727" lon="6.70792">
        <ele>364</ele>
        <time>2015-09-27T08:06:53.000Z</time>
      </trkpt>
      <trkpt lat="47.52727" lon="6.70786">
        <ele>364</ele>
        <time>2015-09-27T08:06:54.000Z</time>
      </trkpt>
      <trkpt lat="47.52728" lon="6.7078">
        <ele>363</ele>
        <time>2015-09-27T08:06:55.000Z</time>
      </trkpt>
      <trkpt lat="47.52729" lon="6.70773">
        <ele>363</ele>
        <time>2015-09-27T08:06:56.000Z</time>
      </trkpt>
      <trkpt lat="47.52731" lon="6.70767">
        <ele>363</ele>
        <time>2015-09-27T08:06:57.000Z</time>
      </trkpt>
      <trkpt lat="47.52733" lon="6.7076">
        <ele>362</ele>
        <time>2015-09-27T08:06:58.000Z</time>
      </trkpt>
      <trkpt lat="47.52734" lon="6.70754">
        <ele>361</ele>
        <time>2015-09-27T08:06:59.000Z</time>
      </trkpt>
      <trkpt lat="47.52736" lon="6.70748">
        <ele>361</ele>
        <time>2015-09-27T08:07:00.000Z</time>
      </trkpt>
      <trkpt lat="47.52737" lon="6.70741">
        <ele>361</ele>
        <time>2015-09-27T08:07:01.000Z</time>
      </trkpt>
      <trkpt lat="47.52738" lon="6.70735">
        <ele>361</ele>
        <time>2015-09-27T08:07:02.000Z</time>
      </trkpt>
      <trkpt lat="47.52738" lon="6.70728">
        <ele>362</ele>
        <time>2015-09-27T08:07:03.000Z</time>
      </trkpt>
      <trkpt lat="47.52738" lon="6.7072">
        <ele>362</ele>
        <time>2015-09-27T08:07:04.000Z</time>
      </trkpt>
      <trkpt lat="47.52739" lon="6.70713">
        <ele>363</ele>
        <time>2015-09-27T08:07:05.000Z</time>
      </trkpt>
      <trkpt lat="47.52738" lon="6.70706">
        <ele>362</ele>
        <time>2015-09-27T08:07:06.000Z</time>
      </trkpt>
      <trkpt lat="47.52738" lon="6.70699">
        <ele>362</ele>
        <time>2015-09-27T08:07:07.000Z</time>
      </trkpt>
      <trkpt lat="47.52738" lon="6.70693">
        <ele>362</ele>
        <time>2015-09-27T08:07:08.000Z</time>
      </trkpt>
      <trkpt lat="47.52738" lon="6.70687">
        <ele>361</ele>
        <time>2015-09-27T08:07:09.000Z</time>
      </trkpt>
      <trkpt lat="47.52737" lon="6.70681">
        <ele>360</ele>
        <time>2015-09-27T08:07:10.000Z</time>
      </trkpt>
      <trkpt lat="47.52737" lon="6.70676">
        <ele>360</ele>
        <time>2015-09-27T08:07:11.000Z</time>
      </trkpt>
      <trkpt lat="47.52736" lon="6.70671">
        <ele>359</ele>
        <time>2015-09-27T08:07:12.000Z</time>
      </trkpt>
      <trkpt lat="47.52736" lon="6.70665">
        <ele>357</ele>
        <time>2015-09-27T08:07:13.000Z</time>
      </trkpt>
      <trkpt lat="47.52735" lon="6.7066">
        <ele>358</ele>
        <time>2015-09-27T08:07:14.000Z</time>
      </trkpt>
      <trkpt lat="47.52735" lon="6.70655">
        <ele>358</ele>
        <time>2015-09-27T08:07:15.000Z</time>
      </trkpt>
      <trkpt lat="47.52735" lon="6.7065">
        <ele>358</ele>
        <time>2015-09-27T08:07:16.000Z</time>
      </trkpt>
      <trkpt lat="47.52735" lon="6.70644">
        <ele>358</ele>
        <time>2015-09-27T08:07:17.000Z</time>
      </trkpt>
      <trkpt lat="47.52736" lon="6.70638">
        <ele>358</ele>
        <time>2015-09-27T08:07:18.000Z</time>
      </trkpt>
      <trkpt lat="47.52739" lon="6.70631">
        <ele>358</ele>
        <time>2015-09-27T08:07:19.000Z</time>
      </trkpt>
      <trkpt lat="47.52742" lon="6.70624">
        <ele>358</ele>
        <time>2015-09-27T08:07:20.000Z</time>
      </trkpt>
      <trkpt lat="47.52748" lon="6.70618">
        <ele>357</ele>
        <time>2015-09-27T08:07:21.000Z</time>
      </trkpt>
      <trkpt lat="47.52754" lon="6.70614">
        <ele>350</ele>
        <time>2015-09-27T08:07:22.000Z</time>
      </trkpt>
      <trkpt lat="47.52759" lon="6.70611">
        <ele>350</ele>
        <time>2015-09-27T08:07:23.000Z</time>
      </trkpt>
      <trkpt lat="47.52764" lon="6.70609">
        <ele>350</ele>
        <time>2015-09-27T08:07:24.000Z</time>
      </trkpt>
      <trkpt lat="47.52768" lon="6.70607">
        <ele>350</ele>
        <time>2015-09-27T08:07:25.000Z</time>
      </trkpt>
      <trkpt lat="47.5277" lon="6.70605">
        <ele>350</ele>
        <time>2015-09-27T08:07:26.000Z</time>
      </trkpt>
      <trkpt lat="47.52773" lon="6.70603">
        <ele>350</ele>
        <time>2015-09-27T08:07:27.000Z</time>
      </trkpt>
      <trkpt lat="47.52775" lon="6.70603">
        <ele>350</ele>
        <time>2015-09-27T08:07:28.000Z</time>
      </trkpt>
      <trkpt lat="47.5278" lon="6.70601">
        <ele>350</ele>
        <time>2015-09-27T08:07:30.000Z</time>
      </trkpt>
      <trkpt lat="47.52781" lon="6.706">
        <ele>350</ele>
        <time>2015-09-27T08:07:31.000Z</time>
      </trkpt>
      <trkpt lat="47.52783" lon="6.70596">
        <ele>350</ele>
        <time>2015-09-27T08:07:33.000Z</time>
      </trkpt>
      <trkpt lat="47.52784" lon="6.70594">
        <ele>350</ele>
        <time>2015-09-27T08:07:34.000Z</time>
      </trkpt>
      <trkpt lat="47.52785" lon="6.70588">
        <ele>350</ele>
        <time>2015-09-27T08:07:36.000Z</time>
      </trkpt>
      <trkpt lat="47.52786" lon="6.70584">
        <ele>350</ele>
        <time>2015-09-27T08:07:37.000Z</time>
      </trkpt>
      <trkpt lat="47.52786" lon="6.7058">
        <ele>348</ele>
        <time>2015-09-27T08:07:38.000Z</time>
      </trkpt>
      <trkpt lat="47.52785" lon="6.70577">
        <ele>348</ele>
        <time>2015-09-27T08:07:39.000Z</time>
      </trkpt>
      <trkpt lat="47.52784" lon="6.70572">
        <ele>348</ele>
        <time>2015-09-27T08:07:41.000Z</time>
      </trkpt>
      <trkpt lat="47.52784" lon="6.7057">
        <ele>348</ele>
        <time>2015-09-27T08:07:42.000Z</time>
      </trkpt>
      <trkpt lat="47.52783" lon="6.70564">
        <ele>348</ele>
        <time>2015-09-27T08:07:45.000Z</time>
      </trkpt>
      <trkpt lat="47.52783" lon="6.70563">
        <ele>348</ele>
        <time>2015-09-27T08:07:46.000Z</time>
      </trkpt>
      <trkpt lat="47.52783" lon="6.70558">
        <ele>348</ele>
        <time>2015-09-27T08:07:49.000Z</time>
      </trkpt>
      <trkpt lat="47.52784" lon="6.70556">
        <ele>348</ele>
        <time>2015-09-27T08:07:50.000Z</time>
      </trkpt>
      <trkpt lat="47.52786" lon="6.70554">
        <ele>348</ele>
        <time>2015-09-27T08:07:52.000Z</time>
      </trkpt>
      <trkpt lat="47.52788" lon="6.70554">
        <ele>348</ele>
        <time>2015-09-27T08:07:53.000Z</time>
      </trkpt>
      <trkpt lat="47.52791" lon="6.70554">
        <ele>348</ele>
        <time>2015-09-27T08:07:54.000Z</time>
      </trkpt>
      <trkpt lat="47.52794" lon="6.70555">
        <ele>348</ele>
        <time>2015-09-27T08:07:55.000Z</time>
      </trkpt>
      <trkpt lat="47.52797" lon="6.70557">
        <ele>348</ele>
        <time>2015-09-27T08:07:56.000Z</time>
      </trkpt>
      <trkpt lat="47.52801" lon="6.70559">
        <ele>348</ele>
        <time>2015-09-27T08:07:57.000Z</time>
      </trkpt>
      <trkpt lat="47.52804" lon="6.70561">
        <ele>348</ele>
        <time>2015-09-27T08:07:58.000Z</time>
      </trkpt>
      <trkpt lat="47.52806" lon="6.70564">
        <ele>349</ele>
        <time>2015-09-27T08:07:59.000Z</time>
      </trkpt>
      <trkpt lat="47.52808" lon="6.70568">
        <ele>349</ele>
        <time>2015-09-27T08:08:00.000Z</time>
      </trkpt>
      <trkpt lat="47.5281" lon="6.70571">
        <ele>349</ele>
        <time>2015-09-27T08:08:01.000Z</time>
      </trkpt>
      <trkpt lat="47.52812" lon="6.70574">
        <ele>349</ele>
        <time>2015-09-27T08:08:02.000Z</time>
      </trkpt>
      <trkpt lat="47.52814" lon="6.70576">
        <ele>349</ele>
        <time>2015-09-27T08:08:03.000Z</time>
      </trkpt>
      <trkpt lat="47.52817" lon="6.70577">
        <ele>349</ele>
        <time>2015-09-27T08:08:04.000Z</time>
      </trkpt>
      <trkpt lat="47.52819" lon="6.70577">
        <ele>349</ele>
        <time>2015-09-27T08:08:05.000Z</time>
      </trkpt>
      <trkpt lat="47.52823" lon="6.70576">
        <ele>349</ele>
        <time>2015-09-27T08:08:07.000Z</time>
      </trkpt>
      <trkpt lat="47.52825" lon="6.70575">
        <ele>349</ele>
        <time>2015-09-27T08:08:08.000Z</time>
      </trkpt>
      <trkpt lat="47.52828" lon="6.70572">
        <ele>349</ele>
        <time>2015-09-27T08:08:11.000Z</time>
      </trkpt>
      <trkpt lat="47.52829" lon="6.70571">
        <ele>349</ele>
        <time>2015-09-27T08:08:12.000Z</time>
      </trkpt>
      <trkpt lat="47.52832" lon="6.70566">
        <ele>349</ele>
        <time>2015-09-27T08:08:15.000Z</time>
      </trkpt>
      <trkpt lat="47.52833" lon="6.70564">
        <ele>349</ele>
        <time>2015-09-27T08:08:16.000Z</time>
      </trkpt>
      <trkpt lat="47.52833" lon="6.70559">
        <ele>349</ele>
        <time>2015-09-27T08:08:18.000Z</time>
      </trkpt>
      <trkpt lat="47.52833" lon="6.70556">
        <ele>349</ele>
        <time>2015-09-27T08:08:19.000Z</time>
      </trkpt>
      <trkpt lat="47.52833" lon="6.7055">
        <ele>349</ele>
        <time>2015-09-27T08:08:21.000Z</time>
      </trkpt>
      <trkpt lat="47.52833" lon="6.70547">
        <ele>349</ele>
        <time>2015-09-27T08:08:22.000Z</time>
      </trkpt>
      <trkpt lat="47.52833" lon="6.7054">
        <ele>349</ele>
        <time>2015-09-27T08:08:24.000Z</time>
      </trkpt>
      <trkpt lat="47.52832" lon="6.70536">
        <ele>349</ele>
        <time>2015-09-27T08:08:25.000Z</time>
      </trkpt>
      <trkpt lat="47.52832" lon="6.70532">
        <ele>348</ele>
        <time>2015-09-27T08:08:26.000Z</time>
      </trkpt>
      <trkpt lat="47.5283" lon="6.70527">
        <ele>348</ele>
        <time>2015-09-27T08:08:27.000Z</time>
      </trkpt>
      <trkpt lat="47.52829" lon="6.70522">
        <ele>348</ele>
        <time>2015-09-27T08:08:28.000Z</time>
      </trkpt>
      <trkpt lat="47.52828" lon="6.70516">
        <ele>349</ele>
        <time>2015-09-27T08:08:29.000Z</time>
      </trkpt>
      <trkpt lat="47.52826" lon="6.70511">
        <ele>349</ele>
        <time>2015-09-27T08:08:30.000Z</time>
      </trkpt>
      <trkpt lat="47.52824" lon="6.70505">
        <ele>349</ele>
        <time>2015-09-27T08:08:31.000Z</time>
      </trkpt>
      <trkpt lat="47.52823" lon="6.705">
        <ele>348</ele>
        <time>2015-09-27T08:08:32.000Z</time>
      </trkpt>
      <trkpt lat="47.52821" lon="6.70495">
        <ele>348</ele>
        <time>2015-09-27T08:08:33.000Z</time>
      </trkpt>
      <trkpt lat="47.52819" lon="6.7049">
        <ele>347</ele>
        <time>2015-09-27T08:08:34.000Z</time>
      </trkpt>
      <trkpt lat="47.52817" lon="6.70486">
        <ele>347</ele>
        <time>2015-09-27T08:08:35.000Z</time>
      </trkpt>
      <trkpt lat="47.52815" lon="6.70481">
        <ele>347</ele>
        <time>2015-09-27T08:08:36.000Z</time>
      </trkpt>
      <trkpt lat="47.52813" lon="6.70477">
        <ele>347</ele>
        <time>2015-09-27T08:08:37.000Z</time>
      </trkpt>
      <trkpt lat="47.52811" lon="6.70472">
        <ele>346</ele>
        <time>2015-09-27T08:08:38.000Z</time>
      </trkpt>
      <trkpt lat="47.52811" lon="6.70466">
        <ele>346</ele>
        <time>2015-09-27T08:08:39.000Z</time>
      </trkpt>
      <trkpt lat="47.52811" lon="6.70459">
        <ele>346</ele>
        <time>2015-09-27T08:08:40.000Z</time>
      </trkpt>
      <trkpt lat="47.52812" lon="6.70453">
        <ele>346</ele>
        <time>2015-09-27T08:08:41.000Z</time>
      </trkpt>
      <trkpt lat="47.52815" lon="6.70446">
        <ele>346</ele>
        <time>2015-09-27T08:08:42.000Z</time>
      </trkpt>
      <trkpt lat="47.52817" lon="6.70441">
        <ele>346</ele>
        <time>2015-09-27T08:08:43.000Z</time>
      </trkpt>
      <trkpt lat="47.5282" lon="6.70438">
        <ele>346</ele>
        <time>2015-09-27T08:08:44.000Z</time>
      </trkpt>
      <trkpt lat="47.52823" lon="6.70435">
        <ele>346</ele>
        <time>2015-09-27T08:08:45.000Z</time>
      </trkpt>
      <trkpt lat="47.52827" lon="6.70434">
        <ele>346</ele>
        <time>2015-09-27T08:08:46.000Z</time>
      </trkpt>
      <trkpt lat="47.52831" lon="6.70434">
        <ele>346</ele>
        <time>2015-09-27T08:08:47.000Z</time>
      </trkpt>
      <trkpt lat="47.52836" lon="6.70434">
        <ele>349</ele>
        <time>2015-09-27T08:08:48.000Z</time>
      </trkpt>
      <trkpt lat="47.5284" lon="6.70435">
        <ele>349</ele>
        <time>2015-09-27T08:08:49.000Z</time>
      </trkpt>
      <trkpt lat="47.52844" lon="6.70435">
        <ele>349</ele>
        <time>2015-09-27T08:08:50.000Z</time>
      </trkpt>
      <trkpt lat="47.52848" lon="6.70434">
        <ele>350</ele>
        <time>2015-09-27T08:08:51.000Z</time>
      </trkpt>
      <trkpt lat="47.52852" lon="6.70433">
        <ele>350</ele>
        <time>2015-09-27T08:08:52.000Z</time>
      </trkpt>
      <trkpt lat="47.52855" lon="6.70432">
        <ele>350</ele>
        <time>2015-09-27T08:08:53.000Z</time>
      </trkpt>
      <trkpt lat="47.52858" lon="6.70431">
        <ele>350</ele>
        <time>2015-09-27T08:08:54.000Z</time>
      </trkpt>
      <trkpt lat="47.52862" lon="6.70429">
        <ele>350</ele>
        <time>2015-09-27T08:08:55.000Z</time>
      </trkpt>
      <trkpt lat="47.52865" lon="6.70428">
        <ele>351</ele>
        <time>2015-09-27T08:08:56.000Z</time>
      </trkpt>
      <trkpt lat="47.52868" lon="6.70428">
        <ele>351</ele>
        <time>2015-09-27T08:08:57.000Z</time>
      </trkpt>
      <trkpt lat="47.52871" lon="6.70428">
        <ele>351</ele>
        <time>2015-09-27T08:08:58.000Z</time>
      </trkpt>
      <trkpt lat="47.52874" lon="6.70428">
        <ele>351</ele>
        <time>2015-09-27T08:08:59.000Z</time>
      </trkpt>
      <trkpt lat="47.52876" lon="6.70427">
        <ele>351</ele>
        <time>2015-09-27T08:09:00.000Z</time>
      </trkpt>
      <trkpt lat="47.52879" lon="6.70427">
        <ele>351</ele>
        <time>2015-09-27T08:09:01.000Z</time>
      </trkpt>
      <trkpt lat="47.52883" lon="6.70426">
        <ele>352</ele>
        <time>2015-09-27T08:09:02.000Z</time>
      </trkpt>
      <trkpt lat="47.52886" lon="6.70426">
        <ele>352</ele>
        <time>2015-09-27T08:09:03.000Z</time>
      </trkpt>
      <trkpt lat="47.52889" lon="6.70426">
        <ele>352</ele>
        <time>2015-09-27T08:09:04.000Z</time>
      </trkpt>
      <trkpt lat="47.52892" lon="6.70425">
        <ele>352</ele>
        <time>2015-09-27T08:09:05.000Z</time>
      </trkpt>
      <trkpt lat="47.52896" lon="6.70426">
        <ele>352</ele>
        <time>2015-09-27T08:09:06.000Z</time>
      </trkpt>
      <trkpt lat="47.52898" lon="6.70426">
        <ele>352</ele>
        <time>2015-09-27T08:09:07.000Z</time>
      </trkpt>
      <trkpt lat="47.52901" lon="6.70426">
        <ele>352</ele>
        <time>2015-09-27T08:09:08.000Z</time>
      </trkpt>
      <trkpt lat="47.52904" lon="6.70426">
        <ele>352</ele>
        <time>2015-09-27T08:09:09.000Z</time>
      </trkpt>
      <trkpt lat="47.52906" lon="6.70426">
        <ele>352</ele>
        <time>2015-09-27T08:09:10.000Z</time>
      </trkpt>
      <trkpt lat="47.52909" lon="6.70426">
        <ele>352</ele>
        <time>2015-09-27T08:09:11.000Z</time>
      </trkpt>
      <trkpt lat="47.52913" lon="6.70424">
        <ele>352</ele>
        <time>2015-09-27T08:09:13.000Z</time>
      </trkpt>
      <trkpt lat="47.52917" lon="6.70422">
        <ele>354</ele>
        <time>2015-09-27T08:09:15.000Z</time>
      </trkpt>
      <trkpt lat="47.52919" lon="6.70421">
        <ele>354</ele>
        <time>2015-09-27T08:09:16.000Z</time>
      </trkpt>
      <trkpt lat="47.52921" lon="6.70421">
        <ele>354</ele>
        <time>2015-09-27T08:09:17.000Z</time>
      </trkpt>
      <trkpt lat="47.52924" lon="6.70421">
        <ele>355</ele>
        <time>2015-09-27T08:09:18.000Z</time>
      </trkpt>
      <trkpt lat="47.52926" lon="6.7042">
        <ele>356</ele>
        <time>2015-09-27T08:09:19.000Z</time>
      </trkpt>
      <trkpt lat="47.52928" lon="6.70421">
        <ele>356</ele>
        <time>2015-09-27T08:09:20.000Z</time>
      </trkpt>
      <trkpt lat="47.52931" lon="6.70421">
        <ele>357</ele>
        <time>2015-09-27T08:09:21.000Z</time>
      </trkpt>
      <trkpt lat="47.52934" lon="6.70422">
        <ele>358</ele>
        <time>2015-09-27T08:09:22.000Z</time>
      </trkpt>
      <trkpt lat="47.52936" lon="6.70424">
        <ele>358</ele>
        <time>2015-09-27T08:09:23.000Z</time>
      </trkpt>
      <trkpt lat="47.52938" lon="6.70425">
        <ele>359</ele>
        <time>2015-09-27T08:09:24.000Z</time>
      </trkpt>
      <trkpt lat="47.5294" lon="6.70426">
        <ele>359</ele>
        <time>2015-09-27T08:09:25.000Z</time>
      </trkpt>
      <trkpt lat="47.52942" lon="6.70427">
        <ele>359</ele>
        <time>2015-09-27T08:09:26.000Z</time>
      </trkpt>
      <trkpt lat="47.52945" lon="6.70427">
        <ele>360</ele>
        <time>2015-09-27T08:09:27.000Z</time>
      </trkpt>
      <trkpt lat="47.52947" lon="6.70427">
        <ele>360</ele>
        <time>2015-09-27T08:09:28.000Z</time>
      </trkpt>
      <trkpt lat="47.52949" lon="6.70428">
        <ele>360</ele>
        <time>2015-09-27T08:09:29.000Z</time>
      </trkpt>
      <trkpt lat="47.52951" lon="6.70429">
        <ele>361</ele>
        <time>2015-09-27T08:09:30.000Z</time>
      </trkpt>
      <trkpt lat="47.52954" lon="6.7043">
        <ele>361</ele>
        <time>2015-09-27T08:09:31.000Z</time>
      </trkpt>
      <trkpt lat="47.52956" lon="6.70431">
        <ele>361</ele>
        <time>2015-09-27T08:09:32.000Z</time>
      </trkpt>
      <trkpt lat="47.52959" lon="6.70432">
        <ele>362</ele>
        <time>2015-09-27T08:09:33.000Z</time>
      </trkpt>
      <trkpt lat="47.52962" lon="6.70433">
        <ele>362</ele>
        <time>2015-09-27T08:09:34.000Z</time>
      </trkpt>
      <trkpt lat="47.52964" lon="6.70434">
        <ele>362</ele>
        <time>2015-09-27T08:09:35.000Z</time>
      </trkpt>
      <trkpt lat="47.52967" lon="6.70434">
        <ele>363</ele>
        <time>2015-09-27T08:09:36.000Z</time>
      </trkpt>
      <trkpt lat="47.52969" lon="6.70434">
        <ele>363</ele>
        <time>2015-09-27T08:09:37.000Z</time>
      </trkpt>
      <trkpt lat="47.52971" lon="6.70434">
        <ele>363</ele>
        <time>2015-09-27T08:09:38.000Z</time>
      </trkpt>
      <trkpt lat="47.52975" lon="6.70435">
        <ele>363</ele>
        <time>2015-09-27T08:09:40.000Z</time>
      </trkpt>
      <trkpt lat="47.52977" lon="6.70436">
        <ele>363</ele>
        <time>2015-09-27T08:09:41.000Z</time>
      </trkpt>
      <trkpt lat="47.52982" lon="6.70437">
        <ele>364</ele>
        <time>2015-09-27T08:09:43.000Z</time>
      </trkpt>
      <trkpt lat="47.52984" lon="6.70437">
        <ele>364</ele>
        <time>2015-09-27T08:09:44.000Z</time>
      </trkpt>
      <trkpt lat="47.52988" lon="6.70438">
        <ele>364</ele>
        <time>2015-09-27T08:09:46.000Z</time>
      </trkpt>
      <trkpt lat="47.52989" lon="6.70439">
        <ele>364</ele>
        <time>2015-09-27T08:09:47.000Z</time>
      </trkpt>
      <trkpt lat="47.52992" lon="6.70442">
        <ele>364</ele>
        <time>2015-09-27T08:09:49.000Z</time>
      </trkpt>
      <trkpt lat="47.52993" lon="6.70443">
        <ele>364</ele>
        <time>2015-09-27T08:09:50.000Z</time>
      </trkpt>
      <trkpt lat="47.52996" lon="6.70447">
        <ele>365</ele>
        <time>2015-09-27T08:09:53.000Z</time>
      </trkpt>
      <trkpt lat="47.52998" lon="6.70449">
        <ele>365</ele>
        <time>2015-09-27T08:09:54.000Z</time>
      </trkpt>
      <trkpt lat="47.53001" lon="6.70451">
        <ele>374</ele>
        <time>2015-09-27T08:09:56.000Z</time>
      </trkpt>
      <trkpt lat="47.53002" lon="6.70452">
        <ele>374</ele>
        <time>2015-09-27T08:09:57.000Z</time>
      </trkpt>
      <trkpt lat="47.53006" lon="6.70455">
        <ele>374</ele>
        <time>2015-09-27T08:10:00.000Z</time>
      </trkpt>
      <trkpt lat="47.53007" lon="6.70456">
        <ele>374</ele>
        <time>2015-09-27T08:10:01.000Z</time>
      </trkpt>
      <trkpt lat="47.5301" lon="6.70458">
        <ele>375</ele>
        <time>2015-09-27T08:10:05.000Z</time>
      </trkpt>
      <trkpt lat="47.53011" lon="6.70459">
        <ele>375</ele>
        <time>2015-09-27T08:10:06.000Z</time>
      </trkpt>
      <trkpt lat="47.53015" lon="6.7046">
        <ele>375</ele>
        <time>2015-09-27T08:10:08.000Z</time>
      </trkpt>
      <trkpt lat="47.53018" lon="6.7046">
        <ele>375</ele>
        <time>2015-09-27T08:10:09.000Z</time>
      </trkpt>
      <trkpt lat="47.53022" lon="6.70462">
        <ele>376</ele>
        <time>2015-09-27T08:10:11.000Z</time>
      </trkpt>
      <trkpt lat="47.53024" lon="6.70462">
        <ele>376</ele>
        <time>2015-09-27T08:10:12.000Z</time>
      </trkpt>
      <trkpt lat="47.53028" lon="6.70463">
        <ele>376</ele>
        <time>2015-09-27T08:10:14.000Z</time>
      </trkpt>
      <trkpt lat="47.5303" lon="6.70464">
        <ele>376</ele>
        <time>2015-09-27T08:10:15.000Z</time>
      </trkpt>
      <trkpt lat="47.53034" lon="6.70466">
        <ele>377</ele>
        <time>2015-09-27T08:10:17.000Z</time>
      </trkpt>
      <trkpt lat="47.53035" lon="6.70467">
        <ele>377</ele>
        <time>2015-09-27T08:10:18.000Z</time>
      </trkpt>
      <trkpt lat="47.53039" lon="6.70469">
        <ele>378</ele>
        <time>2015-09-27T08:10:21.000Z</time>
      </trkpt>
      <trkpt lat="47.53041" lon="6.70469">
        <ele>378</ele>
        <time>2015-09-27T08:10:22.000Z</time>
      </trkpt>
      <trkpt lat="47.53045" lon="6.70469">
        <ele>378</ele>
        <time>2015-09-27T08:10:25.000Z</time>
      </trkpt>
      <trkpt lat="47.53047" lon="6.70469">
        <ele>378</ele>
        <time>2015-09-27T08:10:26.000Z</time>
      </trkpt>
      <trkpt lat="47.5305" lon="6.70469">
        <ele>379</ele>
        <time>2015-09-27T08:10:28.000Z</time>
      </trkpt>
      <trkpt lat="47.53052" lon="6.7047">
        <ele>379</ele>
        <time>2015-09-27T08:10:29.000Z</time>
      </trkpt>
      <trkpt lat="47.53055" lon="6.70471">
        <ele>379</ele>
        <time>2015-09-27T08:10:31.000Z</time>
      </trkpt>
      <trkpt lat="47.53057" lon="6.70472">
        <ele>380</ele>
        <time>2015-09-27T08:10:32.000Z</time>
      </trkpt>
      <trkpt lat="47.53061" lon="6.70472">
        <ele>380</ele>
        <time>2015-09-27T08:10:35.000Z</time>
      </trkpt>
      <trkpt lat="47.53062" lon="6.70472">
        <ele>380</ele>
        <time>2015-09-27T08:10:36.000Z</time>
      </trkpt>
      <trkpt lat="47.53066" lon="6.70472">
        <ele>381</ele>
        <time>2015-09-27T08:10:40.000Z</time>
      </trkpt>
      <trkpt lat="47.53067" lon="6.70473">
        <ele>381</ele>
        <time>2015-09-27T08:10:41.000Z</time>
      </trkpt>
      <trkpt lat="47.53071" lon="6.70472">
        <ele>381</ele>
        <time>2015-09-27T08:10:46.000Z</time>
      </trkpt>
      <trkpt lat="47.53072" lon="6.7047">
        <ele>381</ele>
        <time>2015-09-27T08:10:47.000Z</time>
      </trkpt>
      <trkpt lat="47.53075" lon="6.70466">
        <ele>381</ele>
        <time>2015-09-27T08:10:50.000Z</time>
      </trkpt>
      <trkpt lat="47.53076" lon="6.70465">
        <ele>381</ele>
        <time>2015-09-27T08:10:51.000Z</time>
      </trkpt>
      <trkpt lat="47.5308" lon="6.70463">
        <ele>381</ele>
        <time>2015-09-27T08:10:54.000Z</time>
      </trkpt>
      <trkpt lat="47.53081" lon="6.70462">
        <ele>381</ele>
        <time>2015-09-27T08:10:55.000Z</time>
      </trkpt>
      <trkpt lat="47.53084" lon="6.70459">
        <ele>390</ele>
        <time>2015-09-27T08:10:57.000Z</time>
      </trkpt>
      <trkpt lat="47.53086" lon="6.70458">
        <ele>390</ele>
        <time>2015-09-27T08:10:58.000Z</time>
      </trkpt>
      <trkpt lat="47.5309" lon="6.70457">
        <ele>390</ele>
        <time>2015-09-27T08:11:02.000Z</time>
      </trkpt>
      <trkpt lat="47.5309" lon="6.70456">
        <ele>390</ele>
        <time>2015-09-27T08:11:03.000Z</time>
      </trkpt>
      <trkpt lat="47.53094" lon="6.70454">
        <ele>390</ele>
        <time>2015-09-27T08:11:05.000Z</time>
      </trkpt>
      <trkpt lat="47.53096" lon="6.70454">
        <ele>390</ele>
        <time>2015-09-27T08:11:06.000Z</time>
      </trkpt>
      <trkpt lat="47.53101" lon="6.70452">
        <ele>390</ele>
        <time>2015-09-27T08:11:08.000Z</time>
      </trkpt>
      <trkpt lat="47.53102" lon="6.70451">
        <ele>390</ele>
        <time>2015-09-27T08:11:08.999Z</time>
      </trkpt>
      <trkpt lat="47.53105" lon="6.70449">
        <ele>390</ele>
        <time>2015-09-27T08:11:11.000Z</time>
      </trkpt>
      <trkpt lat="47.53107" lon="6.70448">
        <ele>390</ele>
        <time>2015-09-27T08:11:12.000Z</time>
      </trkpt>
      <trkpt lat="47.5311" lon="6.70444">
        <ele>390</ele>
        <time>2015-09-27T08:11:15.000Z</time>
      </trkpt>
      <trkpt lat="47.53111" lon="6.70443">
        <ele>390</ele>
        <time>2015-09-27T08:11:16.000Z</time>
      </trkpt>
      <trkpt lat="47.53113" lon="6.7044">
        <ele>390</ele>
        <time>2015-09-27T08:11:18.000Z</time>
      </trkpt>
      <trkpt lat="47.53114" lon="6.70438">
        <ele>390</ele>
        <time>2015-09-27T08:11:19.000Z</time>
      </trkpt>
      <trkpt lat="47.53117" lon="6.70435">
        <ele>390</ele>
        <time>2015-09-27T08:11:21.000Z</time>
      </trkpt>
      <trkpt lat="47.53118" lon="6.70433">
        <ele>391</ele>
        <time>2015-09-27T08:11:22.000Z</time>
      </trkpt>
      <trkpt lat="47.5312" lon="6.70431">
        <ele>391</ele>
        <time>2015-09-27T08:11:24.000Z</time>
      </trkpt>
      <trkpt lat="47.53122" lon="6.70429">
        <ele>391</ele>
        <time>2015-09-27T08:11:25.000Z</time>
      </trkpt>
      <trkpt lat="47.53125" lon="6.70426">
        <ele>391</ele>
        <time>2015-09-27T08:11:27.000Z</time>
      </trkpt>
      <trkpt lat="47.53127" lon="6.70425">
        <ele>391</ele>
        <time>2015-09-27T08:11:28.000Z</time>
      </trkpt>
      <trkpt lat="47.5313" lon="6.70421">
        <ele>392</ele>
        <time>2015-09-27T08:11:30.000Z</time>
      </trkpt>
      <trkpt lat="47.53132" lon="6.70419">
        <ele>392</ele>
        <time>2015-09-27T08:11:31.000Z</time>
      </trkpt>
      <trkpt lat="47.53136" lon="6.70415">
        <ele>387</ele>
        <time>2015-09-27T08:11:33.000Z</time>
      </trkpt>
      <trkpt lat="47.53138" lon="6.70413">
        <ele>388</ele>
        <time>2015-09-27T08:11:34.000Z</time>
      </trkpt>
      <trkpt lat="47.5314" lon="6.70412">
        <ele>388</ele>
        <time>2015-09-27T08:11:35.000Z</time>
      </trkpt>
      <trkpt lat="47.53143" lon="6.7041">
        <ele>388</ele>
        <time>2015-09-27T08:11:36.000Z</time>
      </trkpt>
      <trkpt lat="47.53145" lon="6.70407">
        <ele>389</ele>
        <time>2015-09-27T08:11:37.000Z</time>
      </trkpt>
      <trkpt lat="47.53147" lon="6.70406">
        <ele>389</ele>
        <time>2015-09-27T08:11:38.000Z</time>
      </trkpt>
      <trkpt lat="47.53149" lon="6.70404">
        <ele>389</ele>
        <time>2015-09-27T08:11:39.000Z</time>
      </trkpt>
      <trkpt lat="47.53151" lon="6.70402">
        <ele>389</ele>
        <time>2015-09-27T08:11:40.000Z</time>
      </trkpt>
      <trkpt lat="47.53153" lon="6.70401">
        <ele>389</ele>
        <time>2015-09-27T08:11:41.000Z</time>
      </trkpt>
      <trkpt lat="47.53155" lon="6.704">
        <ele>389</ele>
        <time>2015-09-27T08:11:42.000Z</time>
      </trkpt>
      <trkpt lat="47.53158" lon="6.70398">
        <ele>389</ele>
        <time>2015-09-27T08:11:43.000Z</time>
      </trkpt>
      <trkpt lat="47.53161" lon="6.70397">
        <ele>389</ele>
        <time>2015-09-27T08:11:44.000Z</time>
      </trkpt>
      <trkpt lat="47.53163" lon="6.70396">
        <ele>389</ele>
        <time>2015-09-27T08:11:45.000Z</time>
      </trkpt>
      <trkpt lat="47.53165" lon="6.70395">
        <ele>389</ele>
        <time>2015-09-27T08:11:46.000Z</time>
      </trkpt>
      <trkpt lat="47.53169" lon="6.70391">
        <ele>395</ele>
        <time>2015-09-27T08:11:48.000Z</time>
      </trkpt>
      <trkpt lat="47.5317" lon="6.70389">
        <ele>395</ele>
        <time>2015-09-27T08:11:49.000Z</time>
      </trkpt>
      <trkpt lat="47.53174" lon="6.70386">
        <ele>395</ele>
        <time>2015-09-27T08:11:51.000Z</time>
      </trkpt>
      <trkpt lat="47.53176" lon="6.70385">
        <ele>395</ele>
        <time>2015-09-27T08:11:52.000Z</time>
      </trkpt>
      <trkpt lat="47.53178" lon="6.70383">
        <ele>395</ele>
        <time>2015-09-27T08:11:53.000Z</time>
      </trkpt>
      <trkpt lat="47.5318" lon="6.70382">
        <ele>395</ele>
        <time>2015-09-27T08:11:54.000Z</time>
      </trkpt>
      <trkpt lat="47.53182" lon="6.70381">
        <ele>395</ele>
        <time>2015-09-27T08:11:55.000Z</time>
      </trkpt>
      <trkpt lat="47.53184" lon="6.7038">
        <ele>395</ele>
        <time>2015-09-27T08:11:56.000Z</time>
      </trkpt>
      <trkpt lat="47.53186" lon="6.70379">
        <ele>395</ele>
        <time>2015-09-27T08:11:57.000Z</time>
      </trkpt>
      <trkpt lat="47.53188" lon="6.70378">
        <ele>395</ele>
        <time>2015-09-27T08:11:58.000Z</time>
      </trkpt>
      <trkpt lat="47.53191" lon="6.70377">
        <ele>395</ele>
        <time>2015-09-27T08:11:59.000Z</time>
      </trkpt>
      <trkpt lat="47.53193" lon="6.70377">
        <ele>395</ele>
        <time>2015-09-27T08:12:00.000Z</time>
      </trkpt>
      <trkpt lat="47.53195" lon="6.70376">
        <ele>395</ele>
        <time>2015-09-27T08:12:01.000Z</time>
      </trkpt>
      <trkpt lat="47.53197" lon="6.70375">
        <ele>395</ele>
        <time>2015-09-27T08:12:02.000Z</time>
      </trkpt>
      <trkpt lat="47.53201" lon="6.70373">
        <ele>395</ele>
        <time>2015-09-27T08:12:04.000Z</time>
      </trkpt>
      <trkpt lat="47.53203" lon="6.70372">
        <ele>395</ele>
        <time>2015-09-27T08:12:05.000Z</time>
      </trkpt>
      <trkpt lat="47.53205" lon="6.70371">
        <ele>395</ele>
        <time>2015-09-27T08:12:06.000Z</time>
      </trkpt>
      <trkpt lat="47.53208" lon="6.70369">
        <ele>395</ele>
        <time>2015-09-27T08:12:07.000Z</time>
      </trkpt>
      <trkpt lat="47.5321" lon="6.70367">
        <ele>395</ele>
        <time>2015-09-27T08:12:08.000Z</time>
      </trkpt>
      <trkpt lat="47.53213" lon="6.70366">
        <ele>395</ele>
        <time>2015-09-27T08:12:09.000Z</time>
      </trkpt>
      <trkpt lat="47.53215" lon="6.70364">
        <ele>395</ele>
        <time>2015-09-27T08:12:10.000Z</time>
      </trkpt>
      <trkpt lat="47.53217" lon="6.70362">
        <ele>396</ele>
        <time>2015-09-27T08:12:11.000Z</time>
      </trkpt>
      <trkpt lat="47.5322" lon="6.7036">
        <ele>396</ele>
        <time>2015-09-27T08:12:12.000Z</time>
      </trkpt>
      <trkpt lat="47.53223" lon="6.70358">
        <ele>396</ele>
        <time>2015-09-27T08:12:13.000Z</time>
      </trkpt>
      <trkpt lat="47.53225" lon="6.70356">
        <ele>396</ele>
        <time>2015-09-27T08:12:14.000Z</time>
      </trkpt>
      <trkpt lat="47.53228" lon="6.70354">
        <ele>396</ele>
        <time>2015-09-27T08:12:15.000Z</time>
      </trkpt>
      <trkpt lat="47.53231" lon="6.70353">
        <ele>396</ele>
        <time>2015-09-27T08:12:16.000Z</time>
      </trkpt>
      <trkpt lat="47.53233" lon="6.70353">
        <ele>396</ele>
        <time>2015-09-27T08:12:17.000Z</time>
      </trkpt>
      <trkpt lat="47.53236" lon="6.70353">
        <ele>396</ele>
        <time>2015-09-27T08:12:19.000Z</time>
      </trkpt>
      <trkpt lat="47.53238" lon="6.70353">
        <ele>396</ele>
        <time>2015-09-27T08:12:20.000Z</time>
      </trkpt>
      <trkpt lat="47.53241" lon="6.70357">
        <ele>396</ele>
        <time>2015-09-27T08:12:24.000Z</time>
      </trkpt>
      <trkpt lat="47.53242" lon="6.70358">
        <ele>396</ele>
        <time>2015-09-27T08:12:25.000Z</time>
      </trkpt>
      <trkpt lat="47.53244" lon="6.7036">
        <ele>397</ele>
        <time>2015-09-27T08:13:54.000Z</time>
      </trkpt>
      <trkpt lat="47.53246" lon="6.70359">
        <ele>397</ele>
        <time>2015-09-27T08:13:55.000Z</time>
      </trkpt>
      <trkpt lat="47.5325" lon="6.70358">
        <ele>397</ele>
        <time>2015-09-27T08:13:56.000Z</time>
      </trkpt>
      <trkpt lat="47.53253" lon="6.70357">
        <ele>401</ele>
        <time>2015-09-27T08:13:57.000Z</time>
      </trkpt>
      <trkpt lat="47.53256" lon="6.70356">
        <ele>401</ele>
        <time>2015-09-27T08:13:58.000Z</time>
      </trkpt>
      <trkpt lat="47.53259" lon="6.70354">
        <ele>400</ele>
        <time>2015-09-27T08:13:59.000Z</time>
      </trkpt>
      <trkpt lat="47.53261" lon="6.70353">
        <ele>400</ele>
        <time>2015-09-27T08:14:00.000Z</time>
      </trkpt>
      <trkpt lat="47.53264" lon="6.7035">
        <ele>400</ele>
        <time>2015-09-27T08:14:01.000Z</time>
      </trkpt>
      <trkpt lat="47.53266" lon="6.70348">
        <ele>400</ele>
        <time>2015-09-27T08:14:02.000Z</time>
      </trkpt>
      <trkpt lat="47.53268" lon="6.70346">
        <ele>400</ele>
        <time>2015-09-27T08:14:03.000Z</time>
      </trkpt>
      <trkpt lat="47.53271" lon="6.70342">
        <ele>400</ele>
        <time>2015-09-27T08:14:05.000Z</time>
      </trkpt>
      <trkpt lat="47.53272" lon="6.70341">
        <ele>400</ele>
        <time>2015-09-27T08:14:05.999Z</time>
      </trkpt>
      <trkpt lat="47.53274" lon="6.70338">
        <ele>400</ele>
        <time>2015-09-27T08:14:07.000Z</time>
      </trkpt>
      <trkpt lat="47.53276" lon="6.70337">
        <ele>401</ele>
        <time>2015-09-27T08:14:08.000Z</time>
      </trkpt>
      <trkpt lat="47.53279" lon="6.70333">
        <ele>394</ele>
        <time>2015-09-27T08:14:10.000Z</time>
      </trkpt>
      <trkpt lat="47.5328" lon="6.70332">
        <ele>394</ele>
        <time>2015-09-27T08:14:11.000Z</time>
      </trkpt>
      <trkpt lat="47.5328" lon="6.70338">
        <ele>401</ele>
        <time>2015-09-27T08:14:19.000Z</time>
      </trkpt>
      <trkpt lat="47.5328" lon="6.70339">
        <ele>401</ele>
        <time>2015-09-27T08:14:20.000Z</time>
      </trkpt>
      <trkpt lat="47.5328" lon="6.70334">
        <ele>401</ele>
        <time>2015-09-27T08:14:48.000Z</time>
      </trkpt>
      <trkpt lat="47.5328" lon="6.7033">
        <ele>394</ele>
        <time>2015-09-27T08:14:49.000Z</time>
      </trkpt>
      <trkpt lat="47.5328" lon="6.70324">
        <ele>394</ele>
        <time>2015-09-27T08:14:50.000Z</time>
      </trkpt>
      <trkpt lat="47.5328" lon="6.70315">
        <ele>393</ele>
        <time>2015-09-27T08:14:51.000Z</time>
      </trkpt>
      <trkpt lat="47.53282" lon="6.70285">
        <ele>391</ele>
        <time>2015-09-27T08:14:52.000Z</time>
      </trkpt>
      <trkpt lat="47.53281" lon="6.70273">
        <ele>390</ele>
        <time>2015-09-27T08:14:53.000Z</time>
      </trkpt>
      <trkpt lat="47.53278" lon="6.70261">
        <ele>389</ele>
        <time>2015-09-27T08:14:54.000Z</time>
      </trkpt>
      <trkpt lat="47.53278" lon="6.70247">
        <ele>381</ele>
        <time>2015-09-27T08:14:55.000Z</time>
      </trkpt>
      <trkpt lat="47.53277" lon="6.70239">
        <ele>380</ele>
        <time>2015-09-27T08:14:56.000Z</time>
      </trkpt>
      <trkpt lat="47.5328" lon="6.70238">
        <ele>380</ele>
        <time>2015-09-27T08:14:57.000Z</time>
      </trkpt>
      <trkpt lat="47.53281" lon="6.70234">
        <ele>380</ele>
        <time>2015-09-27T08:14:58.000Z</time>
      </trkpt>
      <trkpt lat="47.53285" lon="6.70229">
        <ele>380</ele>
        <time>2015-09-27T08:14:59.000Z</time>
      </trkpt>
      <trkpt lat="47.53288" lon="6.70224">
        <ele>380</ele>
        <time>2015-09-27T08:15:00.000Z</time>
      </trkpt>
      <trkpt lat="47.53293" lon="6.70222">
        <ele>380</ele>
        <time>2015-09-27T08:15:01.000Z</time>
      </trkpt>
      <trkpt lat="47.53296" lon="6.70223">
        <ele>380</ele>
        <time>2015-09-27T08:15:02.000Z</time>
      </trkpt>
      <trkpt lat="47.53299" lon="6.70222">
        <ele>380</ele>
        <time>2015-09-27T08:15:03.000Z</time>
      </trkpt>
      <trkpt lat="47.53301" lon="6.70226">
        <ele>380</ele>
        <time>2015-09-27T08:15:07.000Z</time>
      </trkpt>
      <trkpt lat="47.53301" lon="6.70228">
        <ele>381</ele>
        <time>2015-09-27T08:15:08.000Z</time>
      </trkpt>
      <trkpt lat="47.53297" lon="6.70229">
        <ele>380</ele>
        <time>2015-09-27T08:15:19.000Z</time>
      </trkpt>
      <trkpt lat="47.53296" lon="6.70226">
        <ele>380</ele>
        <time>2015-09-27T08:15:20.000Z</time>
      </trkpt>
      <trkpt lat="47.53296" lon="6.70223">
        <ele>380</ele>
        <time>2015-09-27T08:15:21.000Z</time>
      </trkpt>
      <trkpt lat="47.53295" lon="6.70218">
        <ele>380</ele>
        <time>2015-09-27T08:15:22.000Z</time>
      </trkpt>
      <trkpt lat="47.53295" lon="6.70212">
        <ele>379</ele>
        <time>2015-09-27T08:15:23.000Z</time>
      </trkpt>
      <trkpt lat="47.53295" lon="6.70205">
        <ele>379</ele>
        <time>2015-09-27T08:15:24.000Z</time>
      </trkpt>
      <trkpt lat="47.53296" lon="6.70197">
        <ele>378</ele>
        <time>2015-09-27T08:15:25.000Z</time>
      </trkpt>
      <trkpt lat="47.53295" lon="6.70189">
        <ele>378</ele>
        <time>2015-09-27T08:15:26.000Z</time>
      </trkpt>
      <trkpt lat="47.53296" lon="6.70181">
        <ele>377</ele>
        <time>2015-09-27T08:15:27.000Z</time>
      </trkpt>
      <trkpt lat="47.53296" lon="6.70174">
        <ele>377</ele>
        <time>2015-09-27T08:15:28.000Z</time>
      </trkpt>
      <trkpt lat="47.53297" lon="6.70166">
        <ele>371</ele>
        <time>2015-09-27T08:15:29.000Z</time>
      </trkpt>
      <trkpt lat="47.53297" lon="6.70144">
        <ele>370</ele>
        <time>2015-09-27T08:15:30.000Z</time>
      </trkpt>
      <trkpt lat="47.53296" lon="6.70134">
        <ele>370</ele>
        <time>2015-09-27T08:15:31.000Z</time>
      </trkpt>
      <trkpt lat="47.53297" lon="6.70127">
        <ele>370</ele>
        <time>2015-09-27T08:15:32.000Z</time>
      </trkpt>
      <trkpt lat="47.53296" lon="6.70118">
        <ele>369</ele>
        <time>2015-09-27T08:15:33.000Z</time>
      </trkpt>
      <trkpt lat="47.53297" lon="6.70111">
        <ele>369</ele>
        <time>2015-09-27T08:15:34.000Z</time>
      </trkpt>
      <trkpt lat="47.53298" lon="6.70101">
        <ele>369</ele>
        <time>2015-09-27T08:15:35.000Z</time>
      </trkpt>
      <trkpt lat="47.53298" lon="6.70091">
        <ele>369</ele>
        <time>2015-09-27T08:15:36.000Z</time>
      </trkpt>
      <trkpt lat="47.53299" lon="6.70083">
        <ele>366</ele>
        <time>2015-09-27T08:15:37.000Z</time>
      </trkpt>
      <trkpt lat="47.533" lon="6.70074">
        <ele>366</ele>
        <time>2015-09-27T08:15:38.000Z</time>
      </trkpt>
      <trkpt lat="47.53299" lon="6.70069">
        <ele>366</ele>
        <time>2015-09-27T08:15:39.000Z</time>
      </trkpt>
      <trkpt lat="47.533" lon="6.70064">
        <ele>365</ele>
        <time>2015-09-27T08:15:40.000Z</time>
      </trkpt>
      <trkpt lat="47.533" lon="6.70061">
        <ele>365</ele>
        <time>2015-09-27T08:15:42.000Z</time>
      </trkpt>
      <trkpt lat="47.53304" lon="6.70062">
        <ele>365</ele>
        <time>2015-09-27T08:15:43.000Z</time>
      </trkpt>
      <trkpt lat="47.53308" lon="6.7006">
        <ele>365</ele>
        <time>2015-09-27T08:15:46.000Z</time>
      </trkpt>
      <trkpt lat="47.53308" lon="6.70058">
        <ele>365</ele>
        <time>2015-09-27T08:15:47.000Z</time>
      </trkpt>
      <trkpt lat="47.53308" lon="6.70054">
        <ele>365</ele>
        <time>2015-09-27T08:15:49.000Z</time>
      </trkpt>
      <trkpt lat="47.53307" lon="6.70051">
        <ele>365</ele>
        <time>2015-09-27T08:15:50.000Z</time>
      </trkpt>
      <trkpt lat="47.53307" lon="6.70045">
        <ele>365</ele>
        <time>2015-09-27T08:15:53.000Z</time>
      </trkpt>
      <trkpt lat="47.53309" lon="6.70044">
        <ele>365</ele>
        <time>2015-09-27T08:15:54.000Z</time>
      </trkpt>
      <trkpt lat="47.53307" lon="6.7004">
        <ele>365</ele>
        <time>2015-09-27T08:16:14.000Z</time>
      </trkpt>
      <trkpt lat="47.53305" lon="6.70038">
        <ele>365</ele>
        <time>2015-09-27T08:16:15.000Z</time>
      </trkpt>
      <trkpt lat="47.53303" lon="6.70035">
        <ele>365</ele>
        <time>2015-09-27T08:16:16.000Z</time>
      </trkpt>
      <trkpt lat="47.53301" lon="6.70031">
        <ele>365</ele>
        <time>2015-09-27T08:16:17.000Z</time>
      </trkpt>
      <trkpt lat="47.53298" lon="6.70027">
        <ele>365</ele>
        <time>2015-09-27T08:16:18.000Z</time>
      </trkpt>
      <trkpt lat="47.53295" lon="6.70021">
        <ele>365</ele>
        <time>2015-09-27T08:16:19.000Z</time>
      </trkpt>
      <trkpt lat="47.53292" lon="6.70014">
        <ele>365</ele>
        <time>2015-09-27T08:16:20.000Z</time>
      </trkpt>
      <trkpt lat="47.53289" lon="6.70007">
        <ele>364</ele>
        <time>2015-09-27T08:16:21.000Z</time>
      </trkpt>
      <trkpt lat="47.53287" lon="6.69999">
        <ele>361</ele>
        <time>2015-09-27T08:16:22.000Z</time>
      </trkpt>
      <trkpt lat="47.53286" lon="6.69992">
        <ele>361</ele>
        <time>2015-09-27T08:16:23.000Z</time>
      </trkpt>
      <trkpt lat="47.53286" lon="6.69985">
        <ele>361</ele>
        <time>2015-09-27T08:16:24.000Z</time>
      </trkpt>
      <trkpt lat="47.53287" lon="6.69978">
        <ele>361</ele>
        <time>2015-09-27T08:16:25.000Z</time>
      </trkpt>
      <trkpt lat="47.5329" lon="6.69971">
        <ele>360</ele>
        <time>2015-09-27T08:16:26.000Z</time>
      </trkpt>
      <trkpt lat="47.533" lon="6.69954">
        <ele>360</ele>
        <time>2015-09-27T08:16:27.000Z</time>
      </trkpt>
      <trkpt lat="47.53305" lon="6.69946">
        <ele>360</ele>
        <time>2015-09-27T08:16:28.000Z</time>
      </trkpt>
      <trkpt lat="47.53308" lon="6.69939">
        <ele>360</ele>
        <time>2015-09-27T08:16:29.000Z</time>
      </trkpt>
      <trkpt lat="47.53309" lon="6.6993">
        <ele>359</ele>
        <time>2015-09-27T08:16:30.000Z</time>
      </trkpt>
      <trkpt lat="47.53312" lon="6.69922">
        <ele>359</ele>
        <time>2015-09-27T08:16:31.000Z</time>
      </trkpt>
      <trkpt lat="47.53315" lon="6.69915">
        <ele>355</ele>
        <time>2015-09-27T08:16:32.000Z</time>
      </trkpt>
      <trkpt lat="47.53318" lon="6.69909">
        <ele>356</ele>
        <time>2015-09-27T08:16:33.000Z</time>
      </trkpt>
      <trkpt lat="47.53321" lon="6.69903">
        <ele>355</ele>
        <time>2015-09-27T08:16:34.000Z</time>
      </trkpt>
      <trkpt lat="47.53323" lon="6.69897">
        <ele>355</ele>
        <time>2015-09-27T08:16:35.000Z</time>
      </trkpt>
      <trkpt lat="47.53327" lon="6.6989">
        <ele>354</ele>
        <time>2015-09-27T08:16:36.000Z</time>
      </trkpt>
      <trkpt lat="47.53328" lon="6.69882">
        <ele>354</ele>
        <time>2015-09-27T08:16:37.000Z</time>
      </trkpt>
      <trkpt lat="47.5333" lon="6.69873">
        <ele>353</ele>
        <time>2015-09-27T08:16:38.000Z</time>
      </trkpt>
      <trkpt lat="47.53331" lon="6.69862">
        <ele>352</ele>
        <time>2015-09-27T08:16:39.000Z</time>
      </trkpt>
      <trkpt lat="47.53332" lon="6.69852">
        <ele>352</ele>
        <time>2015-09-27T08:16:40.000Z</time>
      </trkpt>
      <trkpt lat="47.53333" lon="6.69841">
        <ele>351</ele>
        <time>2015-09-27T08:16:41.000Z</time>
      </trkpt>
      <trkpt lat="47.53332" lon="6.69831">
        <ele>351</ele>
        <time>2015-09-27T08:16:42.000Z</time>
      </trkpt>
      <trkpt lat="47.5333" lon="6.69824">
        <ele>349</ele>
        <time>2015-09-27T08:16:43.000Z</time>
      </trkpt>
      <trkpt lat="47.53328" lon="6.69819">
        <ele>349</ele>
        <time>2015-09-27T08:16:44.000Z</time>
      </trkpt>
      <trkpt lat="47.53326" lon="6.69812">
        <ele>348</ele>
        <time>2015-09-27T08:16:45.000Z</time>
      </trkpt>
      <trkpt lat="47.53326" lon="6.69806">
        <ele>348</ele>
        <time>2015-09-27T08:16:46.000Z</time>
      </trkpt>
      <trkpt lat="47.53325" lon="6.698">
        <ele>347</ele>
        <time>2015-09-27T08:16:47.000Z</time>
      </trkpt>
      <trkpt lat="47.53324" lon="6.69794">
        <ele>347</ele>
        <time>2015-09-27T08:16:48.000Z</time>
      </trkpt>
      <trkpt lat="47.53323" lon="6.69787">
        <ele>347</ele>
        <time>2015-09-27T08:16:49.000Z</time>
      </trkpt>
      <trkpt lat="47.53322" lon="6.69779">
        <ele>346</ele>
        <time>2015-09-27T08:16:50.000Z</time>
      </trkpt>
      <trkpt lat="47.53321" lon="6.69771">
        <ele>346</ele>
        <time>2015-09-27T08:16:51.000Z</time>
      </trkpt>
      <trkpt lat="47.53319" lon="6.69763">
        <ele>346</ele>
        <time>2015-09-27T08:16:52.000Z</time>
      </trkpt>
      <trkpt lat="47.53318" lon="6.69756">
        <ele>346</ele>
        <time>2015-09-27T08:16:53.000Z</time>
      </trkpt>
      <trkpt lat="47.53316" lon="6.69749">
        <ele>346</ele>
        <time>2015-09-27T08:16:54.000Z</time>
      </trkpt>
      <trkpt lat="47.53316" lon="6.6974">
        <ele>346</ele>
        <time>2015-09-27T08:16:55.000Z</time>
      </trkpt>
      <trkpt lat="47.53316" lon="6.69733">
        <ele>346</ele>
        <time>2015-09-27T08:16:56.000Z</time>
      </trkpt>
      <trkpt lat="47.53315" lon="6.69727">
        <ele>346</ele>
        <time>2015-09-27T08:16:57.000Z</time>
      </trkpt>
      <trkpt lat="47.53314" lon="6.69719">
        <ele>346</ele>
        <time>2015-09-27T08:16:58.000Z</time>
      </trkpt>
      <trkpt lat="47.53312" lon="6.69713">
        <ele>346</ele>
        <time>2015-09-27T08:16:59.000Z</time>
      </trkpt>
      <trkpt lat="47.53311" lon="6.69705">
        <ele>346</ele>
        <time>2015-09-27T08:17:00.000Z</time>
      </trkpt>
      <trkpt lat="47.5331" lon="6.69697">
        <ele>346</ele>
        <time>2015-09-27T08:17:01.000Z</time>
      </trkpt>
      <trkpt lat="47.53309" lon="6.6969">
        <ele>346</ele>
        <time>2015-09-27T08:17:02.000Z</time>
      </trkpt>
      <trkpt lat="47.53308" lon="6.69681">
        <ele>346</ele>
        <time>2015-09-27T08:17:03.000Z</time>
      </trkpt>
      <trkpt lat="47.53308" lon="6.69674">
        <ele>346</ele>
        <time>2015-09-27T08:17:04.000Z</time>
      </trkpt>
      <trkpt lat="47.53307" lon="6.69665">
        <ele>346</ele>
        <time>2015-09-27T08:17:05.000Z</time>
      </trkpt>
      <trkpt lat="47.53305" lon="6.69658">
        <ele>346</ele>
        <time>2015-09-27T08:17:06.000Z</time>
      </trkpt>
      <trkpt lat="47.53304" lon="6.69652">
        <ele>346</ele>
        <time>2015-09-27T08:17:07.000Z</time>
      </trkpt>
      <trkpt lat="47.53303" lon="6.69644">
        <ele>347</ele>
        <time>2015-09-27T08:17:08.000Z</time>
      </trkpt>
      <trkpt lat="47.53303" lon="6.69637">
        <ele>347</ele>
        <time>2015-09-27T08:17:09.000Z</time>
      </trkpt>
      <trkpt lat="47.53302" lon="6.69629">
        <ele>347</ele>
        <time>2015-09-27T08:17:10.000Z</time>
      </trkpt>
      <trkpt lat="47.53301" lon="6.69621">
        <ele>347</ele>
        <time>2015-09-27T08:17:11.000Z</time>
      </trkpt>
      <trkpt lat="47.533" lon="6.69613">
        <ele>347</ele>
        <time>2015-09-27T08:17:12.000Z</time>
      </trkpt>
      <trkpt lat="47.53299" lon="6.69606">
        <ele>347</ele>
        <time>2015-09-27T08:17:13.000Z</time>
      </trkpt>
      <trkpt lat="47.53298" lon="6.69597">
        <ele>347</ele>
        <time>2015-09-27T08:17:14.000Z</time>
      </trkpt>
      <trkpt lat="47.53297" lon="6.69589">
        <ele>347</ele>
        <time>2015-09-27T08:17:15.000Z</time>
      </trkpt>
      <trkpt lat="47.53296" lon="6.69582">
        <ele>346</ele>
        <time>2015-09-27T08:17:16.000Z</time>
      </trkpt>
      <trkpt lat="47.53295" lon="6.69574">
        <ele>346</ele>
        <time>2015-09-27T08:17:17.000Z</time>
      </trkpt>
      <trkpt lat="47.53294" lon="6.69566">
        <ele>346</ele>
        <time>2015-09-27T08:17:18.000Z</time>
      </trkpt>
      <trkpt lat="47.53294" lon="6.6956">
        <ele>346</ele>
        <time>2015-09-27T08:17:19.000Z</time>
      </trkpt>
      <trkpt lat="47.53294" lon="6.69553">
        <ele>346</ele>
        <time>2015-09-27T08:17:20.000Z</time>
      </trkpt>
      <trkpt lat="47.53295" lon="6.69548">
        <ele>346</ele>
        <time>2015-09-27T08:17:21.000Z</time>
      </trkpt>
      <trkpt lat="47.53293" lon="6.69541">
        <ele>346</ele>
        <time>2015-09-27T08:17:22.000Z</time>
      </trkpt>
      <trkpt lat="47.53291" lon="6.69536">
        <ele>346</ele>
        <time>2015-09-27T08:17:23.000Z</time>
      </trkpt>
      <trkpt lat="47.53288" lon="6.69532">
        <ele>346</ele>
        <time>2015-09-27T08:17:24.000Z</time>
      </trkpt>
      <trkpt lat="47.53284" lon="6.69527">
        <ele>346</ele>
        <time>2015-09-27T08:17:25.000Z</time>
      </trkpt>
      <trkpt lat="47.53279" lon="6.69526">
        <ele>346</ele>
        <time>2015-09-27T08:17:26.000Z</time>
      </trkpt>
      <trkpt lat="47.53274" lon="6.69526">
        <ele>346</ele>
        <time>2015-09-27T08:17:27.000Z</time>
      </trkpt>
      <trkpt lat="47.53268" lon="6.69526">
        <ele>346</ele>
        <time>2015-09-27T08:17:28.000Z</time>
      </trkpt>
      <trkpt lat="47.53262" lon="6.69525">
        <ele>346</ele>
        <time>2015-09-27T08:17:29.000Z</time>
      </trkpt>
      <trkpt lat="47.53257" lon="6.69527">
        <ele>346</ele>
        <time>2015-09-27T08:17:30.000Z</time>
      </trkpt>
      <trkpt lat="47.53252" lon="6.69527">
        <ele>346</ele>
        <time>2015-09-27T08:17:31.000Z</time>
      </trkpt>
      <trkpt lat="47.53246" lon="6.69528">
        <ele>348</ele>
        <time>2015-09-27T08:17:32.000Z</time>
      </trkpt>
      <trkpt lat="47.53239" lon="6.69529">
        <ele>349</ele>
        <time>2015-09-27T08:17:33.000Z</time>
      </trkpt>
      <trkpt lat="47.53233" lon="6.6953">
        <ele>349</ele>
        <time>2015-09-27T08:17:34.000Z</time>
      </trkpt>
      <trkpt lat="47.53228" lon="6.69531">
        <ele>349</ele>
        <time>2015-09-27T08:17:35.000Z</time>
      </trkpt>
      <trkpt lat="47.53222" lon="6.69533">
        <ele>349</ele>
        <time>2015-09-27T08:17:36.000Z</time>
      </trkpt>
      <trkpt lat="47.53217" lon="6.69533">
        <ele>349</ele>
        <time>2015-09-27T08:17:37.000Z</time>
      </trkpt>
      <trkpt lat="47.53213" lon="6.69536">
        <ele>350</ele>
        <time>2015-09-27T08:17:38.000Z</time>
      </trkpt>
      <trkpt lat="47.53208" lon="6.69537">
        <ele>350</ele>
        <time>2015-09-27T08:17:39.000Z</time>
      </trkpt>
      <trkpt lat="47.53203" lon="6.6954">
        <ele>350</ele>
        <time>2015-09-27T08:17:40.000Z</time>
      </trkpt>
      <trkpt lat="47.53198" lon="6.69542">
        <ele>350</ele>
        <time>2015-09-27T08:17:41.000Z</time>
      </trkpt>
      <trkpt lat="47.53193" lon="6.69543">
        <ele>351</ele>
        <time>2015-09-27T08:17:42.000Z</time>
      </trkpt>
      <trkpt lat="47.53189" lon="6.69545">
        <ele>351</ele>
        <time>2015-09-27T08:17:43.000Z</time>
      </trkpt>
      <trkpt lat="47.53183" lon="6.69546">
        <ele>351</ele>
        <time>2015-09-27T08:17:44.000Z</time>
      </trkpt>
      <trkpt lat="47.53178" lon="6.69547">
        <ele>351</ele>
        <time>2015-09-27T08:17:45.000Z</time>
      </trkpt>
      <trkpt lat="47.53172" lon="6.69548">
        <ele>351</ele>
        <time>2015-09-27T08:17:46.000Z</time>
      </trkpt>
      <trkpt lat="47.53167" lon="6.69547">
        <ele>354</ele>
        <time>2015-09-27T08:17:47.000Z</time>
      </trkpt>
      <trkpt lat="47.53161" lon="6.69548">
        <ele>354</ele>
        <time>2015-09-27T08:17:48.000Z</time>
      </trkpt>
      <trkpt lat="47.53156" lon="6.69547">
        <ele>354</ele>
        <time>2015-09-27T08:17:49.000Z</time>
      </trkpt>
      <trkpt lat="47.5315" lon="6.69546">
        <ele>354</ele>
        <time>2015-09-27T08:17:50.000Z</time>
      </trkpt>
      <trkpt lat="47.53144" lon="6.69545">
        <ele>353</ele>
        <time>2015-09-27T08:17:51.000Z</time>
      </trkpt>
      <trkpt lat="47.53138" lon="6.69541">
        <ele>353</ele>
        <time>2015-09-27T08:17:52.000Z</time>
      </trkpt>
      <trkpt lat="47.53134" lon="6.69534">
        <ele>353</ele>
        <time>2015-09-27T08:17:53.000Z</time>
      </trkpt>
      <trkpt lat="47.53133" lon="6.69523">
        <ele>352</ele>
        <time>2015-09-27T08:17:54.000Z</time>
      </trkpt>
      <trkpt lat="47.53131" lon="6.69513">
        <ele>352</ele>
        <time>2015-09-27T08:17:55.000Z</time>
      </trkpt>
      <trkpt lat="47.53131" lon="6.69505">
        <ele>352</ele>
        <time>2015-09-27T08:17:56.000Z</time>
      </trkpt>
      <trkpt lat="47.53128" lon="6.69498">
        <ele>348</ele>
        <time>2015-09-27T08:17:57.000Z</time>
      </trkpt>
      <trkpt lat="47.53127" lon="6.69491">
        <ele>348</ele>
        <time>2015-09-27T08:17:58.000Z</time>
      </trkpt>
      <trkpt lat="47.53126" lon="6.69483">
        <ele>348</ele>
        <time>2015-09-27T08:17:59.000Z</time>
      </trkpt>
      <trkpt lat="47.53125" lon="6.69477">
        <ele>348</ele>
        <time>2015-09-27T08:18:00.000Z</time>
      </trkpt>
      <trkpt lat="47.53124" lon="6.69471">
        <ele>348</ele>
        <time>2015-09-27T08:18:01.000Z</time>
      </trkpt>
      <trkpt lat="47.53124" lon="6.69464">
        <ele>348</ele>
        <time>2015-09-27T08:18:02.000Z</time>
      </trkpt>
      <trkpt lat="47.53125" lon="6.69458">
        <ele>348</ele>
        <time>2015-09-27T08:18:03.000Z</time>
      </trkpt>
      <trkpt lat="47.53124" lon="6.69452">
        <ele>348</ele>
        <time>2015-09-27T08:18:04.000Z</time>
      </trkpt>
      <trkpt lat="47.53124" lon="6.69446">
        <ele>348</ele>
        <time>2015-09-27T08:18:05.000Z</time>
      </trkpt>
      <trkpt lat="47.53122" lon="6.69441">
        <ele>348</ele>
        <time>2015-09-27T08:18:06.000Z</time>
      </trkpt>
      <trkpt lat="47.53122" lon="6.69436">
        <ele>348</ele>
        <time>2015-09-27T08:18:07.000Z</time>
      </trkpt>
      <trkpt lat="47.53121" lon="6.6943">
        <ele>348</ele>
        <time>2015-09-27T08:18:08.000Z</time>
      </trkpt>
      <trkpt lat="47.5312" lon="6.69426">
        <ele>348</ele>
        <time>2015-09-27T08:18:09.000Z</time>
      </trkpt>
      <trkpt lat="47.5312" lon="6.6942">
        <ele>348</ele>
        <time>2015-09-27T08:18:10.000Z</time>
      </trkpt>
      <trkpt lat="47.5312" lon="6.69415">
        <ele>348</ele>
        <time>2015-09-27T08:18:11.000Z</time>
      </trkpt>
      <trkpt lat="47.5312" lon="6.6941">
        <ele>348</ele>
        <time>2015-09-27T08:18:12.000Z</time>
      </trkpt>
      <trkpt lat="47.53119" lon="6.69405">
        <ele>348</ele>
        <time>2015-09-27T08:18:13.000Z</time>
      </trkpt>
      <trkpt lat="47.53119" lon="6.694">
        <ele>348</ele>
        <time>2015-09-27T08:18:14.000Z</time>
      </trkpt>
      <trkpt lat="47.53118" lon="6.69395">
        <ele>348</ele>
        <time>2015-09-27T08:18:15.000Z</time>
      </trkpt>
      <trkpt lat="47.53118" lon="6.6939">
        <ele>348</ele>
        <time>2015-09-27T08:18:16.000Z</time>
      </trkpt>
      <trkpt lat="47.53117" lon="6.69385">
        <ele>348</ele>
        <time>2015-09-27T08:18:17.000Z</time>
      </trkpt>
      <trkpt lat="47.53117" lon="6.6938">
        <ele>348</ele>
        <time>2015-09-27T08:18:18.000Z</time>
      </trkpt>
      <trkpt lat="47.53117" lon="6.69375">
        <ele>348</ele>
        <time>2015-09-27T08:18:19.000Z</time>
      </trkpt>
      <trkpt lat="47.53117" lon="6.6937">
        <ele>349</ele>
        <time>2015-09-27T08:18:20.000Z</time>
      </trkpt>
      <trkpt lat="47.53117" lon="6.69365">
        <ele>349</ele>
        <time>2015-09-27T08:18:21.000Z</time>
      </trkpt>
      <trkpt lat="47.53117" lon="6.6936">
        <ele>349</ele>
        <time>2015-09-27T08:18:22.000Z</time>
      </trkpt>
      <trkpt lat="47.53117" lon="6.69356">
        <ele>349</ele>
        <time>2015-09-27T08:18:23.000Z</time>
      </trkpt>
      <trkpt lat="47.53117" lon="6.69351">
        <ele>349</ele>
        <time>2015-09-27T08:18:24.000Z</time>
      </trkpt>
      <trkpt lat="47.53116" lon="6.69346">
        <ele>349</ele>
        <time>2015-09-27T08:18:25.000Z</time>
      </trkpt>
      <trkpt lat="47.53116" lon="6.69342">
        <ele>349</ele>
        <time>2015-09-27T08:18:26.000Z</time>
      </trkpt>
      <trkpt lat="47.53116" lon="6.69337">
        <ele>349</ele>
        <time>2015-09-27T08:18:27.000Z</time>
      </trkpt>
      <trkpt lat="47.53116" lon="6.69333">
        <ele>350</ele>
        <time>2015-09-27T08:18:28.000Z</time>
      </trkpt>
      <trkpt lat="47.53116" lon="6.69327">
        <ele>350</ele>
        <time>2015-09-27T08:18:29.000Z</time>
      </trkpt>
      <trkpt lat="47.53117" lon="6.69322">
        <ele>350</ele>
        <time>2015-09-27T08:18:30.000Z</time>
      </trkpt>
      <trkpt lat="47.53116" lon="6.69317">
        <ele>350</ele>
        <time>2015-09-27T08:18:31.000Z</time>
      </trkpt>
      <trkpt lat="47.53116" lon="6.69312">
        <ele>350</ele>
        <time>2015-09-27T08:18:32.000Z</time>
      </trkpt>
      <trkpt lat="47.53115" lon="6.69306">
        <ele>350</ele>
        <time>2015-09-27T08:18:33.000Z</time>
      </trkpt>
      <trkpt lat="47.53115" lon="6.69301">
        <ele>350</ele>
        <time>2015-09-27T08:18:34.000Z</time>
      </trkpt>
      <trkpt lat="47.53114" lon="6.69296">
        <ele>350</ele>
        <time>2015-09-27T08:18:35.000Z</time>
      </trkpt>
      <trkpt lat="47.53113" lon="6.69291">
        <ele>350</ele>
        <time>2015-09-27T08:18:36.000Z</time>
      </trkpt>
      <trkpt lat="47.53113" lon="6.69286">
        <ele>351</ele>
        <time>2015-09-27T08:18:37.000Z</time>
      </trkpt>
      <trkpt lat="47.53112" lon="6.69281">
        <ele>351</ele>
        <time>2015-09-27T08:18:38.000Z</time>
      </trkpt>
      <trkpt lat="47.53112" lon="6.69276">
        <ele>351</ele>
        <time>2015-09-27T08:18:39.000Z</time>
      </trkpt>
      <trkpt lat="47.53111" lon="6.6927">
        <ele>351</ele>
        <time>2015-09-27T08:18:40.000Z</time>
      </trkpt>
      <trkpt lat="47.53111" lon="6.69265">
        <ele>351</ele>
        <time>2015-09-27T08:18:41.000Z</time>
      </trkpt>
      <trkpt lat="47.5311" lon="6.6926">
        <ele>351</ele>
        <time>2015-09-27T08:18:42.000Z</time>
      </trkpt>
      <trkpt lat="47.5311" lon="6.69255">
        <ele>351</ele>
        <time>2015-09-27T08:18:43.000Z</time>
      </trkpt>
      <trkpt lat="47.53109" lon="6.6925">
        <ele>352</ele>
        <time>2015-09-27T08:18:44.000Z</time>
      </trkpt>
      <trkpt lat="47.53108" lon="6.69244">
        <ele>352</ele>
        <time>2015-09-27T08:18:45.000Z</time>
      </trkpt>
      <trkpt lat="47.53108" lon="6.69239">
        <ele>352</ele>
        <time>2015-09-27T08:18:46.000Z</time>
      </trkpt>
      <trkpt lat="47.53107" lon="6.69234">
        <ele>352</ele>
        <time>2015-09-27T08:18:47.000Z</time>
      </trkpt>
      <trkpt lat="47.53107" lon="6.69229">
        <ele>352</ele>
        <time>2015-09-27T08:18:48.000Z</time>
      </trkpt>
      <trkpt lat="47.53107" lon="6.69224">
        <ele>353</ele>
        <time>2015-09-27T08:18:49.000Z</time>
      </trkpt>
      <trkpt lat="47.53107" lon="6.6922">
        <ele>353</ele>
        <time>2015-09-27T08:18:50.000Z</time>
      </trkpt>
      <trkpt lat="47.53107" lon="6.69215">
        <ele>353</ele>
        <time>2015-09-27T08:18:50.999Z</time>
      </trkpt>
      <trkpt lat="47.53107" lon="6.69212">
        <ele>353</ele>
        <time>2015-09-27T08:18:52.000Z</time>
      </trkpt>
      <trkpt lat="47.53107" lon="6.69208">
        <ele>353</ele>
        <time>2015-09-27T08:18:53.000Z</time>
      </trkpt>
      <trkpt lat="47.53107" lon="6.69204">
        <ele>353</ele>
        <time>2015-09-27T08:18:54.000Z</time>
      </trkpt>
      <trkpt lat="47.53107" lon="6.69201">
        <ele>353</ele>
        <time>2015-09-27T08:18:55.000Z</time>
      </trkpt>
      <trkpt lat="47.53107" lon="6.69197">
        <ele>353</ele>
        <time>2015-09-27T08:18:56.000Z</time>
      </trkpt>
      <trkpt lat="47.53106" lon="6.69193">
        <ele>353</ele>
        <time>2015-09-27T08:18:57.000Z</time>
      </trkpt>
      <trkpt lat="47.53106" lon="6.69189">
        <ele>353</ele>
        <time>2015-09-27T08:18:58.000Z</time>
      </trkpt>
      <trkpt lat="47.53106" lon="6.69186">
        <ele>353</ele>
        <time>2015-09-27T08:18:59.000Z</time>
      </trkpt>
      <trkpt lat="47.53105" lon="6.69182">
        <ele>353</ele>
        <time>2015-09-27T08:19:00.000Z</time>
      </trkpt>
      <trkpt lat="47.53105" lon="6.69179">
        <ele>353</ele>
        <time>2015-09-27T08:19:01.000Z</time>
      </trkpt>
      <trkpt lat="47.53105" lon="6.69175">
        <ele>353</ele>
        <time>2015-09-27T08:19:02.000Z</time>
      </trkpt>
      <trkpt lat="47.53105" lon="6.69169">
        <ele>354</ele>
        <time>2015-09-27T08:19:04.000Z</time>
      </trkpt>
      <trkpt lat="47.53105" lon="6.69165">
        <ele>355</ele>
        <time>2015-09-27T08:19:05.000Z</time>
      </trkpt>
      <trkpt lat="47.53105" lon="6.69162">
        <ele>355</ele>
        <time>2015-09-27T08:19:06.000Z</time>
      </trkpt>
      <trkpt lat="47.53105" lon="6.69158">
        <ele>355</ele>
        <time>2015-09-27T08:19:07.000Z</time>
      </trkpt>
      <trkpt lat="47.53105" lon="6.69154">
        <ele>355</ele>
        <time>2015-09-27T08:19:08.000Z</time>
      </trkpt>
      <trkpt lat="47.53105" lon="6.69151">
        <ele>355</ele>
        <time>2015-09-27T08:19:09.000Z</time>
      </trkpt>
      <trkpt lat="47.53105" lon="6.69147">
        <ele>356</ele>
        <time>2015-09-27T08:19:10.000Z</time>
      </trkpt>
      <trkpt lat="47.53105" lon="6.69143">
        <ele>356</ele>
        <time>2015-09-27T08:19:11.000Z</time>
      </trkpt>
      <trkpt lat="47.53105" lon="6.69139">
        <ele>356</ele>
        <time>2015-09-27T08:19:12.000Z</time>
      </trkpt>
      <trkpt lat="47.53105" lon="6.69136">
        <ele>356</ele>
        <time>2015-09-27T08:19:13.000Z</time>
      </trkpt>
      <trkpt lat="47.53105" lon="6.69132">
        <ele>356</ele>
        <time>2015-09-27T08:19:14.000Z</time>
      </trkpt>
      <trkpt lat="47.53105" lon="6.69128">
        <ele>356</ele>
        <time>2015-09-27T08:19:15.000Z</time>
      </trkpt>
      <trkpt lat="47.53104" lon="6.69125">
        <ele>356</ele>
        <time>2015-09-27T08:19:16.000Z</time>
      </trkpt>
      <trkpt lat="47.53104" lon="6.69121">
        <ele>356</ele>
        <time>2015-09-27T08:19:17.000Z</time>
      </trkpt>
      <trkpt lat="47.53103" lon="6.69115">
        <ele>356</ele>
        <time>2015-09-27T08:19:19.000Z</time>
      </trkpt>
      <trkpt lat="47.53103" lon="6.69112">
        <ele>357</ele>
        <time>2015-09-27T08:19:20.000Z</time>
      </trkpt>
      <trkpt lat="47.53103" lon="6.69106">
        <ele>357</ele>
        <time>2015-09-27T08:19:22.000Z</time>
      </trkpt>
      <trkpt lat="47.53102" lon="6.69103">
        <ele>357</ele>
        <time>2015-09-27T08:19:23.000Z</time>
      </trkpt>
      <trkpt lat="47.53102" lon="6.69096">
        <ele>357</ele>
        <time>2015-09-27T08:19:25.000Z</time>
      </trkpt>
      <trkpt lat="47.53101" lon="6.69093">
        <ele>357</ele>
        <time>2015-09-27T08:19:26.000Z</time>
      </trkpt>
      <trkpt lat="47.53101" lon="6.69087">
        <ele>357</ele>
        <time>2015-09-27T08:19:28.000Z</time>
      </trkpt>
      <trkpt lat="47.53101" lon="6.69084">
        <ele>357</ele>
        <time>2015-09-27T08:19:29.000Z</time>
      </trkpt>
      <trkpt lat="47.531" lon="6.69078">
        <ele>359</ele>
        <time>2015-09-27T08:19:31.000Z</time>
      </trkpt>
      <trkpt lat="47.531" lon="6.69074">
        <ele>359</ele>
        <time>2015-09-27T08:19:32.000Z</time>
      </trkpt>
      <trkpt lat="47.531" lon="6.69071">
        <ele>359</ele>
        <time>2015-09-27T08:19:33.000Z</time>
      </trkpt>
      <trkpt lat="47.531" lon="6.69067">
        <ele>359</ele>
        <time>2015-09-27T08:19:34.000Z</time>
      </trkpt>
      <trkpt lat="47.53099" lon="6.69063">
        <ele>359</ele>
        <time>2015-09-27T08:19:35.000Z</time>
      </trkpt>
      <trkpt lat="47.53099" lon="6.6906">
        <ele>359</ele>
        <time>2015-09-27T08:19:36.000Z</time>
      </trkpt>
      <trkpt lat="47.53099" lon="6.69056">
        <ele>360</ele>
        <time>2015-09-27T08:19:37.000Z</time>
      </trkpt>
      <trkpt lat="47.53099" lon="6.69052">
        <ele>360</ele>
        <time>2015-09-27T08:19:38.000Z</time>
      </trkpt>
      <trkpt lat="47.53098" lon="6.69048">
        <ele>360</ele>
        <time>2015-09-27T08:19:39.000Z</time>
      </trkpt>
      <trkpt lat="47.53098" lon="6.69044">
        <ele>360</ele>
        <time>2015-09-27T08:19:40.000Z</time>
      </trkpt>
      <trkpt lat="47.53098" lon="6.6904">
        <ele>360</ele>
        <time>2015-09-27T08:19:41.000Z</time>
      </trkpt>
      <trkpt lat="47.53097" lon="6.69036">
        <ele>360</ele>
        <time>2015-09-27T08:19:42.000Z</time>
      </trkpt>
      <trkpt lat="47.53097" lon="6.69032">
        <ele>360</ele>
        <time>2015-09-27T08:19:43.000Z</time>
      </trkpt>
      <trkpt lat="47.53097" lon="6.69028">
        <ele>360</ele>
        <time>2015-09-27T08:19:44.000Z</time>
      </trkpt>
      <trkpt lat="47.53096" lon="6.69024">
        <ele>361</ele>
        <time>2015-09-27T08:19:45.000Z</time>
      </trkpt>
      <trkpt lat="47.53096" lon="6.6902">
        <ele>361</ele>
        <time>2015-09-27T08:19:46.000Z</time>
      </trkpt>
      <trkpt lat="47.53096" lon="6.69016">
        <ele>361</ele>
        <time>2015-09-27T08:19:47.000Z</time>
      </trkpt>
      <trkpt lat="47.53095" lon="6.69012">
        <ele>361</ele>
        <time>2015-09-27T08:19:48.000Z</time>
      </trkpt>
      <trkpt lat="47.53094" lon="6.69008">
        <ele>361</ele>
        <time>2015-09-27T08:19:49.000Z</time>
      </trkpt>
      <trkpt lat="47.53093" lon="6.69005">
        <ele>361</ele>
        <time>2015-09-27T08:19:50.000Z</time>
      </trkpt>
      <trkpt lat="47.53092" lon="6.69001">
        <ele>361</ele>
        <time>2015-09-27T08:19:51.000Z</time>
      </trkpt>
      <trkpt lat="47.53092" lon="6.68997">
        <ele>362</ele>
        <time>2015-09-27T08:19:52.000Z</time>
      </trkpt>
      <trkpt lat="47.53091" lon="6.68993">
        <ele>362</ele>
        <time>2015-09-27T08:19:53.000Z</time>
      </trkpt>
      <trkpt lat="47.53091" lon="6.6899">
        <ele>362</ele>
        <time>2015-09-27T08:19:54.000Z</time>
      </trkpt>
      <trkpt lat="47.53091" lon="6.68986">
        <ele>362</ele>
        <time>2015-09-27T08:19:55.000Z</time>
      </trkpt>
      <trkpt lat="47.5309" lon="6.68982">
        <ele>362</ele>
        <time>2015-09-27T08:19:56.000Z</time>
      </trkpt>
      <trkpt lat="47.5309" lon="6.68978">
        <ele>363</ele>
        <time>2015-09-27T08:19:57.000Z</time>
      </trkpt>
      <trkpt lat="47.5309" lon="6.68974">
        <ele>363</ele>
        <time>2015-09-27T08:19:58.000Z</time>
      </trkpt>
      <trkpt lat="47.5309" lon="6.6897">
        <ele>363</ele>
        <time>2015-09-27T08:19:59.000Z</time>
      </trkpt>
      <trkpt lat="47.5309" lon="6.68966">
        <ele>363</ele>
        <time>2015-09-27T08:20:00.000Z</time>
      </trkpt>
      <trkpt lat="47.5309" lon="6.68962">
        <ele>363</ele>
        <time>2015-09-27T08:20:01.000Z</time>
      </trkpt>
      <trkpt lat="47.5309" lon="6.68957">
        <ele>363</ele>
        <time>2015-09-27T08:20:02.000Z</time>
      </trkpt>
      <trkpt lat="47.5309" lon="6.68952">
        <ele>363</ele>
        <time>2015-09-27T08:20:03.000Z</time>
      </trkpt>
      <trkpt lat="47.53091" lon="6.68948">
        <ele>363</ele>
        <time>2015-09-27T08:20:04.000Z</time>
      </trkpt>
      <trkpt lat="47.53091" lon="6.68943">
        <ele>363</ele>
        <time>2015-09-27T08:20:05.000Z</time>
      </trkpt>
      <trkpt lat="47.53091" lon="6.68939">
        <ele>363</ele>
        <time>2015-09-27T08:20:06.000Z</time>
      </trkpt>
      <trkpt lat="47.53091" lon="6.68934">
        <ele>363</ele>
        <time>2015-09-27T08:20:07.000Z</time>
      </trkpt>
      <trkpt lat="47.53091" lon="6.6893">
        <ele>363</ele>
        <time>2015-09-27T08:20:08.000Z</time>
      </trkpt>
      <trkpt lat="47.5309" lon="6.68926">
        <ele>364</ele>
        <time>2015-09-27T08:20:09.000Z</time>
      </trkpt>
      <trkpt lat="47.5309" lon="6.68921">
        <ele>364</ele>
        <time>2015-09-27T08:20:10.000Z</time>
      </trkpt>
      <trkpt lat="47.5309" lon="6.68917">
        <ele>364</ele>
        <time>2015-09-27T08:20:11.000Z</time>
      </trkpt>
      <trkpt lat="47.53091" lon="6.68913">
        <ele>364</ele>
        <time>2015-09-27T08:20:12.000Z</time>
      </trkpt>
      <trkpt lat="47.53091" lon="6.68909">
        <ele>364</ele>
        <time>2015-09-27T08:20:13.000Z</time>
      </trkpt>
      <trkpt lat="47.53092" lon="6.68905">
        <ele>364</ele>
        <time>2015-09-27T08:20:14.000Z</time>
      </trkpt>
      <trkpt lat="47.53092" lon="6.68901">
        <ele>364</ele>
        <time>2015-09-27T08:20:15.000Z</time>
      </trkpt>
      <trkpt lat="47.53092" lon="6.68897">
        <ele>364</ele>
        <time>2015-09-27T08:20:16.000Z</time>
      </trkpt>
      <trkpt lat="47.53092" lon="6.68893">
        <ele>364</ele>
        <time>2015-09-27T08:20:17.000Z</time>
      </trkpt>
      <trkpt lat="47.53092" lon="6.68889">
        <ele>364</ele>
        <time>2015-09-27T08:20:18.000Z</time>
      </trkpt>
      <trkpt lat="47.53092" lon="6.68885">
        <ele>365</ele>
        <time>2015-09-27T08:20:19.000Z</time>
      </trkpt>
      <trkpt lat="47.53091" lon="6.68881">
        <ele>365</ele>
        <time>2015-09-27T08:20:20.000Z</time>
      </trkpt>
      <trkpt lat="47.53091" lon="6.68876">
        <ele>365</ele>
        <time>2015-09-27T08:20:21.000Z</time>
      </trkpt>
      <trkpt lat="47.5309" lon="6.68872">
        <ele>365</ele>
        <time>2015-09-27T08:20:22.000Z</time>
      </trkpt>
      <trkpt lat="47.53089" lon="6.68867">
        <ele>365</ele>
        <time>2015-09-27T08:20:23.000Z</time>
      </trkpt>
      <trkpt lat="47.53089" lon="6.68863">
        <ele>365</ele>
        <time>2015-09-27T08:20:24.000Z</time>
      </trkpt>
      <trkpt lat="47.53089" lon="6.68858">
        <ele>365</ele>
        <time>2015-09-27T08:20:25.000Z</time>
      </trkpt>
      <trkpt lat="47.53089" lon="6.68853">
        <ele>365</ele>
        <time>2015-09-27T08:20:26.000Z</time>
      </trkpt>
      <trkpt lat="47.53089" lon="6.68849">
        <ele>365</ele>
        <time>2015-09-27T08:20:27.000Z</time>
      </trkpt>
      <trkpt lat="47.53089" lon="6.68844">
        <ele>365</ele>
        <time>2015-09-27T08:20:28.000Z</time>
      </trkpt>
      <trkpt lat="47.53089" lon="6.68839">
        <ele>366</ele>
        <time>2015-09-27T08:20:29.000Z</time>
      </trkpt>
      <trkpt lat="47.53089" lon="6.68834">
        <ele>366</ele>
        <time>2015-09-27T08:20:30.000Z</time>
      </trkpt>
      <trkpt lat="47.53089" lon="6.6883">
        <ele>366</ele>
        <time>2015-09-27T08:20:31.000Z</time>
      </trkpt>
      <trkpt lat="47.53089" lon="6.68825">
        <ele>366</ele>
        <time>2015-09-27T08:20:32.000Z</time>
      </trkpt>
      <trkpt lat="47.53089" lon="6.68821">
        <ele>366</ele>
        <time>2015-09-27T08:20:33.000Z</time>
      </trkpt>
      <trkpt lat="47.53089" lon="6.68817">
        <ele>366</ele>
        <time>2015-09-27T08:20:34.000Z</time>
      </trkpt>
      <trkpt lat="47.53089" lon="6.68814">
        <ele>366</ele>
        <time>2015-09-27T08:20:35.000Z</time>
      </trkpt>
      <trkpt lat="47.53088" lon="6.6881">
        <ele>366</ele>
        <time>2015-09-27T08:20:36.000Z</time>
      </trkpt>
      <trkpt lat="47.53088" lon="6.68806">
        <ele>366</ele>
        <time>2015-09-27T08:20:37.000Z</time>
      </trkpt>
      <trkpt lat="47.53088" lon="6.68803">
        <ele>366</ele>
        <time>2015-09-27T08:20:38.000Z</time>
      </trkpt>
      <trkpt lat="47.53088" lon="6.68799">
        <ele>366</ele>
        <time>2015-09-27T08:20:39.000Z</time>
      </trkpt>
      <trkpt lat="47.53088" lon="6.68795">
        <ele>366</ele>
        <time>2015-09-27T08:20:40.000Z</time>
      </trkpt>
      <trkpt lat="47.53088" lon="6.68791">
        <ele>366</ele>
        <time>2015-09-27T08:20:41.000Z</time>
      </trkpt>
      <trkpt lat="47.53087" lon="6.68787">
        <ele>366</ele>
        <time>2015-09-27T08:20:42.000Z</time>
      </trkpt>
      <trkpt lat="47.53087" lon="6.68783">
        <ele>366</ele>
        <time>2015-09-27T08:20:43.000Z</time>
      </trkpt>
      <trkpt lat="47.53087" lon="6.68779">
        <ele>366</ele>
        <time>2015-09-27T08:20:44.000Z</time>
      </trkpt>
      <trkpt lat="47.53086" lon="6.68774">
        <ele>367</ele>
        <time>2015-09-27T08:20:45.000Z</time>
      </trkpt>
      <trkpt lat="47.53086" lon="6.6877">
        <ele>367</ele>
        <time>2015-09-27T08:20:46.000Z</time>
      </trkpt>
      <trkpt lat="47.53086" lon="6.68766">
        <ele>367</ele>
        <time>2015-09-27T08:20:47.000Z</time>
      </trkpt>
      <trkpt lat="47.53086" lon="6.68762">
        <ele>367</ele>
        <time>2015-09-27T08:20:48.000Z</time>
      </trkpt>
      <trkpt lat="47.53086" lon="6.68757">
        <ele>367</ele>
        <time>2015-09-27T08:20:49.000Z</time>
      </trkpt>
      <trkpt lat="47.53086" lon="6.68753">
        <ele>367</ele>
        <time>2015-09-27T08:20:50.000Z</time>
      </trkpt>
      <trkpt lat="47.53085" lon="6.68749">
        <ele>367</ele>
        <time>2015-09-27T08:20:51.000Z</time>
      </trkpt>
      <trkpt lat="47.53085" lon="6.68744">
        <ele>367</ele>
        <time>2015-09-27T08:20:52.000Z</time>
      </trkpt>
      <trkpt lat="47.53085" lon="6.6874">
        <ele>368</ele>
        <time>2015-09-27T08:20:53.000Z</time>
      </trkpt>
      <trkpt lat="47.53084" lon="6.68736">
        <ele>368</ele>
        <time>2015-09-27T08:20:54.000Z</time>
      </trkpt>
      <trkpt lat="47.53084" lon="6.68731">
        <ele>368</ele>
        <time>2015-09-27T08:20:55.000Z</time>
      </trkpt>
      <trkpt lat="47.53083" lon="6.68727">
        <ele>368</ele>
        <time>2015-09-27T08:20:56.000Z</time>
      </trkpt>
      <trkpt lat="47.53083" lon="6.68722">
        <ele>368</ele>
        <time>2015-09-27T08:20:57.000Z</time>
      </trkpt>
      <trkpt lat="47.53083" lon="6.68718">
        <ele>368</ele>
        <time>2015-09-27T08:20:58.000Z</time>
      </trkpt>
      <trkpt lat="47.53082" lon="6.68714">
        <ele>368</ele>
        <time>2015-09-27T08:20:59.000Z</time>
      </trkpt>
      <trkpt lat="47.53082" lon="6.68709">
        <ele>368</ele>
        <time>2015-09-27T08:21:00.000Z</time>
      </trkpt>
      <trkpt lat="47.53082" lon="6.68705">
        <ele>369</ele>
        <time>2015-09-27T08:21:01.000Z</time>
      </trkpt>
      <trkpt lat="47.53082" lon="6.68701">
        <ele>369</ele>
        <time>2015-09-27T08:21:02.000Z</time>
      </trkpt>
      <trkpt lat="47.53082" lon="6.68697">
        <ele>369</ele>
        <time>2015-09-27T08:21:03.000Z</time>
      </trkpt>
      <trkpt lat="47.53081" lon="6.68693">
        <ele>369</ele>
        <time>2015-09-27T08:21:04.000Z</time>
      </trkpt>
      <trkpt lat="47.53081" lon="6.6869">
        <ele>369</ele>
        <time>2015-09-27T08:21:05.000Z</time>
      </trkpt>
      <trkpt lat="47.53081" lon="6.68686">
        <ele>369</ele>
        <time>2015-09-27T08:21:06.000Z</time>
      </trkpt>
      <trkpt lat="47.53081" lon="6.68682">
        <ele>369</ele>
        <time>2015-09-27T08:21:07.000Z</time>
      </trkpt>
      <trkpt lat="47.53081" lon="6.68678">
        <ele>369</ele>
        <time>2015-09-27T08:21:08.000Z</time>
      </trkpt>
      <trkpt lat="47.53081" lon="6.68674">
        <ele>370</ele>
        <time>2015-09-27T08:21:09.000Z</time>
      </trkpt>
      <trkpt lat="47.53081" lon="6.6867">
        <ele>370</ele>
        <time>2015-09-27T08:21:10.000Z</time>
      </trkpt>
      <trkpt lat="47.53081" lon="6.68667">
        <ele>370</ele>
        <time>2015-09-27T08:21:11.000Z</time>
      </trkpt>
      <trkpt lat="47.5308" lon="6.68663">
        <ele>370</ele>
        <time>2015-09-27T08:21:12.000Z</time>
      </trkpt>
      <trkpt lat="47.5308" lon="6.68659">
        <ele>371</ele>
        <time>2015-09-27T08:21:13.000Z</time>
      </trkpt>
      <trkpt lat="47.5308" lon="6.68656">
        <ele>371</ele>
        <time>2015-09-27T08:21:14.000Z</time>
      </trkpt>
      <trkpt lat="47.5308" lon="6.68652">
        <ele>371</ele>
        <time>2015-09-27T08:21:15.000Z</time>
      </trkpt>
      <trkpt lat="47.53081" lon="6.68649">
        <ele>371</ele>
        <time>2015-09-27T08:21:16.000Z</time>
      </trkpt>
      <trkpt lat="47.5308" lon="6.68645">
        <ele>371</ele>
        <time>2015-09-27T08:21:17.000Z</time>
      </trkpt>
      <trkpt lat="47.5308" lon="6.68642">
        <ele>372</ele>
        <time>2015-09-27T08:21:18.000Z</time>
      </trkpt>
      <trkpt lat="47.5308" lon="6.68638">
        <ele>372</ele>
        <time>2015-09-27T08:21:19.000Z</time>
      </trkpt>
      <trkpt lat="47.5308" lon="6.68634">
        <ele>372</ele>
        <time>2015-09-27T08:21:20.000Z</time>
      </trkpt>
      <trkpt lat="47.5308" lon="6.68629">
        <ele>372</ele>
        <time>2015-09-27T08:21:21.000Z</time>
      </trkpt>
      <trkpt lat="47.5308" lon="6.68625">
        <ele>372</ele>
        <time>2015-09-27T08:21:22.000Z</time>
      </trkpt>
      <trkpt lat="47.5308" lon="6.68621">
        <ele>372</ele>
        <time>2015-09-27T08:21:23.000Z</time>
      </trkpt>
      <trkpt lat="47.53079" lon="6.68618">
        <ele>372</ele>
        <time>2015-09-27T08:21:24.000Z</time>
      </trkpt>
      <trkpt lat="47.53078" lon="6.68614">
        <ele>373</ele>
        <time>2015-09-27T08:21:25.000Z</time>
      </trkpt>
      <trkpt lat="47.53077" lon="6.68609">
        <ele>373</ele>
        <time>2015-09-27T08:21:26.000Z</time>
      </trkpt>
      <trkpt lat="47.53077" lon="6.68605">
        <ele>373</ele>
        <time>2015-09-27T08:21:27.000Z</time>
      </trkpt>
      <trkpt lat="47.53076" lon="6.686">
        <ele>373</ele>
        <time>2015-09-27T08:21:28.000Z</time>
      </trkpt>
      <trkpt lat="47.53075" lon="6.68596">
        <ele>373</ele>
        <time>2015-09-27T08:21:29.000Z</time>
      </trkpt>
      <trkpt lat="47.53074" lon="6.68592">
        <ele>373</ele>
        <time>2015-09-27T08:21:30.000Z</time>
      </trkpt>
      <trkpt lat="47.53073" lon="6.68587">
        <ele>373</ele>
        <time>2015-09-27T08:21:31.000Z</time>
      </trkpt>
      <trkpt lat="47.53072" lon="6.68583">
        <ele>375</ele>
        <time>2015-09-27T08:21:32.000Z</time>
      </trkpt>
      <trkpt lat="47.53072" lon="6.68579">
        <ele>375</ele>
        <time>2015-09-27T08:21:33.000Z</time>
      </trkpt>
      <trkpt lat="47.53072" lon="6.68574">
        <ele>375</ele>
        <time>2015-09-27T08:21:34.000Z</time>
      </trkpt>
      <trkpt lat="47.53071" lon="6.6857">
        <ele>375</ele>
        <time>2015-09-27T08:21:35.000Z</time>
      </trkpt>
      <trkpt lat="47.53071" lon="6.68566">
        <ele>375</ele>
        <time>2015-09-27T08:21:36.000Z</time>
      </trkpt>
      <trkpt lat="47.5307" lon="6.68561">
        <ele>375</ele>
        <time>2015-09-27T08:21:37.000Z</time>
      </trkpt>
      <trkpt lat="47.53069" lon="6.68557">
        <ele>375</ele>
        <time>2015-09-27T08:21:38.000Z</time>
      </trkpt>
      <trkpt lat="47.53068" lon="6.68553">
        <ele>375</ele>
        <time>2015-09-27T08:21:39.000Z</time>
      </trkpt>
      <trkpt lat="47.53067" lon="6.68549">
        <ele>375</ele>
        <time>2015-09-27T08:21:40.000Z</time>
      </trkpt>
      <trkpt lat="47.53066" lon="6.68545">
        <ele>375</ele>
        <time>2015-09-27T08:21:41.000Z</time>
      </trkpt>
      <trkpt lat="47.53066" lon="6.68541">
        <ele>375</ele>
        <time>2015-09-27T08:21:42.000Z</time>
      </trkpt>
      <trkpt lat="47.53065" lon="6.68537">
        <ele>375</ele>
        <time>2015-09-27T08:21:43.000Z</time>
      </trkpt>
      <trkpt lat="47.53064" lon="6.68534">
        <ele>375</ele>
        <time>2015-09-27T08:21:44.000Z</time>
      </trkpt>
      <trkpt lat="47.53063" lon="6.6853">
        <ele>376</ele>
        <time>2015-09-27T08:21:45.000Z</time>
      </trkpt>
      <trkpt lat="47.53062" lon="6.68526">
        <ele>376</ele>
        <time>2015-09-27T08:21:46.000Z</time>
      </trkpt>
      <trkpt lat="47.53061" lon="6.68522">
        <ele>376</ele>
        <time>2015-09-27T08:21:47.000Z</time>
      </trkpt>
      <trkpt lat="47.5306" lon="6.68518">
        <ele>376</ele>
        <time>2015-09-27T08:21:48.000Z</time>
      </trkpt>
      <trkpt lat="47.53059" lon="6.68515">
        <ele>376</ele>
        <time>2015-09-27T08:21:49.000Z</time>
      </trkpt>
      <trkpt lat="47.53059" lon="6.68511">
        <ele>376</ele>
        <time>2015-09-27T08:21:50.000Z</time>
      </trkpt>
      <trkpt lat="47.53058" lon="6.68507">
        <ele>376</ele>
        <time>2015-09-27T08:21:51.000Z</time>
      </trkpt>
      <trkpt lat="47.53057" lon="6.68504">
        <ele>376</ele>
        <time>2015-09-27T08:21:52.000Z</time>
      </trkpt>
      <trkpt lat="47.53056" lon="6.685">
        <ele>377</ele>
        <time>2015-09-27T08:21:53.000Z</time>
      </trkpt>
      <trkpt lat="47.53055" lon="6.68496">
        <ele>377</ele>
        <time>2015-09-27T08:21:54.000Z</time>
      </trkpt>
      <trkpt lat="47.53054" lon="6.68492">
        <ele>377</ele>
        <time>2015-09-27T08:21:55.000Z</time>
      </trkpt>
      <trkpt lat="47.53053" lon="6.68488">
        <ele>377</ele>
        <time>2015-09-27T08:21:56.000Z</time>
      </trkpt>
      <trkpt lat="47.53052" lon="6.68484">
        <ele>377</ele>
        <time>2015-09-27T08:21:57.000Z</time>
      </trkpt>
      <trkpt lat="47.53051" lon="6.68481">
        <ele>377</ele>
        <time>2015-09-27T08:21:58.000Z</time>
      </trkpt>
      <trkpt lat="47.5305" lon="6.68477">
        <ele>377</ele>
        <time>2015-09-27T08:21:59.000Z</time>
      </trkpt>
      <trkpt lat="47.5305" lon="6.68474">
        <ele>377</ele>
        <time>2015-09-27T08:22:00.000Z</time>
      </trkpt>
      <trkpt lat="47.53049" lon="6.6847">
        <ele>377</ele>
        <time>2015-09-27T08:22:01.000Z</time>
      </trkpt>
      <trkpt lat="47.53049" lon="6.68466">
        <ele>377</ele>
        <time>2015-09-27T08:22:02.000Z</time>
      </trkpt>
      <trkpt lat="47.53049" lon="6.68463">
        <ele>377</ele>
        <time>2015-09-27T08:22:03.000Z</time>
      </trkpt>
      <trkpt lat="47.53049" lon="6.68459">
        <ele>377</ele>
        <time>2015-09-27T08:22:04.000Z</time>
      </trkpt>
      <trkpt lat="47.53049" lon="6.68456">
        <ele>378</ele>
        <time>2015-09-27T08:22:05.000Z</time>
      </trkpt>
      <trkpt lat="47.53049" lon="6.68452">
        <ele>378</ele>
        <time>2015-09-27T08:22:06.000Z</time>
      </trkpt>
      <trkpt lat="47.53048" lon="6.68448">
        <ele>378</ele>
        <time>2015-09-27T08:22:07.000Z</time>
      </trkpt>
      <trkpt lat="47.53047" lon="6.68444">
        <ele>378</ele>
        <time>2015-09-27T08:22:08.000Z</time>
      </trkpt>
      <trkpt lat="47.53046" lon="6.6844">
        <ele>378</ele>
        <time>2015-09-27T08:22:09.000Z</time>
      </trkpt>
      <trkpt lat="47.53045" lon="6.68435">
        <ele>378</ele>
        <time>2015-09-27T08:22:10.000Z</time>
      </trkpt>
      <trkpt lat="47.53045" lon="6.68431">
        <ele>378</ele>
        <time>2015-09-27T08:22:11.000Z</time>
      </trkpt>
      <trkpt lat="47.53044" lon="6.68427">
        <ele>378</ele>
        <time>2015-09-27T08:22:12.000Z</time>
      </trkpt>
      <trkpt lat="47.53043" lon="6.68423">
        <ele>378</ele>
        <time>2015-09-27T08:22:13.000Z</time>
      </trkpt>
      <trkpt lat="47.53042" lon="6.6842">
        <ele>378</ele>
        <time>2015-09-27T08:22:14.000Z</time>
      </trkpt>
      <trkpt lat="47.53041" lon="6.68416">
        <ele>379</ele>
        <time>2015-09-27T08:22:15.000Z</time>
      </trkpt>
      <trkpt lat="47.53039" lon="6.68413">
        <ele>379</ele>
        <time>2015-09-27T08:22:16.000Z</time>
      </trkpt>
      <trkpt lat="47.53038" lon="6.6841">
        <ele>379</ele>
        <time>2015-09-27T08:22:17.000Z</time>
      </trkpt>
      <trkpt lat="47.53037" lon="6.68406">
        <ele>379</ele>
        <time>2015-09-27T08:22:18.000Z</time>
      </trkpt>
      <trkpt lat="47.53036" lon="6.68403">
        <ele>379</ele>
        <time>2015-09-27T08:22:19.000Z</time>
      </trkpt>
      <trkpt lat="47.53035" lon="6.684">
        <ele>379</ele>
        <time>2015-09-27T08:22:20.000Z</time>
      </trkpt>
      <trkpt lat="47.53034" lon="6.68397">
        <ele>379</ele>
        <time>2015-09-27T08:22:21.000Z</time>
      </trkpt>
      <trkpt lat="47.53033" lon="6.68394">
        <ele>379</ele>
        <time>2015-09-27T08:22:22.000Z</time>
      </trkpt>
      <trkpt lat="47.53032" lon="6.68389">
        <ele>379</ele>
        <time>2015-09-27T08:22:24.000Z</time>
      </trkpt>
      <trkpt lat="47.53032" lon="6.68387">
        <ele>379</ele>
        <time>2015-09-27T08:22:25.000Z</time>
      </trkpt>
      <trkpt lat="47.53036" lon="6.68384">
        <ele>380</ele>
        <time>2015-09-27T08:22:28.000Z</time>
      </trkpt>
      <trkpt lat="47.53037" lon="6.68384">
        <ele>380</ele>
        <time>2015-09-27T08:22:29.000Z</time>
      </trkpt>
      <trkpt lat="47.53041" lon="6.68384">
        <ele>380</ele>
        <time>2015-09-27T08:23:40.000Z</time>
      </trkpt>
      <trkpt lat="47.53042" lon="6.68383">
        <ele>380</ele>
        <time>2015-09-27T08:23:41.000Z</time>
      </trkpt>
      <trkpt lat="47.53045" lon="6.68379">
        <ele>380</ele>
        <time>2015-09-27T08:23:43.000Z</time>
      </trkpt>
      <trkpt lat="47.53048" lon="6.68378">
        <ele>380</ele>
        <time>2015-09-27T08:23:44.000Z</time>
      </trkpt>
      <trkpt lat="47.5305" lon="6.68377">
        <ele>380</ele>
        <time>2015-09-27T08:23:45.000Z</time>
      </trkpt>
      <trkpt lat="47.53053" lon="6.68377">
        <ele>380</ele>
        <time>2015-09-27T08:23:46.000Z</time>
      </trkpt>
      <trkpt lat="47.53056" lon="6.68377">
        <ele>380</ele>
        <time>2015-09-27T08:23:47.000Z</time>
      </trkpt>
      <trkpt lat="47.53058" lon="6.68377">
        <ele>380</ele>
        <time>2015-09-27T08:23:48.000Z</time>
      </trkpt>
      <trkpt lat="47.53061" lon="6.68377">
        <ele>380</ele>
        <time>2015-09-27T08:23:49.000Z</time>
      </trkpt>
      <trkpt lat="47.53064" lon="6.68376">
        <ele>380</ele>
        <time>2015-09-27T08:23:50.000Z</time>
      </trkpt>
      <trkpt lat="47.53067" lon="6.68375">
        <ele>380</ele>
        <time>2015-09-27T08:23:51.000Z</time>
      </trkpt>
      <trkpt lat="47.5307" lon="6.68375">
        <ele>380</ele>
        <time>2015-09-27T08:23:52.000Z</time>
      </trkpt>
      <trkpt lat="47.53073" lon="6.68375">
        <ele>380</ele>
        <time>2015-09-27T08:23:53.000Z</time>
      </trkpt>
      <trkpt lat="47.53076" lon="6.68375">
        <ele>380</ele>
        <time>2015-09-27T08:23:54.000Z</time>
      </trkpt>
      <trkpt lat="47.53079" lon="6.68374">
        <ele>380</ele>
        <time>2015-09-27T08:23:55.000Z</time>
      </trkpt>
      <trkpt lat="47.53082" lon="6.68374">
        <ele>380</ele>
        <time>2015-09-27T08:23:56.000Z</time>
      </trkpt>
      <trkpt lat="47.53085" lon="6.68373">
        <ele>381</ele>
        <time>2015-09-27T08:23:57.000Z</time>
      </trkpt>
      <trkpt lat="47.53088" lon="6.68372">
        <ele>381</ele>
        <time>2015-09-27T08:23:58.000Z</time>
      </trkpt>
      <trkpt lat="47.53091" lon="6.68371">
        <ele>381</ele>
        <time>2015-09-27T08:23:59.000Z</time>
      </trkpt>
      <trkpt lat="47.53094" lon="6.68371">
        <ele>381</ele>
        <time>2015-09-27T08:24:00.000Z</time>
      </trkpt>
      <trkpt lat="47.53097" lon="6.6837">
        <ele>381</ele>
        <time>2015-09-27T08:24:01.000Z</time>
      </trkpt>
      <trkpt lat="47.531" lon="6.6837">
        <ele>381</ele>
        <time>2015-09-27T08:24:02.000Z</time>
      </trkpt>
      <trkpt lat="47.53103" lon="6.6837">
        <ele>381</ele>
        <time>2015-09-27T08:24:03.000Z</time>
      </trkpt>
      <trkpt lat="47.53106" lon="6.68369">
        <ele>381</ele>
        <time>2015-09-27T08:24:04.000Z</time>
      </trkpt>
      <trkpt lat="47.53109" lon="6.68369">
        <ele>381</ele>
        <time>2015-09-27T08:24:05.000Z</time>
      </trkpt>
      <trkpt lat="47.53112" lon="6.68369">
        <ele>381</ele>
        <time>2015-09-27T08:24:06.000Z</time>
      </trkpt>
      <trkpt lat="47.53115" lon="6.68368">
        <ele>381</ele>
        <time>2015-09-27T08:24:07.000Z</time>
      </trkpt>
      <trkpt lat="47.53118" lon="6.68367">
        <ele>382</ele>
        <time>2015-09-27T08:24:08.000Z</time>
      </trkpt>
      <trkpt lat="47.53121" lon="6.68367">
        <ele>382</ele>
        <time>2015-09-27T08:24:09.000Z</time>
      </trkpt>
      <trkpt lat="47.53123" lon="6.68366">
        <ele>382</ele>
        <time>2015-09-27T08:24:10.000Z</time>
      </trkpt>
      <trkpt lat="47.53126" lon="6.68366">
        <ele>382</ele>
        <time>2015-09-27T08:24:11.000Z</time>
      </trkpt>
      <trkpt lat="47.53129" lon="6.68365">
        <ele>382</ele>
        <time>2015-09-27T08:24:12.000Z</time>
      </trkpt>
      <trkpt lat="47.53131" lon="6.68364">
        <ele>382</ele>
        <time>2015-09-27T08:24:13.000Z</time>
      </trkpt>
      <trkpt lat="47.53134" lon="6.68364">
        <ele>382</ele>
        <time>2015-09-27T08:24:14.000Z</time>
      </trkpt>
      <trkpt lat="47.53137" lon="6.68364">
        <ele>382</ele>
        <time>2015-09-27T08:24:15.000Z</time>
      </trkpt>
      <trkpt lat="47.5314" lon="6.68364">
        <ele>382</ele>
        <time>2015-09-27T08:24:16.000Z</time>
      </trkpt>
      <trkpt lat="47.53142" lon="6.68365">
        <ele>382</ele>
        <time>2015-09-27T08:24:17.000Z</time>
      </trkpt>
      <trkpt lat="47.53145" lon="6.68364">
        <ele>382</ele>
        <time>2015-09-27T08:24:18.000Z</time>
      </trkpt>
      <trkpt lat="47.53148" lon="6.68364">
        <ele>382</ele>
        <time>2015-09-27T08:24:19.000Z</time>
      </trkpt>
      <trkpt lat="47.53151" lon="6.68364">
        <ele>382</ele>
        <time>2015-09-27T08:24:20.000Z</time>
      </trkpt>
      <trkpt lat="47.53154" lon="6.68364">
        <ele>382</ele>
        <time>2015-09-27T08:24:21.000Z</time>
      </trkpt>
      <trkpt lat="47.53157" lon="6.68363">
        <ele>382</ele>
        <time>2015-09-27T08:24:22.000Z</time>
      </trkpt>
      <trkpt lat="47.5316" lon="6.68363">
        <ele>382</ele>
        <time>2015-09-27T08:24:23.000Z</time>
      </trkpt>
      <trkpt lat="47.53163" lon="6.68363">
        <ele>382</ele>
        <time>2015-09-27T08:24:24.000Z</time>
      </trkpt>
      <trkpt lat="47.53165" lon="6.68364">
        <ele>382</ele>
        <time>2015-09-27T08:24:25.000Z</time>
      </trkpt>
      <trkpt lat="47.53168" lon="6.68364">
        <ele>378</ele>
        <time>2015-09-27T08:24:26.000Z</time>
      </trkpt>
      <trkpt lat="47.5317" lon="6.68364">
        <ele>378</ele>
        <time>2015-09-27T08:24:27.000Z</time>
      </trkpt>
      <trkpt lat="47.53174" lon="6.68364">
        <ele>378</ele>
        <time>2015-09-27T08:24:28.000Z</time>
      </trkpt>
      <trkpt lat="47.53178" lon="6.68363">
        <ele>378</ele>
        <time>2015-09-27T08:24:29.000Z</time>
      </trkpt>
      <trkpt lat="47.53187" lon="6.68361">
        <ele>377</ele>
        <time>2015-09-27T08:24:30.000Z</time>
      </trkpt>
      <trkpt lat="47.53192" lon="6.68357">
        <ele>377</ele>
        <time>2015-09-27T08:24:31.000Z</time>
      </trkpt>
      <trkpt lat="47.53201" lon="6.68354">
        <ele>376</ele>
        <time>2015-09-27T08:24:32.000Z</time>
      </trkpt>
      <trkpt lat="47.53209" lon="6.68351">
        <ele>375</ele>
        <time>2015-09-27T08:24:33.000Z</time>
      </trkpt>
      <trkpt lat="47.53216" lon="6.68346">
        <ele>375</ele>
        <time>2015-09-27T08:24:34.000Z</time>
      </trkpt>
      <trkpt lat="47.53223" lon="6.6834">
        <ele>374</ele>
        <time>2015-09-27T08:24:35.000Z</time>
      </trkpt>
      <trkpt lat="47.53235" lon="6.68341">
        <ele>372</ele>
        <time>2015-09-27T08:24:36.000Z</time>
      </trkpt>
      <trkpt lat="47.53246" lon="6.68339">
        <ele>370</ele>
        <time>2015-09-27T08:24:37.000Z</time>
      </trkpt>
      <trkpt lat="47.53256" lon="6.68338">
        <ele>367</ele>
        <time>2015-09-27T08:24:38.000Z</time>
      </trkpt>
      <trkpt lat="47.53266" lon="6.68339">
        <ele>367</ele>
        <time>2015-09-27T08:24:39.000Z</time>
      </trkpt>
      <trkpt lat="47.53275" lon="6.6834">
        <ele>366</ele>
        <time>2015-09-27T08:24:40.000Z</time>
      </trkpt>
      <trkpt lat="47.53284" lon="6.68344">
        <ele>366</ele>
        <time>2015-09-27T08:24:41.000Z</time>
      </trkpt>
      <trkpt lat="47.53292" lon="6.68342">
        <ele>365</ele>
        <time>2015-09-27T08:24:42.000Z</time>
      </trkpt>
      <trkpt lat="47.53301" lon="6.68342">
        <ele>365</ele>
        <time>2015-09-27T08:24:43.000Z</time>
      </trkpt>
      <trkpt lat="47.5331" lon="6.68343">
        <ele>364</ele>
        <time>2015-09-27T08:24:44.000Z</time>
      </trkpt>
      <trkpt lat="47.53319" lon="6.68345">
        <ele>364</ele>
        <time>2015-09-27T08:24:45.000Z</time>
      </trkpt>
      <trkpt lat="47.53329" lon="6.68348">
        <ele>363</ele>
        <time>2015-09-27T08:24:46.000Z</time>
      </trkpt>
      <trkpt lat="47.53338" lon="6.68349">
        <ele>365</ele>
        <time>2015-09-27T08:24:47.000Z</time>
      </trkpt>
      <trkpt lat="47.53347" lon="6.6835">
        <ele>366</ele>
        <time>2015-09-27T08:24:48.000Z</time>
      </trkpt>
      <trkpt lat="47.53353" lon="6.68354">
        <ele>366</ele>
        <time>2015-09-27T08:24:49.000Z</time>
      </trkpt>
      <trkpt lat="47.5336" lon="6.68358">
        <ele>367</ele>
        <time>2015-09-27T08:24:50.000Z</time>
      </trkpt>
      <trkpt lat="47.53365" lon="6.6836">
        <ele>368</ele>
        <time>2015-09-27T08:24:51.000Z</time>
      </trkpt>
      <trkpt lat="47.5337" lon="6.68363">
        <ele>368</ele>
        <time>2015-09-27T08:24:52.000Z</time>
      </trkpt>
      <trkpt lat="47.53368" lon="6.68358">
        <ele>368</ele>
        <time>2015-09-27T08:24:58.000Z</time>
      </trkpt>
      <trkpt lat="47.53367" lon="6.68357">
        <ele>368</ele>
        <time>2015-09-27T08:24:59.000Z</time>
      </trkpt>
      <trkpt lat="47.53371" lon="6.68353">
        <ele>368</ele>
        <time>2015-09-27T08:25:03.000Z</time>
      </trkpt>
      <trkpt lat="47.53371" lon="6.68352">
        <ele>368</ele>
        <time>2015-09-27T08:25:04.000Z</time>
      </trkpt>
      <trkpt lat="47.53374" lon="6.68352">
        <ele>368</ele>
        <time>2015-09-27T08:25:06.000Z</time>
      </trkpt>
      <trkpt lat="47.53377" lon="6.68351">
        <ele>368</ele>
        <time>2015-09-27T08:25:07.000Z</time>
      </trkpt>
      <trkpt lat="47.53379" lon="6.68351">
        <ele>369</ele>
        <time>2015-09-27T08:25:08.000Z</time>
      </trkpt>
      <trkpt lat="47.53381" lon="6.68351">
        <ele>369</ele>
        <time>2015-09-27T08:25:09.000Z</time>
      </trkpt>
      <trkpt lat="47.53384" lon="6.68351">
        <ele>369</ele>
        <time>2015-09-27T08:25:10.000Z</time>
      </trkpt>
      <trkpt lat="47.53386" lon="6.68352">
        <ele>369</ele>
        <time>2015-09-27T08:25:11.000Z</time>
      </trkpt>
      <trkpt lat="47.53389" lon="6.68353">
        <ele>369</ele>
        <time>2015-09-27T08:25:12.000Z</time>
      </trkpt>
      <trkpt lat="47.53392" lon="6.68354">
        <ele>370</ele>
        <time>2015-09-27T08:25:13.000Z</time>
      </trkpt>
      <trkpt lat="47.53395" lon="6.68356">
        <ele>370</ele>
        <time>2015-09-27T08:25:15.000Z</time>
      </trkpt>
      <trkpt lat="47.53396" lon="6.68356">
        <ele>370</ele>
        <time>2015-09-27T08:25:16.000Z</time>
      </trkpt>
      <trkpt lat="47.53399" lon="6.68357">
        <ele>370</ele>
        <time>2015-09-27T08:25:18.000Z</time>
      </trkpt>
      <trkpt lat="47.53401" lon="6.68358">
        <ele>370</ele>
        <time>2015-09-27T08:25:19.000Z</time>
      </trkpt>
      <trkpt lat="47.53403" lon="6.6836">
        <ele>370</ele>
        <time>2015-09-27T08:25:20.000Z</time>
      </trkpt>
      <trkpt lat="47.53405" lon="6.68361">
        <ele>370</ele>
        <time>2015-09-27T08:25:21.000Z</time>
      </trkpt>
      <trkpt lat="47.53407" lon="6.68363">
        <ele>371</ele>
        <time>2015-09-27T08:25:22.000Z</time>
      </trkpt>
      <trkpt lat="47.5341" lon="6.68364">
        <ele>371</ele>
        <time>2015-09-27T08:25:23.000Z</time>
      </trkpt>
      <trkpt lat="47.53412" lon="6.68365">
        <ele>371</ele>
        <time>2015-09-27T08:25:24.000Z</time>
      </trkpt>
      <trkpt lat="47.53415" lon="6.68365">
        <ele>371</ele>
        <time>2015-09-27T08:25:25.000Z</time>
      </trkpt>
      <trkpt lat="47.53417" lon="6.68366">
        <ele>376</ele>
        <time>2015-09-27T08:25:26.000Z</time>
      </trkpt>
      <trkpt lat="47.53419" lon="6.68366">
        <ele>376</ele>
        <time>2015-09-27T08:25:27.000Z</time>
      </trkpt>
      <trkpt lat="47.53423" lon="6.68367">
        <ele>376</ele>
        <time>2015-09-27T08:25:29.000Z</time>
      </trkpt>
      <trkpt lat="47.53425" lon="6.68367">
        <ele>376</ele>
        <time>2015-09-27T08:25:30.000Z</time>
      </trkpt>
      <trkpt lat="47.53428" lon="6.68366">
        <ele>376</ele>
        <time>2015-09-27T08:25:32.000Z</time>
      </trkpt>
      <trkpt lat="47.53431" lon="6.68365">
        <ele>376</ele>
        <time>2015-09-27T08:25:33.000Z</time>
      </trkpt>
      <trkpt lat="47.53433" lon="6.68365">
        <ele>376</ele>
        <time>2015-09-27T08:25:34.000Z</time>
      </trkpt>
      <trkpt lat="47.53435" lon="6.68364">
        <ele>376</ele>
        <time>2015-09-27T08:25:35.000Z</time>
      </trkpt>
      <trkpt lat="47.5344" lon="6.68364">
        <ele>377</ele>
        <time>2015-09-27T08:25:37.000Z</time>
      </trkpt>
      <trkpt lat="47.53442" lon="6.68365">
        <ele>377</ele>
        <time>2015-09-27T08:25:38.000Z</time>
      </trkpt>
      <trkpt lat="47.53444" lon="6.68365">
        <ele>377</ele>
        <time>2015-09-27T08:25:39.000Z</time>
      </trkpt>
      <trkpt lat="47.53447" lon="6.68366">
        <ele>377</ele>
        <time>2015-09-27T08:25:40.000Z</time>
      </trkpt>
      <trkpt lat="47.53449" lon="6.68367">
        <ele>377</ele>
        <time>2015-09-27T08:25:41.000Z</time>
      </trkpt>
      <trkpt lat="47.53451" lon="6.68368">
        <ele>377</ele>
        <time>2015-09-27T08:25:42.000Z</time>
      </trkpt>
      <trkpt lat="47.53455" lon="6.68369">
        <ele>377</ele>
        <time>2015-09-27T08:25:44.000Z</time>
      </trkpt>
      <trkpt lat="47.53456" lon="6.68368">
        <ele>377</ele>
        <time>2015-09-27T08:25:45.000Z</time>
      </trkpt>
      <trkpt lat="47.53457" lon="6.68365">
        <ele>377</ele>
        <time>2015-09-27T08:25:46.000Z</time>
      </trkpt>
      <trkpt lat="47.53458" lon="6.68362">
        <ele>377</ele>
        <time>2015-09-27T08:25:47.000Z</time>
      </trkpt>
      <trkpt lat="47.53459" lon="6.68358">
        <ele>377</ele>
        <time>2015-09-27T08:25:48.000Z</time>
      </trkpt>
      <trkpt lat="47.5346" lon="6.68354">
        <ele>377</ele>
        <time>2015-09-27T08:25:49.000Z</time>
      </trkpt>
      <trkpt lat="47.53463" lon="6.68351">
        <ele>377</ele>
        <time>2015-09-27T08:25:50.000Z</time>
      </trkpt>
      <trkpt lat="47.53466" lon="6.68348">
        <ele>377</ele>
        <time>2015-09-27T08:25:51.000Z</time>
      </trkpt>
      <trkpt lat="47.53469" lon="6.68346">
        <ele>377</ele>
        <time>2015-09-27T08:25:52.000Z</time>
      </trkpt>
      <trkpt lat="47.53473" lon="6.68345">
        <ele>377</ele>
        <time>2015-09-27T08:25:53.000Z</time>
      </trkpt>
      <trkpt lat="47.53476" lon="6.68344">
        <ele>377</ele>
        <time>2015-09-27T08:25:54.000Z</time>
      </trkpt>
      <trkpt lat="47.53479" lon="6.68345">
        <ele>377</ele>
        <time>2015-09-27T08:25:55.000Z</time>
      </trkpt>
      <trkpt lat="47.53482" lon="6.68346">
        <ele>377</ele>
        <time>2015-09-27T08:25:56.000Z</time>
      </trkpt>
      <trkpt lat="47.53485" lon="6.68348">
        <ele>377</ele>
        <time>2015-09-27T08:25:57.000Z</time>
      </trkpt>
      <trkpt lat="47.53489" lon="6.6835">
        <ele>377</ele>
        <time>2015-09-27T08:25:58.000Z</time>
      </trkpt>
      <trkpt lat="47.53492" lon="6.68352">
        <ele>377</ele>
        <time>2015-09-27T08:25:59.000Z</time>
      </trkpt>
      <trkpt lat="47.53496" lon="6.68353">
        <ele>377</ele>
        <time>2015-09-27T08:26:00.000Z</time>
      </trkpt>
      <trkpt lat="47.53499" lon="6.68353">
        <ele>377</ele>
        <time>2015-09-27T08:26:01.000Z</time>
      </trkpt>
      <trkpt lat="47.53502" lon="6.68353">
        <ele>379</ele>
        <time>2015-09-27T08:26:02.000Z</time>
      </trkpt>
      <trkpt lat="47.53504" lon="6.68353">
        <ele>379</ele>
        <time>2015-09-27T08:26:03.000Z</time>
      </trkpt>
      <trkpt lat="47.53507" lon="6.68353">
        <ele>379</ele>
        <time>2015-09-27T08:26:04.000Z</time>
      </trkpt>
      <trkpt lat="47.5351" lon="6.68353">
        <ele>379</ele>
        <time>2015-09-27T08:26:05.000Z</time>
      </trkpt>
      <trkpt lat="47.53513" lon="6.68352">
        <ele>379</ele>
        <time>2015-09-27T08:26:06.000Z</time>
      </trkpt>
      <trkpt lat="47.53515" lon="6.68352">
        <ele>379</ele>
        <time>2015-09-27T08:26:07.000Z</time>
      </trkpt>
      <trkpt lat="47.53518" lon="6.68351">
        <ele>379</ele>
        <time>2015-09-27T08:26:08.000Z</time>
      </trkpt>
      <trkpt lat="47.5352" lon="6.6835">
        <ele>379</ele>
        <time>2015-09-27T08:26:09.000Z</time>
      </trkpt>
      <trkpt lat="47.53524" lon="6.68348">
        <ele>379</ele>
        <time>2015-09-27T08:26:10.000Z</time>
      </trkpt>
      <trkpt lat="47.53527" lon="6.68346">
        <ele>379</ele>
        <time>2015-09-27T08:26:11.000Z</time>
      </trkpt>
      <trkpt lat="47.5353" lon="6.68344">
        <ele>380</ele>
        <time>2015-09-27T08:26:12.000Z</time>
      </trkpt>
      <trkpt lat="47.53533" lon="6.68342">
        <ele>380</ele>
        <time>2015-09-27T08:26:13.000Z</time>
      </trkpt>
      <trkpt lat="47.53536" lon="6.6834">
        <ele>380</ele>
        <time>2015-09-27T08:26:14.000Z</time>
      </trkpt>
      <trkpt lat="47.53539" lon="6.68339">
        <ele>380</ele>
        <time>2015-09-27T08:26:15.000Z</time>
      </trkpt>
      <trkpt lat="47.53542" lon="6.68336">
        <ele>380</ele>
        <time>2015-09-27T08:26:16.000Z</time>
      </trkpt>
      <trkpt lat="47.53545" lon="6.68334">
        <ele>380</ele>
        <time>2015-09-27T08:26:17.000Z</time>
      </trkpt>
      <trkpt lat="47.53548" lon="6.68331">
        <ele>377</ele>
        <time>2015-09-27T08:26:18.000Z</time>
      </trkpt>
      <trkpt lat="47.5355" lon="6.68329">
        <ele>377</ele>
        <time>2015-09-27T08:26:19.000Z</time>
      </trkpt>
      <trkpt lat="47.53553" lon="6.68327">
        <ele>377</ele>
        <time>2015-09-27T08:26:20.000Z</time>
      </trkpt>
      <trkpt lat="47.53555" lon="6.68324">
        <ele>378</ele>
        <time>2015-09-27T08:26:21.000Z</time>
      </trkpt>
      <trkpt lat="47.53558" lon="6.68321">
        <ele>378</ele>
        <time>2015-09-27T08:26:22.000Z</time>
      </trkpt>
      <trkpt lat="47.53561" lon="6.68317">
        <ele>378</ele>
        <time>2015-09-27T08:26:23.000Z</time>
      </trkpt>
      <trkpt lat="47.53564" lon="6.68312">
        <ele>378</ele>
        <time>2015-09-27T08:26:24.000Z</time>
      </trkpt>
      <trkpt lat="47.53568" lon="6.68309">
        <ele>378</ele>
        <time>2015-09-27T08:26:25.000Z</time>
      </trkpt>
      <trkpt lat="47.53571" lon="6.68307">
        <ele>378</ele>
        <time>2015-09-27T08:26:26.000Z</time>
      </trkpt>
      <trkpt lat="47.53574" lon="6.68306">
        <ele>378</ele>
        <time>2015-09-27T08:26:27.000Z</time>
      </trkpt>
      <trkpt lat="47.53577" lon="6.68306">
        <ele>378</ele>
        <time>2015-09-27T08:26:28.000Z</time>
      </trkpt>
      <trkpt lat="47.5358" lon="6.68306">
        <ele>378</ele>
        <time>2015-09-27T08:26:29.000Z</time>
      </trkpt>
      <trkpt lat="47.53583" lon="6.68306">
        <ele>378</ele>
        <time>2015-09-27T08:26:30.000Z</time>
      </trkpt>
      <trkpt lat="47.53586" lon="6.68306">
        <ele>381</ele>
        <time>2015-09-27T08:26:31.000Z</time>
      </trkpt>
      <trkpt lat="47.53588" lon="6.68307">
        <ele>381</ele>
        <time>2015-09-27T08:26:32.000Z</time>
      </trkpt>
      <trkpt lat="47.53591" lon="6.68307">
        <ele>381</ele>
        <time>2015-09-27T08:26:33.000Z</time>
      </trkpt>
      <trkpt lat="47.53594" lon="6.68306">
        <ele>381</ele>
        <time>2015-09-27T08:26:34.000Z</time>
      </trkpt>
      <trkpt lat="47.53598" lon="6.68306">
        <ele>381</ele>
        <time>2015-09-27T08:26:35.000Z</time>
      </trkpt>
      <trkpt lat="47.53601" lon="6.68306">
        <ele>381</ele>
        <time>2015-09-27T08:26:36.000Z</time>
      </trkpt>
      <trkpt lat="47.53605" lon="6.68305">
        <ele>381</ele>
        <time>2015-09-27T08:26:37.000Z</time>
      </trkpt>
      <trkpt lat="47.53609" lon="6.68305">
        <ele>381</ele>
        <time>2015-09-27T08:26:38.000Z</time>
      </trkpt>
      <trkpt lat="47.53612" lon="6.68304">
        <ele>381</ele>
        <time>2015-09-27T08:26:39.000Z</time>
      </trkpt>
      <trkpt lat="47.53616" lon="6.68303">
        <ele>381</ele>
        <time>2015-09-27T08:26:40.000Z</time>
      </trkpt>
      <trkpt lat="47.53619" lon="6.68302">
        <ele>381</ele>
        <time>2015-09-27T08:26:41.000Z</time>
      </trkpt>
      <trkpt lat="47.53623" lon="6.68301">
        <ele>381</ele>
        <time>2015-09-27T08:26:42.000Z</time>
      </trkpt>
      <trkpt lat="47.53627" lon="6.683">
        <ele>381</ele>
        <time>2015-09-27T08:26:43.000Z</time>
      </trkpt>
      <trkpt lat="47.53632" lon="6.68299">
        <ele>381</ele>
        <time>2015-09-27T08:26:44.000Z</time>
      </trkpt>
      <trkpt lat="47.53636" lon="6.68298">
        <ele>382</ele>
        <time>2015-09-27T08:26:45.000Z</time>
      </trkpt>
      <trkpt lat="47.5364" lon="6.68297">
        <ele>382</ele>
        <time>2015-09-27T08:26:46.000Z</time>
      </trkpt>
      <trkpt lat="47.53644" lon="6.68297">
        <ele>382</ele>
        <time>2015-09-27T08:26:47.000Z</time>
      </trkpt>
      <trkpt lat="47.53647" lon="6.68296">
        <ele>382</ele>
        <time>2015-09-27T08:26:48.000Z</time>
      </trkpt>
      <trkpt lat="47.53651" lon="6.68295">
        <ele>382</ele>
        <time>2015-09-27T08:26:49.000Z</time>
      </trkpt>
      <trkpt lat="47.53654" lon="6.68293">
        <ele>382</ele>
        <time>2015-09-27T08:26:50.000Z</time>
      </trkpt>
      <trkpt lat="47.53657" lon="6.68292">
        <ele>382</ele>
        <time>2015-09-27T08:26:51.000Z</time>
      </trkpt>
      <trkpt lat="47.5366" lon="6.6829">
        <ele>382</ele>
        <time>2015-09-27T08:26:52.000Z</time>
      </trkpt>
      <trkpt lat="47.53662" lon="6.68289">
        <ele>382</ele>
        <time>2015-09-27T08:26:53.000Z</time>
      </trkpt>
      <trkpt lat="47.53665" lon="6.68289">
        <ele>382</ele>
        <time>2015-09-27T08:26:54.000Z</time>
      </trkpt>
      <trkpt lat="47.53668" lon="6.68289">
        <ele>385</ele>
        <time>2015-09-27T08:26:55.000Z</time>
      </trkpt>
      <trkpt lat="47.53671" lon="6.68289">
        <ele>385</ele>
        <time>2015-09-27T08:26:56.000Z</time>
      </trkpt>
      <trkpt lat="47.53673" lon="6.68289">
        <ele>385</ele>
        <time>2015-09-27T08:26:57.000Z</time>
      </trkpt>
      <trkpt lat="47.53675" lon="6.6829">
        <ele>385</ele>
        <time>2015-09-27T08:26:58.000Z</time>
      </trkpt>
      <trkpt lat="47.53678" lon="6.6829">
        <ele>385</ele>
        <time>2015-09-27T08:26:59.000Z</time>
      </trkpt>
      <trkpt lat="47.5368" lon="6.68291">
        <ele>385</ele>
        <time>2015-09-27T08:27:00.000Z</time>
      </trkpt>
      <trkpt lat="47.53682" lon="6.68291">
        <ele>385</ele>
        <time>2015-09-27T08:27:01.000Z</time>
      </trkpt>
      <trkpt lat="47.53685" lon="6.68291">
        <ele>385</ele>
        <time>2015-09-27T08:27:02.000Z</time>
      </trkpt>
      <trkpt lat="47.53687" lon="6.68291">
        <ele>385</ele>
        <time>2015-09-27T08:27:03.000Z</time>
      </trkpt>
      <trkpt lat="47.5369" lon="6.68291">
        <ele>385</ele>
        <time>2015-09-27T08:27:04.000Z</time>
      </trkpt>
      <trkpt lat="47.53692" lon="6.68291">
        <ele>385</ele>
        <time>2015-09-27T08:27:05.000Z</time>
      </trkpt>
      <trkpt lat="47.53694" lon="6.68291">
        <ele>385</ele>
        <time>2015-09-27T08:27:06.000Z</time>
      </trkpt>
      <trkpt lat="47.53697" lon="6.68291">
        <ele>385</ele>
        <time>2015-09-27T08:27:07.000Z</time>
      </trkpt>
      <trkpt lat="47.53699" lon="6.68291">
        <ele>385</ele>
        <time>2015-09-27T08:27:08.000Z</time>
      </trkpt>
      <trkpt lat="47.53701" lon="6.6829">
        <ele>385</ele>
        <time>2015-09-27T08:27:09.000Z</time>
      </trkpt>
      <trkpt lat="47.53704" lon="6.6829">
        <ele>385</ele>
        <time>2015-09-27T08:27:10.000Z</time>
      </trkpt>
      <trkpt lat="47.53706" lon="6.68289">
        <ele>385</ele>
        <time>2015-09-27T08:27:11.000Z</time>
      </trkpt>
      <trkpt lat="47.53708" lon="6.68289">
        <ele>386</ele>
        <time>2015-09-27T08:27:12.000Z</time>
      </trkpt>
      <trkpt lat="47.53711" lon="6.68288">
        <ele>386</ele>
        <time>2015-09-27T08:27:13.000Z</time>
      </trkpt>
      <trkpt lat="47.53713" lon="6.68287">
        <ele>386</ele>
        <time>2015-09-27T08:27:14.000Z</time>
      </trkpt>
      <trkpt lat="47.53715" lon="6.68286">
        <ele>386</ele>
        <time>2015-09-27T08:27:15.000Z</time>
      </trkpt>
      <trkpt lat="47.53717" lon="6.68284">
        <ele>386</ele>
        <time>2015-09-27T08:27:16.000Z</time>
      </trkpt>
      <trkpt lat="47.53719" lon="6.68282">
        <ele>386</ele>
        <time>2015-09-27T08:27:17.000Z</time>
      </trkpt>
      <trkpt lat="47.53721" lon="6.68279">
        <ele>386</ele>
        <time>2015-09-27T08:27:18.000Z</time>
      </trkpt>
      <trkpt lat="47.53723" lon="6.68277">
        <ele>386</ele>
        <time>2015-09-27T08:27:19.000Z</time>
      </trkpt>
      <trkpt lat="47.53725" lon="6.68274">
        <ele>386</ele>
        <time>2015-09-27T08:27:20.000Z</time>
      </trkpt>
      <trkpt lat="47.53727" lon="6.68272">
        <ele>386</ele>
        <time>2015-09-27T08:27:21.000Z</time>
      </trkpt>
      <trkpt lat="47.5373" lon="6.6827">
        <ele>387</ele>
        <time>2015-09-27T08:27:22.000Z</time>
      </trkpt>
      <trkpt lat="47.53732" lon="6.68269">
        <ele>387</ele>
        <time>2015-09-27T08:27:23.000Z</time>
      </trkpt>
      <trkpt lat="47.53735" lon="6.68268">
        <ele>387</ele>
        <time>2015-09-27T08:27:24.000Z</time>
      </trkpt>
      <trkpt lat="47.53738" lon="6.68267">
        <ele>387</ele>
        <time>2015-09-27T08:27:25.000Z</time>
      </trkpt>
      <trkpt lat="47.53741" lon="6.68266">
        <ele>387</ele>
        <time>2015-09-27T08:27:26.000Z</time>
      </trkpt>
      <trkpt lat="47.53743" lon="6.68262">
        <ele>388</ele>
        <time>2015-09-27T08:27:28.000Z</time>
      </trkpt>
      <trkpt lat="47.53743" lon="6.68259">
        <ele>388</ele>
        <time>2015-09-27T08:27:29.000Z</time>
      </trkpt>
      <trkpt lat="47.53741" lon="6.68254">
        <ele>388</ele>
        <time>2015-09-27T08:27:31.000Z</time>
      </trkpt>
      <trkpt lat="47.53739" lon="6.68252">
        <ele>388</ele>
        <time>2015-09-27T08:27:32.000Z</time>
      </trkpt>
      <trkpt lat="47.53737" lon="6.68248">
        <ele>388</ele>
        <time>2015-09-27T08:27:33.000Z</time>
      </trkpt>
      <trkpt lat="47.53736" lon="6.68242">
        <ele>388</ele>
        <time>2015-09-27T08:27:34.000Z</time>
      </trkpt>
      <trkpt lat="47.53735" lon="6.68236">
        <ele>388</ele>
        <time>2015-09-27T08:27:35.000Z</time>
      </trkpt>
      <trkpt lat="47.53735" lon="6.6823">
        <ele>388</ele>
        <time>2015-09-27T08:27:36.000Z</time>
      </trkpt>
      <trkpt lat="47.53734" lon="6.68224">
        <ele>387</ele>
        <time>2015-09-27T08:27:37.000Z</time>
      </trkpt>
      <trkpt lat="47.53733" lon="6.68219">
        <ele>387</ele>
        <time>2015-09-27T08:27:38.000Z</time>
      </trkpt>
      <trkpt lat="47.53732" lon="6.68215">
        <ele>387</ele>
        <time>2015-09-27T08:27:39.000Z</time>
      </trkpt>
      <trkpt lat="47.53731" lon="6.68211">
        <ele>387</ele>
        <time>2015-09-27T08:27:40.000Z</time>
      </trkpt>
      <trkpt lat="47.5373" lon="6.68208">
        <ele>387</ele>
        <time>2015-09-27T08:27:41.000Z</time>
      </trkpt>
      <trkpt lat="47.53729" lon="6.68205">
        <ele>387</ele>
        <time>2015-09-27T08:27:42.000Z</time>
      </trkpt>
      <trkpt lat="47.53727" lon="6.68202">
        <ele>387</ele>
        <time>2015-09-27T08:27:43.000Z</time>
      </trkpt>
      <trkpt lat="47.53727" lon="6.68198">
        <ele>387</ele>
        <time>2015-09-27T08:27:44.000Z</time>
      </trkpt>
      <trkpt lat="47.53728" lon="6.68192">
        <ele>387</ele>
        <time>2015-09-27T08:27:45.000Z</time>
      </trkpt>
      <trkpt lat="47.5373" lon="6.68186">
        <ele>387</ele>
        <time>2015-09-27T08:27:46.000Z</time>
      </trkpt>
      <trkpt lat="47.53731" lon="6.68179">
        <ele>388</ele>
        <time>2015-09-27T08:27:47.000Z</time>
      </trkpt>
      <trkpt lat="47.53733" lon="6.68173">
        <ele>388</ele>
        <time>2015-09-27T08:27:48.000Z</time>
      </trkpt>
      <trkpt lat="47.53735" lon="6.68166">
        <ele>388</ele>
        <time>2015-09-27T08:27:49.000Z</time>
      </trkpt>
      <trkpt lat="47.53738" lon="6.68161">
        <ele>388</ele>
        <time>2015-09-27T08:27:50.000Z</time>
      </trkpt>
      <trkpt lat="47.5374" lon="6.68156">
        <ele>387</ele>
        <time>2015-09-27T08:27:51.000Z</time>
      </trkpt>
      <trkpt lat="47.53741" lon="6.68151">
        <ele>387</ele>
        <time>2015-09-27T08:27:52.000Z</time>
      </trkpt>
      <trkpt lat="47.53742" lon="6.68146">
        <ele>387</ele>
        <time>2015-09-27T08:27:53.000Z</time>
      </trkpt>
      <trkpt lat="47.53743" lon="6.6814">
        <ele>387</ele>
        <time>2015-09-27T08:27:54.000Z</time>
      </trkpt>
      <trkpt lat="47.53743" lon="6.68135">
        <ele>387</ele>
        <time>2015-09-27T08:27:55.000Z</time>
      </trkpt>
      <trkpt lat="47.53742" lon="6.68129">
        <ele>386</ele>
        <time>2015-09-27T08:27:56.000Z</time>
      </trkpt>
      <trkpt lat="47.53741" lon="6.68123">
        <ele>386</ele>
        <time>2015-09-27T08:27:57.000Z</time>
      </trkpt>
      <trkpt lat="47.53739" lon="6.68117">
        <ele>386</ele>
        <time>2015-09-27T08:27:58.000Z</time>
      </trkpt>
      <trkpt lat="47.53738" lon="6.68111">
        <ele>386</ele>
        <time>2015-09-27T08:27:59.000Z</time>
      </trkpt>
      <trkpt lat="47.53736" lon="6.68107">
        <ele>386</ele>
        <time>2015-09-27T08:28:00.000Z</time>
      </trkpt>
      <trkpt lat="47.53733" lon="6.68102">
        <ele>386</ele>
        <time>2015-09-27T08:28:01.000Z</time>
      </trkpt>
      <trkpt lat="47.53732" lon="6.68098">
        <ele>386</ele>
        <time>2015-09-27T08:28:02.000Z</time>
      </trkpt>
      <trkpt lat="47.53731" lon="6.68093">
        <ele>386</ele>
        <time>2015-09-27T08:28:03.000Z</time>
      </trkpt>
      <trkpt lat="47.53731" lon="6.68089">
        <ele>386</ele>
        <time>2015-09-27T08:28:04.000Z</time>
      </trkpt>
      <trkpt lat="47.53733" lon="6.68085">
        <ele>386</ele>
        <time>2015-09-27T08:28:05.000Z</time>
      </trkpt>
      <trkpt lat="47.53736" lon="6.68083">
        <ele>384</ele>
        <time>2015-09-27T08:28:06.000Z</time>
      </trkpt>
      <trkpt lat="47.53739" lon="6.68081">
        <ele>384</ele>
        <time>2015-09-27T08:28:07.000Z</time>
      </trkpt>
      <trkpt lat="47.53742" lon="6.68079">
        <ele>384</ele>
        <time>2015-09-27T08:28:08.000Z</time>
      </trkpt>
      <trkpt lat="47.53746" lon="6.68078">
        <ele>385</ele>
        <time>2015-09-27T08:28:09.000Z</time>
      </trkpt>
      <trkpt lat="47.5375" lon="6.68077">
        <ele>385</ele>
        <time>2015-09-27T08:28:10.000Z</time>
      </trkpt>
      <trkpt lat="47.53754" lon="6.68076">
        <ele>384</ele>
        <time>2015-09-27T08:28:11.000Z</time>
      </trkpt>
      <trkpt lat="47.53759" lon="6.68074">
        <ele>383</ele>
        <time>2015-09-27T08:28:12.000Z</time>
      </trkpt>
      <trkpt lat="47.53764" lon="6.68073">
        <ele>383</ele>
        <time>2015-09-27T08:28:13.000Z</time>
      </trkpt>
      <trkpt lat="47.53768" lon="6.68073">
        <ele>382</ele>
        <time>2015-09-27T08:28:14.000Z</time>
      </trkpt>
      <trkpt lat="47.53773" lon="6.68072">
        <ele>382</ele>
        <time>2015-09-27T08:28:15.000Z</time>
      </trkpt>
      <trkpt lat="47.53778" lon="6.68073">
        <ele>381</ele>
        <time>2015-09-27T08:28:16.000Z</time>
      </trkpt>
      <trkpt lat="47.53784" lon="6.68073">
        <ele>381</ele>
        <time>2015-09-27T08:28:17.000Z</time>
      </trkpt>
      <trkpt lat="47.53789" lon="6.68074">
        <ele>380</ele>
        <time>2015-09-27T08:28:18.000Z</time>
      </trkpt>
      <trkpt lat="47.53795" lon="6.68074">
        <ele>380</ele>
        <time>2015-09-27T08:28:19.000Z</time>
      </trkpt>
      <trkpt lat="47.538" lon="6.68075">
        <ele>380</ele>
        <time>2015-09-27T08:28:20.000Z</time>
      </trkpt>
      <trkpt lat="47.53804" lon="6.68077">
        <ele>380</ele>
        <time>2015-09-27T08:28:21.000Z</time>
      </trkpt>
      <trkpt lat="47.53809" lon="6.68078">
        <ele>380</ele>
        <time>2015-09-27T08:28:22.000Z</time>
      </trkpt>
      <trkpt lat="47.53813" lon="6.68078">
        <ele>380</ele>
        <time>2015-09-27T08:28:23.000Z</time>
      </trkpt>
      <trkpt lat="47.53818" lon="6.68078">
        <ele>380</ele>
        <time>2015-09-27T08:28:24.000Z</time>
      </trkpt>
      <trkpt lat="47.53822" lon="6.68078">
        <ele>380</ele>
        <time>2015-09-27T08:28:25.000Z</time>
      </trkpt>
      <trkpt lat="47.53827" lon="6.68077">
        <ele>380</ele>
        <time>2015-09-27T08:28:26.000Z</time>
      </trkpt>
      <trkpt lat="47.53832" lon="6.68075">
        <ele>380</ele>
        <time>2015-09-27T08:28:27.000Z</time>
      </trkpt>
      <trkpt lat="47.53836" lon="6.68072">
        <ele>378</ele>
        <time>2015-09-27T08:28:28.000Z</time>
      </trkpt>
      <trkpt lat="47.53841" lon="6.68069">
        <ele>378</ele>
        <time>2015-09-27T08:28:29.000Z</time>
      </trkpt>
      <trkpt lat="47.53849" lon="6.68056">
        <ele>377</ele>
        <time>2015-09-27T08:28:30.000Z</time>
      </trkpt>
      <trkpt lat="47.53858" lon="6.68051">
        <ele>376</ele>
        <time>2015-09-27T08:28:31.000Z</time>
      </trkpt>
      <trkpt lat="47.53865" lon="6.68048">
        <ele>376</ele>
        <time>2015-09-27T08:28:32.000Z</time>
      </trkpt>
      <trkpt lat="47.53868" lon="6.68046">
        <ele>376</ele>
        <time>2015-09-27T08:28:33.000Z</time>
      </trkpt>
      <trkpt lat="47.53872" lon="6.68047">
        <ele>376</ele>
        <time>2015-09-27T08:28:34.000Z</time>
      </trkpt>
      <trkpt lat="47.53875" lon="6.68044">
        <ele>376</ele>
        <time>2015-09-27T08:28:35.000Z</time>
      </trkpt>
      <trkpt lat="47.53875" lon="6.68042">
        <ele>376</ele>
        <time>2015-09-27T08:28:36.000Z</time>
      </trkpt>
      <trkpt lat="47.53876" lon="6.68036">
        <ele>376</ele>
        <time>2015-09-27T08:28:37.000Z</time>
      </trkpt>
      <trkpt lat="47.53874" lon="6.68034">
        <ele>376</ele>
        <time>2015-09-27T08:28:38.000Z</time>
      </trkpt>
      <trkpt lat="47.53868" lon="6.68026">
        <ele>375</ele>
        <time>2015-09-27T08:28:39.000Z</time>
      </trkpt>
      <trkpt lat="47.53866" lon="6.6802">
        <ele>375</ele>
        <time>2015-09-27T08:28:40.000Z</time>
      </trkpt>
      <trkpt lat="47.53864" lon="6.68012">
        <ele>375</ele>
        <time>2015-09-27T08:28:41.000Z</time>
      </trkpt>
      <trkpt lat="47.5386" lon="6.68005">
        <ele>375</ele>
        <time>2015-09-27T08:28:42.000Z</time>
      </trkpt>
      <trkpt lat="47.53856" lon="6.67997">
        <ele>374</ele>
        <time>2015-09-27T08:28:43.000Z</time>
      </trkpt>
      <trkpt lat="47.53851" lon="6.67989">
        <ele>373</ele>
        <time>2015-09-27T08:28:44.000Z</time>
      </trkpt>
      <trkpt lat="47.53846" lon="6.67982">
        <ele>373</ele>
        <time>2015-09-27T08:28:45.000Z</time>
      </trkpt>
      <trkpt lat="47.53841" lon="6.67975">
        <ele>373</ele>
        <time>2015-09-27T08:28:46.000Z</time>
      </trkpt>
      <trkpt lat="47.53836" lon="6.67967">
        <ele>373</ele>
        <time>2015-09-27T08:28:47.000Z</time>
      </trkpt>
      <trkpt lat="47.5383" lon="6.6796">
        <ele>371</ele>
        <time>2015-09-27T08:28:48.000Z</time>
      </trkpt>
      <trkpt lat="47.53824" lon="6.67953">
        <ele>371</ele>
        <time>2015-09-27T08:28:49.000Z</time>
      </trkpt>
      <trkpt lat="47.53818" lon="6.67945">
        <ele>371</ele>
        <time>2015-09-27T08:28:50.000Z</time>
      </trkpt>
      <trkpt lat="47.53813" lon="6.67937">
        <ele>371</ele>
        <time>2015-09-27T08:28:51.000Z</time>
      </trkpt>
      <trkpt lat="47.53806" lon="6.67929">
        <ele>370</ele>
        <time>2015-09-27T08:28:52.000Z</time>
      </trkpt>
      <trkpt lat="47.538" lon="6.67922">
        <ele>370</ele>
        <time>2015-09-27T08:28:53.000Z</time>
      </trkpt>
      <trkpt lat="47.53794" lon="6.67915">
        <ele>368</ele>
        <time>2015-09-27T08:28:54.000Z</time>
      </trkpt>
      <trkpt lat="47.53789" lon="6.67908">
        <ele>368</ele>
        <time>2015-09-27T08:28:55.000Z</time>
      </trkpt>
      <trkpt lat="47.53784" lon="6.67901">
        <ele>368</ele>
        <time>2015-09-27T08:28:56.000Z</time>
      </trkpt>
      <trkpt lat="47.53778" lon="6.67894">
        <ele>368</ele>
        <time>2015-09-27T08:28:57.000Z</time>
      </trkpt>
      <trkpt lat="47.53772" lon="6.67887">
        <ele>368</ele>
        <time>2015-09-27T08:28:58.000Z</time>
      </trkpt>
      <trkpt lat="47.53766" lon="6.67881">
        <ele>367</ele>
        <time>2015-09-27T08:28:59.000Z</time>
      </trkpt>
      <trkpt lat="47.5376" lon="6.67874">
        <ele>367</ele>
        <time>2015-09-27T08:29:00.000Z</time>
      </trkpt>
      <trkpt lat="47.53755" lon="6.67867">
        <ele>367</ele>
        <time>2015-09-27T08:29:01.000Z</time>
      </trkpt>
      <trkpt lat="47.5375" lon="6.67861">
        <ele>367</ele>
        <time>2015-09-27T08:29:02.000Z</time>
      </trkpt>
      <trkpt lat="47.53745" lon="6.67854">
        <ele>366</ele>
        <time>2015-09-27T08:29:03.000Z</time>
      </trkpt>
      <trkpt lat="47.5374" lon="6.67848">
        <ele>366</ele>
        <time>2015-09-27T08:29:04.000Z</time>
      </trkpt>
      <trkpt lat="47.53735" lon="6.67842">
        <ele>366</ele>
        <time>2015-09-27T08:29:05.000Z</time>
      </trkpt>
      <trkpt lat="47.53731" lon="6.67835">
        <ele>366</ele>
        <time>2015-09-27T08:29:06.000Z</time>
      </trkpt>
      <trkpt lat="47.53726" lon="6.67831">
        <ele>367</ele>
        <time>2015-09-27T08:29:07.000Z</time>
      </trkpt>
      <trkpt lat="47.53721" lon="6.67825">
        <ele>367</ele>
        <time>2015-09-27T08:29:08.000Z</time>
      </trkpt>
      <trkpt lat="47.53716" lon="6.67819">
        <ele>368</ele>
        <time>2015-09-27T08:29:09.000Z</time>
      </trkpt>
      <trkpt lat="47.53711" lon="6.67813">
        <ele>368</ele>
        <time>2015-09-27T08:29:10.000Z</time>
      </trkpt>
      <trkpt lat="47.53707" lon="6.67807">
        <ele>368</ele>
        <time>2015-09-27T08:29:11.000Z</time>
      </trkpt>
      <trkpt lat="47.53703" lon="6.67801">
        <ele>368</ele>
        <time>2015-09-27T08:29:12.000Z</time>
      </trkpt>
      <trkpt lat="47.53698" lon="6.67796">
        <ele>368</ele>
        <time>2015-09-27T08:29:13.000Z</time>
      </trkpt>
      <trkpt lat="47.53694" lon="6.67791">
        <ele>369</ele>
        <time>2015-09-27T08:29:14.000Z</time>
      </trkpt>
      <trkpt lat="47.5369" lon="6.67786">
        <ele>369</ele>
        <time>2015-09-27T08:29:15.000Z</time>
      </trkpt>
      <trkpt lat="47.53685" lon="6.67781">
        <ele>369</ele>
        <time>2015-09-27T08:29:16.000Z</time>
      </trkpt>
      <trkpt lat="47.53681" lon="6.67776">
        <ele>369</ele>
        <time>2015-09-27T08:29:17.000Z</time>
      </trkpt>
      <trkpt lat="47.53678" lon="6.6777">
        <ele>370</ele>
        <time>2015-09-27T08:29:18.000Z</time>
      </trkpt>
      <trkpt lat="47.53674" lon="6.67764">
        <ele>370</ele>
        <time>2015-09-27T08:29:19.000Z</time>
      </trkpt>
      <trkpt lat="47.53671" lon="6.67759">
        <ele>371</ele>
        <time>2015-09-27T08:29:20.000Z</time>
      </trkpt>
      <trkpt lat="47.5367" lon="6.67754">
        <ele>371</ele>
        <time>2015-09-27T08:29:21.000Z</time>
      </trkpt>
      <trkpt lat="47.53672" lon="6.6775">
        <ele>371</ele>
        <time>2015-09-27T08:29:22.000Z</time>
      </trkpt>
      <trkpt lat="47.53674" lon="6.67746">
        <ele>373</ele>
        <time>2015-09-27T08:29:23.000Z</time>
      </trkpt>
      <trkpt lat="47.53677" lon="6.67746">
        <ele>373</ele>
        <time>2015-09-27T08:29:24.000Z</time>
      </trkpt>
      <trkpt lat="47.53681" lon="6.67745">
        <ele>373</ele>
        <time>2015-09-27T08:29:25.000Z</time>
      </trkpt>
      <trkpt lat="47.53685" lon="6.67746">
        <ele>373</ele>
        <time>2015-09-27T08:29:26.000Z</time>
      </trkpt>
      <trkpt lat="47.53688" lon="6.67745">
        <ele>373</ele>
        <time>2015-09-27T08:29:27.000Z</time>
      </trkpt>
      <trkpt lat="47.53691" lon="6.67743">
        <ele>373</ele>
        <time>2015-09-27T08:29:28.000Z</time>
      </trkpt>
      <trkpt lat="47.53695" lon="6.67742">
        <ele>373</ele>
        <time>2015-09-27T08:29:29.000Z</time>
      </trkpt>
      <trkpt lat="47.53698" lon="6.67741">
        <ele>373</ele>
        <time>2015-09-27T08:29:30.000Z</time>
      </trkpt>
      <trkpt lat="47.53701" lon="6.6774">
        <ele>373</ele>
        <time>2015-09-27T08:29:31.000Z</time>
      </trkpt>
      <trkpt lat="47.53704" lon="6.67739">
        <ele>373</ele>
        <time>2015-09-27T08:29:32.000Z</time>
      </trkpt>
      <trkpt lat="47.53707" lon="6.67738">
        <ele>373</ele>
        <time>2015-09-27T08:29:33.000Z</time>
      </trkpt>
      <trkpt lat="47.5371" lon="6.67736">
        <ele>373</ele>
        <time>2015-09-27T08:29:35.000Z</time>
      </trkpt>
      <trkpt lat="47.53712" lon="6.67734">
        <ele>373</ele>
        <time>2015-09-27T08:29:36.000Z</time>
      </trkpt>
      <trkpt lat="47.53715" lon="6.67731">
        <ele>374</ele>
        <time>2015-09-27T08:29:38.000Z</time>
      </trkpt>
      <trkpt lat="47.53717" lon="6.6773">
        <ele>374</ele>
        <time>2015-09-27T08:29:39.000Z</time>
      </trkpt>
      <trkpt lat="47.53721" lon="6.6773">
        <ele>374</ele>
        <time>2015-09-27T08:29:41.000Z</time>
      </trkpt>
      <trkpt lat="47.53723" lon="6.6773">
        <ele>374</ele>
        <time>2015-09-27T08:29:42.000Z</time>
      </trkpt>
      <trkpt lat="47.53726" lon="6.67729">
        <ele>374</ele>
        <time>2015-09-27T08:29:43.000Z</time>
      </trkpt>
      <trkpt lat="47.53729" lon="6.67729">
        <ele>373</ele>
        <time>2015-09-27T08:29:44.000Z</time>
      </trkpt>
      <trkpt lat="47.53731" lon="6.67728">
        <ele>373</ele>
        <time>2015-09-27T08:29:45.000Z</time>
      </trkpt>
      <trkpt lat="47.53734" lon="6.67728">
        <ele>373</ele>
        <time>2015-09-27T08:29:46.000Z</time>
      </trkpt>
      <trkpt lat="47.53738" lon="6.67727">
        <ele>373</ele>
        <time>2015-09-27T08:29:47.000Z</time>
      </trkpt>
      <trkpt lat="47.53741" lon="6.67727">
        <ele>373</ele>
        <time>2015-09-27T08:29:48.000Z</time>
      </trkpt>
      <trkpt lat="47.53745" lon="6.67728">
        <ele>373</ele>
        <time>2015-09-27T08:29:49.000Z</time>
      </trkpt>
      <trkpt lat="47.53748" lon="6.67728">
        <ele>373</ele>
        <time>2015-09-27T08:29:50.000Z</time>
      </trkpt>
      <trkpt lat="47.53752" lon="6.67728">
        <ele>374</ele>
        <time>2015-09-27T08:29:51.000Z</time>
      </trkpt>
      <trkpt lat="47.53755" lon="6.67728">
        <ele>374</ele>
        <time>2015-09-27T08:29:52.000Z</time>
      </trkpt>
      <trkpt lat="47.53759" lon="6.67729">
        <ele>374</ele>
        <time>2015-09-27T08:29:53.000Z</time>
      </trkpt>
      <trkpt lat="47.53762" lon="6.67729">
        <ele>374</ele>
        <time>2015-09-27T08:29:54.000Z</time>
      </trkpt>
      <trkpt lat="47.53766" lon="6.6773">
        <ele>374</ele>
        <time>2015-09-27T08:29:55.000Z</time>
      </trkpt>
      <trkpt lat="47.5377" lon="6.6773">
        <ele>374</ele>
        <time>2015-09-27T08:29:56.000Z</time>
      </trkpt>
      <trkpt lat="47.53774" lon="6.67731">
        <ele>374</ele>
        <time>2015-09-27T08:29:57.000Z</time>
      </trkpt>
      <trkpt lat="47.53778" lon="6.67732">
        <ele>374</ele>
        <time>2015-09-27T08:29:58.000Z</time>
      </trkpt>
      <trkpt lat="47.53784" lon="6.67733">
        <ele>374</ele>
        <time>2015-09-27T08:29:59.000Z</time>
      </trkpt>
      <trkpt lat="47.53789" lon="6.67734">
        <ele>374</ele>
        <time>2015-09-27T08:30:00.000Z</time>
      </trkpt>
      <trkpt lat="47.53794" lon="6.67736">
        <ele>374</ele>
        <time>2015-09-27T08:30:01.000Z</time>
      </trkpt>
      <trkpt lat="47.53799" lon="6.67737">
        <ele>375</ele>
        <time>2015-09-27T08:30:02.000Z</time>
      </trkpt>
      <trkpt lat="47.53803" lon="6.67738">
        <ele>375</ele>
        <time>2015-09-27T08:30:03.000Z</time>
      </trkpt>
      <trkpt lat="47.53808" lon="6.67739">
        <ele>375</ele>
        <time>2015-09-27T08:30:04.000Z</time>
      </trkpt>
      <trkpt lat="47.53812" lon="6.67741">
        <ele>374</ele>
        <time>2015-09-27T08:30:05.000Z</time>
      </trkpt>
      <trkpt lat="47.53816" lon="6.6774">
        <ele>374</ele>
        <time>2015-09-27T08:30:06.000Z</time>
      </trkpt>
      <trkpt lat="47.53822" lon="6.67741">
        <ele>374</ele>
        <time>2015-09-27T08:30:07.000Z</time>
      </trkpt>
      <trkpt lat="47.53826" lon="6.67742">
        <ele>374</ele>
        <time>2015-09-27T08:30:08.000Z</time>
      </trkpt>
      <trkpt lat="47.53831" lon="6.67742">
        <ele>374</ele>
        <time>2015-09-27T08:30:09.000Z</time>
      </trkpt>
      <trkpt lat="47.53836" lon="6.67743">
        <ele>374</ele>
        <time>2015-09-27T08:30:10.000Z</time>
      </trkpt>
      <trkpt lat="47.53841" lon="6.67742">
        <ele>374</ele>
        <time>2015-09-27T08:30:11.000Z</time>
      </trkpt>
      <trkpt lat="47.53846" lon="6.6774">
        <ele>374</ele>
        <time>2015-09-27T08:30:12.000Z</time>
      </trkpt>
      <trkpt lat="47.53851" lon="6.67738">
        <ele>374</ele>
        <time>2015-09-27T08:30:13.000Z</time>
      </trkpt>
      <trkpt lat="47.53857" lon="6.67736">
        <ele>374</ele>
        <time>2015-09-27T08:30:14.000Z</time>
      </trkpt>
      <trkpt lat="47.53862" lon="6.67733">
        <ele>374</ele>
        <time>2015-09-27T08:30:15.000Z</time>
      </trkpt>
      <trkpt lat="47.53868" lon="6.67727">
        <ele>374</ele>
        <time>2015-09-27T08:30:16.000Z</time>
      </trkpt>
      <trkpt lat="47.53874" lon="6.67724">
        <ele>374</ele>
        <time>2015-09-27T08:30:17.000Z</time>
      </trkpt>
      <trkpt lat="47.5388" lon="6.67721">
        <ele>374</ele>
        <time>2015-09-27T08:30:18.000Z</time>
      </trkpt>
      <trkpt lat="47.53884" lon="6.67718">
        <ele>374</ele>
        <time>2015-09-27T08:30:19.000Z</time>
      </trkpt>
      <trkpt lat="47.53889" lon="6.67714">
        <ele>374</ele>
        <time>2015-09-27T08:30:20.000Z</time>
      </trkpt>
      <trkpt lat="47.53896" lon="6.67711">
        <ele>374</ele>
        <time>2015-09-27T08:30:21.000Z</time>
      </trkpt>
      <trkpt lat="47.53902" lon="6.67708">
        <ele>374</ele>
        <time>2015-09-27T08:30:22.000Z</time>
      </trkpt>
      <trkpt lat="47.53908" lon="6.67704">
        <ele>374</ele>
        <time>2015-09-27T08:30:23.000Z</time>
      </trkpt>
      <trkpt lat="47.53913" lon="6.677">
        <ele>373</ele>
        <time>2015-09-27T08:30:24.000Z</time>
      </trkpt>
      <trkpt lat="47.5392" lon="6.67698">
        <ele>374</ele>
        <time>2015-09-27T08:30:25.000Z</time>
      </trkpt>
      <trkpt lat="47.53925" lon="6.67695">
        <ele>374</ele>
        <time>2015-09-27T08:30:26.000Z</time>
      </trkpt>
      <trkpt lat="47.5393" lon="6.6769">
        <ele>374</ele>
        <time>2015-09-27T08:30:27.000Z</time>
      </trkpt>
      <trkpt lat="47.53935" lon="6.67688">
        <ele>374</ele>
        <time>2015-09-27T08:30:28.000Z</time>
      </trkpt>
      <trkpt lat="47.53941" lon="6.67688">
        <ele>374</ele>
        <time>2015-09-27T08:30:29.000Z</time>
      </trkpt>
      <trkpt lat="47.53947" lon="6.67686">
        <ele>374</ele>
        <time>2015-09-27T08:30:30.000Z</time>
      </trkpt>
      <trkpt lat="47.53951" lon="6.67684">
        <ele>375</ele>
        <time>2015-09-27T08:30:31.000Z</time>
      </trkpt>
      <trkpt lat="47.53956" lon="6.67681">
        <ele>375</ele>
        <time>2015-09-27T08:30:32.000Z</time>
      </trkpt>
      <trkpt lat="47.5396" lon="6.67681">
        <ele>375</ele>
        <time>2015-09-27T08:30:33.000Z</time>
      </trkpt>
      <trkpt lat="47.53964" lon="6.67679">
        <ele>375</ele>
        <time>2015-09-27T08:30:34.000Z</time>
      </trkpt>
      <trkpt lat="47.53969" lon="6.67677">
        <ele>375</ele>
        <time>2015-09-27T08:30:35.000Z</time>
      </trkpt>
      <trkpt lat="47.53973" lon="6.67675">
        <ele>375</ele>
        <time>2015-09-27T08:30:36.000Z</time>
      </trkpt>
      <trkpt lat="47.53977" lon="6.67674">
        <ele>375</ele>
        <time>2015-09-27T08:30:37.000Z</time>
      </trkpt>
      <trkpt lat="47.53982" lon="6.67672">
        <ele>375</ele>
        <time>2015-09-27T08:30:38.000Z</time>
      </trkpt>
      <trkpt lat="47.53987" lon="6.6767">
        <ele>375</ele>
        <time>2015-09-27T08:30:39.000Z</time>
      </trkpt>
      <trkpt lat="47.53991" lon="6.67668">
        <ele>375</ele>
        <time>2015-09-27T08:30:40.000Z</time>
      </trkpt>
      <trkpt lat="47.53995" lon="6.67665">
        <ele>375</ele>
        <time>2015-09-27T08:30:41.000Z</time>
      </trkpt>
      <trkpt lat="47.53999" lon="6.67662">
        <ele>375</ele>
        <time>2015-09-27T08:30:42.000Z</time>
      </trkpt>
      <trkpt lat="47.54003" lon="6.67657">
        <ele>377</ele>
        <time>2015-09-27T08:30:43.000Z</time>
      </trkpt>
      <trkpt lat="47.54007" lon="6.67653">
        <ele>378</ele>
        <time>2015-09-27T08:30:44.000Z</time>
      </trkpt>
      <trkpt lat="47.54011" lon="6.67649">
        <ele>378</ele>
        <time>2015-09-27T08:30:45.000Z</time>
      </trkpt>
      <trkpt lat="47.54015" lon="6.67645">
        <ele>379</ele>
        <time>2015-09-27T08:30:46.000Z</time>
      </trkpt>
      <trkpt lat="47.54018" lon="6.67641">
        <ele>379</ele>
        <time>2015-09-27T08:30:47.000Z</time>
      </trkpt>
      <trkpt lat="47.54022" lon="6.67638">
        <ele>379</ele>
        <time>2015-09-27T08:30:48.000Z</time>
      </trkpt>
      <trkpt lat="47.54026" lon="6.67632">
        <ele>380</ele>
        <time>2015-09-27T08:30:49.000Z</time>
      </trkpt>
      <trkpt lat="47.54029" lon="6.67628">
        <ele>380</ele>
        <time>2015-09-27T08:30:50.000Z</time>
      </trkpt>
      <trkpt lat="47.54032" lon="6.67623">
        <ele>380</ele>
        <time>2015-09-27T08:30:51.000Z</time>
      </trkpt>
      <trkpt lat="47.54036" lon="6.67618">
        <ele>380</ele>
        <time>2015-09-27T08:30:52.000Z</time>
      </trkpt>
      <trkpt lat="47.5404" lon="6.67614">
        <ele>380</ele>
        <time>2015-09-27T08:30:53.000Z</time>
      </trkpt>
      <trkpt lat="47.54044" lon="6.6761">
        <ele>381</ele>
        <time>2015-09-27T08:30:54.000Z</time>
      </trkpt>
      <trkpt lat="47.54048" lon="6.67606">
        <ele>381</ele>
        <time>2015-09-27T08:30:55.000Z</time>
      </trkpt>
      <trkpt lat="47.54053" lon="6.67604">
        <ele>381</ele>
        <time>2015-09-27T08:30:56.000Z</time>
      </trkpt>
      <trkpt lat="47.54057" lon="6.67601">
        <ele>382</ele>
        <time>2015-09-27T08:30:57.000Z</time>
      </trkpt>
      <trkpt lat="47.54062" lon="6.67599">
        <ele>382</ele>
        <time>2015-09-27T08:30:58.000Z</time>
      </trkpt>
      <trkpt lat="47.54067" lon="6.67597">
        <ele>383</ele>
        <time>2015-09-27T08:30:59.000Z</time>
      </trkpt>
      <trkpt lat="47.54072" lon="6.67599">
        <ele>383</ele>
        <time>2015-09-27T08:31:00.000Z</time>
      </trkpt>
      <trkpt lat="47.54077" lon="6.67597">
        <ele>383</ele>
        <time>2015-09-27T08:31:01.000Z</time>
      </trkpt>
      <trkpt lat="47.54082" lon="6.67597">
        <ele>383</ele>
        <time>2015-09-27T08:31:02.000Z</time>
      </trkpt>
      <trkpt lat="47.54087" lon="6.67596">
        <ele>386</ele>
        <time>2015-09-27T08:31:03.000Z</time>
      </trkpt>
      <trkpt lat="47.54092" lon="6.67597">
        <ele>386</ele>
        <time>2015-09-27T08:31:04.000Z</time>
      </trkpt>
      <trkpt lat="47.54097" lon="6.67597">
        <ele>387</ele>
        <time>2015-09-27T08:31:05.000Z</time>
      </trkpt>
      <trkpt lat="47.54101" lon="6.67581">
        <ele>384</ele>
        <time>2015-09-27T08:31:06.000Z</time>
      </trkpt>
      <trkpt lat="47.54105" lon="6.67578">
        <ele>383</ele>
        <time>2015-09-27T08:31:07.000Z</time>
      </trkpt>
      <trkpt lat="47.5411" lon="6.67583">
        <ele>387</ele>
        <time>2015-09-27T08:31:08.000Z</time>
      </trkpt>
      <trkpt lat="47.54114" lon="6.67584">
        <ele>387</ele>
        <time>2015-09-27T08:31:09.000Z</time>
      </trkpt>
      <trkpt lat="47.54119" lon="6.67583">
        <ele>383</ele>
        <time>2015-09-27T08:31:10.000Z</time>
      </trkpt>
      <trkpt lat="47.54123" lon="6.67584">
        <ele>387</ele>
        <time>2015-09-27T08:31:11.000Z</time>
      </trkpt>
      <trkpt lat="47.54128" lon="6.67584">
        <ele>387</ele>
        <time>2015-09-27T08:31:12.000Z</time>
      </trkpt>
      <trkpt lat="47.54133" lon="6.67584">
        <ele>387</ele>
        <time>2015-09-27T08:31:13.000Z</time>
      </trkpt>
      <trkpt lat="47.54137" lon="6.67584">
        <ele>387</ele>
        <time>2015-09-27T08:31:14.000Z</time>
      </trkpt>
      <trkpt lat="47.54142" lon="6.67583">
        <ele>383</ele>
        <time>2015-09-27T08:31:15.000Z</time>
      </trkpt>
      <trkpt lat="47.54146" lon="6.6758">
        <ele>383</ele>
        <time>2015-09-27T08:31:16.000Z</time>
      </trkpt>
      <trkpt lat="47.54151" lon="6.67579">
        <ele>383</ele>
        <time>2015-09-27T08:31:17.000Z</time>
      </trkpt>
      <trkpt lat="47.54155" lon="6.67576">
        <ele>383</ele>
        <time>2015-09-27T08:31:18.000Z</time>
      </trkpt>
      <trkpt lat="47.5416" lon="6.67575">
        <ele>383</ele>
        <time>2015-09-27T08:31:19.000Z</time>
      </trkpt>
      <trkpt lat="47.54164" lon="6.67574">
        <ele>383</ele>
        <time>2015-09-27T08:31:20.000Z</time>
      </trkpt>
      <trkpt lat="47.54169" lon="6.67573">
        <ele>383</ele>
        <time>2015-09-27T08:31:21.000Z</time>
      </trkpt>
      <trkpt lat="47.54174" lon="6.67572">
        <ele>383</ele>
        <time>2015-09-27T08:31:22.000Z</time>
      </trkpt>
      <trkpt lat="47.54178" lon="6.67569">
        <ele>383</ele>
        <time>2015-09-27T08:31:23.000Z</time>
      </trkpt>
      <trkpt lat="47.54183" lon="6.67567">
        <ele>383</ele>
        <time>2015-09-27T08:31:24.000Z</time>
      </trkpt>
      <trkpt lat="47.54186" lon="6.67565">
        <ele>382</ele>
        <time>2015-09-27T08:31:25.000Z</time>
      </trkpt>
      <trkpt lat="47.54191" lon="6.67563">
        <ele>382</ele>
        <time>2015-09-27T08:31:26.000Z</time>
      </trkpt>
      <trkpt lat="47.54195" lon="6.6756">
        <ele>382</ele>
        <time>2015-09-27T08:31:27.000Z</time>
      </trkpt>
      <trkpt lat="47.54199" lon="6.6756">
        <ele>382</ele>
        <time>2015-09-27T08:31:28.000Z</time>
      </trkpt>
      <trkpt lat="47.54205" lon="6.67559">
        <ele>382</ele>
        <time>2015-09-27T08:31:29.000Z</time>
      </trkpt>
      <trkpt lat="47.54208" lon="6.67557">
        <ele>382</ele>
        <time>2015-09-27T08:31:30.000Z</time>
      </trkpt>
      <trkpt lat="47.54212" lon="6.67556">
        <ele>382</ele>
        <time>2015-09-27T08:31:31.000Z</time>
      </trkpt>
      <trkpt lat="47.54216" lon="6.67555">
        <ele>382</ele>
        <time>2015-09-27T08:31:32.000Z</time>
      </trkpt>
      <trkpt lat="47.54219" lon="6.67552">
        <ele>382</ele>
        <time>2015-09-27T08:31:33.000Z</time>
      </trkpt>
      <trkpt lat="47.54223" lon="6.67554">
        <ele>382</ele>
        <time>2015-09-27T08:31:34.000Z</time>
      </trkpt>
      <trkpt lat="47.54228" lon="6.67553">
        <ele>382</ele>
        <time>2015-09-27T08:31:35.000Z</time>
      </trkpt>
      <trkpt lat="47.54232" lon="6.67553">
        <ele>382</ele>
        <time>2015-09-27T08:31:36.000Z</time>
      </trkpt>
      <trkpt lat="47.54237" lon="6.67553">
        <ele>382</ele>
        <time>2015-09-27T08:31:37.000Z</time>
      </trkpt>
      <trkpt lat="47.54241" lon="6.67557">
        <ele>382</ele>
        <time>2015-09-27T08:31:38.000Z</time>
      </trkpt>
      <trkpt lat="47.54246" lon="6.67554">
        <ele>382</ele>
        <time>2015-09-27T08:31:39.000Z</time>
      </trkpt>
      <trkpt lat="47.54251" lon="6.67553">
        <ele>383</ele>
        <time>2015-09-27T08:31:40.000Z</time>
      </trkpt>
      <trkpt lat="47.54256" lon="6.67553">
        <ele>383</ele>
        <time>2015-09-27T08:31:41.000Z</time>
      </trkpt>
      <trkpt lat="47.54261" lon="6.67552">
        <ele>384</ele>
        <time>2015-09-27T08:31:42.000Z</time>
      </trkpt>
      <trkpt lat="47.54264" lon="6.67549">
        <ele>383</ele>
        <time>2015-09-27T08:31:43.000Z</time>
      </trkpt>
      <trkpt lat="47.54268" lon="6.67551">
        <ele>384</ele>
        <time>2015-09-27T08:31:44.000Z</time>
      </trkpt>
      <trkpt lat="47.54272" lon="6.67552">
        <ele>384</ele>
        <time>2015-09-27T08:31:45.000Z</time>
      </trkpt>
      <trkpt lat="47.54276" lon="6.67556">
        <ele>384</ele>
        <time>2015-09-27T08:31:46.000Z</time>
      </trkpt>
      <trkpt lat="47.5428" lon="6.67559">
        <ele>384</ele>
        <time>2015-09-27T08:31:47.000Z</time>
      </trkpt>
      <trkpt lat="47.54285" lon="6.6756">
        <ele>384</ele>
        <time>2015-09-27T08:31:48.000Z</time>
      </trkpt>
      <trkpt lat="47.54288" lon="6.67565">
        <ele>384</ele>
        <time>2015-09-27T08:31:49.000Z</time>
      </trkpt>
      <trkpt lat="47.54292" lon="6.67565">
        <ele>384</ele>
        <time>2015-09-27T08:31:50.000Z</time>
      </trkpt>
      <trkpt lat="47.54296" lon="6.67566">
        <ele>385</ele>
        <time>2015-09-27T08:31:51.000Z</time>
      </trkpt>
      <trkpt lat="47.54301" lon="6.67564">
        <ele>385</ele>
        <time>2015-09-27T08:31:52.000Z</time>
      </trkpt>
      <trkpt lat="47.54305" lon="6.67562">
        <ele>385</ele>
        <time>2015-09-27T08:31:53.000Z</time>
      </trkpt>
      <trkpt lat="47.54308" lon="6.6756">
        <ele>385</ele>
        <time>2015-09-27T08:31:54.000Z</time>
      </trkpt>
      <trkpt lat="47.54312" lon="6.67558">
        <ele>385</ele>
        <time>2015-09-27T08:31:55.000Z</time>
      </trkpt>
      <trkpt lat="47.54315" lon="6.67556">
        <ele>385</ele>
        <time>2015-09-27T08:31:56.000Z</time>
      </trkpt>
      <trkpt lat="47.54318" lon="6.67555">
        <ele>385</ele>
        <time>2015-09-27T08:31:57.000Z</time>
      </trkpt>
      <trkpt lat="47.5432" lon="6.67553">
        <ele>385</ele>
        <time>2015-09-27T08:31:58.000Z</time>
      </trkpt>
      <trkpt lat="47.54323" lon="6.67552">
        <ele>385</ele>
        <time>2015-09-27T08:31:59.000Z</time>
      </trkpt>
      <trkpt lat="47.54326" lon="6.67551">
        <ele>385</ele>
        <time>2015-09-27T08:32:00.000Z</time>
      </trkpt>
      <trkpt lat="47.54329" lon="6.67549">
        <ele>385</ele>
        <time>2015-09-27T08:32:01.000Z</time>
      </trkpt>
      <trkpt lat="47.54332" lon="6.67547">
        <ele>385</ele>
        <time>2015-09-27T08:32:02.000Z</time>
      </trkpt>
      <trkpt lat="47.54336" lon="6.67545">
        <ele>388</ele>
        <time>2015-09-27T08:32:03.000Z</time>
      </trkpt>
      <trkpt lat="47.5434" lon="6.67543">
        <ele>388</ele>
        <time>2015-09-27T08:32:04.000Z</time>
      </trkpt>
      <trkpt lat="47.54343" lon="6.67542">
        <ele>388</ele>
        <time>2015-09-27T08:32:05.000Z</time>
      </trkpt>
      <trkpt lat="47.54346" lon="6.6754">
        <ele>388</ele>
        <time>2015-09-27T08:32:06.000Z</time>
      </trkpt>
      <trkpt lat="47.5435" lon="6.67538">
        <ele>388</ele>
        <time>2015-09-27T08:32:07.000Z</time>
      </trkpt>
      <trkpt lat="47.54353" lon="6.67537">
        <ele>388</ele>
        <time>2015-09-27T08:32:08.000Z</time>
      </trkpt>
      <trkpt lat="47.54357" lon="6.67536">
        <ele>388</ele>
        <time>2015-09-27T08:32:09.000Z</time>
      </trkpt>
      <trkpt lat="47.54361" lon="6.67534">
        <ele>388</ele>
        <time>2015-09-27T08:32:10.000Z</time>
      </trkpt>
      <trkpt lat="47.54366" lon="6.67533">
        <ele>389</ele>
        <time>2015-09-27T08:32:11.000Z</time>
      </trkpt>
      <trkpt lat="47.5437" lon="6.67532">
        <ele>389</ele>
        <time>2015-09-27T08:32:12.000Z</time>
      </trkpt>
      <trkpt lat="47.54375" lon="6.6753">
        <ele>389</ele>
        <time>2015-09-27T08:32:13.000Z</time>
      </trkpt>
      <trkpt lat="47.54379" lon="6.67529">
        <ele>389</ele>
        <time>2015-09-27T08:32:14.000Z</time>
      </trkpt>
      <trkpt lat="47.54384" lon="6.67527">
        <ele>389</ele>
        <time>2015-09-27T08:32:15.000Z</time>
      </trkpt>
      <trkpt lat="47.54388" lon="6.67525">
        <ele>389</ele>
        <time>2015-09-27T08:32:16.000Z</time>
      </trkpt>
      <trkpt lat="47.54392" lon="6.67523">
        <ele>389</ele>
        <time>2015-09-27T08:32:17.000Z</time>
      </trkpt>
      <trkpt lat="47.54396" lon="6.67521">
        <ele>389</ele>
        <time>2015-09-27T08:32:18.000Z</time>
      </trkpt>
      <trkpt lat="47.544" lon="6.67519">
        <ele>389</ele>
        <time>2015-09-27T08:32:19.000Z</time>
      </trkpt>
      <trkpt lat="47.54404" lon="6.67517">
        <ele>389</ele>
        <time>2015-09-27T08:32:20.000Z</time>
      </trkpt>
      <trkpt lat="47.54407" lon="6.67515">
        <ele>389</ele>
        <time>2015-09-27T08:32:21.000Z</time>
      </trkpt>
      <trkpt lat="47.54411" lon="6.67515">
        <ele>388</ele>
        <time>2015-09-27T08:32:22.000Z</time>
      </trkpt>
      <trkpt lat="47.54414" lon="6.67514">
        <ele>388</ele>
        <time>2015-09-27T08:32:23.000Z</time>
      </trkpt>
      <trkpt lat="47.54418" lon="6.67513">
        <ele>390</ele>
        <time>2015-09-27T08:32:24.000Z</time>
      </trkpt>
      <trkpt lat="47.54422" lon="6.67511">
        <ele>390</ele>
        <time>2015-09-27T08:32:25.000Z</time>
      </trkpt>
      <trkpt lat="47.54427" lon="6.6751">
        <ele>391</ele>
        <time>2015-09-27T08:32:26.000Z</time>
      </trkpt>
      <trkpt lat="47.54431" lon="6.67508">
        <ele>391</ele>
        <time>2015-09-27T08:32:27.000Z</time>
      </trkpt>
      <trkpt lat="47.54436" lon="6.67506">
        <ele>392</ele>
        <time>2015-09-27T08:32:28.000Z</time>
      </trkpt>
      <trkpt lat="47.54443" lon="6.67504">
        <ele>392</ele>
        <time>2015-09-27T08:32:29.000Z</time>
      </trkpt>
      <trkpt lat="47.54449" lon="6.67504">
        <ele>393</ele>
        <time>2015-09-27T08:32:30.000Z</time>
      </trkpt>
      <trkpt lat="47.54453" lon="6.67502">
        <ele>393</ele>
        <time>2015-09-27T08:32:31.000Z</time>
      </trkpt>
      <trkpt lat="47.54458" lon="6.67501">
        <ele>393</ele>
        <time>2015-09-27T08:32:32.000Z</time>
      </trkpt>
      <trkpt lat="47.54462" lon="6.675">
        <ele>387</ele>
        <time>2015-09-27T08:32:33.000Z</time>
      </trkpt>
      <trkpt lat="47.54466" lon="6.67499">
        <ele>387</ele>
        <time>2015-09-27T08:32:34.000Z</time>
      </trkpt>
      <trkpt lat="47.54471" lon="6.67499">
        <ele>387</ele>
        <time>2015-09-27T08:32:35.000Z</time>
      </trkpt>
      <trkpt lat="47.54477" lon="6.67505">
        <ele>393</ele>
        <time>2015-09-27T08:32:36.000Z</time>
      </trkpt>
      <trkpt lat="47.54481" lon="6.67503">
        <ele>393</ele>
        <time>2015-09-27T08:32:37.000Z</time>
      </trkpt>
      <trkpt lat="47.54486" lon="6.67501">
        <ele>392</ele>
        <time>2015-09-27T08:32:38.000Z</time>
      </trkpt>
      <trkpt lat="47.54491" lon="6.675">
        <ele>392</ele>
        <time>2015-09-27T08:32:39.000Z</time>
      </trkpt>
      <trkpt lat="47.54494" lon="6.67501">
        <ele>391</ele>
        <time>2015-09-27T08:32:40.000Z</time>
      </trkpt>
      <trkpt lat="47.54499" lon="6.67501">
        <ele>390</ele>
        <time>2015-09-27T08:32:41.000Z</time>
      </trkpt>
      <trkpt lat="47.54503" lon="6.67501">
        <ele>391</ele>
        <time>2015-09-27T08:32:42.000Z</time>
      </trkpt>
      <trkpt lat="47.54507" lon="6.67502">
        <ele>392</ele>
        <time>2015-09-27T08:32:43.000Z</time>
      </trkpt>
      <trkpt lat="47.54509" lon="6.67495">
        <ele>389</ele>
        <time>2015-09-27T08:32:44.000Z</time>
      </trkpt>
      <trkpt lat="47.54514" lon="6.67495">
        <ele>389</ele>
        <time>2015-09-27T08:32:45.000Z</time>
      </trkpt>
      <trkpt lat="47.54517" lon="6.67494">
        <ele>389</ele>
        <time>2015-09-27T08:32:46.000Z</time>
      </trkpt>
      <trkpt lat="47.54521" lon="6.67493">
        <ele>388</ele>
        <time>2015-09-27T08:32:47.000Z</time>
      </trkpt>
      <trkpt lat="47.54525" lon="6.67492">
        <ele>388</ele>
        <time>2015-09-27T08:32:48.000Z</time>
      </trkpt>
      <trkpt lat="47.54529" lon="6.67491">
        <ele>388</ele>
        <time>2015-09-27T08:32:49.000Z</time>
      </trkpt>
      <trkpt lat="47.54533" lon="6.6749">
        <ele>388</ele>
        <time>2015-09-27T08:32:50.000Z</time>
      </trkpt>
      <trkpt lat="47.54537" lon="6.67489">
        <ele>388</ele>
        <time>2015-09-27T08:32:51.000Z</time>
      </trkpt>
      <trkpt lat="47.5454" lon="6.67489">
        <ele>388</ele>
        <time>2015-09-27T08:32:52.000Z</time>
      </trkpt>
      <trkpt lat="47.54544" lon="6.67489">
        <ele>388</ele>
        <time>2015-09-27T08:32:53.000Z</time>
      </trkpt>
      <trkpt lat="47.54548" lon="6.67489">
        <ele>388</ele>
        <time>2015-09-27T08:32:54.000Z</time>
      </trkpt>
      <trkpt lat="47.54551" lon="6.67488">
        <ele>388</ele>
        <time>2015-09-27T08:32:55.000Z</time>
      </trkpt>
      <trkpt lat="47.54555" lon="6.67487">
        <ele>389</ele>
        <time>2015-09-27T08:32:56.000Z</time>
      </trkpt>
      <trkpt lat="47.54558" lon="6.67487">
        <ele>389</ele>
        <time>2015-09-27T08:32:57.000Z</time>
      </trkpt>
      <trkpt lat="47.54561" lon="6.67488">
        <ele>389</ele>
        <time>2015-09-27T08:32:58.000Z</time>
      </trkpt>
      <trkpt lat="47.54564" lon="6.67488">
        <ele>389</ele>
        <time>2015-09-27T08:32:59.000Z</time>
      </trkpt>
      <trkpt lat="47.54567" lon="6.67487">
        <ele>389</ele>
        <time>2015-09-27T08:33:00.000Z</time>
      </trkpt>
      <trkpt lat="47.5457" lon="6.67486">
        <ele>389</ele>
        <time>2015-09-27T08:33:01.000Z</time>
      </trkpt>
      <trkpt lat="47.54573" lon="6.67485">
        <ele>389</ele>
        <time>2015-09-27T08:33:02.000Z</time>
      </trkpt>
      <trkpt lat="47.54577" lon="6.67484">
        <ele>389</ele>
        <time>2015-09-27T08:33:03.000Z</time>
      </trkpt>
      <trkpt lat="47.5458" lon="6.67483">
        <ele>389</ele>
        <time>2015-09-27T08:33:04.000Z</time>
      </trkpt>
      <trkpt lat="47.54583" lon="6.67482">
        <ele>389</ele>
        <time>2015-09-27T08:33:05.000Z</time>
      </trkpt>
      <trkpt lat="47.54587" lon="6.67481">
        <ele>390</ele>
        <time>2015-09-27T08:33:06.000Z</time>
      </trkpt>
      <trkpt lat="47.5459" lon="6.67483">
        <ele>390</ele>
        <time>2015-09-27T08:33:07.000Z</time>
      </trkpt>
      <trkpt lat="47.54594" lon="6.67486">
        <ele>390</ele>
        <time>2015-09-27T08:33:08.000Z</time>
      </trkpt>
      <trkpt lat="47.54598" lon="6.67488">
        <ele>390</ele>
        <time>2015-09-27T08:33:09.000Z</time>
      </trkpt>
      <trkpt lat="47.54602" lon="6.67491">
        <ele>390</ele>
        <time>2015-09-27T08:33:10.000Z</time>
      </trkpt>
      <trkpt lat="47.54606" lon="6.67492">
        <ele>390</ele>
        <time>2015-09-27T08:33:11.000Z</time>
      </trkpt>
      <trkpt lat="47.54609" lon="6.67493">
        <ele>390</ele>
        <time>2015-09-27T08:33:12.000Z</time>
      </trkpt>
      <trkpt lat="47.54613" lon="6.67495">
        <ele>390</ele>
        <time>2015-09-27T08:33:13.000Z</time>
      </trkpt>
      <trkpt lat="47.54616" lon="6.67496">
        <ele>390</ele>
        <time>2015-09-27T08:33:14.000Z</time>
      </trkpt>
      <trkpt lat="47.5462" lon="6.67497">
        <ele>389</ele>
        <time>2015-09-27T08:33:15.000Z</time>
      </trkpt>
      <trkpt lat="47.54623" lon="6.67498">
        <ele>390</ele>
        <time>2015-09-27T08:33:16.000Z</time>
      </trkpt>
      <trkpt lat="47.54626" lon="6.67499">
        <ele>390</ele>
        <time>2015-09-27T08:33:17.000Z</time>
      </trkpt>
      <trkpt lat="47.5463" lon="6.67499">
        <ele>390</ele>
        <time>2015-09-27T08:33:18.000Z</time>
      </trkpt>
      <trkpt lat="47.54632" lon="6.67499">
        <ele>390</ele>
        <time>2015-09-27T08:33:19.000Z</time>
      </trkpt>
      <trkpt lat="47.54635" lon="6.675">
        <ele>390</ele>
        <time>2015-09-27T08:33:20.000Z</time>
      </trkpt>
      <trkpt lat="47.54637" lon="6.67501">
        <ele>398</ele>
        <time>2015-09-27T08:33:21.000Z</time>
      </trkpt>
      <trkpt lat="47.5464" lon="6.67502">
        <ele>397</ele>
        <time>2015-09-27T08:33:22.000Z</time>
      </trkpt>
      <trkpt lat="47.54643" lon="6.67502">
        <ele>397</ele>
        <time>2015-09-27T08:33:23.000Z</time>
      </trkpt>
      <trkpt lat="47.54646" lon="6.67502">
        <ele>397</ele>
        <time>2015-09-27T08:33:24.000Z</time>
      </trkpt>
      <trkpt lat="47.54648" lon="6.67502">
        <ele>397</ele>
        <time>2015-09-27T08:33:25.000Z</time>
      </trkpt>
      <trkpt lat="47.54651" lon="6.67502">
        <ele>396</ele>
        <time>2015-09-27T08:33:26.000Z</time>
      </trkpt>
      <trkpt lat="47.54654" lon="6.67503">
        <ele>396</ele>
        <time>2015-09-27T08:33:27.000Z</time>
      </trkpt>
      <trkpt lat="47.54656" lon="6.67504">
        <ele>396</ele>
        <time>2015-09-27T08:33:28.000Z</time>
      </trkpt>
      <trkpt lat="47.54659" lon="6.67505">
        <ele>395</ele>
        <time>2015-09-27T08:33:29.000Z</time>
      </trkpt>
      <trkpt lat="47.54661" lon="6.67506">
        <ele>395</ele>
        <time>2015-09-27T08:33:30.000Z</time>
      </trkpt>
      <trkpt lat="47.54664" lon="6.67506">
        <ele>395</ele>
        <time>2015-09-27T08:33:31.000Z</time>
      </trkpt>
      <trkpt lat="47.54667" lon="6.67506">
        <ele>396</ele>
        <time>2015-09-27T08:33:32.000Z</time>
      </trkpt>
      <trkpt lat="47.5467" lon="6.67506">
        <ele>396</ele>
        <time>2015-09-27T08:33:33.000Z</time>
      </trkpt>
      <trkpt lat="47.54673" lon="6.67506">
        <ele>396</ele>
        <time>2015-09-27T08:33:34.000Z</time>
      </trkpt>
      <trkpt lat="47.54676" lon="6.67505">
        <ele>397</ele>
        <time>2015-09-27T08:33:35.000Z</time>
      </trkpt>
      <trkpt lat="47.54679" lon="6.67505">
        <ele>398</ele>
        <time>2015-09-27T08:33:36.000Z</time>
      </trkpt>
      <trkpt lat="47.54682" lon="6.67505">
        <ele>398</ele>
        <time>2015-09-27T08:33:37.000Z</time>
      </trkpt>
      <trkpt lat="47.54685" lon="6.67505">
        <ele>399</ele>
        <time>2015-09-27T08:33:38.000Z</time>
      </trkpt>
      <trkpt lat="47.54688" lon="6.67505">
        <ele>400</ele>
        <time>2015-09-27T08:33:39.000Z</time>
      </trkpt>
      <trkpt lat="47.54691" lon="6.67504">
        <ele>400</ele>
        <time>2015-09-27T08:33:40.000Z</time>
      </trkpt>
      <trkpt lat="47.54694" lon="6.67503">
        <ele>401</ele>
        <time>2015-09-27T08:33:41.000Z</time>
      </trkpt>
      <trkpt lat="47.54698" lon="6.67503">
        <ele>401</ele>
        <time>2015-09-27T08:33:42.000Z</time>
      </trkpt>
      <trkpt lat="47.54701" lon="6.67504">
        <ele>401</ele>
        <time>2015-09-27T08:33:43.000Z</time>
      </trkpt>
      <trkpt lat="47.54704" lon="6.67505">
        <ele>402</ele>
        <time>2015-09-27T08:33:44.000Z</time>
      </trkpt>
      <trkpt lat="47.54708" lon="6.67506">
        <ele>402</ele>
        <time>2015-09-27T08:33:45.000Z</time>
      </trkpt>
      <trkpt lat="47.54711" lon="6.67507">
        <ele>402</ele>
        <time>2015-09-27T08:33:46.000Z</time>
      </trkpt>
      <trkpt lat="47.54715" lon="6.67507">
        <ele>402</ele>
        <time>2015-09-27T08:33:47.000Z</time>
      </trkpt>
      <trkpt lat="47.54718" lon="6.67507">
        <ele>402</ele>
        <time>2015-09-27T08:33:48.000Z</time>
      </trkpt>
      <trkpt lat="47.54722" lon="6.67507">
        <ele>403</ele>
        <time>2015-09-27T08:33:49.000Z</time>
      </trkpt>
      <trkpt lat="47.54725" lon="6.67508">
        <ele>403</ele>
        <time>2015-09-27T08:33:50.000Z</time>
      </trkpt>
      <trkpt lat="47.54728" lon="6.67509">
        <ele>403</ele>
        <time>2015-09-27T08:33:51.000Z</time>
      </trkpt>
      <trkpt lat="47.54731" lon="6.6751">
        <ele>403</ele>
        <time>2015-09-27T08:33:52.000Z</time>
      </trkpt>
      <trkpt lat="47.54734" lon="6.6751">
        <ele>402</ele>
        <time>2015-09-27T08:33:53.000Z</time>
      </trkpt>
      <trkpt lat="47.54738" lon="6.67511">
        <ele>402</ele>
        <time>2015-09-27T08:33:54.000Z</time>
      </trkpt>
      <trkpt lat="47.54741" lon="6.67512">
        <ele>402</ele>
        <time>2015-09-27T08:33:55.000Z</time>
      </trkpt>
      <trkpt lat="47.54744" lon="6.67512">
        <ele>402</ele>
        <time>2015-09-27T08:33:56.000Z</time>
      </trkpt>
      <trkpt lat="47.54747" lon="6.67513">
        <ele>402</ele>
        <time>2015-09-27T08:33:57.000Z</time>
      </trkpt>
      <trkpt lat="47.5475" lon="6.67515">
        <ele>402</ele>
        <time>2015-09-27T08:33:58.000Z</time>
      </trkpt>
      <trkpt lat="47.54753" lon="6.67516">
        <ele>406</ele>
        <time>2015-09-27T08:33:59.000Z</time>
      </trkpt>
      <trkpt lat="47.54755" lon="6.67516">
        <ele>406</ele>
        <time>2015-09-27T08:34:00.000Z</time>
      </trkpt>
      <trkpt lat="47.54759" lon="6.67514">
        <ele>406</ele>
        <time>2015-09-27T08:34:02.000Z</time>
      </trkpt>
      <trkpt lat="47.54761" lon="6.67513">
        <ele>406</ele>
        <time>2015-09-27T08:34:03.000Z</time>
      </trkpt>
      <trkpt lat="47.54763" lon="6.67513">
        <ele>407</ele>
        <time>2015-09-27T08:34:04.000Z</time>
      </trkpt>
      <trkpt lat="47.54766" lon="6.67513">
        <ele>407</ele>
        <time>2015-09-27T08:34:05.000Z</time>
      </trkpt>
      <trkpt lat="47.54769" lon="6.67513">
        <ele>408</ele>
        <time>2015-09-27T08:34:06.000Z</time>
      </trkpt>
      <trkpt lat="47.54772" lon="6.67513">
        <ele>408</ele>
        <time>2015-09-27T08:34:07.000Z</time>
      </trkpt>
      <trkpt lat="47.54776" lon="6.67513">
        <ele>409</ele>
        <time>2015-09-27T08:34:08.000Z</time>
      </trkpt>
      <trkpt lat="47.54779" lon="6.67513">
        <ele>409</ele>
        <time>2015-09-27T08:34:09.000Z</time>
      </trkpt>
      <trkpt lat="47.54783" lon="6.67514">
        <ele>410</ele>
        <time>2015-09-27T08:34:10.000Z</time>
      </trkpt>
      <trkpt lat="47.54786" lon="6.67515">
        <ele>410</ele>
        <time>2015-09-27T08:34:11.000Z</time>
      </trkpt>
      <trkpt lat="47.5479" lon="6.67516">
        <ele>410</ele>
        <time>2015-09-27T08:34:12.000Z</time>
      </trkpt>
      <trkpt lat="47.54793" lon="6.67518">
        <ele>411</ele>
        <time>2015-09-27T08:34:13.000Z</time>
      </trkpt>
      <trkpt lat="47.54797" lon="6.67519">
        <ele>411</ele>
        <time>2015-09-27T08:34:14.000Z</time>
      </trkpt>
      <trkpt lat="47.548" lon="6.6752">
        <ele>411</ele>
        <time>2015-09-27T08:34:15.000Z</time>
      </trkpt>
      <trkpt lat="47.54803" lon="6.6752">
        <ele>412</ele>
        <time>2015-09-27T08:34:16.000Z</time>
      </trkpt>
      <trkpt lat="47.54806" lon="6.6752">
        <ele>412</ele>
        <time>2015-09-27T08:34:17.000Z</time>
      </trkpt>
      <trkpt lat="47.54808" lon="6.6752">
        <ele>412</ele>
        <time>2015-09-27T08:34:18.000Z</time>
      </trkpt>
      <trkpt lat="47.54811" lon="6.6752">
        <ele>412</ele>
        <time>2015-09-27T08:34:19.000Z</time>
      </trkpt>
      <trkpt lat="47.54814" lon="6.6752">
        <ele>412</ele>
        <time>2015-09-27T08:34:20.000Z</time>
      </trkpt>
      <trkpt lat="47.54817" lon="6.6752">
        <ele>412</ele>
        <time>2015-09-27T08:34:21.000Z</time>
      </trkpt>
      <trkpt lat="47.54819" lon="6.67519">
        <ele>412</ele>
        <time>2015-09-27T08:34:22.000Z</time>
      </trkpt>
      <trkpt lat="47.54822" lon="6.67519">
        <ele>412</ele>
        <time>2015-09-27T08:34:23.000Z</time>
      </trkpt>
      <trkpt lat="47.54825" lon="6.67518">
        <ele>412</ele>
        <time>2015-09-27T08:34:24.000Z</time>
      </trkpt>
      <trkpt lat="47.54827" lon="6.67518">
        <ele>411</ele>
        <time>2015-09-27T08:34:25.000Z</time>
      </trkpt>
      <trkpt lat="47.5483" lon="6.67517">
        <ele>411</ele>
        <time>2015-09-27T08:34:26.000Z</time>
      </trkpt>
      <trkpt lat="47.54833" lon="6.67516">
        <ele>411</ele>
        <time>2015-09-27T08:34:27.000Z</time>
      </trkpt>
      <trkpt lat="47.54836" lon="6.67516">
        <ele>414</ele>
        <time>2015-09-27T08:34:28.000Z</time>
      </trkpt>
      <trkpt lat="47.5484" lon="6.67515">
        <ele>414</ele>
        <time>2015-09-27T08:34:29.000Z</time>
      </trkpt>
      <trkpt lat="47.54843" lon="6.67515">
        <ele>415</ele>
        <time>2015-09-27T08:34:30.000Z</time>
      </trkpt>
      <trkpt lat="47.54846" lon="6.67515">
        <ele>415</ele>
        <time>2015-09-27T08:34:31.000Z</time>
      </trkpt>
      <trkpt lat="47.54849" lon="6.67514">
        <ele>415</ele>
        <time>2015-09-27T08:34:32.000Z</time>
      </trkpt>
      <trkpt lat="47.54852" lon="6.67514">
        <ele>416</ele>
        <time>2015-09-27T08:34:33.000Z</time>
      </trkpt>
      <trkpt lat="47.54855" lon="6.67514">
        <ele>416</ele>
        <time>2015-09-27T08:34:34.000Z</time>
      </trkpt>
      <trkpt lat="47.54857" lon="6.67515">
        <ele>416</ele>
        <time>2015-09-27T08:34:35.000Z</time>
      </trkpt>
      <trkpt lat="47.5486" lon="6.67517">
        <ele>417</ele>
        <time>2015-09-27T08:34:36.000Z</time>
      </trkpt>
      <trkpt lat="47.54864" lon="6.67519">
        <ele>417</ele>
        <time>2015-09-27T08:34:37.000Z</time>
      </trkpt>
      <trkpt lat="47.54867" lon="6.67521">
        <ele>418</ele>
        <time>2015-09-27T08:34:38.000Z</time>
      </trkpt>
      <trkpt lat="47.5487" lon="6.67523">
        <ele>418</ele>
        <time>2015-09-27T08:34:39.000Z</time>
      </trkpt>
      <trkpt lat="47.54873" lon="6.67524">
        <ele>418</ele>
        <time>2015-09-27T08:34:40.000Z</time>
      </trkpt>
      <trkpt lat="47.54876" lon="6.67524">
        <ele>419</ele>
        <time>2015-09-27T08:34:41.000Z</time>
      </trkpt>
      <trkpt lat="47.5488" lon="6.67524">
        <ele>419</ele>
        <time>2015-09-27T08:34:43.000Z</time>
      </trkpt>
      <trkpt lat="47.54882" lon="6.67524">
        <ele>419</ele>
        <time>2015-09-27T08:34:44.000Z</time>
      </trkpt>
      <trkpt lat="47.54886" lon="6.67524">
        <ele>419</ele>
        <time>2015-09-27T08:34:46.000Z</time>
      </trkpt>
      <trkpt lat="47.54888" lon="6.67524">
        <ele>419</ele>
        <time>2015-09-27T08:34:47.000Z</time>
      </trkpt>
      <trkpt lat="47.54891" lon="6.67523">
        <ele>419</ele>
        <time>2015-09-27T08:34:48.000Z</time>
      </trkpt>
      <trkpt lat="47.54894" lon="6.67522">
        <ele>419</ele>
        <time>2015-09-27T08:34:49.000Z</time>
      </trkpt>
      <trkpt lat="47.54897" lon="6.67522">
        <ele>419</ele>
        <time>2015-09-27T08:34:50.000Z</time>
      </trkpt>
      <trkpt lat="47.549" lon="6.67522">
        <ele>419</ele>
        <time>2015-09-27T08:34:51.000Z</time>
      </trkpt>
      <trkpt lat="47.54902" lon="6.67523">
        <ele>419</ele>
        <time>2015-09-27T08:34:52.000Z</time>
      </trkpt>
      <trkpt lat="47.54905" lon="6.67523">
        <ele>419</ele>
        <time>2015-09-27T08:34:53.000Z</time>
      </trkpt>
      <trkpt lat="47.54908" lon="6.67524">
        <ele>419</ele>
        <time>2015-09-27T08:34:54.000Z</time>
      </trkpt>
      <trkpt lat="47.54911" lon="6.67524">
        <ele>419</ele>
        <time>2015-09-27T08:34:55.000Z</time>
      </trkpt>
      <trkpt lat="47.54914" lon="6.67524">
        <ele>419</ele>
        <time>2015-09-27T08:34:56.000Z</time>
      </trkpt>
      <trkpt lat="47.54917" lon="6.67522">
        <ele>421</ele>
        <time>2015-09-27T08:34:57.000Z</time>
      </trkpt>
      <trkpt lat="47.5492" lon="6.67521">
        <ele>421</ele>
        <time>2015-09-27T08:34:58.000Z</time>
      </trkpt>
      <trkpt lat="47.54923" lon="6.67519">
        <ele>420</ele>
        <time>2015-09-27T08:34:59.000Z</time>
      </trkpt>
      <trkpt lat="47.54925" lon="6.67518">
        <ele>420</ele>
        <time>2015-09-27T08:35:00.000Z</time>
      </trkpt>
      <trkpt lat="47.54929" lon="6.67517">
        <ele>420</ele>
        <time>2015-09-27T08:35:01.000Z</time>
      </trkpt>
      <trkpt lat="47.54932" lon="6.67516">
        <ele>420</ele>
        <time>2015-09-27T08:35:02.000Z</time>
      </trkpt>
      <trkpt lat="47.54935" lon="6.67515">
        <ele>421</ele>
        <time>2015-09-27T08:35:03.000Z</time>
      </trkpt>
      <trkpt lat="47.54938" lon="6.67514">
        <ele>421</ele>
        <time>2015-09-27T08:35:04.000Z</time>
      </trkpt>
      <trkpt lat="47.54941" lon="6.67513">
        <ele>421</ele>
        <time>2015-09-27T08:35:05.000Z</time>
      </trkpt>
      <trkpt lat="47.54945" lon="6.67513">
        <ele>421</ele>
        <time>2015-09-27T08:35:06.000Z</time>
      </trkpt>
      <trkpt lat="47.54948" lon="6.67512">
        <ele>421</ele>
        <time>2015-09-27T08:35:07.000Z</time>
      </trkpt>
      <trkpt lat="47.54952" lon="6.67512">
        <ele>421</ele>
        <time>2015-09-27T08:35:08.000Z</time>
      </trkpt>
      <trkpt lat="47.54955" lon="6.67512">
        <ele>421</ele>
        <time>2015-09-27T08:35:09.000Z</time>
      </trkpt>
      <trkpt lat="47.54959" lon="6.67512">
        <ele>421</ele>
        <time>2015-09-27T08:35:10.000Z</time>
      </trkpt>
      <trkpt lat="47.54962" lon="6.67512">
        <ele>422</ele>
        <time>2015-09-27T08:35:11.000Z</time>
      </trkpt>
      <trkpt lat="47.54966" lon="6.67512">
        <ele>421</ele>
        <time>2015-09-27T08:35:12.000Z</time>
      </trkpt>
      <trkpt lat="47.54969" lon="6.67513">
        <ele>421</ele>
        <time>2015-09-27T08:35:13.000Z</time>
      </trkpt>
      <trkpt lat="47.54973" lon="6.67512">
        <ele>421</ele>
        <time>2015-09-27T08:35:14.000Z</time>
      </trkpt>
      <trkpt lat="47.54976" lon="6.67512">
        <ele>421</ele>
        <time>2015-09-27T08:35:15.000Z</time>
      </trkpt>
      <trkpt lat="47.5498" lon="6.67512">
        <ele>421</ele>
        <time>2015-09-27T08:35:16.000Z</time>
      </trkpt>
      <trkpt lat="47.54984" lon="6.67513">
        <ele>421</ele>
        <time>2015-09-27T08:35:17.000Z</time>
      </trkpt>
      <trkpt lat="47.54987" lon="6.67513">
        <ele>421</ele>
        <time>2015-09-27T08:35:18.000Z</time>
      </trkpt>
      <trkpt lat="47.54991" lon="6.67513">
        <ele>420</ele>
        <time>2015-09-27T08:35:19.000Z</time>
      </trkpt>
      <trkpt lat="47.54994" lon="6.67514">
        <ele>420</ele>
        <time>2015-09-27T08:35:20.000Z</time>
      </trkpt>
      <trkpt lat="47.54998" lon="6.67514">
        <ele>420</ele>
        <time>2015-09-27T08:35:21.000Z</time>
      </trkpt>
      <trkpt lat="47.55002" lon="6.67515">
        <ele>422</ele>
        <time>2015-09-27T08:35:22.000Z</time>
      </trkpt>
      <trkpt lat="47.55005" lon="6.67515">
        <ele>422</ele>
        <time>2015-09-27T08:35:23.000Z</time>
      </trkpt>
      <trkpt lat="47.55009" lon="6.67515">
        <ele>423</ele>
        <time>2015-09-27T08:35:24.000Z</time>
      </trkpt>
      <trkpt lat="47.55013" lon="6.67514">
        <ele>423</ele>
        <time>2015-09-27T08:35:25.000Z</time>
      </trkpt>
      <trkpt lat="47.55017" lon="6.67514">
        <ele>423</ele>
        <time>2015-09-27T08:35:26.000Z</time>
      </trkpt>
      <trkpt lat="47.5502" lon="6.67514">
        <ele>424</ele>
        <time>2015-09-27T08:35:27.000Z</time>
      </trkpt>
      <trkpt lat="47.55024" lon="6.67514">
        <ele>424</ele>
        <time>2015-09-27T08:35:28.000Z</time>
      </trkpt>
      <trkpt lat="47.55028" lon="6.67514">
        <ele>425</ele>
        <time>2015-09-27T08:35:29.000Z</time>
      </trkpt>
      <trkpt lat="47.55031" lon="6.67515">
        <ele>425</ele>
        <time>2015-09-27T08:35:30.000Z</time>
      </trkpt>
      <trkpt lat="47.55035" lon="6.67515">
        <ele>425</ele>
        <time>2015-09-27T08:35:31.000Z</time>
      </trkpt>
      <trkpt lat="47.55039" lon="6.67514">
        <ele>426</ele>
        <time>2015-09-27T08:35:32.000Z</time>
      </trkpt>
      <trkpt lat="47.55042" lon="6.67514">
        <ele>426</ele>
        <time>2015-09-27T08:35:33.000Z</time>
      </trkpt>
      <trkpt lat="47.55046" lon="6.67513">
        <ele>426</ele>
        <time>2015-09-27T08:35:34.000Z</time>
      </trkpt>
      <trkpt lat="47.55049" lon="6.67513">
        <ele>426</ele>
        <time>2015-09-27T08:35:35.000Z</time>
      </trkpt>
      <trkpt lat="47.55053" lon="6.67514">
        <ele>426</ele>
        <time>2015-09-27T08:35:36.000Z</time>
      </trkpt>
      <trkpt lat="47.55056" lon="6.67515">
        <ele>426</ele>
        <time>2015-09-27T08:35:37.000Z</time>
      </trkpt>
      <trkpt lat="47.5506" lon="6.67516">
        <ele>426</ele>
        <time>2015-09-27T08:35:38.000Z</time>
      </trkpt>
      <trkpt lat="47.55063" lon="6.67517">
        <ele>427</ele>
        <time>2015-09-27T08:35:39.000Z</time>
      </trkpt>
      <trkpt lat="47.55067" lon="6.67516">
        <ele>427</ele>
        <time>2015-09-27T08:35:40.000Z</time>
      </trkpt>
      <trkpt lat="47.5507" lon="6.67516">
        <ele>427</ele>
        <time>2015-09-27T08:35:41.000Z</time>
      </trkpt>
      <trkpt lat="47.55074" lon="6.67515">
        <ele>426</ele>
        <time>2015-09-27T08:35:42.000Z</time>
      </trkpt>
      <trkpt lat="47.55077" lon="6.67514">
        <ele>426</ele>
        <time>2015-09-27T08:35:43.000Z</time>
      </trkpt>
      <trkpt lat="47.55081" lon="6.67514">
        <ele>426</ele>
        <time>2015-09-27T08:35:44.000Z</time>
      </trkpt>
      <trkpt lat="47.55084" lon="6.67512">
        <ele>428</ele>
        <time>2015-09-27T08:35:45.000Z</time>
      </trkpt>
      <trkpt lat="47.55088" lon="6.67512">
        <ele>428</ele>
        <time>2015-09-27T08:35:46.000Z</time>
      </trkpt>
      <trkpt lat="47.55091" lon="6.67512">
        <ele>429</ele>
        <time>2015-09-27T08:35:47.000Z</time>
      </trkpt>
      <trkpt lat="47.55094" lon="6.67511">
        <ele>429</ele>
        <time>2015-09-27T08:35:48.000Z</time>
      </trkpt>
      <trkpt lat="47.55097" lon="6.67511">
        <ele>429</ele>
        <time>2015-09-27T08:35:49.000Z</time>
      </trkpt>
      <trkpt lat="47.551" lon="6.6751">
        <ele>430</ele>
        <time>2015-09-27T08:35:50.000Z</time>
      </trkpt>
      <trkpt lat="47.55103" lon="6.67511">
        <ele>430</ele>
        <time>2015-09-27T08:35:51.000Z</time>
      </trkpt>
      <trkpt lat="47.55106" lon="6.67512">
        <ele>431</ele>
        <time>2015-09-27T08:35:52.000Z</time>
      </trkpt>
      <trkpt lat="47.55109" lon="6.67512">
        <ele>431</ele>
        <time>2015-09-27T08:35:53.000Z</time>
      </trkpt>
      <trkpt lat="47.55112" lon="6.67513">
        <ele>431</ele>
        <time>2015-09-27T08:35:54.000Z</time>
      </trkpt>
      <trkpt lat="47.55114" lon="6.67514">
        <ele>431</ele>
        <time>2015-09-27T08:35:55.000Z</time>
      </trkpt>
      <trkpt lat="47.55117" lon="6.67514">
        <ele>432</ele>
        <time>2015-09-27T08:35:56.000Z</time>
      </trkpt>
      <trkpt lat="47.5512" lon="6.67515">
        <ele>432</ele>
        <time>2015-09-27T08:35:57.000Z</time>
      </trkpt>
      <trkpt lat="47.55124" lon="6.67514">
        <ele>432</ele>
        <time>2015-09-27T08:35:58.000Z</time>
      </trkpt>
      <trkpt lat="47.55127" lon="6.67514">
        <ele>432</ele>
        <time>2015-09-27T08:35:59.000Z</time>
      </trkpt>
      <trkpt lat="47.55131" lon="6.67514">
        <ele>432</ele>
        <time>2015-09-27T08:36:00.000Z</time>
      </trkpt>
      <trkpt lat="47.55134" lon="6.67514">
        <ele>433</ele>
        <time>2015-09-27T08:36:01.000Z</time>
      </trkpt>
      <trkpt lat="47.55138" lon="6.67515">
        <ele>433</ele>
        <time>2015-09-27T08:36:02.000Z</time>
      </trkpt>
      <trkpt lat="47.55141" lon="6.67516">
        <ele>433</ele>
        <time>2015-09-27T08:36:03.000Z</time>
      </trkpt>
      <trkpt lat="47.55145" lon="6.67516">
        <ele>433</ele>
        <time>2015-09-27T08:36:04.000Z</time>
      </trkpt>
      <trkpt lat="47.55149" lon="6.67517">
        <ele>433</ele>
        <time>2015-09-27T08:36:05.000Z</time>
      </trkpt>
      <trkpt lat="47.55152" lon="6.67517">
        <ele>433</ele>
        <time>2015-09-27T08:36:06.000Z</time>
      </trkpt>
      <trkpt lat="47.55156" lon="6.67518">
        <ele>433</ele>
        <time>2015-09-27T08:36:07.000Z</time>
      </trkpt>
      <trkpt lat="47.55159" lon="6.67519">
        <ele>433</ele>
        <time>2015-09-27T08:36:08.000Z</time>
      </trkpt>
      <trkpt lat="47.55163" lon="6.6752">
        <ele>433</ele>
        <time>2015-09-27T08:36:09.000Z</time>
      </trkpt>
      <trkpt lat="47.55166" lon="6.67522">
        <ele>434</ele>
        <time>2015-09-27T08:36:10.000Z</time>
      </trkpt>
      <trkpt lat="47.55169" lon="6.67523">
        <ele>436</ele>
        <time>2015-09-27T08:36:11.000Z</time>
      </trkpt>
      <trkpt lat="47.55172" lon="6.67524">
        <ele>436</ele>
        <time>2015-09-27T08:36:12.000Z</time>
      </trkpt>
      <trkpt lat="47.55176" lon="6.67525">
        <ele>436</ele>
        <time>2015-09-27T08:36:13.000Z</time>
      </trkpt>
      <trkpt lat="47.55179" lon="6.67526">
        <ele>436</ele>
        <time>2015-09-27T08:36:14.000Z</time>
      </trkpt>
      <trkpt lat="47.55182" lon="6.67527">
        <ele>436</ele>
        <time>2015-09-27T08:36:15.000Z</time>
      </trkpt>
      <trkpt lat="47.55185" lon="6.67528">
        <ele>437</ele>
        <time>2015-09-27T08:36:16.000Z</time>
      </trkpt>
      <trkpt lat="47.55188" lon="6.6753">
        <ele>437</ele>
        <time>2015-09-27T08:36:17.000Z</time>
      </trkpt>
      <trkpt lat="47.55191" lon="6.67531">
        <ele>437</ele>
        <time>2015-09-27T08:36:18.000Z</time>
      </trkpt>
      <trkpt lat="47.55194" lon="6.67533">
        <ele>437</ele>
        <time>2015-09-27T08:36:19.000Z</time>
      </trkpt>
      <trkpt lat="47.55196" lon="6.67535">
        <ele>437</ele>
        <time>2015-09-27T08:36:20.000Z</time>
      </trkpt>
      <trkpt lat="47.55199" lon="6.67536">
        <ele>437</ele>
        <time>2015-09-27T08:36:21.000Z</time>
      </trkpt>
      <trkpt lat="47.55202" lon="6.67536">
        <ele>437</ele>
        <time>2015-09-27T08:36:22.000Z</time>
      </trkpt>
      <trkpt lat="47.55205" lon="6.67537">
        <ele>437</ele>
        <time>2015-09-27T08:36:23.000Z</time>
      </trkpt>
      <trkpt lat="47.55208" lon="6.67538">
        <ele>437</ele>
        <time>2015-09-27T08:36:24.000Z</time>
      </trkpt>
      <trkpt lat="47.55211" lon="6.67539">
        <ele>437</ele>
        <time>2015-09-27T08:36:25.000Z</time>
      </trkpt>
      <trkpt lat="47.55214" lon="6.67541">
        <ele>438</ele>
        <time>2015-09-27T08:36:26.000Z</time>
      </trkpt>
      <trkpt lat="47.55217" lon="6.67542">
        <ele>438</ele>
        <time>2015-09-27T08:36:27.000Z</time>
      </trkpt>
      <trkpt lat="47.55219" lon="6.67543">
        <ele>438</ele>
        <time>2015-09-27T08:36:28.000Z</time>
      </trkpt>
      <trkpt lat="47.55222" lon="6.67543">
        <ele>438</ele>
        <time>2015-09-27T08:36:29.000Z</time>
      </trkpt>
      <trkpt lat="47.55225" lon="6.67543">
        <ele>438</ele>
        <time>2015-09-27T08:36:30.000Z</time>
      </trkpt>
      <trkpt lat="47.55228" lon="6.67543">
        <ele>438</ele>
        <time>2015-09-27T08:36:31.000Z</time>
      </trkpt>
      <trkpt lat="47.5523" lon="6.67543">
        <ele>438</ele>
        <time>2015-09-27T08:36:32.000Z</time>
      </trkpt>
      <trkpt lat="47.55233" lon="6.67542">
        <ele>438</ele>
        <time>2015-09-27T08:36:33.000Z</time>
      </trkpt>
      <trkpt lat="47.55235" lon="6.67541">
        <ele>438</ele>
        <time>2015-09-27T08:36:34.000Z</time>
      </trkpt>
      <trkpt lat="47.55238" lon="6.67541">
        <ele>438</ele>
        <time>2015-09-27T08:36:35.000Z</time>
      </trkpt>
      <trkpt lat="47.55241" lon="6.6754">
        <ele>438</ele>
        <time>2015-09-27T08:36:36.000Z</time>
      </trkpt>
      <trkpt lat="47.55244" lon="6.67541">
        <ele>438</ele>
        <time>2015-09-27T08:36:37.000Z</time>
      </trkpt>
      <trkpt lat="47.55246" lon="6.67542">
        <ele>438</ele>
        <time>2015-09-27T08:36:38.000Z</time>
      </trkpt>
      <trkpt lat="47.55249" lon="6.67543">
        <ele>438</ele>
        <time>2015-09-27T08:36:39.000Z</time>
      </trkpt>
      <trkpt lat="47.55252" lon="6.67545">
        <ele>436</ele>
        <time>2015-09-27T08:36:40.000Z</time>
      </trkpt>
      <trkpt lat="47.55255" lon="6.67546">
        <ele>436</ele>
        <time>2015-09-27T08:36:41.000Z</time>
      </trkpt>
      <trkpt lat="47.55258" lon="6.67547">
        <ele>436</ele>
        <time>2015-09-27T08:36:42.000Z</time>
      </trkpt>
      <trkpt lat="47.5526" lon="6.67547">
        <ele>436</ele>
        <time>2015-09-27T08:36:43.000Z</time>
      </trkpt>
      <trkpt lat="47.55263" lon="6.67548">
        <ele>436</ele>
        <time>2015-09-27T08:36:44.000Z</time>
      </trkpt>
      <trkpt lat="47.55265" lon="6.67548">
        <ele>436</ele>
        <time>2015-09-27T08:36:45.000Z</time>
      </trkpt>
      <trkpt lat="47.55268" lon="6.67548">
        <ele>436</ele>
        <time>2015-09-27T08:36:46.000Z</time>
      </trkpt>
      <trkpt lat="47.55271" lon="6.67548">
        <ele>436</ele>
        <time>2015-09-27T08:36:47.000Z</time>
      </trkpt>
      <trkpt lat="47.55274" lon="6.67548">
        <ele>436</ele>
        <time>2015-09-27T08:36:48.000Z</time>
      </trkpt>
      <trkpt lat="47.55276" lon="6.67547">
        <ele>436</ele>
        <time>2015-09-27T08:36:49.000Z</time>
      </trkpt>
      <trkpt lat="47.55279" lon="6.67547">
        <ele>436</ele>
        <time>2015-09-27T08:36:50.000Z</time>
      </trkpt>
      <trkpt lat="47.55281" lon="6.67547">
        <ele>436</ele>
        <time>2015-09-27T08:36:51.000Z</time>
      </trkpt>
      <trkpt lat="47.55283" lon="6.67547">
        <ele>436</ele>
        <time>2015-09-27T08:36:52.000Z</time>
      </trkpt>
      <trkpt lat="47.55286" lon="6.67548">
        <ele>436</ele>
        <time>2015-09-27T08:36:53.000Z</time>
      </trkpt>
      <trkpt lat="47.55288" lon="6.67548">
        <ele>435</ele>
        <time>2015-09-27T08:36:54.000Z</time>
      </trkpt>
      <trkpt lat="47.55291" lon="6.67549">
        <ele>435</ele>
        <time>2015-09-27T08:36:55.000Z</time>
      </trkpt>
      <trkpt lat="47.55293" lon="6.67549">
        <ele>435</ele>
        <time>2015-09-27T08:36:56.000Z</time>
      </trkpt>
      <trkpt lat="47.55296" lon="6.67548">
        <ele>435</ele>
        <time>2015-09-27T08:36:57.000Z</time>
      </trkpt>
      <trkpt lat="47.55298" lon="6.67547">
        <ele>435</ele>
        <time>2015-09-27T08:36:58.000Z</time>
      </trkpt>
      <trkpt lat="47.55301" lon="6.67546">
        <ele>435</ele>
        <time>2015-09-27T08:36:59.000Z</time>
      </trkpt>
      <trkpt lat="47.55303" lon="6.67546">
        <ele>435</ele>
        <time>2015-09-27T08:37:00.000Z</time>
      </trkpt>
      <trkpt lat="47.55305" lon="6.67546">
        <ele>435</ele>
        <time>2015-09-27T08:37:01.000Z</time>
      </trkpt>
      <trkpt lat="47.55308" lon="6.67546">
        <ele>435</ele>
        <time>2015-09-27T08:37:02.000Z</time>
      </trkpt>
      <trkpt lat="47.5531" lon="6.67547">
        <ele>435</ele>
        <time>2015-09-27T08:37:03.000Z</time>
      </trkpt>
      <trkpt lat="47.55312" lon="6.67549">
        <ele>435</ele>
        <time>2015-09-27T08:37:04.000Z</time>
      </trkpt>
      <trkpt lat="47.55315" lon="6.6755">
        <ele>435</ele>
        <time>2015-09-27T08:37:05.000Z</time>
      </trkpt>
      <trkpt lat="47.55317" lon="6.67552">
        <ele>435</ele>
        <time>2015-09-27T08:37:06.000Z</time>
      </trkpt>
      <trkpt lat="47.5532" lon="6.67554">
        <ele>435</ele>
        <time>2015-09-27T08:37:07.000Z</time>
      </trkpt>
      <trkpt lat="47.55322" lon="6.67555">
        <ele>435</ele>
        <time>2015-09-27T08:37:08.000Z</time>
      </trkpt>
      <trkpt lat="47.55325" lon="6.67556">
        <ele>435</ele>
        <time>2015-09-27T08:37:09.000Z</time>
      </trkpt>
      <trkpt lat="47.55327" lon="6.67556">
        <ele>435</ele>
        <time>2015-09-27T08:37:10.000Z</time>
      </trkpt>
      <trkpt lat="47.55329" lon="6.67555">
        <ele>435</ele>
        <time>2015-09-27T08:37:11.000Z</time>
      </trkpt>
      <trkpt lat="47.55332" lon="6.67555">
        <ele>435</ele>
        <time>2015-09-27T08:37:12.000Z</time>
      </trkpt>
      <trkpt lat="47.55334" lon="6.67556">
        <ele>436</ele>
        <time>2015-09-27T08:37:13.000Z</time>
      </trkpt>
      <trkpt lat="47.55337" lon="6.67557">
        <ele>436</ele>
        <time>2015-09-27T08:37:14.000Z</time>
      </trkpt>
      <trkpt lat="47.55339" lon="6.67558">
        <ele>437</ele>
        <time>2015-09-27T08:37:15.000Z</time>
      </trkpt>
      <trkpt lat="47.55341" lon="6.67559">
        <ele>437</ele>
        <time>2015-09-27T08:37:16.000Z</time>
      </trkpt>
      <trkpt lat="47.55344" lon="6.67559">
        <ele>437</ele>
        <time>2015-09-27T08:37:17.000Z</time>
      </trkpt>
      <trkpt lat="47.55346" lon="6.6756">
        <ele>437</ele>
        <time>2015-09-27T08:37:18.000Z</time>
      </trkpt>
      <trkpt lat="47.55349" lon="6.67561">
        <ele>437</ele>
        <time>2015-09-27T08:37:19.000Z</time>
      </trkpt>
      <trkpt lat="47.55351" lon="6.67563">
        <ele>437</ele>
        <time>2015-09-27T08:37:20.000Z</time>
      </trkpt>
      <trkpt lat="47.55354" lon="6.67564">
        <ele>437</ele>
        <time>2015-09-27T08:37:21.000Z</time>
      </trkpt>
      <trkpt lat="47.55356" lon="6.67565">
        <ele>437</ele>
        <time>2015-09-27T08:37:22.000Z</time>
      </trkpt>
      <trkpt lat="47.55358" lon="6.67565">
        <ele>437</ele>
        <time>2015-09-27T08:37:23.000Z</time>
      </trkpt>
      <trkpt lat="47.55363" lon="6.67564">
        <ele>438</ele>
        <time>2015-09-27T08:37:25.000Z</time>
      </trkpt>
      <trkpt lat="47.55365" lon="6.67564">
        <ele>438</ele>
        <time>2015-09-27T08:37:26.000Z</time>
      </trkpt>
      <trkpt lat="47.55367" lon="6.67564">
        <ele>438</ele>
        <time>2015-09-27T08:37:27.000Z</time>
      </trkpt>
      <trkpt lat="47.5537" lon="6.67565">
        <ele>438</ele>
        <time>2015-09-27T08:37:28.000Z</time>
      </trkpt>
      <trkpt lat="47.55372" lon="6.67566">
        <ele>438</ele>
        <time>2015-09-27T08:37:29.000Z</time>
      </trkpt>
      <trkpt lat="47.55374" lon="6.67566">
        <ele>439</ele>
        <time>2015-09-27T08:37:30.000Z</time>
      </trkpt>
      <trkpt lat="47.55377" lon="6.67567">
        <ele>439</ele>
        <time>2015-09-27T08:37:31.000Z</time>
      </trkpt>
      <trkpt lat="47.5538" lon="6.67567">
        <ele>439</ele>
        <time>2015-09-27T08:37:32.000Z</time>
      </trkpt>
      <trkpt lat="47.55382" lon="6.67568">
        <ele>439</ele>
        <time>2015-09-27T08:37:33.000Z</time>
      </trkpt>
      <trkpt lat="47.55385" lon="6.67569">
        <ele>440</ele>
        <time>2015-09-27T08:37:34.000Z</time>
      </trkpt>
      <trkpt lat="47.55387" lon="6.6757">
        <ele>440</ele>
        <time>2015-09-27T08:37:35.000Z</time>
      </trkpt>
      <trkpt lat="47.5539" lon="6.6757">
        <ele>440</ele>
        <time>2015-09-27T08:37:36.000Z</time>
      </trkpt>
      <trkpt lat="47.55392" lon="6.6757">
        <ele>440</ele>
        <time>2015-09-27T08:37:37.000Z</time>
      </trkpt>
      <trkpt lat="47.55394" lon="6.67571">
        <ele>441</ele>
        <time>2015-09-27T08:37:38.000Z</time>
      </trkpt>
      <trkpt lat="47.55397" lon="6.67571">
        <ele>441</ele>
        <time>2015-09-27T08:37:39.000Z</time>
      </trkpt>
      <trkpt lat="47.55399" lon="6.67572">
        <ele>441</ele>
        <time>2015-09-27T08:37:40.000Z</time>
      </trkpt>
      <trkpt lat="47.55402" lon="6.67573">
        <ele>442</ele>
        <time>2015-09-27T08:37:41.000Z</time>
      </trkpt>
      <trkpt lat="47.55405" lon="6.67575">
        <ele>442</ele>
        <time>2015-09-27T08:37:42.000Z</time>
      </trkpt>
      <trkpt lat="47.55407" lon="6.67577">
        <ele>443</ele>
        <time>2015-09-27T08:37:43.000Z</time>
      </trkpt>
      <trkpt lat="47.55409" lon="6.67578">
        <ele>443</ele>
        <time>2015-09-27T08:37:44.000Z</time>
      </trkpt>
      <trkpt lat="47.55411" lon="6.67578">
        <ele>444</ele>
        <time>2015-09-27T08:37:45.000Z</time>
      </trkpt>
      <trkpt lat="47.55414" lon="6.67577">
        <ele>444</ele>
        <time>2015-09-27T08:37:46.000Z</time>
      </trkpt>
      <trkpt lat="47.55416" lon="6.67577">
        <ele>444</ele>
        <time>2015-09-27T08:37:47.000Z</time>
      </trkpt>
      <trkpt lat="47.55419" lon="6.67576">
        <ele>447</ele>
        <time>2015-09-27T08:37:48.000Z</time>
      </trkpt>
      <trkpt lat="47.55421" lon="6.67577">
        <ele>447</ele>
        <time>2015-09-27T08:37:49.000Z</time>
      </trkpt>
      <trkpt lat="47.55424" lon="6.67577">
        <ele>447</ele>
        <time>2015-09-27T08:37:50.000Z</time>
      </trkpt>
      <trkpt lat="47.55428" lon="6.67577">
        <ele>448</ele>
        <time>2015-09-27T08:37:52.000Z</time>
      </trkpt>
      <trkpt lat="47.5543" lon="6.67576">
        <ele>448</ele>
        <time>2015-09-27T08:37:53.000Z</time>
      </trkpt>
      <trkpt lat="47.55433" lon="6.67575">
        <ele>448</ele>
        <time>2015-09-27T08:37:55.000Z</time>
      </trkpt>
      <trkpt lat="47.55435" lon="6.67574">
        <ele>448</ele>
        <time>2015-09-27T08:37:56.000Z</time>
      </trkpt>
      <trkpt lat="47.55438" lon="6.67573">
        <ele>449</ele>
        <time>2015-09-27T08:37:57.000Z</time>
      </trkpt>
      <trkpt lat="47.5544" lon="6.67572">
        <ele>449</ele>
        <time>2015-09-27T08:37:58.000Z</time>
      </trkpt>
      <trkpt lat="47.55442" lon="6.67571">
        <ele>449</ele>
        <time>2015-09-27T08:37:59.000Z</time>
      </trkpt>
      <trkpt lat="47.55445" lon="6.67571">
        <ele>449</ele>
        <time>2015-09-27T08:38:00.000Z</time>
      </trkpt>
      <trkpt lat="47.55447" lon="6.6757">
        <ele>450</ele>
        <time>2015-09-27T08:38:01.000Z</time>
      </trkpt>
      <trkpt lat="47.55449" lon="6.6757">
        <ele>450</ele>
        <time>2015-09-27T08:38:02.000Z</time>
      </trkpt>
      <trkpt lat="47.55454" lon="6.6757">
        <ele>450</ele>
        <time>2015-09-27T08:38:04.000Z</time>
      </trkpt>
      <trkpt lat="47.55456" lon="6.6757">
        <ele>450</ele>
        <time>2015-09-27T08:38:05.000Z</time>
      </trkpt>
      <trkpt lat="47.55458" lon="6.67569">
        <ele>451</ele>
        <time>2015-09-27T08:38:06.000Z</time>
      </trkpt>
      <trkpt lat="47.5546" lon="6.67568">
        <ele>451</ele>
        <time>2015-09-27T08:38:07.000Z</time>
      </trkpt>
      <trkpt lat="47.55462" lon="6.67567">
        <ele>451</ele>
        <time>2015-09-27T08:38:08.000Z</time>
      </trkpt>
      <trkpt lat="47.55464" lon="6.67566">
        <ele>451</ele>
        <time>2015-09-27T08:38:09.000Z</time>
      </trkpt>
      <trkpt lat="47.55468" lon="6.67565">
        <ele>451</ele>
        <time>2015-09-27T08:38:11.000Z</time>
      </trkpt>
      <trkpt lat="47.5547" lon="6.67564">
        <ele>452</ele>
        <time>2015-09-27T08:38:12.000Z</time>
      </trkpt>
      <trkpt lat="47.55474" lon="6.67563">
        <ele>452</ele>
        <time>2015-09-27T08:38:14.000Z</time>
      </trkpt>
      <trkpt lat="47.55476" lon="6.67562">
        <ele>452</ele>
        <time>2015-09-27T08:38:15.000Z</time>
      </trkpt>
      <trkpt lat="47.55478" lon="6.67561">
        <ele>452</ele>
        <time>2015-09-27T08:38:16.000Z</time>
      </trkpt>
      <trkpt lat="47.55481" lon="6.67559">
        <ele>452</ele>
        <time>2015-09-27T08:38:17.000Z</time>
      </trkpt>
      <trkpt lat="47.55485" lon="6.67557">
        <ele>453</ele>
        <time>2015-09-27T08:38:19.000Z</time>
      </trkpt>
      <trkpt lat="47.55486" lon="6.67557">
        <ele>453</ele>
        <time>2015-09-27T08:38:20.000Z</time>
      </trkpt>
      <trkpt lat="47.5549" lon="6.67557">
        <ele>453</ele>
        <time>2015-09-27T08:38:23.000Z</time>
      </trkpt>
      <trkpt lat="47.55492" lon="6.67557">
        <ele>453</ele>
        <time>2015-09-27T08:38:24.000Z</time>
      </trkpt>
      <trkpt lat="47.55496" lon="6.67556">
        <ele>453</ele>
        <time>2015-09-27T08:38:26.000Z</time>
      </trkpt>
      <trkpt lat="47.55498" lon="6.67555">
        <ele>453</ele>
        <time>2015-09-27T08:38:27.000Z</time>
      </trkpt>
      <trkpt lat="47.55501" lon="6.67553">
        <ele>458</ele>
        <time>2015-09-27T08:38:29.000Z</time>
      </trkpt>
      <trkpt lat="47.55503" lon="6.67551">
        <ele>458</ele>
        <time>2015-09-27T08:38:30.000Z</time>
      </trkpt>
      <trkpt lat="47.55505" lon="6.67548">
        <ele>458</ele>
        <time>2015-09-27T08:38:33.000Z</time>
      </trkpt>
      <trkpt lat="47.55506" lon="6.67547">
        <ele>458</ele>
        <time>2015-09-27T08:38:34.000Z</time>
      </trkpt>
      <trkpt lat="47.55509" lon="6.67543">
        <ele>458</ele>
        <time>2015-09-27T08:38:38.000Z</time>
      </trkpt>
      <trkpt lat="47.5551" lon="6.67541">
        <ele>458</ele>
        <time>2015-09-27T08:38:39.000Z</time>
      </trkpt>
      <trkpt lat="47.55512" lon="6.67535">
        <ele>458</ele>
        <time>2015-09-27T08:38:42.000Z</time>
      </trkpt>
      <trkpt lat="47.55512" lon="6.67534">
        <ele>458</ele>
        <time>2015-09-27T08:38:43.000Z</time>
      </trkpt>
      <trkpt lat="47.55515" lon="6.67531">
        <ele>458</ele>
        <time>2015-09-27T08:38:48.000Z</time>
      </trkpt>
      <trkpt lat="47.55516" lon="6.67531">
        <ele>458</ele>
        <time>2015-09-27T08:38:49.000Z</time>
      </trkpt>
      <trkpt lat="47.55519" lon="6.67527">
        <ele>458</ele>
        <time>2015-09-27T08:38:52.000Z</time>
      </trkpt>
      <trkpt lat="47.55521" lon="6.67526">
        <ele>458</ele>
        <time>2015-09-27T08:38:53.000Z</time>
      </trkpt>
      <trkpt lat="47.55523" lon="6.67521">
        <ele>458</ele>
        <time>2015-09-27T08:38:56.000Z</time>
      </trkpt>
      <trkpt lat="47.55524" lon="6.67519">
        <ele>458</ele>
        <time>2015-09-27T08:38:57.000Z</time>
      </trkpt>
      <trkpt lat="47.55527" lon="6.67514">
        <ele>458</ele>
        <time>2015-09-27T08:39:00.000Z</time>
      </trkpt>
      <trkpt lat="47.55528" lon="6.67513">
        <ele>458</ele>
        <time>2015-09-27T08:39:01.000Z</time>
      </trkpt>
      <trkpt lat="47.5553" lon="6.67507">
        <ele>458</ele>
        <time>2015-09-27T08:39:04.000Z</time>
      </trkpt>
      <trkpt lat="47.55531" lon="6.67506">
        <ele>458</ele>
        <time>2015-09-27T08:39:05.000Z</time>
      </trkpt>
      <trkpt lat="47.55532" lon="6.675">
        <ele>458</ele>
        <time>2015-09-27T08:39:08.000Z</time>
      </trkpt>
      <trkpt lat="47.55533" lon="6.67499">
        <ele>461</ele>
        <time>2015-09-27T08:39:09.000Z</time>
      </trkpt>
      <trkpt lat="47.55534" lon="6.67493">
        <ele>461</ele>
        <time>2015-09-27T08:39:13.000Z</time>
      </trkpt>
      <trkpt lat="47.55534" lon="6.67491">
        <ele>461</ele>
        <time>2015-09-27T08:39:14.000Z</time>
      </trkpt>
      <trkpt lat="47.55535" lon="6.67485">
        <ele>461</ele>
        <time>2015-09-27T08:39:16.000Z</time>
      </trkpt>
      <trkpt lat="47.55535" lon="6.67482">
        <ele>461</ele>
        <time>2015-09-27T08:39:17.000Z</time>
      </trkpt>
      <trkpt lat="47.55535" lon="6.67476">
        <ele>462</ele>
        <time>2015-09-27T08:39:19.000Z</time>
      </trkpt>
      <trkpt lat="47.55535" lon="6.67474">
        <ele>462</ele>
        <time>2015-09-27T08:39:20.000Z</time>
      </trkpt>
      <trkpt lat="47.55534" lon="6.67467">
        <ele>462</ele>
        <time>2015-09-27T08:39:23.000Z</time>
      </trkpt>
      <trkpt lat="47.55534" lon="6.67466">
        <ele>462</ele>
        <time>2015-09-27T08:39:24.000Z</time>
      </trkpt>
      <trkpt lat="47.55534" lon="6.6746">
        <ele>462</ele>
        <time>2015-09-27T08:39:28.000Z</time>
      </trkpt>
      <trkpt lat="47.55534" lon="6.67458">
        <ele>462</ele>
        <time>2015-09-27T08:39:29.000Z</time>
      </trkpt>
      <trkpt lat="47.55534" lon="6.67454">
        <ele>462</ele>
        <time>2015-09-27T08:39:31.000Z</time>
      </trkpt>
      <trkpt lat="47.55535" lon="6.67451">
        <ele>462</ele>
        <time>2015-09-27T08:39:32.000Z</time>
      </trkpt>
      <trkpt lat="47.55537" lon="6.67446">
        <ele>463</ele>
        <time>2015-09-27T08:39:35.000Z</time>
      </trkpt>
      <trkpt lat="47.55538" lon="6.67444">
        <ele>463</ele>
        <time>2015-09-27T08:39:36.000Z</time>
      </trkpt>
      <trkpt lat="47.5554" lon="6.67439">
        <ele>463</ele>
        <time>2015-09-27T08:39:39.000Z</time>
      </trkpt>
      <trkpt lat="47.55541" lon="6.67437">
        <ele>463</ele>
        <time>2015-09-27T08:39:40.000Z</time>
      </trkpt>
      <trkpt lat="47.55545" lon="6.67434">
        <ele>464</ele>
        <time>2015-09-27T08:39:42.000Z</time>
      </trkpt>
      <trkpt lat="47.55546" lon="6.67432">
        <ele>464</ele>
        <time>2015-09-27T08:39:42.999Z</time>
      </trkpt>
      <trkpt lat="47.55549" lon="6.67428">
        <ele>464</ele>
        <time>2015-09-27T08:39:45.000Z</time>
      </trkpt>
      <trkpt lat="47.5555" lon="6.67427">
        <ele>465</ele>
        <time>2015-09-27T08:39:46.000Z</time>
      </trkpt>
      <trkpt lat="47.55552" lon="6.67422">
        <ele>465</ele>
        <time>2015-09-27T08:39:49.000Z</time>
      </trkpt>
      <trkpt lat="47.55553" lon="6.6742">
        <ele>465</ele>
        <time>2015-09-27T08:39:50.000Z</time>
      </trkpt>
      <trkpt lat="47.55555" lon="6.67415">
        <ele>469</ele>
        <time>2015-09-27T08:39:52.000Z</time>
      </trkpt>
      <trkpt lat="47.55556" lon="6.67413">
        <ele>469</ele>
        <time>2015-09-27T08:39:53.000Z</time>
      </trkpt>
      <trkpt lat="47.55559" lon="6.67408">
        <ele>469</ele>
        <time>2015-09-27T08:39:56.000Z</time>
      </trkpt>
      <trkpt lat="47.55559" lon="6.67407">
        <ele>469</ele>
        <time>2015-09-27T08:39:57.000Z</time>
      </trkpt>
      <trkpt lat="47.55561" lon="6.67402">
        <ele>469</ele>
        <time>2015-09-27T08:40:00.000Z</time>
      </trkpt>
      <trkpt lat="47.55562" lon="6.674">
        <ele>469</ele>
        <time>2015-09-27T08:40:01.000Z</time>
      </trkpt>
      <trkpt lat="47.55565" lon="6.67397">
        <ele>470</ele>
        <time>2015-09-27T08:40:03.000Z</time>
      </trkpt>
      <trkpt lat="47.55566" lon="6.67395">
        <ele>470</ele>
        <time>2015-09-27T08:40:04.000Z</time>
      </trkpt>
      <trkpt lat="47.55568" lon="6.6739">
        <ele>470</ele>
        <time>2015-09-27T08:40:07.000Z</time>
      </trkpt>
      <trkpt lat="47.55569" lon="6.67388">
        <ele>470</ele>
        <time>2015-09-27T08:40:08.000Z</time>
      </trkpt>
      <trkpt lat="47.5557" lon="6.67383">
        <ele>470</ele>
        <time>2015-09-27T08:40:10.000Z</time>
      </trkpt>
      <trkpt lat="47.55571" lon="6.67381">
        <ele>470</ele>
        <time>2015-09-27T08:40:11.000Z</time>
      </trkpt>
      <trkpt lat="47.55572" lon="6.67377">
        <ele>470</ele>
        <time>2015-09-27T08:40:13.000Z</time>
      </trkpt>
      <trkpt lat="47.55573" lon="6.67375">
        <ele>470</ele>
        <time>2015-09-27T08:40:14.000Z</time>
      </trkpt>
      <trkpt lat="47.55576" lon="6.6737">
        <ele>471</ele>
        <time>2015-09-27T08:40:17.000Z</time>
      </trkpt>
      <trkpt lat="47.55577" lon="6.67369">
        <ele>471</ele>
        <time>2015-09-27T08:40:18.000Z</time>
      </trkpt>
      <trkpt lat="47.55581" lon="6.67365">
        <ele>471</ele>
        <time>2015-09-27T08:40:21.000Z</time>
      </trkpt>
      <trkpt lat="47.55582" lon="6.67363">
        <ele>471</ele>
        <time>2015-09-27T08:40:22.000Z</time>
      </trkpt>
      <trkpt lat="47.55584" lon="6.67359">
        <ele>474</ele>
        <time>2015-09-27T08:40:24.000Z</time>
      </trkpt>
      <trkpt lat="47.55585" lon="6.67357">
        <ele>474</ele>
        <time>2015-09-27T08:40:25.000Z</time>
      </trkpt>
      <trkpt lat="47.55587" lon="6.67353">
        <ele>474</ele>
        <time>2015-09-27T08:40:27.000Z</time>
      </trkpt>
      <trkpt lat="47.55588" lon="6.67351">
        <ele>474</ele>
        <time>2015-09-27T08:40:28.000Z</time>
      </trkpt>
      <trkpt lat="47.5559" lon="6.67348">
        <ele>475</ele>
        <time>2015-09-27T08:40:29.000Z</time>
      </trkpt>
      <trkpt lat="47.55592" lon="6.67344">
        <ele>475</ele>
        <time>2015-09-27T08:40:31.000Z</time>
      </trkpt>
      <trkpt lat="47.55595" lon="6.6734">
        <ele>475</ele>
        <time>2015-09-27T08:40:33.000Z</time>
      </trkpt>
      <trkpt lat="47.55596" lon="6.67338">
        <ele>475</ele>
        <time>2015-09-27T08:40:34.000Z</time>
      </trkpt>
      <trkpt lat="47.55598" lon="6.67334">
        <ele>475</ele>
        <time>2015-09-27T08:40:36.000Z</time>
      </trkpt>
      <trkpt lat="47.55599" lon="6.67332">
        <ele>479</ele>
        <time>2015-09-27T08:40:37.000Z</time>
      </trkpt>
      <trkpt lat="47.556" lon="6.67328">
        <ele>479</ele>
        <time>2015-09-27T08:40:39.000Z</time>
      </trkpt>
      <trkpt lat="47.55601" lon="6.67326">
        <ele>479</ele>
        <time>2015-09-27T08:40:40.000Z</time>
      </trkpt>
      <trkpt lat="47.55603" lon="6.67321">
        <ele>480</ele>
        <time>2015-09-27T08:40:42.000Z</time>
      </trkpt>
      <trkpt lat="47.55604" lon="6.67319">
        <ele>480</ele>
        <time>2015-09-27T08:40:43.000Z</time>
      </trkpt>
      <trkpt lat="47.55606" lon="6.67314">
        <ele>480</ele>
        <time>2015-09-27T08:40:46.000Z</time>
      </trkpt>
      <trkpt lat="47.55606" lon="6.67312">
        <ele>480</ele>
        <time>2015-09-27T08:40:47.000Z</time>
      </trkpt>
      <trkpt lat="47.55609" lon="6.67308">
        <ele>480</ele>
        <time>2015-09-27T08:40:51.000Z</time>
      </trkpt>
      <trkpt lat="47.55609" lon="6.67306">
        <ele>480</ele>
        <time>2015-09-27T08:40:52.000Z</time>
      </trkpt>
      <trkpt lat="47.55611" lon="6.67301">
        <ele>481</ele>
        <time>2015-09-27T08:40:55.000Z</time>
      </trkpt>
      <trkpt lat="47.55612" lon="6.673">
        <ele>481</ele>
        <time>2015-09-27T08:40:56.000Z</time>
      </trkpt>
      <trkpt lat="47.55615" lon="6.67295">
        <ele>481</ele>
        <time>2015-09-27T08:41:01.000Z</time>
      </trkpt>
      <trkpt lat="47.55615" lon="6.67294">
        <ele>481</ele>
        <time>2015-09-27T08:41:02.000Z</time>
      </trkpt>
      <trkpt lat="47.55618" lon="6.6729">
        <ele>481</ele>
        <time>2015-09-27T08:41:05.000Z</time>
      </trkpt>
      <trkpt lat="47.55619" lon="6.67288">
        <ele>481</ele>
        <time>2015-09-27T08:41:06.000Z</time>
      </trkpt>
      <trkpt lat="47.55621" lon="6.67284">
        <ele>482</ele>
        <time>2015-09-27T08:41:08.000Z</time>
      </trkpt>
      <trkpt lat="47.55622" lon="6.67282">
        <ele>482</ele>
        <time>2015-09-27T08:41:09.000Z</time>
      </trkpt>
      <trkpt lat="47.55625" lon="6.67278">
        <ele>482</ele>
        <time>2015-09-27T08:41:12.000Z</time>
      </trkpt>
      <trkpt lat="47.55626" lon="6.67276">
        <ele>482</ele>
        <time>2015-09-27T08:41:13.000Z</time>
      </trkpt>
      <trkpt lat="47.55629" lon="6.67272">
        <ele>482</ele>
        <time>2015-09-27T08:41:16.000Z</time>
      </trkpt>
      <trkpt lat="47.5563" lon="6.67271">
        <ele>483</ele>
        <time>2015-09-27T08:41:17.000Z</time>
      </trkpt>
      <trkpt lat="47.55632" lon="6.67268">
        <ele>483</ele>
        <time>2015-09-27T08:41:19.000Z</time>
      </trkpt>
      <trkpt lat="47.55634" lon="6.67267">
        <ele>483</ele>
        <time>2015-09-27T08:41:20.000Z</time>
      </trkpt>
      <trkpt lat="47.55637" lon="6.67264">
        <ele>483</ele>
        <time>2015-09-27T08:41:22.000Z</time>
      </trkpt>
      <trkpt lat="47.55639" lon="6.67263">
        <ele>484</ele>
        <time>2015-09-27T08:41:23.000Z</time>
      </trkpt>
      <trkpt lat="47.55642" lon="6.67261">
        <ele>484</ele>
        <time>2015-09-27T08:41:25.000Z</time>
      </trkpt>
      <trkpt lat="47.55644" lon="6.6726">
        <ele>484</ele>
        <time>2015-09-27T08:41:26.000Z</time>
      </trkpt>
      <trkpt lat="47.55646" lon="6.67259">
        <ele>484</ele>
        <time>2015-09-27T08:41:27.000Z</time>
      </trkpt>
      <trkpt lat="47.55648" lon="6.67257">
        <ele>485</ele>
        <time>2015-09-27T08:41:28.000Z</time>
      </trkpt>
      <trkpt lat="47.5565" lon="6.67256">
        <ele>485</ele>
        <time>2015-09-27T08:41:29.000Z</time>
      </trkpt>
      <trkpt lat="47.55652" lon="6.67254">
        <ele>485</ele>
        <time>2015-09-27T08:41:30.000Z</time>
      </trkpt>
      <trkpt lat="47.55655" lon="6.67252">
        <ele>486</ele>
        <time>2015-09-27T08:41:32.000Z</time>
      </trkpt>
      <trkpt lat="47.55657" lon="6.67251">
        <ele>487</ele>
        <time>2015-09-27T08:41:33.000Z</time>
      </trkpt>
      <trkpt lat="47.55661" lon="6.67249">
        <ele>489</ele>
        <time>2015-09-27T08:41:35.000Z</time>
      </trkpt>
      <trkpt lat="47.55662" lon="6.67248">
        <ele>489</ele>
        <time>2015-09-27T08:41:36.000Z</time>
      </trkpt>
      <trkpt lat="47.55666" lon="6.67246">
        <ele>489</ele>
        <time>2015-09-27T08:41:39.000Z</time>
      </trkpt>
      <trkpt lat="47.55667" lon="6.67246">
        <ele>490</ele>
        <time>2015-09-27T08:41:40.000Z</time>
      </trkpt>
      <trkpt lat="47.55672" lon="6.67246">
        <ele>491</ele>
        <time>2015-09-27T08:41:44.000Z</time>
      </trkpt>
      <trkpt lat="47.55673" lon="6.67246">
        <ele>491</ele>
        <time>2015-09-27T08:41:45.000Z</time>
      </trkpt>
      <trkpt lat="47.55677" lon="6.67245">
        <ele>492</ele>
        <time>2015-09-27T08:41:48.000Z</time>
      </trkpt>
      <trkpt lat="47.55678" lon="6.67244">
        <ele>492</ele>
        <time>2015-09-27T08:41:49.000Z</time>
      </trkpt>
      <trkpt lat="47.55681" lon="6.67242">
        <ele>493</ele>
        <time>2015-09-27T08:41:51.000Z</time>
      </trkpt>
      <trkpt lat="47.55682" lon="6.67241">
        <ele>493</ele>
        <time>2015-09-27T08:41:52.000Z</time>
      </trkpt>
      <trkpt lat="47.55685" lon="6.67239">
        <ele>494</ele>
        <time>2015-09-27T08:41:54.000Z</time>
      </trkpt>
      <trkpt lat="47.55686" lon="6.67238">
        <ele>494</ele>
        <time>2015-09-27T08:41:55.000Z</time>
      </trkpt>
      <trkpt lat="47.5569" lon="6.67235">
        <ele>494</ele>
        <time>2015-09-27T08:41:58.000Z</time>
      </trkpt>
      <trkpt lat="47.55692" lon="6.67234">
        <ele>495</ele>
        <time>2015-09-27T08:41:59.000Z</time>
      </trkpt>
      <trkpt lat="47.55695" lon="6.67231">
        <ele>495</ele>
        <time>2015-09-27T08:42:02.000Z</time>
      </trkpt>
      <trkpt lat="47.55696" lon="6.6723">
        <ele>495</ele>
        <time>2015-09-27T08:42:03.000Z</time>
      </trkpt>
      <trkpt lat="47.55699" lon="6.67227">
        <ele>495</ele>
        <time>2015-09-27T08:42:06.000Z</time>
      </trkpt>
      <trkpt lat="47.557" lon="6.67226">
        <ele>496</ele>
        <time>2015-09-27T08:42:07.000Z</time>
      </trkpt>
      <trkpt lat="47.55704" lon="6.67223">
        <ele>496</ele>
        <time>2015-09-27T08:42:10.000Z</time>
      </trkpt>
      <trkpt lat="47.55705" lon="6.67222">
        <ele>496</ele>
        <time>2015-09-27T08:42:11.000Z</time>
      </trkpt>
      <trkpt lat="47.55708" lon="6.67219">
        <ele>496</ele>
        <time>2015-09-27T08:42:14.000Z</time>
      </trkpt>
      <trkpt lat="47.55708" lon="6.67218">
        <ele>496</ele>
        <time>2015-09-27T08:42:15.000Z</time>
      </trkpt>
      <trkpt lat="47.55711" lon="6.67213">
        <ele>497</ele>
        <time>2015-09-27T08:42:19.000Z</time>
      </trkpt>
      <trkpt lat="47.55712" lon="6.67212">
        <ele>497</ele>
        <time>2015-09-27T08:42:20.000Z</time>
      </trkpt>
      <trkpt lat="47.55714" lon="6.67209">
        <ele>497</ele>
        <time>2015-09-27T08:42:23.000Z</time>
      </trkpt>
      <trkpt lat="47.55715" lon="6.67207">
        <ele>497</ele>
        <time>2015-09-27T08:42:24.000Z</time>
      </trkpt>
      <trkpt lat="47.55717" lon="6.67204">
        <ele>498</ele>
        <time>2015-09-27T08:42:26.000Z</time>
      </trkpt>
      <trkpt lat="47.55718" lon="6.67203">
        <ele>498</ele>
        <time>2015-09-27T08:42:27.000Z</time>
      </trkpt>
      <trkpt lat="47.55722" lon="6.67199">
        <ele>498</ele>
        <time>2015-09-27T08:42:31.000Z</time>
      </trkpt>
      <trkpt lat="47.55722" lon="6.67198">
        <ele>498</ele>
        <time>2015-09-27T08:42:32.000Z</time>
      </trkpt>
      <trkpt lat="47.55723" lon="6.67192">
        <ele>499</ele>
        <time>2015-09-27T08:42:40.000Z</time>
      </trkpt>
      <trkpt lat="47.55722" lon="6.67191">
        <ele>499</ele>
        <time>2015-09-27T08:42:41.000Z</time>
      </trkpt>
      <trkpt lat="47.55721" lon="6.67185">
        <ele>499</ele>
        <time>2015-09-27T08:42:45.000Z</time>
      </trkpt>
      <trkpt lat="47.55721" lon="6.67183">
        <ele>499</ele>
        <time>2015-09-27T08:42:46.000Z</time>
      </trkpt>
      <trkpt lat="47.5572" lon="6.67178">
        <ele>500</ele>
        <time>2015-09-27T08:42:49.000Z</time>
      </trkpt>
      <trkpt lat="47.55721" lon="6.67176">
        <ele>500</ele>
        <time>2015-09-27T08:42:50.000Z</time>
      </trkpt>
      <trkpt lat="47.55722" lon="6.67171">
        <ele>500</ele>
        <time>2015-09-27T08:42:54.000Z</time>
      </trkpt>
      <trkpt lat="47.55723" lon="6.6717">
        <ele>500</ele>
        <time>2015-09-27T08:42:55.000Z</time>
      </trkpt>
      <trkpt lat="47.55725" lon="6.67165">
        <ele>505</ele>
        <time>2015-09-27T08:42:58.000Z</time>
      </trkpt>
      <trkpt lat="47.55726" lon="6.67163">
        <ele>505</ele>
        <time>2015-09-27T08:42:59.000Z</time>
      </trkpt>
      <trkpt lat="47.55727" lon="6.67159">
        <ele>505</ele>
        <time>2015-09-27T08:43:01.000Z</time>
      </trkpt>
      <trkpt lat="47.55728" lon="6.67157">
        <ele>505</ele>
        <time>2015-09-27T08:43:02.000Z</time>
      </trkpt>
      <trkpt lat="47.5573" lon="6.67152">
        <ele>505</ele>
        <time>2015-09-27T08:43:04.000Z</time>
      </trkpt>
      <trkpt lat="47.55732" lon="6.67149">
        <ele>506</ele>
        <time>2015-09-27T08:43:05.000Z</time>
      </trkpt>
      <trkpt lat="47.55733" lon="6.67146">
        <ele>506</ele>
        <time>2015-09-27T08:43:06.000Z</time>
      </trkpt>
      <trkpt lat="47.55735" lon="6.67142">
        <ele>506</ele>
        <time>2015-09-27T08:43:07.000Z</time>
      </trkpt>
      <trkpt lat="47.55737" lon="6.67139">
        <ele>506</ele>
        <time>2015-09-27T08:43:08.000Z</time>
      </trkpt>
      <trkpt lat="47.55739" lon="6.67136">
        <ele>506</ele>
        <time>2015-09-27T08:43:09.000Z</time>
      </trkpt>
      <trkpt lat="47.55741" lon="6.67133">
        <ele>506</ele>
        <time>2015-09-27T08:43:10.000Z</time>
      </trkpt>
      <trkpt lat="47.55744" lon="6.67129">
        <ele>506</ele>
        <time>2015-09-27T08:43:11.000Z</time>
      </trkpt>
      <trkpt lat="47.55746" lon="6.67127">
        <ele>507</ele>
        <time>2015-09-27T08:43:12.000Z</time>
      </trkpt>
      <trkpt lat="47.55748" lon="6.67124">
        <ele>507</ele>
        <time>2015-09-27T08:43:13.000Z</time>
      </trkpt>
      <trkpt lat="47.55751" lon="6.67121">
        <ele>507</ele>
        <time>2015-09-27T08:43:14.000Z</time>
      </trkpt>
      <trkpt lat="47.55753" lon="6.67118">
        <ele>507</ele>
        <time>2015-09-27T08:43:15.000Z</time>
      </trkpt>
      <trkpt lat="47.55755" lon="6.67116">
        <ele>507</ele>
        <time>2015-09-27T08:43:16.000Z</time>
      </trkpt>
      <trkpt lat="47.55756" lon="6.67113">
        <ele>507</ele>
        <time>2015-09-27T08:43:17.000Z</time>
      </trkpt>
      <trkpt lat="47.5576" lon="6.6711">
        <ele>507</ele>
        <time>2015-09-27T08:43:19.000Z</time>
      </trkpt>
      <trkpt lat="47.55762" lon="6.67108">
        <ele>507</ele>
        <time>2015-09-27T08:43:20.000Z</time>
      </trkpt>
      <trkpt lat="47.55764" lon="6.67106">
        <ele>507</ele>
        <time>2015-09-27T08:43:21.000Z</time>
      </trkpt>
      <trkpt lat="47.55766" lon="6.67104">
        <ele>507</ele>
        <time>2015-09-27T08:43:22.000Z</time>
      </trkpt>
      <trkpt lat="47.55767" lon="6.67102">
        <ele>507</ele>
        <time>2015-09-27T08:43:23.000Z</time>
      </trkpt>
      <trkpt lat="47.55769" lon="6.671">
        <ele>507</ele>
        <time>2015-09-27T08:43:24.000Z</time>
      </trkpt>
      <trkpt lat="47.55773" lon="6.67096">
        <ele>507</ele>
        <time>2015-09-27T08:43:26.000Z</time>
      </trkpt>
      <trkpt lat="47.55774" lon="6.67094">
        <ele>507</ele>
        <time>2015-09-27T08:43:27.000Z</time>
      </trkpt>
      <trkpt lat="47.55777" lon="6.6709">
        <ele>507</ele>
        <time>2015-09-27T08:43:29.000Z</time>
      </trkpt>
      <trkpt lat="47.55778" lon="6.67089">
        <ele>507</ele>
        <time>2015-09-27T08:43:30.000Z</time>
      </trkpt>
      <trkpt lat="47.5578" lon="6.67085">
        <ele>507</ele>
        <time>2015-09-27T08:43:32.000Z</time>
      </trkpt>
      <trkpt lat="47.5578" lon="6.67083">
        <ele>505</ele>
        <time>2015-09-27T08:43:33.000Z</time>
      </trkpt>
      <trkpt lat="47.55783" lon="6.67078">
        <ele>504</ele>
        <time>2015-09-27T08:43:36.000Z</time>
      </trkpt>
      <trkpt lat="47.55783" lon="6.67076">
        <ele>504</ele>
        <time>2015-09-27T08:43:37.000Z</time>
      </trkpt>
      <trkpt lat="47.55784" lon="6.6707">
        <ele>504</ele>
        <time>2015-09-27T08:43:41.000Z</time>
      </trkpt>
      <trkpt lat="47.55784" lon="6.67068">
        <ele>504</ele>
        <time>2015-09-27T08:43:42.000Z</time>
      </trkpt>
      <trkpt lat="47.55782" lon="6.67063">
        <ele>503</ele>
        <time>2015-09-27T08:43:46.000Z</time>
      </trkpt>
      <trkpt lat="47.55781" lon="6.67062">
        <ele>504</ele>
        <time>2015-09-27T08:43:47.000Z</time>
      </trkpt>
      <trkpt lat="47.55778" lon="6.67059">
        <ele>504</ele>
        <time>2015-09-27T08:43:50.000Z</time>
      </trkpt>
      <trkpt lat="47.55777" lon="6.67058">
        <ele>504</ele>
        <time>2015-09-27T08:43:51.000Z</time>
      </trkpt>
      <trkpt lat="47.55773" lon="6.67054">
        <ele>504</ele>
        <time>2015-09-27T08:43:54.000Z</time>
      </trkpt>
      <trkpt lat="47.55772" lon="6.67053">
        <ele>504</ele>
        <time>2015-09-27T08:43:55.000Z</time>
      </trkpt>
      <trkpt lat="47.55769" lon="6.67052">
        <ele>504</ele>
        <time>2015-09-27T08:43:57.000Z</time>
      </trkpt>
      <trkpt lat="47.55768" lon="6.6705">
        <ele>504</ele>
        <time>2015-09-27T08:43:58.000Z</time>
      </trkpt>
      <trkpt lat="47.55765" lon="6.67047">
        <ele>504</ele>
        <time>2015-09-27T08:44:00.000Z</time>
      </trkpt>
      <trkpt lat="47.55764" lon="6.67046">
        <ele>504</ele>
        <time>2015-09-27T08:44:01.000Z</time>
      </trkpt>
      <trkpt lat="47.5576" lon="6.67043">
        <ele>504</ele>
        <time>2015-09-27T08:44:03.000Z</time>
      </trkpt>
      <trkpt lat="47.55759" lon="6.67042">
        <ele>504</ele>
        <time>2015-09-27T08:44:04.000Z</time>
      </trkpt>
      <trkpt lat="47.55755" lon="6.67041">
        <ele>504</ele>
        <time>2015-09-27T08:44:06.000Z</time>
      </trkpt>
      <trkpt lat="47.55754" lon="6.6704">
        <ele>504</ele>
        <time>2015-09-27T08:44:07.000Z</time>
      </trkpt>
      <trkpt lat="47.5575" lon="6.67038">
        <ele>504</ele>
        <time>2015-09-27T08:44:09.000Z</time>
      </trkpt>
      <trkpt lat="47.55748" lon="6.67037">
        <ele>508</ele>
        <time>2015-09-27T08:44:10.000Z</time>
      </trkpt>
      <trkpt lat="47.55744" lon="6.67036">
        <ele>508</ele>
        <time>2015-09-27T08:44:12.000Z</time>
      </trkpt>
      <trkpt lat="47.55743" lon="6.67035">
        <ele>508</ele>
        <time>2015-09-27T08:44:13.000Z</time>
      </trkpt>
      <trkpt lat="47.55738" lon="6.67033">
        <ele>508</ele>
        <time>2015-09-27T08:44:15.000Z</time>
      </trkpt>
      <trkpt lat="47.55736" lon="6.67032">
        <ele>508</ele>
        <time>2015-09-27T08:44:16.000Z</time>
      </trkpt>
      <trkpt lat="47.55734" lon="6.6703">
        <ele>508</ele>
        <time>2015-09-27T08:44:17.000Z</time>
      </trkpt>
      <trkpt lat="47.55731" lon="6.67028">
        <ele>508</ele>
        <time>2015-09-27T08:44:18.000Z</time>
      </trkpt>
      <trkpt lat="47.55729" lon="6.67026">
        <ele>508</ele>
        <time>2015-09-27T08:44:19.000Z</time>
      </trkpt>
      <trkpt lat="47.55727" lon="6.67024">
        <ele>508</ele>
        <time>2015-09-27T08:44:20.000Z</time>
      </trkpt>
      <trkpt lat="47.55724" lon="6.67022">
        <ele>508</ele>
        <time>2015-09-27T08:44:21.000Z</time>
      </trkpt>
      <trkpt lat="47.55723" lon="6.6702">
        <ele>508</ele>
        <time>2015-09-27T08:44:22.000Z</time>
      </trkpt>
      <trkpt lat="47.55722" lon="6.67014">
        <ele>508</ele>
        <time>2015-09-27T08:44:25.000Z</time>
      </trkpt>
      <trkpt lat="47.55723" lon="6.67012">
        <ele>508</ele>
        <time>2015-09-27T08:44:26.000Z</time>
      </trkpt>
      <trkpt lat="47.55722" lon="6.67007">
        <ele>507</ele>
        <time>2015-09-27T08:44:29.000Z</time>
      </trkpt>
      <trkpt lat="47.55722" lon="6.67005">
        <ele>507</ele>
        <time>2015-09-27T08:44:30.000Z</time>
      </trkpt>
      <trkpt lat="47.55722" lon="6.66999">
        <ele>503</ele>
        <time>2015-09-27T08:44:33.000Z</time>
      </trkpt>
      <trkpt lat="47.55722" lon="6.66997">
        <ele>503</ele>
        <time>2015-09-27T08:44:34.000Z</time>
      </trkpt>
      <trkpt lat="47.55722" lon="6.66991">
        <ele>503</ele>
        <time>2015-09-27T08:44:37.000Z</time>
      </trkpt>
      <trkpt lat="47.55723" lon="6.66989">
        <ele>503</ele>
        <time>2015-09-27T08:44:38.000Z</time>
      </trkpt>
      <trkpt lat="47.55724" lon="6.66983">
        <ele>502</ele>
        <time>2015-09-27T08:45:48.000Z</time>
      </trkpt>
      <trkpt lat="47.55724" lon="6.66981">
        <ele>502</ele>
        <time>2015-09-27T08:45:49.000Z</time>
      </trkpt>
      <trkpt lat="47.55723" lon="6.66974">
        <ele>502</ele>
        <time>2015-09-27T08:46:11.000Z</time>
      </trkpt>
      <trkpt lat="47.55723" lon="6.66974">
        <ele>502</ele>
        <time>2015-09-27T08:46:12.000Z</time>
      </trkpt>
      <trkpt lat="47.55719" lon="6.66974">
        <ele>502</ele>
        <time>2015-09-27T08:51:51.000Z</time>
      </trkpt>
      <trkpt lat="47.55717" lon="6.66974">
        <ele>502</ele>
        <time>2015-09-27T08:51:52.000Z</time>
      </trkpt>
      <trkpt lat="47.55714" lon="6.66974">
        <ele>502</ele>
        <time>2015-09-27T08:51:53.000Z</time>
      </trkpt>
      <trkpt lat="47.55712" lon="6.66974">
        <ele>502</ele>
        <time>2015-09-27T08:51:54.000Z</time>
      </trkpt>
      <trkpt lat="47.55709" lon="6.66973">
        <ele>502</ele>
        <time>2015-09-27T08:51:55.000Z</time>
      </trkpt>
      <trkpt lat="47.55707" lon="6.66972">
        <ele>502</ele>
        <time>2015-09-27T08:51:56.000Z</time>
      </trkpt>
      <trkpt lat="47.55703" lon="6.6697">
        <ele>502</ele>
        <time>2015-09-27T08:51:58.000Z</time>
      </trkpt>
      <trkpt lat="47.55701" lon="6.66969">
        <ele>502</ele>
        <time>2015-09-27T08:51:59.000Z</time>
      </trkpt>
      <trkpt lat="47.55697" lon="6.66967">
        <ele>502</ele>
        <time>2015-09-27T08:52:01.000Z</time>
      </trkpt>
      <trkpt lat="47.55695" lon="6.66966">
        <ele>502</ele>
        <time>2015-09-27T08:52:02.000Z</time>
      </trkpt>
      <trkpt lat="47.55692" lon="6.66964">
        <ele>502</ele>
        <time>2015-09-27T08:52:03.000Z</time>
      </trkpt>
      <trkpt lat="47.55689" lon="6.66963">
        <ele>502</ele>
        <time>2015-09-27T08:52:04.000Z</time>
      </trkpt>
      <trkpt lat="47.55686" lon="6.66961">
        <ele>502</ele>
        <time>2015-09-27T08:52:05.000Z</time>
      </trkpt>
      <trkpt lat="47.55683" lon="6.6696">
        <ele>502</ele>
        <time>2015-09-27T08:52:06.000Z</time>
      </trkpt>
      <trkpt lat="47.5568" lon="6.66958">
        <ele>502</ele>
        <time>2015-09-27T08:52:07.000Z</time>
      </trkpt>
      <trkpt lat="47.55677" lon="6.66956">
        <ele>502</ele>
        <time>2015-09-27T08:52:08.000Z</time>
      </trkpt>
      <trkpt lat="47.55674" lon="6.66956">
        <ele>503</ele>
        <time>2015-09-27T08:52:09.000Z</time>
      </trkpt>
      <trkpt lat="47.55671" lon="6.66955">
        <ele>503</ele>
        <time>2015-09-27T08:52:10.000Z</time>
      </trkpt>
      <trkpt lat="47.55667" lon="6.66954">
        <ele>503</ele>
        <time>2015-09-27T08:52:11.000Z</time>
      </trkpt>
      <trkpt lat="47.55664" lon="6.66954">
        <ele>504</ele>
        <time>2015-09-27T08:52:12.000Z</time>
      </trkpt>
      <trkpt lat="47.5566" lon="6.66953">
        <ele>504</ele>
        <time>2015-09-27T08:52:13.000Z</time>
      </trkpt>
      <trkpt lat="47.55655" lon="6.66951">
        <ele>504</ele>
        <time>2015-09-27T08:52:14.000Z</time>
      </trkpt>
      <trkpt lat="47.5565" lon="6.66949">
        <ele>504</ele>
        <time>2015-09-27T08:52:15.000Z</time>
      </trkpt>
      <trkpt lat="47.55645" lon="6.66946">
        <ele>504</ele>
        <time>2015-09-27T08:52:16.000Z</time>
      </trkpt>
      <trkpt lat="47.55639" lon="6.66943">
        <ele>504</ele>
        <time>2015-09-27T08:52:17.000Z</time>
      </trkpt>
      <trkpt lat="47.55627" lon="6.66936">
        <ele>503</ele>
        <time>2015-09-27T08:52:18.000Z</time>
      </trkpt>
      <trkpt lat="47.55621" lon="6.66932">
        <ele>503</ele>
        <time>2015-09-27T08:52:19.000Z</time>
      </trkpt>
      <trkpt lat="47.55614" lon="6.66931">
        <ele>503</ele>
        <time>2015-09-27T08:52:20.000Z</time>
      </trkpt>
      <trkpt lat="47.55608" lon="6.66928">
        <ele>503</ele>
        <time>2015-09-27T08:52:21.000Z</time>
      </trkpt>
      <trkpt lat="47.55599" lon="6.66925">
        <ele>503</ele>
        <time>2015-09-27T08:52:22.000Z</time>
      </trkpt>
      <trkpt lat="47.55592" lon="6.66917">
        <ele>504</ele>
        <time>2015-09-27T08:52:23.000Z</time>
      </trkpt>
      <trkpt lat="47.55584" lon="6.66911">
        <ele>503</ele>
        <time>2015-09-27T08:52:24.000Z</time>
      </trkpt>
      <trkpt lat="47.55576" lon="6.66903">
        <ele>501</ele>
        <time>2015-09-27T08:52:25.000Z</time>
      </trkpt>
      <trkpt lat="47.55567" lon="6.66894">
        <ele>500</ele>
        <time>2015-09-27T08:52:26.000Z</time>
      </trkpt>
      <trkpt lat="47.55559" lon="6.66884">
        <ele>499</ele>
        <time>2015-09-27T08:52:27.000Z</time>
      </trkpt>
      <trkpt lat="47.55551" lon="6.66877">
        <ele>498</ele>
        <time>2015-09-27T08:52:28.000Z</time>
      </trkpt>
      <trkpt lat="47.55545" lon="6.66868">
        <ele>498</ele>
        <time>2015-09-27T08:52:29.000Z</time>
      </trkpt>
      <trkpt lat="47.5553" lon="6.6685">
        <ele>498</ele>
        <time>2015-09-27T08:52:31.000Z</time>
      </trkpt>
      <trkpt lat="47.55523" lon="6.6684">
        <ele>498</ele>
        <time>2015-09-27T08:52:32.000Z</time>
      </trkpt>
      <trkpt lat="47.55516" lon="6.66833">
        <ele>498</ele>
        <time>2015-09-27T08:52:33.000Z</time>
      </trkpt>
      <trkpt lat="47.5551" lon="6.66825">
        <ele>498</ele>
        <time>2015-09-27T08:52:34.000Z</time>
      </trkpt>
      <trkpt lat="47.55506" lon="6.66816">
        <ele>498</ele>
        <time>2015-09-27T08:52:35.000Z</time>
      </trkpt>
      <trkpt lat="47.55501" lon="6.66808">
        <ele>499</ele>
        <time>2015-09-27T08:52:36.000Z</time>
      </trkpt>
      <trkpt lat="47.55497" lon="6.66801">
        <ele>498</ele>
        <time>2015-09-27T08:52:37.000Z</time>
      </trkpt>
      <trkpt lat="47.55493" lon="6.66795">
        <ele>499</ele>
        <time>2015-09-27T08:52:38.000Z</time>
      </trkpt>
      <trkpt lat="47.55488" lon="6.66789">
        <ele>499</ele>
        <time>2015-09-27T08:52:39.000Z</time>
      </trkpt>
      <trkpt lat="47.55484" lon="6.66784">
        <ele>499</ele>
        <time>2015-09-27T08:52:40.000Z</time>
      </trkpt>
      <trkpt lat="47.5548" lon="6.66778">
        <ele>499</ele>
        <time>2015-09-27T08:52:41.000Z</time>
      </trkpt>
      <trkpt lat="47.55477" lon="6.66771">
        <ele>499</ele>
        <time>2015-09-27T08:52:42.000Z</time>
      </trkpt>
      <trkpt lat="47.55473" lon="6.66765">
        <ele>499</ele>
        <time>2015-09-27T08:52:43.000Z</time>
      </trkpt>
      <trkpt lat="47.5547" lon="6.66759">
        <ele>499</ele>
        <time>2015-09-27T08:52:44.000Z</time>
      </trkpt>
      <trkpt lat="47.55466" lon="6.66754">
        <ele>499</ele>
        <time>2015-09-27T08:52:45.000Z</time>
      </trkpt>
      <trkpt lat="47.55463" lon="6.66747">
        <ele>501</ele>
        <time>2015-09-27T08:52:46.000Z</time>
      </trkpt>
      <trkpt lat="47.5546" lon="6.6674">
        <ele>501</ele>
        <time>2015-09-27T08:52:47.000Z</time>
      </trkpt>
      <trkpt lat="47.55456" lon="6.66733">
        <ele>500</ele>
        <time>2015-09-27T08:52:48.000Z</time>
      </trkpt>
      <trkpt lat="47.55452" lon="6.66729">
        <ele>500</ele>
        <time>2015-09-27T08:52:49.000Z</time>
      </trkpt>
      <trkpt lat="47.55447" lon="6.66724">
        <ele>500</ele>
        <time>2015-09-27T08:52:49.999Z</time>
      </trkpt>
      <trkpt lat="47.55444" lon="6.66718">
        <ele>500</ele>
        <time>2015-09-27T08:52:51.000Z</time>
      </trkpt>
      <trkpt lat="47.55441" lon="6.66711">
        <ele>500</ele>
        <time>2015-09-27T08:52:52.000Z</time>
      </trkpt>
      <trkpt lat="47.55437" lon="6.66705">
        <ele>500</ele>
        <time>2015-09-27T08:52:52.999Z</time>
      </trkpt>
      <trkpt lat="47.55435" lon="6.66698">
        <ele>500</ele>
        <time>2015-09-27T08:52:54.000Z</time>
      </trkpt>
      <trkpt lat="47.55431" lon="6.66691">
        <ele>501</ele>
        <time>2015-09-27T08:52:55.000Z</time>
      </trkpt>
      <trkpt lat="47.55426" lon="6.66686">
        <ele>501</ele>
        <time>2015-09-27T08:52:56.000Z</time>
      </trkpt>
      <trkpt lat="47.55423" lon="6.66681">
        <ele>501</ele>
        <time>2015-09-27T08:52:57.000Z</time>
      </trkpt>
      <trkpt lat="47.5542" lon="6.66675">
        <ele>501</ele>
        <time>2015-09-27T08:52:58.000Z</time>
      </trkpt>
      <trkpt lat="47.55417" lon="6.66671">
        <ele>502</ele>
        <time>2015-09-27T08:52:59.000Z</time>
      </trkpt>
      <trkpt lat="47.55414" lon="6.66666">
        <ele>502</ele>
        <time>2015-09-27T08:53:00.000Z</time>
      </trkpt>
      <trkpt lat="47.5541" lon="6.66661">
        <ele>501</ele>
        <time>2015-09-27T08:53:01.000Z</time>
      </trkpt>
      <trkpt lat="47.55405" lon="6.66654">
        <ele>501</ele>
        <time>2015-09-27T08:53:02.000Z</time>
      </trkpt>
      <trkpt lat="47.55401" lon="6.66648">
        <ele>501</ele>
        <time>2015-09-27T08:53:03.000Z</time>
      </trkpt>
      <trkpt lat="47.55397" lon="6.66644">
        <ele>501</ele>
        <time>2015-09-27T08:53:04.000Z</time>
      </trkpt>
      <trkpt lat="47.55394" lon="6.66639">
        <ele>501</ele>
        <time>2015-09-27T08:53:05.000Z</time>
      </trkpt>
      <trkpt lat="47.55392" lon="6.66634">
        <ele>501</ele>
        <time>2015-09-27T08:53:06.000Z</time>
      </trkpt>
      <trkpt lat="47.55389" lon="6.6663">
        <ele>501</ele>
        <time>2015-09-27T08:53:07.000Z</time>
      </trkpt>
      <trkpt lat="47.55386" lon="6.66625">
        <ele>501</ele>
        <time>2015-09-27T08:53:08.000Z</time>
      </trkpt>
      <trkpt lat="47.55383" lon="6.66619">
        <ele>501</ele>
        <time>2015-09-27T08:53:09.000Z</time>
      </trkpt>
      <trkpt lat="47.55381" lon="6.66612">
        <ele>501</ele>
        <time>2015-09-27T08:53:10.000Z</time>
      </trkpt>
      <trkpt lat="47.55379" lon="6.66607">
        <ele>501</ele>
        <time>2015-09-27T08:53:11.000Z</time>
      </trkpt>
      <trkpt lat="47.55377" lon="6.66602">
        <ele>501</ele>
        <time>2015-09-27T08:53:12.000Z</time>
      </trkpt>
      <trkpt lat="47.55376" lon="6.66596">
        <ele>501</ele>
        <time>2015-09-27T08:53:13.000Z</time>
      </trkpt>
      <trkpt lat="47.55374" lon="6.6659">
        <ele>501</ele>
        <time>2015-09-27T08:53:14.000Z</time>
      </trkpt>
      <trkpt lat="47.55373" lon="6.66584">
        <ele>501</ele>
        <time>2015-09-27T08:53:15.000Z</time>
      </trkpt>
      <trkpt lat="47.55371" lon="6.66579">
        <ele>501</ele>
        <time>2015-09-27T08:53:16.000Z</time>
      </trkpt>
      <trkpt lat="47.55369" lon="6.66573">
        <ele>501</ele>
        <time>2015-09-27T08:53:17.000Z</time>
      </trkpt>
      <trkpt lat="47.55367" lon="6.66567">
        <ele>501</ele>
        <time>2015-09-27T08:53:18.000Z</time>
      </trkpt>
      <trkpt lat="47.55364" lon="6.66563">
        <ele>501</ele>
        <time>2015-09-27T08:53:19.000Z</time>
      </trkpt>
      <trkpt lat="47.55361" lon="6.66559">
        <ele>501</ele>
        <time>2015-09-27T08:53:20.000Z</time>
      </trkpt>
      <trkpt lat="47.55357" lon="6.66555">
        <ele>501</ele>
        <time>2015-09-27T08:53:21.000Z</time>
      </trkpt>
      <trkpt lat="47.55353" lon="6.66551">
        <ele>501</ele>
        <time>2015-09-27T08:53:22.000Z</time>
      </trkpt>
      <trkpt lat="47.55349" lon="6.66548">
        <ele>501</ele>
        <time>2015-09-27T08:53:23.000Z</time>
      </trkpt>
      <trkpt lat="47.55345" lon="6.66545">
        <ele>502</ele>
        <time>2015-09-27T08:53:24.000Z</time>
      </trkpt>
      <trkpt lat="47.55342" lon="6.66541">
        <ele>502</ele>
        <time>2015-09-27T08:53:25.000Z</time>
      </trkpt>
      <trkpt lat="47.55339" lon="6.66538">
        <ele>502</ele>
        <time>2015-09-27T08:53:26.000Z</time>
      </trkpt>
      <trkpt lat="47.55337" lon="6.66534">
        <ele>502</ele>
        <time>2015-09-27T08:53:27.000Z</time>
      </trkpt>
      <trkpt lat="47.55335" lon="6.6653">
        <ele>503</ele>
        <time>2015-09-27T08:53:28.000Z</time>
      </trkpt>
      <trkpt lat="47.55333" lon="6.66526">
        <ele>503</ele>
        <time>2015-09-27T08:53:29.000Z</time>
      </trkpt>
      <trkpt lat="47.5533" lon="6.66519">
        <ele>505</ele>
        <time>2015-09-27T08:53:31.000Z</time>
      </trkpt>
      <trkpt lat="47.55329" lon="6.66515">
        <ele>506</ele>
        <time>2015-09-27T08:53:32.000Z</time>
      </trkpt>
      <trkpt lat="47.55327" lon="6.66511">
        <ele>506</ele>
        <time>2015-09-27T08:53:33.000Z</time>
      </trkpt>
      <trkpt lat="47.55326" lon="6.66508">
        <ele>506</ele>
        <time>2015-09-27T08:53:34.000Z</time>
      </trkpt>
      <trkpt lat="47.55324" lon="6.66505">
        <ele>506</ele>
        <time>2015-09-27T08:53:35.000Z</time>
      </trkpt>
      <trkpt lat="47.55323" lon="6.66501">
        <ele>506</ele>
        <time>2015-09-27T08:53:37.000Z</time>
      </trkpt>
      <trkpt lat="47.55322" lon="6.66499">
        <ele>507</ele>
        <time>2015-09-27T08:53:38.000Z</time>
      </trkpt>
      <trkpt lat="47.55321" lon="6.66495">
        <ele>508</ele>
        <time>2015-09-27T08:53:40.000Z</time>
      </trkpt>
      <trkpt lat="47.55319" lon="6.66492">
        <ele>508</ele>
        <time>2015-09-27T08:53:41.000Z</time>
      </trkpt>
      <trkpt lat="47.55318" lon="6.6649">
        <ele>508</ele>
        <time>2015-09-27T08:53:42.000Z</time>
      </trkpt>
      <trkpt lat="47.55317" lon="6.66487">
        <ele>508</ele>
        <time>2015-09-27T08:53:43.000Z</time>
      </trkpt>
      <trkpt lat="47.55315" lon="6.66483">
        <ele>508</ele>
        <time>2015-09-27T08:53:44.000Z</time>
      </trkpt>
      <trkpt lat="47.55314" lon="6.6648">
        <ele>508</ele>
        <time>2015-09-27T08:53:45.000Z</time>
      </trkpt>
      <trkpt lat="47.55312" lon="6.66477">
        <ele>508</ele>
        <time>2015-09-27T08:53:46.000Z</time>
      </trkpt>
      <trkpt lat="47.55311" lon="6.66474">
        <ele>508</ele>
        <time>2015-09-27T08:53:47.000Z</time>
      </trkpt>
      <trkpt lat="47.55309" lon="6.66471">
        <ele>508</ele>
        <time>2015-09-27T08:53:48.000Z</time>
      </trkpt>
      <trkpt lat="47.55307" lon="6.66467">
        <ele>508</ele>
        <time>2015-09-27T08:53:49.000Z</time>
      </trkpt>
      <trkpt lat="47.55306" lon="6.66464">
        <ele>508</ele>
        <time>2015-09-27T08:53:50.000Z</time>
      </trkpt>
      <trkpt lat="47.55304" lon="6.66461">
        <ele>508</ele>
        <time>2015-09-27T08:53:51.000Z</time>
      </trkpt>
      <trkpt lat="47.55301" lon="6.66456">
        <ele>508</ele>
        <time>2015-09-27T08:53:53.000Z</time>
      </trkpt>
      <trkpt lat="47.553" lon="6.66454">
        <ele>508</ele>
        <time>2015-09-27T08:53:54.000Z</time>
      </trkpt>
      <trkpt lat="47.55298" lon="6.66449">
        <ele>508</ele>
        <time>2015-09-27T08:53:56.000Z</time>
      </trkpt>
      <trkpt lat="47.55297" lon="6.66447">
        <ele>509</ele>
        <time>2015-09-27T08:53:57.000Z</time>
      </trkpt>
      <trkpt lat="47.55296" lon="6.66441">
        <ele>509</ele>
        <time>2015-09-27T08:53:59.000Z</time>
      </trkpt>
      <trkpt lat="47.55295" lon="6.66438">
        <ele>509</ele>
        <time>2015-09-27T08:54:00.000Z</time>
      </trkpt>
      <trkpt lat="47.55294" lon="6.66432">
        <ele>509</ele>
        <time>2015-09-27T08:54:02.000Z</time>
      </trkpt>
      <trkpt lat="47.55293" lon="6.66429">
        <ele>509</ele>
        <time>2015-09-27T08:54:03.000Z</time>
      </trkpt>
      <trkpt lat="47.55291" lon="6.66424">
        <ele>509</ele>
        <time>2015-09-27T08:54:05.000Z</time>
      </trkpt>
      <trkpt lat="47.55289" lon="6.66422">
        <ele>509</ele>
        <time>2015-09-27T08:54:06.000Z</time>
      </trkpt>
      <trkpt lat="47.55288" lon="6.66418">
        <ele>509</ele>
        <time>2015-09-27T08:54:07.000Z</time>
      </trkpt>
      <trkpt lat="47.55286" lon="6.66415">
        <ele>509</ele>
        <time>2015-09-27T08:54:08.000Z</time>
      </trkpt>
      <trkpt lat="47.55285" lon="6.66411">
        <ele>509</ele>
        <time>2015-09-27T08:54:09.000Z</time>
      </trkpt>
      <trkpt lat="47.55284" lon="6.66408">
        <ele>509</ele>
        <time>2015-09-27T08:54:10.000Z</time>
      </trkpt>
      <trkpt lat="47.55282" lon="6.66403">
        <ele>509</ele>
        <time>2015-09-27T08:54:12.000Z</time>
      </trkpt>
      <trkpt lat="47.55282" lon="6.66401">
        <ele>509</ele>
        <time>2015-09-27T08:54:13.000Z</time>
      </trkpt>
      <trkpt lat="47.55279" lon="6.66398">
        <ele>509</ele>
        <time>2015-09-27T08:54:15.000Z</time>
      </trkpt>
      <trkpt lat="47.55278" lon="6.66396">
        <ele>509</ele>
        <time>2015-09-27T08:54:16.000Z</time>
      </trkpt>
      <trkpt lat="47.55276" lon="6.66392">
        <ele>509</ele>
        <time>2015-09-27T08:54:18.000Z</time>
      </trkpt>
      <trkpt lat="47.55275" lon="6.66389">
        <ele>509</ele>
        <time>2015-09-27T08:54:19.000Z</time>
      </trkpt>
      <trkpt lat="47.55273" lon="6.66383">
        <ele>509</ele>
        <time>2015-09-27T08:54:21.000Z</time>
      </trkpt>
      <trkpt lat="47.55272" lon="6.6638">
        <ele>509</ele>
        <time>2015-09-27T08:54:22.000Z</time>
      </trkpt>
      <trkpt lat="47.55271" lon="6.66376">
        <ele>509</ele>
        <time>2015-09-27T08:54:23.000Z</time>
      </trkpt>
      <trkpt lat="47.5527" lon="6.66372">
        <ele>509</ele>
        <time>2015-09-27T08:54:24.000Z</time>
      </trkpt>
      <trkpt lat="47.55268" lon="6.66368">
        <ele>509</ele>
        <time>2015-09-27T08:54:25.000Z</time>
      </trkpt>
      <trkpt lat="47.55265" lon="6.66364">
        <ele>509</ele>
        <time>2015-09-27T08:54:26.000Z</time>
      </trkpt>
      <trkpt lat="47.55263" lon="6.66359">
        <ele>510</ele>
        <time>2015-09-27T08:54:27.000Z</time>
      </trkpt>
      <trkpt lat="47.55261" lon="6.66355">
        <ele>510</ele>
        <time>2015-09-27T08:54:28.000Z</time>
      </trkpt>
      <trkpt lat="47.55259" lon="6.66351">
        <ele>510</ele>
        <time>2015-09-27T08:54:29.000Z</time>
      </trkpt>
      <trkpt lat="47.55256" lon="6.66344">
        <ele>511</ele>
        <time>2015-09-27T08:54:31.000Z</time>
      </trkpt>
      <trkpt lat="47.55255" lon="6.66341">
        <ele>512</ele>
        <time>2015-09-27T08:54:32.000Z</time>
      </trkpt>
      <trkpt lat="47.55253" lon="6.66338">
        <ele>513</ele>
        <time>2015-09-27T08:54:33.000Z</time>
      </trkpt>
      <trkpt lat="47.55252" lon="6.66335">
        <ele>513</ele>
        <time>2015-09-27T08:54:34.000Z</time>
      </trkpt>
      <trkpt lat="47.5525" lon="6.66333">
        <ele>514</ele>
        <time>2015-09-27T08:54:35.000Z</time>
      </trkpt>
      <trkpt lat="47.55247" lon="6.66328">
        <ele>513</ele>
        <time>2015-09-27T08:54:37.000Z</time>
      </trkpt>
      <trkpt lat="47.55246" lon="6.66325">
        <ele>513</ele>
        <time>2015-09-27T08:54:38.000Z</time>
      </trkpt>
      <trkpt lat="47.55244" lon="6.66323">
        <ele>513</ele>
        <time>2015-09-27T08:54:39.000Z</time>
      </trkpt>
      <trkpt lat="47.55242" lon="6.66321">
        <ele>513</ele>
        <time>2015-09-27T08:54:40.000Z</time>
      </trkpt>
      <trkpt lat="47.5524" lon="6.66318">
        <ele>513</ele>
        <time>2015-09-27T08:54:41.000Z</time>
      </trkpt>
      <trkpt lat="47.55237" lon="6.66315">
        <ele>513</ele>
        <time>2015-09-27T08:54:42.000Z</time>
      </trkpt>
      <trkpt lat="47.55234" lon="6.66311">
        <ele>512</ele>
        <time>2015-09-27T08:54:43.000Z</time>
      </trkpt>
      <trkpt lat="47.55231" lon="6.66306">
        <ele>512</ele>
        <time>2015-09-27T08:54:44.000Z</time>
      </trkpt>
      <trkpt lat="47.55228" lon="6.66301">
        <ele>512</ele>
        <time>2015-09-27T08:54:45.000Z</time>
      </trkpt>
      <trkpt lat="47.55225" lon="6.66297">
        <ele>512</ele>
        <time>2015-09-27T08:54:46.000Z</time>
      </trkpt>
      <trkpt lat="47.55223" lon="6.66293">
        <ele>512</ele>
        <time>2015-09-27T08:54:47.000Z</time>
      </trkpt>
      <trkpt lat="47.55221" lon="6.66289">
        <ele>512</ele>
        <time>2015-09-27T08:54:48.000Z</time>
      </trkpt>
      <trkpt lat="47.55219" lon="6.66286">
        <ele>512</ele>
        <time>2015-09-27T08:54:49.000Z</time>
      </trkpt>
      <trkpt lat="47.55215" lon="6.66283">
        <ele>512</ele>
        <time>2015-09-27T08:54:50.000Z</time>
      </trkpt>
      <trkpt lat="47.55212" lon="6.66279">
        <ele>512</ele>
        <time>2015-09-27T08:54:51.000Z</time>
      </trkpt>
      <trkpt lat="47.55209" lon="6.66276">
        <ele>512</ele>
        <time>2015-09-27T08:54:52.000Z</time>
      </trkpt>
      <trkpt lat="47.55206" lon="6.66273">
        <ele>512</ele>
        <time>2015-09-27T08:54:53.000Z</time>
      </trkpt>
      <trkpt lat="47.55203" lon="6.6627">
        <ele>512</ele>
        <time>2015-09-27T08:54:54.000Z</time>
      </trkpt>
      <trkpt lat="47.55201" lon="6.66266">
        <ele>512</ele>
        <time>2015-09-27T08:54:55.000Z</time>
      </trkpt>
      <trkpt lat="47.55198" lon="6.66263">
        <ele>512</ele>
        <time>2015-09-27T08:54:56.000Z</time>
      </trkpt>
      <trkpt lat="47.55196" lon="6.66261">
        <ele>512</ele>
        <time>2015-09-27T08:54:57.000Z</time>
      </trkpt>
      <trkpt lat="47.55193" lon="6.66258">
        <ele>513</ele>
        <time>2015-09-27T08:54:58.000Z</time>
      </trkpt>
      <trkpt lat="47.55191" lon="6.66256">
        <ele>513</ele>
        <time>2015-09-27T08:54:59.000Z</time>
      </trkpt>
      <trkpt lat="47.55188" lon="6.66253">
        <ele>513</ele>
        <time>2015-09-27T08:55:00.000Z</time>
      </trkpt>
      <trkpt lat="47.55186" lon="6.6625">
        <ele>509</ele>
        <time>2015-09-27T08:55:01.000Z</time>
      </trkpt>
      <trkpt lat="47.55184" lon="6.66247">
        <ele>510</ele>
        <time>2015-09-27T08:55:02.000Z</time>
      </trkpt>
      <trkpt lat="47.55181" lon="6.66243">
        <ele>510</ele>
        <time>2015-09-27T08:55:03.000Z</time>
      </trkpt>
      <trkpt lat="47.55178" lon="6.6624">
        <ele>510</ele>
        <time>2015-09-27T08:55:04.000Z</time>
      </trkpt>
      <trkpt lat="47.55175" lon="6.66236">
        <ele>510</ele>
        <time>2015-09-27T08:55:05.000Z</time>
      </trkpt>
      <trkpt lat="47.55171" lon="6.66231">
        <ele>509</ele>
        <time>2015-09-27T08:55:06.000Z</time>
      </trkpt>
      <trkpt lat="47.55168" lon="6.66227">
        <ele>508</ele>
        <time>2015-09-27T08:55:07.000Z</time>
      </trkpt>
      <trkpt lat="47.55164" lon="6.66223">
        <ele>513</ele>
        <time>2015-09-27T08:55:08.000Z</time>
      </trkpt>
      <trkpt lat="47.55161" lon="6.6622">
        <ele>512</ele>
        <time>2015-09-27T08:55:09.000Z</time>
      </trkpt>
      <trkpt lat="47.55158" lon="6.66218">
        <ele>512</ele>
        <time>2015-09-27T08:55:10.000Z</time>
      </trkpt>
      <trkpt lat="47.55155" lon="6.66216">
        <ele>512</ele>
        <time>2015-09-27T08:55:11.000Z</time>
      </trkpt>
      <trkpt lat="47.55152" lon="6.66214">
        <ele>512</ele>
        <time>2015-09-27T08:55:12.000Z</time>
      </trkpt>
      <trkpt lat="47.55149" lon="6.66212">
        <ele>512</ele>
        <time>2015-09-27T08:55:13.000Z</time>
      </trkpt>
      <trkpt lat="47.55147" lon="6.66211">
        <ele>512</ele>
        <time>2015-09-27T08:55:14.000Z</time>
      </trkpt>
      <trkpt lat="47.55145" lon="6.66211">
        <ele>512</ele>
        <time>2015-09-27T08:55:15.000Z</time>
      </trkpt>
      <trkpt lat="47.55142" lon="6.66212">
        <ele>512</ele>
        <time>2015-09-27T08:55:16.000Z</time>
      </trkpt>
      <trkpt lat="47.5514" lon="6.66213">
        <ele>512</ele>
        <time>2015-09-27T08:55:17.000Z</time>
      </trkpt>
      <trkpt lat="47.55137" lon="6.66213">
        <ele>512</ele>
        <time>2015-09-27T08:55:18.000Z</time>
      </trkpt>
      <trkpt lat="47.55134" lon="6.66213">
        <ele>512</ele>
        <time>2015-09-27T08:55:19.000Z</time>
      </trkpt>
      <trkpt lat="47.5513" lon="6.66212">
        <ele>512</ele>
        <time>2015-09-27T08:55:20.000Z</time>
      </trkpt>
      <trkpt lat="47.55126" lon="6.6621">
        <ele>512</ele>
        <time>2015-09-27T08:55:21.000Z</time>
      </trkpt>
      <trkpt lat="47.55122" lon="6.66207">
        <ele>512</ele>
        <time>2015-09-27T08:55:22.000Z</time>
      </trkpt>
      <trkpt lat="47.55118" lon="6.66205">
        <ele>512</ele>
        <time>2015-09-27T08:55:23.000Z</time>
      </trkpt>
      <trkpt lat="47.55114" lon="6.66203">
        <ele>512</ele>
        <time>2015-09-27T08:55:24.000Z</time>
      </trkpt>
      <trkpt lat="47.5511" lon="6.66202">
        <ele>512</ele>
        <time>2015-09-27T08:55:25.000Z</time>
      </trkpt>
      <trkpt lat="47.55107" lon="6.662">
        <ele>513</ele>
        <time>2015-09-27T08:55:26.000Z</time>
      </trkpt>
      <trkpt lat="47.55103" lon="6.66198">
        <ele>513</ele>
        <time>2015-09-27T08:55:27.000Z</time>
      </trkpt>
      <trkpt lat="47.55099" lon="6.66195">
        <ele>513</ele>
        <time>2015-09-27T08:55:28.000Z</time>
      </trkpt>
      <trkpt lat="47.55094" lon="6.66193">
        <ele>513</ele>
        <time>2015-09-27T08:55:29.000Z</time>
      </trkpt>
      <trkpt lat="47.55089" lon="6.66191">
        <ele>513</ele>
        <time>2015-09-27T08:55:30.000Z</time>
      </trkpt>
      <trkpt lat="47.55084" lon="6.66189">
        <ele>513</ele>
        <time>2015-09-27T08:55:31.000Z</time>
      </trkpt>
      <trkpt lat="47.55079" lon="6.66188">
        <ele>515</ele>
        <time>2015-09-27T08:55:32.000Z</time>
      </trkpt>
      <trkpt lat="47.55074" lon="6.66188">
        <ele>515</ele>
        <time>2015-09-27T08:55:33.000Z</time>
      </trkpt>
      <trkpt lat="47.5507" lon="6.66187">
        <ele>515</ele>
        <time>2015-09-27T08:55:34.000Z</time>
      </trkpt>
      <trkpt lat="47.55065" lon="6.66185">
        <ele>515</ele>
        <time>2015-09-27T08:55:35.000Z</time>
      </trkpt>
      <trkpt lat="47.55061" lon="6.66183">
        <ele>515</ele>
        <time>2015-09-27T08:55:36.000Z</time>
      </trkpt>
      <trkpt lat="47.55056" lon="6.6618">
        <ele>515</ele>
        <time>2015-09-27T08:55:37.000Z</time>
      </trkpt>
      <trkpt lat="47.5505" lon="6.66177">
        <ele>515</ele>
        <time>2015-09-27T08:55:38.000Z</time>
      </trkpt>
      <trkpt lat="47.55045" lon="6.66175">
        <ele>515</ele>
        <time>2015-09-27T08:55:39.000Z</time>
      </trkpt>
      <trkpt lat="47.55039" lon="6.66173">
        <ele>515</ele>
        <time>2015-09-27T08:55:40.000Z</time>
      </trkpt>
      <trkpt lat="47.55034" lon="6.66171">
        <ele>515</ele>
        <time>2015-09-27T08:55:41.000Z</time>
      </trkpt>
      <trkpt lat="47.55029" lon="6.66171">
        <ele>515</ele>
        <time>2015-09-27T08:55:42.000Z</time>
      </trkpt>
      <trkpt lat="47.55025" lon="6.6617">
        <ele>515</ele>
        <time>2015-09-27T08:55:43.000Z</time>
      </trkpt>
      <trkpt lat="47.5502" lon="6.66169">
        <ele>515</ele>
        <time>2015-09-27T08:55:44.000Z</time>
      </trkpt>
      <trkpt lat="47.55015" lon="6.66167">
        <ele>515</ele>
        <time>2015-09-27T08:55:45.000Z</time>
      </trkpt>
      <trkpt lat="47.5501" lon="6.66164">
        <ele>513</ele>
        <time>2015-09-27T08:55:46.000Z</time>
      </trkpt>
      <trkpt lat="47.55005" lon="6.66161">
        <ele>514</ele>
        <time>2015-09-27T08:55:47.000Z</time>
      </trkpt>
      <trkpt lat="47.54999" lon="6.66156">
        <ele>514</ele>
        <time>2015-09-27T08:55:48.000Z</time>
      </trkpt>
      <trkpt lat="47.54994" lon="6.6615">
        <ele>514</ele>
        <time>2015-09-27T08:55:49.000Z</time>
      </trkpt>
      <trkpt lat="47.54989" lon="6.66144">
        <ele>514</ele>
        <time>2015-09-27T08:55:50.000Z</time>
      </trkpt>
      <trkpt lat="47.54985" lon="6.66138">
        <ele>513</ele>
        <time>2015-09-27T08:55:51.000Z</time>
      </trkpt>
      <trkpt lat="47.5498" lon="6.66133">
        <ele>513</ele>
        <time>2015-09-27T08:55:52.000Z</time>
      </trkpt>
      <trkpt lat="47.54976" lon="6.66127">
        <ele>513</ele>
        <time>2015-09-27T08:55:53.000Z</time>
      </trkpt>
      <trkpt lat="47.54972" lon="6.66122">
        <ele>513</ele>
        <time>2015-09-27T08:55:54.000Z</time>
      </trkpt>
      <trkpt lat="47.54962" lon="6.66108">
        <ele>513</ele>
        <time>2015-09-27T08:55:55.000Z</time>
      </trkpt>
      <trkpt lat="47.54957" lon="6.66102">
        <ele>513</ele>
        <time>2015-09-27T08:55:56.000Z</time>
      </trkpt>
      <trkpt lat="47.54954" lon="6.66099">
        <ele>513</ele>
        <time>2015-09-27T08:55:57.000Z</time>
      </trkpt>
      <trkpt lat="47.54951" lon="6.66095">
        <ele>513</ele>
        <time>2015-09-27T08:55:58.000Z</time>
      </trkpt>
      <trkpt lat="47.54947" lon="6.6609">
        <ele>513</ele>
        <time>2015-09-27T08:55:59.000Z</time>
      </trkpt>
      <trkpt lat="47.5494" lon="6.66083">
        <ele>509</ele>
        <time>2015-09-27T08:56:00.000Z</time>
      </trkpt>
      <trkpt lat="47.54936" lon="6.66078">
        <ele>510</ele>
        <time>2015-09-27T08:56:01.000Z</time>
      </trkpt>
      <trkpt lat="47.54931" lon="6.66075">
        <ele>510</ele>
        <time>2015-09-27T08:56:02.000Z</time>
      </trkpt>
      <trkpt lat="47.54927" lon="6.66073">
        <ele>510</ele>
        <time>2015-09-27T08:56:03.000Z</time>
      </trkpt>
      <trkpt lat="47.54919" lon="6.66071">
        <ele>510</ele>
        <time>2015-09-27T08:56:04.000Z</time>
      </trkpt>
      <trkpt lat="47.54915" lon="6.66068">
        <ele>512</ele>
        <time>2015-09-27T08:56:05.000Z</time>
      </trkpt>
      <trkpt lat="47.54909" lon="6.66063">
        <ele>512</ele>
        <time>2015-09-27T08:56:06.000Z</time>
      </trkpt>
      <trkpt lat="47.54903" lon="6.66058">
        <ele>512</ele>
        <time>2015-09-27T08:56:07.000Z</time>
      </trkpt>
      <trkpt lat="47.54899" lon="6.66053">
        <ele>512</ele>
        <time>2015-09-27T08:56:08.000Z</time>
      </trkpt>
      <trkpt lat="47.54895" lon="6.66047">
        <ele>512</ele>
        <time>2015-09-27T08:56:09.000Z</time>
      </trkpt>
      <trkpt lat="47.54889" lon="6.66041">
        <ele>512</ele>
        <time>2015-09-27T08:56:10.000Z</time>
      </trkpt>
      <trkpt lat="47.54885" lon="6.66038">
        <ele>512</ele>
        <time>2015-09-27T08:56:11.000Z</time>
      </trkpt>
      <trkpt lat="47.54877" lon="6.66033">
        <ele>512</ele>
        <time>2015-09-27T08:56:12.000Z</time>
      </trkpt>
      <trkpt lat="47.54873" lon="6.6603">
        <ele>512</ele>
        <time>2015-09-27T08:56:13.000Z</time>
      </trkpt>
      <trkpt lat="47.54868" lon="6.66027">
        <ele>512</ele>
        <time>2015-09-27T08:56:14.000Z</time>
      </trkpt>
      <trkpt lat="47.54863" lon="6.66024">
        <ele>512</ele>
        <time>2015-09-27T08:56:15.000Z</time>
      </trkpt>
      <trkpt lat="47.54859" lon="6.66021">
        <ele>512</ele>
        <time>2015-09-27T08:56:16.000Z</time>
      </trkpt>
      <trkpt lat="47.54855" lon="6.66019">
        <ele>512</ele>
        <time>2015-09-27T08:56:17.000Z</time>
      </trkpt>
      <trkpt lat="47.54851" lon="6.66017">
        <ele>512</ele>
        <time>2015-09-27T08:56:18.000Z</time>
      </trkpt>
      <trkpt lat="47.54848" lon="6.66015">
        <ele>513</ele>
        <time>2015-09-27T08:56:19.000Z</time>
      </trkpt>
      <trkpt lat="47.54844" lon="6.66014">
        <ele>513</ele>
        <time>2015-09-27T08:56:20.000Z</time>
      </trkpt>
      <trkpt lat="47.54841" lon="6.66012">
        <ele>513</ele>
        <time>2015-09-27T08:56:21.000Z</time>
      </trkpt>
      <trkpt lat="47.54836" lon="6.66009">
        <ele>513</ele>
        <time>2015-09-27T08:56:22.000Z</time>
      </trkpt>
      <trkpt lat="47.54832" lon="6.66007">
        <ele>513</ele>
        <time>2015-09-27T08:56:23.000Z</time>
      </trkpt>
      <trkpt lat="47.54827" lon="6.66003">
        <ele>513</ele>
        <time>2015-09-27T08:56:24.000Z</time>
      </trkpt>
      <trkpt lat="47.54822" lon="6.66">
        <ele>514</ele>
        <time>2015-09-27T08:56:25.000Z</time>
      </trkpt>
      <trkpt lat="47.54817" lon="6.65997">
        <ele>512</ele>
        <time>2015-09-27T08:56:26.000Z</time>
      </trkpt>
      <trkpt lat="47.54802" lon="6.65989">
        <ele>511</ele>
        <time>2015-09-27T08:56:27.000Z</time>
      </trkpt>
      <trkpt lat="47.54797" lon="6.65985">
        <ele>511</ele>
        <time>2015-09-27T08:56:28.000Z</time>
      </trkpt>
      <trkpt lat="47.54791" lon="6.65981">
        <ele>511</ele>
        <time>2015-09-27T08:56:29.000Z</time>
      </trkpt>
      <trkpt lat="47.54787" lon="6.6598">
        <ele>511</ele>
        <time>2015-09-27T08:56:30.000Z</time>
      </trkpt>
      <trkpt lat="47.54783" lon="6.65971">
        <ele>511</ele>
        <time>2015-09-27T08:56:31.000Z</time>
      </trkpt>
      <trkpt lat="47.54778" lon="6.65968">
        <ele>511</ele>
        <time>2015-09-27T08:56:32.000Z</time>
      </trkpt>
      <trkpt lat="47.54772" lon="6.65964">
        <ele>511</ele>
        <time>2015-09-27T08:56:33.000Z</time>
      </trkpt>
      <trkpt lat="47.54766" lon="6.6596">
        <ele>511</ele>
        <time>2015-09-27T08:56:34.000Z</time>
      </trkpt>
      <trkpt lat="47.5476" lon="6.65954">
        <ele>510</ele>
        <time>2015-09-27T08:56:35.000Z</time>
      </trkpt>
      <trkpt lat="47.54755" lon="6.65952">
        <ele>510</ele>
        <time>2015-09-27T08:56:36.000Z</time>
      </trkpt>
      <trkpt lat="47.5475" lon="6.65951">
        <ele>512</ele>
        <time>2015-09-27T08:56:37.000Z</time>
      </trkpt>
      <trkpt lat="47.54747" lon="6.65954">
        <ele>512</ele>
        <time>2015-09-27T08:56:38.000Z</time>
      </trkpt>
      <trkpt lat="47.54743" lon="6.65956">
        <ele>512</ele>
        <time>2015-09-27T08:56:39.000Z</time>
      </trkpt>
      <trkpt lat="47.54739" lon="6.65956">
        <ele>512</ele>
        <time>2015-09-27T08:56:40.000Z</time>
      </trkpt>
      <trkpt lat="47.54734" lon="6.65953">
        <ele>512</ele>
        <time>2015-09-27T08:56:41.000Z</time>
      </trkpt>
      <trkpt lat="47.54729" lon="6.6595">
        <ele>512</ele>
        <time>2015-09-27T08:56:42.000Z</time>
      </trkpt>
      <trkpt lat="47.54724" lon="6.65947">
        <ele>512</ele>
        <time>2015-09-27T08:56:43.000Z</time>
      </trkpt>
      <trkpt lat="47.54721" lon="6.65945">
        <ele>512</ele>
        <time>2015-09-27T08:56:44.000Z</time>
      </trkpt>
      <trkpt lat="47.54714" lon="6.6594">
        <ele>512</ele>
        <time>2015-09-27T08:56:45.000Z</time>
      </trkpt>
      <trkpt lat="47.54708" lon="6.65937">
        <ele>513</ele>
        <time>2015-09-27T08:56:46.000Z</time>
      </trkpt>
      <trkpt lat="47.54704" lon="6.65933">
        <ele>513</ele>
        <time>2015-09-27T08:56:47.000Z</time>
      </trkpt>
      <trkpt lat="47.547" lon="6.65931">
        <ele>513</ele>
        <time>2015-09-27T08:56:48.000Z</time>
      </trkpt>
      <trkpt lat="47.54696" lon="6.6593">
        <ele>513</ele>
        <time>2015-09-27T08:56:49.000Z</time>
      </trkpt>
      <trkpt lat="47.54692" lon="6.65928">
        <ele>513</ele>
        <time>2015-09-27T08:56:50.000Z</time>
      </trkpt>
      <trkpt lat="47.54689" lon="6.65928">
        <ele>513</ele>
        <time>2015-09-27T08:56:51.000Z</time>
      </trkpt>
      <trkpt lat="47.54685" lon="6.65927">
        <ele>513</ele>
        <time>2015-09-27T08:56:52.000Z</time>
      </trkpt>
      <trkpt lat="47.54681" lon="6.65925">
        <ele>513</ele>
        <time>2015-09-27T08:56:53.000Z</time>
      </trkpt>
      <trkpt lat="47.54678" lon="6.65923">
        <ele>514</ele>
        <time>2015-09-27T08:56:54.000Z</time>
      </trkpt>
      <trkpt lat="47.54673" lon="6.6592">
        <ele>514</ele>
        <time>2015-09-27T08:56:55.000Z</time>
      </trkpt>
      <trkpt lat="47.54669" lon="6.65917">
        <ele>514</ele>
        <time>2015-09-27T08:56:56.000Z</time>
      </trkpt>
      <trkpt lat="47.54666" lon="6.65915">
        <ele>514</ele>
        <time>2015-09-27T08:56:57.000Z</time>
      </trkpt>
      <trkpt lat="47.54662" lon="6.65913">
        <ele>513</ele>
        <time>2015-09-27T08:56:58.000Z</time>
      </trkpt>
      <trkpt lat="47.54657" lon="6.65911">
        <ele>513</ele>
        <time>2015-09-27T08:56:59.000Z</time>
      </trkpt>
      <trkpt lat="47.54653" lon="6.65908">
        <ele>513</ele>
        <time>2015-09-27T08:57:00.000Z</time>
      </trkpt>
      <trkpt lat="47.54649" lon="6.65906">
        <ele>512</ele>
        <time>2015-09-27T08:57:01.000Z</time>
      </trkpt>
      <trkpt lat="47.54644" lon="6.65904">
        <ele>512</ele>
        <time>2015-09-27T08:57:02.000Z</time>
      </trkpt>
      <trkpt lat="47.54639" lon="6.65901">
        <ele>512</ele>
        <time>2015-09-27T08:57:03.000Z</time>
      </trkpt>
      <trkpt lat="47.54634" lon="6.65898">
        <ele>512</ele>
        <time>2015-09-27T08:57:04.000Z</time>
      </trkpt>
      <trkpt lat="47.54629" lon="6.65896">
        <ele>512</ele>
        <time>2015-09-27T08:57:05.000Z</time>
      </trkpt>
      <trkpt lat="47.54624" lon="6.65893">
        <ele>512</ele>
        <time>2015-09-27T08:57:06.000Z</time>
      </trkpt>
      <trkpt lat="47.54618" lon="6.65891">
        <ele>511</ele>
        <time>2015-09-27T08:57:07.000Z</time>
      </trkpt>
      <trkpt lat="47.54613" lon="6.65889">
        <ele>511</ele>
        <time>2015-09-27T08:57:08.000Z</time>
      </trkpt>
      <trkpt lat="47.54608" lon="6.65887">
        <ele>511</ele>
        <time>2015-09-27T08:57:09.000Z</time>
      </trkpt>
      <trkpt lat="47.54603" lon="6.65885">
        <ele>511</ele>
        <time>2015-09-27T08:57:10.000Z</time>
      </trkpt>
      <trkpt lat="47.54597" lon="6.65883">
        <ele>511</ele>
        <time>2015-09-27T08:57:11.000Z</time>
      </trkpt>
      <trkpt lat="47.54592" lon="6.65879">
        <ele>511</ele>
        <time>2015-09-27T08:57:12.000Z</time>
      </trkpt>
      <trkpt lat="47.54586" lon="6.65876">
        <ele>511</ele>
        <time>2015-09-27T08:57:13.000Z</time>
      </trkpt>
      <trkpt lat="47.54581" lon="6.65871">
        <ele>512</ele>
        <time>2015-09-27T08:57:14.000Z</time>
      </trkpt>
      <trkpt lat="47.54576" lon="6.65867">
        <ele>512</ele>
        <time>2015-09-27T08:57:15.000Z</time>
      </trkpt>
      <trkpt lat="47.54563" lon="6.65856">
        <ele>512</ele>
        <time>2015-09-27T08:57:16.000Z</time>
      </trkpt>
      <trkpt lat="47.54558" lon="6.65853">
        <ele>512</ele>
        <time>2015-09-27T08:57:17.000Z</time>
      </trkpt>
      <trkpt lat="47.54552" lon="6.65845">
        <ele>512</ele>
        <time>2015-09-27T08:57:18.000Z</time>
      </trkpt>
      <trkpt lat="47.54546" lon="6.6584">
        <ele>512</ele>
        <time>2015-09-27T08:57:19.000Z</time>
      </trkpt>
      <trkpt lat="47.5454" lon="6.65835">
        <ele>513</ele>
        <time>2015-09-27T08:57:20.000Z</time>
      </trkpt>
      <trkpt lat="47.54535" lon="6.65829">
        <ele>511</ele>
        <time>2015-09-27T08:57:21.000Z</time>
      </trkpt>
      <trkpt lat="47.5453" lon="6.65824">
        <ele>511</ele>
        <time>2015-09-27T08:57:22.000Z</time>
      </trkpt>
      <trkpt lat="47.54526" lon="6.6582">
        <ele>511</ele>
        <time>2015-09-27T08:57:23.000Z</time>
      </trkpt>
      <trkpt lat="47.54522" lon="6.65809">
        <ele>511</ele>
        <time>2015-09-27T08:57:24.000Z</time>
      </trkpt>
      <trkpt lat="47.54516" lon="6.65802">
        <ele>511</ele>
        <time>2015-09-27T08:57:25.000Z</time>
      </trkpt>
      <trkpt lat="47.54513" lon="6.65798">
        <ele>511</ele>
        <time>2015-09-27T08:57:26.000Z</time>
      </trkpt>
      <trkpt lat="47.54509" lon="6.65793">
        <ele>511</ele>
        <time>2015-09-27T08:57:27.000Z</time>
      </trkpt>
      <trkpt lat="47.54504" lon="6.6579">
        <ele>511</ele>
        <time>2015-09-27T08:57:28.000Z</time>
      </trkpt>
      <trkpt lat="47.54498" lon="6.65782">
        <ele>513</ele>
        <time>2015-09-27T08:57:29.000Z</time>
      </trkpt>
      <trkpt lat="47.54493" lon="6.65778">
        <ele>513</ele>
        <time>2015-09-27T08:57:30.000Z</time>
      </trkpt>
      <trkpt lat="47.54489" lon="6.65771">
        <ele>513</ele>
        <time>2015-09-27T08:57:31.000Z</time>
      </trkpt>
      <trkpt lat="47.54484" lon="6.65765">
        <ele>513</ele>
        <time>2015-09-27T08:57:32.000Z</time>
      </trkpt>
      <trkpt lat="47.5448" lon="6.65761">
        <ele>513</ele>
        <time>2015-09-27T08:57:33.000Z</time>
      </trkpt>
      <trkpt lat="47.54476" lon="6.65758">
        <ele>513</ele>
        <time>2015-09-27T08:57:34.000Z</time>
      </trkpt>
      <trkpt lat="47.54472" lon="6.65755">
        <ele>513</ele>
        <time>2015-09-27T08:57:35.000Z</time>
      </trkpt>
      <trkpt lat="47.54466" lon="6.65745">
        <ele>511</ele>
        <time>2015-09-27T08:57:36.000Z</time>
      </trkpt>
      <trkpt lat="47.5446" lon="6.6574">
        <ele>511</ele>
        <time>2015-09-27T08:57:37.000Z</time>
      </trkpt>
      <trkpt lat="47.54456" lon="6.65735">
        <ele>511</ele>
        <time>2015-09-27T08:57:38.000Z</time>
      </trkpt>
      <trkpt lat="47.54452" lon="6.6573">
        <ele>511</ele>
        <time>2015-09-27T08:57:39.000Z</time>
      </trkpt>
      <trkpt lat="47.54447" lon="6.65728">
        <ele>511</ele>
        <time>2015-09-27T08:57:40.000Z</time>
      </trkpt>
      <trkpt lat="47.54444" lon="6.65725">
        <ele>511</ele>
        <time>2015-09-27T08:57:41.000Z</time>
      </trkpt>
      <trkpt lat="47.54441" lon="6.65723">
        <ele>511</ele>
        <time>2015-09-27T08:57:42.000Z</time>
      </trkpt>
      <trkpt lat="47.54438" lon="6.65721">
        <ele>511</ele>
        <time>2015-09-27T08:57:43.000Z</time>
      </trkpt>
      <trkpt lat="47.54435" lon="6.65718">
        <ele>511</ele>
        <time>2015-09-27T08:57:44.000Z</time>
      </trkpt>
      <trkpt lat="47.54433" lon="6.65716">
        <ele>511</ele>
        <time>2015-09-27T08:57:45.000Z</time>
      </trkpt>
      <trkpt lat="47.54428" lon="6.65711">
        <ele>511</ele>
        <time>2015-09-27T08:57:46.000Z</time>
      </trkpt>
      <trkpt lat="47.54426" lon="6.65709">
        <ele>511</ele>
        <time>2015-09-27T08:57:47.000Z</time>
      </trkpt>
      <trkpt lat="47.54423" lon="6.65707">
        <ele>511</ele>
        <time>2015-09-27T08:57:48.000Z</time>
      </trkpt>
      <trkpt lat="47.54421" lon="6.65704">
        <ele>511</ele>
        <time>2015-09-27T08:57:49.000Z</time>
      </trkpt>
      <trkpt lat="47.54417" lon="6.65701">
        <ele>511</ele>
        <time>2015-09-27T08:57:50.000Z</time>
      </trkpt>
      <trkpt lat="47.54414" lon="6.65698">
        <ele>512</ele>
        <time>2015-09-27T08:57:51.000Z</time>
      </trkpt>
      <trkpt lat="47.54409" lon="6.65694">
        <ele>512</ele>
        <time>2015-09-27T08:57:52.000Z</time>
      </trkpt>
      <trkpt lat="47.54396" lon="6.65682">
        <ele>512</ele>
        <time>2015-09-27T08:57:53.000Z</time>
      </trkpt>
      <trkpt lat="47.54391" lon="6.65676">
        <ele>512</ele>
        <time>2015-09-27T08:57:54.000Z</time>
      </trkpt>
      <trkpt lat="47.54386" lon="6.65671">
        <ele>512</ele>
        <time>2015-09-27T08:57:55.000Z</time>
      </trkpt>
      <trkpt lat="47.54382" lon="6.65663">
        <ele>510</ele>
        <time>2015-09-27T08:57:56.000Z</time>
      </trkpt>
      <trkpt lat="47.54378" lon="6.65657">
        <ele>510</ele>
        <time>2015-09-27T08:57:57.000Z</time>
      </trkpt>
      <trkpt lat="47.54375" lon="6.65653">
        <ele>510</ele>
        <time>2015-09-27T08:57:58.000Z</time>
      </trkpt>
      <trkpt lat="47.54369" lon="6.65648">
        <ele>510</ele>
        <time>2015-09-27T08:57:59.000Z</time>
      </trkpt>
      <trkpt lat="47.54363" lon="6.65644">
        <ele>510</ele>
        <time>2015-09-27T08:58:00.000Z</time>
      </trkpt>
      <trkpt lat="47.54357" lon="6.65638">
        <ele>510</ele>
        <time>2015-09-27T08:58:01.000Z</time>
      </trkpt>
      <trkpt lat="47.54352" lon="6.65632">
        <ele>510</ele>
        <time>2015-09-27T08:58:02.000Z</time>
      </trkpt>
      <trkpt lat="47.54348" lon="6.65629">
        <ele>510</ele>
        <time>2015-09-27T08:58:03.000Z</time>
      </trkpt>
      <trkpt lat="47.54343" lon="6.65625">
        <ele>509</ele>
        <time>2015-09-27T08:58:04.000Z</time>
      </trkpt>
      <trkpt lat="47.54337" lon="6.6562">
        <ele>509</ele>
        <time>2015-09-27T08:58:05.000Z</time>
      </trkpt>
      <trkpt lat="47.54332" lon="6.65611">
        <ele>510</ele>
        <time>2015-09-27T08:58:06.000Z</time>
      </trkpt>
      <trkpt lat="47.54325" lon="6.65604">
        <ele>509</ele>
        <time>2015-09-27T08:58:07.000Z</time>
      </trkpt>
      <trkpt lat="47.5432" lon="6.65598">
        <ele>509</ele>
        <time>2015-09-27T08:58:08.000Z</time>
      </trkpt>
      <trkpt lat="47.54314" lon="6.65591">
        <ele>509</ele>
        <time>2015-09-27T08:58:09.000Z</time>
      </trkpt>
      <trkpt lat="47.54309" lon="6.65586">
        <ele>509</ele>
        <time>2015-09-27T08:58:10.000Z</time>
      </trkpt>
      <trkpt lat="47.54304" lon="6.6558">
        <ele>506</ele>
        <time>2015-09-27T08:58:11.000Z</time>
      </trkpt>
      <trkpt lat="47.54301" lon="6.65575">
        <ele>506</ele>
        <time>2015-09-27T08:58:12.000Z</time>
      </trkpt>
      <trkpt lat="47.54296" lon="6.6557">
        <ele>506</ele>
        <time>2015-09-27T08:58:13.000Z</time>
      </trkpt>
      <trkpt lat="47.5429" lon="6.65565">
        <ele>506</ele>
        <time>2015-09-27T08:58:14.000Z</time>
      </trkpt>
      <trkpt lat="47.54286" lon="6.6556">
        <ele>506</ele>
        <time>2015-09-27T08:58:15.000Z</time>
      </trkpt>
      <trkpt lat="47.54281" lon="6.65556">
        <ele>506</ele>
        <time>2015-09-27T08:58:16.000Z</time>
      </trkpt>
      <trkpt lat="47.54277" lon="6.65551">
        <ele>506</ele>
        <time>2015-09-27T08:58:17.000Z</time>
      </trkpt>
      <trkpt lat="47.54273" lon="6.65547">
        <ele>506</ele>
        <time>2015-09-27T08:58:18.000Z</time>
      </trkpt>
      <trkpt lat="47.54269" lon="6.65543">
        <ele>506</ele>
        <time>2015-09-27T08:58:19.000Z</time>
      </trkpt>
      <trkpt lat="47.54265" lon="6.65539">
        <ele>506</ele>
        <time>2015-09-27T08:58:20.000Z</time>
      </trkpt>
      <trkpt lat="47.54261" lon="6.65536">
        <ele>506</ele>
        <time>2015-09-27T08:58:21.000Z</time>
      </trkpt>
      <trkpt lat="47.54257" lon="6.65533">
        <ele>505</ele>
        <time>2015-09-27T08:58:22.000Z</time>
      </trkpt>
      <trkpt lat="47.54254" lon="6.65529">
        <ele>505</ele>
        <time>2015-09-27T08:58:23.000Z</time>
      </trkpt>
      <trkpt lat="47.54251" lon="6.65524">
        <ele>505</ele>
        <time>2015-09-27T08:58:24.000Z</time>
      </trkpt>
      <trkpt lat="47.54247" lon="6.6552">
        <ele>506</ele>
        <time>2015-09-27T08:58:25.000Z</time>
      </trkpt>
      <trkpt lat="47.54244" lon="6.65515">
        <ele>505</ele>
        <time>2015-09-27T08:58:26.000Z</time>
      </trkpt>
      <trkpt lat="47.5424" lon="6.65512">
        <ele>505</ele>
        <time>2015-09-27T08:58:27.000Z</time>
      </trkpt>
      <trkpt lat="47.54236" lon="6.65508">
        <ele>505</ele>
        <time>2015-09-27T08:58:28.000Z</time>
      </trkpt>
      <trkpt lat="47.54233" lon="6.65505">
        <ele>505</ele>
        <time>2015-09-27T08:58:29.000Z</time>
      </trkpt>
      <trkpt lat="47.54229" lon="6.65501">
        <ele>505</ele>
        <time>2015-09-27T08:58:30.000Z</time>
      </trkpt>
      <trkpt lat="47.54225" lon="6.65497">
        <ele>502</ele>
        <time>2015-09-27T08:58:31.000Z</time>
      </trkpt>
      <trkpt lat="47.5422" lon="6.65493">
        <ele>502</ele>
        <time>2015-09-27T08:58:32.000Z</time>
      </trkpt>
      <trkpt lat="47.54215" lon="6.65488">
        <ele>502</ele>
        <time>2015-09-27T08:58:33.000Z</time>
      </trkpt>
      <trkpt lat="47.5421" lon="6.65484">
        <ele>502</ele>
        <time>2015-09-27T08:58:34.000Z</time>
      </trkpt>
      <trkpt lat="47.54205" lon="6.65479">
        <ele>502</ele>
        <time>2015-09-27T08:58:35.000Z</time>
      </trkpt>
      <trkpt lat="47.542" lon="6.65475">
        <ele>502</ele>
        <time>2015-09-27T08:58:36.000Z</time>
      </trkpt>
      <trkpt lat="47.5419" lon="6.65465">
        <ele>501</ele>
        <time>2015-09-27T08:58:37.000Z</time>
      </trkpt>
      <trkpt lat="47.54185" lon="6.65459">
        <ele>501</ele>
        <time>2015-09-27T08:58:38.000Z</time>
      </trkpt>
      <trkpt lat="47.54181" lon="6.65453">
        <ele>501</ele>
        <time>2015-09-27T08:58:39.000Z</time>
      </trkpt>
      <trkpt lat="47.54175" lon="6.65443">
        <ele>501</ele>
        <time>2015-09-27T08:58:40.000Z</time>
      </trkpt>
      <trkpt lat="47.54166" lon="6.65433">
        <ele>501</ele>
        <time>2015-09-27T08:58:41.000Z</time>
      </trkpt>
      <trkpt lat="47.54162" lon="6.65426">
        <ele>501</ele>
        <time>2015-09-27T08:58:42.000Z</time>
      </trkpt>
      <trkpt lat="47.54157" lon="6.65418">
        <ele>501</ele>
        <time>2015-09-27T08:58:43.000Z</time>
      </trkpt>
      <trkpt lat="47.54153" lon="6.65411">
        <ele>499</ele>
        <time>2015-09-27T08:58:44.000Z</time>
      </trkpt>
      <trkpt lat="47.54149" lon="6.65404">
        <ele>499</ele>
        <time>2015-09-27T08:58:45.000Z</time>
      </trkpt>
      <trkpt lat="47.54145" lon="6.65394">
        <ele>498</ele>
        <time>2015-09-27T08:58:46.000Z</time>
      </trkpt>
      <trkpt lat="47.5414" lon="6.65386">
        <ele>498</ele>
        <time>2015-09-27T08:58:47.000Z</time>
      </trkpt>
      <trkpt lat="47.54136" lon="6.6538">
        <ele>498</ele>
        <time>2015-09-27T08:58:48.000Z</time>
      </trkpt>
      <trkpt lat="47.5413" lon="6.65372">
        <ele>497</ele>
        <time>2015-09-27T08:58:49.000Z</time>
      </trkpt>
      <trkpt lat="47.54125" lon="6.65365">
        <ele>497</ele>
        <time>2015-09-27T08:58:50.000Z</time>
      </trkpt>
      <trkpt lat="47.54121" lon="6.6536">
        <ele>497</ele>
        <time>2015-09-27T08:58:51.000Z</time>
      </trkpt>
      <trkpt lat="47.54116" lon="6.65355">
        <ele>497</ele>
        <time>2015-09-27T08:58:52.000Z</time>
      </trkpt>
      <trkpt lat="47.54111" lon="6.65349">
        <ele>497</ele>
        <time>2015-09-27T08:58:53.000Z</time>
      </trkpt>
      <trkpt lat="47.54108" lon="6.65342">
        <ele>496</ele>
        <time>2015-09-27T08:58:54.000Z</time>
      </trkpt>
      <trkpt lat="47.54103" lon="6.65335">
        <ele>496</ele>
        <time>2015-09-27T08:58:55.000Z</time>
      </trkpt>
      <trkpt lat="47.54099" lon="6.65328">
        <ele>493</ele>
        <time>2015-09-27T08:58:56.000Z</time>
      </trkpt>
      <trkpt lat="47.54093" lon="6.65321">
        <ele>493</ele>
        <time>2015-09-27T08:58:57.000Z</time>
      </trkpt>
      <trkpt lat="47.54087" lon="6.65314">
        <ele>492</ele>
        <time>2015-09-27T08:58:58.000Z</time>
      </trkpt>
      <trkpt lat="47.54078" lon="6.65307">
        <ele>494</ele>
        <time>2015-09-27T08:58:59.000Z</time>
      </trkpt>
      <trkpt lat="47.54072" lon="6.653">
        <ele>493</ele>
        <time>2015-09-27T08:59:00.000Z</time>
      </trkpt>
      <trkpt lat="47.54069" lon="6.65294">
        <ele>493</ele>
        <time>2015-09-27T08:59:01.000Z</time>
      </trkpt>
      <trkpt lat="47.54065" lon="6.65289">
        <ele>493</ele>
        <time>2015-09-27T08:59:02.000Z</time>
      </trkpt>
      <trkpt lat="47.54062" lon="6.65281">
        <ele>492</ele>
        <time>2015-09-27T08:59:03.000Z</time>
      </trkpt>
      <trkpt lat="47.54058" lon="6.65271">
        <ele>492</ele>
        <time>2015-09-27T08:59:04.000Z</time>
      </trkpt>
      <trkpt lat="47.54054" lon="6.65264">
        <ele>492</ele>
        <time>2015-09-27T08:59:05.000Z</time>
      </trkpt>
      <trkpt lat="47.54049" lon="6.65255">
        <ele>492</ele>
        <time>2015-09-27T08:59:06.000Z</time>
      </trkpt>
      <trkpt lat="47.54045" lon="6.65247">
        <ele>487</ele>
        <time>2015-09-27T08:59:07.000Z</time>
      </trkpt>
      <trkpt lat="47.54041" lon="6.6524">
        <ele>486</ele>
        <time>2015-09-27T08:59:08.000Z</time>
      </trkpt>
      <trkpt lat="47.54038" lon="6.65233">
        <ele>486</ele>
        <time>2015-09-27T08:59:09.000Z</time>
      </trkpt>
      <trkpt lat="47.54035" lon="6.65228">
        <ele>486</ele>
        <time>2015-09-27T08:59:10.000Z</time>
      </trkpt>
      <trkpt lat="47.54032" lon="6.65221">
        <ele>486</ele>
        <time>2015-09-27T08:59:11.000Z</time>
      </trkpt>
      <trkpt lat="47.54027" lon="6.65214">
        <ele>486</ele>
        <time>2015-09-27T08:59:12.000Z</time>
      </trkpt>
      <trkpt lat="47.54024" lon="6.65208">
        <ele>485</ele>
        <time>2015-09-27T08:59:13.000Z</time>
      </trkpt>
      <trkpt lat="47.54022" lon="6.652">
        <ele>485</ele>
        <time>2015-09-27T08:59:14.000Z</time>
      </trkpt>
      <trkpt lat="47.54019" lon="6.65195">
        <ele>485</ele>
        <time>2015-09-27T08:59:15.000Z</time>
      </trkpt>
      <trkpt lat="47.54015" lon="6.65188">
        <ele>484</ele>
        <time>2015-09-27T08:59:16.000Z</time>
      </trkpt>
      <trkpt lat="47.54012" lon="6.65182">
        <ele>484</ele>
        <time>2015-09-27T08:59:17.000Z</time>
      </trkpt>
      <trkpt lat="47.54005" lon="6.65175">
        <ele>484</ele>
        <time>2015-09-27T08:59:18.000Z</time>
      </trkpt>
      <trkpt lat="47.54" lon="6.65168">
        <ele>483</ele>
        <time>2015-09-27T08:59:19.000Z</time>
      </trkpt>
      <trkpt lat="47.53996" lon="6.65163">
        <ele>483</ele>
        <time>2015-09-27T08:59:20.000Z</time>
      </trkpt>
      <trkpt lat="47.53993" lon="6.65158">
        <ele>483</ele>
        <time>2015-09-27T08:59:21.000Z</time>
      </trkpt>
      <trkpt lat="47.53991" lon="6.65155">
        <ele>483</ele>
        <time>2015-09-27T08:59:22.000Z</time>
      </trkpt>
      <trkpt lat="47.53987" lon="6.65151">
        <ele>483</ele>
        <time>2015-09-27T08:59:23.000Z</time>
      </trkpt>
      <trkpt lat="47.53982" lon="6.65148">
        <ele>483</ele>
        <time>2015-09-27T08:59:24.000Z</time>
      </trkpt>
      <trkpt lat="47.53979" lon="6.65144">
        <ele>483</ele>
        <time>2015-09-27T08:59:25.000Z</time>
      </trkpt>
      <trkpt lat="47.53977" lon="6.65141">
        <ele>483</ele>
        <time>2015-09-27T08:59:26.000Z</time>
      </trkpt>
      <trkpt lat="47.53976" lon="6.65138">
        <ele>483</ele>
        <time>2015-09-27T08:59:27.000Z</time>
      </trkpt>
      <trkpt lat="47.53974" lon="6.65137">
        <ele>483</ele>
        <time>2015-09-27T08:59:28.000Z</time>
      </trkpt>
      <trkpt lat="47.53973" lon="6.65133">
        <ele>483</ele>
        <time>2015-09-27T08:59:29.000Z</time>
      </trkpt>
      <trkpt lat="47.53971" lon="6.65131">
        <ele>483</ele>
        <time>2015-09-27T08:59:30.000Z</time>
      </trkpt>
      <trkpt lat="47.53969" lon="6.65127">
        <ele>483</ele>
        <time>2015-09-27T08:59:32.000Z</time>
      </trkpt>
      <trkpt lat="47.53968" lon="6.65126">
        <ele>483</ele>
        <time>2015-09-27T08:59:33.000Z</time>
      </trkpt>
      <trkpt lat="47.53964" lon="6.65123">
        <ele>483</ele>
        <time>2015-09-27T08:59:35.000Z</time>
      </trkpt>
      <trkpt lat="47.53962" lon="6.65121">
        <ele>483</ele>
        <time>2015-09-27T08:59:36.000Z</time>
      </trkpt>
      <trkpt lat="47.53959" lon="6.65117">
        <ele>483</ele>
        <time>2015-09-27T08:59:38.000Z</time>
      </trkpt>
      <trkpt lat="47.53957" lon="6.65114">
        <ele>483</ele>
        <time>2015-09-27T08:59:39.000Z</time>
      </trkpt>
      <trkpt lat="47.53955" lon="6.65111">
        <ele>483</ele>
        <time>2015-09-27T08:59:40.000Z</time>
      </trkpt>
      <trkpt lat="47.53953" lon="6.65108">
        <ele>483</ele>
        <time>2015-09-27T08:59:41.000Z</time>
      </trkpt>
      <trkpt lat="47.5395" lon="6.65106">
        <ele>483</ele>
        <time>2015-09-27T08:59:42.000Z</time>
      </trkpt>
      <trkpt lat="47.53947" lon="6.65105">
        <ele>483</ele>
        <time>2015-09-27T08:59:43.000Z</time>
      </trkpt>
      <trkpt lat="47.53945" lon="6.65103">
        <ele>484</ele>
        <time>2015-09-27T08:59:44.000Z</time>
      </trkpt>
      <trkpt lat="47.53942" lon="6.65101">
        <ele>484</ele>
        <time>2015-09-27T08:59:45.000Z</time>
      </trkpt>
      <trkpt lat="47.53939" lon="6.65099">
        <ele>484</ele>
        <time>2015-09-27T08:59:46.000Z</time>
      </trkpt>
      <trkpt lat="47.53937" lon="6.65098">
        <ele>484</ele>
        <time>2015-09-27T08:59:47.000Z</time>
      </trkpt>
      <trkpt lat="47.53934" lon="6.65096">
        <ele>484</ele>
        <time>2015-09-27T08:59:49.000Z</time>
      </trkpt>
      <trkpt lat="47.53932" lon="6.65095">
        <ele>484</ele>
        <time>2015-09-27T08:59:50.000Z</time>
      </trkpt>
      <trkpt lat="47.5393" lon="6.65093">
        <ele>484</ele>
        <time>2015-09-27T08:59:51.000Z</time>
      </trkpt>
      <trkpt lat="47.53928" lon="6.65092">
        <ele>484</ele>
        <time>2015-09-27T08:59:52.000Z</time>
      </trkpt>
      <trkpt lat="47.53925" lon="6.65089">
        <ele>484</ele>
        <time>2015-09-27T08:59:53.000Z</time>
      </trkpt>
      <trkpt lat="47.53922" lon="6.65085">
        <ele>485</ele>
        <time>2015-09-27T08:59:54.000Z</time>
      </trkpt>
      <trkpt lat="47.53919" lon="6.65081">
        <ele>484</ele>
        <time>2015-09-27T08:59:55.000Z</time>
      </trkpt>
      <trkpt lat="47.53916" lon="6.65077">
        <ele>484</ele>
        <time>2015-09-27T08:59:56.000Z</time>
      </trkpt>
      <trkpt lat="47.53912" lon="6.65073">
        <ele>484</ele>
        <time>2015-09-27T08:59:57.000Z</time>
      </trkpt>
      <trkpt lat="47.53909" lon="6.65069">
        <ele>483</ele>
        <time>2015-09-27T08:59:58.000Z</time>
      </trkpt>
      <trkpt lat="47.53905" lon="6.65066">
        <ele>483</ele>
        <time>2015-09-27T08:59:59.000Z</time>
      </trkpt>
      <trkpt lat="47.539" lon="6.65062">
        <ele>483</ele>
        <time>2015-09-27T09:00:00.000Z</time>
      </trkpt>
      <trkpt lat="47.53896" lon="6.65058">
        <ele>482</ele>
        <time>2015-09-27T09:00:01.000Z</time>
      </trkpt>
      <trkpt lat="47.53887" lon="6.65044">
        <ele>482</ele>
        <time>2015-09-27T09:00:02.000Z</time>
      </trkpt>
      <trkpt lat="47.53883" lon="6.65039">
        <ele>481</ele>
        <time>2015-09-27T09:00:03.000Z</time>
      </trkpt>
      <trkpt lat="47.5388" lon="6.65035">
        <ele>481</ele>
        <time>2015-09-27T09:00:04.000Z</time>
      </trkpt>
      <trkpt lat="47.53879" lon="6.65034">
        <ele>481</ele>
        <time>2015-09-27T09:00:05.000Z</time>
      </trkpt>
      <trkpt lat="47.53876" lon="6.65033">
        <ele>481</ele>
        <time>2015-09-27T09:00:06.000Z</time>
      </trkpt>
      <trkpt lat="47.53873" lon="6.6503">
        <ele>481</ele>
        <time>2015-09-27T09:00:07.000Z</time>
      </trkpt>
      <trkpt lat="47.53869" lon="6.65029">
        <ele>481</ele>
        <time>2015-09-27T09:00:08.000Z</time>
      </trkpt>
      <trkpt lat="47.53867" lon="6.65028">
        <ele>481</ele>
        <time>2015-09-27T09:00:09.000Z</time>
      </trkpt>
      <trkpt lat="47.53863" lon="6.65026">
        <ele>481</ele>
        <time>2015-09-27T09:00:10.000Z</time>
      </trkpt>
      <trkpt lat="47.53857" lon="6.65022">
        <ele>481</ele>
        <time>2015-09-27T09:00:11.000Z</time>
      </trkpt>
      <trkpt lat="47.53853" lon="6.65019">
        <ele>481</ele>
        <time>2015-09-27T09:00:12.000Z</time>
      </trkpt>
      <trkpt lat="47.53848" lon="6.65017">
        <ele>481</ele>
        <time>2015-09-27T09:00:13.000Z</time>
      </trkpt>
      <trkpt lat="47.53844" lon="6.65014">
        <ele>481</ele>
        <time>2015-09-27T09:00:14.000Z</time>
      </trkpt>
      <trkpt lat="47.53833" lon="6.65009">
        <ele>481</ele>
        <time>2015-09-27T09:00:15.000Z</time>
      </trkpt>
      <trkpt lat="47.53827" lon="6.65005">
        <ele>481</ele>
        <time>2015-09-27T09:00:16.000Z</time>
      </trkpt>
      <trkpt lat="47.53824" lon="6.65003">
        <ele>481</ele>
        <time>2015-09-27T09:00:17.000Z</time>
      </trkpt>
      <trkpt lat="47.53822" lon="6.65003">
        <ele>481</ele>
        <time>2015-09-27T09:00:18.000Z</time>
      </trkpt>
      <trkpt lat="47.53821" lon="6.65008">
        <ele>481</ele>
        <time>2015-09-27T09:00:20.000Z</time>
      </trkpt>
      <trkpt lat="47.5382" lon="6.65009">
        <ele>481</ele>
        <time>2015-09-27T09:00:21.000Z</time>
      </trkpt>
      <trkpt lat="47.53818" lon="6.65014">
        <ele>481</ele>
        <time>2015-09-27T09:00:23.000Z</time>
      </trkpt>
      <trkpt lat="47.53815" lon="6.65014">
        <ele>482</ele>
        <time>2015-09-27T09:00:24.000Z</time>
      </trkpt>
      <trkpt lat="47.53812" lon="6.65015">
        <ele>482</ele>
        <time>2015-09-27T09:00:25.000Z</time>
      </trkpt>
      <trkpt lat="47.53808" lon="6.65014">
        <ele>482</ele>
        <time>2015-09-27T09:00:26.000Z</time>
      </trkpt>
      <trkpt lat="47.53804" lon="6.65011">
        <ele>481</ele>
        <time>2015-09-27T09:00:27.000Z</time>
      </trkpt>
      <trkpt lat="47.538" lon="6.65008">
        <ele>481</ele>
        <time>2015-09-27T09:00:28.000Z</time>
      </trkpt>
      <trkpt lat="47.53796" lon="6.65004">
        <ele>481</ele>
        <time>2015-09-27T09:00:29.000Z</time>
      </trkpt>
      <trkpt lat="47.53791" lon="6.65001">
        <ele>481</ele>
        <time>2015-09-27T09:00:30.000Z</time>
      </trkpt>
      <trkpt lat="47.53785" lon="6.64998">
        <ele>476</ele>
        <time>2015-09-27T09:00:31.000Z</time>
      </trkpt>
      <trkpt lat="47.53779" lon="6.64995">
        <ele>476</ele>
        <time>2015-09-27T09:00:32.000Z</time>
      </trkpt>
      <trkpt lat="47.53765" lon="6.64989">
        <ele>476</ele>
        <time>2015-09-27T09:00:33.000Z</time>
      </trkpt>
      <trkpt lat="47.53759" lon="6.64985">
        <ele>476</ele>
        <time>2015-09-27T09:00:34.000Z</time>
      </trkpt>
      <trkpt lat="47.53752" lon="6.64982">
        <ele>476</ele>
        <time>2015-09-27T09:00:35.000Z</time>
      </trkpt>
      <trkpt lat="47.53747" lon="6.64979">
        <ele>475</ele>
        <time>2015-09-27T09:00:36.000Z</time>
      </trkpt>
      <trkpt lat="47.53742" lon="6.64978">
        <ele>475</ele>
        <time>2015-09-27T09:00:37.000Z</time>
      </trkpt>
      <trkpt lat="47.53738" lon="6.64977">
        <ele>475</ele>
        <time>2015-09-27T09:00:38.000Z</time>
      </trkpt>
      <trkpt lat="47.53732" lon="6.64976">
        <ele>475</ele>
        <time>2015-09-27T09:00:39.000Z</time>
      </trkpt>
      <trkpt lat="47.53727" lon="6.64976">
        <ele>475</ele>
        <time>2015-09-27T09:00:40.000Z</time>
      </trkpt>
      <trkpt lat="47.53723" lon="6.64976">
        <ele>474</ele>
        <time>2015-09-27T09:00:41.000Z</time>
      </trkpt>
      <trkpt lat="47.5372" lon="6.64976">
        <ele>474</ele>
        <time>2015-09-27T09:00:42.000Z</time>
      </trkpt>
      <trkpt lat="47.53716" lon="6.64979">
        <ele>474</ele>
        <time>2015-09-27T09:00:46.000Z</time>
      </trkpt>
      <trkpt lat="47.53716" lon="6.64981">
        <ele>474</ele>
        <time>2015-09-27T09:00:47.000Z</time>
      </trkpt>
      <trkpt lat="47.53713" lon="6.64986">
        <ele>475</ele>
        <time>2015-09-27T09:00:49.000Z</time>
      </trkpt>
      <trkpt lat="47.53712" lon="6.64988">
        <ele>475</ele>
        <time>2015-09-27T09:00:50.000Z</time>
      </trkpt>
      <trkpt lat="47.53709" lon="6.64991">
        <ele>475</ele>
        <time>2015-09-27T09:00:51.000Z</time>
      </trkpt>
      <trkpt lat="47.53705" lon="6.64994">
        <ele>474</ele>
        <time>2015-09-27T09:00:52.000Z</time>
      </trkpt>
      <trkpt lat="47.53702" lon="6.64997">
        <ele>474</ele>
        <time>2015-09-27T09:00:53.000Z</time>
      </trkpt>
      <trkpt lat="47.537" lon="6.65">
        <ele>478</ele>
        <time>2015-09-27T09:00:54.000Z</time>
      </trkpt>
      <trkpt lat="47.53697" lon="6.65006">
        <ele>478</ele>
        <time>2015-09-27T09:00:56.000Z</time>
      </trkpt>
      <trkpt lat="47.53696" lon="6.65008">
        <ele>478</ele>
        <time>2015-09-27T09:00:57.000Z</time>
      </trkpt>
      <trkpt lat="47.53695" lon="6.6501">
        <ele>478</ele>
        <time>2015-09-27T09:00:58.000Z</time>
      </trkpt>
      <trkpt lat="47.53693" lon="6.65013">
        <ele>478</ele>
        <time>2015-09-27T09:00:59.000Z</time>
      </trkpt>
      <trkpt lat="47.53691" lon="6.65016">
        <ele>478</ele>
        <time>2015-09-27T09:01:00.000Z</time>
      </trkpt>
      <trkpt lat="47.53689" lon="6.65019">
        <ele>478</ele>
        <time>2015-09-27T09:01:01.000Z</time>
      </trkpt>
      <trkpt lat="47.53687" lon="6.65022">
        <ele>478</ele>
        <time>2015-09-27T09:01:02.000Z</time>
      </trkpt>
      <trkpt lat="47.53684" lon="6.65026">
        <ele>478</ele>
        <time>2015-09-27T09:01:03.000Z</time>
      </trkpt>
      <trkpt lat="47.53681" lon="6.65029">
        <ele>478</ele>
        <time>2015-09-27T09:01:04.000Z</time>
      </trkpt>
      <trkpt lat="47.53678" lon="6.65032">
        <ele>478</ele>
        <time>2015-09-27T09:01:05.000Z</time>
      </trkpt>
      <trkpt lat="47.53674" lon="6.65036">
        <ele>478</ele>
        <time>2015-09-27T09:01:06.000Z</time>
      </trkpt>
      <trkpt lat="47.53669" lon="6.65039">
        <ele>478</ele>
        <time>2015-09-27T09:01:07.000Z</time>
      </trkpt>
      <trkpt lat="47.53663" lon="6.65043">
        <ele>476</ele>
        <time>2015-09-27T09:01:08.000Z</time>
      </trkpt>
      <trkpt lat="47.53658" lon="6.65046">
        <ele>476</ele>
        <time>2015-09-27T09:01:09.000Z</time>
      </trkpt>
      <trkpt lat="47.53653" lon="6.6505">
        <ele>476</ele>
        <time>2015-09-27T09:01:10.000Z</time>
      </trkpt>
      <trkpt lat="47.53649" lon="6.65052">
        <ele>476</ele>
        <time>2015-09-27T09:01:11.000Z</time>
      </trkpt>
      <trkpt lat="47.53645" lon="6.65055">
        <ele>476</ele>
        <time>2015-09-27T09:01:12.000Z</time>
      </trkpt>
      <trkpt lat="47.53641" lon="6.65057">
        <ele>476</ele>
        <time>2015-09-27T09:01:13.000Z</time>
      </trkpt>
      <trkpt lat="47.53637" lon="6.6506">
        <ele>476</ele>
        <time>2015-09-27T09:01:14.000Z</time>
      </trkpt>
      <trkpt lat="47.53633" lon="6.65062">
        <ele>475</ele>
        <time>2015-09-27T09:01:15.000Z</time>
      </trkpt>
      <trkpt lat="47.53626" lon="6.65063">
        <ele>475</ele>
        <time>2015-09-27T09:01:16.000Z</time>
      </trkpt>
      <trkpt lat="47.536" lon="6.65058">
        <ele>474</ele>
        <time>2015-09-27T09:01:17.000Z</time>
      </trkpt>
      <trkpt lat="47.5359" lon="6.65053">
        <ele>474</ele>
        <time>2015-09-27T09:01:18.000Z</time>
      </trkpt>
      <trkpt lat="47.53583" lon="6.65052">
        <ele>470</ele>
        <time>2015-09-27T09:01:19.000Z</time>
      </trkpt>
      <trkpt lat="47.53577" lon="6.65056">
        <ele>470</ele>
        <time>2015-09-27T09:01:20.000Z</time>
      </trkpt>
      <trkpt lat="47.53573" lon="6.65059">
        <ele>470</ele>
        <time>2015-09-27T09:01:21.000Z</time>
      </trkpt>
      <trkpt lat="47.53569" lon="6.65063">
        <ele>470</ele>
        <time>2015-09-27T09:01:22.000Z</time>
      </trkpt>
      <trkpt lat="47.53565" lon="6.6507">
        <ele>470</ele>
        <time>2015-09-27T09:01:23.000Z</time>
      </trkpt>
      <trkpt lat="47.5356" lon="6.65075">
        <ele>470</ele>
        <time>2015-09-27T09:01:24.000Z</time>
      </trkpt>
      <trkpt lat="47.53556" lon="6.65084">
        <ele>471</ele>
        <time>2015-09-27T09:01:25.000Z</time>
      </trkpt>
      <trkpt lat="47.53552" lon="6.65091">
        <ele>471</ele>
        <time>2015-09-27T09:01:26.000Z</time>
      </trkpt>
      <trkpt lat="47.53548" lon="6.65096">
        <ele>470</ele>
        <time>2015-09-27T09:01:27.000Z</time>
      </trkpt>
      <trkpt lat="47.53544" lon="6.65103">
        <ele>470</ele>
        <time>2015-09-27T09:01:28.000Z</time>
      </trkpt>
      <trkpt lat="47.5354" lon="6.65111">
        <ele>470</ele>
        <time>2015-09-27T09:01:29.000Z</time>
      </trkpt>
      <trkpt lat="47.53534" lon="6.65118">
        <ele>470</ele>
        <time>2015-09-27T09:01:30.000Z</time>
      </trkpt>
      <trkpt lat="47.53529" lon="6.65125">
        <ele>470</ele>
        <time>2015-09-27T09:01:31.000Z</time>
      </trkpt>
      <trkpt lat="47.53525" lon="6.65132">
        <ele>470</ele>
        <time>2015-09-27T09:01:32.000Z</time>
      </trkpt>
      <trkpt lat="47.53522" lon="6.6514">
        <ele>469</ele>
        <time>2015-09-27T09:01:33.000Z</time>
      </trkpt>
      <trkpt lat="47.53519" lon="6.65147">
        <ele>469</ele>
        <time>2015-09-27T09:01:34.000Z</time>
      </trkpt>
      <trkpt lat="47.53514" lon="6.65153">
        <ele>469</ele>
        <time>2015-09-27T09:01:35.000Z</time>
      </trkpt>
      <trkpt lat="47.53509" lon="6.6516">
        <ele>468</ele>
        <time>2015-09-27T09:01:36.000Z</time>
      </trkpt>
      <trkpt lat="47.53504" lon="6.65167">
        <ele>468</ele>
        <time>2015-09-27T09:01:37.000Z</time>
      </trkpt>
      <trkpt lat="47.53499" lon="6.65174">
        <ele>466</ele>
        <time>2015-09-27T09:01:38.000Z</time>
      </trkpt>
      <trkpt lat="47.53494" lon="6.65182">
        <ele>465</ele>
        <time>2015-09-27T09:01:39.000Z</time>
      </trkpt>
      <trkpt lat="47.53491" lon="6.65189">
        <ele>465</ele>
        <time>2015-09-27T09:01:40.000Z</time>
      </trkpt>
      <trkpt lat="47.53488" lon="6.65196">
        <ele>465</ele>
        <time>2015-09-27T09:01:41.000Z</time>
      </trkpt>
      <trkpt lat="47.53485" lon="6.65202">
        <ele>464</ele>
        <time>2015-09-27T09:01:42.000Z</time>
      </trkpt>
      <trkpt lat="47.5348" lon="6.65209">
        <ele>464</ele>
        <time>2015-09-27T09:01:43.000Z</time>
      </trkpt>
      <trkpt lat="47.53474" lon="6.65217">
        <ele>464</ele>
        <time>2015-09-27T09:01:44.000Z</time>
      </trkpt>
      <trkpt lat="47.53468" lon="6.65224">
        <ele>464</ele>
        <time>2015-09-27T09:01:45.000Z</time>
      </trkpt>
      <trkpt lat="47.53462" lon="6.6523">
        <ele>463</ele>
        <time>2015-09-27T09:01:46.000Z</time>
      </trkpt>
      <trkpt lat="47.53457" lon="6.65233">
        <ele>463</ele>
        <time>2015-09-27T09:01:47.000Z</time>
      </trkpt>
      <trkpt lat="47.53448" lon="6.65229">
        <ele>463</ele>
        <time>2015-09-27T09:01:48.000Z</time>
      </trkpt>
      <trkpt lat="47.5344" lon="6.6522">
        <ele>462</ele>
        <time>2015-09-27T09:01:49.000Z</time>
      </trkpt>
      <trkpt lat="47.53433" lon="6.65212">
        <ele>462</ele>
        <time>2015-09-27T09:01:50.000Z</time>
      </trkpt>
      <trkpt lat="47.53425" lon="6.65206">
        <ele>462</ele>
        <time>2015-09-27T09:01:51.000Z</time>
      </trkpt>
      <trkpt lat="47.53416" lon="6.65199">
        <ele>457</ele>
        <time>2015-09-27T09:01:52.000Z</time>
      </trkpt>
      <trkpt lat="47.53408" lon="6.65193">
        <ele>457</ele>
        <time>2015-09-27T09:01:53.000Z</time>
      </trkpt>
      <trkpt lat="47.53401" lon="6.65187">
        <ele>457</ele>
        <time>2015-09-27T09:01:54.000Z</time>
      </trkpt>
      <trkpt lat="47.53394" lon="6.6518">
        <ele>457</ele>
        <time>2015-09-27T09:01:55.000Z</time>
      </trkpt>
      <trkpt lat="47.53386" lon="6.65172">
        <ele>457</ele>
        <time>2015-09-27T09:01:56.000Z</time>
      </trkpt>
      <trkpt lat="47.53378" lon="6.65164">
        <ele>455</ele>
        <time>2015-09-27T09:01:57.000Z</time>
      </trkpt>
      <trkpt lat="47.53372" lon="6.65157">
        <ele>455</ele>
        <time>2015-09-27T09:01:58.000Z</time>
      </trkpt>
      <trkpt lat="47.53366" lon="6.6515">
        <ele>454</ele>
        <time>2015-09-27T09:01:59.000Z</time>
      </trkpt>
      <trkpt lat="47.53357" lon="6.65142">
        <ele>454</ele>
        <time>2015-09-27T09:02:00.000Z</time>
      </trkpt>
      <trkpt lat="47.53351" lon="6.65132">
        <ele>454</ele>
        <time>2015-09-27T09:02:01.000Z</time>
      </trkpt>
      <trkpt lat="47.53344" lon="6.65126">
        <ele>454</ele>
        <time>2015-09-27T09:02:02.000Z</time>
      </trkpt>
      <trkpt lat="47.53337" lon="6.65116">
        <ele>453</ele>
        <time>2015-09-27T09:02:03.000Z</time>
      </trkpt>
      <trkpt lat="47.53329" lon="6.65108">
        <ele>450</ele>
        <time>2015-09-27T09:02:04.000Z</time>
      </trkpt>
      <trkpt lat="47.53322" lon="6.65099">
        <ele>450</ele>
        <time>2015-09-27T09:02:05.000Z</time>
      </trkpt>
      <trkpt lat="47.53315" lon="6.6509">
        <ele>450</ele>
        <time>2015-09-27T09:02:06.000Z</time>
      </trkpt>
      <trkpt lat="47.53307" lon="6.65081">
        <ele>448</ele>
        <time>2015-09-27T09:02:07.000Z</time>
      </trkpt>
      <trkpt lat="47.53299" lon="6.65071">
        <ele>447</ele>
        <time>2015-09-27T09:02:08.000Z</time>
      </trkpt>
      <trkpt lat="47.53291" lon="6.65062">
        <ele>446</ele>
        <time>2015-09-27T09:02:09.000Z</time>
      </trkpt>
      <trkpt lat="47.53282" lon="6.65053">
        <ele>446</ele>
        <time>2015-09-27T09:02:10.000Z</time>
      </trkpt>
      <trkpt lat="47.53275" lon="6.65044">
        <ele>445</ele>
        <time>2015-09-27T09:02:11.000Z</time>
      </trkpt>
      <trkpt lat="47.53271" lon="6.65037">
        <ele>445</ele>
        <time>2015-09-27T09:02:12.000Z</time>
      </trkpt>
      <trkpt lat="47.53265" lon="6.65029">
        <ele>444</ele>
        <time>2015-09-27T09:02:13.000Z</time>
      </trkpt>
      <trkpt lat="47.53263" lon="6.65023">
        <ele>444</ele>
        <time>2015-09-27T09:02:14.000Z</time>
      </trkpt>
      <trkpt lat="47.53257" lon="6.6502">
        <ele>443</ele>
        <time>2015-09-27T09:02:15.000Z</time>
      </trkpt>
      <trkpt lat="47.53253" lon="6.65018">
        <ele>443</ele>
        <time>2015-09-27T09:02:16.000Z</time>
      </trkpt>
      <trkpt lat="47.53248" lon="6.65019">
        <ele>440</ele>
        <time>2015-09-27T09:02:17.000Z</time>
      </trkpt>
      <trkpt lat="47.53242" lon="6.6502">
        <ele>440</ele>
        <time>2015-09-27T09:02:18.000Z</time>
      </trkpt>
      <trkpt lat="47.53236" lon="6.65019">
        <ele>440</ele>
        <time>2015-09-27T09:02:19.000Z</time>
      </trkpt>
      <trkpt lat="47.53229" lon="6.65021">
        <ele>440</ele>
        <time>2015-09-27T09:02:20.000Z</time>
      </trkpt>
      <trkpt lat="47.53219" lon="6.6502">
        <ele>439</ele>
        <time>2015-09-27T09:02:21.000Z</time>
      </trkpt>
      <trkpt lat="47.53211" lon="6.65019">
        <ele>439</ele>
        <time>2015-09-27T09:02:22.000Z</time>
      </trkpt>
      <trkpt lat="47.53204" lon="6.65018">
        <ele>439</ele>
        <time>2015-09-27T09:02:23.000Z</time>
      </trkpt>
      <trkpt lat="47.53197" lon="6.65015">
        <ele>438</ele>
        <time>2015-09-27T09:02:24.000Z</time>
      </trkpt>
      <trkpt lat="47.53193" lon="6.65014">
        <ele>438</ele>
        <time>2015-09-27T09:02:25.000Z</time>
      </trkpt>
      <trkpt lat="47.53188" lon="6.65014">
        <ele>438</ele>
        <time>2015-09-27T09:02:26.000Z</time>
      </trkpt>
      <trkpt lat="47.53184" lon="6.65017">
        <ele>438</ele>
        <time>2015-09-27T09:02:27.000Z</time>
      </trkpt>
      <trkpt lat="47.5318" lon="6.65024">
        <ele>438</ele>
        <time>2015-09-27T09:02:28.000Z</time>
      </trkpt>
      <trkpt lat="47.53177" lon="6.65029">
        <ele>438</ele>
        <time>2015-09-27T09:02:29.000Z</time>
      </trkpt>
      <trkpt lat="47.53174" lon="6.65035">
        <ele>438</ele>
        <time>2015-09-27T09:02:30.000Z</time>
      </trkpt>
      <trkpt lat="47.53172" lon="6.65043">
        <ele>439</ele>
        <time>2015-09-27T09:02:31.000Z</time>
      </trkpt>
      <trkpt lat="47.53166" lon="6.65045">
        <ele>435</ele>
        <time>2015-09-27T09:02:32.000Z</time>
      </trkpt>
      <trkpt lat="47.5316" lon="6.65049">
        <ele>435</ele>
        <time>2015-09-27T09:02:33.000Z</time>
      </trkpt>
      <trkpt lat="47.53154" lon="6.65047">
        <ele>435</ele>
        <time>2015-09-27T09:02:34.000Z</time>
      </trkpt>
      <trkpt lat="47.53148" lon="6.65045">
        <ele>435</ele>
        <time>2015-09-27T09:02:35.000Z</time>
      </trkpt>
      <trkpt lat="47.53142" lon="6.65044">
        <ele>435</ele>
        <time>2015-09-27T09:02:36.000Z</time>
      </trkpt>
      <trkpt lat="47.53133" lon="6.65042">
        <ele>434</ele>
        <time>2015-09-27T09:02:37.000Z</time>
      </trkpt>
      <trkpt lat="47.53127" lon="6.65041">
        <ele>434</ele>
        <time>2015-09-27T09:02:38.000Z</time>
      </trkpt>
      <trkpt lat="47.5312" lon="6.6504">
        <ele>434</ele>
        <time>2015-09-27T09:02:39.000Z</time>
      </trkpt>
      <trkpt lat="47.53114" lon="6.65041">
        <ele>434</ele>
        <time>2015-09-27T09:02:40.000Z</time>
      </trkpt>
      <trkpt lat="47.53107" lon="6.65041">
        <ele>433</ele>
        <time>2015-09-27T09:02:41.000Z</time>
      </trkpt>
      <trkpt lat="47.531" lon="6.65044">
        <ele>433</ele>
        <time>2015-09-27T09:02:42.000Z</time>
      </trkpt>
      <trkpt lat="47.53093" lon="6.65049">
        <ele>433</ele>
        <time>2015-09-27T09:02:43.000Z</time>
      </trkpt>
      <trkpt lat="47.53087" lon="6.65054">
        <ele>433</ele>
        <time>2015-09-27T09:02:44.000Z</time>
      </trkpt>
      <trkpt lat="47.53081" lon="6.6506">
        <ele>429</ele>
        <time>2015-09-27T09:02:45.000Z</time>
      </trkpt>
      <trkpt lat="47.53074" lon="6.65064">
        <ele>429</ele>
        <time>2015-09-27T09:02:46.000Z</time>
      </trkpt>
      <trkpt lat="47.53065" lon="6.65066">
        <ele>429</ele>
        <time>2015-09-27T09:02:47.000Z</time>
      </trkpt>
      <trkpt lat="47.53058" lon="6.65069">
        <ele>429</ele>
        <time>2015-09-27T09:02:48.000Z</time>
      </trkpt>
      <trkpt lat="47.53051" lon="6.65076">
        <ele>428</ele>
        <time>2015-09-27T09:02:49.000Z</time>
      </trkpt>
      <trkpt lat="47.53043" lon="6.65081">
        <ele>428</ele>
        <time>2015-09-27T09:02:50.000Z</time>
      </trkpt>
      <trkpt lat="47.53037" lon="6.65088">
        <ele>429</ele>
        <time>2015-09-27T09:02:51.000Z</time>
      </trkpt>
      <trkpt lat="47.5303" lon="6.65095">
        <ele>429</ele>
        <time>2015-09-27T09:02:52.000Z</time>
      </trkpt>
      <trkpt lat="47.53022" lon="6.65099">
        <ele>428</ele>
        <time>2015-09-27T09:02:53.000Z</time>
      </trkpt>
      <trkpt lat="47.5301" lon="6.65101">
        <ele>428</ele>
        <time>2015-09-27T09:02:54.000Z</time>
      </trkpt>
      <trkpt lat="47.53002" lon="6.65104">
        <ele>428</ele>
        <time>2015-09-27T09:02:55.000Z</time>
      </trkpt>
      <trkpt lat="47.52989" lon="6.65107">
        <ele>423</ele>
        <time>2015-09-27T09:02:56.000Z</time>
      </trkpt>
      <trkpt lat="47.52979" lon="6.65111">
        <ele>422</ele>
        <time>2015-09-27T09:02:57.000Z</time>
      </trkpt>
      <trkpt lat="47.52968" lon="6.65112">
        <ele>422</ele>
        <time>2015-09-27T09:02:58.000Z</time>
      </trkpt>
      <trkpt lat="47.5296" lon="6.65115">
        <ele>421</ele>
        <time>2015-09-27T09:02:59.000Z</time>
      </trkpt>
      <trkpt lat="47.52951" lon="6.65118">
        <ele>421</ele>
        <time>2015-09-27T09:03:00.000Z</time>
      </trkpt>
      <trkpt lat="47.52942" lon="6.65123">
        <ele>421</ele>
        <time>2015-09-27T09:03:01.000Z</time>
      </trkpt>
      <trkpt lat="47.52931" lon="6.65126">
        <ele>420</ele>
        <time>2015-09-27T09:03:02.000Z</time>
      </trkpt>
      <trkpt lat="47.52922" lon="6.65129">
        <ele>420</ele>
        <time>2015-09-27T09:03:03.000Z</time>
      </trkpt>
      <trkpt lat="47.52912" lon="6.65133">
        <ele>414</ele>
        <time>2015-09-27T09:03:04.000Z</time>
      </trkpt>
      <trkpt lat="47.52902" lon="6.65135">
        <ele>414</ele>
        <time>2015-09-27T09:03:05.000Z</time>
      </trkpt>
      <trkpt lat="47.52895" lon="6.65139">
        <ele>413</ele>
        <time>2015-09-27T09:03:06.000Z</time>
      </trkpt>
      <trkpt lat="47.52889" lon="6.65147">
        <ele>413</ele>
        <time>2015-09-27T09:03:07.000Z</time>
      </trkpt>
      <trkpt lat="47.52882" lon="6.65154">
        <ele>413</ele>
        <time>2015-09-27T09:03:08.000Z</time>
      </trkpt>
      <trkpt lat="47.52876" lon="6.65161">
        <ele>412</ele>
        <time>2015-09-27T09:03:09.000Z</time>
      </trkpt>
      <trkpt lat="47.52868" lon="6.6517">
        <ele>412</ele>
        <time>2015-09-27T09:03:10.000Z</time>
      </trkpt>
      <trkpt lat="47.5286" lon="6.65177">
        <ele>412</ele>
        <time>2015-09-27T09:03:11.000Z</time>
      </trkpt>
      <trkpt lat="47.52853" lon="6.65183">
        <ele>411</ele>
        <time>2015-09-27T09:03:12.000Z</time>
      </trkpt>
      <trkpt lat="47.52844" lon="6.65189">
        <ele>411</ele>
        <time>2015-09-27T09:03:13.000Z</time>
      </trkpt>
      <trkpt lat="47.52832" lon="6.65195">
        <ele>405</ele>
        <time>2015-09-27T09:03:14.000Z</time>
      </trkpt>
      <trkpt lat="47.52826" lon="6.65201">
        <ele>405</ele>
        <time>2015-09-27T09:03:15.000Z</time>
      </trkpt>
      <trkpt lat="47.52819" lon="6.65207">
        <ele>404</ele>
        <time>2015-09-27T09:03:16.000Z</time>
      </trkpt>
      <trkpt lat="47.52814" lon="6.65217">
        <ele>404</ele>
        <time>2015-09-27T09:03:17.000Z</time>
      </trkpt>
      <trkpt lat="47.52808" lon="6.65225">
        <ele>404</ele>
        <time>2015-09-27T09:03:18.000Z</time>
      </trkpt>
      <trkpt lat="47.52802" lon="6.6523">
        <ele>403</ele>
        <time>2015-09-27T09:03:19.000Z</time>
      </trkpt>
      <trkpt lat="47.52792" lon="6.65232">
        <ele>402</ele>
        <time>2015-09-27T09:03:20.000Z</time>
      </trkpt>
      <trkpt lat="47.52779" lon="6.65227">
        <ele>401</ele>
        <time>2015-09-27T09:03:21.000Z</time>
      </trkpt>
      <trkpt lat="47.52771" lon="6.65225">
        <ele>401</ele>
        <time>2015-09-27T09:03:22.000Z</time>
      </trkpt>
      <trkpt lat="47.52762" lon="6.65222">
        <ele>401</ele>
        <time>2015-09-27T09:03:23.000Z</time>
      </trkpt>
      <trkpt lat="47.52757" lon="6.65215">
        <ele>401</ele>
        <time>2015-09-27T09:03:24.000Z</time>
      </trkpt>
      <trkpt lat="47.52753" lon="6.65207">
        <ele>400</ele>
        <time>2015-09-27T09:03:25.000Z</time>
      </trkpt>
      <trkpt lat="47.5275" lon="6.65199">
        <ele>393</ele>
        <time>2015-09-27T09:03:26.000Z</time>
      </trkpt>
      <trkpt lat="47.52748" lon="6.65196">
        <ele>393</ele>
        <time>2015-09-27T09:03:27.000Z</time>
      </trkpt>
      <trkpt lat="47.52744" lon="6.65194">
        <ele>393</ele>
        <time>2015-09-27T09:03:28.000Z</time>
      </trkpt>
      <trkpt lat="47.52745" lon="6.65199">
        <ele>393</ele>
        <time>2015-09-27T09:03:30.000Z</time>
      </trkpt>
      <trkpt lat="47.52744" lon="6.652">
        <ele>393</ele>
        <time>2015-09-27T09:03:31.000Z</time>
      </trkpt>
      <trkpt lat="47.52742" lon="6.65204">
        <ele>393</ele>
        <time>2015-09-27T09:03:33.001Z</time>
      </trkpt>
      <trkpt lat="47.5274" lon="6.65207">
        <ele>392</ele>
        <time>2015-09-27T09:03:34.000Z</time>
      </trkpt>
      <trkpt lat="47.52737" lon="6.65208">
        <ele>392</ele>
        <time>2015-09-27T09:03:35.000Z</time>
      </trkpt>
      <trkpt lat="47.52735" lon="6.65209">
        <ele>392</ele>
        <time>2015-09-27T09:03:36.000Z</time>
      </trkpt>
      <trkpt lat="47.52733" lon="6.65212">
        <ele>392</ele>
        <time>2015-09-27T09:03:37.000Z</time>
      </trkpt>
      <trkpt lat="47.52731" lon="6.65215">
        <ele>392</ele>
        <time>2015-09-27T09:03:38.000Z</time>
      </trkpt>
      <trkpt lat="47.52728" lon="6.65219">
        <ele>392</ele>
        <time>2015-09-27T09:03:39.000Z</time>
      </trkpt>
      <trkpt lat="47.52725" lon="6.65222">
        <ele>392</ele>
        <time>2015-09-27T09:03:40.000Z</time>
      </trkpt>
      <trkpt lat="47.52722" lon="6.65225">
        <ele>392</ele>
        <time>2015-09-27T09:03:41.000Z</time>
      </trkpt>
      <trkpt lat="47.52719" lon="6.65228">
        <ele>391</ele>
        <time>2015-09-27T09:03:42.000Z</time>
      </trkpt>
      <trkpt lat="47.52716" lon="6.65232">
        <ele>391</ele>
        <time>2015-09-27T09:03:43.000Z</time>
      </trkpt>
      <trkpt lat="47.52714" lon="6.65235">
        <ele>391</ele>
        <time>2015-09-27T09:03:44.000Z</time>
      </trkpt>
      <trkpt lat="47.52711" lon="6.65239">
        <ele>391</ele>
        <time>2015-09-27T09:03:45.000Z</time>
      </trkpt>
      <trkpt lat="47.52709" lon="6.65242">
        <ele>390</ele>
        <time>2015-09-27T09:03:46.000Z</time>
      </trkpt>
      <trkpt lat="47.52706" lon="6.65246">
        <ele>390</ele>
        <time>2015-09-27T09:03:47.000Z</time>
      </trkpt>
      <trkpt lat="47.52704" lon="6.65249">
        <ele>390</ele>
        <time>2015-09-27T09:03:48.000Z</time>
      </trkpt>
      <trkpt lat="47.52701" lon="6.65253">
        <ele>388</ele>
        <time>2015-09-27T09:03:49.000Z</time>
      </trkpt>
      <trkpt lat="47.52699" lon="6.65256">
        <ele>388</ele>
        <time>2015-09-27T09:03:50.000Z</time>
      </trkpt>
      <trkpt lat="47.52696" lon="6.65259">
        <ele>388</ele>
        <time>2015-09-27T09:03:50.999Z</time>
      </trkpt>
      <trkpt lat="47.52694" lon="6.65262">
        <ele>388</ele>
        <time>2015-09-27T09:03:52.000Z</time>
      </trkpt>
      <trkpt lat="47.52692" lon="6.65265">
        <ele>388</ele>
        <time>2015-09-27T09:03:53.001Z</time>
      </trkpt>
      <trkpt lat="47.52691" lon="6.65267">
        <ele>387</ele>
        <time>2015-09-27T09:03:54.000Z</time>
      </trkpt>
      <trkpt lat="47.52688" lon="6.65268">
        <ele>387</ele>
        <time>2015-09-27T09:04:42.000Z</time>
      </trkpt>
      <trkpt lat="47.52686" lon="6.6527">
        <ele>387</ele>
        <time>2015-09-27T09:04:43.000Z</time>
      </trkpt>
      <trkpt lat="47.52685" lon="6.65272">
        <ele>387</ele>
        <time>2015-09-27T09:04:44.000Z</time>
      </trkpt>
      <trkpt lat="47.52682" lon="6.65275">
        <ele>387</ele>
        <time>2015-09-27T09:04:45.000Z</time>
      </trkpt>
      <trkpt lat="47.52679" lon="6.65279">
        <ele>387</ele>
        <time>2015-09-27T09:04:46.000Z</time>
      </trkpt>
      <trkpt lat="47.52675" lon="6.65282">
        <ele>387</ele>
        <time>2015-09-27T09:04:47.000Z</time>
      </trkpt>
      <trkpt lat="47.52671" lon="6.65285">
        <ele>387</ele>
        <time>2015-09-27T09:04:48.000Z</time>
      </trkpt>
      <trkpt lat="47.52664" lon="6.65289">
        <ele>381</ele>
        <time>2015-09-27T09:04:49.000Z</time>
      </trkpt>
      <trkpt lat="47.5266" lon="6.65293">
        <ele>381</ele>
        <time>2015-09-27T09:04:50.000Z</time>
      </trkpt>
      <trkpt lat="47.52655" lon="6.65296">
        <ele>380</ele>
        <time>2015-09-27T09:04:51.000Z</time>
      </trkpt>
      <trkpt lat="47.52651" lon="6.653">
        <ele>380</ele>
        <time>2015-09-27T09:04:52.000Z</time>
      </trkpt>
      <trkpt lat="47.52646" lon="6.65305">
        <ele>380</ele>
        <time>2015-09-27T09:04:53.000Z</time>
      </trkpt>
      <trkpt lat="47.52642" lon="6.65308">
        <ele>380</ele>
        <time>2015-09-27T09:04:54.000Z</time>
      </trkpt>
      <trkpt lat="47.52638" lon="6.65313">
        <ele>380</ele>
        <time>2015-09-27T09:04:55.001Z</time>
      </trkpt>
      <trkpt lat="47.52634" lon="6.65317">
        <ele>380</ele>
        <time>2015-09-27T09:04:56.000Z</time>
      </trkpt>
      <trkpt lat="47.5263" lon="6.65321">
        <ele>379</ele>
        <time>2015-09-27T09:04:57.000Z</time>
      </trkpt>
      <trkpt lat="47.52626" lon="6.65325">
        <ele>379</ele>
        <time>2015-09-27T09:04:58.000Z</time>
      </trkpt>
      <trkpt lat="47.52623" lon="6.6533">
        <ele>379</ele>
        <time>2015-09-27T09:04:59.000Z</time>
      </trkpt>
      <trkpt lat="47.52619" lon="6.65334">
        <ele>378</ele>
        <time>2015-09-27T09:05:00.000Z</time>
      </trkpt>
      <trkpt lat="47.52615" lon="6.65338">
        <ele>378</ele>
        <time>2015-09-27T09:05:01.000Z</time>
      </trkpt>
      <trkpt lat="47.52612" lon="6.65342">
        <ele>378</ele>
        <time>2015-09-27T09:05:02.000Z</time>
      </trkpt>
      <trkpt lat="47.52608" lon="6.65346">
        <ele>378</ele>
        <time>2015-09-27T09:05:03.000Z</time>
      </trkpt>
      <trkpt lat="47.52604" lon="6.6535">
        <ele>378</ele>
        <time>2015-09-27T09:05:04.000Z</time>
      </trkpt>
      <trkpt lat="47.52601" lon="6.65356">
        <ele>378</ele>
        <time>2015-09-27T09:05:05.000Z</time>
      </trkpt>
      <trkpt lat="47.52598" lon="6.65362">
        <ele>377</ele>
        <time>2015-09-27T09:05:06.000Z</time>
      </trkpt>
      <trkpt lat="47.52595" lon="6.65367">
        <ele>377</ele>
        <time>2015-09-27T09:05:07.000Z</time>
      </trkpt>
      <trkpt lat="47.52592" lon="6.65373">
        <ele>377</ele>
        <time>2015-09-27T09:05:08.000Z</time>
      </trkpt>
      <trkpt lat="47.52589" lon="6.65379">
        <ele>377</ele>
        <time>2015-09-27T09:05:09.000Z</time>
      </trkpt>
      <trkpt lat="47.52586" lon="6.65385">
        <ele>377</ele>
        <time>2015-09-27T09:05:10.000Z</time>
      </trkpt>
      <trkpt lat="47.52585" lon="6.6539">
        <ele>377</ele>
        <time>2015-09-27T09:05:11.000Z</time>
      </trkpt>
      <trkpt lat="47.52583" lon="6.65396">
        <ele>374</ele>
        <time>2015-09-27T09:05:12.000Z</time>
      </trkpt>
      <trkpt lat="47.52581" lon="6.65402">
        <ele>374</ele>
        <time>2015-09-27T09:05:13.000Z</time>
      </trkpt>
      <trkpt lat="47.5258" lon="6.65409">
        <ele>374</ele>
        <time>2015-09-27T09:05:14.000Z</time>
      </trkpt>
      <trkpt lat="47.52578" lon="6.65414">
        <ele>374</ele>
        <time>2015-09-27T09:05:52.000Z</time>
      </trkpt>
      <trkpt lat="47.52577" lon="6.65416">
        <ele>374</ele>
        <time>2015-09-27T09:05:53.000Z</time>
      </trkpt>
      <trkpt lat="47.52576" lon="6.6542">
        <ele>373</ele>
        <time>2015-09-27T09:05:54.000Z</time>
      </trkpt>
      <trkpt lat="47.52575" lon="6.65424">
        <ele>373</ele>
        <time>2015-09-27T09:05:55.000Z</time>
      </trkpt>
      <trkpt lat="47.52573" lon="6.6543">
        <ele>373</ele>
        <time>2015-09-27T09:05:56.000Z</time>
      </trkpt>
      <trkpt lat="47.5257" lon="6.65437">
        <ele>372</ele>
        <time>2015-09-27T09:05:57.000Z</time>
      </trkpt>
      <trkpt lat="47.52568" lon="6.65444">
        <ele>372</ele>
        <time>2015-09-27T09:05:58.000Z</time>
      </trkpt>
      <trkpt lat="47.52564" lon="6.65451">
        <ele>372</ele>
        <time>2015-09-27T09:05:59.000Z</time>
      </trkpt>
      <trkpt lat="47.52562" lon="6.65459">
        <ele>372</ele>
        <time>2015-09-27T09:06:00.000Z</time>
      </trkpt>
      <trkpt lat="47.5256" lon="6.65466">
        <ele>371</ele>
        <time>2015-09-27T09:06:01.000Z</time>
      </trkpt>
      <trkpt lat="47.52557" lon="6.65474">
        <ele>371</ele>
        <time>2015-09-27T09:06:02.000Z</time>
      </trkpt>
      <trkpt lat="47.52554" lon="6.65482">
        <ele>371</ele>
        <time>2015-09-27T09:06:03.000Z</time>
      </trkpt>
      <trkpt lat="47.52552" lon="6.6549">
        <ele>371</ele>
        <time>2015-09-27T09:06:04.000Z</time>
      </trkpt>
      <trkpt lat="47.52549" lon="6.65498">
        <ele>371</ele>
        <time>2015-09-27T09:06:05.000Z</time>
      </trkpt>
      <trkpt lat="47.52547" lon="6.65506">
        <ele>369</ele>
        <time>2015-09-27T09:06:06.000Z</time>
      </trkpt>
      <trkpt lat="47.52544" lon="6.65514">
        <ele>369</ele>
        <time>2015-09-27T09:06:07.000Z</time>
      </trkpt>
      <trkpt lat="47.5254" lon="6.65522">
        <ele>369</ele>
        <time>2015-09-27T09:06:08.000Z</time>
      </trkpt>
      <trkpt lat="47.52537" lon="6.65529">
        <ele>369</ele>
        <time>2015-09-27T09:06:09.000Z</time>
      </trkpt>
      <trkpt lat="47.52533" lon="6.65537">
        <ele>369</ele>
        <time>2015-09-27T09:06:10.000Z</time>
      </trkpt>
      <trkpt lat="47.5253" lon="6.65544">
        <ele>369</ele>
        <time>2015-09-27T09:06:11.000Z</time>
      </trkpt>
      <trkpt lat="47.52526" lon="6.65552">
        <ele>369</ele>
        <time>2015-09-27T09:06:12.000Z</time>
      </trkpt>
      <trkpt lat="47.52522" lon="6.6556">
        <ele>369</ele>
        <time>2015-09-27T09:06:13.000Z</time>
      </trkpt>
      <trkpt lat="47.52518" lon="6.65568">
        <ele>369</ele>
        <time>2015-09-27T09:06:14.000Z</time>
      </trkpt>
      <trkpt lat="47.52514" lon="6.65576">
        <ele>368</ele>
        <time>2015-09-27T09:06:15.000Z</time>
      </trkpt>
      <trkpt lat="47.52511" lon="6.65584">
        <ele>368</ele>
        <time>2015-09-27T09:06:16.000Z</time>
      </trkpt>
      <trkpt lat="47.52507" lon="6.65592">
        <ele>368</ele>
        <time>2015-09-27T09:06:17.000Z</time>
      </trkpt>
      <trkpt lat="47.52504" lon="6.656">
        <ele>368</ele>
        <time>2015-09-27T09:06:18.000Z</time>
      </trkpt>
      <trkpt lat="47.52501" lon="6.65607">
        <ele>367</ele>
        <time>2015-09-27T09:06:19.000Z</time>
      </trkpt>
      <trkpt lat="47.52497" lon="6.65615">
        <ele>366</ele>
        <time>2015-09-27T09:06:20.000Z</time>
      </trkpt>
      <trkpt lat="47.52494" lon="6.65623">
        <ele>366</ele>
        <time>2015-09-27T09:06:21.000Z</time>
      </trkpt>
      <trkpt lat="47.5249" lon="6.65631">
        <ele>366</ele>
        <time>2015-09-27T09:06:22.000Z</time>
      </trkpt>
      <trkpt lat="47.52487" lon="6.65639">
        <ele>366</ele>
        <time>2015-09-27T09:06:23.000Z</time>
      </trkpt>
      <trkpt lat="47.52483" lon="6.65645">
        <ele>366</ele>
        <time>2015-09-27T09:06:24.000Z</time>
      </trkpt>
      <trkpt lat="47.5248" lon="6.65653">
        <ele>366</ele>
        <time>2015-09-27T09:06:25.000Z</time>
      </trkpt>
      <trkpt lat="47.52476" lon="6.65661">
        <ele>366</ele>
        <time>2015-09-27T09:06:26.000Z</time>
      </trkpt>
      <trkpt lat="47.52473" lon="6.65668">
        <ele>365</ele>
        <time>2015-09-27T09:06:27.000Z</time>
      </trkpt>
      <trkpt lat="47.52469" lon="6.65676">
        <ele>365</ele>
        <time>2015-09-27T09:06:28.000Z</time>
      </trkpt>
      <trkpt lat="47.52466" lon="6.65684">
        <ele>365</ele>
        <time>2015-09-27T09:06:29.000Z</time>
      </trkpt>
      <trkpt lat="47.5246" lon="6.65693">
        <ele>365</ele>
        <time>2015-09-27T09:06:30.000Z</time>
      </trkpt>
      <trkpt lat="47.52457" lon="6.65699">
        <ele>365</ele>
        <time>2015-09-27T09:06:31.000Z</time>
      </trkpt>
      <trkpt lat="47.52453" lon="6.65706">
        <ele>365</ele>
        <time>2015-09-27T09:06:32.000Z</time>
      </trkpt>
      <trkpt lat="47.5245" lon="6.65712">
        <ele>365</ele>
        <time>2015-09-27T09:06:33.000Z</time>
      </trkpt>
      <trkpt lat="47.52446" lon="6.65719">
        <ele>365</ele>
        <time>2015-09-27T09:06:34.000Z</time>
      </trkpt>
      <trkpt lat="47.52444" lon="6.65724">
        <ele>365</ele>
        <time>2015-09-27T09:06:35.000Z</time>
      </trkpt>
      <trkpt lat="47.52441" lon="6.6573">
        <ele>365</ele>
        <time>2015-09-27T09:06:36.000Z</time>
      </trkpt>
      <trkpt lat="47.52437" lon="6.65738">
        <ele>365</ele>
        <time>2015-09-27T09:06:37.000Z</time>
      </trkpt>
      <trkpt lat="47.52434" lon="6.65744">
        <ele>365</ele>
        <time>2015-09-27T09:06:38.000Z</time>
      </trkpt>
      <trkpt lat="47.52431" lon="6.65749">
        <ele>365</ele>
        <time>2015-09-27T09:06:39.000Z</time>
      </trkpt>
      <trkpt lat="47.52426" lon="6.65755">
        <ele>365</ele>
        <time>2015-09-27T09:06:40.000Z</time>
      </trkpt>
      <trkpt lat="47.52423" lon="6.6576">
        <ele>365</ele>
        <time>2015-09-27T09:06:41.000Z</time>
      </trkpt>
      <trkpt lat="47.5242" lon="6.65766">
        <ele>365</ele>
        <time>2015-09-27T09:06:42.000Z</time>
      </trkpt>
      <trkpt lat="47.52418" lon="6.65774">
        <ele>365</ele>
        <time>2015-09-27T09:06:43.000Z</time>
      </trkpt>
      <trkpt lat="47.52417" lon="6.6578">
        <ele>366</ele>
        <time>2015-09-27T09:06:44.000Z</time>
      </trkpt>
      <trkpt lat="47.52415" lon="6.65786">
        <ele>366</ele>
        <time>2015-09-27T09:06:45.000Z</time>
      </trkpt>
      <trkpt lat="47.52411" lon="6.65792">
        <ele>366</ele>
        <time>2015-09-27T09:06:46.000Z</time>
      </trkpt>
      <trkpt lat="47.52409" lon="6.65799">
        <ele>366</ele>
        <time>2015-09-27T09:06:47.000Z</time>
      </trkpt>
      <trkpt lat="47.52406" lon="6.65807">
        <ele>366</ele>
        <time>2015-09-27T09:06:48.000Z</time>
      </trkpt>
      <trkpt lat="47.52402" lon="6.65814">
        <ele>366</ele>
        <time>2015-09-27T09:06:48.999Z</time>
      </trkpt>
      <trkpt lat="47.52401" lon="6.65819">
        <ele>366</ele>
        <time>2015-09-27T09:06:50.000Z</time>
      </trkpt>
      <trkpt lat="47.52398" lon="6.65824">
        <ele>366</ele>
        <time>2015-09-27T09:06:51.000Z</time>
      </trkpt>
      <trkpt lat="47.52395" lon="6.6583">
        <ele>366</ele>
        <time>2015-09-27T09:06:52.000Z</time>
      </trkpt>
      <trkpt lat="47.52392" lon="6.65834">
        <ele>366</ele>
        <time>2015-09-27T09:06:53.000Z</time>
      </trkpt>
      <trkpt lat="47.5239" lon="6.6584">
        <ele>367</ele>
        <time>2015-09-27T09:06:54.000Z</time>
      </trkpt>
      <trkpt lat="47.52387" lon="6.65844">
        <ele>367</ele>
        <time>2015-09-27T09:06:55.000Z</time>
      </trkpt>
      <trkpt lat="47.52383" lon="6.6585">
        <ele>367</ele>
        <time>2015-09-27T09:06:56.000Z</time>
      </trkpt>
      <trkpt lat="47.5238" lon="6.65856">
        <ele>367</ele>
        <time>2015-09-27T09:06:57.000Z</time>
      </trkpt>
      <trkpt lat="47.52377" lon="6.65861">
        <ele>367</ele>
        <time>2015-09-27T09:06:58.000Z</time>
      </trkpt>
      <trkpt lat="47.52373" lon="6.65866">
        <ele>367</ele>
        <time>2015-09-27T09:06:59.000Z</time>
      </trkpt>
      <trkpt lat="47.52369" lon="6.65872">
        <ele>367</ele>
        <time>2015-09-27T09:07:00.000Z</time>
      </trkpt>
      <trkpt lat="47.52367" lon="6.65877">
        <ele>367</ele>
        <time>2015-09-27T09:07:01.000Z</time>
      </trkpt>
      <trkpt lat="47.52364" lon="6.65883">
        <ele>367</ele>
        <time>2015-09-27T09:07:02.000Z</time>
      </trkpt>
      <trkpt lat="47.52361" lon="6.6589">
        <ele>367</ele>
        <time>2015-09-27T09:07:03.000Z</time>
      </trkpt>
      <trkpt lat="47.5236" lon="6.65895">
        <ele>367</ele>
        <time>2015-09-27T09:07:04.000Z</time>
      </trkpt>
      <trkpt lat="47.52357" lon="6.65902">
        <ele>367</ele>
        <time>2015-09-27T09:07:05.000Z</time>
      </trkpt>
      <trkpt lat="47.52355" lon="6.65908">
        <ele>367</ele>
        <time>2015-09-27T09:07:06.000Z</time>
      </trkpt>
      <trkpt lat="47.52351" lon="6.65912">
        <ele>367</ele>
        <time>2015-09-27T09:07:07.000Z</time>
      </trkpt>
      <trkpt lat="47.52349" lon="6.65915">
        <ele>367</ele>
        <time>2015-09-27T09:07:08.000Z</time>
      </trkpt>
      <trkpt lat="47.52346" lon="6.65921">
        <ele>368</ele>
        <time>2015-09-27T09:07:09.000Z</time>
      </trkpt>
      <trkpt lat="47.52342" lon="6.65927">
        <ele>368</ele>
        <time>2015-09-27T09:07:10.000Z</time>
      </trkpt>
      <trkpt lat="47.52341" lon="6.65932">
        <ele>368</ele>
        <time>2015-09-27T09:07:11.000Z</time>
      </trkpt>
      <trkpt lat="47.52338" lon="6.65938">
        <ele>368</ele>
        <time>2015-09-27T09:07:12.000Z</time>
      </trkpt>
      <trkpt lat="47.52336" lon="6.65944">
        <ele>368</ele>
        <time>2015-09-27T09:07:13.001Z</time>
      </trkpt>
      <trkpt lat="47.52333" lon="6.65949">
        <ele>368</ele>
        <time>2015-09-27T09:07:14.000Z</time>
      </trkpt>
      <trkpt lat="47.52331" lon="6.65954">
        <ele>368</ele>
        <time>2015-09-27T09:07:14.999Z</time>
      </trkpt>
      <trkpt lat="47.52328" lon="6.65959">
        <ele>368</ele>
        <time>2015-09-27T09:07:16.000Z</time>
      </trkpt>
      <trkpt lat="47.52325" lon="6.65964">
        <ele>368</ele>
        <time>2015-09-27T09:07:17.000Z</time>
      </trkpt>
      <trkpt lat="47.52322" lon="6.65969">
        <ele>368</ele>
        <time>2015-09-27T09:07:18.000Z</time>
      </trkpt>
      <trkpt lat="47.5232" lon="6.65973">
        <ele>368</ele>
        <time>2015-09-27T09:07:19.000Z</time>
      </trkpt>
      <trkpt lat="47.52318" lon="6.65978">
        <ele>369</ele>
        <time>2015-09-27T09:07:20.000Z</time>
      </trkpt>
      <trkpt lat="47.52317" lon="6.65983">
        <ele>369</ele>
        <time>2015-09-27T09:07:21.000Z</time>
      </trkpt>
      <trkpt lat="47.52315" lon="6.65988">
        <ele>369</ele>
        <time>2015-09-27T09:07:22.000Z</time>
      </trkpt>
      <trkpt lat="47.52312" lon="6.65993">
        <ele>369</ele>
        <time>2015-09-27T09:07:23.000Z</time>
      </trkpt>
      <trkpt lat="47.5231" lon="6.65998">
        <ele>369</ele>
        <time>2015-09-27T09:07:23.999Z</time>
      </trkpt>
      <trkpt lat="47.52307" lon="6.66004">
        <ele>371</ele>
        <time>2015-09-27T09:07:25.000Z</time>
      </trkpt>
      <trkpt lat="47.52305" lon="6.66009">
        <ele>371</ele>
        <time>2015-09-27T09:07:26.000Z</time>
      </trkpt>
      <trkpt lat="47.52302" lon="6.66015">
        <ele>371</ele>
        <time>2015-09-27T09:07:27.000Z</time>
      </trkpt>
      <trkpt lat="47.523" lon="6.6602">
        <ele>371</ele>
        <time>2015-09-27T09:07:28.000Z</time>
      </trkpt>
      <trkpt lat="47.52297" lon="6.66025">
        <ele>371</ele>
        <time>2015-09-27T09:07:29.000Z</time>
      </trkpt>
      <trkpt lat="47.52295" lon="6.66029">
        <ele>371</ele>
        <time>2015-09-27T09:07:30.000Z</time>
      </trkpt>
      <trkpt lat="47.52293" lon="6.66033">
        <ele>371</ele>
        <time>2015-09-27T09:07:31.000Z</time>
      </trkpt>
      <trkpt lat="47.52292" lon="6.66037">
        <ele>371</ele>
        <time>2015-09-27T09:07:32.000Z</time>
      </trkpt>
      <trkpt lat="47.52289" lon="6.66041">
        <ele>371</ele>
        <time>2015-09-27T09:07:33.000Z</time>
      </trkpt>
      <trkpt lat="47.52287" lon="6.66045">
        <ele>371</ele>
        <time>2015-09-27T09:07:34.000Z</time>
      </trkpt>
      <trkpt lat="47.52284" lon="6.6605">
        <ele>371</ele>
        <time>2015-09-27T09:07:35.000Z</time>
      </trkpt>
      <trkpt lat="47.52281" lon="6.66055">
        <ele>372</ele>
        <time>2015-09-27T09:07:36.000Z</time>
      </trkpt>
      <trkpt lat="47.52278" lon="6.6606">
        <ele>372</ele>
        <time>2015-09-27T09:07:37.000Z</time>
      </trkpt>
      <trkpt lat="47.52275" lon="6.66064">
        <ele>372</ele>
        <time>2015-09-27T09:07:38.000Z</time>
      </trkpt>
      <trkpt lat="47.52272" lon="6.66068">
        <ele>372</ele>
        <time>2015-09-27T09:07:39.000Z</time>
      </trkpt>
      <trkpt lat="47.52269" lon="6.66072">
        <ele>372</ele>
        <time>2015-09-27T09:07:40.000Z</time>
      </trkpt>
      <trkpt lat="47.52267" lon="6.66076">
        <ele>372</ele>
        <time>2015-09-27T09:07:41.000Z</time>
      </trkpt>
      <trkpt lat="47.52264" lon="6.6608">
        <ele>372</ele>
        <time>2015-09-27T09:07:42.000Z</time>
      </trkpt>
      <trkpt lat="47.52262" lon="6.66083">
        <ele>372</ele>
        <time>2015-09-27T09:07:43.000Z</time>
      </trkpt>
      <trkpt lat="47.52259" lon="6.66086">
        <ele>373</ele>
        <time>2015-09-27T09:07:44.000Z</time>
      </trkpt>
      <trkpt lat="47.52258" lon="6.66089">
        <ele>373</ele>
        <time>2015-09-27T09:07:44.999Z</time>
      </trkpt>
      <trkpt lat="47.52257" lon="6.66094">
        <ele>374</ele>
        <time>2015-09-27T09:07:48.000Z</time>
      </trkpt>
      <trkpt lat="47.52256" lon="6.66097">
        <ele>374</ele>
        <time>2015-09-27T09:07:49.000Z</time>
      </trkpt>
      <trkpt lat="47.52256" lon="6.66101">
        <ele>374</ele>
        <time>2015-09-27T09:07:50.000Z</time>
      </trkpt>
      <trkpt lat="47.52256" lon="6.66105">
        <ele>374</ele>
        <time>2015-09-27T09:07:51.000Z</time>
      </trkpt>
      <trkpt lat="47.52255" lon="6.66109">
        <ele>374</ele>
        <time>2015-09-27T09:07:51.999Z</time>
      </trkpt>
      <trkpt lat="47.52253" lon="6.66114">
        <ele>374</ele>
        <time>2015-09-27T09:07:53.000Z</time>
      </trkpt>
      <trkpt lat="47.5225" lon="6.66118">
        <ele>375</ele>
        <time>2015-09-27T09:07:54.000Z</time>
      </trkpt>
      <trkpt lat="47.52248" lon="6.66122">
        <ele>375</ele>
        <time>2015-09-27T09:07:55.000Z</time>
      </trkpt>
      <trkpt lat="47.52244" lon="6.66126">
        <ele>375</ele>
        <time>2015-09-27T09:07:56.000Z</time>
      </trkpt>
      <trkpt lat="47.52241" lon="6.6613">
        <ele>375</ele>
        <time>2015-09-27T09:07:57.000Z</time>
      </trkpt>
      <trkpt lat="47.52239" lon="6.66134">
        <ele>375</ele>
        <time>2015-09-27T09:07:58.000Z</time>
      </trkpt>
      <trkpt lat="47.52236" lon="6.66137">
        <ele>375</ele>
        <time>2015-09-27T09:07:59.000Z</time>
      </trkpt>
      <trkpt lat="47.52234" lon="6.6614">
        <ele>375</ele>
        <time>2015-09-27T09:08:00.001Z</time>
      </trkpt>
      <trkpt lat="47.52232" lon="6.66143">
        <ele>375</ele>
        <time>2015-09-27T09:08:01.000Z</time>
      </trkpt>
      <trkpt lat="47.5223" lon="6.66146">
        <ele>376</ele>
        <time>2015-09-27T09:08:02.000Z</time>
      </trkpt>
      <trkpt lat="47.52227" lon="6.66149">
        <ele>376</ele>
        <time>2015-09-27T09:08:03.000Z</time>
      </trkpt>
      <trkpt lat="47.52225" lon="6.66152">
        <ele>376</ele>
        <time>2015-09-27T09:08:04.000Z</time>
      </trkpt>
      <trkpt lat="47.52223" lon="6.66155">
        <ele>376</ele>
        <time>2015-09-27T09:08:05.000Z</time>
      </trkpt>
      <trkpt lat="47.52221" lon="6.66157">
        <ele>376</ele>
        <time>2015-09-27T09:08:06.000Z</time>
      </trkpt>
      <trkpt lat="47.52219" lon="6.6616">
        <ele>376</ele>
        <time>2015-09-27T09:08:06.999Z</time>
      </trkpt>
      <trkpt lat="47.52216" lon="6.66163">
        <ele>376</ele>
        <time>2015-09-27T09:08:08.000Z</time>
      </trkpt>
      <trkpt lat="47.52213" lon="6.66165">
        <ele>376</ele>
        <time>2015-09-27T09:08:09.000Z</time>
      </trkpt>
      <trkpt lat="47.5221" lon="6.66168">
        <ele>378</ele>
        <time>2015-09-27T09:08:10.000Z</time>
      </trkpt>
      <trkpt lat="47.52207" lon="6.6617">
        <ele>378</ele>
        <time>2015-09-27T09:08:11.000Z</time>
      </trkpt>
      <trkpt lat="47.52205" lon="6.66173">
        <ele>378</ele>
        <time>2015-09-27T09:08:12.000Z</time>
      </trkpt>
      <trkpt lat="47.52204" lon="6.66177">
        <ele>378</ele>
        <time>2015-09-27T09:08:13.000Z</time>
      </trkpt>
      <trkpt lat="47.52202" lon="6.6618">
        <ele>378</ele>
        <time>2015-09-27T09:08:14.000Z</time>
      </trkpt>
      <trkpt lat="47.52201" lon="6.66182">
        <ele>378</ele>
        <time>2015-09-27T09:08:15.000Z</time>
      </trkpt>
      <trkpt lat="47.52199" lon="6.66185">
        <ele>378</ele>
        <time>2015-09-27T09:08:16.000Z</time>
      </trkpt>
      <trkpt lat="47.52198" lon="6.66187">
        <ele>378</ele>
        <time>2015-09-27T09:08:17.001Z</time>
      </trkpt>
      <trkpt lat="47.52195" lon="6.6619">
        <ele>378</ele>
        <time>2015-09-27T09:08:18.000Z</time>
      </trkpt>
      <trkpt lat="47.52193" lon="6.66194">
        <ele>378</ele>
        <time>2015-09-27T09:08:19.000Z</time>
      </trkpt>
      <trkpt lat="47.5219" lon="6.66197">
        <ele>378</ele>
        <time>2015-09-27T09:08:20.000Z</time>
      </trkpt>
      <trkpt lat="47.52188" lon="6.66202">
        <ele>378</ele>
        <time>2015-09-27T09:08:21.000Z</time>
      </trkpt>
      <trkpt lat="47.52185" lon="6.66206">
        <ele>378</ele>
        <time>2015-09-27T09:08:22.000Z</time>
      </trkpt>
      <trkpt lat="47.52182" lon="6.66211">
        <ele>378</ele>
        <time>2015-09-27T09:08:23.000Z</time>
      </trkpt>
      <trkpt lat="47.52179" lon="6.66216">
        <ele>378</ele>
        <time>2015-09-27T09:08:24.000Z</time>
      </trkpt>
      <trkpt lat="47.52177" lon="6.6622">
        <ele>378</ele>
        <time>2015-09-27T09:08:25.000Z</time>
      </trkpt>
      <trkpt lat="47.52175" lon="6.66224">
        <ele>378</ele>
        <time>2015-09-27T09:08:26.000Z</time>
      </trkpt>
      <trkpt lat="47.52173" lon="6.66229">
        <ele>378</ele>
        <time>2015-09-27T09:08:27.000Z</time>
      </trkpt>
      <trkpt lat="47.52171" lon="6.66232">
        <ele>379</ele>
        <time>2015-09-27T09:08:28.000Z</time>
      </trkpt>
      <trkpt lat="47.52169" lon="6.66236">
        <ele>379</ele>
        <time>2015-09-27T09:08:29.000Z</time>
      </trkpt>
      <trkpt lat="47.52166" lon="6.66239">
        <ele>379</ele>
        <time>2015-09-27T09:08:30.000Z</time>
      </trkpt>
      <trkpt lat="47.52163" lon="6.66242">
        <ele>379</ele>
        <time>2015-09-27T09:08:31.000Z</time>
      </trkpt>
      <trkpt lat="47.5216" lon="6.66245">
        <ele>379</ele>
        <time>2015-09-27T09:08:32.000Z</time>
      </trkpt>
      <trkpt lat="47.52157" lon="6.66249">
        <ele>379</ele>
        <time>2015-09-27T09:08:33.000Z</time>
      </trkpt>
      <trkpt lat="47.52154" lon="6.66253">
        <ele>379</ele>
        <time>2015-09-27T09:08:34.000Z</time>
      </trkpt>
      <trkpt lat="47.52151" lon="6.66257">
        <ele>379</ele>
        <time>2015-09-27T09:08:35.000Z</time>
      </trkpt>
      <trkpt lat="47.52149" lon="6.66261">
        <ele>378</ele>
        <time>2015-09-27T09:08:36.000Z</time>
      </trkpt>
      <trkpt lat="47.52146" lon="6.66265">
        <ele>378</ele>
        <time>2015-09-27T09:08:37.000Z</time>
      </trkpt>
      <trkpt lat="47.52143" lon="6.66269">
        <ele>378</ele>
        <time>2015-09-27T09:08:38.000Z</time>
      </trkpt>
      <trkpt lat="47.5214" lon="6.66272">
        <ele>378</ele>
        <time>2015-09-27T09:08:39.000Z</time>
      </trkpt>
      <trkpt lat="47.52134" lon="6.66276">
        <ele>378</ele>
        <time>2015-09-27T09:08:40.000Z</time>
      </trkpt>
      <trkpt lat="47.52131" lon="6.6628">
        <ele>378</ele>
        <time>2015-09-27T09:08:41.000Z</time>
      </trkpt>
      <trkpt lat="47.52127" lon="6.66285">
        <ele>378</ele>
        <time>2015-09-27T09:08:42.000Z</time>
      </trkpt>
      <trkpt lat="47.52125" lon="6.6629">
        <ele>378</ele>
        <time>2015-09-27T09:08:43.000Z</time>
      </trkpt>
      <trkpt lat="47.52121" lon="6.66294">
        <ele>378</ele>
        <time>2015-09-27T09:08:44.000Z</time>
      </trkpt>
      <trkpt lat="47.52118" lon="6.66298">
        <ele>378</ele>
        <time>2015-09-27T09:08:45.000Z</time>
      </trkpt>
      <trkpt lat="47.52115" lon="6.66301">
        <ele>378</ele>
        <time>2015-09-27T09:08:46.000Z</time>
      </trkpt>
      <trkpt lat="47.52113" lon="6.66306">
        <ele>378</ele>
        <time>2015-09-27T09:08:47.000Z</time>
      </trkpt>
      <trkpt lat="47.5211" lon="6.6631">
        <ele>378</ele>
        <time>2015-09-27T09:08:48.000Z</time>
      </trkpt>
      <trkpt lat="47.52107" lon="6.66315">
        <ele>378</ele>
        <time>2015-09-27T09:08:49.000Z</time>
      </trkpt>
      <trkpt lat="47.52104" lon="6.66319">
        <ele>377</ele>
        <time>2015-09-27T09:08:50.000Z</time>
      </trkpt>
      <trkpt lat="47.52105" lon="6.66326">
        <ele>377</ele>
        <time>2015-09-27T09:08:51.000Z</time>
      </trkpt>
      <trkpt lat="47.52104" lon="6.66331">
        <ele>377</ele>
        <time>2015-09-27T09:08:52.000Z</time>
      </trkpt>
      <trkpt lat="47.52102" lon="6.66336">
        <ele>377</ele>
        <time>2015-09-27T09:08:52.999Z</time>
      </trkpt>
      <trkpt lat="47.52103" lon="6.66342">
        <ele>377</ele>
        <time>2015-09-27T09:08:54.000Z</time>
      </trkpt>
      <trkpt lat="47.52104" lon="6.66347">
        <ele>377</ele>
        <time>2015-09-27T09:08:55.000Z</time>
      </trkpt>
      <trkpt lat="47.52104" lon="6.66353">
        <ele>377</ele>
        <time>2015-09-27T09:08:56.000Z</time>
      </trkpt>
      <trkpt lat="47.52105" lon="6.66359">
        <ele>377</ele>
        <time>2015-09-27T09:08:57.000Z</time>
      </trkpt>
      <trkpt lat="47.52106" lon="6.66365">
        <ele>377</ele>
        <time>2015-09-27T09:08:58.000Z</time>
      </trkpt>
      <trkpt lat="47.52108" lon="6.66371">
        <ele>377</ele>
        <time>2015-09-27T09:08:59.000Z</time>
      </trkpt>
      <trkpt lat="47.52108" lon="6.66377">
        <ele>377</ele>
        <time>2015-09-27T09:09:00.000Z</time>
      </trkpt>
      <trkpt lat="47.5211" lon="6.66384">
        <ele>377</ele>
        <time>2015-09-27T09:09:01.000Z</time>
      </trkpt>
      <trkpt lat="47.52111" lon="6.6639">
        <ele>377</ele>
        <time>2015-09-27T09:09:02.000Z</time>
      </trkpt>
      <trkpt lat="47.52112" lon="6.66396">
        <ele>377</ele>
        <time>2015-09-27T09:09:03.000Z</time>
      </trkpt>
      <trkpt lat="47.52113" lon="6.66402">
        <ele>377</ele>
        <time>2015-09-27T09:09:04.000Z</time>
      </trkpt>
      <trkpt lat="47.52114" lon="6.66408">
        <ele>377</ele>
        <time>2015-09-27T09:09:05.000Z</time>
      </trkpt>
      <trkpt lat="47.52115" lon="6.66415">
        <ele>377</ele>
        <time>2015-09-27T09:09:06.000Z</time>
      </trkpt>
      <trkpt lat="47.52115" lon="6.66421">
        <ele>377</ele>
        <time>2015-09-27T09:09:07.000Z</time>
      </trkpt>
      <trkpt lat="47.52116" lon="6.66428">
        <ele>377</ele>
        <time>2015-09-27T09:09:08.000Z</time>
      </trkpt>
      <trkpt lat="47.52117" lon="6.66434">
        <ele>377</ele>
        <time>2015-09-27T09:09:09.000Z</time>
      </trkpt>
      <trkpt lat="47.52117" lon="6.6644">
        <ele>378</ele>
        <time>2015-09-27T09:09:10.000Z</time>
      </trkpt>
      <trkpt lat="47.52117" lon="6.66446">
        <ele>378</ele>
        <time>2015-09-27T09:09:11.000Z</time>
      </trkpt>
      <trkpt lat="47.52118" lon="6.66452">
        <ele>378</ele>
        <time>2015-09-27T09:09:12.000Z</time>
      </trkpt>
      <trkpt lat="47.52118" lon="6.66458">
        <ele>378</ele>
        <time>2015-09-27T09:09:13.000Z</time>
      </trkpt>
      <trkpt lat="47.52118" lon="6.66464">
        <ele>378</ele>
        <time>2015-09-27T09:09:14.000Z</time>
      </trkpt>
      <trkpt lat="47.52118" lon="6.6647">
        <ele>378</ele>
        <time>2015-09-27T09:09:15.000Z</time>
      </trkpt>
      <trkpt lat="47.52118" lon="6.66476">
        <ele>378</ele>
        <time>2015-09-27T09:09:16.000Z</time>
      </trkpt>
      <trkpt lat="47.52118" lon="6.66482">
        <ele>378</ele>
        <time>2015-09-27T09:09:17.000Z</time>
      </trkpt>
      <trkpt lat="47.52118" lon="6.66488">
        <ele>378</ele>
        <time>2015-09-27T09:09:18.000Z</time>
      </trkpt>
      <trkpt lat="47.52118" lon="6.66493">
        <ele>378</ele>
        <time>2015-09-27T09:09:19.000Z</time>
      </trkpt>
      <trkpt lat="47.52118" lon="6.66499">
        <ele>378</ele>
        <time>2015-09-27T09:09:19.999Z</time>
      </trkpt>
      <trkpt lat="47.52118" lon="6.66504">
        <ele>378</ele>
        <time>2015-09-27T09:09:21.000Z</time>
      </trkpt>
      <trkpt lat="47.52117" lon="6.6651">
        <ele>378</ele>
        <time>2015-09-27T09:09:22.000Z</time>
      </trkpt>
      <trkpt lat="47.52117" lon="6.66515">
        <ele>378</ele>
        <time>2015-09-27T09:09:23.000Z</time>
      </trkpt>
      <trkpt lat="47.52116" lon="6.6652">
        <ele>378</ele>
        <time>2015-09-27T09:09:24.000Z</time>
      </trkpt>
      <trkpt lat="47.52116" lon="6.66525">
        <ele>378</ele>
        <time>2015-09-27T09:09:25.000Z</time>
      </trkpt>
      <trkpt lat="47.52115" lon="6.66529">
        <ele>378</ele>
        <time>2015-09-27T09:09:26.000Z</time>
      </trkpt>
      <trkpt lat="47.52114" lon="6.66534">
        <ele>378</ele>
        <time>2015-09-27T09:09:27.000Z</time>
      </trkpt>
      <trkpt lat="47.52114" lon="6.66539">
        <ele>378</ele>
        <time>2015-09-27T09:09:28.000Z</time>
      </trkpt>
      <trkpt lat="47.52113" lon="6.66545">
        <ele>378</ele>
        <time>2015-09-27T09:09:29.000Z</time>
      </trkpt>
      <trkpt lat="47.52113" lon="6.6655">
        <ele>378</ele>
        <time>2015-09-27T09:09:30.000Z</time>
      </trkpt>
      <trkpt lat="47.52113" lon="6.66556">
        <ele>378</ele>
        <time>2015-09-27T09:09:31.000Z</time>
      </trkpt>
      <trkpt lat="47.52112" lon="6.66561">
        <ele>378</ele>
        <time>2015-09-27T09:09:32.000Z</time>
      </trkpt>
      <trkpt lat="47.52112" lon="6.66568">
        <ele>378</ele>
        <time>2015-09-27T09:09:33.000Z</time>
      </trkpt>
      <trkpt lat="47.52111" lon="6.66574">
        <ele>378</ele>
        <time>2015-09-27T09:09:34.000Z</time>
      </trkpt>
      <trkpt lat="47.52111" lon="6.66581">
        <ele>378</ele>
        <time>2015-09-27T09:09:35.000Z</time>
      </trkpt>
      <trkpt lat="47.52112" lon="6.66588">
        <ele>378</ele>
        <time>2015-09-27T09:09:36.000Z</time>
      </trkpt>
      <trkpt lat="47.52112" lon="6.66595">
        <ele>378</ele>
        <time>2015-09-27T09:09:37.000Z</time>
      </trkpt>
      <trkpt lat="47.52111" lon="6.66603">
        <ele>378</ele>
        <time>2015-09-27T09:09:38.000Z</time>
      </trkpt>
      <trkpt lat="47.52111" lon="6.6661">
        <ele>378</ele>
        <time>2015-09-27T09:09:39.000Z</time>
      </trkpt>
      <trkpt lat="47.52111" lon="6.66617">
        <ele>378</ele>
        <time>2015-09-27T09:09:40.000Z</time>
      </trkpt>
      <trkpt lat="47.52111" lon="6.66624">
        <ele>378</ele>
        <time>2015-09-27T09:09:41.000Z</time>
      </trkpt>
      <trkpt lat="47.52111" lon="6.66631">
        <ele>378</ele>
        <time>2015-09-27T09:09:42.000Z</time>
      </trkpt>
      <trkpt lat="47.52111" lon="6.66638">
        <ele>378</ele>
        <time>2015-09-27T09:09:43.000Z</time>
      </trkpt>
      <trkpt lat="47.52111" lon="6.66645">
        <ele>378</ele>
        <time>2015-09-27T09:09:44.000Z</time>
      </trkpt>
      <trkpt lat="47.52111" lon="6.66652">
        <ele>378</ele>
        <time>2015-09-27T09:09:45.000Z</time>
      </trkpt>
      <trkpt lat="47.52111" lon="6.66659">
        <ele>378</ele>
        <time>2015-09-27T09:09:46.000Z</time>
      </trkpt>
      <trkpt lat="47.52111" lon="6.66665">
        <ele>378</ele>
        <time>2015-09-27T09:09:47.000Z</time>
      </trkpt>
      <trkpt lat="47.52111" lon="6.66672">
        <ele>377</ele>
        <time>2015-09-27T09:09:48.000Z</time>
      </trkpt>
      <trkpt lat="47.52111" lon="6.6668">
        <ele>377</ele>
        <time>2015-09-27T09:09:49.000Z</time>
      </trkpt>
      <trkpt lat="47.52111" lon="6.66687">
        <ele>377</ele>
        <time>2015-09-27T09:09:50.000Z</time>
      </trkpt>
      <trkpt lat="47.5211" lon="6.66694">
        <ele>377</ele>
        <time>2015-09-27T09:09:51.000Z</time>
      </trkpt>
      <trkpt lat="47.5211" lon="6.66701">
        <ele>377</ele>
        <time>2015-09-27T09:09:52.000Z</time>
      </trkpt>
      <trkpt lat="47.5211" lon="6.66708">
        <ele>377</ele>
        <time>2015-09-27T09:09:53.000Z</time>
      </trkpt>
      <trkpt lat="47.52109" lon="6.66715">
        <ele>377</ele>
        <time>2015-09-27T09:09:54.000Z</time>
      </trkpt>
      <trkpt lat="47.52109" lon="6.66722">
        <ele>377</ele>
        <time>2015-09-27T09:09:55.001Z</time>
      </trkpt>
      <trkpt lat="47.52108" lon="6.66729">
        <ele>377</ele>
        <time>2015-09-27T09:09:56.000Z</time>
      </trkpt>
      <trkpt lat="47.52107" lon="6.66736">
        <ele>377</ele>
        <time>2015-09-27T09:09:57.000Z</time>
      </trkpt>
      <trkpt lat="47.52107" lon="6.66745">
        <ele>377</ele>
        <time>2015-09-27T09:09:58.000Z</time>
      </trkpt>
      <trkpt lat="47.52106" lon="6.66753">
        <ele>377</ele>
        <time>2015-09-27T09:09:59.000Z</time>
      </trkpt>
      <trkpt lat="47.52106" lon="6.6676">
        <ele>377</ele>
        <time>2015-09-27T09:10:00.000Z</time>
      </trkpt>
      <trkpt lat="47.52106" lon="6.66767">
        <ele>377</ele>
        <time>2015-09-27T09:10:01.000Z</time>
      </trkpt>
      <trkpt lat="47.52106" lon="6.66775">
        <ele>377</ele>
        <time>2015-09-27T09:10:02.000Z</time>
      </trkpt>
      <trkpt lat="47.52105" lon="6.66783">
        <ele>377</ele>
        <time>2015-09-27T09:10:03.000Z</time>
      </trkpt>
      <trkpt lat="47.52105" lon="6.6679">
        <ele>377</ele>
        <time>2015-09-27T09:10:04.000Z</time>
      </trkpt>
      <trkpt lat="47.52107" lon="6.66798">
        <ele>377</ele>
        <time>2015-09-27T09:10:05.000Z</time>
      </trkpt>
      <trkpt lat="47.52107" lon="6.66807">
        <ele>377</ele>
        <time>2015-09-27T09:10:06.000Z</time>
      </trkpt>
      <trkpt lat="47.52107" lon="6.66815">
        <ele>377</ele>
        <time>2015-09-27T09:10:07.000Z</time>
      </trkpt>
      <trkpt lat="47.52107" lon="6.66823">
        <ele>377</ele>
        <time>2015-09-27T09:10:08.000Z</time>
      </trkpt>
      <trkpt lat="47.52107" lon="6.66833">
        <ele>376</ele>
        <time>2015-09-27T09:10:09.000Z</time>
      </trkpt>
      <trkpt lat="47.52107" lon="6.66842">
        <ele>376</ele>
        <time>2015-09-27T09:10:10.000Z</time>
      </trkpt>
      <trkpt lat="47.52108" lon="6.6685">
        <ele>376</ele>
        <time>2015-09-27T09:10:11.000Z</time>
      </trkpt>
      <trkpt lat="47.52109" lon="6.66859">
        <ele>376</ele>
        <time>2015-09-27T09:10:12.000Z</time>
      </trkpt>
      <trkpt lat="47.52109" lon="6.6687">
        <ele>376</ele>
        <time>2015-09-27T09:10:13.000Z</time>
      </trkpt>
      <trkpt lat="47.52109" lon="6.66878">
        <ele>376</ele>
        <time>2015-09-27T09:10:14.000Z</time>
      </trkpt>
      <trkpt lat="47.52108" lon="6.66886">
        <ele>376</ele>
        <time>2015-09-27T09:10:15.000Z</time>
      </trkpt>
      <trkpt lat="47.52108" lon="6.66893">
        <ele>376</ele>
        <time>2015-09-27T09:10:16.000Z</time>
      </trkpt>
      <trkpt lat="47.52109" lon="6.66901">
        <ele>376</ele>
        <time>2015-09-27T09:10:17.000Z</time>
      </trkpt>
      <trkpt lat="47.52109" lon="6.66909">
        <ele>376</ele>
        <time>2015-09-27T09:10:18.000Z</time>
      </trkpt>
      <trkpt lat="47.52109" lon="6.66918">
        <ele>375</ele>
        <time>2015-09-27T09:10:19.000Z</time>
      </trkpt>
      <trkpt lat="47.5211" lon="6.66926">
        <ele>375</ele>
        <time>2015-09-27T09:10:20.000Z</time>
      </trkpt>
      <trkpt lat="47.5211" lon="6.66935">
        <ele>375</ele>
        <time>2015-09-27T09:10:21.000Z</time>
      </trkpt>
      <trkpt lat="47.5211" lon="6.66942">
        <ele>375</ele>
        <time>2015-09-27T09:10:22.000Z</time>
      </trkpt>
      <trkpt lat="47.5211" lon="6.66951">
        <ele>375</ele>
        <time>2015-09-27T09:10:23.000Z</time>
      </trkpt>
      <trkpt lat="47.52109" lon="6.66959">
        <ele>375</ele>
        <time>2015-09-27T09:10:24.000Z</time>
      </trkpt>
      <trkpt lat="47.5211" lon="6.66966">
        <ele>375</ele>
        <time>2015-09-27T09:10:25.000Z</time>
      </trkpt>
      <trkpt lat="47.5211" lon="6.66974">
        <ele>375</ele>
        <time>2015-09-27T09:10:26.000Z</time>
      </trkpt>
      <trkpt lat="47.52111" lon="6.66982">
        <ele>375</ele>
        <time>2015-09-27T09:10:26.999Z</time>
      </trkpt>
      <trkpt lat="47.52113" lon="6.66992">
        <ele>375</ele>
        <time>2015-09-27T09:10:28.000Z</time>
      </trkpt>
      <trkpt lat="47.52115" lon="6.67">
        <ele>374</ele>
        <time>2015-09-27T09:10:29.001Z</time>
      </trkpt>
      <trkpt lat="47.52117" lon="6.6701">
        <ele>374</ele>
        <time>2015-09-27T09:10:30.000Z</time>
      </trkpt>
      <trkpt lat="47.52119" lon="6.67019">
        <ele>374</ele>
        <time>2015-09-27T09:10:30.999Z</time>
      </trkpt>
      <trkpt lat="47.52122" lon="6.67028">
        <ele>374</ele>
        <time>2015-09-27T09:10:32.000Z</time>
      </trkpt>
      <trkpt lat="47.52123" lon="6.67037">
        <ele>374</ele>
        <time>2015-09-27T09:10:33.000Z</time>
      </trkpt>
      <trkpt lat="47.52125" lon="6.67046">
        <ele>374</ele>
        <time>2015-09-27T09:10:34.000Z</time>
      </trkpt>
      <trkpt lat="47.52127" lon="6.67055">
        <ele>374</ele>
        <time>2015-09-27T09:10:35.000Z</time>
      </trkpt>
      <trkpt lat="47.52129" lon="6.67063">
        <ele>374</ele>
        <time>2015-09-27T09:10:36.000Z</time>
      </trkpt>
      <trkpt lat="47.52131" lon="6.67071">
        <ele>374</ele>
        <time>2015-09-27T09:10:37.000Z</time>
      </trkpt>
      <trkpt lat="47.52132" lon="6.6708">
        <ele>373</ele>
        <time>2015-09-27T09:10:38.000Z</time>
      </trkpt>
      <trkpt lat="47.52134" lon="6.67088">
        <ele>373</ele>
        <time>2015-09-27T09:10:39.000Z</time>
      </trkpt>
      <trkpt lat="47.52135" lon="6.67098">
        <ele>372</ele>
        <time>2015-09-27T09:10:40.000Z</time>
      </trkpt>
      <trkpt lat="47.52137" lon="6.67107">
        <ele>372</ele>
        <time>2015-09-27T09:10:41.000Z</time>
      </trkpt>
      <trkpt lat="47.52139" lon="6.67115">
        <ele>372</ele>
        <time>2015-09-27T09:10:42.000Z</time>
      </trkpt>
      <trkpt lat="47.52141" lon="6.67123">
        <ele>372</ele>
        <time>2015-09-27T09:10:43.000Z</time>
      </trkpt>
      <trkpt lat="47.52142" lon="6.67131">
        <ele>372</ele>
        <time>2015-09-27T09:10:44.000Z</time>
      </trkpt>
      <trkpt lat="47.52144" lon="6.67139">
        <ele>372</ele>
        <time>2015-09-27T09:10:44.999Z</time>
      </trkpt>
      <trkpt lat="47.52146" lon="6.67148">
        <ele>372</ele>
        <time>2015-09-27T09:10:46.000Z</time>
      </trkpt>
      <trkpt lat="47.52147" lon="6.67156">
        <ele>372</ele>
        <time>2015-09-27T09:10:47.000Z</time>
      </trkpt>
      <trkpt lat="47.52149" lon="6.67164">
        <ele>372</ele>
        <time>2015-09-27T09:10:48.000Z</time>
      </trkpt>
      <trkpt lat="47.52151" lon="6.67172">
        <ele>372</ele>
        <time>2015-09-27T09:10:49.000Z</time>
      </trkpt>
      <trkpt lat="47.52153" lon="6.6718">
        <ele>372</ele>
        <time>2015-09-27T09:10:50.000Z</time>
      </trkpt>
      <trkpt lat="47.52155" lon="6.67188">
        <ele>372</ele>
        <time>2015-09-27T09:10:51.000Z</time>
      </trkpt>
      <trkpt lat="47.52156" lon="6.67196">
        <ele>372</ele>
        <time>2015-09-27T09:10:52.000Z</time>
      </trkpt>
      <trkpt lat="47.52158" lon="6.67204">
        <ele>372</ele>
        <time>2015-09-27T09:10:53.000Z</time>
      </trkpt>
      <trkpt lat="47.5216" lon="6.67211">
        <ele>372</ele>
        <time>2015-09-27T09:10:54.000Z</time>
      </trkpt>
      <trkpt lat="47.52161" lon="6.67218">
        <ele>372</ele>
        <time>2015-09-27T09:10:55.000Z</time>
      </trkpt>
      <trkpt lat="47.52162" lon="6.67226">
        <ele>372</ele>
        <time>2015-09-27T09:10:56.000Z</time>
      </trkpt>
      <trkpt lat="47.52163" lon="6.67234">
        <ele>372</ele>
        <time>2015-09-27T09:10:57.000Z</time>
      </trkpt>
      <trkpt lat="47.52164" lon="6.67243">
        <ele>372</ele>
        <time>2015-09-27T09:10:58.000Z</time>
      </trkpt>
      <trkpt lat="47.52165" lon="6.67251">
        <ele>372</ele>
        <time>2015-09-27T09:10:59.000Z</time>
      </trkpt>
      <trkpt lat="47.52167" lon="6.67259">
        <ele>372</ele>
        <time>2015-09-27T09:11:00.000Z</time>
      </trkpt>
      <trkpt lat="47.52167" lon="6.67268">
        <ele>372</ele>
        <time>2015-09-27T09:11:01.000Z</time>
      </trkpt>
      <trkpt lat="47.52168" lon="6.67276">
        <ele>372</ele>
        <time>2015-09-27T09:11:02.000Z</time>
      </trkpt>
      <trkpt lat="47.52168" lon="6.67284">
        <ele>372</ele>
        <time>2015-09-27T09:11:03.000Z</time>
      </trkpt>
      <trkpt lat="47.52168" lon="6.67292">
        <ele>372</ele>
        <time>2015-09-27T09:11:04.000Z</time>
      </trkpt>
      <trkpt lat="47.52169" lon="6.67299">
        <ele>372</ele>
        <time>2015-09-27T09:11:05.000Z</time>
      </trkpt>
      <trkpt lat="47.5217" lon="6.67308">
        <ele>372</ele>
        <time>2015-09-27T09:11:06.000Z</time>
      </trkpt>
      <trkpt lat="47.5217" lon="6.67317">
        <ele>372</ele>
        <time>2015-09-27T09:11:07.000Z</time>
      </trkpt>
      <trkpt lat="47.52171" lon="6.67328">
        <ele>372</ele>
        <time>2015-09-27T09:11:08.000Z</time>
      </trkpt>
      <trkpt lat="47.5217" lon="6.67338">
        <ele>372</ele>
        <time>2015-09-27T09:11:09.000Z</time>
      </trkpt>
      <trkpt lat="47.52172" lon="6.67347">
        <ele>372</ele>
        <time>2015-09-27T09:11:10.000Z</time>
      </trkpt>
      <trkpt lat="47.52173" lon="6.67357">
        <ele>372</ele>
        <time>2015-09-27T09:11:11.000Z</time>
      </trkpt>
      <trkpt lat="47.52174" lon="6.67367">
        <ele>372</ele>
        <time>2015-09-27T09:11:12.000Z</time>
      </trkpt>
      <trkpt lat="47.52176" lon="6.67376">
        <ele>372</ele>
        <time>2015-09-27T09:11:13.000Z</time>
      </trkpt>
      <trkpt lat="47.5218" lon="6.67385">
        <ele>372</ele>
        <time>2015-09-27T09:11:14.000Z</time>
      </trkpt>
      <trkpt lat="47.52183" lon="6.67394">
        <ele>372</ele>
        <time>2015-09-27T09:11:15.000Z</time>
      </trkpt>
      <trkpt lat="47.52185" lon="6.67402">
        <ele>371</ele>
        <time>2015-09-27T09:11:16.000Z</time>
      </trkpt>
      <trkpt lat="47.52187" lon="6.67411">
        <ele>371</ele>
        <time>2015-09-27T09:11:17.000Z</time>
      </trkpt>
      <trkpt lat="47.52189" lon="6.67419">
        <ele>371</ele>
        <time>2015-09-27T09:11:18.000Z</time>
      </trkpt>
      <trkpt lat="47.52192" lon="6.67426">
        <ele>371</ele>
        <time>2015-09-27T09:11:19.000Z</time>
      </trkpt>
      <trkpt lat="47.52194" lon="6.67433">
        <ele>371</ele>
        <time>2015-09-27T09:11:20.000Z</time>
      </trkpt>
      <trkpt lat="47.52197" lon="6.67439">
        <ele>371</ele>
        <time>2015-09-27T09:11:21.000Z</time>
      </trkpt>
      <trkpt lat="47.52198" lon="6.67445">
        <ele>371</ele>
        <time>2015-09-27T09:11:22.000Z</time>
      </trkpt>
      <trkpt lat="47.52199" lon="6.67451">
        <ele>371</ele>
        <time>2015-09-27T09:11:23.000Z</time>
      </trkpt>
      <trkpt lat="47.52201" lon="6.67456">
        <ele>371</ele>
        <time>2015-09-27T09:11:24.000Z</time>
      </trkpt>
      <trkpt lat="47.52203" lon="6.67462">
        <ele>371</ele>
        <time>2015-09-27T09:11:25.001Z</time>
      </trkpt>
      <trkpt lat="47.52204" lon="6.67469">
        <ele>371</ele>
        <time>2015-09-27T09:11:26.000Z</time>
      </trkpt>
      <trkpt lat="47.52204" lon="6.67475">
        <ele>371</ele>
        <time>2015-09-27T09:11:27.000Z</time>
      </trkpt>
      <trkpt lat="47.52205" lon="6.67482">
        <ele>371</ele>
        <time>2015-09-27T09:11:28.000Z</time>
      </trkpt>
      <trkpt lat="47.52205" lon="6.67489">
        <ele>371</ele>
        <time>2015-09-27T09:11:29.000Z</time>
      </trkpt>
      <trkpt lat="47.52205" lon="6.67495">
        <ele>371</ele>
        <time>2015-09-27T09:11:30.000Z</time>
      </trkpt>
      <trkpt lat="47.52205" lon="6.67501">
        <ele>371</ele>
        <time>2015-09-27T09:11:31.000Z</time>
      </trkpt>
      <trkpt lat="47.52205" lon="6.67508">
        <ele>371</ele>
        <time>2015-09-27T09:11:32.000Z</time>
      </trkpt>
      <trkpt lat="47.52204" lon="6.67515">
        <ele>371</ele>
        <time>2015-09-27T09:11:33.000Z</time>
      </trkpt>
      <trkpt lat="47.52204" lon="6.67521">
        <ele>371</ele>
        <time>2015-09-27T09:11:33.999Z</time>
      </trkpt>
      <trkpt lat="47.52204" lon="6.67528">
        <ele>371</ele>
        <time>2015-09-27T09:11:35.000Z</time>
      </trkpt>
      <trkpt lat="47.52205" lon="6.67534">
        <ele>371</ele>
        <time>2015-09-27T09:11:36.000Z</time>
      </trkpt>
      <trkpt lat="47.52204" lon="6.67541">
        <ele>371</ele>
        <time>2015-09-27T09:11:37.000Z</time>
      </trkpt>
      <trkpt lat="47.52204" lon="6.67547">
        <ele>371</ele>
        <time>2015-09-27T09:11:38.000Z</time>
      </trkpt>
      <trkpt lat="47.52204" lon="6.67555">
        <ele>371</ele>
        <time>2015-09-27T09:11:39.000Z</time>
      </trkpt>
      <trkpt lat="47.52204" lon="6.67561">
        <ele>371</ele>
        <time>2015-09-27T09:11:40.000Z</time>
      </trkpt>
      <trkpt lat="47.52205" lon="6.67568">
        <ele>371</ele>
        <time>2015-09-27T09:11:41.000Z</time>
      </trkpt>
      <trkpt lat="47.52204" lon="6.67575">
        <ele>370</ele>
        <time>2015-09-27T09:11:42.000Z</time>
      </trkpt>
      <trkpt lat="47.52204" lon="6.6758">
        <ele>370</ele>
        <time>2015-09-27T09:11:43.000Z</time>
      </trkpt>
      <trkpt lat="47.52203" lon="6.67586">
        <ele>369</ele>
        <time>2015-09-27T09:11:44.000Z</time>
      </trkpt>
      <trkpt lat="47.52203" lon="6.67593">
        <ele>369</ele>
        <time>2015-09-27T09:11:45.000Z</time>
      </trkpt>
      <trkpt lat="47.52203" lon="6.67599">
        <ele>369</ele>
        <time>2015-09-27T09:11:46.000Z</time>
      </trkpt>
      <trkpt lat="47.52203" lon="6.67606">
        <ele>369</ele>
        <time>2015-09-27T09:11:47.000Z</time>
      </trkpt>
      <trkpt lat="47.52202" lon="6.67613">
        <ele>369</ele>
        <time>2015-09-27T09:11:48.000Z</time>
      </trkpt>
      <trkpt lat="47.52202" lon="6.6762">
        <ele>369</ele>
        <time>2015-09-27T09:11:49.000Z</time>
      </trkpt>
      <trkpt lat="47.52201" lon="6.67627">
        <ele>369</ele>
        <time>2015-09-27T09:11:50.000Z</time>
      </trkpt>
      <trkpt lat="47.522" lon="6.67635">
        <ele>369</ele>
        <time>2015-09-27T09:11:51.000Z</time>
      </trkpt>
      <trkpt lat="47.52199" lon="6.67644">
        <ele>368</ele>
        <time>2015-09-27T09:11:52.000Z</time>
      </trkpt>
      <trkpt lat="47.52199" lon="6.67651">
        <ele>368</ele>
        <time>2015-09-27T09:11:53.000Z</time>
      </trkpt>
      <trkpt lat="47.52199" lon="6.67659">
        <ele>368</ele>
        <time>2015-09-27T09:11:54.000Z</time>
      </trkpt>
      <trkpt lat="47.52198" lon="6.67667">
        <ele>368</ele>
        <time>2015-09-27T09:11:55.000Z</time>
      </trkpt>
      <trkpt lat="47.52198" lon="6.67674">
        <ele>367</ele>
        <time>2015-09-27T09:11:56.000Z</time>
      </trkpt>
      <trkpt lat="47.52198" lon="6.67681">
        <ele>367</ele>
        <time>2015-09-27T09:11:57.000Z</time>
      </trkpt>
      <trkpt lat="47.52197" lon="6.6769">
        <ele>367</ele>
        <time>2015-09-27T09:11:58.000Z</time>
      </trkpt>
      <trkpt lat="47.52197" lon="6.67697">
        <ele>367</ele>
        <time>2015-09-27T09:11:59.000Z</time>
      </trkpt>
      <trkpt lat="47.52197" lon="6.67704">
        <ele>367</ele>
        <time>2015-09-27T09:12:00.000Z</time>
      </trkpt>
      <trkpt lat="47.52197" lon="6.67712">
        <ele>367</ele>
        <time>2015-09-27T09:12:01.000Z</time>
      </trkpt>
      <trkpt lat="47.52197" lon="6.67719">
        <ele>367</ele>
        <time>2015-09-27T09:12:02.000Z</time>
      </trkpt>
      <trkpt lat="47.52196" lon="6.67726">
        <ele>367</ele>
        <time>2015-09-27T09:12:02.999Z</time>
      </trkpt>
      <trkpt lat="47.52196" lon="6.67733">
        <ele>367</ele>
        <time>2015-09-27T09:12:04.000Z</time>
      </trkpt>
      <trkpt lat="47.52195" lon="6.6774">
        <ele>367</ele>
        <time>2015-09-27T09:12:05.000Z</time>
      </trkpt>
      <trkpt lat="47.52195" lon="6.67748">
        <ele>367</ele>
        <time>2015-09-27T09:12:06.000Z</time>
      </trkpt>
      <trkpt lat="47.52194" lon="6.67755">
        <ele>366</ele>
        <time>2015-09-27T09:12:07.000Z</time>
      </trkpt>
      <trkpt lat="47.52194" lon="6.67762">
        <ele>366</ele>
        <time>2015-09-27T09:12:08.000Z</time>
      </trkpt>
      <trkpt lat="47.52193" lon="6.6777">
        <ele>366</ele>
        <time>2015-09-27T09:12:09.000Z</time>
      </trkpt>
      <trkpt lat="47.52192" lon="6.67777">
        <ele>366</ele>
        <time>2015-09-27T09:12:10.000Z</time>
      </trkpt>
      <trkpt lat="47.52191" lon="6.67784">
        <ele>366</ele>
        <time>2015-09-27T09:12:11.000Z</time>
      </trkpt>
      <trkpt lat="47.52192" lon="6.67791">
        <ele>366</ele>
        <time>2015-09-27T09:12:12.000Z</time>
      </trkpt>
      <trkpt lat="47.52191" lon="6.67798">
        <ele>366</ele>
        <time>2015-09-27T09:12:13.000Z</time>
      </trkpt>
      <trkpt lat="47.5219" lon="6.67806">
        <ele>366</ele>
        <time>2015-09-27T09:12:14.000Z</time>
      </trkpt>
      <trkpt lat="47.5219" lon="6.67813">
        <ele>366</ele>
        <time>2015-09-27T09:12:15.000Z</time>
      </trkpt>
      <trkpt lat="47.5219" lon="6.6782">
        <ele>365</ele>
        <time>2015-09-27T09:12:16.000Z</time>
      </trkpt>
      <trkpt lat="47.5219" lon="6.67827">
        <ele>365</ele>
        <time>2015-09-27T09:12:17.000Z</time>
      </trkpt>
      <trkpt lat="47.52189" lon="6.67834">
        <ele>365</ele>
        <time>2015-09-27T09:12:18.000Z</time>
      </trkpt>
      <trkpt lat="47.52189" lon="6.67841">
        <ele>365</ele>
        <time>2015-09-27T09:12:19.000Z</time>
      </trkpt>
      <trkpt lat="47.52188" lon="6.67848">
        <ele>365</ele>
        <time>2015-09-27T09:12:20.000Z</time>
      </trkpt>
      <trkpt lat="47.52188" lon="6.67856">
        <ele>365</ele>
        <time>2015-09-27T09:12:21.000Z</time>
      </trkpt>
      <trkpt lat="47.52187" lon="6.67864">
        <ele>365</ele>
        <time>2015-09-27T09:12:22.000Z</time>
      </trkpt>
      <trkpt lat="47.52187" lon="6.67871">
        <ele>365</ele>
        <time>2015-09-27T09:12:23.000Z</time>
      </trkpt>
      <trkpt lat="47.52186" lon="6.67877">
        <ele>364</ele>
        <time>2015-09-27T09:12:24.000Z</time>
      </trkpt>
      <trkpt lat="47.52185" lon="6.67884">
        <ele>364</ele>
        <time>2015-09-27T09:12:25.000Z</time>
      </trkpt>
      <trkpt lat="47.52185" lon="6.67892">
        <ele>364</ele>
        <time>2015-09-27T09:12:26.000Z</time>
      </trkpt>
      <trkpt lat="47.52184" lon="6.67899">
        <ele>364</ele>
        <time>2015-09-27T09:12:27.000Z</time>
      </trkpt>
      <trkpt lat="47.52184" lon="6.67906">
        <ele>364</ele>
        <time>2015-09-27T09:12:28.000Z</time>
      </trkpt>
      <trkpt lat="47.52184" lon="6.67913">
        <ele>364</ele>
        <time>2015-09-27T09:12:29.000Z</time>
      </trkpt>
      <trkpt lat="47.52183" lon="6.6792">
        <ele>364</ele>
        <time>2015-09-27T09:12:30.000Z</time>
      </trkpt>
      <trkpt lat="47.52182" lon="6.67928">
        <ele>364</ele>
        <time>2015-09-27T09:12:31.000Z</time>
      </trkpt>
      <trkpt lat="47.52181" lon="6.67935">
        <ele>364</ele>
        <time>2015-09-27T09:12:32.000Z</time>
      </trkpt>
      <trkpt lat="47.52181" lon="6.67943">
        <ele>364</ele>
        <time>2015-09-27T09:12:33.000Z</time>
      </trkpt>
      <trkpt lat="47.52181" lon="6.67951">
        <ele>364</ele>
        <time>2015-09-27T09:12:34.000Z</time>
      </trkpt>
      <trkpt lat="47.5218" lon="6.67958">
        <ele>364</ele>
        <time>2015-09-27T09:12:35.000Z</time>
      </trkpt>
      <trkpt lat="47.5218" lon="6.67966">
        <ele>363</ele>
        <time>2015-09-27T09:12:36.000Z</time>
      </trkpt>
      <trkpt lat="47.52179" lon="6.67973">
        <ele>363</ele>
        <time>2015-09-27T09:12:37.000Z</time>
      </trkpt>
      <trkpt lat="47.52179" lon="6.67981">
        <ele>363</ele>
        <time>2015-09-27T09:12:38.000Z</time>
      </trkpt>
      <trkpt lat="47.52178" lon="6.67988">
        <ele>363</ele>
        <time>2015-09-27T09:12:39.000Z</time>
      </trkpt>
      <trkpt lat="47.52178" lon="6.67996">
        <ele>363</ele>
        <time>2015-09-27T09:12:40.000Z</time>
      </trkpt>
      <trkpt lat="47.52177" lon="6.68004">
        <ele>363</ele>
        <time>2015-09-27T09:12:41.000Z</time>
      </trkpt>
      <trkpt lat="47.52176" lon="6.68011">
        <ele>363</ele>
        <time>2015-09-27T09:12:42.000Z</time>
      </trkpt>
      <trkpt lat="47.52176" lon="6.68019">
        <ele>363</ele>
        <time>2015-09-27T09:12:43.000Z</time>
      </trkpt>
      <trkpt lat="47.52175" lon="6.68026">
        <ele>363</ele>
        <time>2015-09-27T09:12:44.000Z</time>
      </trkpt>
      <trkpt lat="47.52174" lon="6.68033">
        <ele>363</ele>
        <time>2015-09-27T09:12:45.000Z</time>
      </trkpt>
      <trkpt lat="47.52174" lon="6.6804">
        <ele>363</ele>
        <time>2015-09-27T09:12:46.000Z</time>
      </trkpt>
      <trkpt lat="47.52173" lon="6.68047">
        <ele>362</ele>
        <time>2015-09-27T09:12:47.000Z</time>
      </trkpt>
      <trkpt lat="47.52173" lon="6.68053">
        <ele>362</ele>
        <time>2015-09-27T09:12:48.000Z</time>
      </trkpt>
      <trkpt lat="47.52173" lon="6.68059">
        <ele>362</ele>
        <time>2015-09-27T09:12:49.000Z</time>
      </trkpt>
      <trkpt lat="47.52172" lon="6.68065">
        <ele>362</ele>
        <time>2015-09-27T09:12:50.000Z</time>
      </trkpt>
      <trkpt lat="47.52173" lon="6.6807">
        <ele>362</ele>
        <time>2015-09-27T09:12:51.000Z</time>
      </trkpt>
      <trkpt lat="47.52172" lon="6.68073">
        <ele>362</ele>
        <time>2015-09-27T09:12:52.000Z</time>
      </trkpt>
      <trkpt lat="47.52171" lon="6.68077">
        <ele>362</ele>
        <time>2015-09-27T09:12:53.000Z</time>
      </trkpt>
      <trkpt lat="47.5217" lon="6.68082">
        <ele>362</ele>
        <time>2015-09-27T09:12:54.000Z</time>
      </trkpt>
      <trkpt lat="47.5217" lon="6.68089">
        <ele>362</ele>
        <time>2015-09-27T09:12:55.000Z</time>
      </trkpt>
      <trkpt lat="47.5217" lon="6.68097">
        <ele>362</ele>
        <time>2015-09-27T09:12:56.000Z</time>
      </trkpt>
      <trkpt lat="47.52169" lon="6.68105">
        <ele>361</ele>
        <time>2015-09-27T09:12:57.000Z</time>
      </trkpt>
      <trkpt lat="47.52169" lon="6.68114">
        <ele>361</ele>
        <time>2015-09-27T09:12:58.000Z</time>
      </trkpt>
      <trkpt lat="47.52168" lon="6.68123">
        <ele>361</ele>
        <time>2015-09-27T09:12:59.000Z</time>
      </trkpt>
      <trkpt lat="47.52166" lon="6.68132">
        <ele>361</ele>
        <time>2015-09-27T09:12:59.999Z</time>
      </trkpt>
      <trkpt lat="47.52161" lon="6.68139">
        <ele>361</ele>
        <time>2015-09-27T09:13:01.000Z</time>
      </trkpt>
      <trkpt lat="47.52158" lon="6.68147">
        <ele>361</ele>
        <time>2015-09-27T09:13:01.999Z</time>
      </trkpt>
      <trkpt lat="47.52155" lon="6.68155">
        <ele>361</ele>
        <time>2015-09-27T09:13:03.000Z</time>
      </trkpt>
      <trkpt lat="47.52152" lon="6.68165">
        <ele>361</ele>
        <time>2015-09-27T09:13:04.000Z</time>
      </trkpt>
      <trkpt lat="47.52154" lon="6.68174">
        <ele>360</ele>
        <time>2015-09-27T09:13:05.000Z</time>
      </trkpt>
      <trkpt lat="47.52154" lon="6.68183">
        <ele>360</ele>
        <time>2015-09-27T09:13:06.000Z</time>
      </trkpt>
      <trkpt lat="47.52155" lon="6.68191">
        <ele>360</ele>
        <time>2015-09-27T09:13:07.000Z</time>
      </trkpt>
      <trkpt lat="47.52156" lon="6.682">
        <ele>360</ele>
        <time>2015-09-27T09:13:08.000Z</time>
      </trkpt>
      <trkpt lat="47.52157" lon="6.68207">
        <ele>360</ele>
        <time>2015-09-27T09:13:09.000Z</time>
      </trkpt>
      <trkpt lat="47.52159" lon="6.68216">
        <ele>360</ele>
        <time>2015-09-27T09:13:10.000Z</time>
      </trkpt>
      <trkpt lat="47.5216" lon="6.68226">
        <ele>360</ele>
        <time>2015-09-27T09:13:11.000Z</time>
      </trkpt>
      <trkpt lat="47.52161" lon="6.68236">
        <ele>360</ele>
        <time>2015-09-27T09:13:12.000Z</time>
      </trkpt>
      <trkpt lat="47.52164" lon="6.68244">
        <ele>359</ele>
        <time>2015-09-27T09:13:12.999Z</time>
      </trkpt>
      <trkpt lat="47.52167" lon="6.68254">
        <ele>359</ele>
        <time>2015-09-27T09:13:14.001Z</time>
      </trkpt>
      <trkpt lat="47.5217" lon="6.68261">
        <ele>359</ele>
        <time>2015-09-27T09:13:15.000Z</time>
      </trkpt>
      <trkpt lat="47.52174" lon="6.6827">
        <ele>359</ele>
        <time>2015-09-27T09:13:16.000Z</time>
      </trkpt>
      <trkpt lat="47.52175" lon="6.68275">
        <ele>359</ele>
        <time>2015-09-27T09:13:17.000Z</time>
      </trkpt>
      <trkpt lat="47.52177" lon="6.68281">
        <ele>359</ele>
        <time>2015-09-27T09:13:18.000Z</time>
      </trkpt>
      <trkpt lat="47.52178" lon="6.68289">
        <ele>359</ele>
        <time>2015-09-27T09:13:19.000Z</time>
      </trkpt>
      <trkpt lat="47.5218" lon="6.68295">
        <ele>359</ele>
        <time>2015-09-27T09:13:20.000Z</time>
      </trkpt>
      <trkpt lat="47.52182" lon="6.68301">
        <ele>359</ele>
        <time>2015-09-27T09:13:21.000Z</time>
      </trkpt>
      <trkpt lat="47.52182" lon="6.68307">
        <ele>359</ele>
        <time>2015-09-27T09:13:22.000Z</time>
      </trkpt>
      <trkpt lat="47.52183" lon="6.68312">
        <ele>359</ele>
        <time>2015-09-27T09:13:23.000Z</time>
      </trkpt>
      <trkpt lat="47.52185" lon="6.68318">
        <ele>359</ele>
        <time>2015-09-27T09:13:24.000Z</time>
      </trkpt>
      <trkpt lat="47.52186" lon="6.68323">
        <ele>359</ele>
        <time>2015-09-27T09:13:25.000Z</time>
      </trkpt>
      <trkpt lat="47.52187" lon="6.68328">
        <ele>359</ele>
        <time>2015-09-27T09:13:26.000Z</time>
      </trkpt>
      <trkpt lat="47.52188" lon="6.68334">
        <ele>359</ele>
        <time>2015-09-27T09:13:27.000Z</time>
      </trkpt>
      <trkpt lat="47.52188" lon="6.68339">
        <ele>359</ele>
        <time>2015-09-27T09:13:28.000Z</time>
      </trkpt>
      <trkpt lat="47.52188" lon="6.68347">
        <ele>359</ele>
        <time>2015-09-27T09:13:29.000Z</time>
      </trkpt>
      <trkpt lat="47.52188" lon="6.68354">
        <ele>359</ele>
        <time>2015-09-27T09:13:30.000Z</time>
      </trkpt>
      <trkpt lat="47.5219" lon="6.68359">
        <ele>359</ele>
        <time>2015-09-27T09:13:31.000Z</time>
      </trkpt>
      <trkpt lat="47.52191" lon="6.68364">
        <ele>359</ele>
        <time>2015-09-27T09:13:32.000Z</time>
      </trkpt>
      <trkpt lat="47.52192" lon="6.68369">
        <ele>359</ele>
        <time>2015-09-27T09:13:32.998Z</time>
      </trkpt>
      <trkpt lat="47.52193" lon="6.68375">
        <ele>359</ele>
        <time>2015-09-27T09:13:34.000Z</time>
      </trkpt>
      <trkpt lat="47.52194" lon="6.68381">
        <ele>359</ele>
        <time>2015-09-27T09:13:35.000Z</time>
      </trkpt>
      <trkpt lat="47.52195" lon="6.68386">
        <ele>359</ele>
        <time>2015-09-27T09:13:36.000Z</time>
      </trkpt>
      <trkpt lat="47.52196" lon="6.68392">
        <ele>359</ele>
        <time>2015-09-27T09:13:37.000Z</time>
      </trkpt>
      <trkpt lat="47.52198" lon="6.68398">
        <ele>359</ele>
        <time>2015-09-27T09:13:38.000Z</time>
      </trkpt>
      <trkpt lat="47.522" lon="6.68404">
        <ele>359</ele>
        <time>2015-09-27T09:13:39.000Z</time>
      </trkpt>
      <trkpt lat="47.522" lon="6.68411">
        <ele>359</ele>
        <time>2015-09-27T09:13:40.000Z</time>
      </trkpt>
      <trkpt lat="47.52202" lon="6.68417">
        <ele>359</ele>
        <time>2015-09-27T09:13:41.000Z</time>
      </trkpt>
      <trkpt lat="47.52203" lon="6.68423">
        <ele>358</ele>
        <time>2015-09-27T09:13:42.000Z</time>
      </trkpt>
      <trkpt lat="47.52204" lon="6.68429">
        <ele>358</ele>
        <time>2015-09-27T09:13:43.000Z</time>
      </trkpt>
      <trkpt lat="47.52206" lon="6.68438">
        <ele>358</ele>
        <time>2015-09-27T09:13:44.000Z</time>
      </trkpt>
      <trkpt lat="47.52207" lon="6.68444">
        <ele>358</ele>
        <time>2015-09-27T09:13:45.000Z</time>
      </trkpt>
      <trkpt lat="47.52208" lon="6.68451">
        <ele>358</ele>
        <time>2015-09-27T09:13:46.000Z</time>
      </trkpt>
      <trkpt lat="47.5221" lon="6.68459">
        <ele>359</ele>
        <time>2015-09-27T09:13:47.000Z</time>
      </trkpt>
      <trkpt lat="47.52212" lon="6.68466">
        <ele>359</ele>
        <time>2015-09-27T09:13:48.000Z</time>
      </trkpt>
      <trkpt lat="47.52213" lon="6.68473">
        <ele>359</ele>
        <time>2015-09-27T09:13:49.000Z</time>
      </trkpt>
      <trkpt lat="47.52214" lon="6.6848">
        <ele>359</ele>
        <time>2015-09-27T09:13:49.999Z</time>
      </trkpt>
      <trkpt lat="47.52216" lon="6.68486">
        <ele>359</ele>
        <time>2015-09-27T09:13:51.000Z</time>
      </trkpt>
      <trkpt lat="47.52217" lon="6.68492">
        <ele>359</ele>
        <time>2015-09-27T09:13:52.000Z</time>
      </trkpt>
      <trkpt lat="47.52218" lon="6.68498">
        <ele>359</ele>
        <time>2015-09-27T09:13:53.000Z</time>
      </trkpt>
      <trkpt lat="47.5222" lon="6.68504">
        <ele>360</ele>
        <time>2015-09-27T09:13:53.999Z</time>
      </trkpt>
      <trkpt lat="47.52221" lon="6.68507">
        <ele>360</ele>
        <time>2015-09-27T09:13:55.000Z</time>
      </trkpt>
      <trkpt lat="47.52223" lon="6.68513">
        <ele>360</ele>
        <time>2015-09-27T09:13:56.000Z</time>
      </trkpt>
      <trkpt lat="47.52225" lon="6.68518">
        <ele>360</ele>
        <time>2015-09-27T09:13:57.000Z</time>
      </trkpt>
      <trkpt lat="47.52228" lon="6.68522">
        <ele>360</ele>
        <time>2015-09-27T09:13:58.000Z</time>
      </trkpt>
      <trkpt lat="47.5223" lon="6.68527">
        <ele>360</ele>
        <time>2015-09-27T09:13:59.000Z</time>
      </trkpt>
      <trkpt lat="47.52232" lon="6.68532">
        <ele>360</ele>
        <time>2015-09-27T09:14:00.000Z</time>
      </trkpt>
      <trkpt lat="47.52234" lon="6.68537">
        <ele>360</ele>
        <time>2015-09-27T09:14:01.000Z</time>
      </trkpt>
      <trkpt lat="47.52236" lon="6.68542">
        <ele>360</ele>
        <time>2015-09-27T09:14:02.000Z</time>
      </trkpt>
      <trkpt lat="47.52238" lon="6.68547">
        <ele>360</ele>
        <time>2015-09-27T09:14:03.000Z</time>
      </trkpt>
      <trkpt lat="47.5224" lon="6.6855">
        <ele>361</ele>
        <time>2015-09-27T09:14:04.000Z</time>
      </trkpt>
      <trkpt lat="47.52242" lon="6.68553">
        <ele>361</ele>
        <time>2015-09-27T09:14:05.000Z</time>
      </trkpt>
      <trkpt lat="47.52245" lon="6.68557">
        <ele>361</ele>
        <time>2015-09-27T09:14:06.000Z</time>
      </trkpt>
      <trkpt lat="47.52247" lon="6.6856">
        <ele>361</ele>
        <time>2015-09-27T09:14:07.000Z</time>
      </trkpt>
      <trkpt lat="47.52251" lon="6.68562">
        <ele>364</ele>
        <time>2015-09-27T09:14:08.000Z</time>
      </trkpt>
      <trkpt lat="47.52253" lon="6.68564">
        <ele>364</ele>
        <time>2015-09-27T09:14:09.002Z</time>
      </trkpt>
      <trkpt lat="47.52257" lon="6.68565">
        <ele>364</ele>
        <time>2015-09-27T09:14:10.000Z</time>
      </trkpt>
      <trkpt lat="47.52259" lon="6.68566">
        <ele>364</ele>
        <time>2015-09-27T09:14:11.000Z</time>
      </trkpt>
      <trkpt lat="47.52262" lon="6.68567">
        <ele>364</ele>
        <time>2015-09-27T09:14:12.000Z</time>
      </trkpt>
      <trkpt lat="47.52264" lon="6.68567">
        <ele>364</ele>
        <time>2015-09-27T09:14:13.000Z</time>
      </trkpt>
      <trkpt lat="47.52267" lon="6.68567">
        <ele>365</ele>
        <time>2015-09-27T09:14:14.000Z</time>
      </trkpt>
      <trkpt lat="47.5227" lon="6.68567">
        <ele>365</ele>
        <time>2015-09-27T09:14:15.000Z</time>
      </trkpt>
      <trkpt lat="47.52272" lon="6.68567">
        <ele>365</ele>
        <time>2015-09-27T09:14:16.000Z</time>
      </trkpt>
      <trkpt lat="47.52275" lon="6.68567">
        <ele>365</ele>
        <time>2015-09-27T09:14:17.000Z</time>
      </trkpt>
      <trkpt lat="47.52277" lon="6.68567">
        <ele>365</ele>
        <time>2015-09-27T09:14:18.000Z</time>
      </trkpt>
      <trkpt lat="47.52279" lon="6.68566">
        <ele>365</ele>
        <time>2015-09-27T09:14:19.000Z</time>
      </trkpt>
      <trkpt lat="47.52282" lon="6.68566">
        <ele>365</ele>
        <time>2015-09-27T09:14:20.000Z</time>
      </trkpt>
      <trkpt lat="47.52284" lon="6.68565">
        <ele>366</ele>
        <time>2015-09-27T09:14:21.000Z</time>
      </trkpt>
      <trkpt lat="47.52288" lon="6.68564">
        <ele>366</ele>
        <time>2015-09-27T09:14:23.000Z</time>
      </trkpt>
      <trkpt lat="47.5229" lon="6.68564">
        <ele>366</ele>
        <time>2015-09-27T09:14:24.000Z</time>
      </trkpt>
      <trkpt lat="47.52294" lon="6.68564">
        <ele>366</ele>
        <time>2015-09-27T09:14:26.000Z</time>
      </trkpt>
      <trkpt lat="47.52296" lon="6.68563">
        <ele>366</ele>
        <time>2015-09-27T09:14:27.000Z</time>
      </trkpt>
      <trkpt lat="47.52299" lon="6.68562">
        <ele>366</ele>
        <time>2015-09-27T09:14:29.000Z</time>
      </trkpt>
      <trkpt lat="47.52301" lon="6.68561">
        <ele>367</ele>
        <time>2015-09-27T09:14:30.000Z</time>
      </trkpt>
      <trkpt lat="47.52304" lon="6.68558">
        <ele>367</ele>
        <time>2015-09-27T09:14:32.000Z</time>
      </trkpt>
      <trkpt lat="47.52306" lon="6.68557">
        <ele>367</ele>
        <time>2015-09-27T09:14:33.000Z</time>
      </trkpt>
      <trkpt lat="47.52309" lon="6.68556">
        <ele>367</ele>
        <time>2015-09-27T09:14:35.000Z</time>
      </trkpt>
      <trkpt lat="47.5231" lon="6.68555">
        <ele>367</ele>
        <time>2015-09-27T09:14:36.000Z</time>
      </trkpt>
      <trkpt lat="47.52314" lon="6.68553">
        <ele>367</ele>
        <time>2015-09-27T09:14:38.000Z</time>
      </trkpt>
      <trkpt lat="47.52316" lon="6.68552">
        <ele>367</ele>
        <time>2015-09-27T09:14:39.000Z</time>
      </trkpt>
      <trkpt lat="47.52318" lon="6.6855">
        <ele>367</ele>
        <time>2015-09-27T09:14:41.000Z</time>
      </trkpt>
      <trkpt lat="47.5232" lon="6.68549">
        <ele>367</ele>
        <time>2015-09-27T09:14:42.000Z</time>
      </trkpt>
      <trkpt lat="47.52323" lon="6.68547">
        <ele>367</ele>
        <time>2015-09-27T09:14:44.000Z</time>
      </trkpt>
      <trkpt lat="47.52325" lon="6.68546">
        <ele>367</ele>
        <time>2015-09-27T09:14:45.000Z</time>
      </trkpt>
      <trkpt lat="47.52328" lon="6.68545">
        <ele>367</ele>
        <time>2015-09-27T09:14:46.000Z</time>
      </trkpt>
      <trkpt lat="47.52331" lon="6.68545">
        <ele>367</ele>
        <time>2015-09-27T09:14:47.000Z</time>
      </trkpt>
      <trkpt lat="47.52334" lon="6.68544">
        <ele>371</ele>
        <time>2015-09-27T09:14:48.000Z</time>
      </trkpt>
      <trkpt lat="47.52338" lon="6.68544">
        <ele>371</ele>
        <time>2015-09-27T09:14:49.000Z</time>
      </trkpt>
      <trkpt lat="47.52341" lon="6.68543">
        <ele>371</ele>
        <time>2015-09-27T09:14:50.000Z</time>
      </trkpt>
      <trkpt lat="47.52344" lon="6.68543">
        <ele>371</ele>
        <time>2015-09-27T09:14:51.000Z</time>
      </trkpt>
      <trkpt lat="47.52347" lon="6.68543">
        <ele>371</ele>
        <time>2015-09-27T09:14:52.000Z</time>
      </trkpt>
      <trkpt lat="47.52349" lon="6.68543">
        <ele>371</ele>
        <time>2015-09-27T09:14:53.000Z</time>
      </trkpt>
      <trkpt lat="47.52351" lon="6.68545">
        <ele>371</ele>
        <time>2015-09-27T09:14:54.000Z</time>
      </trkpt>
      <trkpt lat="47.52353" lon="6.68547">
        <ele>371</ele>
        <time>2015-09-27T09:14:55.000Z</time>
      </trkpt>
      <trkpt lat="47.52355" lon="6.68549">
        <ele>371</ele>
        <time>2015-09-27T09:14:56.000Z</time>
      </trkpt>
      <trkpt lat="47.52356" lon="6.68553">
        <ele>371</ele>
        <time>2015-09-27T09:14:57.000Z</time>
      </trkpt>
      <trkpt lat="47.52358" lon="6.68557">
        <ele>371</ele>
        <time>2015-09-27T09:14:58.000Z</time>
      </trkpt>
      <trkpt lat="47.52359" lon="6.68562">
        <ele>372</ele>
        <time>2015-09-27T09:14:59.000Z</time>
      </trkpt>
      <trkpt lat="47.5236" lon="6.68566">
        <ele>372</ele>
        <time>2015-09-27T09:15:00.000Z</time>
      </trkpt>
      <trkpt lat="47.52361" lon="6.68571">
        <ele>372</ele>
        <time>2015-09-27T09:15:01.000Z</time>
      </trkpt>
      <trkpt lat="47.52361" lon="6.68575">
        <ele>372</ele>
        <time>2015-09-27T09:15:02.000Z</time>
      </trkpt>
      <trkpt lat="47.52361" lon="6.6858">
        <ele>372</ele>
        <time>2015-09-27T09:15:03.000Z</time>
      </trkpt>
      <trkpt lat="47.52362" lon="6.68584">
        <ele>372</ele>
        <time>2015-09-27T09:15:04.000Z</time>
      </trkpt>
      <trkpt lat="47.52362" lon="6.68589">
        <ele>372</ele>
        <time>2015-09-27T09:15:05.000Z</time>
      </trkpt>
      <trkpt lat="47.52362" lon="6.68593">
        <ele>372</ele>
        <time>2015-09-27T09:15:06.000Z</time>
      </trkpt>
      <trkpt lat="47.52361" lon="6.68597">
        <ele>372</ele>
        <time>2015-09-27T09:15:07.000Z</time>
      </trkpt>
      <trkpt lat="47.5236" lon="6.68601">
        <ele>372</ele>
        <time>2015-09-27T09:15:08.000Z</time>
      </trkpt>
      <trkpt lat="47.52359" lon="6.68606">
        <ele>372</ele>
        <time>2015-09-27T09:15:09.000Z</time>
      </trkpt>
      <trkpt lat="47.52357" lon="6.68609">
        <ele>372</ele>
        <time>2015-09-27T09:15:10.000Z</time>
      </trkpt>
      <trkpt lat="47.52356" lon="6.68613">
        <ele>372</ele>
        <time>2015-09-27T09:15:11.000Z</time>
      </trkpt>
      <trkpt lat="47.52354" lon="6.68617">
        <ele>372</ele>
        <time>2015-09-27T09:15:12.000Z</time>
      </trkpt>
      <trkpt lat="47.52353" lon="6.68621">
        <ele>372</ele>
        <time>2015-09-27T09:15:13.000Z</time>
      </trkpt>
      <trkpt lat="47.52351" lon="6.68625">
        <ele>372</ele>
        <time>2015-09-27T09:15:14.000Z</time>
      </trkpt>
      <trkpt lat="47.52349" lon="6.68629">
        <ele>372</ele>
        <time>2015-09-27T09:15:15.000Z</time>
      </trkpt>
      <trkpt lat="47.52348" lon="6.68634">
        <ele>372</ele>
        <time>2015-09-27T09:15:16.000Z</time>
      </trkpt>
      <trkpt lat="47.52347" lon="6.68638">
        <ele>372</ele>
        <time>2015-09-27T09:15:17.000Z</time>
      </trkpt>
      <trkpt lat="47.52346" lon="6.68643">
        <ele>372</ele>
        <time>2015-09-27T09:15:18.000Z</time>
      </trkpt>
      <trkpt lat="47.52345" lon="6.68648">
        <ele>372</ele>
        <time>2015-09-27T09:15:19.000Z</time>
      </trkpt>
      <trkpt lat="47.52344" lon="6.68652">
        <ele>372</ele>
        <time>2015-09-27T09:15:20.000Z</time>
      </trkpt>
      <trkpt lat="47.52343" lon="6.68657">
        <ele>372</ele>
        <time>2015-09-27T09:15:21.000Z</time>
      </trkpt>
      <trkpt lat="47.52341" lon="6.68662">
        <ele>371</ele>
        <time>2015-09-27T09:15:22.000Z</time>
      </trkpt>
      <trkpt lat="47.5234" lon="6.68666">
        <ele>371</ele>
        <time>2015-09-27T09:15:23.000Z</time>
      </trkpt>
      <trkpt lat="47.52339" lon="6.68671">
        <ele>371</ele>
        <time>2015-09-27T09:15:24.000Z</time>
      </trkpt>
      <trkpt lat="47.52339" lon="6.68676">
        <ele>371</ele>
        <time>2015-09-27T09:15:25.000Z</time>
      </trkpt>
      <trkpt lat="47.52338" lon="6.6868">
        <ele>371</ele>
        <time>2015-09-27T09:15:26.000Z</time>
      </trkpt>
      <trkpt lat="47.52339" lon="6.68685">
        <ele>371</ele>
        <time>2015-09-27T09:15:27.000Z</time>
      </trkpt>
      <trkpt lat="47.52339" lon="6.6869">
        <ele>371</ele>
        <time>2015-09-27T09:15:28.000Z</time>
      </trkpt>
      <trkpt lat="47.5234" lon="6.68695">
        <ele>371</ele>
        <time>2015-09-27T09:15:29.000Z</time>
      </trkpt>
      <trkpt lat="47.52342" lon="6.687">
        <ele>371</ele>
        <time>2015-09-27T09:15:30.000Z</time>
      </trkpt>
      <trkpt lat="47.52344" lon="6.68704">
        <ele>371</ele>
        <time>2015-09-27T09:15:31.000Z</time>
      </trkpt>
      <trkpt lat="47.52346" lon="6.68709">
        <ele>371</ele>
        <time>2015-09-27T09:15:32.000Z</time>
      </trkpt>
      <trkpt lat="47.52347" lon="6.68713">
        <ele>371</ele>
        <time>2015-09-27T09:15:33.000Z</time>
      </trkpt>
      <trkpt lat="47.52349" lon="6.68717">
        <ele>371</ele>
        <time>2015-09-27T09:15:34.000Z</time>
      </trkpt>
      <trkpt lat="47.52351" lon="6.68722">
        <ele>371</ele>
        <time>2015-09-27T09:15:35.000Z</time>
      </trkpt>
      <trkpt lat="47.52353" lon="6.68727">
        <ele>371</ele>
        <time>2015-09-27T09:15:36.000Z</time>
      </trkpt>
      <trkpt lat="47.52355" lon="6.68731">
        <ele>371</ele>
        <time>2015-09-27T09:15:37.000Z</time>
      </trkpt>
      <trkpt lat="47.52357" lon="6.68736">
        <ele>371</ele>
        <time>2015-09-27T09:15:38.000Z</time>
      </trkpt>
      <trkpt lat="47.52359" lon="6.68739">
        <ele>371</ele>
        <time>2015-09-27T09:15:39.000Z</time>
      </trkpt>
      <trkpt lat="47.52362" lon="6.68743">
        <ele>371</ele>
        <time>2015-09-27T09:15:40.000Z</time>
      </trkpt>
      <trkpt lat="47.52363" lon="6.68746">
        <ele>371</ele>
        <time>2015-09-27T09:15:41.000Z</time>
      </trkpt>
      <trkpt lat="47.52365" lon="6.6875">
        <ele>371</ele>
        <time>2015-09-27T09:15:42.000Z</time>
      </trkpt>
      <trkpt lat="47.52366" lon="6.68754">
        <ele>371</ele>
        <time>2015-09-27T09:15:43.000Z</time>
      </trkpt>
      <trkpt lat="47.52367" lon="6.68758">
        <ele>371</ele>
        <time>2015-09-27T09:15:44.000Z</time>
      </trkpt>
      <trkpt lat="47.52369" lon="6.68762">
        <ele>371</ele>
        <time>2015-09-27T09:15:45.000Z</time>
      </trkpt>
      <trkpt lat="47.5237" lon="6.68767">
        <ele>371</ele>
        <time>2015-09-27T09:15:46.000Z</time>
      </trkpt>
      <trkpt lat="47.52372" lon="6.68772">
        <ele>371</ele>
        <time>2015-09-27T09:15:47.000Z</time>
      </trkpt>
      <trkpt lat="47.52373" lon="6.68778">
        <ele>371</ele>
        <time>2015-09-27T09:15:48.000Z</time>
      </trkpt>
      <trkpt lat="47.52375" lon="6.68783">
        <ele>371</ele>
        <time>2015-09-27T09:15:49.000Z</time>
      </trkpt>
      <trkpt lat="47.52376" lon="6.68789">
        <ele>371</ele>
        <time>2015-09-27T09:15:50.000Z</time>
      </trkpt>
      <trkpt lat="47.52378" lon="6.68795">
        <ele>371</ele>
        <time>2015-09-27T09:15:51.000Z</time>
      </trkpt>
      <trkpt lat="47.52381" lon="6.68801">
        <ele>371</ele>
        <time>2015-09-27T09:15:52.000Z</time>
      </trkpt>
      <trkpt lat="47.52383" lon="6.68808">
        <ele>371</ele>
        <time>2015-09-27T09:15:53.000Z</time>
      </trkpt>
      <trkpt lat="47.52386" lon="6.68813">
        <ele>371</ele>
        <time>2015-09-27T09:15:54.000Z</time>
      </trkpt>
      <trkpt lat="47.52388" lon="6.68819">
        <ele>371</ele>
        <time>2015-09-27T09:15:55.000Z</time>
      </trkpt>
      <trkpt lat="47.52391" lon="6.68825">
        <ele>371</ele>
        <time>2015-09-27T09:15:56.000Z</time>
      </trkpt>
      <trkpt lat="47.52393" lon="6.6883">
        <ele>370</ele>
        <time>2015-09-27T09:15:57.000Z</time>
      </trkpt>
      <trkpt lat="47.52396" lon="6.68835">
        <ele>370</ele>
        <time>2015-09-27T09:15:58.000Z</time>
      </trkpt>
      <trkpt lat="47.524" lon="6.68838">
        <ele>370</ele>
        <time>2015-09-27T09:15:59.000Z</time>
      </trkpt>
      <trkpt lat="47.52402" lon="6.68846">
        <ele>370</ele>
        <time>2015-09-27T09:16:00.000Z</time>
      </trkpt>
      <trkpt lat="47.52404" lon="6.68853">
        <ele>370</ele>
        <time>2015-09-27T09:16:01.000Z</time>
      </trkpt>
      <trkpt lat="47.52407" lon="6.68859">
        <ele>369</ele>
        <time>2015-09-27T09:16:02.000Z</time>
      </trkpt>
      <trkpt lat="47.52411" lon="6.68865">
        <ele>369</ele>
        <time>2015-09-27T09:16:03.000Z</time>
      </trkpt>
      <trkpt lat="47.52415" lon="6.68871">
        <ele>369</ele>
        <time>2015-09-27T09:16:04.000Z</time>
      </trkpt>
      <trkpt lat="47.52419" lon="6.68877">
        <ele>368</ele>
        <time>2015-09-27T09:16:05.000Z</time>
      </trkpt>
      <trkpt lat="47.52423" lon="6.68884">
        <ele>368</ele>
        <time>2015-09-27T09:16:06.000Z</time>
      </trkpt>
      <trkpt lat="47.52428" lon="6.68891">
        <ele>368</ele>
        <time>2015-09-27T09:16:07.000Z</time>
      </trkpt>
      <trkpt lat="47.52432" lon="6.68898">
        <ele>368</ele>
        <time>2015-09-27T09:16:08.000Z</time>
      </trkpt>
      <trkpt lat="47.52436" lon="6.68905">
        <ele>368</ele>
        <time>2015-09-27T09:16:09.000Z</time>
      </trkpt>
      <trkpt lat="47.5244" lon="6.68912">
        <ele>368</ele>
        <time>2015-09-27T09:16:10.000Z</time>
      </trkpt>
      <trkpt lat="47.52445" lon="6.68919">
        <ele>366</ele>
        <time>2015-09-27T09:16:11.000Z</time>
      </trkpt>
      <trkpt lat="47.52449" lon="6.68926">
        <ele>366</ele>
        <time>2015-09-27T09:16:12.000Z</time>
      </trkpt>
      <trkpt lat="47.52454" lon="6.68933">
        <ele>366</ele>
        <time>2015-09-27T09:16:13.000Z</time>
      </trkpt>
      <trkpt lat="47.52458" lon="6.6894">
        <ele>366</ele>
        <time>2015-09-27T09:16:14.000Z</time>
      </trkpt>
      <trkpt lat="47.52462" lon="6.68946">
        <ele>365</ele>
        <time>2015-09-27T09:16:15.000Z</time>
      </trkpt>
      <trkpt lat="47.52466" lon="6.68953">
        <ele>365</ele>
        <time>2015-09-27T09:16:16.000Z</time>
      </trkpt>
      <trkpt lat="47.5247" lon="6.68959">
        <ele>365</ele>
        <time>2015-09-27T09:16:17.000Z</time>
      </trkpt>
      <trkpt lat="47.52474" lon="6.68965">
        <ele>365</ele>
        <time>2015-09-27T09:16:18.000Z</time>
      </trkpt>
      <trkpt lat="47.52478" lon="6.68971">
        <ele>365</ele>
        <time>2015-09-27T09:16:19.000Z</time>
      </trkpt>
      <trkpt lat="47.52483" lon="6.68977">
        <ele>365</ele>
        <time>2015-09-27T09:16:20.000Z</time>
      </trkpt>
      <trkpt lat="47.52487" lon="6.68981">
        <ele>364</ele>
        <time>2015-09-27T09:16:21.000Z</time>
      </trkpt>
      <trkpt lat="47.52492" lon="6.68987">
        <ele>364</ele>
        <time>2015-09-27T09:16:22.000Z</time>
      </trkpt>
      <trkpt lat="47.52497" lon="6.68992">
        <ele>364</ele>
        <time>2015-09-27T09:16:23.000Z</time>
      </trkpt>
      <trkpt lat="47.52502" lon="6.68997">
        <ele>363</ele>
        <time>2015-09-27T09:16:24.000Z</time>
      </trkpt>
      <trkpt lat="47.52506" lon="6.69003">
        <ele>363</ele>
        <time>2015-09-27T09:16:25.000Z</time>
      </trkpt>
      <trkpt lat="47.5251" lon="6.69008">
        <ele>362</ele>
        <time>2015-09-27T09:16:26.000Z</time>
      </trkpt>
      <trkpt lat="47.52515" lon="6.69015">
        <ele>362</ele>
        <time>2015-09-27T09:16:27.000Z</time>
      </trkpt>
      <trkpt lat="47.52519" lon="6.69021">
        <ele>362</ele>
        <time>2015-09-27T09:16:28.000Z</time>
      </trkpt>
      <trkpt lat="47.52524" lon="6.69027">
        <ele>361</ele>
        <time>2015-09-27T09:16:29.000Z</time>
      </trkpt>
      <trkpt lat="47.52529" lon="6.69034">
        <ele>361</ele>
        <time>2015-09-27T09:16:30.000Z</time>
      </trkpt>
      <trkpt lat="47.52533" lon="6.69041">
        <ele>361</ele>
        <time>2015-09-27T09:16:31.000Z</time>
      </trkpt>
      <trkpt lat="47.52538" lon="6.69046">
        <ele>361</ele>
        <time>2015-09-27T09:16:32.000Z</time>
      </trkpt>
      <trkpt lat="47.52543" lon="6.69052">
        <ele>361</ele>
        <time>2015-09-27T09:16:33.000Z</time>
      </trkpt>
      <trkpt lat="47.52547" lon="6.69058">
        <ele>361</ele>
        <time>2015-09-27T09:16:34.000Z</time>
      </trkpt>
      <trkpt lat="47.52551" lon="6.69064">
        <ele>361</ele>
        <time>2015-09-27T09:16:35.000Z</time>
      </trkpt>
      <trkpt lat="47.52555" lon="6.69071">
        <ele>360</ele>
        <time>2015-09-27T09:16:36.000Z</time>
      </trkpt>
      <trkpt lat="47.52558" lon="6.69079">
        <ele>360</ele>
        <time>2015-09-27T09:16:37.000Z</time>
      </trkpt>
      <trkpt lat="47.52562" lon="6.69086">
        <ele>359</ele>
        <time>2015-09-27T09:16:38.000Z</time>
      </trkpt>
      <trkpt lat="47.52565" lon="6.69095">
        <ele>359</ele>
        <time>2015-09-27T09:16:39.000Z</time>
      </trkpt>
      <trkpt lat="47.52568" lon="6.69102">
        <ele>358</ele>
        <time>2015-09-27T09:16:40.000Z</time>
      </trkpt>
      <trkpt lat="47.52569" lon="6.69111">
        <ele>358</ele>
        <time>2015-09-27T09:16:41.000Z</time>
      </trkpt>
      <trkpt lat="47.52571" lon="6.6912">
        <ele>358</ele>
        <time>2015-09-27T09:16:42.000Z</time>
      </trkpt>
      <trkpt lat="47.52573" lon="6.69129">
        <ele>358</ele>
        <time>2015-09-27T09:16:43.000Z</time>
      </trkpt>
      <trkpt lat="47.52575" lon="6.69138">
        <ele>358</ele>
        <time>2015-09-27T09:16:43.999Z</time>
      </trkpt>
      <trkpt lat="47.52576" lon="6.69147">
        <ele>357</ele>
        <time>2015-09-27T09:16:45.000Z</time>
      </trkpt>
      <trkpt lat="47.52578" lon="6.69157">
        <ele>357</ele>
        <time>2015-09-27T09:16:46.000Z</time>
      </trkpt>
      <trkpt lat="47.52579" lon="6.69167">
        <ele>356</ele>
        <time>2015-09-27T09:16:47.000Z</time>
      </trkpt>
      <trkpt lat="47.52581" lon="6.69176">
        <ele>356</ele>
        <time>2015-09-27T09:16:48.000Z</time>
      </trkpt>
      <trkpt lat="47.52581" lon="6.69185">
        <ele>356</ele>
        <time>2015-09-27T09:16:49.000Z</time>
      </trkpt>
      <trkpt lat="47.52582" lon="6.69194">
        <ele>356</ele>
        <time>2015-09-27T09:16:50.000Z</time>
      </trkpt>
      <trkpt lat="47.52582" lon="6.69203">
        <ele>356</ele>
        <time>2015-09-27T09:16:51.000Z</time>
      </trkpt>
      <trkpt lat="47.52583" lon="6.69212">
        <ele>356</ele>
        <time>2015-09-27T09:16:52.000Z</time>
      </trkpt>
      <trkpt lat="47.52584" lon="6.69221">
        <ele>355</ele>
        <time>2015-09-27T09:16:53.000Z</time>
      </trkpt>
      <trkpt lat="47.52584" lon="6.6923">
        <ele>355</ele>
        <time>2015-09-27T09:16:54.000Z</time>
      </trkpt>
      <trkpt lat="47.52584" lon="6.69239">
        <ele>354</ele>
        <time>2015-09-27T09:16:55.000Z</time>
      </trkpt>
      <trkpt lat="47.52585" lon="6.69248">
        <ele>354</ele>
        <time>2015-09-27T09:16:56.000Z</time>
      </trkpt>
      <trkpt lat="47.52586" lon="6.69257">
        <ele>354</ele>
        <time>2015-09-27T09:16:57.000Z</time>
      </trkpt>
      <trkpt lat="47.52587" lon="6.69265">
        <ele>353</ele>
        <time>2015-09-27T09:16:58.000Z</time>
      </trkpt>
      <trkpt lat="47.52588" lon="6.69274">
        <ele>353</ele>
        <time>2015-09-27T09:16:59.000Z</time>
      </trkpt>
      <trkpt lat="47.52588" lon="6.69284">
        <ele>353</ele>
        <time>2015-09-27T09:17:00.000Z</time>
      </trkpt>
      <trkpt lat="47.5259" lon="6.69293">
        <ele>352</ele>
        <time>2015-09-27T09:17:01.000Z</time>
      </trkpt>
      <trkpt lat="47.5259" lon="6.69302">
        <ele>352</ele>
        <time>2015-09-27T09:17:02.000Z</time>
      </trkpt>
      <trkpt lat="47.52591" lon="6.69311">
        <ele>352</ele>
        <time>2015-09-27T09:17:03.000Z</time>
      </trkpt>
      <trkpt lat="47.52591" lon="6.6932">
        <ele>352</ele>
        <time>2015-09-27T09:17:04.000Z</time>
      </trkpt>
      <trkpt lat="47.5259" lon="6.69328">
        <ele>351</ele>
        <time>2015-09-27T09:17:05.000Z</time>
      </trkpt>
      <trkpt lat="47.52589" lon="6.69337">
        <ele>351</ele>
        <time>2015-09-27T09:17:06.000Z</time>
      </trkpt>
      <trkpt lat="47.52588" lon="6.69346">
        <ele>350</ele>
        <time>2015-09-27T09:17:07.000Z</time>
      </trkpt>
      <trkpt lat="47.52587" lon="6.69354">
        <ele>350</ele>
        <time>2015-09-27T09:17:08.000Z</time>
      </trkpt>
      <trkpt lat="47.52587" lon="6.69364">
        <ele>350</ele>
        <time>2015-09-27T09:17:09.000Z</time>
      </trkpt>
      <trkpt lat="47.52586" lon="6.69373">
        <ele>350</ele>
        <time>2015-09-27T09:17:10.000Z</time>
      </trkpt>
      <trkpt lat="47.52586" lon="6.69382">
        <ele>349</ele>
        <time>2015-09-27T09:17:11.000Z</time>
      </trkpt>
      <trkpt lat="47.52586" lon="6.69391">
        <ele>349</ele>
        <time>2015-09-27T09:17:12.000Z</time>
      </trkpt>
      <trkpt lat="47.52587" lon="6.69401">
        <ele>349</ele>
        <time>2015-09-27T09:17:13.000Z</time>
      </trkpt>
      <trkpt lat="47.52591" lon="6.69411">
        <ele>348</ele>
        <time>2015-09-27T09:17:14.000Z</time>
      </trkpt>
      <trkpt lat="47.52591" lon="6.69419">
        <ele>348</ele>
        <time>2015-09-27T09:17:15.000Z</time>
      </trkpt>
      <trkpt lat="47.52593" lon="6.69428">
        <ele>348</ele>
        <time>2015-09-27T09:17:16.000Z</time>
      </trkpt>
      <trkpt lat="47.52594" lon="6.69437">
        <ele>347</ele>
        <time>2015-09-27T09:17:17.000Z</time>
      </trkpt>
      <trkpt lat="47.52595" lon="6.69446">
        <ele>347</ele>
        <time>2015-09-27T09:17:18.000Z</time>
      </trkpt>
      <trkpt lat="47.52597" lon="6.69454">
        <ele>347</ele>
        <time>2015-09-27T09:17:19.000Z</time>
      </trkpt>
      <trkpt lat="47.52598" lon="6.69461">
        <ele>347</ele>
        <time>2015-09-27T09:17:20.000Z</time>
      </trkpt>
      <trkpt lat="47.52597" lon="6.69466">
        <ele>347</ele>
        <time>2015-09-27T09:17:21.000Z</time>
      </trkpt>
      <trkpt lat="47.52598" lon="6.69471">
        <ele>347</ele>
        <time>2015-09-27T09:17:22.000Z</time>
      </trkpt>
      <trkpt lat="47.52599" lon="6.69474">
        <ele>347</ele>
        <time>2015-09-27T09:17:23.000Z</time>
      </trkpt>
      <trkpt lat="47.52601" lon="6.69476">
        <ele>347</ele>
        <time>2015-09-27T09:17:24.000Z</time>
      </trkpt>
      <trkpt lat="47.52605" lon="6.69477">
        <ele>347</ele>
        <time>2015-09-27T09:17:25.000Z</time>
      </trkpt>
      <trkpt lat="47.52609" lon="6.69476">
        <ele>347</ele>
        <time>2015-09-27T09:17:26.000Z</time>
      </trkpt>
      <trkpt lat="47.52613" lon="6.69474">
        <ele>347</ele>
        <time>2015-09-27T09:17:27.000Z</time>
      </trkpt>
      <trkpt lat="47.52618" lon="6.69475">
        <ele>347</ele>
        <time>2015-09-27T09:17:28.000Z</time>
      </trkpt>
      <trkpt lat="47.52623" lon="6.69476">
        <ele>347</ele>
        <time>2015-09-27T09:17:29.000Z</time>
      </trkpt>
      <trkpt lat="47.52626" lon="6.69483">
        <ele>347</ele>
        <time>2015-09-27T09:17:30.000Z</time>
      </trkpt>
      <trkpt lat="47.52629" lon="6.69492">
        <ele>347</ele>
        <time>2015-09-27T09:17:31.000Z</time>
      </trkpt>
      <trkpt lat="47.52627" lon="6.69501">
        <ele>345</ele>
        <time>2015-09-27T09:17:32.000Z</time>
      </trkpt>
      <trkpt lat="47.52627" lon="6.6951">
        <ele>345</ele>
        <time>2015-09-27T09:17:33.001Z</time>
      </trkpt>
      <trkpt lat="47.52626" lon="6.69519">
        <ele>345</ele>
        <time>2015-09-27T09:17:34.000Z</time>
      </trkpt>
      <trkpt lat="47.52626" lon="6.69528">
        <ele>345</ele>
        <time>2015-09-27T09:17:35.000Z</time>
      </trkpt>
      <trkpt lat="47.52627" lon="6.69536">
        <ele>345</ele>
        <time>2015-09-27T09:17:36.000Z</time>
      </trkpt>
      <trkpt lat="47.52628" lon="6.69545">
        <ele>345</ele>
        <time>2015-09-27T09:17:37.000Z</time>
      </trkpt>
      <trkpt lat="47.52628" lon="6.69553">
        <ele>345</ele>
        <time>2015-09-27T09:17:38.000Z</time>
      </trkpt>
      <trkpt lat="47.52629" lon="6.69561">
        <ele>345</ele>
        <time>2015-09-27T09:17:39.000Z</time>
      </trkpt>
      <trkpt lat="47.52629" lon="6.69569">
        <ele>345</ele>
        <time>2015-09-27T09:17:40.000Z</time>
      </trkpt>
      <trkpt lat="47.52627" lon="6.69578">
        <ele>345</ele>
        <time>2015-09-27T09:17:41.000Z</time>
      </trkpt>
      <trkpt lat="47.52627" lon="6.69586">
        <ele>345</ele>
        <time>2015-09-27T09:17:42.000Z</time>
      </trkpt>
      <trkpt lat="47.52628" lon="6.69594">
        <ele>345</ele>
        <time>2015-09-27T09:17:43.000Z</time>
      </trkpt>
      <trkpt lat="47.52627" lon="6.69601">
        <ele>345</ele>
        <time>2015-09-27T09:17:44.000Z</time>
      </trkpt>
      <trkpt lat="47.52627" lon="6.69608">
        <ele>346</ele>
        <time>2015-09-27T09:17:45.000Z</time>
      </trkpt>
      <trkpt lat="47.52628" lon="6.69614">
        <ele>346</ele>
        <time>2015-09-27T09:17:46.000Z</time>
      </trkpt>
      <trkpt lat="47.52629" lon="6.69622">
        <ele>346</ele>
        <time>2015-09-27T09:17:47.000Z</time>
      </trkpt>
      <trkpt lat="47.5263" lon="6.69627">
        <ele>346</ele>
        <time>2015-09-27T09:17:48.000Z</time>
      </trkpt>
      <trkpt lat="47.52631" lon="6.69633">
        <ele>346</ele>
        <time>2015-09-27T09:17:49.000Z</time>
      </trkpt>
      <trkpt lat="47.52631" lon="6.69639">
        <ele>346</ele>
        <time>2015-09-27T09:17:50.000Z</time>
      </trkpt>
      <trkpt lat="47.52632" lon="6.69646">
        <ele>346</ele>
        <time>2015-09-27T09:17:51.000Z</time>
      </trkpt>
      <trkpt lat="47.52632" lon="6.69653">
        <ele>346</ele>
        <time>2015-09-27T09:17:52.000Z</time>
      </trkpt>
      <trkpt lat="47.52633" lon="6.69659">
        <ele>346</ele>
        <time>2015-09-27T09:17:53.000Z</time>
      </trkpt>
      <trkpt lat="47.52632" lon="6.69664">
        <ele>346</ele>
        <time>2015-09-27T09:17:54.000Z</time>
      </trkpt>
      <trkpt lat="47.52632" lon="6.6967">
        <ele>349</ele>
        <time>2015-09-27T09:17:55.001Z</time>
      </trkpt>
      <trkpt lat="47.52629" lon="6.69676">
        <ele>349</ele>
        <time>2015-09-27T09:17:56.000Z</time>
      </trkpt>
      <trkpt lat="47.52627" lon="6.69683">
        <ele>349</ele>
        <time>2015-09-27T09:17:57.000Z</time>
      </trkpt>
      <trkpt lat="47.52627" lon="6.69689">
        <ele>349</ele>
        <time>2015-09-27T09:17:58.000Z</time>
      </trkpt>
      <trkpt lat="47.52625" lon="6.69695">
        <ele>349</ele>
        <time>2015-09-27T09:17:59.000Z</time>
      </trkpt>
      <trkpt lat="47.52624" lon="6.697">
        <ele>349</ele>
        <time>2015-09-27T09:18:00.000Z</time>
      </trkpt>
      <trkpt lat="47.52624" lon="6.69706">
        <ele>350</ele>
        <time>2015-09-27T09:18:01.000Z</time>
      </trkpt>
      <trkpt lat="47.52623" lon="6.69711">
        <ele>350</ele>
        <time>2015-09-27T09:18:02.000Z</time>
      </trkpt>
      <trkpt lat="47.52623" lon="6.69716">
        <ele>350</ele>
        <time>2015-09-27T09:18:03.000Z</time>
      </trkpt>
      <trkpt lat="47.52624" lon="6.69721">
        <ele>350</ele>
        <time>2015-09-27T09:18:04.000Z</time>
      </trkpt>
      <trkpt lat="47.52625" lon="6.69726">
        <ele>350</ele>
        <time>2015-09-27T09:18:05.000Z</time>
      </trkpt>
      <trkpt lat="47.52627" lon="6.6973">
        <ele>350</ele>
        <time>2015-09-27T09:18:06.000Z</time>
      </trkpt>
      <trkpt lat="47.52629" lon="6.69734">
        <ele>351</ele>
        <time>2015-09-27T09:18:07.000Z</time>
      </trkpt>
      <trkpt lat="47.52632" lon="6.69738">
        <ele>351</ele>
        <time>2015-09-27T09:18:08.000Z</time>
      </trkpt>
      <trkpt lat="47.52636" lon="6.6974">
        <ele>351</ele>
        <time>2015-09-27T09:18:09.000Z</time>
      </trkpt>
      <trkpt lat="47.5264" lon="6.69742">
        <ele>351</ele>
        <time>2015-09-27T09:18:10.000Z</time>
      </trkpt>
      <trkpt lat="47.52644" lon="6.69743">
        <ele>351</ele>
        <time>2015-09-27T09:18:11.000Z</time>
      </trkpt>
      <trkpt lat="47.52648" lon="6.69743">
        <ele>351</ele>
        <time>2015-09-27T09:18:12.000Z</time>
      </trkpt>
      <trkpt lat="47.52652" lon="6.69742">
        <ele>351</ele>
        <time>2015-09-27T09:18:13.000Z</time>
      </trkpt>
      <trkpt lat="47.52657" lon="6.69738">
        <ele>351</ele>
        <time>2015-09-27T09:18:14.000Z</time>
      </trkpt>
      <trkpt lat="47.52661" lon="6.69738">
        <ele>351</ele>
        <time>2015-09-27T09:18:15.000Z</time>
      </trkpt>
      <trkpt lat="47.52665" lon="6.6974">
        <ele>351</ele>
        <time>2015-09-27T09:18:16.000Z</time>
      </trkpt>
      <trkpt lat="47.52669" lon="6.69741">
        <ele>351</ele>
        <time>2015-09-27T09:18:17.000Z</time>
      </trkpt>
      <trkpt lat="47.52674" lon="6.69744">
        <ele>351</ele>
        <time>2015-09-27T09:18:18.000Z</time>
      </trkpt>
      <trkpt lat="47.52679" lon="6.69746">
        <ele>351</ele>
        <time>2015-09-27T09:18:19.000Z</time>
      </trkpt>
      <trkpt lat="47.52683" lon="6.69748">
        <ele>351</ele>
        <time>2015-09-27T09:18:20.000Z</time>
      </trkpt>
      <trkpt lat="47.52687" lon="6.69751">
        <ele>350</ele>
        <time>2015-09-27T09:18:21.000Z</time>
      </trkpt>
      <trkpt lat="47.5269" lon="6.69754">
        <ele>350</ele>
        <time>2015-09-27T09:18:22.000Z</time>
      </trkpt>
      <trkpt lat="47.52693" lon="6.69759">
        <ele>350</ele>
        <time>2015-09-27T09:18:23.000Z</time>
      </trkpt>
      <trkpt lat="47.52694" lon="6.69768">
        <ele>349</ele>
        <time>2015-09-27T09:18:24.000Z</time>
      </trkpt>
      <trkpt lat="47.52696" lon="6.69776">
        <ele>349</ele>
        <time>2015-09-27T09:18:25.000Z</time>
      </trkpt>
      <trkpt lat="47.52698" lon="6.69783">
        <ele>349</ele>
        <time>2015-09-27T09:18:26.000Z</time>
      </trkpt>
      <trkpt lat="47.52701" lon="6.6979">
        <ele>349</ele>
        <time>2015-09-27T09:18:27.000Z</time>
      </trkpt>
      <trkpt lat="47.52703" lon="6.69797">
        <ele>349</ele>
        <time>2015-09-27T09:18:28.000Z</time>
      </trkpt>
      <trkpt lat="47.52706" lon="6.69805">
        <ele>348</ele>
        <time>2015-09-27T09:18:29.000Z</time>
      </trkpt>
      <trkpt lat="47.52708" lon="6.69812">
        <ele>348</ele>
        <time>2015-09-27T09:18:30.000Z</time>
      </trkpt>
      <trkpt lat="47.5271" lon="6.6982">
        <ele>348</ele>
        <time>2015-09-27T09:18:31.000Z</time>
      </trkpt>
      <trkpt lat="47.52711" lon="6.69826">
        <ele>348</ele>
        <time>2015-09-27T09:18:32.000Z</time>
      </trkpt>
      <trkpt lat="47.52712" lon="6.69832">
        <ele>348</ele>
        <time>2015-09-27T09:18:33.000Z</time>
      </trkpt>
      <trkpt lat="47.52713" lon="6.69838">
        <ele>346</ele>
        <time>2015-09-27T09:18:34.000Z</time>
      </trkpt>
      <trkpt lat="47.52715" lon="6.69845">
        <ele>346</ele>
        <time>2015-09-27T09:18:35.000Z</time>
      </trkpt>
      <trkpt lat="47.52716" lon="6.6985">
        <ele>346</ele>
        <time>2015-09-27T09:18:36.000Z</time>
      </trkpt>
      <trkpt lat="47.52717" lon="6.69856">
        <ele>346</ele>
        <time>2015-09-27T09:18:37.000Z</time>
      </trkpt>
      <trkpt lat="47.52718" lon="6.69863">
        <ele>346</ele>
        <time>2015-09-27T09:18:38.000Z</time>
      </trkpt>
      <trkpt lat="47.52718" lon="6.69869">
        <ele>346</ele>
        <time>2015-09-27T09:18:39.000Z</time>
      </trkpt>
      <trkpt lat="47.52719" lon="6.69876">
        <ele>346</ele>
        <time>2015-09-27T09:18:40.000Z</time>
      </trkpt>
      <trkpt lat="47.52721" lon="6.69883">
        <ele>345</ele>
        <time>2015-09-27T09:18:41.000Z</time>
      </trkpt>
      <trkpt lat="47.52722" lon="6.6989">
        <ele>345</ele>
        <time>2015-09-27T09:18:42.000Z</time>
      </trkpt>
      <trkpt lat="47.52723" lon="6.69897">
        <ele>345</ele>
        <time>2015-09-27T09:18:43.000Z</time>
      </trkpt>
      <trkpt lat="47.52724" lon="6.69904">
        <ele>345</ele>
        <time>2015-09-27T09:18:44.000Z</time>
      </trkpt>
      <trkpt lat="47.52725" lon="6.6991">
        <ele>345</ele>
        <time>2015-09-27T09:18:45.000Z</time>
      </trkpt>
      <trkpt lat="47.52726" lon="6.69917">
        <ele>344</ele>
        <time>2015-09-27T09:18:46.000Z</time>
      </trkpt>
      <trkpt lat="47.52729" lon="6.69924">
        <ele>344</ele>
        <time>2015-09-27T09:18:47.000Z</time>
      </trkpt>
      <trkpt lat="47.5273" lon="6.69931">
        <ele>344</ele>
        <time>2015-09-27T09:18:48.000Z</time>
      </trkpt>
      <trkpt lat="47.52732" lon="6.69939">
        <ele>344</ele>
        <time>2015-09-27T09:18:49.000Z</time>
      </trkpt>
      <trkpt lat="47.52733" lon="6.69947">
        <ele>344</ele>
        <time>2015-09-27T09:18:50.000Z</time>
      </trkpt>
      <trkpt lat="47.52735" lon="6.69954">
        <ele>344</ele>
        <time>2015-09-27T09:18:51.000Z</time>
      </trkpt>
      <trkpt lat="47.52737" lon="6.69961">
        <ele>344</ele>
        <time>2015-09-27T09:18:52.000Z</time>
      </trkpt>
      <trkpt lat="47.52738" lon="6.69969">
        <ele>344</ele>
        <time>2015-09-27T09:18:53.000Z</time>
      </trkpt>
      <trkpt lat="47.5274" lon="6.69976">
        <ele>344</ele>
        <time>2015-09-27T09:18:54.000Z</time>
      </trkpt>
      <trkpt lat="47.52741" lon="6.69983">
        <ele>344</ele>
        <time>2015-09-27T09:18:55.000Z</time>
      </trkpt>
      <trkpt lat="47.52743" lon="6.6999">
        <ele>343</ele>
        <time>2015-09-27T09:18:56.000Z</time>
      </trkpt>
      <trkpt lat="47.52744" lon="6.69998">
        <ele>343</ele>
        <time>2015-09-27T09:18:57.000Z</time>
      </trkpt>
      <trkpt lat="47.52746" lon="6.70004">
        <ele>343</ele>
        <time>2015-09-27T09:18:58.000Z</time>
      </trkpt>
      <trkpt lat="47.52747" lon="6.70011">
        <ele>343</ele>
        <time>2015-09-27T09:18:59.000Z</time>
      </trkpt>
      <trkpt lat="47.52748" lon="6.70018">
        <ele>343</ele>
        <time>2015-09-27T09:19:00.000Z</time>
      </trkpt>
      <trkpt lat="47.52749" lon="6.70025">
        <ele>343</ele>
        <time>2015-09-27T09:19:01.000Z</time>
      </trkpt>
      <trkpt lat="47.52751" lon="6.70032">
        <ele>346</ele>
        <time>2015-09-27T09:19:02.000Z</time>
      </trkpt>
      <trkpt lat="47.52752" lon="6.70039">
        <ele>346</ele>
        <time>2015-09-27T09:19:03.000Z</time>
      </trkpt>
      <trkpt lat="47.52753" lon="6.70046">
        <ele>347</ele>
        <time>2015-09-27T09:19:04.000Z</time>
      </trkpt>
      <trkpt lat="47.52753" lon="6.70054">
        <ele>347</ele>
        <time>2015-09-27T09:19:05.000Z</time>
      </trkpt>
      <trkpt lat="47.52755" lon="6.70061">
        <ele>347</ele>
        <time>2015-09-27T09:19:06.000Z</time>
      </trkpt>
      <trkpt lat="47.52756" lon="6.70069">
        <ele>346</ele>
        <time>2015-09-27T09:19:06.998Z</time>
      </trkpt>
      <trkpt lat="47.52758" lon="6.70076">
        <ele>346</ele>
        <time>2015-09-27T09:19:08.000Z</time>
      </trkpt>
      <trkpt lat="47.52759" lon="6.70083">
        <ele>346</ele>
        <time>2015-09-27T09:19:09.001Z</time>
      </trkpt>
      <trkpt lat="47.52759" lon="6.7009">
        <ele>347</ele>
        <time>2015-09-27T09:19:10.000Z</time>
      </trkpt>
      <trkpt lat="47.52761" lon="6.70097">
        <ele>348</ele>
        <time>2015-09-27T09:19:11.000Z</time>
      </trkpt>
      <trkpt lat="47.52762" lon="6.70104">
        <ele>348</ele>
        <time>2015-09-27T09:19:12.000Z</time>
      </trkpt>
      <trkpt lat="47.52763" lon="6.70112">
        <ele>349</ele>
        <time>2015-09-27T09:19:13.000Z</time>
      </trkpt>
      <trkpt lat="47.52765" lon="6.70118">
        <ele>349</ele>
        <time>2015-09-27T09:19:14.000Z</time>
      </trkpt>
      <trkpt lat="47.52766" lon="6.70124">
        <ele>349</ele>
        <time>2015-09-27T09:19:15.000Z</time>
      </trkpt>
      <trkpt lat="47.52767" lon="6.70131">
        <ele>349</ele>
        <time>2015-09-27T09:19:16.000Z</time>
      </trkpt>
      <trkpt lat="47.5277" lon="6.70138">
        <ele>349</ele>
        <time>2015-09-27T09:19:17.000Z</time>
      </trkpt>
      <trkpt lat="47.5277" lon="6.70142">
        <ele>349</ele>
        <time>2015-09-27T09:19:18.000Z</time>
      </trkpt>
      <trkpt lat="47.52772" lon="6.70148">
        <ele>349</ele>
        <time>2015-09-27T09:19:19.000Z</time>
      </trkpt>
      <trkpt lat="47.52774" lon="6.70154">
        <ele>349</ele>
        <time>2015-09-27T09:19:20.000Z</time>
      </trkpt>
      <trkpt lat="47.52775" lon="6.70159">
        <ele>349</ele>
        <time>2015-09-27T09:19:21.000Z</time>
      </trkpt>
      <trkpt lat="47.52777" lon="6.70166">
        <ele>350</ele>
        <time>2015-09-27T09:19:22.000Z</time>
      </trkpt>
      <trkpt lat="47.52779" lon="6.70172">
        <ele>350</ele>
        <time>2015-09-27T09:19:23.000Z</time>
      </trkpt>
      <trkpt lat="47.52781" lon="6.70177">
        <ele>350</ele>
        <time>2015-09-27T09:19:24.000Z</time>
      </trkpt>
      <trkpt lat="47.52783" lon="6.70184">
        <ele>351</ele>
        <time>2015-09-27T09:19:25.000Z</time>
      </trkpt>
      <trkpt lat="47.52784" lon="6.70191">
        <ele>351</ele>
        <time>2015-09-27T09:19:26.000Z</time>
      </trkpt>
      <trkpt lat="47.52786" lon="6.70197">
        <ele>351</ele>
        <time>2015-09-27T09:19:27.000Z</time>
      </trkpt>
      <trkpt lat="47.52787" lon="6.70203">
        <ele>351</ele>
        <time>2015-09-27T09:19:28.000Z</time>
      </trkpt>
      <trkpt lat="47.52789" lon="6.7021">
        <ele>351</ele>
        <time>2015-09-27T09:19:29.000Z</time>
      </trkpt>
      <trkpt lat="47.52791" lon="6.70216">
        <ele>351</ele>
        <time>2015-09-27T09:19:30.000Z</time>
      </trkpt>
      <trkpt lat="47.52791" lon="6.70223">
        <ele>351</ele>
        <time>2015-09-27T09:19:31.000Z</time>
      </trkpt>
      <trkpt lat="47.52793" lon="6.7023">
        <ele>351</ele>
        <time>2015-09-27T09:19:32.000Z</time>
      </trkpt>
      <trkpt lat="47.52795" lon="6.70237">
        <ele>351</ele>
        <time>2015-09-27T09:19:33.000Z</time>
      </trkpt>
      <trkpt lat="47.52796" lon="6.70244">
        <ele>352</ele>
        <time>2015-09-27T09:19:34.000Z</time>
      </trkpt>
      <trkpt lat="47.52798" lon="6.70251">
        <ele>351</ele>
        <time>2015-09-27T09:19:35.000Z</time>
      </trkpt>
      <trkpt lat="47.52799" lon="6.70259">
        <ele>351</ele>
        <time>2015-09-27T09:19:36.000Z</time>
      </trkpt>
      <trkpt lat="47.528" lon="6.70266">
        <ele>350</ele>
        <time>2015-09-27T09:19:37.000Z</time>
      </trkpt>
      <trkpt lat="47.52801" lon="6.70273">
        <ele>350</ele>
        <time>2015-09-27T09:19:38.000Z</time>
      </trkpt>
      <trkpt lat="47.52802" lon="6.70279">
        <ele>350</ele>
        <time>2015-09-27T09:19:39.000Z</time>
      </trkpt>
      <trkpt lat="47.52802" lon="6.70287">
        <ele>350</ele>
        <time>2015-09-27T09:19:40.000Z</time>
      </trkpt>
      <trkpt lat="47.52804" lon="6.70299">
        <ele>350</ele>
        <time>2015-09-27T09:19:41.000Z</time>
      </trkpt>
      <trkpt lat="47.52804" lon="6.70305">
        <ele>349</ele>
        <time>2015-09-27T09:19:42.000Z</time>
      </trkpt>
      <trkpt lat="47.52806" lon="6.7031">
        <ele>349</ele>
        <time>2015-09-27T09:19:43.000Z</time>
      </trkpt>
      <trkpt lat="47.52807" lon="6.70317">
        <ele>349</ele>
        <time>2015-09-27T09:19:44.000Z</time>
      </trkpt>
      <trkpt lat="47.52809" lon="6.70325">
        <ele>349</ele>
        <time>2015-09-27T09:19:45.000Z</time>
      </trkpt>
      <trkpt lat="47.52809" lon="6.70333">
        <ele>349</ele>
        <time>2015-09-27T09:19:46.000Z</time>
      </trkpt>
      <trkpt lat="47.52809" lon="6.70341">
        <ele>347</ele>
        <time>2015-09-27T09:19:47.000Z</time>
      </trkpt>
      <trkpt lat="47.5281" lon="6.70349">
        <ele>347</ele>
        <time>2015-09-27T09:19:48.000Z</time>
      </trkpt>
      <trkpt lat="47.52811" lon="6.70356">
        <ele>347</ele>
        <time>2015-09-27T09:19:49.000Z</time>
      </trkpt>
      <trkpt lat="47.52812" lon="6.70362">
        <ele>347</ele>
        <time>2015-09-27T09:19:50.000Z</time>
      </trkpt>
      <trkpt lat="47.52812" lon="6.7037">
        <ele>346</ele>
        <time>2015-09-27T09:19:51.000Z</time>
      </trkpt>
      <trkpt lat="47.52813" lon="6.70377">
        <ele>346</ele>
        <time>2015-09-27T09:19:52.000Z</time>
      </trkpt>
      <trkpt lat="47.52814" lon="6.70385">
        <ele>346</ele>
        <time>2015-09-27T09:19:53.000Z</time>
      </trkpt>
      <trkpt lat="47.52815" lon="6.70393">
        <ele>346</ele>
        <time>2015-09-27T09:19:54.000Z</time>
      </trkpt>
      <trkpt lat="47.52816" lon="6.70401">
        <ele>346</ele>
        <time>2015-09-27T09:19:55.000Z</time>
      </trkpt>
      <trkpt lat="47.52818" lon="6.70408">
        <ele>346</ele>
        <time>2015-09-27T09:19:56.000Z</time>
      </trkpt>
      <trkpt lat="47.52821" lon="6.70415">
        <ele>346</ele>
        <time>2015-09-27T09:19:57.000Z</time>
      </trkpt>
      <trkpt lat="47.52821" lon="6.70421">
        <ele>346</ele>
        <time>2015-09-27T09:19:58.000Z</time>
      </trkpt>
      <trkpt lat="47.52823" lon="6.70428">
        <ele>346</ele>
        <time>2015-09-27T09:19:59.000Z</time>
      </trkpt>
      <trkpt lat="47.52825" lon="6.70434">
        <ele>346</ele>
        <time>2015-09-27T09:20:00.000Z</time>
      </trkpt>
      <trkpt lat="47.52827" lon="6.70441">
        <ele>346</ele>
        <time>2015-09-27T09:20:01.000Z</time>
      </trkpt>
      <trkpt lat="47.52829" lon="6.70447">
        <ele>346</ele>
        <time>2015-09-27T09:20:02.000Z</time>
      </trkpt>
      <trkpt lat="47.52831" lon="6.70454">
        <ele>346</ele>
        <time>2015-09-27T09:20:03.000Z</time>
      </trkpt>
      <trkpt lat="47.52833" lon="6.7046">
        <ele>346</ele>
        <time>2015-09-27T09:20:04.000Z</time>
      </trkpt>
      <trkpt lat="47.52835" lon="6.70466">
        <ele>351</ele>
        <time>2015-09-27T09:20:05.000Z</time>
      </trkpt>
      <trkpt lat="47.52837" lon="6.70469">
        <ele>351</ele>
        <time>2015-09-27T09:20:06.000Z</time>
      </trkpt>
      <trkpt lat="47.52838" lon="6.70473">
        <ele>351</ele>
        <time>2015-09-27T09:20:07.000Z</time>
      </trkpt>
      <trkpt lat="47.52838" lon="6.70477">
        <ele>351</ele>
        <time>2015-09-27T09:20:08.000Z</time>
      </trkpt>
      <trkpt lat="47.52839" lon="6.70481">
        <ele>351</ele>
        <time>2015-09-27T09:20:09.000Z</time>
      </trkpt>
      <trkpt lat="47.5284" lon="6.70487">
        <ele>350</ele>
        <time>2015-09-27T09:20:10.000Z</time>
      </trkpt>
      <trkpt lat="47.52842" lon="6.70493">
        <ele>350</ele>
        <time>2015-09-27T09:20:11.000Z</time>
      </trkpt>
      <trkpt lat="47.52843" lon="6.70497">
        <ele>350</ele>
        <time>2015-09-27T09:20:12.000Z</time>
      </trkpt>
      <trkpt lat="47.52843" lon="6.70502">
        <ele>352</ele>
        <time>2015-09-27T09:20:13.000Z</time>
      </trkpt>
      <trkpt lat="47.52844" lon="6.70507">
        <ele>352</ele>
        <time>2015-09-27T09:20:14.000Z</time>
      </trkpt>
      <trkpt lat="47.52845" lon="6.70511">
        <ele>353</ele>
        <time>2015-09-27T09:20:15.000Z</time>
      </trkpt>
      <trkpt lat="47.52846" lon="6.70516">
        <ele>353</ele>
        <time>2015-09-27T09:20:16.000Z</time>
      </trkpt>
      <trkpt lat="47.52846" lon="6.7052">
        <ele>354</ele>
        <time>2015-09-27T09:20:17.000Z</time>
      </trkpt>
      <trkpt lat="47.52847" lon="6.70525">
        <ele>354</ele>
        <time>2015-09-27T09:20:18.000Z</time>
      </trkpt>
      <trkpt lat="47.52848" lon="6.7053">
        <ele>354</ele>
        <time>2015-09-27T09:20:19.000Z</time>
      </trkpt>
      <trkpt lat="47.52849" lon="6.70537">
        <ele>355</ele>
        <time>2015-09-27T09:20:20.000Z</time>
      </trkpt>
      <trkpt lat="47.5285" lon="6.70545">
        <ele>355</ele>
        <time>2015-09-27T09:20:21.000Z</time>
      </trkpt>
      <trkpt lat="47.52849" lon="6.70553">
        <ele>355</ele>
        <time>2015-09-27T09:20:22.000Z</time>
      </trkpt>
      <trkpt lat="47.52847" lon="6.7056">
        <ele>354</ele>
        <time>2015-09-27T09:20:23.000Z</time>
      </trkpt>
      <trkpt lat="47.52843" lon="6.70566">
        <ele>354</ele>
        <time>2015-09-27T09:20:24.000Z</time>
      </trkpt>
      <trkpt lat="47.52838" lon="6.7057">
        <ele>353</ele>
        <time>2015-09-27T09:20:25.000Z</time>
      </trkpt>
      <trkpt lat="47.52832" lon="6.70572">
        <ele>349</ele>
        <time>2015-09-27T09:20:26.000Z</time>
      </trkpt>
      <trkpt lat="47.52814" lon="6.70573">
        <ele>349</ele>
        <time>2015-09-27T09:20:27.000Z</time>
      </trkpt>
      <trkpt lat="47.5281" lon="6.70564">
        <ele>349</ele>
        <time>2015-09-27T09:20:28.000Z</time>
      </trkpt>
      <trkpt lat="47.52806" lon="6.70559">
        <ele>348</ele>
        <time>2015-09-27T09:20:29.000Z</time>
      </trkpt>
      <trkpt lat="47.52802" lon="6.70558">
        <ele>348</ele>
        <time>2015-09-27T09:20:30.000Z</time>
      </trkpt>
      <trkpt lat="47.52797" lon="6.70558">
        <ele>348</ele>
        <time>2015-09-27T09:20:31.000Z</time>
      </trkpt>
      <trkpt lat="47.52793" lon="6.70558">
        <ele>348</ele>
        <time>2015-09-27T09:20:32.000Z</time>
      </trkpt>
      <trkpt lat="47.52789" lon="6.70558">
        <ele>348</ele>
        <time>2015-09-27T09:20:33.000Z</time>
      </trkpt>
      <trkpt lat="47.52785" lon="6.70562">
        <ele>348</ele>
        <time>2015-09-27T09:20:34.000Z</time>
      </trkpt>
      <trkpt lat="47.52781" lon="6.70567">
        <ele>348</ele>
        <time>2015-09-27T09:20:36.000Z</time>
      </trkpt>
      <trkpt lat="47.52784" lon="6.70573">
        <ele>348</ele>
        <time>2015-09-27T09:20:37.000Z</time>
      </trkpt>
      <trkpt lat="47.52784" lon="6.70577">
        <ele>348</ele>
        <time>2015-09-27T09:20:38.000Z</time>
      </trkpt>
      <trkpt lat="47.52783" lon="6.70581">
        <ele>348</ele>
        <time>2015-09-27T09:20:39.000Z</time>
      </trkpt>
      <trkpt lat="47.52783" lon="6.70586">
        <ele>350</ele>
        <time>2015-09-27T09:20:40.000Z</time>
      </trkpt>
      <trkpt lat="47.52781" lon="6.70589">
        <ele>350</ele>
        <time>2015-09-27T09:20:41.000Z</time>
      </trkpt>
      <trkpt lat="47.5278" lon="6.70592">
        <ele>350</ele>
        <time>2015-09-27T09:20:42.001Z</time>
      </trkpt>
      <trkpt lat="47.52777" lon="6.70593">
        <ele>350</ele>
        <time>2015-09-27T09:20:43.000Z</time>
      </trkpt>
      <trkpt lat="47.52775" lon="6.70595">
        <ele>350</ele>
        <time>2015-09-27T09:20:44.000Z</time>
      </trkpt>
      <trkpt lat="47.52772" lon="6.70596">
        <ele>350</ele>
        <time>2015-09-27T09:20:45.000Z</time>
      </trkpt>
      <trkpt lat="47.52769" lon="6.70596">
        <ele>350</ele>
        <time>2015-09-27T09:20:46.000Z</time>
      </trkpt>
      <trkpt lat="47.52766" lon="6.70595">
        <ele>350</ele>
        <time>2015-09-27T09:20:47.000Z</time>
      </trkpt>
      <trkpt lat="47.52763" lon="6.70594">
        <ele>350</ele>
        <time>2015-09-27T09:20:48.000Z</time>
      </trkpt>
      <trkpt lat="47.52759" lon="6.70594">
        <ele>349</ele>
        <time>2015-09-27T09:20:49.000Z</time>
      </trkpt>
      <trkpt lat="47.52749" lon="6.70594">
        <ele>352</ele>
        <time>2015-09-27T09:20:50.000Z</time>
      </trkpt>
      <trkpt lat="47.52747" lon="6.70596">
        <ele>353</ele>
        <time>2015-09-27T09:20:51.000Z</time>
      </trkpt>
      <trkpt lat="47.52746" lon="6.70598">
        <ele>354</ele>
        <time>2015-09-27T09:20:52.001Z</time>
      </trkpt>
      <trkpt lat="47.52744" lon="6.70601">
        <ele>355</ele>
        <time>2015-09-27T09:20:53.000Z</time>
      </trkpt>
      <trkpt lat="47.52743" lon="6.70606">
        <ele>356</ele>
        <time>2015-09-27T09:20:54.000Z</time>
      </trkpt>
      <trkpt lat="47.52742" lon="6.70609">
        <ele>356</ele>
        <time>2015-09-27T09:20:55.000Z</time>
      </trkpt>
      <trkpt lat="47.52741" lon="6.70613">
        <ele>357</ele>
        <time>2015-09-27T09:20:56.000Z</time>
      </trkpt>
      <trkpt lat="47.52744" lon="6.7062">
        <ele>357</ele>
        <time>2015-09-27T09:20:57.000Z</time>
      </trkpt>
      <trkpt lat="47.52744" lon="6.70626">
        <ele>358</ele>
        <time>2015-09-27T09:20:58.000Z</time>
      </trkpt>
      <trkpt lat="47.52745" lon="6.70632">
        <ele>358</ele>
        <time>2015-09-27T09:20:59.000Z</time>
      </trkpt>
      <trkpt lat="47.52746" lon="6.70638">
        <ele>358</ele>
        <time>2015-09-27T09:21:00.000Z</time>
      </trkpt>
      <trkpt lat="47.52747" lon="6.70644">
        <ele>357</ele>
        <time>2015-09-27T09:21:01.000Z</time>
      </trkpt>
      <trkpt lat="47.52748" lon="6.70651">
        <ele>357</ele>
        <time>2015-09-27T09:21:02.000Z</time>
      </trkpt>
      <trkpt lat="47.52748" lon="6.70657">
        <ele>356</ele>
        <time>2015-09-27T09:21:03.000Z</time>
      </trkpt>
      <trkpt lat="47.52749" lon="6.70663">
        <ele>355</ele>
        <time>2015-09-27T09:21:04.000Z</time>
      </trkpt>
      <trkpt lat="47.5275" lon="6.70669">
        <ele>355</ele>
        <time>2015-09-27T09:21:05.000Z</time>
      </trkpt>
      <trkpt lat="47.5275" lon="6.70675">
        <ele>354</ele>
        <time>2015-09-27T09:21:06.000Z</time>
      </trkpt>
      <trkpt lat="47.5275" lon="6.70681">
        <ele>354</ele>
        <time>2015-09-27T09:21:07.000Z</time>
      </trkpt>
      <trkpt lat="47.5275" lon="6.70688">
        <ele>354</ele>
        <time>2015-09-27T09:21:08.000Z</time>
      </trkpt>
      <trkpt lat="47.5275" lon="6.70695">
        <ele>354</ele>
        <time>2015-09-27T09:21:09.000Z</time>
      </trkpt>
      <trkpt lat="47.5275" lon="6.70701">
        <ele>362</ele>
        <time>2015-09-27T09:21:10.000Z</time>
      </trkpt>
      <trkpt lat="47.52745" lon="6.70711">
        <ele>362</ele>
        <time>2015-09-27T09:21:11.000Z</time>
      </trkpt>
      <trkpt lat="47.52746" lon="6.70718">
        <ele>362</ele>
        <time>2015-09-27T09:21:12.000Z</time>
      </trkpt>
      <trkpt lat="47.52745" lon="6.70725">
        <ele>362</ele>
        <time>2015-09-27T09:21:13.000Z</time>
      </trkpt>
      <trkpt lat="47.52745" lon="6.70732">
        <ele>361</ele>
        <time>2015-09-27T09:21:14.000Z</time>
      </trkpt>
      <trkpt lat="47.52745" lon="6.70738">
        <ele>360</ele>
        <time>2015-09-27T09:21:15.000Z</time>
      </trkpt>
      <trkpt lat="47.52745" lon="6.70745">
        <ele>358</ele>
        <time>2015-09-27T09:21:16.000Z</time>
      </trkpt>
      <trkpt lat="47.52745" lon="6.70752">
        <ele>358</ele>
        <time>2015-09-27T09:21:17.000Z</time>
      </trkpt>
      <trkpt lat="47.52745" lon="6.70757">
        <ele>359</ele>
        <time>2015-09-27T09:21:18.000Z</time>
      </trkpt>
      <trkpt lat="47.52746" lon="6.70759">
        <ele>359</ele>
        <time>2015-09-27T09:21:19.000Z</time>
      </trkpt>
      <trkpt lat="47.52745" lon="6.70764">
        <ele>360</ele>
        <time>2015-09-27T09:21:20.000Z</time>
      </trkpt>
      <trkpt lat="47.52745" lon="6.7077">
        <ele>361</ele>
        <time>2015-09-27T09:21:21.000Z</time>
      </trkpt>
      <trkpt lat="47.52744" lon="6.70775">
        <ele>362</ele>
        <time>2015-09-27T09:21:22.000Z</time>
      </trkpt>
      <trkpt lat="47.52744" lon="6.70781">
        <ele>362</ele>
        <time>2015-09-27T09:21:23.000Z</time>
      </trkpt>
      <trkpt lat="47.52744" lon="6.70787">
        <ele>362</ele>
        <time>2015-09-27T09:21:24.000Z</time>
      </trkpt>
      <trkpt lat="47.52744" lon="6.70793">
        <ele>362</ele>
        <time>2015-09-27T09:21:25.000Z</time>
      </trkpt>
      <trkpt lat="47.52744" lon="6.708">
        <ele>361</ele>
        <time>2015-09-27T09:21:26.000Z</time>
      </trkpt>
      <trkpt lat="47.52745" lon="6.70812">
        <ele>360</ele>
        <time>2015-09-27T09:21:27.000Z</time>
      </trkpt>
      <trkpt lat="47.52742" lon="6.70821">
        <ele>359</ele>
        <time>2015-09-27T09:21:28.000Z</time>
      </trkpt>
      <trkpt lat="47.52741" lon="6.70828">
        <ele>357</ele>
        <time>2015-09-27T09:21:29.000Z</time>
      </trkpt>
      <trkpt lat="47.5274" lon="6.70835">
        <ele>356</ele>
        <time>2015-09-27T09:21:30.000Z</time>
      </trkpt>
      <trkpt lat="47.52738" lon="6.70843">
        <ele>358</ele>
        <time>2015-09-27T09:21:31.000Z</time>
      </trkpt>
      <trkpt lat="47.52738" lon="6.70849">
        <ele>359</ele>
        <time>2015-09-27T09:21:32.000Z</time>
      </trkpt>
      <trkpt lat="47.52738" lon="6.70856">
        <ele>359</ele>
        <time>2015-09-27T09:21:33.000Z</time>
      </trkpt>
      <trkpt lat="47.52739" lon="6.70862">
        <ele>360</ele>
        <time>2015-09-27T09:21:34.000Z</time>
      </trkpt>
      <trkpt lat="47.52737" lon="6.70868">
        <ele>360</ele>
        <time>2015-09-27T09:21:35.000Z</time>
      </trkpt>
      <trkpt lat="47.52736" lon="6.70874">
        <ele>360</ele>
        <time>2015-09-27T09:21:36.000Z</time>
      </trkpt>
      <trkpt lat="47.52735" lon="6.70882">
        <ele>360</ele>
        <time>2015-09-27T09:21:37.000Z</time>
      </trkpt>
      <trkpt lat="47.52734" lon="6.70889">
        <ele>360</ele>
        <time>2015-09-27T09:21:38.000Z</time>
      </trkpt>
      <trkpt lat="47.52732" lon="6.70897">
        <ele>359</ele>
        <time>2015-09-27T09:21:39.000Z</time>
      </trkpt>
      <trkpt lat="47.52731" lon="6.70904">
        <ele>359</ele>
        <time>2015-09-27T09:21:40.000Z</time>
      </trkpt>
      <trkpt lat="47.5273" lon="6.70911">
        <ele>358</ele>
        <time>2015-09-27T09:21:41.000Z</time>
      </trkpt>
      <trkpt lat="47.5273" lon="6.70917">
        <ele>358</ele>
        <time>2015-09-27T09:21:42.000Z</time>
      </trkpt>
      <trkpt lat="47.52727" lon="6.70924">
        <ele>359</ele>
        <time>2015-09-27T09:21:43.000Z</time>
      </trkpt>
      <trkpt lat="47.52725" lon="6.7093">
        <ele>360</ele>
        <time>2015-09-27T09:21:44.000Z</time>
      </trkpt>
      <trkpt lat="47.52723" lon="6.70935">
        <ele>360</ele>
        <time>2015-09-27T09:21:45.000Z</time>
      </trkpt>
      <trkpt lat="47.52728" lon="6.70945">
        <ele>360</ele>
        <time>2015-09-27T09:21:46.000Z</time>
      </trkpt>
      <trkpt lat="47.52728" lon="6.70954">
        <ele>360</ele>
        <time>2015-09-27T09:21:47.000Z</time>
      </trkpt>
      <trkpt lat="47.52729" lon="6.70962">
        <ele>360</ele>
        <time>2015-09-27T09:21:48.000Z</time>
      </trkpt>
      <trkpt lat="47.52729" lon="6.70969">
        <ele>360</ele>
        <time>2015-09-27T09:21:49.000Z</time>
      </trkpt>
      <trkpt lat="47.5273" lon="6.70975">
        <ele>360</ele>
        <time>2015-09-27T09:21:50.000Z</time>
      </trkpt>
      <trkpt lat="47.52728" lon="6.70984">
        <ele>360</ele>
        <time>2015-09-27T09:21:51.000Z</time>
      </trkpt>
      <trkpt lat="47.52731" lon="6.70991">
        <ele>359</ele>
        <time>2015-09-27T09:21:52.000Z</time>
      </trkpt>
      <trkpt lat="47.52735" lon="6.70998">
        <ele>357</ele>
        <time>2015-09-27T09:21:53.000Z</time>
      </trkpt>
      <trkpt lat="47.52737" lon="6.71005">
        <ele>356</ele>
        <time>2015-09-27T09:21:54.000Z</time>
      </trkpt>
      <trkpt lat="47.5274" lon="6.71011">
        <ele>357</ele>
        <time>2015-09-27T09:21:55.000Z</time>
      </trkpt>
      <trkpt lat="47.52742" lon="6.71016">
        <ele>357</ele>
        <time>2015-09-27T09:21:56.000Z</time>
      </trkpt>
      <trkpt lat="47.52744" lon="6.71022">
        <ele>358</ele>
        <time>2015-09-27T09:21:57.000Z</time>
      </trkpt>
      <trkpt lat="47.52747" lon="6.71029">
        <ele>358</ele>
        <time>2015-09-27T09:21:58.000Z</time>
      </trkpt>
      <trkpt lat="47.52748" lon="6.71036">
        <ele>358</ele>
        <time>2015-09-27T09:21:59.000Z</time>
      </trkpt>
      <trkpt lat="47.52748" lon="6.71043">
        <ele>359</ele>
        <time>2015-09-27T09:22:00.000Z</time>
      </trkpt>
      <trkpt lat="47.52745" lon="6.71048">
        <ele>359</ele>
        <time>2015-09-27T09:22:01.000Z</time>
      </trkpt>
      <trkpt lat="47.52742" lon="6.71055">
        <ele>359</ele>
        <time>2015-09-27T09:22:02.000Z</time>
      </trkpt>
      <trkpt lat="47.52741" lon="6.71061">
        <ele>358</ele>
        <time>2015-09-27T09:22:03.000Z</time>
      </trkpt>
      <trkpt lat="47.5274" lon="6.71068">
        <ele>358</ele>
        <time>2015-09-27T09:22:04.000Z</time>
      </trkpt>
      <trkpt lat="47.5274" lon="6.71074">
        <ele>357</ele>
        <time>2015-09-27T09:22:05.000Z</time>
      </trkpt>
      <trkpt lat="47.5274" lon="6.71081">
        <ele>357</ele>
        <time>2015-09-27T09:22:06.000Z</time>
      </trkpt>
      <trkpt lat="47.52739" lon="6.71085">
        <ele>357</ele>
        <time>2015-09-27T09:22:07.000Z</time>
      </trkpt>
      <trkpt lat="47.52739" lon="6.71089">
        <ele>357</ele>
        <time>2015-09-27T09:22:08.000Z</time>
      </trkpt>
      <trkpt lat="47.52738" lon="6.71093">
        <ele>358</ele>
        <time>2015-09-27T09:22:09.000Z</time>
      </trkpt>
      <trkpt lat="47.52741" lon="6.71096">
        <ele>358</ele>
        <time>2015-09-27T09:22:10.000Z</time>
      </trkpt>
      <trkpt lat="47.52741" lon="6.71101">
        <ele>358</ele>
        <time>2015-09-27T09:22:11.000Z</time>
      </trkpt>
      <trkpt lat="47.52742" lon="6.71105">
        <ele>359</ele>
        <time>2015-09-27T09:22:12.000Z</time>
      </trkpt>
      <trkpt lat="47.52742" lon="6.71109">
        <ele>359</ele>
        <time>2015-09-27T09:22:13.000Z</time>
      </trkpt>
      <trkpt lat="47.52742" lon="6.71112">
        <ele>359</ele>
        <time>2015-09-27T09:22:14.000Z</time>
      </trkpt>
      <trkpt lat="47.52742" lon="6.71116">
        <ele>359</ele>
        <time>2015-09-27T09:22:15.000Z</time>
      </trkpt>
      <trkpt lat="47.52742" lon="6.71119">
        <ele>360</ele>
        <time>2015-09-27T09:22:16.000Z</time>
      </trkpt>
      <trkpt lat="47.52743" lon="6.71124">
        <ele>360</ele>
        <time>2015-09-27T09:22:18.000Z</time>
      </trkpt>
      <trkpt lat="47.52743" lon="6.71127">
        <ele>360</ele>
        <time>2015-09-27T09:22:19.000Z</time>
      </trkpt>
      <trkpt lat="47.52745" lon="6.71132">
        <ele>360</ele>
        <time>2015-09-27T09:22:21.000Z</time>
      </trkpt>
      <trkpt lat="47.52745" lon="6.71134">
        <ele>360</ele>
        <time>2015-09-27T09:22:22.000Z</time>
      </trkpt>
      <trkpt lat="47.52746" lon="6.7114">
        <ele>360</ele>
        <time>2015-09-27T09:22:24.000Z</time>
      </trkpt>
      <trkpt lat="47.52745" lon="6.71143">
        <ele>360</ele>
        <time>2015-09-27T09:22:25.000Z</time>
      </trkpt>
      <trkpt lat="47.52746" lon="6.71147">
        <ele>360</ele>
        <time>2015-09-27T09:22:27.000Z</time>
      </trkpt>
      <trkpt lat="47.52746" lon="6.71149">
        <ele>360</ele>
        <time>2015-09-27T09:22:28.000Z</time>
      </trkpt>
      <trkpt lat="47.52746" lon="6.71155">
        <ele>360</ele>
        <time>2015-09-27T09:22:31.000Z</time>
      </trkpt>
      <trkpt lat="47.52745" lon="6.71158">
        <ele>360</ele>
        <time>2015-09-27T09:22:32.000Z</time>
      </trkpt>
      <trkpt lat="47.52743" lon="6.71162">
        <ele>360</ele>
        <time>2015-09-27T09:22:34.000Z</time>
      </trkpt>
      <trkpt lat="47.52742" lon="6.71163">
        <ele>360</ele>
        <time>2015-09-27T09:22:35.000Z</time>
      </trkpt>
      <trkpt lat="47.52738" lon="6.71165">
        <ele>360</ele>
        <time>2015-09-27T09:22:37.000Z</time>
      </trkpt>
      <trkpt lat="47.52736" lon="6.71167">
        <ele>360</ele>
        <time>2015-09-27T09:22:38.000Z</time>
      </trkpt>
      <trkpt lat="47.52733" lon="6.71171">
        <ele>360</ele>
        <time>2015-09-27T09:22:40.000Z</time>
      </trkpt>
      <trkpt lat="47.52732" lon="6.71174">
        <ele>360</ele>
        <time>2015-09-27T09:22:41.000Z</time>
      </trkpt>
      <trkpt lat="47.5273" lon="6.71178">
        <ele>361</ele>
        <time>2015-09-27T09:22:43.000Z</time>
      </trkpt>
      <trkpt lat="47.52728" lon="6.7118">
        <ele>361</ele>
        <time>2015-09-27T09:22:44.000Z</time>
      </trkpt>
      <trkpt lat="47.52725" lon="6.71182">
        <ele>361</ele>
        <time>2015-09-27T09:22:45.000Z</time>
      </trkpt>
      <trkpt lat="47.52723" lon="6.71184">
        <ele>361</ele>
        <time>2015-09-27T09:22:46.000Z</time>
      </trkpt>
      <trkpt lat="47.52721" lon="6.71186">
        <ele>361</ele>
        <time>2015-09-27T09:22:47.000Z</time>
      </trkpt>
      <trkpt lat="47.52719" lon="6.71188">
        <ele>361</ele>
        <time>2015-09-27T09:22:48.000Z</time>
      </trkpt>
      <trkpt lat="47.52717" lon="6.71192">
        <ele>361</ele>
        <time>2015-09-27T09:22:51.000Z</time>
      </trkpt>
      <trkpt lat="47.52716" lon="6.71194">
        <ele>361</ele>
        <time>2015-09-27T09:22:52.000Z</time>
      </trkpt>
      <trkpt lat="47.52714" lon="6.71197">
        <ele>361</ele>
        <time>2015-09-27T09:22:54.000Z</time>
      </trkpt>
      <trkpt lat="47.52712" lon="6.71199">
        <ele>361</ele>
        <time>2015-09-27T09:22:55.000Z</time>
      </trkpt>
      <trkpt lat="47.52711" lon="6.71202">
        <ele>361</ele>
        <time>2015-09-27T09:22:56.000Z</time>
      </trkpt>
      <trkpt lat="47.52709" lon="6.71207">
        <ele>361</ele>
        <time>2015-09-27T09:22:57.000Z</time>
      </trkpt>
      <trkpt lat="47.52709" lon="6.71213">
        <ele>361</ele>
        <time>2015-09-27T09:22:58.000Z</time>
      </trkpt>
      <trkpt lat="47.52711" lon="6.71228">
        <ele>361</ele>
        <time>2015-09-27T09:22:59.000Z</time>
      </trkpt>
      <trkpt lat="47.52712" lon="6.71235">
        <ele>361</ele>
        <time>2015-09-27T09:23:00.000Z</time>
      </trkpt>
      <trkpt lat="47.52714" lon="6.71243">
        <ele>361</ele>
        <time>2015-09-27T09:23:01.000Z</time>
      </trkpt>
      <trkpt lat="47.52715" lon="6.71251">
        <ele>364</ele>
        <time>2015-09-27T09:23:02.000Z</time>
      </trkpt>
      <trkpt lat="47.52715" lon="6.71258">
        <ele>364</ele>
        <time>2015-09-27T09:23:03.000Z</time>
      </trkpt>
      <trkpt lat="47.52716" lon="6.71265">
        <ele>364</ele>
        <time>2015-09-27T09:23:04.000Z</time>
      </trkpt>
      <trkpt lat="47.52712" lon="6.7127">
        <ele>364</ele>
        <time>2015-09-27T09:23:05.000Z</time>
      </trkpt>
      <trkpt lat="47.5271" lon="6.71275">
        <ele>365</ele>
        <time>2015-09-27T09:23:06.000Z</time>
      </trkpt>
      <trkpt lat="47.52709" lon="6.71278">
        <ele>365</ele>
        <time>2015-09-27T09:23:07.000Z</time>
      </trkpt>
      <trkpt lat="47.52707" lon="6.7128">
        <ele>365</ele>
        <time>2015-09-27T09:23:08.000Z</time>
      </trkpt>
      <trkpt lat="47.52705" lon="6.71281">
        <ele>365</ele>
        <time>2015-09-27T09:23:09.000Z</time>
      </trkpt>
      <trkpt lat="47.52701" lon="6.71281">
        <ele>365</ele>
        <time>2015-09-27T09:23:11.000Z</time>
      </trkpt>
      <trkpt lat="47.527" lon="6.71282">
        <ele>365</ele>
        <time>2015-09-27T09:23:12.000Z</time>
      </trkpt>
      <trkpt lat="47.52696" lon="6.71281">
        <ele>365</ele>
        <time>2015-09-27T09:23:13.000Z</time>
      </trkpt>
      <trkpt lat="47.52694" lon="6.71281">
        <ele>365</ele>
        <time>2015-09-27T09:23:14.000Z</time>
      </trkpt>
      <trkpt lat="47.52691" lon="6.71281">
        <ele>365</ele>
        <time>2015-09-27T09:23:15.000Z</time>
      </trkpt>
      <trkpt lat="47.52689" lon="6.71282">
        <ele>365</ele>
        <time>2015-09-27T09:23:16.000Z</time>
      </trkpt>
      <trkpt lat="47.52687" lon="6.71282">
        <ele>365</ele>
        <time>2015-09-27T09:23:17.000Z</time>
      </trkpt>
      <trkpt lat="47.52684" lon="6.71282">
        <ele>365</ele>
        <time>2015-09-27T09:23:18.000Z</time>
      </trkpt>
      <trkpt lat="47.52681" lon="6.71282">
        <ele>365</ele>
        <time>2015-09-27T09:23:19.000Z</time>
      </trkpt>
      <trkpt lat="47.52677" lon="6.71282">
        <ele>365</ele>
        <time>2015-09-27T09:23:20.000Z</time>
      </trkpt>
      <trkpt lat="47.52673" lon="6.71282">
        <ele>364</ele>
        <time>2015-09-27T09:23:21.000Z</time>
      </trkpt>
      <trkpt lat="47.52669" lon="6.71282">
        <ele>364</ele>
        <time>2015-09-27T09:23:22.000Z</time>
      </trkpt>
      <trkpt lat="47.52665" lon="6.71283">
        <ele>364</ele>
        <time>2015-09-27T09:23:23.000Z</time>
      </trkpt>
      <trkpt lat="47.52661" lon="6.71284">
        <ele>364</ele>
        <time>2015-09-27T09:23:24.000Z</time>
      </trkpt>
      <trkpt lat="47.52657" lon="6.71284">
        <ele>365</ele>
        <time>2015-09-27T09:23:25.000Z</time>
      </trkpt>
      <trkpt lat="47.52653" lon="6.71284">
        <ele>365</ele>
        <time>2015-09-27T09:23:26.000Z</time>
      </trkpt>
      <trkpt lat="47.5265" lon="6.71284">
        <ele>365</ele>
        <time>2015-09-27T09:23:27.000Z</time>
      </trkpt>
      <trkpt lat="47.52646" lon="6.71284">
        <ele>365</ele>
        <time>2015-09-27T09:23:28.000Z</time>
      </trkpt>
      <trkpt lat="47.52643" lon="6.71283">
        <ele>365</ele>
        <time>2015-09-27T09:23:29.000Z</time>
      </trkpt>
      <trkpt lat="47.5264" lon="6.71283">
        <ele>365</ele>
        <time>2015-09-27T09:23:30.000Z</time>
      </trkpt>
      <trkpt lat="47.52636" lon="6.71282">
        <ele>365</ele>
        <time>2015-09-27T09:23:31.000Z</time>
      </trkpt>
      <trkpt lat="47.52633" lon="6.71282">
        <ele>365</ele>
        <time>2015-09-27T09:23:32.000Z</time>
      </trkpt>
      <trkpt lat="47.5263" lon="6.71281">
        <ele>365</ele>
        <time>2015-09-27T09:23:33.000Z</time>
      </trkpt>
      <trkpt lat="47.52626" lon="6.71281">
        <ele>365</ele>
        <time>2015-09-27T09:23:34.000Z</time>
      </trkpt>
      <trkpt lat="47.52623" lon="6.7128">
        <ele>365</ele>
        <time>2015-09-27T09:23:35.000Z</time>
      </trkpt>
      <trkpt lat="47.52619" lon="6.7128">
        <ele>365</ele>
        <time>2015-09-27T09:23:36.000Z</time>
      </trkpt>
      <trkpt lat="47.52616" lon="6.71279">
        <ele>365</ele>
        <time>2015-09-27T09:23:37.000Z</time>
      </trkpt>
      <trkpt lat="47.52612" lon="6.71278">
        <ele>365</ele>
        <time>2015-09-27T09:23:38.000Z</time>
      </trkpt>
      <trkpt lat="47.52608" lon="6.71277">
        <ele>365</ele>
        <time>2015-09-27T09:23:39.000Z</time>
      </trkpt>
      <trkpt lat="47.52604" lon="6.71277">
        <ele>364</ele>
        <time>2015-09-27T09:23:40.000Z</time>
      </trkpt>
      <trkpt lat="47.526" lon="6.71276">
        <ele>364</ele>
        <time>2015-09-27T09:23:41.000Z</time>
      </trkpt>
      <trkpt lat="47.52596" lon="6.71276">
        <ele>364</ele>
        <time>2015-09-27T09:23:42.000Z</time>
      </trkpt>
      <trkpt lat="47.52593" lon="6.71276">
        <ele>364</ele>
        <time>2015-09-27T09:23:43.000Z</time>
      </trkpt>
      <trkpt lat="47.5259" lon="6.71275">
        <ele>364</ele>
        <time>2015-09-27T09:23:44.000Z</time>
      </trkpt>
      <trkpt lat="47.52587" lon="6.71275">
        <ele>364</ele>
        <time>2015-09-27T09:23:45.000Z</time>
      </trkpt>
      <trkpt lat="47.52584" lon="6.71274">
        <ele>364</ele>
        <time>2015-09-27T09:23:46.000Z</time>
      </trkpt>
      <trkpt lat="47.5258" lon="6.71272">
        <ele>362</ele>
        <time>2015-09-27T09:23:47.000Z</time>
      </trkpt>
      <trkpt lat="47.52577" lon="6.71271">
        <ele>362</ele>
        <time>2015-09-27T09:23:48.000Z</time>
      </trkpt>
      <trkpt lat="47.52573" lon="6.71269">
        <ele>362</ele>
        <time>2015-09-27T09:23:49.000Z</time>
      </trkpt>
      <trkpt lat="47.52569" lon="6.71268">
        <ele>362</ele>
        <time>2015-09-27T09:23:50.000Z</time>
      </trkpt>
      <trkpt lat="47.52565" lon="6.71266">
        <ele>362</ele>
        <time>2015-09-27T09:23:51.000Z</time>
      </trkpt>
      <trkpt lat="47.52561" lon="6.71264">
        <ele>362</ele>
        <time>2015-09-27T09:23:52.000Z</time>
      </trkpt>
      <trkpt lat="47.52557" lon="6.71263">
        <ele>362</ele>
        <time>2015-09-27T09:23:53.000Z</time>
      </trkpt>
      <trkpt lat="47.52553" lon="6.71261">
        <ele>362</ele>
        <time>2015-09-27T09:23:54.000Z</time>
      </trkpt>
      <trkpt lat="47.5255" lon="6.71259">
        <ele>362</ele>
        <time>2015-09-27T09:23:55.000Z</time>
      </trkpt>
      <trkpt lat="47.52547" lon="6.71257">
        <ele>361</ele>
        <time>2015-09-27T09:23:56.000Z</time>
      </trkpt>
      <trkpt lat="47.52543" lon="6.71255">
        <ele>361</ele>
        <time>2015-09-27T09:23:57.000Z</time>
      </trkpt>
      <trkpt lat="47.5254" lon="6.71252">
        <ele>361</ele>
        <time>2015-09-27T09:23:58.000Z</time>
      </trkpt>
      <trkpt lat="47.52536" lon="6.7125">
        <ele>360</ele>
        <time>2015-09-27T09:23:59.000Z</time>
      </trkpt>
      <trkpt lat="47.52533" lon="6.71247">
        <ele>360</ele>
        <time>2015-09-27T09:24:00.000Z</time>
      </trkpt>
      <trkpt lat="47.52529" lon="6.71244">
        <ele>360</ele>
        <time>2015-09-27T09:24:01.000Z</time>
      </trkpt>
      <trkpt lat="47.52525" lon="6.71241">
        <ele>360</ele>
        <time>2015-09-27T09:24:01.999Z</time>
      </trkpt>
      <trkpt lat="47.52522" lon="6.71239">
        <ele>360</ele>
        <time>2015-09-27T09:24:03.000Z</time>
      </trkpt>
      <trkpt lat="47.52518" lon="6.71236">
        <ele>359</ele>
        <time>2015-09-27T09:24:04.000Z</time>
      </trkpt>
      <trkpt lat="47.52514" lon="6.71233">
        <ele>359</ele>
        <time>2015-09-27T09:24:05.000Z</time>
      </trkpt>
      <trkpt lat="47.52511" lon="6.71229">
        <ele>359</ele>
        <time>2015-09-27T09:24:06.000Z</time>
      </trkpt>
      <trkpt lat="47.52507" lon="6.71225">
        <ele>360</ele>
        <time>2015-09-27T09:24:07.000Z</time>
      </trkpt>
      <trkpt lat="47.52504" lon="6.71221">
        <ele>360</ele>
        <time>2015-09-27T09:24:08.000Z</time>
      </trkpt>
      <trkpt lat="47.52501" lon="6.71212">
        <ele>360</ele>
        <time>2015-09-27T09:24:09.000Z</time>
      </trkpt>
      <trkpt lat="47.52497" lon="6.71208">
        <ele>360</ele>
        <time>2015-09-27T09:24:10.000Z</time>
      </trkpt>
      <trkpt lat="47.52494" lon="6.71205">
        <ele>360</ele>
        <time>2015-09-27T09:24:11.001Z</time>
      </trkpt>
      <trkpt lat="47.5249" lon="6.71202">
        <ele>360</ele>
        <time>2015-09-27T09:24:12.000Z</time>
      </trkpt>
      <trkpt lat="47.52487" lon="6.71198">
        <ele>360</ele>
        <time>2015-09-27T09:24:13.000Z</time>
      </trkpt>
      <trkpt lat="47.52484" lon="6.71194">
        <ele>360</ele>
        <time>2015-09-27T09:24:14.000Z</time>
      </trkpt>
      <trkpt lat="47.5248" lon="6.71191">
        <ele>360</ele>
        <time>2015-09-27T09:24:15.000Z</time>
      </trkpt>
      <trkpt lat="47.52477" lon="6.71187">
        <ele>360</ele>
        <time>2015-09-27T09:24:16.000Z</time>
      </trkpt>
      <trkpt lat="47.52473" lon="6.71185">
        <ele>361</ele>
        <time>2015-09-27T09:24:17.000Z</time>
      </trkpt>
      <trkpt lat="47.52469" lon="6.71184">
        <ele>361</ele>
        <time>2015-09-27T09:24:18.000Z</time>
      </trkpt>
      <trkpt lat="47.52465" lon="6.71183">
        <ele>361</ele>
        <time>2015-09-27T09:24:19.000Z</time>
      </trkpt>
      <trkpt lat="47.52462" lon="6.71183">
        <ele>361</ele>
        <time>2015-09-27T09:24:20.000Z</time>
      </trkpt>
      <trkpt lat="47.52458" lon="6.71183">
        <ele>361</ele>
        <time>2015-09-27T09:24:21.000Z</time>
      </trkpt>
      <trkpt lat="47.52454" lon="6.71184">
        <ele>361</ele>
        <time>2015-09-27T09:24:22.000Z</time>
      </trkpt>
      <trkpt lat="47.52448" lon="6.71186">
        <ele>361</ele>
        <time>2015-09-27T09:24:23.000Z</time>
      </trkpt>
      <trkpt lat="47.52443" lon="6.71186">
        <ele>361</ele>
        <time>2015-09-27T09:24:24.000Z</time>
      </trkpt>
      <trkpt lat="47.52438" lon="6.71188">
        <ele>361</ele>
        <time>2015-09-27T09:24:25.000Z</time>
      </trkpt>
      <trkpt lat="47.52432" lon="6.71188">
        <ele>361</ele>
        <time>2015-09-27T09:24:26.000Z</time>
      </trkpt>
      <trkpt lat="47.52426" lon="6.71189">
        <ele>361</ele>
        <time>2015-09-27T09:24:27.000Z</time>
      </trkpt>
      <trkpt lat="47.5242" lon="6.7119">
        <ele>361</ele>
        <time>2015-09-27T09:24:28.000Z</time>
      </trkpt>
      <trkpt lat="47.52414" lon="6.71191">
        <ele>363</ele>
        <time>2015-09-27T09:24:29.000Z</time>
      </trkpt>
      <trkpt lat="47.52409" lon="6.71191">
        <ele>363</ele>
        <time>2015-09-27T09:24:30.000Z</time>
      </trkpt>
      <trkpt lat="47.52405" lon="6.71192">
        <ele>363</ele>
        <time>2015-09-27T09:24:31.000Z</time>
      </trkpt>
      <trkpt lat="47.52401" lon="6.71194">
        <ele>364</ele>
        <time>2015-09-27T09:24:32.000Z</time>
      </trkpt>
      <trkpt lat="47.52397" lon="6.71195">
        <ele>364</ele>
        <time>2015-09-27T09:24:33.000Z</time>
      </trkpt>
      <trkpt lat="47.52393" lon="6.71196">
        <ele>364</ele>
        <time>2015-09-27T09:24:34.000Z</time>
      </trkpt>
      <trkpt lat="47.5239" lon="6.71193">
        <ele>364</ele>
        <time>2015-09-27T09:24:35.000Z</time>
      </trkpt>
      <trkpt lat="47.52386" lon="6.71192">
        <ele>364</ele>
        <time>2015-09-27T09:24:36.000Z</time>
      </trkpt>
      <trkpt lat="47.52382" lon="6.71191">
        <ele>364</ele>
        <time>2015-09-27T09:24:37.000Z</time>
      </trkpt>
      <trkpt lat="47.52378" lon="6.71189">
        <ele>364</ele>
        <time>2015-09-27T09:24:38.000Z</time>
      </trkpt>
      <trkpt lat="47.52374" lon="6.71187">
        <ele>364</ele>
        <time>2015-09-27T09:24:39.000Z</time>
      </trkpt>
      <trkpt lat="47.5237" lon="6.71186">
        <ele>364</ele>
        <time>2015-09-27T09:24:40.000Z</time>
      </trkpt>
      <trkpt lat="47.52367" lon="6.71186">
        <ele>365</ele>
        <time>2015-09-27T09:24:41.000Z</time>
      </trkpt>
      <trkpt lat="47.52363" lon="6.71184">
        <ele>365</ele>
        <time>2015-09-27T09:24:42.000Z</time>
      </trkpt>
      <trkpt lat="47.5236" lon="6.71183">
        <ele>365</ele>
        <time>2015-09-27T09:24:43.000Z</time>
      </trkpt>
      <trkpt lat="47.52357" lon="6.71181">
        <ele>365</ele>
        <time>2015-09-27T09:24:44.000Z</time>
      </trkpt>
      <trkpt lat="47.52355" lon="6.71178">
        <ele>365</ele>
        <time>2015-09-27T09:24:45.000Z</time>
      </trkpt>
      <trkpt lat="47.52352" lon="6.71175">
        <ele>365</ele>
        <time>2015-09-27T09:24:46.000Z</time>
      </trkpt>
      <trkpt lat="47.5235" lon="6.71172">
        <ele>366</ele>
        <time>2015-09-27T09:24:47.000Z</time>
      </trkpt>
      <trkpt lat="47.52347" lon="6.71169">
        <ele>366</ele>
        <time>2015-09-27T09:24:48.000Z</time>
      </trkpt>
      <trkpt lat="47.52344" lon="6.71165">
        <ele>367</ele>
        <time>2015-09-27T09:24:49.000Z</time>
      </trkpt>
      <trkpt lat="47.52341" lon="6.71161">
        <ele>367</ele>
        <time>2015-09-27T09:24:50.000Z</time>
      </trkpt>
      <trkpt lat="47.52338" lon="6.71158">
        <ele>367</ele>
        <time>2015-09-27T09:24:51.000Z</time>
      </trkpt>
      <trkpt lat="47.52334" lon="6.71155">
        <ele>367</ele>
        <time>2015-09-27T09:24:52.000Z</time>
      </trkpt>
      <trkpt lat="47.5233" lon="6.71153">
        <ele>366</ele>
        <time>2015-09-27T09:24:53.000Z</time>
      </trkpt>
      <trkpt lat="47.52326" lon="6.71153">
        <ele>366</ele>
        <time>2015-09-27T09:24:54.000Z</time>
      </trkpt>
      <trkpt lat="47.52322" lon="6.71153">
        <ele>366</ele>
        <time>2015-09-27T09:24:55.000Z</time>
      </trkpt>
      <trkpt lat="47.52318" lon="6.71155">
        <ele>366</ele>
        <time>2015-09-27T09:24:56.000Z</time>
      </trkpt>
      <trkpt lat="47.52315" lon="6.71156">
        <ele>366</ele>
        <time>2015-09-27T09:24:57.000Z</time>
      </trkpt>
      <trkpt lat="47.52312" lon="6.71162">
        <ele>366</ele>
        <time>2015-09-27T09:24:58.000Z</time>
      </trkpt>
      <trkpt lat="47.52309" lon="6.71167">
        <ele>366</ele>
        <time>2015-09-27T09:24:59.000Z</time>
      </trkpt>
      <trkpt lat="47.52307" lon="6.7117">
        <ele>367</ele>
        <time>2015-09-27T09:24:59.999Z</time>
      </trkpt>
      <trkpt lat="47.52302" lon="6.71179">
        <ele>367</ele>
        <time>2015-09-27T09:25:01.000Z</time>
      </trkpt>
      <trkpt lat="47.52299" lon="6.71183">
        <ele>367</ele>
        <time>2015-09-27T09:25:01.999Z</time>
      </trkpt>
      <trkpt lat="47.52296" lon="6.71187">
        <ele>367</ele>
        <time>2015-09-27T09:25:03.000Z</time>
      </trkpt>
      <trkpt lat="47.52294" lon="6.71191">
        <ele>367</ele>
        <time>2015-09-27T09:25:04.000Z</time>
      </trkpt>
      <trkpt lat="47.52291" lon="6.71194">
        <ele>367</ele>
        <time>2015-09-27T09:25:04.999Z</time>
      </trkpt>
      <trkpt lat="47.52289" lon="6.71197">
        <ele>367</ele>
        <time>2015-09-27T09:25:06.000Z</time>
      </trkpt>
      <trkpt lat="47.52288" lon="6.71202">
        <ele>367</ele>
        <time>2015-09-27T09:25:07.000Z</time>
      </trkpt>
      <trkpt lat="47.52286" lon="6.71207">
        <ele>368</ele>
        <time>2015-09-27T09:25:08.000Z</time>
      </trkpt>
      <trkpt lat="47.52283" lon="6.71211">
        <ele>368</ele>
        <time>2015-09-27T09:25:09.000Z</time>
      </trkpt>
      <trkpt lat="47.52281" lon="6.71215">
        <ele>368</ele>
        <time>2015-09-27T09:25:10.000Z</time>
      </trkpt>
      <trkpt lat="47.52278" lon="6.71218">
        <ele>368</ele>
        <time>2015-09-27T09:25:11.000Z</time>
      </trkpt>
      <trkpt lat="47.52275" lon="6.7122">
        <ele>368</ele>
        <time>2015-09-27T09:25:12.000Z</time>
      </trkpt>
      <trkpt lat="47.52272" lon="6.71222">
        <ele>368</ele>
        <time>2015-09-27T09:25:13.000Z</time>
      </trkpt>
      <trkpt lat="47.52269" lon="6.71225">
        <ele>368</ele>
        <time>2015-09-27T09:25:14.000Z</time>
      </trkpt>
      <trkpt lat="47.52267" lon="6.71225">
        <ele>368</ele>
        <time>2015-09-27T09:25:15.000Z</time>
      </trkpt>
      <trkpt lat="47.52264" lon="6.71225">
        <ele>368</ele>
        <time>2015-09-27T09:25:16.000Z</time>
      </trkpt>
      <trkpt lat="47.52261" lon="6.71224">
        <ele>368</ele>
        <time>2015-09-27T09:25:17.000Z</time>
      </trkpt>
      <trkpt lat="47.52258" lon="6.71223">
        <ele>368</ele>
        <time>2015-09-27T09:25:18.000Z</time>
      </trkpt>
      <trkpt lat="47.52255" lon="6.7122">
        <ele>368</ele>
        <time>2015-09-27T09:25:19.000Z</time>
      </trkpt>
      <trkpt lat="47.52252" lon="6.71217">
        <ele>368</ele>
        <time>2015-09-27T09:25:20.000Z</time>
      </trkpt>
      <trkpt lat="47.5225" lon="6.71213">
        <ele>368</ele>
        <time>2015-09-27T09:25:21.000Z</time>
      </trkpt>
      <trkpt lat="47.52247" lon="6.71208">
        <ele>370</ele>
        <time>2015-09-27T09:25:22.000Z</time>
      </trkpt>
      <trkpt lat="47.52245" lon="6.71204">
        <ele>370</ele>
        <time>2015-09-27T09:25:23.000Z</time>
      </trkpt>
      <trkpt lat="47.52242" lon="6.71199">
        <ele>370</ele>
        <time>2015-09-27T09:25:24.000Z</time>
      </trkpt>
      <trkpt lat="47.5224" lon="6.71195">
        <ele>370</ele>
        <time>2015-09-27T09:25:25.000Z</time>
      </trkpt>
      <trkpt lat="47.52237" lon="6.71191">
        <ele>370</ele>
        <time>2015-09-27T09:25:26.000Z</time>
      </trkpt>
      <trkpt lat="47.52234" lon="6.71187">
        <ele>370</ele>
        <time>2015-09-27T09:25:27.000Z</time>
      </trkpt>
      <trkpt lat="47.52231" lon="6.71182">
        <ele>369</ele>
        <time>2015-09-27T09:25:28.000Z</time>
      </trkpt>
      <trkpt lat="47.52227" lon="6.71175">
        <ele>369</ele>
        <time>2015-09-27T09:25:29.000Z</time>
      </trkpt>
      <trkpt lat="47.52224" lon="6.71169">
        <ele>370</ele>
        <time>2015-09-27T09:25:30.001Z</time>
      </trkpt>
      <trkpt lat="47.5222" lon="6.71163">
        <ele>367</ele>
        <time>2015-09-27T09:25:31.000Z</time>
      </trkpt>
      <trkpt lat="47.52216" lon="6.71157">
        <ele>367</ele>
        <time>2015-09-27T09:25:32.000Z</time>
      </trkpt>
      <trkpt lat="47.52213" lon="6.71151">
        <ele>367</ele>
        <time>2015-09-27T09:25:33.000Z</time>
      </trkpt>
      <trkpt lat="47.52209" lon="6.71144">
        <ele>367</ele>
        <time>2015-09-27T09:25:34.000Z</time>
      </trkpt>
      <trkpt lat="47.52205" lon="6.71138">
        <ele>367</ele>
        <time>2015-09-27T09:25:35.000Z</time>
      </trkpt>
      <trkpt lat="47.52201" lon="6.71133">
        <ele>367</ele>
        <time>2015-09-27T09:25:35.999Z</time>
      </trkpt>
      <trkpt lat="47.52198" lon="6.71129">
        <ele>367</ele>
        <time>2015-09-27T09:25:37.001Z</time>
      </trkpt>
      <trkpt lat="47.52193" lon="6.71124">
        <ele>367</ele>
        <time>2015-09-27T09:25:38.000Z</time>
      </trkpt>
      <trkpt lat="47.52188" lon="6.71119">
        <ele>367</ele>
        <time>2015-09-27T09:25:39.000Z</time>
      </trkpt>
      <trkpt lat="47.52184" lon="6.71115">
        <ele>367</ele>
        <time>2015-09-27T09:25:40.000Z</time>
      </trkpt>
      <trkpt lat="47.5218" lon="6.7111">
        <ele>367</ele>
        <time>2015-09-27T09:25:41.000Z</time>
      </trkpt>
      <trkpt lat="47.52176" lon="6.71106">
        <ele>367</ele>
        <time>2015-09-27T09:25:42.000Z</time>
      </trkpt>
      <trkpt lat="47.52172" lon="6.711">
        <ele>367</ele>
        <time>2015-09-27T09:25:43.000Z</time>
      </trkpt>
      <trkpt lat="47.52168" lon="6.71095">
        <ele>367</ele>
        <time>2015-09-27T09:25:44.000Z</time>
      </trkpt>
      <trkpt lat="47.52163" lon="6.71092">
        <ele>369</ele>
        <time>2015-09-27T09:25:45.000Z</time>
      </trkpt>
      <trkpt lat="47.52159" lon="6.71088">
        <ele>369</ele>
        <time>2015-09-27T09:25:46.000Z</time>
      </trkpt>
      <trkpt lat="47.52156" lon="6.71084">
        <ele>369</ele>
        <time>2015-09-27T09:25:47.001Z</time>
      </trkpt>
      <trkpt lat="47.52151" lon="6.71081">
        <ele>367</ele>
        <time>2015-09-27T09:25:48.000Z</time>
      </trkpt>
      <trkpt lat="47.52147" lon="6.71077">
        <ele>367</ele>
        <time>2015-09-27T09:25:49.000Z</time>
      </trkpt>
      <trkpt lat="47.52144" lon="6.71073">
        <ele>367</ele>
        <time>2015-09-27T09:25:50.000Z</time>
      </trkpt>
      <trkpt lat="47.5214" lon="6.71071">
        <ele>367</ele>
        <time>2015-09-27T09:25:51.000Z</time>
      </trkpt>
      <trkpt lat="47.52137" lon="6.71068">
        <ele>367</ele>
        <time>2015-09-27T09:25:51.999Z</time>
      </trkpt>
      <trkpt lat="47.52132" lon="6.71065">
        <ele>367</ele>
        <time>2015-09-27T09:25:53.000Z</time>
      </trkpt>
      <trkpt lat="47.52129" lon="6.71062">
        <ele>367</ele>
        <time>2015-09-27T09:25:53.999Z</time>
      </trkpt>
      <trkpt lat="47.52126" lon="6.71062">
        <ele>367</ele>
        <time>2015-09-27T09:25:55.000Z</time>
      </trkpt>
      <trkpt lat="47.52122" lon="6.71061">
        <ele>368</ele>
        <time>2015-09-27T09:25:56.000Z</time>
      </trkpt>
      <trkpt lat="47.52118" lon="6.71059">
        <ele>368</ele>
        <time>2015-09-27T09:25:57.001Z</time>
      </trkpt>
      <trkpt lat="47.52115" lon="6.71057">
        <ele>368</ele>
        <time>2015-09-27T09:25:58.000Z</time>
      </trkpt>
      <trkpt lat="47.52114" lon="6.71053">
        <ele>368</ele>
        <time>2015-09-27T09:25:59.000Z</time>
      </trkpt>
      <trkpt lat="47.5211" lon="6.71047">
        <ele>367</ele>
        <time>2015-09-27T09:26:00.000Z</time>
      </trkpt>
      <trkpt lat="47.52106" lon="6.71043">
        <ele>367</ele>
        <time>2015-09-27T09:26:00.999Z</time>
      </trkpt>
      <trkpt lat="47.52102" lon="6.7104">
        <ele>367</ele>
        <time>2015-09-27T09:26:02.000Z</time>
      </trkpt>
      <trkpt lat="47.52098" lon="6.71036">
        <ele>367</ele>
        <time>2015-09-27T09:26:03.000Z</time>
      </trkpt>
      <trkpt lat="47.52092" lon="6.71032">
        <ele>367</ele>
        <time>2015-09-27T09:26:04.000Z</time>
      </trkpt>
      <trkpt lat="47.52088" lon="6.71028">
        <ele>367</ele>
        <time>2015-09-27T09:26:05.000Z</time>
      </trkpt>
      <trkpt lat="47.52083" lon="6.71026">
        <ele>367</ele>
        <time>2015-09-27T09:26:06.000Z</time>
      </trkpt>
      <trkpt lat="47.5208" lon="6.71024">
        <ele>372</ele>
        <time>2015-09-27T09:26:07.000Z</time>
      </trkpt>
      <trkpt lat="47.52076" lon="6.71022">
        <ele>372</ele>
        <time>2015-09-27T09:26:08.000Z</time>
      </trkpt>
      <trkpt lat="47.52072" lon="6.7102">
        <ele>372</ele>
        <time>2015-09-27T09:26:09.001Z</time>
      </trkpt>
      <trkpt lat="47.52067" lon="6.71022">
        <ele>373</ele>
        <time>2015-09-27T09:26:10.000Z</time>
      </trkpt>
      <trkpt lat="47.52063" lon="6.71022">
        <ele>373</ele>
        <time>2015-09-27T09:26:11.000Z</time>
      </trkpt>
      <trkpt lat="47.52059" lon="6.7102">
        <ele>374</ele>
        <time>2015-09-27T09:26:11.999Z</time>
      </trkpt>
      <trkpt lat="47.52056" lon="6.71018">
        <ele>374</ele>
        <time>2015-09-27T09:26:13.000Z</time>
      </trkpt>
      <trkpt lat="47.52052" lon="6.71017">
        <ele>374</ele>
        <time>2015-09-27T09:26:14.000Z</time>
      </trkpt>
      <trkpt lat="47.5205" lon="6.71015">
        <ele>374</ele>
        <time>2015-09-27T09:26:15.000Z</time>
      </trkpt>
      <trkpt lat="47.52047" lon="6.71014">
        <ele>374</ele>
        <time>2015-09-27T09:26:16.000Z</time>
      </trkpt>
      <trkpt lat="47.52043" lon="6.71011">
        <ele>375</ele>
        <time>2015-09-27T09:26:18.000Z</time>
      </trkpt>
      <trkpt lat="47.52041" lon="6.7101">
        <ele>375</ele>
        <time>2015-09-27T09:26:19.000Z</time>
      </trkpt>
      <trkpt lat="47.52038" lon="6.71008">
        <ele>375</ele>
        <time>2015-09-27T09:26:20.000Z</time>
      </trkpt>
      <trkpt lat="47.52034" lon="6.71006">
        <ele>375</ele>
        <time>2015-09-27T09:26:21.000Z</time>
      </trkpt>
      <trkpt lat="47.52031" lon="6.71004">
        <ele>375</ele>
        <time>2015-09-27T09:26:22.000Z</time>
      </trkpt>
      <trkpt lat="47.52028" lon="6.71002">
        <ele>375</ele>
        <time>2015-09-27T09:26:23.000Z</time>
      </trkpt>
      <trkpt lat="47.52025" lon="6.71001">
        <ele>375</ele>
        <time>2015-09-27T09:26:24.000Z</time>
      </trkpt>
      <trkpt lat="47.52021" lon="6.70999">
        <ele>369</ele>
        <time>2015-09-27T09:26:25.000Z</time>
      </trkpt>
      <trkpt lat="47.52018" lon="6.70998">
        <ele>369</ele>
        <time>2015-09-27T09:26:26.000Z</time>
      </trkpt>
      <trkpt lat="47.52014" lon="6.70996">
        <ele>370</ele>
        <time>2015-09-27T09:26:27.000Z</time>
      </trkpt>
      <trkpt lat="47.52011" lon="6.70995">
        <ele>370</ele>
        <time>2015-09-27T09:26:28.000Z</time>
      </trkpt>
      <trkpt lat="47.52007" lon="6.70994">
        <ele>371</ele>
        <time>2015-09-27T09:26:29.000Z</time>
      </trkpt>
      <trkpt lat="47.52004" lon="6.70993">
        <ele>371</ele>
        <time>2015-09-27T09:26:30.000Z</time>
      </trkpt>
      <trkpt lat="47.52" lon="6.70992">
        <ele>371</ele>
        <time>2015-09-27T09:26:31.000Z</time>
      </trkpt>
      <trkpt lat="47.51997" lon="6.7099">
        <ele>374</ele>
        <time>2015-09-27T09:26:32.000Z</time>
      </trkpt>
      <trkpt lat="47.51994" lon="6.7099">
        <ele>374</ele>
        <time>2015-09-27T09:26:33.000Z</time>
      </trkpt>
      <trkpt lat="47.51991" lon="6.7099">
        <ele>374</ele>
        <time>2015-09-27T09:26:34.000Z</time>
      </trkpt>
      <trkpt lat="47.51988" lon="6.70989">
        <ele>374</ele>
        <time>2015-09-27T09:26:35.001Z</time>
      </trkpt>
      <trkpt lat="47.51985" lon="6.70989">
        <ele>374</ele>
        <time>2015-09-27T09:26:36.000Z</time>
      </trkpt>
      <trkpt lat="47.51982" lon="6.70989">
        <ele>374</ele>
        <time>2015-09-27T09:26:37.000Z</time>
      </trkpt>
      <trkpt lat="47.51979" lon="6.70989">
        <ele>374</ele>
        <time>2015-09-27T09:26:38.000Z</time>
      </trkpt>
      <trkpt lat="47.51977" lon="6.7099">
        <ele>374</ele>
        <time>2015-09-27T09:26:39.000Z</time>
      </trkpt>
      <trkpt lat="47.51974" lon="6.7099">
        <ele>375</ele>
        <time>2015-09-27T09:26:40.000Z</time>
      </trkpt>
      <trkpt lat="47.51972" lon="6.7099">
        <ele>375</ele>
        <time>2015-09-27T09:26:41.000Z</time>
      </trkpt>
      <trkpt lat="47.51969" lon="6.7099">
        <ele>375</ele>
        <time>2015-09-27T09:26:42.000Z</time>
      </trkpt>
      <trkpt lat="47.51967" lon="6.7099">
        <ele>375</ele>
        <time>2015-09-27T09:26:43.000Z</time>
      </trkpt>
      <trkpt lat="47.51965" lon="6.7099">
        <ele>375</ele>
        <time>2015-09-27T09:26:44.001Z</time>
      </trkpt>
      <trkpt lat="47.51962" lon="6.70989">
        <ele>376</ele>
        <time>2015-09-27T09:26:45.000Z</time>
      </trkpt>
      <trkpt lat="47.51958" lon="6.70989">
        <ele>376</ele>
        <time>2015-09-27T09:26:47.000Z</time>
      </trkpt>
      <trkpt lat="47.51957" lon="6.70989">
        <ele>376</ele>
        <time>2015-09-27T09:26:48.000Z</time>
      </trkpt>
      <trkpt lat="47.51953" lon="6.7099">
        <ele>377</ele>
        <time>2015-09-27T09:26:50.000Z</time>
      </trkpt>
      <trkpt lat="47.51951" lon="6.70991">
        <ele>377</ele>
        <time>2015-09-27T09:26:51.000Z</time>
      </trkpt>
      <trkpt lat="47.51949" lon="6.70991">
        <ele>377</ele>
        <time>2015-09-27T09:26:52.000Z</time>
      </trkpt>
      <trkpt lat="47.51946" lon="6.70992">
        <ele>378</ele>
        <time>2015-09-27T09:26:53.000Z</time>
      </trkpt>
      <trkpt lat="47.51942" lon="6.70992">
        <ele>378</ele>
        <time>2015-09-27T09:26:55.000Z</time>
      </trkpt>
      <trkpt lat="47.5194" lon="6.70992">
        <ele>379</ele>
        <time>2015-09-27T09:26:56.000Z</time>
      </trkpt>
      <trkpt lat="47.51935" lon="6.70992">
        <ele>380</ele>
        <time>2015-09-27T09:26:58.000Z</time>
      </trkpt>
      <trkpt lat="47.51934" lon="6.70992">
        <ele>380</ele>
        <time>2015-09-27T09:26:59.000Z</time>
      </trkpt>
      <trkpt lat="47.5193" lon="6.70993">
        <ele>381</ele>
        <time>2015-09-27T09:27:02.000Z</time>
      </trkpt>
      <trkpt lat="47.51929" lon="6.70994">
        <ele>381</ele>
        <time>2015-09-27T09:27:03.000Z</time>
      </trkpt>
      <trkpt lat="47.51925" lon="6.70995">
        <ele>383</ele>
        <time>2015-09-27T09:27:07.000Z</time>
      </trkpt>
      <trkpt lat="47.51924" lon="6.70994">
        <ele>383</ele>
        <time>2015-09-27T09:27:08.000Z</time>
      </trkpt>
      <trkpt lat="47.51921" lon="6.70995">
        <ele>384</ele>
        <time>2015-09-27T09:27:10.000Z</time>
      </trkpt>
      <trkpt lat="47.51919" lon="6.70995">
        <ele>384</ele>
        <time>2015-09-27T09:27:11.000Z</time>
      </trkpt>
      <trkpt lat="47.51915" lon="6.70996">
        <ele>387</ele>
        <time>2015-09-27T09:27:13.000Z</time>
      </trkpt>
      <trkpt lat="47.51914" lon="6.70996">
        <ele>387</ele>
        <time>2015-09-27T09:27:14.000Z</time>
      </trkpt>
      <trkpt lat="47.51909" lon="6.70997">
        <ele>386</ele>
        <time>2015-09-27T09:27:17.000Z</time>
      </trkpt>
      <trkpt lat="47.51908" lon="6.70998">
        <ele>386</ele>
        <time>2015-09-27T09:27:18.000Z</time>
      </trkpt>
      <trkpt lat="47.51904" lon="6.70999">
        <ele>386</ele>
        <time>2015-09-27T09:27:21.000Z</time>
      </trkpt>
      <trkpt lat="47.51903" lon="6.70999">
        <ele>386</ele>
        <time>2015-09-27T09:27:22.000Z</time>
      </trkpt>
      <trkpt lat="47.51899" lon="6.70997">
        <ele>386</ele>
        <time>2015-09-27T09:27:26.000Z</time>
      </trkpt>
      <trkpt lat="47.51898" lon="6.70997">
        <ele>386</ele>
        <time>2015-09-27T09:27:27.000Z</time>
      </trkpt>
      <trkpt lat="47.51893" lon="6.70997">
        <ele>386</ele>
        <time>2015-09-27T09:27:30.000Z</time>
      </trkpt>
      <trkpt lat="47.51891" lon="6.70998">
        <ele>386</ele>
        <time>2015-09-27T09:27:31.000Z</time>
      </trkpt>
      <trkpt lat="47.51887" lon="6.70999">
        <ele>386</ele>
        <time>2015-09-27T09:27:33.000Z</time>
      </trkpt>
      <trkpt lat="47.51885" lon="6.70999">
        <ele>386</ele>
        <time>2015-09-27T09:27:34.000Z</time>
      </trkpt>
      <trkpt lat="47.51882" lon="6.71002">
        <ele>394</ele>
        <time>2015-09-27T09:27:38.000Z</time>
      </trkpt>
      <trkpt lat="47.51881" lon="6.71002">
        <ele>394</ele>
        <time>2015-09-27T09:27:39.000Z</time>
      </trkpt>
      <trkpt lat="47.51878" lon="6.71002">
        <ele>394</ele>
        <time>2015-09-27T09:27:41.000Z</time>
      </trkpt>
      <trkpt lat="47.51875" lon="6.71002">
        <ele>394</ele>
        <time>2015-09-27T09:27:42.000Z</time>
      </trkpt>
      <trkpt lat="47.51873" lon="6.71002">
        <ele>395</ele>
        <time>2015-09-27T09:27:43.000Z</time>
      </trkpt>
      <trkpt lat="47.51871" lon="6.71002">
        <ele>395</ele>
        <time>2015-09-27T09:27:44.000Z</time>
      </trkpt>
      <trkpt lat="47.51867" lon="6.71004">
        <ele>395</ele>
        <time>2015-09-27T09:27:47.000Z</time>
      </trkpt>
      <trkpt lat="47.51865" lon="6.71003">
        <ele>395</ele>
        <time>2015-09-27T09:27:48.000Z</time>
      </trkpt>
      <trkpt lat="47.51861" lon="6.71004">
        <ele>395</ele>
        <time>2015-09-27T09:27:51.000Z</time>
      </trkpt>
      <trkpt lat="47.51859" lon="6.71005">
        <ele>395</ele>
        <time>2015-09-27T09:27:52.000Z</time>
      </trkpt>
      <trkpt lat="47.51855" lon="6.71007">
        <ele>395</ele>
        <time>2015-09-27T09:27:55.000Z</time>
      </trkpt>
      <trkpt lat="47.51854" lon="6.71008">
        <ele>395</ele>
        <time>2015-09-27T09:27:56.000Z</time>
      </trkpt>
      <trkpt lat="47.51851" lon="6.71009">
        <ele>395</ele>
        <time>2015-09-27T09:27:58.000Z</time>
      </trkpt>
      <trkpt lat="47.51849" lon="6.71009">
        <ele>395</ele>
        <time>2015-09-27T09:27:59.000Z</time>
      </trkpt>
      <trkpt lat="47.51845" lon="6.71009">
        <ele>395</ele>
        <time>2015-09-27T09:28:01.000Z</time>
      </trkpt>
      <trkpt lat="47.51842" lon="6.7101">
        <ele>395</ele>
        <time>2015-09-27T09:28:02.000Z</time>
      </trkpt>
      <trkpt lat="47.5184" lon="6.7101">
        <ele>395</ele>
        <time>2015-09-27T09:28:03.000Z</time>
      </trkpt>
      <trkpt lat="47.51837" lon="6.71011">
        <ele>395</ele>
        <time>2015-09-27T09:28:04.000Z</time>
      </trkpt>
      <trkpt lat="47.51834" lon="6.71011">
        <ele>395</ele>
        <time>2015-09-27T09:28:05.000Z</time>
      </trkpt>
      <trkpt lat="47.51832" lon="6.71011">
        <ele>396</ele>
        <time>2015-09-27T09:28:06.000Z</time>
      </trkpt>
      <trkpt lat="47.51828" lon="6.71013">
        <ele>396</ele>
        <time>2015-09-27T09:28:08.000Z</time>
      </trkpt>
      <trkpt lat="47.51826" lon="6.71013">
        <ele>397</ele>
        <time>2015-09-27T09:28:09.000Z</time>
      </trkpt>
      <trkpt lat="47.51822" lon="6.71015">
        <ele>397</ele>
        <time>2015-09-27T09:28:11.000Z</time>
      </trkpt>
      <trkpt lat="47.5182" lon="6.71015">
        <ele>397</ele>
        <time>2015-09-27T09:28:12.000Z</time>
      </trkpt>
      <trkpt lat="47.51816" lon="6.71016">
        <ele>398</ele>
        <time>2015-09-27T09:28:14.000Z</time>
      </trkpt>
      <trkpt lat="47.51814" lon="6.71017">
        <ele>398</ele>
        <time>2015-09-27T09:28:15.000Z</time>
      </trkpt>
      <trkpt lat="47.5181" lon="6.71017">
        <ele>398</ele>
        <time>2015-09-27T09:28:17.000Z</time>
      </trkpt>
      <trkpt lat="47.51809" lon="6.71017">
        <ele>398</ele>
        <time>2015-09-27T09:28:18.000Z</time>
      </trkpt>
      <trkpt lat="47.51806" lon="6.71017">
        <ele>398</ele>
        <time>2015-09-27T09:28:20.000Z</time>
      </trkpt>
      <trkpt lat="47.51804" lon="6.71017">
        <ele>398</ele>
        <time>2015-09-27T09:28:21.000Z</time>
      </trkpt>
      <trkpt lat="47.51801" lon="6.71016">
        <ele>398</ele>
        <time>2015-09-27T09:28:22.000Z</time>
      </trkpt>
      <trkpt lat="47.51798" lon="6.71016">
        <ele>398</ele>
        <time>2015-09-27T09:28:23.000Z</time>
      </trkpt>
      <trkpt lat="47.51795" lon="6.71016">
        <ele>398</ele>
        <time>2015-09-27T09:28:24.000Z</time>
      </trkpt>
      <trkpt lat="47.51793" lon="6.71017">
        <ele>398</ele>
        <time>2015-09-27T09:28:25.000Z</time>
      </trkpt>
      <trkpt lat="47.51788" lon="6.71018">
        <ele>399</ele>
        <time>2015-09-27T09:28:27.000Z</time>
      </trkpt>
      <trkpt lat="47.51787" lon="6.71018">
        <ele>399</ele>
        <time>2015-09-27T09:28:28.000Z</time>
      </trkpt>
      <trkpt lat="47.51783" lon="6.71019">
        <ele>399</ele>
        <time>2015-09-27T09:28:31.000Z</time>
      </trkpt>
      <trkpt lat="47.51781" lon="6.71019">
        <ele>399</ele>
        <time>2015-09-27T09:28:32.000Z</time>
      </trkpt>
      <trkpt lat="47.51778" lon="6.7102">
        <ele>399</ele>
        <time>2015-09-27T09:28:35.000Z</time>
      </trkpt>
      <trkpt lat="47.51776" lon="6.71021">
        <ele>399</ele>
        <time>2015-09-27T09:28:36.000Z</time>
      </trkpt>
      <trkpt lat="47.51772" lon="6.71022">
        <ele>399</ele>
        <time>2015-09-27T09:28:38.000Z</time>
      </trkpt>
      <trkpt lat="47.51769" lon="6.71023">
        <ele>399</ele>
        <time>2015-09-27T09:28:39.000Z</time>
      </trkpt>
      <trkpt lat="47.51766" lon="6.71023">
        <ele>399</ele>
        <time>2015-09-27T09:28:40.000Z</time>
      </trkpt>
      <trkpt lat="47.51763" lon="6.71024">
        <ele>399</ele>
        <time>2015-09-27T09:28:41.000Z</time>
      </trkpt>
      <trkpt lat="47.5176" lon="6.71024">
        <ele>399</ele>
        <time>2015-09-27T09:28:42.000Z</time>
      </trkpt>
      <trkpt lat="47.51756" lon="6.71024">
        <ele>399</ele>
        <time>2015-09-27T09:28:43.000Z</time>
      </trkpt>
      <trkpt lat="47.51752" lon="6.71024">
        <ele>399</ele>
        <time>2015-09-27T09:28:44.000Z</time>
      </trkpt>
      <trkpt lat="47.51748" lon="6.71024">
        <ele>404</ele>
        <time>2015-09-27T09:28:45.000Z</time>
      </trkpt>
      <trkpt lat="47.51745" lon="6.71025">
        <ele>404</ele>
        <time>2015-09-27T09:28:46.000Z</time>
      </trkpt>
      <trkpt lat="47.51742" lon="6.71025">
        <ele>404</ele>
        <time>2015-09-27T09:28:47.000Z</time>
      </trkpt>
      <trkpt lat="47.5174" lon="6.71026">
        <ele>405</ele>
        <time>2015-09-27T09:28:48.000Z</time>
      </trkpt>
      <trkpt lat="47.51737" lon="6.71026">
        <ele>405</ele>
        <time>2015-09-27T09:28:49.000Z</time>
      </trkpt>
      <trkpt lat="47.51734" lon="6.71026">
        <ele>405</ele>
        <time>2015-09-27T09:28:49.999Z</time>
      </trkpt>
      <trkpt lat="47.51732" lon="6.71026">
        <ele>405</ele>
        <time>2015-09-27T09:28:50.999Z</time>
      </trkpt>
      <trkpt lat="47.51729" lon="6.71025">
        <ele>406</ele>
        <time>2015-09-27T09:28:52.000Z</time>
      </trkpt>
      <trkpt lat="47.51725" lon="6.71025">
        <ele>406</ele>
        <time>2015-09-27T09:28:53.001Z</time>
      </trkpt>
      <trkpt lat="47.51722" lon="6.71024">
        <ele>406</ele>
        <time>2015-09-27T09:28:54.000Z</time>
      </trkpt>
      <trkpt lat="47.51719" lon="6.71024">
        <ele>407</ele>
        <time>2015-09-27T09:28:55.000Z</time>
      </trkpt>
      <trkpt lat="47.51716" lon="6.71023">
        <ele>407</ele>
        <time>2015-09-27T09:28:56.000Z</time>
      </trkpt>
      <trkpt lat="47.51713" lon="6.71023">
        <ele>407</ele>
        <time>2015-09-27T09:28:57.000Z</time>
      </trkpt>
      <trkpt lat="47.51711" lon="6.71023">
        <ele>408</ele>
        <time>2015-09-27T09:28:58.000Z</time>
      </trkpt>
      <trkpt lat="47.51708" lon="6.71023">
        <ele>408</ele>
        <time>2015-09-27T09:28:59.000Z</time>
      </trkpt>
      <trkpt lat="47.51705" lon="6.71023">
        <ele>408</ele>
        <time>2015-09-27T09:29:00.000Z</time>
      </trkpt>
      <trkpt lat="47.51703" lon="6.71022">
        <ele>409</ele>
        <time>2015-09-27T09:29:01.001Z</time>
      </trkpt>
      <trkpt lat="47.517" lon="6.71022">
        <ele>409</ele>
        <time>2015-09-27T09:29:02.001Z</time>
      </trkpt>
      <trkpt lat="47.51697" lon="6.71022">
        <ele>409</ele>
        <time>2015-09-27T09:29:03.000Z</time>
      </trkpt>
      <trkpt lat="47.51693" lon="6.71021">
        <ele>409</ele>
        <time>2015-09-27T09:29:07.000Z</time>
      </trkpt>
      <trkpt lat="47.51692" lon="6.7102">
        <ele>409</ele>
        <time>2015-09-27T09:29:08.000Z</time>
      </trkpt>
      <trkpt lat="47.51689" lon="6.71018">
        <ele>410</ele>
        <time>2015-09-27T09:29:11.000Z</time>
      </trkpt>
      <trkpt lat="47.51686" lon="6.71017">
        <ele>410</ele>
        <time>2015-09-27T09:29:12.000Z</time>
      </trkpt>
      <trkpt lat="47.51684" lon="6.71016">
        <ele>410</ele>
        <time>2015-09-27T09:29:13.000Z</time>
      </trkpt>
      <trkpt lat="47.51681" lon="6.71015">
        <ele>410</ele>
        <time>2015-09-27T09:29:14.000Z</time>
      </trkpt>
      <trkpt lat="47.51678" lon="6.71014">
        <ele>411</ele>
        <time>2015-09-27T09:29:15.000Z</time>
      </trkpt>
      <trkpt lat="47.51675" lon="6.71013">
        <ele>411</ele>
        <time>2015-09-27T09:29:16.000Z</time>
      </trkpt>
      <trkpt lat="47.51672" lon="6.71012">
        <ele>411</ele>
        <time>2015-09-27T09:29:17.000Z</time>
      </trkpt>
      <trkpt lat="47.51669" lon="6.71011">
        <ele>411</ele>
        <time>2015-09-27T09:29:18.000Z</time>
      </trkpt>
      <trkpt lat="47.51666" lon="6.7101">
        <ele>417</ele>
        <time>2015-09-27T09:29:19.000Z</time>
      </trkpt>
      <trkpt lat="47.51664" lon="6.71008">
        <ele>416</ele>
        <time>2015-09-27T09:29:20.000Z</time>
      </trkpt>
      <trkpt lat="47.5166" lon="6.71007">
        <ele>417</ele>
        <time>2015-09-27T09:29:21.000Z</time>
      </trkpt>
      <trkpt lat="47.51657" lon="6.71006">
        <ele>417</ele>
        <time>2015-09-27T09:29:22.000Z</time>
      </trkpt>
      <trkpt lat="47.51655" lon="6.71005">
        <ele>418</ele>
        <time>2015-09-27T09:29:23.000Z</time>
      </trkpt>
      <trkpt lat="47.51653" lon="6.71004">
        <ele>418</ele>
        <time>2015-09-27T09:29:24.000Z</time>
      </trkpt>
      <trkpt lat="47.5165" lon="6.71">
        <ele>419</ele>
        <time>2015-09-27T09:29:26.000Z</time>
      </trkpt>
      <trkpt lat="47.51649" lon="6.70999">
        <ele>415</ele>
        <time>2015-09-27T09:29:27.000Z</time>
      </trkpt>
      <trkpt lat="47.51645" lon="6.70997">
        <ele>416</ele>
        <time>2015-09-27T09:29:29.000Z</time>
      </trkpt>
      <trkpt lat="47.51643" lon="6.70997">
        <ele>416</ele>
        <time>2015-09-27T09:29:30.000Z</time>
      </trkpt>
      <trkpt lat="47.51641" lon="6.70996">
        <ele>417</ele>
        <time>2015-09-27T09:29:31.000Z</time>
      </trkpt>
      <trkpt lat="47.51638" lon="6.70996">
        <ele>417</ele>
        <time>2015-09-27T09:29:32.000Z</time>
      </trkpt>
      <trkpt lat="47.51634" lon="6.70995">
        <ele>418</ele>
        <time>2015-09-27T09:29:34.000Z</time>
      </trkpt>
      <trkpt lat="47.51632" lon="6.70995">
        <ele>418</ele>
        <time>2015-09-27T09:29:35.000Z</time>
      </trkpt>
      <trkpt lat="47.51628" lon="6.70995">
        <ele>419</ele>
        <time>2015-09-27T09:29:37.000Z</time>
      </trkpt>
      <trkpt lat="47.51626" lon="6.70995">
        <ele>419</ele>
        <time>2015-09-27T09:29:38.000Z</time>
      </trkpt>
      <trkpt lat="47.51623" lon="6.70995">
        <ele>419</ele>
        <time>2015-09-27T09:29:39.000Z</time>
      </trkpt>
      <trkpt lat="47.5162" lon="6.70995">
        <ele>420</ele>
        <time>2015-09-27T09:29:40.000Z</time>
      </trkpt>
      <trkpt lat="47.51617" lon="6.70995">
        <ele>421</ele>
        <time>2015-09-27T09:29:41.000Z</time>
      </trkpt>
      <trkpt lat="47.51615" lon="6.70995">
        <ele>421</ele>
        <time>2015-09-27T09:29:42.000Z</time>
      </trkpt>
      <trkpt lat="47.51613" lon="6.70995">
        <ele>422</ele>
        <time>2015-09-27T09:29:43.000Z</time>
      </trkpt>
      <trkpt lat="47.5161" lon="6.70995">
        <ele>422</ele>
        <time>2015-09-27T09:29:44.000Z</time>
      </trkpt>
      <trkpt lat="47.51607" lon="6.70995">
        <ele>423</ele>
        <time>2015-09-27T09:29:45.000Z</time>
      </trkpt>
      <trkpt lat="47.51605" lon="6.70994">
        <ele>424</ele>
        <time>2015-09-27T09:29:46.000Z</time>
      </trkpt>
      <trkpt lat="47.516" lon="6.70994">
        <ele>425</ele>
        <time>2015-09-27T09:29:48.000Z</time>
      </trkpt>
      <trkpt lat="47.51598" lon="6.70993">
        <ele>425</ele>
        <time>2015-09-27T09:29:49.000Z</time>
      </trkpt>
      <trkpt lat="47.51594" lon="6.70992">
        <ele>426</ele>
        <time>2015-09-27T09:29:51.000Z</time>
      </trkpt>
      <trkpt lat="47.51591" lon="6.70991">
        <ele>427</ele>
        <time>2015-09-27T09:29:52.000Z</time>
      </trkpt>
      <trkpt lat="47.51588" lon="6.70991">
        <ele>428</ele>
        <time>2015-09-27T09:29:54.000Z</time>
      </trkpt>
      <trkpt lat="47.51586" lon="6.70991">
        <ele>428</ele>
        <time>2015-09-27T09:29:55.000Z</time>
      </trkpt>
      <trkpt lat="47.51582" lon="6.7099">
        <ele>433</ele>
        <time>2015-09-27T09:29:57.000Z</time>
      </trkpt>
      <trkpt lat="47.5158" lon="6.7099">
        <ele>433</ele>
        <time>2015-09-27T09:29:58.000Z</time>
      </trkpt>
      <trkpt lat="47.51578" lon="6.7099">
        <ele>433</ele>
        <time>2015-09-27T09:29:59.000Z</time>
      </trkpt>
      <trkpt lat="47.51575" lon="6.7099">
        <ele>433</ele>
        <time>2015-09-27T09:30:00.000Z</time>
      </trkpt>
      <trkpt lat="47.51571" lon="6.7099">
        <ele>433</ele>
        <time>2015-09-27T09:30:02.000Z</time>
      </trkpt>
      <trkpt lat="47.51568" lon="6.7099">
        <ele>433</ele>
        <time>2015-09-27T09:30:03.000Z</time>
      </trkpt>
      <trkpt lat="47.51565" lon="6.70989">
        <ele>433</ele>
        <time>2015-09-27T09:30:04.000Z</time>
      </trkpt>
      <trkpt lat="47.51562" lon="6.70989">
        <ele>433</ele>
        <time>2015-09-27T09:30:05.000Z</time>
      </trkpt>
      <trkpt lat="47.51559" lon="6.70989">
        <ele>433</ele>
        <time>2015-09-27T09:30:06.000Z</time>
      </trkpt>
      <trkpt lat="47.51556" lon="6.70988">
        <ele>433</ele>
        <time>2015-09-27T09:30:07.000Z</time>
      </trkpt>
      <trkpt lat="47.51551" lon="6.70988">
        <ele>433</ele>
        <time>2015-09-27T09:30:09.000Z</time>
      </trkpt>
      <trkpt lat="47.51549" lon="6.70987">
        <ele>434</ele>
        <time>2015-09-27T09:30:10.000Z</time>
      </trkpt>
      <trkpt lat="47.51546" lon="6.70986">
        <ele>434</ele>
        <time>2015-09-27T09:30:12.000Z</time>
      </trkpt>
      <trkpt lat="47.51544" lon="6.70985">
        <ele>434</ele>
        <time>2015-09-27T09:30:13.000Z</time>
      </trkpt>
      <trkpt lat="47.51541" lon="6.70985">
        <ele>434</ele>
        <time>2015-09-27T09:30:14.000Z</time>
      </trkpt>
      <trkpt lat="47.51539" lon="6.70984">
        <ele>434</ele>
        <time>2015-09-27T09:30:15.000Z</time>
      </trkpt>
      <trkpt lat="47.51535" lon="6.70982">
        <ele>435</ele>
        <time>2015-09-27T09:30:17.000Z</time>
      </trkpt>
      <trkpt lat="47.51533" lon="6.70981">
        <ele>435</ele>
        <time>2015-09-27T09:30:18.000Z</time>
      </trkpt>
      <trkpt lat="47.5153" lon="6.70979">
        <ele>435</ele>
        <time>2015-09-27T09:30:20.000Z</time>
      </trkpt>
      <trkpt lat="47.51527" lon="6.70979">
        <ele>435</ele>
        <time>2015-09-27T09:30:21.000Z</time>
      </trkpt>
      <trkpt lat="47.51524" lon="6.70978">
        <ele>435</ele>
        <time>2015-09-27T09:30:22.000Z</time>
      </trkpt>
      <trkpt lat="47.51521" lon="6.70978">
        <ele>436</ele>
        <time>2015-09-27T09:30:23.000Z</time>
      </trkpt>
      <trkpt lat="47.51518" lon="6.70977">
        <ele>436</ele>
        <time>2015-09-27T09:30:24.000Z</time>
      </trkpt>
      <trkpt lat="47.51515" lon="6.70976">
        <ele>436</ele>
        <time>2015-09-27T09:30:25.000Z</time>
      </trkpt>
      <trkpt lat="47.51512" lon="6.70976">
        <ele>436</ele>
        <time>2015-09-27T09:30:26.000Z</time>
      </trkpt>
      <trkpt lat="47.51509" lon="6.70975">
        <ele>436</ele>
        <time>2015-09-27T09:30:27.000Z</time>
      </trkpt>
      <trkpt lat="47.51506" lon="6.70973">
        <ele>436</ele>
        <time>2015-09-27T09:30:28.000Z</time>
      </trkpt>
      <trkpt lat="47.51503" lon="6.70972">
        <ele>436</ele>
        <time>2015-09-27T09:30:29.000Z</time>
      </trkpt>
      <trkpt lat="47.51501" lon="6.7097">
        <ele>436</ele>
        <time>2015-09-27T09:30:30.000Z</time>
      </trkpt>
      <trkpt lat="47.51499" lon="6.70969">
        <ele>443</ele>
        <time>2015-09-27T09:30:31.000Z</time>
      </trkpt>
      <trkpt lat="47.51495" lon="6.70967">
        <ele>443</ele>
        <time>2015-09-27T09:30:33.000Z</time>
      </trkpt>
      <trkpt lat="47.51494" lon="6.70966">
        <ele>443</ele>
        <time>2015-09-27T09:30:34.000Z</time>
      </trkpt>
      <trkpt lat="47.5149" lon="6.70965">
        <ele>443</ele>
        <time>2015-09-27T09:30:36.000Z</time>
      </trkpt>
      <trkpt lat="47.51488" lon="6.70964">
        <ele>443</ele>
        <time>2015-09-27T09:30:37.000Z</time>
      </trkpt>
      <trkpt lat="47.51486" lon="6.70963">
        <ele>443</ele>
        <time>2015-09-27T09:30:38.000Z</time>
      </trkpt>
      <trkpt lat="47.51483" lon="6.70962">
        <ele>443</ele>
        <time>2015-09-27T09:30:39.000Z</time>
      </trkpt>
      <trkpt lat="47.5148" lon="6.70961">
        <ele>443</ele>
        <time>2015-09-27T09:30:40.000Z</time>
      </trkpt>
      <trkpt lat="47.51477" lon="6.70961">
        <ele>443</ele>
        <time>2015-09-27T09:30:41.000Z</time>
      </trkpt>
      <trkpt lat="47.51474" lon="6.7096">
        <ele>444</ele>
        <time>2015-09-27T09:30:42.000Z</time>
      </trkpt>
      <trkpt lat="47.51471" lon="6.7096">
        <ele>444</ele>
        <time>2015-09-27T09:30:43.000Z</time>
      </trkpt>
      <trkpt lat="47.51468" lon="6.7096">
        <ele>444</ele>
        <time>2015-09-27T09:30:44.000Z</time>
      </trkpt>
      <trkpt lat="47.51464" lon="6.70959">
        <ele>444</ele>
        <time>2015-09-27T09:30:45.000Z</time>
      </trkpt>
      <trkpt lat="47.51461" lon="6.70959">
        <ele>444</ele>
        <time>2015-09-27T09:30:46.000Z</time>
      </trkpt>
      <trkpt lat="47.51458" lon="6.70957">
        <ele>444</ele>
        <time>2015-09-27T09:30:47.000Z</time>
      </trkpt>
      <trkpt lat="47.51455" lon="6.70956">
        <ele>445</ele>
        <time>2015-09-27T09:30:48.000Z</time>
      </trkpt>
      <trkpt lat="47.51453" lon="6.70955">
        <ele>445</ele>
        <time>2015-09-27T09:30:49.000Z</time>
      </trkpt>
      <trkpt lat="47.5145" lon="6.70954">
        <ele>445</ele>
        <time>2015-09-27T09:30:50.000Z</time>
      </trkpt>
      <trkpt lat="47.51448" lon="6.70954">
        <ele>445</ele>
        <time>2015-09-27T09:30:51.000Z</time>
      </trkpt>
      <trkpt lat="47.51444" lon="6.70954">
        <ele>445</ele>
        <time>2015-09-27T09:30:53.000Z</time>
      </trkpt>
      <trkpt lat="47.51442" lon="6.70954">
        <ele>445</ele>
        <time>2015-09-27T09:30:54.000Z</time>
      </trkpt>
      <trkpt lat="47.51439" lon="6.70954">
        <ele>446</ele>
        <time>2015-09-27T09:30:56.000Z</time>
      </trkpt>
      <trkpt lat="47.51437" lon="6.70953">
        <ele>446</ele>
        <time>2015-09-27T09:30:57.000Z</time>
      </trkpt>
      <trkpt lat="47.51434" lon="6.70952">
        <ele>446</ele>
        <time>2015-09-27T09:30:59.000Z</time>
      </trkpt>
      <trkpt lat="47.51433" lon="6.70952">
        <ele>446</ele>
        <time>2015-09-27T09:31:00.000Z</time>
      </trkpt>
      <trkpt lat="47.5143" lon="6.7095">
        <ele>446</ele>
        <time>2015-09-27T09:31:02.000Z</time>
      </trkpt>
      <trkpt lat="47.51428" lon="6.70949">
        <ele>446</ele>
        <time>2015-09-27T09:31:03.000Z</time>
      </trkpt>
      <trkpt lat="47.51424" lon="6.70949">
        <ele>446</ele>
        <time>2015-09-27T09:31:05.000Z</time>
      </trkpt>
      <trkpt lat="47.51422" lon="6.70949">
        <ele>446</ele>
        <time>2015-09-27T09:31:06.000Z</time>
      </trkpt>
      <trkpt lat="47.51417" lon="6.70948">
        <ele>447</ele>
        <time>2015-09-27T09:31:08.000Z</time>
      </trkpt>
      <trkpt lat="47.51416" lon="6.70948">
        <ele>453</ele>
        <time>2015-09-27T09:31:09.000Z</time>
      </trkpt>
      <trkpt lat="47.51412" lon="6.70947">
        <ele>453</ele>
        <time>2015-09-27T09:31:13.000Z</time>
      </trkpt>
      <trkpt lat="47.5141" lon="6.70947">
        <ele>453</ele>
        <time>2015-09-27T09:31:14.000Z</time>
      </trkpt>
      <trkpt lat="47.51407" lon="6.70947">
        <ele>453</ele>
        <time>2015-09-27T09:31:16.000Z</time>
      </trkpt>
      <trkpt lat="47.51405" lon="6.70947">
        <ele>453</ele>
        <time>2015-09-27T09:31:17.000Z</time>
      </trkpt>
      <trkpt lat="47.51403" lon="6.70946">
        <ele>453</ele>
        <time>2015-09-27T09:31:18.000Z</time>
      </trkpt>
      <trkpt lat="47.514" lon="6.70946">
        <ele>453</ele>
        <time>2015-09-27T09:31:19.000Z</time>
      </trkpt>
      <trkpt lat="47.51397" lon="6.70945">
        <ele>453</ele>
        <time>2015-09-27T09:31:20.000Z</time>
      </trkpt>
      <trkpt lat="47.51395" lon="6.70944">
        <ele>453</ele>
        <time>2015-09-27T09:31:21.000Z</time>
      </trkpt>
      <trkpt lat="47.51392" lon="6.70944">
        <ele>453</ele>
        <time>2015-09-27T09:31:22.000Z</time>
      </trkpt>
      <trkpt lat="47.5139" lon="6.70943">
        <ele>453</ele>
        <time>2015-09-27T09:31:23.000Z</time>
      </trkpt>
      <trkpt lat="47.51386" lon="6.70942">
        <ele>454</ele>
        <time>2015-09-27T09:31:25.000Z</time>
      </trkpt>
      <trkpt lat="47.51383" lon="6.70941">
        <ele>454</ele>
        <time>2015-09-27T09:31:26.000Z</time>
      </trkpt>
      <trkpt lat="47.51381" lon="6.7094">
        <ele>454</ele>
        <time>2015-09-27T09:31:27.000Z</time>
      </trkpt>
      <trkpt lat="47.51379" lon="6.70939">
        <ele>454</ele>
        <time>2015-09-27T09:31:28.000Z</time>
      </trkpt>
      <trkpt lat="47.51376" lon="6.70938">
        <ele>454</ele>
        <time>2015-09-27T09:31:29.000Z</time>
      </trkpt>
      <trkpt lat="47.51373" lon="6.70937">
        <ele>454</ele>
        <time>2015-09-27T09:31:30.000Z</time>
      </trkpt>
      <trkpt lat="47.5137" lon="6.70936">
        <ele>454</ele>
        <time>2015-09-27T09:31:31.000Z</time>
      </trkpt>
      <trkpt lat="47.51368" lon="6.70936">
        <ele>455</ele>
        <time>2015-09-27T09:31:32.000Z</time>
      </trkpt>
      <trkpt lat="47.51364" lon="6.70935">
        <ele>455</ele>
        <time>2015-09-27T09:31:34.000Z</time>
      </trkpt>
      <trkpt lat="47.51362" lon="6.70934">
        <ele>455</ele>
        <time>2015-09-27T09:31:35.000Z</time>
      </trkpt>
      <trkpt lat="47.51357" lon="6.70934">
        <ele>455</ele>
        <time>2015-09-27T09:31:37.000Z</time>
      </trkpt>
      <trkpt lat="47.51355" lon="6.70933">
        <ele>455</ele>
        <time>2015-09-27T09:31:38.000Z</time>
      </trkpt>
      <trkpt lat="47.51351" lon="6.70932">
        <ele>455</ele>
        <time>2015-09-27T09:31:40.000Z</time>
      </trkpt>
      <trkpt lat="47.51349" lon="6.70931">
        <ele>456</ele>
        <time>2015-09-27T09:31:41.000Z</time>
      </trkpt>
      <trkpt lat="47.51346" lon="6.70929">
        <ele>456</ele>
        <time>2015-09-27T09:31:43.000Z</time>
      </trkpt>
      <trkpt lat="47.51344" lon="6.70927">
        <ele>456</ele>
        <time>2015-09-27T09:31:44.000Z</time>
      </trkpt>
      <trkpt lat="47.51341" lon="6.70926">
        <ele>456</ele>
        <time>2015-09-27T09:31:46.000Z</time>
      </trkpt>
      <trkpt lat="47.51339" lon="6.70925">
        <ele>456</ele>
        <time>2015-09-27T09:31:47.000Z</time>
      </trkpt>
      <trkpt lat="47.51337" lon="6.70923">
        <ele>456</ele>
        <time>2015-09-27T09:31:49.000Z</time>
      </trkpt>
      <trkpt lat="47.51335" lon="6.70923">
        <ele>456</ele>
        <time>2015-09-27T09:31:50.000Z</time>
      </trkpt>
      <trkpt lat="47.51333" lon="6.70923">
        <ele>457</ele>
        <time>2015-09-27T09:31:51.000Z</time>
      </trkpt>
      <trkpt lat="47.5133" lon="6.70923">
        <ele>457</ele>
        <time>2015-09-27T09:31:52.000Z</time>
      </trkpt>
      <trkpt lat="47.51327" lon="6.70922">
        <ele>457</ele>
        <time>2015-09-27T09:31:53.000Z</time>
      </trkpt>
      <trkpt lat="47.51325" lon="6.70921">
        <ele>456</ele>
        <time>2015-09-27T09:31:54.000Z</time>
      </trkpt>
      <trkpt lat="47.51323" lon="6.7092">
        <ele>456</ele>
        <time>2015-09-27T09:31:55.000Z</time>
      </trkpt>
      <trkpt lat="47.5132" lon="6.70919">
        <ele>456</ele>
        <time>2015-09-27T09:31:56.000Z</time>
      </trkpt>
      <trkpt lat="47.51318" lon="6.70919">
        <ele>456</ele>
        <time>2015-09-27T09:31:57.000Z</time>
      </trkpt>
      <trkpt lat="47.51315" lon="6.70918">
        <ele>456</ele>
        <time>2015-09-27T09:31:58.000Z</time>
      </trkpt>
      <trkpt lat="47.51312" lon="6.70917">
        <ele>456</ele>
        <time>2015-09-27T09:31:59.000Z</time>
      </trkpt>
      <trkpt lat="47.51309" lon="6.70916">
        <ele>454</ele>
        <time>2015-09-27T09:32:00.000Z</time>
      </trkpt>
      <trkpt lat="47.51305" lon="6.70916">
        <ele>454</ele>
        <time>2015-09-27T09:32:02.000Z</time>
      </trkpt>
      <trkpt lat="47.51303" lon="6.70917">
        <ele>455</ele>
        <time>2015-09-27T09:32:03.000Z</time>
      </trkpt>
      <trkpt lat="47.51299" lon="6.70919">
        <ele>455</ele>
        <time>2015-09-27T09:32:05.000Z</time>
      </trkpt>
      <trkpt lat="47.51298" lon="6.70921">
        <ele>455</ele>
        <time>2015-09-27T09:32:06.000Z</time>
      </trkpt>
      <trkpt lat="47.51294" lon="6.70923">
        <ele>455</ele>
        <time>2015-09-27T09:32:09.000Z</time>
      </trkpt>
      <trkpt lat="47.51293" lon="6.70923">
        <ele>455</ele>
        <time>2015-09-27T09:32:10.000Z</time>
      </trkpt>
      <trkpt lat="47.5129" lon="6.70922">
        <ele>455</ele>
        <time>2015-09-27T09:32:14.000Z</time>
      </trkpt>
      <trkpt lat="47.51288" lon="6.70923">
        <ele>455</ele>
        <time>2015-09-27T09:32:15.000Z</time>
      </trkpt>
      <trkpt lat="47.51284" lon="6.70926">
        <ele>454</ele>
        <time>2015-09-27T09:32:20.000Z</time>
      </trkpt>
      <trkpt lat="47.51284" lon="6.70926">
        <ele>454</ele>
        <time>2015-09-27T09:32:21.000Z</time>
      </trkpt>
      <trkpt lat="47.51287" lon="6.70924">
        <ele>455</ele>
        <time>2015-09-27T09:32:26.000Z</time>
      </trkpt>
      <trkpt lat="47.51288" lon="6.70922">
        <ele>455</ele>
        <time>2015-09-27T09:32:27.000Z</time>
      </trkpt>
      <trkpt lat="47.51291" lon="6.70919">
        <ele>455</ele>
        <time>2015-09-27T09:32:29.000Z</time>
      </trkpt>
      <trkpt lat="47.51292" lon="6.70917">
        <ele>455</ele>
        <time>2015-09-27T09:32:30.000Z</time>
      </trkpt>
      <trkpt lat="47.51296" lon="6.7092">
        <ele>455</ele>
        <time>2015-09-27T09:32:36.000Z</time>
      </trkpt>
      <trkpt lat="47.51297" lon="6.70921">
        <ele>455</ele>
        <time>2015-09-27T09:32:37.000Z</time>
      </trkpt>
      <trkpt lat="47.51298" lon="6.70926">
        <ele>455</ele>
        <time>2015-09-27T09:32:40.000Z</time>
      </trkpt>
      <trkpt lat="47.51298" lon="6.70928">
        <ele>455</ele>
        <time>2015-09-27T09:32:41.000Z</time>
      </trkpt>
      <trkpt lat="47.51297" lon="6.70932">
        <ele>455</ele>
        <time>2015-09-27T09:32:43.000Z</time>
      </trkpt>
      <trkpt lat="47.51296" lon="6.70934">
        <ele>455</ele>
        <time>2015-09-27T09:32:44.000Z</time>
      </trkpt>
      <trkpt lat="47.51294" lon="6.70937">
        <ele>455</ele>
        <time>2015-09-27T09:32:46.000Z</time>
      </trkpt>
      <trkpt lat="47.51293" lon="6.70939">
        <ele>455</ele>
        <time>2015-09-27T09:32:47.000Z</time>
      </trkpt>
      <trkpt lat="47.5129" lon="6.7094">
        <ele>455</ele>
        <time>2015-09-27T09:32:50.000Z</time>
      </trkpt>
      <trkpt lat="47.51289" lon="6.70939">
        <ele>455</ele>
        <time>2015-09-27T09:32:51.000Z</time>
      </trkpt>
      <trkpt lat="47.51286" lon="6.70937">
        <ele>455</ele>
        <time>2015-09-27T09:32:53.000Z</time>
      </trkpt>
      <trkpt lat="47.51284" lon="6.70937">
        <ele>455</ele>
        <time>2015-09-27T09:32:54.000Z</time>
      </trkpt>
      <trkpt lat="47.51281" lon="6.70932">
        <ele>454</ele>
        <time>2015-09-27T09:33:06.000Z</time>
      </trkpt>
      <trkpt lat="47.51281" lon="6.70932">
        <ele>454</ele>
        <time>2015-09-27T09:33:07.000Z</time>
      </trkpt>
      <trkpt lat="47.51281" lon="6.70926">
        <ele>454</ele>
        <time>2015-09-27T09:33:13.000Z</time>
      </trkpt>
      <trkpt lat="47.51281" lon="6.70925">
        <ele>454</ele>
        <time>2015-09-27T09:33:14.000Z</time>
      </trkpt>
      <trkpt lat="47.51279" lon="6.70919">
        <ele>454</ele>
        <time>2015-09-27T09:33:24.000Z</time>
      </trkpt>
      <trkpt lat="47.51279" lon="6.70917">
        <ele>454</ele>
        <time>2015-09-27T09:33:25.000Z</time>
      </trkpt>
      <trkpt lat="47.51279" lon="6.70912">
        <ele>452</ele>
        <time>2015-09-27T09:33:27.000Z</time>
      </trkpt>
      <trkpt lat="47.51279" lon="6.7091">
        <ele>452</ele>
        <time>2015-09-27T09:33:28.000Z</time>
      </trkpt>
      <trkpt lat="47.51276" lon="6.70906">
        <ele>452</ele>
        <time>2015-09-27T09:33:32.000Z</time>
      </trkpt>
      <trkpt lat="47.51274" lon="6.70906">
        <ele>452</ele>
        <time>2015-09-27T09:33:33.000Z</time>
      </trkpt>
      <trkpt lat="47.51271" lon="6.70906">
        <ele>452</ele>
        <time>2015-09-27T09:33:36.000Z</time>
      </trkpt>
      <trkpt lat="47.5127" lon="6.70907">
        <ele>452</ele>
        <time>2015-09-27T09:33:37.000Z</time>
      </trkpt>
      <trkpt lat="47.51266" lon="6.70911">
        <ele>452</ele>
        <time>2015-09-27T09:33:43.000Z</time>
      </trkpt>
      <trkpt lat="47.51266" lon="6.70912">
        <ele>452</ele>
        <time>2015-09-27T09:33:44.000Z</time>
      </trkpt>
      <trkpt lat="47.5127" lon="6.70911">
        <ele>452</ele>
        <time>2015-09-27T09:35:25.000Z</time>
      </trkpt>
      <trkpt lat="47.51271" lon="6.70911">
        <ele>452</ele>
        <time>2015-09-27T09:35:26.000Z</time>
      </trkpt>
      <trkpt lat="47.51275" lon="6.7091">
        <ele>452</ele>
        <time>2015-09-27T09:35:33.000Z</time>
      </trkpt>
      <trkpt lat="47.51275" lon="6.7091">
        <ele>452</ele>
        <time>2015-09-27T09:35:34.000Z</time>
      </trkpt>
      <trkpt lat="47.51278" lon="6.70914">
        <ele>452</ele>
        <time>2015-09-27T09:37:46.000Z</time>
      </trkpt>
      <trkpt lat="47.51278" lon="6.70916">
        <ele>452</ele>
        <time>2015-09-27T09:37:47.000Z</time>
      </trkpt>
      <trkpt lat="47.51277" lon="6.70922">
        <ele>454</ele>
        <time>2015-09-27T09:37:49.000Z</time>
      </trkpt>
      <trkpt lat="47.51277" lon="6.70925">
        <ele>454</ele>
        <time>2015-09-27T09:37:50.000Z</time>
      </trkpt>
      <trkpt lat="47.51275" lon="6.70931">
        <ele>454</ele>
        <time>2015-09-27T09:37:52.000Z</time>
      </trkpt>
      <trkpt lat="47.51275" lon="6.70934">
        <ele>454</ele>
        <time>2015-09-27T09:37:53.000Z</time>
      </trkpt>
      <trkpt lat="47.51274" lon="6.7094">
        <ele>454</ele>
        <time>2015-09-27T09:37:55.000Z</time>
      </trkpt>
      <trkpt lat="47.51274" lon="6.70942">
        <ele>454</ele>
        <time>2015-09-27T09:37:56.000Z</time>
      </trkpt>
      <trkpt lat="47.51273" lon="6.70947">
        <ele>454</ele>
        <time>2015-09-27T09:37:58.000Z</time>
      </trkpt>
      <trkpt lat="47.51274" lon="6.7095">
        <ele>454</ele>
        <time>2015-09-27T09:37:59.000Z</time>
      </trkpt>
      <trkpt lat="47.51274" lon="6.70954">
        <ele>455</ele>
        <time>2015-09-27T09:38:00.000Z</time>
      </trkpt>
      <trkpt lat="47.51275" lon="6.70958">
        <ele>455</ele>
        <time>2015-09-27T09:38:01.000Z</time>
      </trkpt>
      <trkpt lat="47.51275" lon="6.70962">
        <ele>455</ele>
        <time>2015-09-27T09:38:02.000Z</time>
      </trkpt>
      <trkpt lat="47.51275" lon="6.70967">
        <ele>455</ele>
        <time>2015-09-27T09:38:03.000Z</time>
      </trkpt>
      <trkpt lat="47.51275" lon="6.70971">
        <ele>455</ele>
        <time>2015-09-27T09:38:04.000Z</time>
      </trkpt>
      <trkpt lat="47.51274" lon="6.70975">
        <ele>455</ele>
        <time>2015-09-27T09:38:05.000Z</time>
      </trkpt>
      <trkpt lat="47.51274" lon="6.70979">
        <ele>455</ele>
        <time>2015-09-27T09:38:06.000Z</time>
      </trkpt>
      <trkpt lat="47.51273" lon="6.70983">
        <ele>455</ele>
        <time>2015-09-27T09:38:07.000Z</time>
      </trkpt>
      <trkpt lat="47.51272" lon="6.70988">
        <ele>455</ele>
        <time>2015-09-27T09:38:08.000Z</time>
      </trkpt>
      <trkpt lat="47.51271" lon="6.70993">
        <ele>455</ele>
        <time>2015-09-27T09:38:09.000Z</time>
      </trkpt>
      <trkpt lat="47.51271" lon="6.70998">
        <ele>454</ele>
        <time>2015-09-27T09:38:10.000Z</time>
      </trkpt>
      <trkpt lat="47.5127" lon="6.71001">
        <ele>456</ele>
        <time>2015-09-27T09:38:11.000Z</time>
      </trkpt>
      <trkpt lat="47.5127" lon="6.71005">
        <ele>456</ele>
        <time>2015-09-27T09:38:12.000Z</time>
      </trkpt>
      <trkpt lat="47.51271" lon="6.71008">
        <ele>456</ele>
        <time>2015-09-27T09:38:13.000Z</time>
      </trkpt>
      <trkpt lat="47.51271" lon="6.71012">
        <ele>456</ele>
        <time>2015-09-27T09:38:14.000Z</time>
      </trkpt>
      <trkpt lat="47.51271" lon="6.71016">
        <ele>456</ele>
        <time>2015-09-27T09:38:15.000Z</time>
      </trkpt>
      <trkpt lat="47.51271" lon="6.7102">
        <ele>456</ele>
        <time>2015-09-27T09:38:16.000Z</time>
      </trkpt>
      <trkpt lat="47.51271" lon="6.71024">
        <ele>456</ele>
        <time>2015-09-27T09:38:17.000Z</time>
      </trkpt>
      <trkpt lat="47.51271" lon="6.71029">
        <ele>457</ele>
        <time>2015-09-27T09:38:18.000Z</time>
      </trkpt>
      <trkpt lat="47.5127" lon="6.71033">
        <ele>457</ele>
        <time>2015-09-27T09:38:19.000Z</time>
      </trkpt>
      <trkpt lat="47.5127" lon="6.71038">
        <ele>457</ele>
        <time>2015-09-27T09:38:20.000Z</time>
      </trkpt>
      <trkpt lat="47.5127" lon="6.71044">
        <ele>457</ele>
        <time>2015-09-27T09:38:21.000Z</time>
      </trkpt>
      <trkpt lat="47.5127" lon="6.71049">
        <ele>457</ele>
        <time>2015-09-27T09:38:22.000Z</time>
      </trkpt>
      <trkpt lat="47.51271" lon="6.71055">
        <ele>457</ele>
        <time>2015-09-27T09:38:23.000Z</time>
      </trkpt>
      <trkpt lat="47.51271" lon="6.71061">
        <ele>457</ele>
        <time>2015-09-27T09:38:24.000Z</time>
      </trkpt>
      <trkpt lat="47.51271" lon="6.71067">
        <ele>457</ele>
        <time>2015-09-27T09:38:25.000Z</time>
      </trkpt>
      <trkpt lat="47.51272" lon="6.71074">
        <ele>457</ele>
        <time>2015-09-27T09:38:26.000Z</time>
      </trkpt>
      <trkpt lat="47.51272" lon="6.71082">
        <ele>457</ele>
        <time>2015-09-27T09:38:27.000Z</time>
      </trkpt>
      <trkpt lat="47.51272" lon="6.7109">
        <ele>458</ele>
        <time>2015-09-27T09:38:28.000Z</time>
      </trkpt>
      <trkpt lat="47.51272" lon="6.71097">
        <ele>458</ele>
        <time>2015-09-27T09:38:29.000Z</time>
      </trkpt>
      <trkpt lat="47.51272" lon="6.71104">
        <ele>458</ele>
        <time>2015-09-27T09:38:30.000Z</time>
      </trkpt>
      <trkpt lat="47.51273" lon="6.71111">
        <ele>458</ele>
        <time>2015-09-27T09:38:31.000Z</time>
      </trkpt>
      <trkpt lat="47.51273" lon="6.71118">
        <ele>458</ele>
        <time>2015-09-27T09:38:32.000Z</time>
      </trkpt>
      <trkpt lat="47.51274" lon="6.71126">
        <ele>458</ele>
        <time>2015-09-27T09:38:33.000Z</time>
      </trkpt>
      <trkpt lat="47.51274" lon="6.71134">
        <ele>458</ele>
        <time>2015-09-27T09:38:34.000Z</time>
      </trkpt>
      <trkpt lat="47.51274" lon="6.71142">
        <ele>457</ele>
        <time>2015-09-27T09:38:35.000Z</time>
      </trkpt>
      <trkpt lat="47.51273" lon="6.7115">
        <ele>457</ele>
        <time>2015-09-27T09:38:36.000Z</time>
      </trkpt>
      <trkpt lat="47.51273" lon="6.71157">
        <ele>457</ele>
        <time>2015-09-27T09:38:37.000Z</time>
      </trkpt>
      <trkpt lat="47.51272" lon="6.71164">
        <ele>457</ele>
        <time>2015-09-27T09:38:38.000Z</time>
      </trkpt>
      <trkpt lat="47.51272" lon="6.71171">
        <ele>457</ele>
        <time>2015-09-27T09:38:39.000Z</time>
      </trkpt>
      <trkpt lat="47.51271" lon="6.71178">
        <ele>457</ele>
        <time>2015-09-27T09:38:40.000Z</time>
      </trkpt>
      <trkpt lat="47.51271" lon="6.71185">
        <ele>457</ele>
        <time>2015-09-27T09:38:41.000Z</time>
      </trkpt>
      <trkpt lat="47.5127" lon="6.71193">
        <ele>457</ele>
        <time>2015-09-27T09:38:42.000Z</time>
      </trkpt>
      <trkpt lat="47.51269" lon="6.71201">
        <ele>457</ele>
        <time>2015-09-27T09:38:43.000Z</time>
      </trkpt>
      <trkpt lat="47.51268" lon="6.71209">
        <ele>457</ele>
        <time>2015-09-27T09:38:44.000Z</time>
      </trkpt>
      <trkpt lat="47.51268" lon="6.71218">
        <ele>458</ele>
        <time>2015-09-27T09:38:45.000Z</time>
      </trkpt>
      <trkpt lat="47.51269" lon="6.71243">
        <ele>458</ele>
        <time>2015-09-27T09:38:46.000Z</time>
      </trkpt>
      <trkpt lat="47.51268" lon="6.71249">
        <ele>458</ele>
        <time>2015-09-27T09:38:47.000Z</time>
      </trkpt>
      <trkpt lat="47.51266" lon="6.71257">
        <ele>457</ele>
        <time>2015-09-27T09:38:48.000Z</time>
      </trkpt>
      <trkpt lat="47.51265" lon="6.71264">
        <ele>457</ele>
        <time>2015-09-27T09:38:49.000Z</time>
      </trkpt>
      <trkpt lat="47.51264" lon="6.71273">
        <ele>457</ele>
        <time>2015-09-27T09:38:50.000Z</time>
      </trkpt>
      <trkpt lat="47.51264" lon="6.71281">
        <ele>457</ele>
        <time>2015-09-27T09:38:51.000Z</time>
      </trkpt>
      <trkpt lat="47.51264" lon="6.7129">
        <ele>457</ele>
        <time>2015-09-27T09:38:52.000Z</time>
      </trkpt>
      <trkpt lat="47.51263" lon="6.71298">
        <ele>457</ele>
        <time>2015-09-27T09:38:53.000Z</time>
      </trkpt>
      <trkpt lat="47.51262" lon="6.71307">
        <ele>457</ele>
        <time>2015-09-27T09:38:54.000Z</time>
      </trkpt>
      <trkpt lat="47.51259" lon="6.71316">
        <ele>457</ele>
        <time>2015-09-27T09:38:55.000Z</time>
      </trkpt>
      <trkpt lat="47.51258" lon="6.71328">
        <ele>456</ele>
        <time>2015-09-27T09:38:56.000Z</time>
      </trkpt>
      <trkpt lat="47.51257" lon="6.71335">
        <ele>456</ele>
        <time>2015-09-27T09:38:57.000Z</time>
      </trkpt>
      <trkpt lat="47.51257" lon="6.71342">
        <ele>456</ele>
        <time>2015-09-27T09:38:58.000Z</time>
      </trkpt>
      <trkpt lat="47.51254" lon="6.71347">
        <ele>456</ele>
        <time>2015-09-27T09:38:59.000Z</time>
      </trkpt>
      <trkpt lat="47.51253" lon="6.71355">
        <ele>456</ele>
        <time>2015-09-27T09:39:00.000Z</time>
      </trkpt>
      <trkpt lat="47.51253" lon="6.71363">
        <ele>455</ele>
        <time>2015-09-27T09:39:01.000Z</time>
      </trkpt>
      <trkpt lat="47.51253" lon="6.71367">
        <ele>455</ele>
        <time>2015-09-27T09:39:02.000Z</time>
      </trkpt>
      <trkpt lat="47.51253" lon="6.71373">
        <ele>455</ele>
        <time>2015-09-27T09:39:03.000Z</time>
      </trkpt>
      <trkpt lat="47.51253" lon="6.7138">
        <ele>455</ele>
        <time>2015-09-27T09:39:04.000Z</time>
      </trkpt>
      <trkpt lat="47.51252" lon="6.71385">
        <ele>455</ele>
        <time>2015-09-27T09:39:05.000Z</time>
      </trkpt>
      <trkpt lat="47.51252" lon="6.7139">
        <ele>455</ele>
        <time>2015-09-27T09:39:06.000Z</time>
      </trkpt>
      <trkpt lat="47.51252" lon="6.71396">
        <ele>455</ele>
        <time>2015-09-27T09:39:07.000Z</time>
      </trkpt>
      <trkpt lat="47.51252" lon="6.71401">
        <ele>455</ele>
        <time>2015-09-27T09:39:08.000Z</time>
      </trkpt>
      <trkpt lat="47.51252" lon="6.71406">
        <ele>455</ele>
        <time>2015-09-27T09:39:09.000Z</time>
      </trkpt>
      <trkpt lat="47.51252" lon="6.71411">
        <ele>455</ele>
        <time>2015-09-27T09:39:10.000Z</time>
      </trkpt>
      <trkpt lat="47.51252" lon="6.71416">
        <ele>455</ele>
        <time>2015-09-27T09:39:11.000Z</time>
      </trkpt>
      <trkpt lat="47.51252" lon="6.71421">
        <ele>455</ele>
        <time>2015-09-27T09:39:12.000Z</time>
      </trkpt>
      <trkpt lat="47.51252" lon="6.71427">
        <ele>455</ele>
        <time>2015-09-27T09:39:13.000Z</time>
      </trkpt>
      <trkpt lat="47.51252" lon="6.71432">
        <ele>455</ele>
        <time>2015-09-27T09:39:14.000Z</time>
      </trkpt>
      <trkpt lat="47.51252" lon="6.71439">
        <ele>455</ele>
        <time>2015-09-27T09:39:15.000Z</time>
      </trkpt>
      <trkpt lat="47.51252" lon="6.71445">
        <ele>455</ele>
        <time>2015-09-27T09:39:16.000Z</time>
      </trkpt>
      <trkpt lat="47.51252" lon="6.71453">
        <ele>455</ele>
        <time>2015-09-27T09:39:17.000Z</time>
      </trkpt>
      <trkpt lat="47.51252" lon="6.71461">
        <ele>455</ele>
        <time>2015-09-27T09:39:18.000Z</time>
      </trkpt>
      <trkpt lat="47.51251" lon="6.71467">
        <ele>455</ele>
        <time>2015-09-27T09:39:19.000Z</time>
      </trkpt>
      <trkpt lat="47.51251" lon="6.71474">
        <ele>455</ele>
        <time>2015-09-27T09:39:20.000Z</time>
      </trkpt>
      <trkpt lat="47.5125" lon="6.7148">
        <ele>455</ele>
        <time>2015-09-27T09:39:21.000Z</time>
      </trkpt>
      <trkpt lat="47.51249" lon="6.71487">
        <ele>454</ele>
        <time>2015-09-27T09:39:22.000Z</time>
      </trkpt>
      <trkpt lat="47.51249" lon="6.71494">
        <ele>455</ele>
        <time>2015-09-27T09:39:23.000Z</time>
      </trkpt>
      <trkpt lat="47.51248" lon="6.71501">
        <ele>456</ele>
        <time>2015-09-27T09:39:24.000Z</time>
      </trkpt>
      <trkpt lat="47.51247" lon="6.71508">
        <ele>455</ele>
        <time>2015-09-27T09:39:25.000Z</time>
      </trkpt>
      <trkpt lat="47.51246" lon="6.71514">
        <ele>455</ele>
        <time>2015-09-27T09:39:26.000Z</time>
      </trkpt>
      <trkpt lat="47.51245" lon="6.7152">
        <ele>455</ele>
        <time>2015-09-27T09:39:27.000Z</time>
      </trkpt>
      <trkpt lat="47.51244" lon="6.71526">
        <ele>455</ele>
        <time>2015-09-27T09:39:28.000Z</time>
      </trkpt>
      <trkpt lat="47.51241" lon="6.71545">
        <ele>455</ele>
        <time>2015-09-27T09:39:29.000Z</time>
      </trkpt>
      <trkpt lat="47.51241" lon="6.71552">
        <ele>455</ele>
        <time>2015-09-27T09:39:30.000Z</time>
      </trkpt>
      <trkpt lat="47.51239" lon="6.71559">
        <ele>455</ele>
        <time>2015-09-27T09:39:31.000Z</time>
      </trkpt>
      <trkpt lat="47.51238" lon="6.71565">
        <ele>455</ele>
        <time>2015-09-27T09:39:32.000Z</time>
      </trkpt>
      <trkpt lat="47.51236" lon="6.71571">
        <ele>456</ele>
        <time>2015-09-27T09:39:33.000Z</time>
      </trkpt>
      <trkpt lat="47.51236" lon="6.71577">
        <ele>456</ele>
        <time>2015-09-27T09:39:34.000Z</time>
      </trkpt>
      <trkpt lat="47.51235" lon="6.71583">
        <ele>456</ele>
        <time>2015-09-27T09:39:35.000Z</time>
      </trkpt>
      <trkpt lat="47.51234" lon="6.71591">
        <ele>456</ele>
        <time>2015-09-27T09:39:36.000Z</time>
      </trkpt>
      <trkpt lat="47.51234" lon="6.71596">
        <ele>456</ele>
        <time>2015-09-27T09:39:37.000Z</time>
      </trkpt>
      <trkpt lat="47.51233" lon="6.71602">
        <ele>455</ele>
        <time>2015-09-27T09:39:38.000Z</time>
      </trkpt>
      <trkpt lat="47.51233" lon="6.71607">
        <ele>455</ele>
        <time>2015-09-27T09:39:39.000Z</time>
      </trkpt>
      <trkpt lat="47.51234" lon="6.71613">
        <ele>455</ele>
        <time>2015-09-27T09:39:40.000Z</time>
      </trkpt>
      <trkpt lat="47.51234" lon="6.71618">
        <ele>455</ele>
        <time>2015-09-27T09:39:41.000Z</time>
      </trkpt>
      <trkpt lat="47.51234" lon="6.71624">
        <ele>455</ele>
        <time>2015-09-27T09:39:42.000Z</time>
      </trkpt>
      <trkpt lat="47.51234" lon="6.7163">
        <ele>455</ele>
        <time>2015-09-27T09:39:43.000Z</time>
      </trkpt>
      <trkpt lat="47.51234" lon="6.71635">
        <ele>455</ele>
        <time>2015-09-27T09:39:44.000Z</time>
      </trkpt>
      <trkpt lat="47.51233" lon="6.71641">
        <ele>455</ele>
        <time>2015-09-27T09:39:45.000Z</time>
      </trkpt>
      <trkpt lat="47.51232" lon="6.71648">
        <ele>455</ele>
        <time>2015-09-27T09:39:46.000Z</time>
      </trkpt>
      <trkpt lat="47.51232" lon="6.71655">
        <ele>455</ele>
        <time>2015-09-27T09:39:47.000Z</time>
      </trkpt>
      <trkpt lat="47.51232" lon="6.71661">
        <ele>455</ele>
        <time>2015-09-27T09:39:48.000Z</time>
      </trkpt>
      <trkpt lat="47.51233" lon="6.71667">
        <ele>455</ele>
        <time>2015-09-27T09:39:49.000Z</time>
      </trkpt>
      <trkpt lat="47.51233" lon="6.71673">
        <ele>455</ele>
        <time>2015-09-27T09:39:50.000Z</time>
      </trkpt>
      <trkpt lat="47.51234" lon="6.71678">
        <ele>455</ele>
        <time>2015-09-27T09:39:51.000Z</time>
      </trkpt>
      <trkpt lat="47.51234" lon="6.71683">
        <ele>455</ele>
        <time>2015-09-27T09:39:52.000Z</time>
      </trkpt>
      <trkpt lat="47.51234" lon="6.71688">
        <ele>455</ele>
        <time>2015-09-27T09:39:53.000Z</time>
      </trkpt>
      <trkpt lat="47.51234" lon="6.71694">
        <ele>455</ele>
        <time>2015-09-27T09:39:54.000Z</time>
      </trkpt>
      <trkpt lat="47.51233" lon="6.717">
        <ele>454</ele>
        <time>2015-09-27T09:39:55.000Z</time>
      </trkpt>
      <trkpt lat="47.51233" lon="6.71705">
        <ele>454</ele>
        <time>2015-09-27T09:39:56.000Z</time>
      </trkpt>
      <trkpt lat="47.51233" lon="6.71711">
        <ele>454</ele>
        <time>2015-09-27T09:39:57.000Z</time>
      </trkpt>
      <trkpt lat="47.51232" lon="6.71716">
        <ele>454</ele>
        <time>2015-09-27T09:39:58.000Z</time>
      </trkpt>
      <trkpt lat="47.51231" lon="6.71722">
        <ele>454</ele>
        <time>2015-09-27T09:39:59.000Z</time>
      </trkpt>
      <trkpt lat="47.51231" lon="6.71727">
        <ele>454</ele>
        <time>2015-09-27T09:40:00.000Z</time>
      </trkpt>
      <trkpt lat="47.51231" lon="6.71732">
        <ele>454</ele>
        <time>2015-09-27T09:40:01.000Z</time>
      </trkpt>
      <trkpt lat="47.51231" lon="6.71737">
        <ele>454</ele>
        <time>2015-09-27T09:40:02.000Z</time>
      </trkpt>
      <trkpt lat="47.51231" lon="6.71743">
        <ele>454</ele>
        <time>2015-09-27T09:40:03.000Z</time>
      </trkpt>
      <trkpt lat="47.51231" lon="6.71749">
        <ele>454</ele>
        <time>2015-09-27T09:40:04.000Z</time>
      </trkpt>
      <trkpt lat="47.5123" lon="6.71755">
        <ele>454</ele>
        <time>2015-09-27T09:40:05.000Z</time>
      </trkpt>
      <trkpt lat="47.5123" lon="6.71762">
        <ele>453</ele>
        <time>2015-09-27T09:40:06.000Z</time>
      </trkpt>
      <trkpt lat="47.5123" lon="6.71769">
        <ele>453</ele>
        <time>2015-09-27T09:40:07.000Z</time>
      </trkpt>
      <trkpt lat="47.51231" lon="6.71776">
        <ele>453</ele>
        <time>2015-09-27T09:40:08.000Z</time>
      </trkpt>
      <trkpt lat="47.51232" lon="6.71783">
        <ele>453</ele>
        <time>2015-09-27T09:40:09.000Z</time>
      </trkpt>
      <trkpt lat="47.51237" lon="6.71801">
        <ele>453</ele>
        <time>2015-09-27T09:40:10.000Z</time>
      </trkpt>
      <trkpt lat="47.51239" lon="6.71807">
        <ele>453</ele>
        <time>2015-09-27T09:40:11.000Z</time>
      </trkpt>
      <trkpt lat="47.51241" lon="6.71814">
        <ele>453</ele>
        <time>2015-09-27T09:40:12.000Z</time>
      </trkpt>
      <trkpt lat="47.51242" lon="6.71822">
        <ele>453</ele>
        <time>2015-09-27T09:40:13.000Z</time>
      </trkpt>
      <trkpt lat="47.51244" lon="6.7183">
        <ele>454</ele>
        <time>2015-09-27T09:40:14.000Z</time>
      </trkpt>
      <trkpt lat="47.51245" lon="6.71839">
        <ele>453</ele>
        <time>2015-09-27T09:40:15.000Z</time>
      </trkpt>
      <trkpt lat="47.51247" lon="6.71846">
        <ele>452</ele>
        <time>2015-09-27T09:40:16.000Z</time>
      </trkpt>
      <trkpt lat="47.51247" lon="6.71854">
        <ele>452</ele>
        <time>2015-09-27T09:40:17.000Z</time>
      </trkpt>
      <trkpt lat="47.51247" lon="6.7186">
        <ele>452</ele>
        <time>2015-09-27T09:40:18.000Z</time>
      </trkpt>
      <trkpt lat="47.51247" lon="6.71867">
        <ele>451</ele>
        <time>2015-09-27T09:40:19.000Z</time>
      </trkpt>
      <trkpt lat="47.51248" lon="6.71873">
        <ele>451</ele>
        <time>2015-09-27T09:40:20.000Z</time>
      </trkpt>
      <trkpt lat="47.51248" lon="6.7188">
        <ele>451</ele>
        <time>2015-09-27T09:40:21.000Z</time>
      </trkpt>
      <trkpt lat="47.51249" lon="6.71888">
        <ele>451</ele>
        <time>2015-09-27T09:40:22.000Z</time>
      </trkpt>
      <trkpt lat="47.51248" lon="6.71902">
        <ele>451</ele>
        <time>2015-09-27T09:40:23.000Z</time>
      </trkpt>
      <trkpt lat="47.51246" lon="6.71913">
        <ele>452</ele>
        <time>2015-09-27T09:40:24.000Z</time>
      </trkpt>
      <trkpt lat="47.5125" lon="6.71923">
        <ele>452</ele>
        <time>2015-09-27T09:40:25.000Z</time>
      </trkpt>
      <trkpt lat="47.51253" lon="6.71936">
        <ele>451</ele>
        <time>2015-09-27T09:40:26.000Z</time>
      </trkpt>
      <trkpt lat="47.51254" lon="6.71945">
        <ele>451</ele>
        <time>2015-09-27T09:40:27.000Z</time>
      </trkpt>
      <trkpt lat="47.51258" lon="6.71955">
        <ele>451</ele>
        <time>2015-09-27T09:40:28.000Z</time>
      </trkpt>
      <trkpt lat="47.51258" lon="6.71965">
        <ele>450</ele>
        <time>2015-09-27T09:40:29.000Z</time>
      </trkpt>
      <trkpt lat="47.51258" lon="6.71972">
        <ele>450</ele>
        <time>2015-09-27T09:40:30.000Z</time>
      </trkpt>
      <trkpt lat="47.51257" lon="6.71981">
        <ele>450</ele>
        <time>2015-09-27T09:40:31.000Z</time>
      </trkpt>
      <trkpt lat="47.51256" lon="6.71994">
        <ele>451</ele>
        <time>2015-09-27T09:40:32.000Z</time>
      </trkpt>
      <trkpt lat="47.51254" lon="6.72006">
        <ele>450</ele>
        <time>2015-09-27T09:40:33.000Z</time>
      </trkpt>
      <trkpt lat="47.51253" lon="6.72017">
        <ele>450</ele>
        <time>2015-09-27T09:40:34.000Z</time>
      </trkpt>
      <trkpt lat="47.51254" lon="6.72031">
        <ele>449</ele>
        <time>2015-09-27T09:40:35.000Z</time>
      </trkpt>
      <trkpt lat="47.51254" lon="6.72043">
        <ele>449</ele>
        <time>2015-09-27T09:40:36.000Z</time>
      </trkpt>
      <trkpt lat="47.51254" lon="6.72055">
        <ele>449</ele>
        <time>2015-09-27T09:40:37.000Z</time>
      </trkpt>
      <trkpt lat="47.51254" lon="6.72067">
        <ele>449</ele>
        <time>2015-09-27T09:40:38.000Z</time>
      </trkpt>
      <trkpt lat="47.51253" lon="6.72081">
        <ele>450</ele>
        <time>2015-09-27T09:40:39.000Z</time>
      </trkpt>
      <trkpt lat="47.51253" lon="6.72094">
        <ele>448</ele>
        <time>2015-09-27T09:40:40.000Z</time>
      </trkpt>
      <trkpt lat="47.51253" lon="6.72106">
        <ele>446</ele>
        <time>2015-09-27T09:40:41.000Z</time>
      </trkpt>
      <trkpt lat="47.51253" lon="6.72118">
        <ele>445</ele>
        <time>2015-09-27T09:40:42.000Z</time>
      </trkpt>
      <trkpt lat="47.51252" lon="6.7213">
        <ele>445</ele>
        <time>2015-09-27T09:40:43.000Z</time>
      </trkpt>
      <trkpt lat="47.51255" lon="6.72141">
        <ele>444</ele>
        <time>2015-09-27T09:40:44.000Z</time>
      </trkpt>
      <trkpt lat="47.51256" lon="6.72153">
        <ele>445</ele>
        <time>2015-09-27T09:40:45.000Z</time>
      </trkpt>
      <trkpt lat="47.51256" lon="6.72165">
        <ele>445</ele>
        <time>2015-09-27T09:40:46.000Z</time>
      </trkpt>
      <trkpt lat="47.51257" lon="6.72174">
        <ele>443</ele>
        <time>2015-09-27T09:40:47.000Z</time>
      </trkpt>
      <trkpt lat="47.51258" lon="6.72183">
        <ele>442</ele>
        <time>2015-09-27T09:40:48.000Z</time>
      </trkpt>
      <trkpt lat="47.51258" lon="6.72192">
        <ele>441</ele>
        <time>2015-09-27T09:40:49.000Z</time>
      </trkpt>
      <trkpt lat="47.51257" lon="6.72201">
        <ele>440</ele>
        <time>2015-09-27T09:40:50.000Z</time>
      </trkpt>
      <trkpt lat="47.51257" lon="6.72211">
        <ele>440</ele>
        <time>2015-09-27T09:40:51.000Z</time>
      </trkpt>
      <trkpt lat="47.51255" lon="6.72222">
        <ele>440</ele>
        <time>2015-09-27T09:40:52.000Z</time>
      </trkpt>
      <trkpt lat="47.51254" lon="6.72233">
        <ele>441</ele>
        <time>2015-09-27T09:40:53.000Z</time>
      </trkpt>
      <trkpt lat="47.51251" lon="6.72243">
        <ele>442</ele>
        <time>2015-09-27T09:40:54.000Z</time>
      </trkpt>
      <trkpt lat="47.51249" lon="6.72252">
        <ele>443</ele>
        <time>2015-09-27T09:40:55.000Z</time>
      </trkpt>
      <trkpt lat="47.51247" lon="6.7226">
        <ele>442</ele>
        <time>2015-09-27T09:40:56.000Z</time>
      </trkpt>
      <trkpt lat="47.51247" lon="6.72269">
        <ele>442</ele>
        <time>2015-09-27T09:40:57.000Z</time>
      </trkpt>
      <trkpt lat="47.51246" lon="6.72279">
        <ele>442</ele>
        <time>2015-09-27T09:40:58.000Z</time>
      </trkpt>
      <trkpt lat="47.51245" lon="6.7229">
        <ele>442</ele>
        <time>2015-09-27T09:40:59.000Z</time>
      </trkpt>
      <trkpt lat="47.51244" lon="6.723">
        <ele>442</ele>
        <time>2015-09-27T09:41:00.000Z</time>
      </trkpt>
      <trkpt lat="47.51244" lon="6.7231">
        <ele>443</ele>
        <time>2015-09-27T09:41:01.000Z</time>
      </trkpt>
      <trkpt lat="47.51244" lon="6.72318">
        <ele>443</ele>
        <time>2015-09-27T09:41:02.000Z</time>
      </trkpt>
      <trkpt lat="47.51243" lon="6.72328">
        <ele>444</ele>
        <time>2015-09-27T09:41:03.000Z</time>
      </trkpt>
      <trkpt lat="47.51242" lon="6.72339">
        <ele>445</ele>
        <time>2015-09-27T09:41:04.000Z</time>
      </trkpt>
      <trkpt lat="47.51241" lon="6.72348">
        <ele>444</ele>
        <time>2015-09-27T09:41:05.000Z</time>
      </trkpt>
      <trkpt lat="47.51241" lon="6.72358">
        <ele>443</ele>
        <time>2015-09-27T09:41:06.000Z</time>
      </trkpt>
      <trkpt lat="47.51239" lon="6.72369">
        <ele>443</ele>
        <time>2015-09-27T09:41:07.000Z</time>
      </trkpt>
      <trkpt lat="47.51238" lon="6.72379">
        <ele>443</ele>
        <time>2015-09-27T09:41:08.000Z</time>
      </trkpt>
      <trkpt lat="47.51233" lon="6.72388">
        <ele>443</ele>
        <time>2015-09-27T09:41:09.000Z</time>
      </trkpt>
      <trkpt lat="47.51231" lon="6.72398">
        <ele>443</ele>
        <time>2015-09-27T09:41:10.000Z</time>
      </trkpt>
      <trkpt lat="47.51228" lon="6.72407">
        <ele>443</ele>
        <time>2015-09-27T09:41:11.000Z</time>
      </trkpt>
      <trkpt lat="47.51227" lon="6.72416">
        <ele>443</ele>
        <time>2015-09-27T09:41:12.000Z</time>
      </trkpt>
      <trkpt lat="47.51226" lon="6.72428">
        <ele>440</ele>
        <time>2015-09-27T09:41:13.000Z</time>
      </trkpt>
      <trkpt lat="47.51226" lon="6.72439">
        <ele>439</ele>
        <time>2015-09-27T09:41:14.000Z</time>
      </trkpt>
      <trkpt lat="47.51224" lon="6.72448">
        <ele>439</ele>
        <time>2015-09-27T09:41:15.000Z</time>
      </trkpt>
      <trkpt lat="47.51221" lon="6.72459">
        <ele>438</ele>
        <time>2015-09-27T09:41:16.000Z</time>
      </trkpt>
      <trkpt lat="47.5122" lon="6.72471">
        <ele>437</ele>
        <time>2015-09-27T09:41:17.000Z</time>
      </trkpt>
      <trkpt lat="47.51213" lon="6.72479">
        <ele>437</ele>
        <time>2015-09-27T09:41:18.000Z</time>
      </trkpt>
      <trkpt lat="47.51208" lon="6.72489">
        <ele>437</ele>
        <time>2015-09-27T09:41:19.000Z</time>
      </trkpt>
      <trkpt lat="47.51203" lon="6.72498">
        <ele>436</ele>
        <time>2015-09-27T09:41:20.000Z</time>
      </trkpt>
      <trkpt lat="47.51198" lon="6.72509">
        <ele>432</ele>
        <time>2015-09-27T09:41:21.000Z</time>
      </trkpt>
      <trkpt lat="47.51193" lon="6.72519">
        <ele>432</ele>
        <time>2015-09-27T09:41:22.000Z</time>
      </trkpt>
      <trkpt lat="47.51189" lon="6.72528">
        <ele>431</ele>
        <time>2015-09-27T09:41:23.000Z</time>
      </trkpt>
      <trkpt lat="47.51184" lon="6.72535">
        <ele>431</ele>
        <time>2015-09-27T09:41:24.000Z</time>
      </trkpt>
      <trkpt lat="47.51181" lon="6.72539">
        <ele>431</ele>
        <time>2015-09-27T09:41:25.000Z</time>
      </trkpt>
      <trkpt lat="47.51175" lon="6.72543">
        <ele>431</ele>
        <time>2015-09-27T09:41:26.000Z</time>
      </trkpt>
      <trkpt lat="47.51174" lon="6.72549">
        <ele>430</ele>
        <time>2015-09-27T09:41:27.000Z</time>
      </trkpt>
      <trkpt lat="47.51171" lon="6.72556">
        <ele>430</ele>
        <time>2015-09-27T09:41:28.000Z</time>
      </trkpt>
      <trkpt lat="47.51169" lon="6.72564">
        <ele>429</ele>
        <time>2015-09-27T09:41:29.000Z</time>
      </trkpt>
      <trkpt lat="47.51162" lon="6.72572">
        <ele>429</ele>
        <time>2015-09-27T09:41:30.000Z</time>
      </trkpt>
      <trkpt lat="47.51156" lon="6.7258">
        <ele>429</ele>
        <time>2015-09-27T09:41:31.000Z</time>
      </trkpt>
      <trkpt lat="47.51148" lon="6.72586">
        <ele>426</ele>
        <time>2015-09-27T09:41:32.000Z</time>
      </trkpt>
      <trkpt lat="47.51141" lon="6.72591">
        <ele>426</ele>
        <time>2015-09-27T09:41:33.000Z</time>
      </trkpt>
      <trkpt lat="47.51132" lon="6.72596">
        <ele>426</ele>
        <time>2015-09-27T09:41:34.000Z</time>
      </trkpt>
      <trkpt lat="47.51126" lon="6.726">
        <ele>426</ele>
        <time>2015-09-27T09:41:35.000Z</time>
      </trkpt>
      <trkpt lat="47.51119" lon="6.72603">
        <ele>426</ele>
        <time>2015-09-27T09:41:36.000Z</time>
      </trkpt>
      <trkpt lat="47.51112" lon="6.72608">
        <ele>426</ele>
        <time>2015-09-27T09:41:37.000Z</time>
      </trkpt>
      <trkpt lat="47.51104" lon="6.72613">
        <ele>426</ele>
        <time>2015-09-27T09:41:38.000Z</time>
      </trkpt>
      <trkpt lat="47.51099" lon="6.72617">
        <ele>425</ele>
        <time>2015-09-27T09:41:39.000Z</time>
      </trkpt>
      <trkpt lat="47.51094" lon="6.72621">
        <ele>425</ele>
        <time>2015-09-27T09:41:40.000Z</time>
      </trkpt>
      <trkpt lat="47.51087" lon="6.72626">
        <ele>425</ele>
        <time>2015-09-27T09:41:41.000Z</time>
      </trkpt>
      <trkpt lat="47.51082" lon="6.7263">
        <ele>425</ele>
        <time>2015-09-27T09:41:42.000Z</time>
      </trkpt>
      <trkpt lat="47.51078" lon="6.72634">
        <ele>425</ele>
        <time>2015-09-27T09:41:43.000Z</time>
      </trkpt>
      <trkpt lat="47.51073" lon="6.72639">
        <ele>425</ele>
        <time>2015-09-27T09:41:44.000Z</time>
      </trkpt>
      <trkpt lat="47.51068" lon="6.72643">
        <ele>425</ele>
        <time>2015-09-27T09:41:45.000Z</time>
      </trkpt>
      <trkpt lat="47.5106" lon="6.72647">
        <ele>425</ele>
        <time>2015-09-27T09:41:46.000Z</time>
      </trkpt>
      <trkpt lat="47.51054" lon="6.72653">
        <ele>425</ele>
        <time>2015-09-27T09:41:47.000Z</time>
      </trkpt>
      <trkpt lat="47.51049" lon="6.72657">
        <ele>425</ele>
        <time>2015-09-27T09:41:48.000Z</time>
      </trkpt>
      <trkpt lat="47.51046" lon="6.72662">
        <ele>425</ele>
        <time>2015-09-27T09:41:49.000Z</time>
      </trkpt>
      <trkpt lat="47.51042" lon="6.72665">
        <ele>425</ele>
        <time>2015-09-27T09:41:50.000Z</time>
      </trkpt>
      <trkpt lat="47.51036" lon="6.7267">
        <ele>424</ele>
        <time>2015-09-27T09:41:51.000Z</time>
      </trkpt>
      <trkpt lat="47.51033" lon="6.72675">
        <ele>424</ele>
        <time>2015-09-27T09:41:52.000Z</time>
      </trkpt>
      <trkpt lat="47.5103" lon="6.72681">
        <ele>424</ele>
        <time>2015-09-27T09:41:53.000Z</time>
      </trkpt>
      <trkpt lat="47.51024" lon="6.72686">
        <ele>424</ele>
        <time>2015-09-27T09:41:54.000Z</time>
      </trkpt>
      <trkpt lat="47.51013" lon="6.72693">
        <ele>424</ele>
        <time>2015-09-27T09:41:55.000Z</time>
      </trkpt>
      <trkpt lat="47.51008" lon="6.72699">
        <ele>424</ele>
        <time>2015-09-27T09:41:56.000Z</time>
      </trkpt>
      <trkpt lat="47.51005" lon="6.72703">
        <ele>424</ele>
        <time>2015-09-27T09:41:57.000Z</time>
      </trkpt>
      <trkpt lat="47.51001" lon="6.72711">
        <ele>424</ele>
        <time>2015-09-27T09:41:58.000Z</time>
      </trkpt>
      <trkpt lat="47.50998" lon="6.72717">
        <ele>427</ele>
        <time>2015-09-27T09:41:59.000Z</time>
      </trkpt>
      <trkpt lat="47.50996" lon="6.72721">
        <ele>427</ele>
        <time>2015-09-27T09:42:00.000Z</time>
      </trkpt>
      <trkpt lat="47.50994" lon="6.72727">
        <ele>426</ele>
        <time>2015-09-27T09:42:01.000Z</time>
      </trkpt>
      <trkpt lat="47.50992" lon="6.72732">
        <ele>426</ele>
        <time>2015-09-27T09:42:02.000Z</time>
      </trkpt>
      <trkpt lat="47.50991" lon="6.72736">
        <ele>426</ele>
        <time>2015-09-27T09:42:03.000Z</time>
      </trkpt>
      <trkpt lat="47.50989" lon="6.72742">
        <ele>425</ele>
        <time>2015-09-27T09:42:04.000Z</time>
      </trkpt>
      <trkpt lat="47.50987" lon="6.7275">
        <ele>425</ele>
        <time>2015-09-27T09:42:05.000Z</time>
      </trkpt>
      <trkpt lat="47.50985" lon="6.72756">
        <ele>425</ele>
        <time>2015-09-27T09:42:06.000Z</time>
      </trkpt>
      <trkpt lat="47.50982" lon="6.72762">
        <ele>425</ele>
        <time>2015-09-27T09:42:07.000Z</time>
      </trkpt>
      <trkpt lat="47.50981" lon="6.72768">
        <ele>426</ele>
        <time>2015-09-27T09:42:08.000Z</time>
      </trkpt>
      <trkpt lat="47.50979" lon="6.72773">
        <ele>426</ele>
        <time>2015-09-27T09:42:09.000Z</time>
      </trkpt>
      <trkpt lat="47.50977" lon="6.72778">
        <ele>426</ele>
        <time>2015-09-27T09:42:10.000Z</time>
      </trkpt>
      <trkpt lat="47.50975" lon="6.72782">
        <ele>426</ele>
        <time>2015-09-27T09:42:11.000Z</time>
      </trkpt>
      <trkpt lat="47.50973" lon="6.72786">
        <ele>426</ele>
        <time>2015-09-27T09:42:12.000Z</time>
      </trkpt>
      <trkpt lat="47.50971" lon="6.7279">
        <ele>426</ele>
        <time>2015-09-27T09:42:13.000Z</time>
      </trkpt>
      <trkpt lat="47.50968" lon="6.72795">
        <ele>426</ele>
        <time>2015-09-27T09:42:14.000Z</time>
      </trkpt>
      <trkpt lat="47.50966" lon="6.72799">
        <ele>427</ele>
        <time>2015-09-27T09:42:15.000Z</time>
      </trkpt>
      <trkpt lat="47.50965" lon="6.72805">
        <ele>427</ele>
        <time>2015-09-27T09:42:16.000Z</time>
      </trkpt>
      <trkpt lat="47.50963" lon="6.7281">
        <ele>427</ele>
        <time>2015-09-27T09:42:17.000Z</time>
      </trkpt>
      <trkpt lat="47.50962" lon="6.72816">
        <ele>427</ele>
        <time>2015-09-27T09:42:18.000Z</time>
      </trkpt>
      <trkpt lat="47.5096" lon="6.72821">
        <ele>427</ele>
        <time>2015-09-27T09:42:19.000Z</time>
      </trkpt>
      <trkpt lat="47.50958" lon="6.72826">
        <ele>427</ele>
        <time>2015-09-27T09:42:20.000Z</time>
      </trkpt>
      <trkpt lat="47.50956" lon="6.72831">
        <ele>427</ele>
        <time>2015-09-27T09:42:21.000Z</time>
      </trkpt>
      <trkpt lat="47.50955" lon="6.72837">
        <ele>426</ele>
        <time>2015-09-27T09:42:22.000Z</time>
      </trkpt>
      <trkpt lat="47.50953" lon="6.72842">
        <ele>426</ele>
        <time>2015-09-27T09:42:23.000Z</time>
      </trkpt>
      <trkpt lat="47.50952" lon="6.72849">
        <ele>426</ele>
        <time>2015-09-27T09:42:24.000Z</time>
      </trkpt>
      <trkpt lat="47.50949" lon="6.72856">
        <ele>426</ele>
        <time>2015-09-27T09:42:25.000Z</time>
      </trkpt>
      <trkpt lat="47.50946" lon="6.72863">
        <ele>426</ele>
        <time>2015-09-27T09:42:26.000Z</time>
      </trkpt>
      <trkpt lat="47.50943" lon="6.72869">
        <ele>426</ele>
        <time>2015-09-27T09:42:27.000Z</time>
      </trkpt>
      <trkpt lat="47.5094" lon="6.72875">
        <ele>426</ele>
        <time>2015-09-27T09:42:28.000Z</time>
      </trkpt>
      <trkpt lat="47.50938" lon="6.72881">
        <ele>426</ele>
        <time>2015-09-27T09:42:29.000Z</time>
      </trkpt>
      <trkpt lat="47.50936" lon="6.72888">
        <ele>426</ele>
        <time>2015-09-27T09:42:30.000Z</time>
      </trkpt>
      <trkpt lat="47.50934" lon="6.72895">
        <ele>426</ele>
        <time>2015-09-27T09:42:31.000Z</time>
      </trkpt>
      <trkpt lat="47.50931" lon="6.72903">
        <ele>426</ele>
        <time>2015-09-27T09:42:32.000Z</time>
      </trkpt>
      <trkpt lat="47.50929" lon="6.72911">
        <ele>427</ele>
        <time>2015-09-27T09:42:33.000Z</time>
      </trkpt>
      <trkpt lat="47.50921" lon="6.72933">
        <ele>426</ele>
        <time>2015-09-27T09:42:34.000Z</time>
      </trkpt>
      <trkpt lat="47.50916" lon="6.72943">
        <ele>430</ele>
        <time>2015-09-27T09:42:35.000Z</time>
      </trkpt>
      <trkpt lat="47.50913" lon="6.72951">
        <ele>430</ele>
        <time>2015-09-27T09:42:36.000Z</time>
      </trkpt>
      <trkpt lat="47.5091" lon="6.72959">
        <ele>430</ele>
        <time>2015-09-27T09:42:37.000Z</time>
      </trkpt>
      <trkpt lat="47.50909" lon="6.72968">
        <ele>430</ele>
        <time>2015-09-27T09:42:38.000Z</time>
      </trkpt>
      <trkpt lat="47.50906" lon="6.72978">
        <ele>430</ele>
        <time>2015-09-27T09:42:39.000Z</time>
      </trkpt>
      <trkpt lat="47.50903" lon="6.72989">
        <ele>430</ele>
        <time>2015-09-27T09:42:40.000Z</time>
      </trkpt>
      <trkpt lat="47.50901" lon="6.72998">
        <ele>430</ele>
        <time>2015-09-27T09:42:41.000Z</time>
      </trkpt>
      <trkpt lat="47.50895" lon="6.73009">
        <ele>430</ele>
        <time>2015-09-27T09:42:42.000Z</time>
      </trkpt>
      <trkpt lat="47.50892" lon="6.73021">
        <ele>430</ele>
        <time>2015-09-27T09:42:43.000Z</time>
      </trkpt>
      <trkpt lat="47.5089" lon="6.7303">
        <ele>430</ele>
        <time>2015-09-27T09:42:44.000Z</time>
      </trkpt>
      <trkpt lat="47.50889" lon="6.73039">
        <ele>430</ele>
        <time>2015-09-27T09:42:45.000Z</time>
      </trkpt>
      <trkpt lat="47.50887" lon="6.7305">
        <ele>430</ele>
        <time>2015-09-27T09:42:46.000Z</time>
      </trkpt>
      <trkpt lat="47.50885" lon="6.73059">
        <ele>430</ele>
        <time>2015-09-27T09:42:47.000Z</time>
      </trkpt>
      <trkpt lat="47.50884" lon="6.73068">
        <ele>430</ele>
        <time>2015-09-27T09:42:48.000Z</time>
      </trkpt>
      <trkpt lat="47.50881" lon="6.73079">
        <ele>430</ele>
        <time>2015-09-27T09:42:49.000Z</time>
      </trkpt>
      <trkpt lat="47.50875" lon="6.73093">
        <ele>428</ele>
        <time>2015-09-27T09:42:50.000Z</time>
      </trkpt>
      <trkpt lat="47.50871" lon="6.73105">
        <ele>428</ele>
        <time>2015-09-27T09:42:51.000Z</time>
      </trkpt>
      <trkpt lat="47.50869" lon="6.73118">
        <ele>428</ele>
        <time>2015-09-27T09:42:52.000Z</time>
      </trkpt>
      <trkpt lat="47.50865" lon="6.73128">
        <ele>427</ele>
        <time>2015-09-27T09:42:53.000Z</time>
      </trkpt>
      <trkpt lat="47.50863" lon="6.73139">
        <ele>427</ele>
        <time>2015-09-27T09:42:54.000Z</time>
      </trkpt>
      <trkpt lat="47.5086" lon="6.7315">
        <ele>427</ele>
        <time>2015-09-27T09:42:55.000Z</time>
      </trkpt>
      <trkpt lat="47.50856" lon="6.7316">
        <ele>426</ele>
        <time>2015-09-27T09:42:56.000Z</time>
      </trkpt>
      <trkpt lat="47.50848" lon="6.73168">
        <ele>423</ele>
        <time>2015-09-27T09:42:57.000Z</time>
      </trkpt>
      <trkpt lat="47.50839" lon="6.73176">
        <ele>423</ele>
        <time>2015-09-27T09:42:58.000Z</time>
      </trkpt>
      <trkpt lat="47.5083" lon="6.73186">
        <ele>422</ele>
        <time>2015-09-27T09:42:59.000Z</time>
      </trkpt>
      <trkpt lat="47.50822" lon="6.73196">
        <ele>421</ele>
        <time>2015-09-27T09:43:00.000Z</time>
      </trkpt>
      <trkpt lat="47.50815" lon="6.73207">
        <ele>420</ele>
        <time>2015-09-27T09:43:01.000Z</time>
      </trkpt>
      <trkpt lat="47.50809" lon="6.73217">
        <ele>419</ele>
        <time>2015-09-27T09:43:02.000Z</time>
      </trkpt>
      <trkpt lat="47.50805" lon="6.73227">
        <ele>419</ele>
        <time>2015-09-27T09:43:03.000Z</time>
      </trkpt>
      <trkpt lat="47.50801" lon="6.7324">
        <ele>418</ele>
        <time>2015-09-27T09:43:04.000Z</time>
      </trkpt>
      <trkpt lat="47.50797" lon="6.73253">
        <ele>411</ele>
        <time>2015-09-27T09:43:05.000Z</time>
      </trkpt>
      <trkpt lat="47.5078" lon="6.73259">
        <ele>411</ele>
        <time>2015-09-27T09:43:06.000Z</time>
      </trkpt>
      <trkpt lat="47.50771" lon="6.73266">
        <ele>411</ele>
        <time>2015-09-27T09:43:07.000Z</time>
      </trkpt>
      <trkpt lat="47.50761" lon="6.73275">
        <ele>411</ele>
        <time>2015-09-27T09:43:08.000Z</time>
      </trkpt>
      <trkpt lat="47.50757" lon="6.73289">
        <ele>409</ele>
        <time>2015-09-27T09:43:09.000Z</time>
      </trkpt>
      <trkpt lat="47.50749" lon="6.73299">
        <ele>407</ele>
        <time>2015-09-27T09:43:10.000Z</time>
      </trkpt>
      <trkpt lat="47.50742" lon="6.73307">
        <ele>407</ele>
        <time>2015-09-27T09:43:11.000Z</time>
      </trkpt>
      <trkpt lat="47.50737" lon="6.73318">
        <ele>406</ele>
        <time>2015-09-27T09:43:12.000Z</time>
      </trkpt>
      <trkpt lat="47.50733" lon="6.73331">
        <ele>406</ele>
        <time>2015-09-27T09:43:13.000Z</time>
      </trkpt>
      <trkpt lat="47.50727" lon="6.73341">
        <ele>401</ele>
        <time>2015-09-27T09:43:14.000Z</time>
      </trkpt>
      <trkpt lat="47.50719" lon="6.73348">
        <ele>399</ele>
        <time>2015-09-27T09:43:15.000Z</time>
      </trkpt>
      <trkpt lat="47.50712" lon="6.73355">
        <ele>399</ele>
        <time>2015-09-27T09:43:16.000Z</time>
      </trkpt>
      <trkpt lat="47.50705" lon="6.73365">
        <ele>398</ele>
        <time>2015-09-27T09:43:17.000Z</time>
      </trkpt>
      <trkpt lat="47.50701" lon="6.73378">
        <ele>397</ele>
        <time>2015-09-27T09:43:18.000Z</time>
      </trkpt>
      <trkpt lat="47.50697" lon="6.7339">
        <ele>397</ele>
        <time>2015-09-27T09:43:19.000Z</time>
      </trkpt>
      <trkpt lat="47.50696" lon="6.73399">
        <ele>396</ele>
        <time>2015-09-27T09:43:20.000Z</time>
      </trkpt>
      <trkpt lat="47.50693" lon="6.7341">
        <ele>396</ele>
        <time>2015-09-27T09:43:21.000Z</time>
      </trkpt>
      <trkpt lat="47.5069" lon="6.73421">
        <ele>390</ele>
        <time>2015-09-27T09:43:22.000Z</time>
      </trkpt>
      <trkpt lat="47.50687" lon="6.73432">
        <ele>390</ele>
        <time>2015-09-27T09:43:23.000Z</time>
      </trkpt>
      <trkpt lat="47.5068" lon="6.73443">
        <ele>389</ele>
        <time>2015-09-27T09:43:24.000Z</time>
      </trkpt>
      <trkpt lat="47.50674" lon="6.73452">
        <ele>388</ele>
        <time>2015-09-27T09:43:25.000Z</time>
      </trkpt>
      <trkpt lat="47.50672" lon="6.7346">
        <ele>387</ele>
        <time>2015-09-27T09:43:26.000Z</time>
      </trkpt>
      <trkpt lat="47.50669" lon="6.73468">
        <ele>387</ele>
        <time>2015-09-27T09:43:27.000Z</time>
      </trkpt>
      <trkpt lat="47.50666" lon="6.73476">
        <ele>386</ele>
        <time>2015-09-27T09:43:28.000Z</time>
      </trkpt>
      <trkpt lat="47.50662" lon="6.73483">
        <ele>386</ele>
        <time>2015-09-27T09:43:29.000Z</time>
      </trkpt>
      <trkpt lat="47.50656" lon="6.73487">
        <ele>385</ele>
        <time>2015-09-27T09:43:30.000Z</time>
      </trkpt>
      <trkpt lat="47.50653" lon="6.73488">
        <ele>385</ele>
        <time>2015-09-27T09:43:31.000Z</time>
      </trkpt>
      <trkpt lat="47.5065" lon="6.73491">
        <ele>385</ele>
        <time>2015-09-27T09:43:32.000Z</time>
      </trkpt>
      <trkpt lat="47.50651" lon="6.73499">
        <ele>385</ele>
        <time>2015-09-27T09:43:33.000Z</time>
      </trkpt>
      <trkpt lat="47.50651" lon="6.73506">
        <ele>382</ele>
        <time>2015-09-27T09:43:34.000Z</time>
      </trkpt>
      <trkpt lat="47.50647" lon="6.73512">
        <ele>381</ele>
        <time>2015-09-27T09:43:35.000Z</time>
      </trkpt>
      <trkpt lat="47.50644" lon="6.73516">
        <ele>381</ele>
        <time>2015-09-27T09:43:36.000Z</time>
      </trkpt>
      <trkpt lat="47.5064" lon="6.73522">
        <ele>380</ele>
        <time>2015-09-27T09:43:37.000Z</time>
      </trkpt>
      <trkpt lat="47.50637" lon="6.73529">
        <ele>379</ele>
        <time>2015-09-27T09:43:38.000Z</time>
      </trkpt>
      <trkpt lat="47.50633" lon="6.73536">
        <ele>379</ele>
        <time>2015-09-27T09:43:39.000Z</time>
      </trkpt>
      <trkpt lat="47.5063" lon="6.73541">
        <ele>379</ele>
        <time>2015-09-27T09:43:40.000Z</time>
      </trkpt>
      <trkpt lat="47.50631" lon="6.73544">
        <ele>379</ele>
        <time>2015-09-27T09:43:41.000Z</time>
      </trkpt>
      <trkpt lat="47.5063" lon="6.73549">
        <ele>378</ele>
        <time>2015-09-27T09:44:14.000Z</time>
      </trkpt>
      <trkpt lat="47.5063" lon="6.7355">
        <ele>378</ele>
        <time>2015-09-27T09:44:15.000Z</time>
      </trkpt>
      <trkpt lat="47.50632" lon="6.73555">
        <ele>378</ele>
        <time>2015-09-27T09:45:01.000Z</time>
      </trkpt>
      <trkpt lat="47.50631" lon="6.73558">
        <ele>378</ele>
        <time>2015-09-27T09:45:02.000Z</time>
      </trkpt>
      <trkpt lat="47.50635" lon="6.73562">
        <ele>378</ele>
        <time>2015-09-27T09:45:05.000Z</time>
      </trkpt>
      <trkpt lat="47.50637" lon="6.73563">
        <ele>378</ele>
        <time>2015-09-27T09:45:06.000Z</time>
      </trkpt>
      <trkpt lat="47.50639" lon="6.73564">
        <ele>377</ele>
        <time>2015-09-27T09:45:07.000Z</time>
      </trkpt>
      <trkpt lat="47.50641" lon="6.73566">
        <ele>377</ele>
        <time>2015-09-27T09:45:08.000Z</time>
      </trkpt>
      <trkpt lat="47.50643" lon="6.73569">
        <ele>377</ele>
        <time>2015-09-27T09:45:09.000Z</time>
      </trkpt>
      <trkpt lat="47.50645" lon="6.73572">
        <ele>376</ele>
        <time>2015-09-27T09:45:10.000Z</time>
      </trkpt>
      <trkpt lat="47.50649" lon="6.73584">
        <ele>373</ele>
        <time>2015-09-27T09:45:11.000Z</time>
      </trkpt>
      <trkpt lat="47.50651" lon="6.73589">
        <ele>373</ele>
        <time>2015-09-27T09:45:12.000Z</time>
      </trkpt>
      <trkpt lat="47.50654" lon="6.73596">
        <ele>372</ele>
        <time>2015-09-27T09:45:13.000Z</time>
      </trkpt>
      <trkpt lat="47.50656" lon="6.73601">
        <ele>372</ele>
        <time>2015-09-27T09:45:14.000Z</time>
      </trkpt>
      <trkpt lat="47.5066" lon="6.73607">
        <ele>372</ele>
        <time>2015-09-27T09:45:15.000Z</time>
      </trkpt>
      <trkpt lat="47.50662" lon="6.73612">
        <ele>372</ele>
        <time>2015-09-27T09:45:16.000Z</time>
      </trkpt>
      <trkpt lat="47.50664" lon="6.73619">
        <ele>372</ele>
        <time>2015-09-27T09:45:17.000Z</time>
      </trkpt>
      <trkpt lat="47.50665" lon="6.73623">
        <ele>371</ele>
        <time>2015-09-27T09:45:18.000Z</time>
      </trkpt>
      <trkpt lat="47.50665" lon="6.7363">
        <ele>371</ele>
        <time>2015-09-27T09:45:19.000Z</time>
      </trkpt>
      <trkpt lat="47.50663" lon="6.73639">
        <ele>370</ele>
        <time>2015-09-27T09:45:20.000Z</time>
      </trkpt>
      <trkpt lat="47.50662" lon="6.73647">
        <ele>369</ele>
        <time>2015-09-27T09:45:21.000Z</time>
      </trkpt>
      <trkpt lat="47.50662" lon="6.73654">
        <ele>367</ele>
        <time>2015-09-27T09:45:22.000Z</time>
      </trkpt>
      <trkpt lat="47.50661" lon="6.73661">
        <ele>365</ele>
        <time>2015-09-27T09:45:23.000Z</time>
      </trkpt>
      <trkpt lat="47.5066" lon="6.73669">
        <ele>364</ele>
        <time>2015-09-27T09:45:24.000Z</time>
      </trkpt>
      <trkpt lat="47.5066" lon="6.73677">
        <ele>366</ele>
        <time>2015-09-27T09:45:25.000Z</time>
      </trkpt>
      <trkpt lat="47.5066" lon="6.73683">
        <ele>367</ele>
        <time>2015-09-27T09:45:26.000Z</time>
      </trkpt>
      <trkpt lat="47.50659" lon="6.7369">
        <ele>368</ele>
        <time>2015-09-27T09:45:27.000Z</time>
      </trkpt>
      <trkpt lat="47.50659" lon="6.73698">
        <ele>368</ele>
        <time>2015-09-27T09:45:28.000Z</time>
      </trkpt>
      <trkpt lat="47.50658" lon="6.73705">
        <ele>368</ele>
        <time>2015-09-27T09:45:29.000Z</time>
      </trkpt>
      <trkpt lat="47.50658" lon="6.73712">
        <ele>368</ele>
        <time>2015-09-27T09:45:30.000Z</time>
      </trkpt>
      <trkpt lat="47.50658" lon="6.73719">
        <ele>368</ele>
        <time>2015-09-27T09:45:31.000Z</time>
      </trkpt>
      <trkpt lat="47.50658" lon="6.73727">
        <ele>368</ele>
        <time>2015-09-27T09:45:32.000Z</time>
      </trkpt>
      <trkpt lat="47.50658" lon="6.73734">
        <ele>367</ele>
        <time>2015-09-27T09:45:33.000Z</time>
      </trkpt>
      <trkpt lat="47.50657" lon="6.73741">
        <ele>366</ele>
        <time>2015-09-27T09:45:34.000Z</time>
      </trkpt>
      <trkpt lat="47.50657" lon="6.73749">
        <ele>365</ele>
        <time>2015-09-27T09:45:35.000Z</time>
      </trkpt>
      <trkpt lat="47.50656" lon="6.73756">
        <ele>366</ele>
        <time>2015-09-27T09:45:36.000Z</time>
      </trkpt>
      <trkpt lat="47.50656" lon="6.73763">
        <ele>366</ele>
        <time>2015-09-27T09:45:37.000Z</time>
      </trkpt>
      <trkpt lat="47.50655" lon="6.73771">
        <ele>367</ele>
        <time>2015-09-27T09:45:38.000Z</time>
      </trkpt>
      <trkpt lat="47.50655" lon="6.73779">
        <ele>368</ele>
        <time>2015-09-27T09:45:39.000Z</time>
      </trkpt>
      <trkpt lat="47.50654" lon="6.73787">
        <ele>368</ele>
        <time>2015-09-27T09:45:40.000Z</time>
      </trkpt>
      <trkpt lat="47.50654" lon="6.73795">
        <ele>368</ele>
        <time>2015-09-27T09:45:41.000Z</time>
      </trkpt>
      <trkpt lat="47.50653" lon="6.73803">
        <ele>368</ele>
        <time>2015-09-27T09:45:42.000Z</time>
      </trkpt>
      <trkpt lat="47.50653" lon="6.73811">
        <ele>367</ele>
        <time>2015-09-27T09:45:43.000Z</time>
      </trkpt>
      <trkpt lat="47.50653" lon="6.73817">
        <ele>366</ele>
        <time>2015-09-27T09:45:44.000Z</time>
      </trkpt>
      <trkpt lat="47.50652" lon="6.73826">
        <ele>365</ele>
        <time>2015-09-27T09:45:45.000Z</time>
      </trkpt>
      <trkpt lat="47.50651" lon="6.73834">
        <ele>364</ele>
        <time>2015-09-27T09:45:46.000Z</time>
      </trkpt>
      <trkpt lat="47.50651" lon="6.73841">
        <ele>364</ele>
        <time>2015-09-27T09:45:47.000Z</time>
      </trkpt>
      <trkpt lat="47.50648" lon="6.73849">
        <ele>365</ele>
        <time>2015-09-27T09:45:48.000Z</time>
      </trkpt>
      <trkpt lat="47.50647" lon="6.73855">
        <ele>365</ele>
        <time>2015-09-27T09:45:49.000Z</time>
      </trkpt>
      <trkpt lat="47.50645" lon="6.73863">
        <ele>365</ele>
        <time>2015-09-27T09:45:50.000Z</time>
      </trkpt>
      <trkpt lat="47.50642" lon="6.7387">
        <ele>366</ele>
        <time>2015-09-27T09:45:51.000Z</time>
      </trkpt>
      <trkpt lat="47.5064" lon="6.73877">
        <ele>366</ele>
        <time>2015-09-27T09:45:52.000Z</time>
      </trkpt>
      <trkpt lat="47.50638" lon="6.73885">
        <ele>366</ele>
        <time>2015-09-27T09:45:53.000Z</time>
      </trkpt>
      <trkpt lat="47.50635" lon="6.73891">
        <ele>366</ele>
        <time>2015-09-27T09:45:54.000Z</time>
      </trkpt>
      <trkpt lat="47.50633" lon="6.73898">
        <ele>366</ele>
        <time>2015-09-27T09:45:55.000Z</time>
      </trkpt>
      <trkpt lat="47.5063" lon="6.73905">
        <ele>366</ele>
        <time>2015-09-27T09:45:56.000Z</time>
      </trkpt>
      <trkpt lat="47.50627" lon="6.73911">
        <ele>366</ele>
        <time>2015-09-27T09:45:57.000Z</time>
      </trkpt>
      <trkpt lat="47.50623" lon="6.73918">
        <ele>362</ele>
        <time>2015-09-27T09:45:58.000Z</time>
      </trkpt>
      <trkpt lat="47.50621" lon="6.73924">
        <ele>362</ele>
        <time>2015-09-27T09:45:59.000Z</time>
      </trkpt>
      <trkpt lat="47.50618" lon="6.73931">
        <ele>362</ele>
        <time>2015-09-27T09:46:00.000Z</time>
      </trkpt>
      <trkpt lat="47.50614" lon="6.73938">
        <ele>362</ele>
        <time>2015-09-27T09:46:01.000Z</time>
      </trkpt>
      <trkpt lat="47.50611" lon="6.73944">
        <ele>362</ele>
        <time>2015-09-27T09:46:02.000Z</time>
      </trkpt>
      <trkpt lat="47.50608" lon="6.73952">
        <ele>362</ele>
        <time>2015-09-27T09:46:03.000Z</time>
      </trkpt>
      <trkpt lat="47.50605" lon="6.73959">
        <ele>362</ele>
        <time>2015-09-27T09:46:04.000Z</time>
      </trkpt>
      <trkpt lat="47.50602" lon="6.73967">
        <ele>361</ele>
        <time>2015-09-27T09:46:05.000Z</time>
      </trkpt>
      <trkpt lat="47.50598" lon="6.73974">
        <ele>361</ele>
        <time>2015-09-27T09:46:06.000Z</time>
      </trkpt>
      <trkpt lat="47.50594" lon="6.73981">
        <ele>362</ele>
        <time>2015-09-27T09:46:07.000Z</time>
      </trkpt>
      <trkpt lat="47.5059" lon="6.73989">
        <ele>362</ele>
        <time>2015-09-27T09:46:08.000Z</time>
      </trkpt>
      <trkpt lat="47.50586" lon="6.73996">
        <ele>362</ele>
        <time>2015-09-27T09:46:09.000Z</time>
      </trkpt>
      <trkpt lat="47.50584" lon="6.74005">
        <ele>361</ele>
        <time>2015-09-27T09:46:10.000Z</time>
      </trkpt>
      <trkpt lat="47.5058" lon="6.74013">
        <ele>365</ele>
        <time>2015-09-27T09:46:11.000Z</time>
      </trkpt>
      <trkpt lat="47.50577" lon="6.74021">
        <ele>366</ele>
        <time>2015-09-27T09:46:12.000Z</time>
      </trkpt>
      <trkpt lat="47.50573" lon="6.74028">
        <ele>366</ele>
        <time>2015-09-27T09:46:13.000Z</time>
      </trkpt>
      <trkpt lat="47.50571" lon="6.74035">
        <ele>366</ele>
        <time>2015-09-27T09:46:14.000Z</time>
      </trkpt>
      <trkpt lat="47.50569" lon="6.74042">
        <ele>366</ele>
        <time>2015-09-27T09:46:15.000Z</time>
      </trkpt>
      <trkpt lat="47.50567" lon="6.74049">
        <ele>366</ele>
        <time>2015-09-27T09:46:16.000Z</time>
      </trkpt>
      <trkpt lat="47.50564" lon="6.74055">
        <ele>365</ele>
        <time>2015-09-27T09:46:17.000Z</time>
      </trkpt>
      <trkpt lat="47.5056" lon="6.74061">
        <ele>365</ele>
        <time>2015-09-27T09:46:18.000Z</time>
      </trkpt>
      <trkpt lat="47.50556" lon="6.74068">
        <ele>365</ele>
        <time>2015-09-27T09:46:19.000Z</time>
      </trkpt>
      <trkpt lat="47.50553" lon="6.74074">
        <ele>365</ele>
        <time>2015-09-27T09:46:20.000Z</time>
      </trkpt>
      <trkpt lat="47.5055" lon="6.74079">
        <ele>366</ele>
        <time>2015-09-27T09:46:21.000Z</time>
      </trkpt>
      <trkpt lat="47.50549" lon="6.74086">
        <ele>362</ele>
        <time>2015-09-27T09:46:22.000Z</time>
      </trkpt>
      <trkpt lat="47.50548" lon="6.74092">
        <ele>362</ele>
        <time>2015-09-27T09:46:23.000Z</time>
      </trkpt>
      <trkpt lat="47.50544" lon="6.74096">
        <ele>363</ele>
        <time>2015-09-27T09:46:24.000Z</time>
      </trkpt>
      <trkpt lat="47.50541" lon="6.74103">
        <ele>363</ele>
        <time>2015-09-27T09:46:25.000Z</time>
      </trkpt>
      <trkpt lat="47.50538" lon="6.7411">
        <ele>363</ele>
        <time>2015-09-27T09:46:26.000Z</time>
      </trkpt>
      <trkpt lat="47.50536" lon="6.74116">
        <ele>363</ele>
        <time>2015-09-27T09:46:27.000Z</time>
      </trkpt>
      <trkpt lat="47.50533" lon="6.74123">
        <ele>363</ele>
        <time>2015-09-27T09:46:28.000Z</time>
      </trkpt>
      <trkpt lat="47.50531" lon="6.7413">
        <ele>363</ele>
        <time>2015-09-27T09:46:29.000Z</time>
      </trkpt>
      <trkpt lat="47.50528" lon="6.74136">
        <ele>364</ele>
        <time>2015-09-27T09:46:30.000Z</time>
      </trkpt>
      <trkpt lat="47.50526" lon="6.74143">
        <ele>364</ele>
        <time>2015-09-27T09:46:31.000Z</time>
      </trkpt>
      <trkpt lat="47.50523" lon="6.7415">
        <ele>365</ele>
        <time>2015-09-27T09:46:32.000Z</time>
      </trkpt>
      <trkpt lat="47.50521" lon="6.74155">
        <ele>365</ele>
        <time>2015-09-27T09:46:33.000Z</time>
      </trkpt>
      <trkpt lat="47.50518" lon="6.74162">
        <ele>366</ele>
        <time>2015-09-27T09:46:34.000Z</time>
      </trkpt>
      <trkpt lat="47.50517" lon="6.74164">
        <ele>366</ele>
        <time>2015-09-27T09:46:35.000Z</time>
      </trkpt>
      <trkpt lat="47.50514" lon="6.74169">
        <ele>366</ele>
        <time>2015-09-27T09:46:36.000Z</time>
      </trkpt>
      <trkpt lat="47.50513" lon="6.74175">
        <ele>366</ele>
        <time>2015-09-27T09:46:37.000Z</time>
      </trkpt>
      <trkpt lat="47.5051" lon="6.7418">
        <ele>366</ele>
        <time>2015-09-27T09:46:38.000Z</time>
      </trkpt>
      <trkpt lat="47.50508" lon="6.74185">
        <ele>365</ele>
        <time>2015-09-27T09:46:39.000Z</time>
      </trkpt>
      <trkpt lat="47.50505" lon="6.74189">
        <ele>365</ele>
        <time>2015-09-27T09:46:40.000Z</time>
      </trkpt>
      <trkpt lat="47.50504" lon="6.74194">
        <ele>364</ele>
        <time>2015-09-27T09:46:41.000Z</time>
      </trkpt>
      <trkpt lat="47.50502" lon="6.74198">
        <ele>364</ele>
        <time>2015-09-27T09:46:42.000Z</time>
      </trkpt>
      <trkpt lat="47.50501" lon="6.74203">
        <ele>364</ele>
        <time>2015-09-27T09:46:43.000Z</time>
      </trkpt>
      <trkpt lat="47.50498" lon="6.74208">
        <ele>373</ele>
        <time>2015-09-27T09:46:44.000Z</time>
      </trkpt>
      <trkpt lat="47.50495" lon="6.74213">
        <ele>373</ele>
        <time>2015-09-27T09:46:45.000Z</time>
      </trkpt>
      <trkpt lat="47.50492" lon="6.74219">
        <ele>373</ele>
        <time>2015-09-27T09:46:46.000Z</time>
      </trkpt>
      <trkpt lat="47.50489" lon="6.74224">
        <ele>373</ele>
        <time>2015-09-27T09:46:47.000Z</time>
      </trkpt>
      <trkpt lat="47.50485" lon="6.74229">
        <ele>372</ele>
        <time>2015-09-27T09:46:48.000Z</time>
      </trkpt>
      <trkpt lat="47.50474" lon="6.7424">
        <ele>373</ele>
        <time>2015-09-27T09:46:49.000Z</time>
      </trkpt>
      <trkpt lat="47.50467" lon="6.7425">
        <ele>370</ele>
        <time>2015-09-27T09:46:50.000Z</time>
      </trkpt>
      <trkpt lat="47.50462" lon="6.74259">
        <ele>371</ele>
        <time>2015-09-27T09:46:51.000Z</time>
      </trkpt>
      <trkpt lat="47.50459" lon="6.74268">
        <ele>371</ele>
        <time>2015-09-27T09:46:52.000Z</time>
      </trkpt>
      <trkpt lat="47.50455" lon="6.74276">
        <ele>371</ele>
        <time>2015-09-27T09:46:53.000Z</time>
      </trkpt>
      <trkpt lat="47.50451" lon="6.74287">
        <ele>370</ele>
        <time>2015-09-27T09:46:54.000Z</time>
      </trkpt>
      <trkpt lat="47.50447" lon="6.74296">
        <ele>370</ele>
        <time>2015-09-27T09:46:55.000Z</time>
      </trkpt>
      <trkpt lat="47.50444" lon="6.74304">
        <ele>370</ele>
        <time>2015-09-27T09:46:56.000Z</time>
      </trkpt>
      <trkpt lat="47.50441" lon="6.74313">
        <ele>370</ele>
        <time>2015-09-27T09:46:57.000Z</time>
      </trkpt>
      <trkpt lat="47.50437" lon="6.74322">
        <ele>370</ele>
        <time>2015-09-27T09:46:58.000Z</time>
      </trkpt>
      <trkpt lat="47.50434" lon="6.74331">
        <ele>370</ele>
        <time>2015-09-27T09:46:59.000Z</time>
      </trkpt>
      <trkpt lat="47.5043" lon="6.74339">
        <ele>366</ele>
        <time>2015-09-27T09:47:00.000Z</time>
      </trkpt>
      <trkpt lat="47.50427" lon="6.74347">
        <ele>366</ele>
        <time>2015-09-27T09:47:01.000Z</time>
      </trkpt>
      <trkpt lat="47.50424" lon="6.74354">
        <ele>365</ele>
        <time>2015-09-27T09:47:02.000Z</time>
      </trkpt>
      <trkpt lat="47.50421" lon="6.74362">
        <ele>364</ele>
        <time>2015-09-27T09:47:03.000Z</time>
      </trkpt>
      <trkpt lat="47.50419" lon="6.74369">
        <ele>364</ele>
        <time>2015-09-27T09:47:04.000Z</time>
      </trkpt>
      <trkpt lat="47.50416" lon="6.74376">
        <ele>364</ele>
        <time>2015-09-27T09:47:05.000Z</time>
      </trkpt>
      <trkpt lat="47.50412" lon="6.74383">
        <ele>363</ele>
        <time>2015-09-27T09:47:06.000Z</time>
      </trkpt>
      <trkpt lat="47.50408" lon="6.74389">
        <ele>363</ele>
        <time>2015-09-27T09:47:07.000Z</time>
      </trkpt>
      <trkpt lat="47.50405" lon="6.74396">
        <ele>362</ele>
        <time>2015-09-27T09:47:08.000Z</time>
      </trkpt>
      <trkpt lat="47.50401" lon="6.74403">
        <ele>362</ele>
        <time>2015-09-27T09:47:09.000Z</time>
      </trkpt>
      <trkpt lat="47.50398" lon="6.7441">
        <ele>361</ele>
        <time>2015-09-27T09:47:10.000Z</time>
      </trkpt>
      <trkpt lat="47.50395" lon="6.74418">
        <ele>357</ele>
        <time>2015-09-27T09:47:11.000Z</time>
      </trkpt>
      <trkpt lat="47.5039" lon="6.74426">
        <ele>357</ele>
        <time>2015-09-27T09:47:12.000Z</time>
      </trkpt>
      <trkpt lat="47.50387" lon="6.74434">
        <ele>356</ele>
        <time>2015-09-27T09:47:13.000Z</time>
      </trkpt>
      <trkpt lat="47.50384" lon="6.74442">
        <ele>356</ele>
        <time>2015-09-27T09:47:14.000Z</time>
      </trkpt>
      <trkpt lat="47.50382" lon="6.7445">
        <ele>356</ele>
        <time>2015-09-27T09:47:15.000Z</time>
      </trkpt>
      <trkpt lat="47.50378" lon="6.74456">
        <ele>355</ele>
        <time>2015-09-27T09:47:16.000Z</time>
      </trkpt>
      <trkpt lat="47.50376" lon="6.74464">
        <ele>355</ele>
        <time>2015-09-27T09:47:17.000Z</time>
      </trkpt>
      <trkpt lat="47.50374" lon="6.74471">
        <ele>355</ele>
        <time>2015-09-27T09:47:18.000Z</time>
      </trkpt>
      <trkpt lat="47.50372" lon="6.74479">
        <ele>355</ele>
        <time>2015-09-27T09:47:19.000Z</time>
      </trkpt>
      <trkpt lat="47.50371" lon="6.74487">
        <ele>355</ele>
        <time>2015-09-27T09:47:20.000Z</time>
      </trkpt>
      <trkpt lat="47.5037" lon="6.74495">
        <ele>354</ele>
        <time>2015-09-27T09:47:21.000Z</time>
      </trkpt>
      <trkpt lat="47.50372" lon="6.74502">
        <ele>353</ele>
        <time>2015-09-27T09:47:22.000Z</time>
      </trkpt>
      <trkpt lat="47.50374" lon="6.7451">
        <ele>353</ele>
        <time>2015-09-27T09:47:23.000Z</time>
      </trkpt>
      <trkpt lat="47.50376" lon="6.74517">
        <ele>353</ele>
        <time>2015-09-27T09:47:24.000Z</time>
      </trkpt>
      <trkpt lat="47.50379" lon="6.74525">
        <ele>353</ele>
        <time>2015-09-27T09:47:25.000Z</time>
      </trkpt>
      <trkpt lat="47.50381" lon="6.74534">
        <ele>353</ele>
        <time>2015-09-27T09:47:26.000Z</time>
      </trkpt>
      <trkpt lat="47.50383" lon="6.74541">
        <ele>353</ele>
        <time>2015-09-27T09:47:27.000Z</time>
      </trkpt>
      <trkpt lat="47.50385" lon="6.7455">
        <ele>353</ele>
        <time>2015-09-27T09:47:28.000Z</time>
      </trkpt>
      <trkpt lat="47.50386" lon="6.74558">
        <ele>353</ele>
        <time>2015-09-27T09:47:29.000Z</time>
      </trkpt>
      <trkpt lat="47.50388" lon="6.74566">
        <ele>353</ele>
        <time>2015-09-27T09:47:30.000Z</time>
      </trkpt>
      <trkpt lat="47.50389" lon="6.74575">
        <ele>353</ele>
        <time>2015-09-27T09:47:31.000Z</time>
      </trkpt>
      <trkpt lat="47.5039" lon="6.74583">
        <ele>353</ele>
        <time>2015-09-27T09:47:32.000Z</time>
      </trkpt>
      <trkpt lat="47.50391" lon="6.74592">
        <ele>352</ele>
        <time>2015-09-27T09:47:33.000Z</time>
      </trkpt>
      <trkpt lat="47.50392" lon="6.746">
        <ele>352</ele>
        <time>2015-09-27T09:47:34.000Z</time>
      </trkpt>
      <trkpt lat="47.50394" lon="6.74608">
        <ele>352</ele>
        <time>2015-09-27T09:47:35.000Z</time>
      </trkpt>
      <trkpt lat="47.50394" lon="6.74617">
        <ele>352</ele>
        <time>2015-09-27T09:47:36.000Z</time>
      </trkpt>
      <trkpt lat="47.50396" lon="6.74625">
        <ele>352</ele>
        <time>2015-09-27T09:47:37.000Z</time>
      </trkpt>
      <trkpt lat="47.50397" lon="6.74632">
        <ele>352</ele>
        <time>2015-09-27T09:47:38.000Z</time>
      </trkpt>
      <trkpt lat="47.50398" lon="6.74641">
        <ele>352</ele>
        <time>2015-09-27T09:47:39.000Z</time>
      </trkpt>
      <trkpt lat="47.50399" lon="6.74649">
        <ele>352</ele>
        <time>2015-09-27T09:47:40.000Z</time>
      </trkpt>
      <trkpt lat="47.504" lon="6.74657">
        <ele>352</ele>
        <time>2015-09-27T09:47:41.000Z</time>
      </trkpt>
      <trkpt lat="47.504" lon="6.74666">
        <ele>353</ele>
        <time>2015-09-27T09:47:42.000Z</time>
      </trkpt>
      <trkpt lat="47.50401" lon="6.74674">
        <ele>352</ele>
        <time>2015-09-27T09:47:43.000Z</time>
      </trkpt>
      <trkpt lat="47.504" lon="6.74681">
        <ele>352</ele>
        <time>2015-09-27T09:47:44.000Z</time>
      </trkpt>
      <trkpt lat="47.50399" lon="6.74689">
        <ele>352</ele>
        <time>2015-09-27T09:47:45.000Z</time>
      </trkpt>
      <trkpt lat="47.50396" lon="6.74696">
        <ele>352</ele>
        <time>2015-09-27T09:47:46.000Z</time>
      </trkpt>
      <trkpt lat="47.50394" lon="6.74704">
        <ele>351</ele>
        <time>2015-09-27T09:47:47.000Z</time>
      </trkpt>
      <trkpt lat="47.50392" lon="6.74711">
        <ele>351</ele>
        <time>2015-09-27T09:47:48.000Z</time>
      </trkpt>
      <trkpt lat="47.50389" lon="6.74718">
        <ele>351</ele>
        <time>2015-09-27T09:47:49.000Z</time>
      </trkpt>
      <trkpt lat="47.50387" lon="6.74725">
        <ele>351</ele>
        <time>2015-09-27T09:47:50.000Z</time>
      </trkpt>
      <trkpt lat="47.50384" lon="6.74732">
        <ele>351</ele>
        <time>2015-09-27T09:47:51.001Z</time>
      </trkpt>
      <trkpt lat="47.50382" lon="6.7474">
        <ele>351</ele>
        <time>2015-09-27T09:47:52.000Z</time>
      </trkpt>
      <trkpt lat="47.50381" lon="6.74747">
        <ele>351</ele>
        <time>2015-09-27T09:47:53.000Z</time>
      </trkpt>
      <trkpt lat="47.50378" lon="6.74755">
        <ele>350</ele>
        <time>2015-09-27T09:47:54.000Z</time>
      </trkpt>
      <trkpt lat="47.50376" lon="6.74763">
        <ele>350</ele>
        <time>2015-09-27T09:47:55.000Z</time>
      </trkpt>
      <trkpt lat="47.50374" lon="6.7477">
        <ele>350</ele>
        <time>2015-09-27T09:47:56.000Z</time>
      </trkpt>
      <trkpt lat="47.50372" lon="6.74777">
        <ele>350</ele>
        <time>2015-09-27T09:47:57.000Z</time>
      </trkpt>
      <trkpt lat="47.50369" lon="6.74784">
        <ele>350</ele>
        <time>2015-09-27T09:47:58.000Z</time>
      </trkpt>
      <trkpt lat="47.50368" lon="6.74792">
        <ele>350</ele>
        <time>2015-09-27T09:47:59.000Z</time>
      </trkpt>
      <trkpt lat="47.50366" lon="6.74799">
        <ele>350</ele>
        <time>2015-09-27T09:48:00.000Z</time>
      </trkpt>
      <trkpt lat="47.50364" lon="6.74807">
        <ele>350</ele>
        <time>2015-09-27T09:48:01.000Z</time>
      </trkpt>
      <trkpt lat="47.50362" lon="6.74815">
        <ele>349</ele>
        <time>2015-09-27T09:48:02.000Z</time>
      </trkpt>
      <trkpt lat="47.50361" lon="6.74823">
        <ele>349</ele>
        <time>2015-09-27T09:48:03.000Z</time>
      </trkpt>
      <trkpt lat="47.50358" lon="6.74831">
        <ele>349</ele>
        <time>2015-09-27T09:48:04.000Z</time>
      </trkpt>
      <trkpt lat="47.50355" lon="6.74839">
        <ele>348</ele>
        <time>2015-09-27T09:48:05.000Z</time>
      </trkpt>
      <trkpt lat="47.50353" lon="6.74848">
        <ele>348</ele>
        <time>2015-09-27T09:48:06.000Z</time>
      </trkpt>
      <trkpt lat="47.50351" lon="6.74857">
        <ele>348</ele>
        <time>2015-09-27T09:48:07.000Z</time>
      </trkpt>
      <trkpt lat="47.50349" lon="6.74866">
        <ele>348</ele>
        <time>2015-09-27T09:48:08.000Z</time>
      </trkpt>
      <trkpt lat="47.50346" lon="6.74875">
        <ele>348</ele>
        <time>2015-09-27T09:48:09.000Z</time>
      </trkpt>
      <trkpt lat="47.50343" lon="6.74884">
        <ele>348</ele>
        <time>2015-09-27T09:48:10.000Z</time>
      </trkpt>
      <trkpt lat="47.5034" lon="6.74893">
        <ele>348</ele>
        <time>2015-09-27T09:48:11.000Z</time>
      </trkpt>
      <trkpt lat="47.50338" lon="6.74902">
        <ele>347</ele>
        <time>2015-09-27T09:48:12.000Z</time>
      </trkpt>
      <trkpt lat="47.50335" lon="6.74911">
        <ele>347</ele>
        <time>2015-09-27T09:48:13.000Z</time>
      </trkpt>
      <trkpt lat="47.50332" lon="6.7492">
        <ele>346</ele>
        <time>2015-09-27T09:48:14.000Z</time>
      </trkpt>
      <trkpt lat="47.5033" lon="6.74928">
        <ele>345</ele>
        <time>2015-09-27T09:48:15.000Z</time>
      </trkpt>
      <trkpt lat="47.50327" lon="6.74937">
        <ele>344</ele>
        <time>2015-09-27T09:48:16.000Z</time>
      </trkpt>
      <trkpt lat="47.50325" lon="6.74946">
        <ele>344</ele>
        <time>2015-09-27T09:48:17.000Z</time>
      </trkpt>
      <trkpt lat="47.50322" lon="6.74955">
        <ele>344</ele>
        <time>2015-09-27T09:48:18.000Z</time>
      </trkpt>
      <trkpt lat="47.5032" lon="6.74964">
        <ele>344</ele>
        <time>2015-09-27T09:48:19.000Z</time>
      </trkpt>
      <trkpt lat="47.50316" lon="6.74972">
        <ele>344</ele>
        <time>2015-09-27T09:48:20.000Z</time>
      </trkpt>
      <trkpt lat="47.50313" lon="6.7498">
        <ele>345</ele>
        <time>2015-09-27T09:48:21.000Z</time>
      </trkpt>
      <trkpt lat="47.5031" lon="6.74988">
        <ele>345</ele>
        <time>2015-09-27T09:48:22.000Z</time>
      </trkpt>
      <trkpt lat="47.50305" lon="6.74995">
        <ele>344</ele>
        <time>2015-09-27T09:48:23.000Z</time>
      </trkpt>
      <trkpt lat="47.50299" lon="6.75002">
        <ele>345</ele>
        <time>2015-09-27T09:48:24.000Z</time>
      </trkpt>
      <trkpt lat="47.50295" lon="6.75008">
        <ele>344</ele>
        <time>2015-09-27T09:48:25.000Z</time>
      </trkpt>
      <trkpt lat="47.50288" lon="6.75011">
        <ele>343</ele>
        <time>2015-09-27T09:48:26.000Z</time>
      </trkpt>
      <trkpt lat="47.50282" lon="6.75013">
        <ele>343</ele>
        <time>2015-09-27T09:48:27.000Z</time>
      </trkpt>
      <trkpt lat="47.50276" lon="6.7502">
        <ele>342</ele>
        <time>2015-09-27T09:48:28.000Z</time>
      </trkpt>
      <trkpt lat="47.50272" lon="6.75026">
        <ele>342</ele>
        <time>2015-09-27T09:48:29.000Z</time>
      </trkpt>
      <trkpt lat="47.50265" lon="6.7503">
        <ele>342</ele>
        <time>2015-09-27T09:48:30.000Z</time>
      </trkpt>
      <trkpt lat="47.50258" lon="6.7502">
        <ele>341</ele>
        <time>2015-09-27T09:48:31.000Z</time>
      </trkpt>
      <trkpt lat="47.50253" lon="6.75009">
        <ele>339</ele>
        <time>2015-09-27T09:48:32.000Z</time>
      </trkpt>
      <trkpt lat="47.50251" lon="6.74997">
        <ele>338</ele>
        <time>2015-09-27T09:48:33.000Z</time>
      </trkpt>
      <trkpt lat="47.50248" lon="6.74987">
        <ele>336</ele>
        <time>2015-09-27T09:48:34.000Z</time>
      </trkpt>
      <trkpt lat="47.50245" lon="6.74978">
        <ele>336</ele>
        <time>2015-09-27T09:48:35.000Z</time>
      </trkpt>
      <trkpt lat="47.50241" lon="6.74972">
        <ele>336</ele>
        <time>2015-09-27T09:48:36.000Z</time>
      </trkpt>
      <trkpt lat="47.50236" lon="6.74967">
        <ele>336</ele>
        <time>2015-09-27T09:48:37.000Z</time>
      </trkpt>
      <trkpt lat="47.50232" lon="6.74965">
        <ele>336</ele>
        <time>2015-09-27T09:48:38.000Z</time>
      </trkpt>
      <trkpt lat="47.50229" lon="6.74962">
        <ele>336</ele>
        <time>2015-09-27T09:48:39.000Z</time>
      </trkpt>
      <trkpt lat="47.50224" lon="6.74962">
        <ele>336</ele>
        <time>2015-09-27T09:48:40.000Z</time>
      </trkpt>
      <trkpt lat="47.50219" lon="6.74964">
        <ele>336</ele>
        <time>2015-09-27T09:48:41.000Z</time>
      </trkpt>
      <trkpt lat="47.50215" lon="6.74967">
        <ele>336</ele>
        <time>2015-09-27T09:48:42.000Z</time>
      </trkpt>
      <trkpt lat="47.50211" lon="6.74972">
        <ele>336</ele>
        <time>2015-09-27T09:48:43.000Z</time>
      </trkpt>
      <trkpt lat="47.50207" lon="6.74977">
        <ele>336</ele>
        <time>2015-09-27T09:48:44.000Z</time>
      </trkpt>
      <trkpt lat="47.50203" lon="6.74984">
        <ele>335</ele>
        <time>2015-09-27T09:48:45.000Z</time>
      </trkpt>
      <trkpt lat="47.502" lon="6.74991">
        <ele>335</ele>
        <time>2015-09-27T09:48:46.000Z</time>
      </trkpt>
      <trkpt lat="47.50198" lon="6.74999">
        <ele>335</ele>
        <time>2015-09-27T09:48:47.000Z</time>
      </trkpt>
      <trkpt lat="47.50196" lon="6.75007">
        <ele>334</ele>
        <time>2015-09-27T09:48:48.000Z</time>
      </trkpt>
      <trkpt lat="47.50195" lon="6.75016">
        <ele>334</ele>
        <time>2015-09-27T09:48:49.000Z</time>
      </trkpt>
      <trkpt lat="47.50193" lon="6.75026">
        <ele>333</ele>
        <time>2015-09-27T09:48:50.000Z</time>
      </trkpt>
      <trkpt lat="47.50196" lon="6.75036">
        <ele>333</ele>
        <time>2015-09-27T09:48:51.000Z</time>
      </trkpt>
      <trkpt lat="47.50194" lon="6.75045">
        <ele>333</ele>
        <time>2015-09-27T09:48:52.000Z</time>
      </trkpt>
      <trkpt lat="47.50192" lon="6.75054">
        <ele>333</ele>
        <time>2015-09-27T09:48:53.000Z</time>
      </trkpt>
      <trkpt lat="47.50191" lon="6.75064">
        <ele>332</ele>
        <time>2015-09-27T09:48:54.000Z</time>
      </trkpt>
      <trkpt lat="47.50189" lon="6.75074">
        <ele>332</ele>
        <time>2015-09-27T09:48:55.000Z</time>
      </trkpt>
      <trkpt lat="47.50188" lon="6.75084">
        <ele>329</ele>
        <time>2015-09-27T09:48:56.000Z</time>
      </trkpt>
      <trkpt lat="47.50187" lon="6.75095">
        <ele>329</ele>
        <time>2015-09-27T09:48:57.000Z</time>
      </trkpt>
      <trkpt lat="47.50186" lon="6.75105">
        <ele>329</ele>
        <time>2015-09-27T09:48:58.000Z</time>
      </trkpt>
      <trkpt lat="47.50181" lon="6.75115">
        <ele>329</ele>
        <time>2015-09-27T09:48:59.000Z</time>
      </trkpt>
      <trkpt lat="47.50176" lon="6.75124">
        <ele>328</ele>
        <time>2015-09-27T09:48:59.999Z</time>
      </trkpt>
      <trkpt lat="47.50172" lon="6.75132">
        <ele>328</ele>
        <time>2015-09-27T09:49:01.000Z</time>
      </trkpt>
      <trkpt lat="47.50167" lon="6.75141">
        <ele>327</ele>
        <time>2015-09-27T09:49:02.000Z</time>
      </trkpt>
      <trkpt lat="47.50158" lon="6.75141">
        <ele>326</ele>
        <time>2015-09-27T09:49:03.000Z</time>
      </trkpt>
      <trkpt lat="47.5015" lon="6.75149">
        <ele>325</ele>
        <time>2015-09-27T09:49:04.000Z</time>
      </trkpt>
      <trkpt lat="47.50143" lon="6.75154">
        <ele>325</ele>
        <time>2015-09-27T09:49:05.000Z</time>
      </trkpt>
      <trkpt lat="47.50137" lon="6.7516">
        <ele>326</ele>
        <time>2015-09-27T09:49:06.000Z</time>
      </trkpt>
      <trkpt lat="47.50131" lon="6.75164">
        <ele>326</ele>
        <time>2015-09-27T09:49:07.000Z</time>
      </trkpt>
      <trkpt lat="47.50125" lon="6.7517">
        <ele>323</ele>
        <time>2015-09-27T09:49:08.000Z</time>
      </trkpt>
      <trkpt lat="47.50118" lon="6.75173">
        <ele>323</ele>
        <time>2015-09-27T09:49:09.000Z</time>
      </trkpt>
      <trkpt lat="47.50112" lon="6.75178">
        <ele>323</ele>
        <time>2015-09-27T09:49:10.000Z</time>
      </trkpt>
      <trkpt lat="47.50105" lon="6.75182">
        <ele>323</ele>
        <time>2015-09-27T09:49:11.000Z</time>
      </trkpt>
      <trkpt lat="47.50098" lon="6.75185">
        <ele>323</ele>
        <time>2015-09-27T09:49:12.000Z</time>
      </trkpt>
      <trkpt lat="47.50092" lon="6.75189">
        <ele>323</ele>
        <time>2015-09-27T09:49:13.001Z</time>
      </trkpt>
      <trkpt lat="47.50085" lon="6.75191">
        <ele>323</ele>
        <time>2015-09-27T09:49:14.000Z</time>
      </trkpt>
      <trkpt lat="47.50078" lon="6.75193">
        <ele>323</ele>
        <time>2015-09-27T09:49:15.000Z</time>
      </trkpt>
      <trkpt lat="47.50072" lon="6.75196">
        <ele>323</ele>
        <time>2015-09-27T09:49:16.001Z</time>
      </trkpt>
      <trkpt lat="47.50066" lon="6.75198">
        <ele>322</ele>
        <time>2015-09-27T09:49:17.000Z</time>
      </trkpt>
      <trkpt lat="47.50059" lon="6.75198">
        <ele>322</ele>
        <time>2015-09-27T09:49:18.000Z</time>
      </trkpt>
      <trkpt lat="47.50053" lon="6.75199">
        <ele>322</ele>
        <time>2015-09-27T09:49:19.000Z</time>
      </trkpt>
      <trkpt lat="47.50047" lon="6.752">
        <ele>322</ele>
        <time>2015-09-27T09:49:20.000Z</time>
      </trkpt>
      <trkpt lat="47.50042" lon="6.752">
        <ele>322</ele>
        <time>2015-09-27T09:49:21.000Z</time>
      </trkpt>
      <trkpt lat="47.50036" lon="6.75201">
        <ele>322</ele>
        <time>2015-09-27T09:49:22.000Z</time>
      </trkpt>
      <trkpt lat="47.50031" lon="6.75206">
        <ele>322</ele>
        <time>2015-09-27T09:49:23.000Z</time>
      </trkpt>
      <trkpt lat="47.50025" lon="6.75211">
        <ele>322</ele>
        <time>2015-09-27T09:49:24.000Z</time>
      </trkpt>
      <trkpt lat="47.5002" lon="6.75214">
        <ele>322</ele>
        <time>2015-09-27T09:49:25.000Z</time>
      </trkpt>
      <trkpt lat="47.50015" lon="6.75221">
        <ele>322</ele>
        <time>2015-09-27T09:49:26.000Z</time>
      </trkpt>
      <trkpt lat="47.50011" lon="6.75227">
        <ele>322</ele>
        <time>2015-09-27T09:49:27.000Z</time>
      </trkpt>
      <trkpt lat="47.50008" lon="6.75234">
        <ele>322</ele>
        <time>2015-09-27T09:49:28.000Z</time>
      </trkpt>
      <trkpt lat="47.50005" lon="6.75241">
        <ele>321</ele>
        <time>2015-09-27T09:49:29.000Z</time>
      </trkpt>
      <trkpt lat="47.50004" lon="6.75249">
        <ele>321</ele>
        <time>2015-09-27T09:49:30.000Z</time>
      </trkpt>
      <trkpt lat="47.50003" lon="6.75257">
        <ele>321</ele>
        <time>2015-09-27T09:49:31.000Z</time>
      </trkpt>
      <trkpt lat="47.50002" lon="6.75264">
        <ele>322</ele>
        <time>2015-09-27T09:49:32.000Z</time>
      </trkpt>
      <trkpt lat="47.50002" lon="6.75272">
        <ele>322</ele>
        <time>2015-09-27T09:49:32.999Z</time>
      </trkpt>
      <trkpt lat="47.50004" lon="6.75281">
        <ele>322</ele>
        <time>2015-09-27T09:49:34.000Z</time>
      </trkpt>
      <trkpt lat="47.50005" lon="6.75289">
        <ele>322</ele>
        <time>2015-09-27T09:49:35.000Z</time>
      </trkpt>
      <trkpt lat="47.50006" lon="6.75297">
        <ele>322</ele>
        <time>2015-09-27T09:49:36.000Z</time>
      </trkpt>
      <trkpt lat="47.50007" lon="6.75305">
        <ele>322</ele>
        <time>2015-09-27T09:49:37.000Z</time>
      </trkpt>
      <trkpt lat="47.50008" lon="6.75311">
        <ele>323</ele>
        <time>2015-09-27T09:49:38.000Z</time>
      </trkpt>
      <trkpt lat="47.50008" lon="6.75318">
        <ele>323</ele>
        <time>2015-09-27T09:49:39.000Z</time>
      </trkpt>
      <trkpt lat="47.50008" lon="6.75326">
        <ele>323</ele>
        <time>2015-09-27T09:49:40.000Z</time>
      </trkpt>
      <trkpt lat="47.50009" lon="6.75335">
        <ele>325</ele>
        <time>2015-09-27T09:49:41.000Z</time>
      </trkpt>
      <trkpt lat="47.5001" lon="6.75342">
        <ele>325</ele>
        <time>2015-09-27T09:49:42.000Z</time>
      </trkpt>
      <trkpt lat="47.5001" lon="6.75349">
        <ele>326</ele>
        <time>2015-09-27T09:49:43.000Z</time>
      </trkpt>
      <trkpt lat="47.5001" lon="6.75355">
        <ele>327</ele>
        <time>2015-09-27T09:49:44.000Z</time>
      </trkpt>
      <trkpt lat="47.50009" lon="6.7536">
        <ele>327</ele>
        <time>2015-09-27T09:49:45.000Z</time>
      </trkpt>
      <trkpt lat="47.50008" lon="6.75366">
        <ele>327</ele>
        <time>2015-09-27T09:49:46.000Z</time>
      </trkpt>
      <trkpt lat="47.50007" lon="6.75369">
        <ele>328</ele>
        <time>2015-09-27T09:49:47.000Z</time>
      </trkpt>
      <trkpt lat="47.50005" lon="6.75373">
        <ele>328</ele>
        <time>2015-09-27T09:49:48.000Z</time>
      </trkpt>
      <trkpt lat="47.50004" lon="6.75377">
        <ele>328</ele>
        <time>2015-09-27T09:49:49.000Z</time>
      </trkpt>
      <trkpt lat="47.50002" lon="6.75381">
        <ele>329</ele>
        <time>2015-09-27T09:49:50.000Z</time>
      </trkpt>
      <trkpt lat="47.50001" lon="6.75386">
        <ele>329</ele>
        <time>2015-09-27T09:49:51.000Z</time>
      </trkpt>
      <trkpt lat="47.5" lon="6.75391">
        <ele>327</ele>
        <time>2015-09-27T09:49:52.000Z</time>
      </trkpt>
      <trkpt lat="47.49997" lon="6.75395">
        <ele>328</ele>
        <time>2015-09-27T09:49:53.000Z</time>
      </trkpt>
      <trkpt lat="47.49995" lon="6.754">
        <ele>328</ele>
        <time>2015-09-27T09:49:54.000Z</time>
      </trkpt>
      <trkpt lat="47.49992" lon="6.75404">
        <ele>329</ele>
        <time>2015-09-27T09:49:55.000Z</time>
      </trkpt>
      <trkpt lat="47.4999" lon="6.75409">
        <ele>329</ele>
        <time>2015-09-27T09:49:56.000Z</time>
      </trkpt>
      <trkpt lat="47.49988" lon="6.75413">
        <ele>329</ele>
        <time>2015-09-27T09:49:57.000Z</time>
      </trkpt>
      <trkpt lat="47.49987" lon="6.75419">
        <ele>333</ele>
        <time>2015-09-27T09:50:01.000Z</time>
      </trkpt>
      <trkpt lat="47.49986" lon="6.7542">
        <ele>333</ele>
        <time>2015-09-27T09:50:02.000Z</time>
      </trkpt>
      <trkpt lat="47.49989" lon="6.75415">
        <ele>329</ele>
        <time>2015-09-27T09:51:32.000Z</time>
      </trkpt>
      <trkpt lat="47.49989" lon="6.75415">
        <ele>329</ele>
        <time>2015-09-27T09:51:33.000Z</time>
      </trkpt>
      <trkpt lat="47.49991" lon="6.75421">
        <ele>333</ele>
        <time>2015-09-27T09:52:00.000Z</time>
      </trkpt>
      <trkpt lat="47.49993" lon="6.75423">
        <ele>333</ele>
        <time>2015-09-27T09:52:01.000Z</time>
      </trkpt>
      <trkpt lat="47.49995" lon="6.75425">
        <ele>333</ele>
        <time>2015-09-27T09:52:02.000Z</time>
      </trkpt>
      <trkpt lat="47.49996" lon="6.75428">
        <ele>333</ele>
        <time>2015-09-27T09:52:03.000Z</time>
      </trkpt>
      <trkpt lat="47.49997" lon="6.75431">
        <ele>334</ele>
        <time>2015-09-27T09:52:04.000Z</time>
      </trkpt>
      <trkpt lat="47.49998" lon="6.75435">
        <ele>334</ele>
        <time>2015-09-27T09:52:05.000Z</time>
      </trkpt>
      <trkpt lat="47.49999" lon="6.75438">
        <ele>335</ele>
        <time>2015-09-27T09:52:06.000Z</time>
      </trkpt>
      <trkpt lat="47.5" lon="6.75442">
        <ele>336</ele>
        <time>2015-09-27T09:52:07.000Z</time>
      </trkpt>
      <trkpt lat="47.50001" lon="6.75446">
        <ele>336</ele>
        <time>2015-09-27T09:52:08.000Z</time>
      </trkpt>
      <trkpt lat="47.50003" lon="6.7545">
        <ele>337</ele>
        <time>2015-09-27T09:52:09.000Z</time>
      </trkpt>
      <trkpt lat="47.50004" lon="6.75453">
        <ele>337</ele>
        <time>2015-09-27T09:52:10.000Z</time>
      </trkpt>
      <trkpt lat="47.50006" lon="6.75457">
        <ele>338</ele>
        <time>2015-09-27T09:52:11.000Z</time>
      </trkpt>
      <trkpt lat="47.50007" lon="6.75461">
        <ele>338</ele>
        <time>2015-09-27T09:52:12.000Z</time>
      </trkpt>
      <trkpt lat="47.50009" lon="6.75465">
        <ele>338</ele>
        <time>2015-09-27T09:52:13.000Z</time>
      </trkpt>
      <trkpt lat="47.5001" lon="6.75468">
        <ele>339</ele>
        <time>2015-09-27T09:52:14.000Z</time>
      </trkpt>
      <trkpt lat="47.50012" lon="6.75472">
        <ele>339</ele>
        <time>2015-09-27T09:52:15.000Z</time>
      </trkpt>
      <trkpt lat="47.50014" lon="6.75477">
        <ele>340</ele>
        <time>2015-09-27T09:52:16.000Z</time>
      </trkpt>
      <trkpt lat="47.50016" lon="6.75481">
        <ele>340</ele>
        <time>2015-09-27T09:52:17.000Z</time>
      </trkpt>
      <trkpt lat="47.50017" lon="6.75486">
        <ele>340</ele>
        <time>2015-09-27T09:52:18.000Z</time>
      </trkpt>
      <trkpt lat="47.50018" lon="6.75491">
        <ele>341</ele>
        <time>2015-09-27T09:52:19.000Z</time>
      </trkpt>
      <trkpt lat="47.50018" lon="6.75496">
        <ele>341</ele>
        <time>2015-09-27T09:52:20.000Z</time>
      </trkpt>
      <trkpt lat="47.50017" lon="6.755">
        <ele>345</ele>
        <time>2015-09-27T09:52:21.000Z</time>
      </trkpt>
      <trkpt lat="47.50016" lon="6.75505">
        <ele>345</ele>
        <time>2015-09-27T09:52:22.000Z</time>
      </trkpt>
      <trkpt lat="47.50016" lon="6.75509">
        <ele>345</ele>
        <time>2015-09-27T09:52:23.000Z</time>
      </trkpt>
      <trkpt lat="47.50015" lon="6.75515">
        <ele>345</ele>
        <time>2015-09-27T09:52:25.000Z</time>
      </trkpt>
      <trkpt lat="47.50016" lon="6.75518">
        <ele>345</ele>
        <time>2015-09-27T09:52:26.000Z</time>
      </trkpt>
      <trkpt lat="47.50017" lon="6.75521">
        <ele>345</ele>
        <time>2015-09-27T09:52:27.000Z</time>
      </trkpt>
      <trkpt lat="47.50018" lon="6.75524">
        <ele>345</ele>
        <time>2015-09-27T09:52:28.000Z</time>
      </trkpt>
      <trkpt lat="47.50018" lon="6.75528">
        <ele>345</ele>
        <time>2015-09-27T09:52:29.000Z</time>
      </trkpt>
      <trkpt lat="47.50019" lon="6.75531">
        <ele>345</ele>
        <time>2015-09-27T09:52:30.000Z</time>
      </trkpt>
      <trkpt lat="47.5002" lon="6.75534">
        <ele>346</ele>
        <time>2015-09-27T09:52:31.000Z</time>
      </trkpt>
      <trkpt lat="47.50021" lon="6.75537">
        <ele>346</ele>
        <time>2015-09-27T09:52:32.000Z</time>
      </trkpt>
      <trkpt lat="47.50022" lon="6.7554">
        <ele>346</ele>
        <time>2015-09-27T09:52:33.000Z</time>
      </trkpt>
      <trkpt lat="47.50023" lon="6.75543">
        <ele>346</ele>
        <time>2015-09-27T09:52:34.000Z</time>
      </trkpt>
      <trkpt lat="47.50025" lon="6.75548">
        <ele>346</ele>
        <time>2015-09-27T09:52:36.000Z</time>
      </trkpt>
      <trkpt lat="47.50027" lon="6.75551">
        <ele>346</ele>
        <time>2015-09-27T09:52:37.000Z</time>
      </trkpt>
      <trkpt lat="47.50029" lon="6.75556">
        <ele>346</ele>
        <time>2015-09-27T09:52:39.000Z</time>
      </trkpt>
      <trkpt lat="47.5003" lon="6.75559">
        <ele>347</ele>
        <time>2015-09-27T09:52:40.000Z</time>
      </trkpt>
      <trkpt lat="47.50032" lon="6.75565">
        <ele>347</ele>
        <time>2015-09-27T09:52:42.000Z</time>
      </trkpt>
      <trkpt lat="47.50033" lon="6.75568">
        <ele>347</ele>
        <time>2015-09-27T09:52:43.000Z</time>
      </trkpt>
      <trkpt lat="47.50034" lon="6.75571">
        <ele>347</ele>
        <time>2015-09-27T09:52:44.000Z</time>
      </trkpt>
      <trkpt lat="47.50034" lon="6.75574">
        <ele>347</ele>
        <time>2015-09-27T09:52:45.000Z</time>
      </trkpt>
      <trkpt lat="47.50035" lon="6.75577">
        <ele>347</ele>
        <time>2015-09-27T09:52:46.000Z</time>
      </trkpt>
      <trkpt lat="47.50036" lon="6.7558">
        <ele>347</ele>
        <time>2015-09-27T09:52:47.000Z</time>
      </trkpt>
      <trkpt lat="47.50037" lon="6.75583">
        <ele>347</ele>
        <time>2015-09-27T09:52:48.000Z</time>
      </trkpt>
      <trkpt lat="47.50039" lon="6.75586">
        <ele>352</ele>
        <time>2015-09-27T09:52:49.000Z</time>
      </trkpt>
      <trkpt lat="47.50041" lon="6.75591">
        <ele>352</ele>
        <time>2015-09-27T09:52:51.000Z</time>
      </trkpt>
      <trkpt lat="47.50042" lon="6.75594">
        <ele>352</ele>
        <time>2015-09-27T09:52:52.000Z</time>
      </trkpt>
      <trkpt lat="47.50044" lon="6.75596">
        <ele>352</ele>
        <time>2015-09-27T09:52:53.000Z</time>
      </trkpt>
      <trkpt lat="47.50045" lon="6.75599">
        <ele>352</ele>
        <time>2015-09-27T09:52:54.000Z</time>
      </trkpt>
      <trkpt lat="47.50047" lon="6.75601">
        <ele>352</ele>
        <time>2015-09-27T09:52:55.000Z</time>
      </trkpt>
      <trkpt lat="47.50048" lon="6.75604">
        <ele>352</ele>
        <time>2015-09-27T09:52:56.000Z</time>
      </trkpt>
      <trkpt lat="47.5005" lon="6.75606">
        <ele>352</ele>
        <time>2015-09-27T09:52:57.000Z</time>
      </trkpt>
      <trkpt lat="47.50051" lon="6.7561">
        <ele>352</ele>
        <time>2015-09-27T09:52:58.000Z</time>
      </trkpt>
      <trkpt lat="47.50052" lon="6.75613">
        <ele>352</ele>
        <time>2015-09-27T09:52:59.000Z</time>
      </trkpt>
      <trkpt lat="47.50053" lon="6.75616">
        <ele>352</ele>
        <time>2015-09-27T09:53:00.000Z</time>
      </trkpt>
      <trkpt lat="47.50054" lon="6.75618">
        <ele>353</ele>
        <time>2015-09-27T09:53:01.000Z</time>
      </trkpt>
      <trkpt lat="47.50056" lon="6.75621">
        <ele>353</ele>
        <time>2015-09-27T09:53:02.000Z</time>
      </trkpt>
      <trkpt lat="47.50057" lon="6.75624">
        <ele>353</ele>
        <time>2015-09-27T09:53:03.000Z</time>
      </trkpt>
      <trkpt lat="47.50057" lon="6.75627">
        <ele>353</ele>
        <time>2015-09-27T09:53:04.000Z</time>
      </trkpt>
      <trkpt lat="47.50058" lon="6.75631">
        <ele>353</ele>
        <time>2015-09-27T09:53:05.000Z</time>
      </trkpt>
      <trkpt lat="47.50058" lon="6.75635">
        <ele>354</ele>
        <time>2015-09-27T09:53:06.000Z</time>
      </trkpt>
      <trkpt lat="47.50059" lon="6.75638">
        <ele>354</ele>
        <time>2015-09-27T09:53:07.000Z</time>
      </trkpt>
      <trkpt lat="47.50061" lon="6.75641">
        <ele>354</ele>
        <time>2015-09-27T09:53:08.000Z</time>
      </trkpt>
      <trkpt lat="47.50064" lon="6.75645">
        <ele>354</ele>
        <time>2015-09-27T09:53:10.000Z</time>
      </trkpt>
      <trkpt lat="47.50066" lon="6.75647">
        <ele>354</ele>
        <time>2015-09-27T09:53:11.000Z</time>
      </trkpt>
      <trkpt lat="47.50069" lon="6.75651">
        <ele>354</ele>
        <time>2015-09-27T09:53:13.000Z</time>
      </trkpt>
      <trkpt lat="47.5007" lon="6.75653">
        <ele>354</ele>
        <time>2015-09-27T09:53:14.000Z</time>
      </trkpt>
      <trkpt lat="47.50073" lon="6.75658">
        <ele>354</ele>
        <time>2015-09-27T09:53:16.000Z</time>
      </trkpt>
      <trkpt lat="47.50074" lon="6.75661">
        <ele>353</ele>
        <time>2015-09-27T09:53:17.000Z</time>
      </trkpt>
      <trkpt lat="47.50076" lon="6.75666">
        <ele>353</ele>
        <time>2015-09-27T09:53:19.000Z</time>
      </trkpt>
      <trkpt lat="47.50078" lon="6.75668">
        <ele>356</ele>
        <time>2015-09-27T09:53:20.000Z</time>
      </trkpt>
      <trkpt lat="47.5008" lon="6.75673">
        <ele>356</ele>
        <time>2015-09-27T09:53:22.000Z</time>
      </trkpt>
      <trkpt lat="47.50082" lon="6.75675">
        <ele>357</ele>
        <time>2015-09-27T09:53:23.000Z</time>
      </trkpt>
      <trkpt lat="47.50083" lon="6.75677">
        <ele>357</ele>
        <time>2015-09-27T09:53:24.000Z</time>
      </trkpt>
      <trkpt lat="47.50085" lon="6.7568">
        <ele>356</ele>
        <time>2015-09-27T09:53:25.000Z</time>
      </trkpt>
      <trkpt lat="47.50087" lon="6.75682">
        <ele>356</ele>
        <time>2015-09-27T09:53:26.000Z</time>
      </trkpt>
      <trkpt lat="47.50088" lon="6.75685">
        <ele>357</ele>
        <time>2015-09-27T09:53:27.000Z</time>
      </trkpt>
      <trkpt lat="47.5009" lon="6.75687">
        <ele>357</ele>
        <time>2015-09-27T09:53:28.000Z</time>
      </trkpt>
      <trkpt lat="47.50092" lon="6.7569">
        <ele>357</ele>
        <time>2015-09-27T09:53:29.000Z</time>
      </trkpt>
      <trkpt lat="47.50094" lon="6.75692">
        <ele>358</ele>
        <time>2015-09-27T09:53:30.000Z</time>
      </trkpt>
      <trkpt lat="47.50096" lon="6.75694">
        <ele>358</ele>
        <time>2015-09-27T09:53:31.000Z</time>
      </trkpt>
      <trkpt lat="47.50098" lon="6.75697">
        <ele>358</ele>
        <time>2015-09-27T09:53:32.000Z</time>
      </trkpt>
      <trkpt lat="47.501" lon="6.757">
        <ele>359</ele>
        <time>2015-09-27T09:53:33.000Z</time>
      </trkpt>
      <trkpt lat="47.50102" lon="6.75702">
        <ele>359</ele>
        <time>2015-09-27T09:53:34.000Z</time>
      </trkpt>
      <trkpt lat="47.50103" lon="6.75705">
        <ele>359</ele>
        <time>2015-09-27T09:53:35.000Z</time>
      </trkpt>
      <trkpt lat="47.50106" lon="6.75708">
        <ele>359</ele>
        <time>2015-09-27T09:53:37.000Z</time>
      </trkpt>
      <trkpt lat="47.50107" lon="6.75709">
        <ele>359</ele>
        <time>2015-09-27T09:53:38.000Z</time>
      </trkpt>
      <trkpt lat="47.5011" lon="6.75711">
        <ele>360</ele>
        <time>2015-09-27T09:53:40.000Z</time>
      </trkpt>
      <trkpt lat="47.50112" lon="6.75713">
        <ele>360</ele>
        <time>2015-09-27T09:53:41.000Z</time>
      </trkpt>
      <trkpt lat="47.50114" lon="6.75717">
        <ele>360</ele>
        <time>2015-09-27T09:53:43.000Z</time>
      </trkpt>
      <trkpt lat="47.50115" lon="6.7572">
        <ele>360</ele>
        <time>2015-09-27T09:53:44.000Z</time>
      </trkpt>
      <trkpt lat="47.50118" lon="6.75724">
        <ele>360</ele>
        <time>2015-09-27T09:53:46.000Z</time>
      </trkpt>
      <trkpt lat="47.50119" lon="6.75726">
        <ele>360</ele>
        <time>2015-09-27T09:53:47.000Z</time>
      </trkpt>
      <trkpt lat="47.50123" lon="6.7573">
        <ele>360</ele>
        <time>2015-09-27T09:53:49.000Z</time>
      </trkpt>
      <trkpt lat="47.50124" lon="6.75732">
        <ele>360</ele>
        <time>2015-09-27T09:53:50.000Z</time>
      </trkpt>
      <trkpt lat="47.50127" lon="6.75735">
        <ele>360</ele>
        <time>2015-09-27T09:53:52.000Z</time>
      </trkpt>
      <trkpt lat="47.50129" lon="6.75737">
        <ele>360</ele>
        <time>2015-09-27T09:53:53.000Z</time>
      </trkpt>
      <trkpt lat="47.50131" lon="6.75742">
        <ele>360</ele>
        <time>2015-09-27T09:53:55.000Z</time>
      </trkpt>
      <trkpt lat="47.50132" lon="6.75744">
        <ele>360</ele>
        <time>2015-09-27T09:53:56.000Z</time>
      </trkpt>
      <trkpt lat="47.50134" lon="6.75747">
        <ele>360</ele>
        <time>2015-09-27T09:53:58.000Z</time>
      </trkpt>
      <trkpt lat="47.50136" lon="6.75749">
        <ele>360</ele>
        <time>2015-09-27T09:53:59.000Z</time>
      </trkpt>
      <trkpt lat="47.50139" lon="6.75753">
        <ele>362</ele>
        <time>2015-09-27T09:54:01.000Z</time>
      </trkpt>
      <trkpt lat="47.50141" lon="6.75756">
        <ele>362</ele>
        <time>2015-09-27T09:54:02.000Z</time>
      </trkpt>
      <trkpt lat="47.50143" lon="6.75759">
        <ele>362</ele>
        <time>2015-09-27T09:54:03.000Z</time>
      </trkpt>
      <trkpt lat="47.50146" lon="6.75761">
        <ele>362</ele>
        <time>2015-09-27T09:54:04.000Z</time>
      </trkpt>
      <trkpt lat="47.50148" lon="6.75764">
        <ele>362</ele>
        <time>2015-09-27T09:54:05.000Z</time>
      </trkpt>
      <trkpt lat="47.5015" lon="6.75767">
        <ele>362</ele>
        <time>2015-09-27T09:54:06.000Z</time>
      </trkpt>
      <trkpt lat="47.50152" lon="6.75769">
        <ele>362</ele>
        <time>2015-09-27T09:54:07.000Z</time>
      </trkpt>
      <trkpt lat="47.50154" lon="6.75772">
        <ele>362</ele>
        <time>2015-09-27T09:54:08.000Z</time>
      </trkpt>
      <trkpt lat="47.50156" lon="6.75774">
        <ele>362</ele>
        <time>2015-09-27T09:54:09.000Z</time>
      </trkpt>
      <trkpt lat="47.50158" lon="6.75776">
        <ele>362</ele>
        <time>2015-09-27T09:54:10.000Z</time>
      </trkpt>
      <trkpt lat="47.50159" lon="6.75778">
        <ele>362</ele>
        <time>2015-09-27T09:54:11.000Z</time>
      </trkpt>
      <trkpt lat="47.50161" lon="6.7578">
        <ele>362</ele>
        <time>2015-09-27T09:54:12.000Z</time>
      </trkpt>
      <trkpt lat="47.50163" lon="6.75783">
        <ele>362</ele>
        <time>2015-09-27T09:54:13.000Z</time>
      </trkpt>
      <trkpt lat="47.50164" lon="6.75785">
        <ele>362</ele>
        <time>2015-09-27T09:54:14.000Z</time>
      </trkpt>
      <trkpt lat="47.50166" lon="6.75788">
        <ele>362</ele>
        <time>2015-09-27T09:54:15.000Z</time>
      </trkpt>
      <trkpt lat="47.50168" lon="6.7579">
        <ele>362</ele>
        <time>2015-09-27T09:54:16.000Z</time>
      </trkpt>
      <trkpt lat="47.50169" lon="6.75793">
        <ele>362</ele>
        <time>2015-09-27T09:54:17.000Z</time>
      </trkpt>
      <trkpt lat="47.5017" lon="6.75796">
        <ele>362</ele>
        <time>2015-09-27T09:54:18.000Z</time>
      </trkpt>
      <trkpt lat="47.50173" lon="6.75801">
        <ele>362</ele>
        <time>2015-09-27T09:54:20.000Z</time>
      </trkpt>
      <trkpt lat="47.50174" lon="6.75804">
        <ele>362</ele>
        <time>2015-09-27T09:54:21.000Z</time>
      </trkpt>
      <trkpt lat="47.50175" lon="6.75807">
        <ele>362</ele>
        <time>2015-09-27T09:54:22.000Z</time>
      </trkpt>
      <trkpt lat="47.50176" lon="6.75809">
        <ele>362</ele>
        <time>2015-09-27T09:54:23.000Z</time>
      </trkpt>
      <trkpt lat="47.50179" lon="6.75814">
        <ele>362</ele>
        <time>2015-09-27T09:54:25.000Z</time>
      </trkpt>
      <trkpt lat="47.5018" lon="6.75817">
        <ele>362</ele>
        <time>2015-09-27T09:54:26.000Z</time>
      </trkpt>
      <trkpt lat="47.50182" lon="6.75822">
        <ele>362</ele>
        <time>2015-09-27T09:54:28.000Z</time>
      </trkpt>
      <trkpt lat="47.50183" lon="6.75825">
        <ele>362</ele>
        <time>2015-09-27T09:54:29.000Z</time>
      </trkpt>
      <trkpt lat="47.50184" lon="6.75828">
        <ele>362</ele>
        <time>2015-09-27T09:54:30.000Z</time>
      </trkpt>
      <trkpt lat="47.50186" lon="6.7583">
        <ele>362</ele>
        <time>2015-09-27T09:54:31.000Z</time>
      </trkpt>
      <trkpt lat="47.50188" lon="6.75835">
        <ele>363</ele>
        <time>2015-09-27T09:54:33.000Z</time>
      </trkpt>
      <trkpt lat="47.50189" lon="6.75838">
        <ele>363</ele>
        <time>2015-09-27T09:54:34.000Z</time>
      </trkpt>
      <trkpt lat="47.50192" lon="6.75842">
        <ele>364</ele>
        <time>2015-09-27T09:54:36.000Z</time>
      </trkpt>
      <trkpt lat="47.50193" lon="6.75845">
        <ele>364</ele>
        <time>2015-09-27T09:54:37.000Z</time>
      </trkpt>
      <trkpt lat="47.50196" lon="6.7585">
        <ele>364</ele>
        <time>2015-09-27T09:54:39.000Z</time>
      </trkpt>
      <trkpt lat="47.50197" lon="6.75852">
        <ele>364</ele>
        <time>2015-09-27T09:54:40.000Z</time>
      </trkpt>
      <trkpt lat="47.50199" lon="6.75857">
        <ele>365</ele>
        <time>2015-09-27T09:54:42.000Z</time>
      </trkpt>
      <trkpt lat="47.502" lon="6.7586">
        <ele>365</ele>
        <time>2015-09-27T09:54:43.000Z</time>
      </trkpt>
      <trkpt lat="47.50203" lon="6.75865">
        <ele>365</ele>
        <time>2015-09-27T09:54:45.000Z</time>
      </trkpt>
      <trkpt lat="47.50204" lon="6.75867">
        <ele>365</ele>
        <time>2015-09-27T09:54:46.000Z</time>
      </trkpt>
      <trkpt lat="47.50206" lon="6.7587">
        <ele>365</ele>
        <time>2015-09-27T09:54:47.000Z</time>
      </trkpt>
      <trkpt lat="47.50207" lon="6.75873">
        <ele>365</ele>
        <time>2015-09-27T09:54:48.000Z</time>
      </trkpt>
      <trkpt lat="47.50209" lon="6.75878">
        <ele>365</ele>
        <time>2015-09-27T09:54:50.000Z</time>
      </trkpt>
      <trkpt lat="47.5021" lon="6.7588">
        <ele>365</ele>
        <time>2015-09-27T09:54:51.000Z</time>
      </trkpt>
      <trkpt lat="47.50212" lon="6.75885">
        <ele>365</ele>
        <time>2015-09-27T09:54:53.000Z</time>
      </trkpt>
      <trkpt lat="47.50213" lon="6.75888">
        <ele>365</ele>
        <time>2015-09-27T09:54:54.000Z</time>
      </trkpt>
      <trkpt lat="47.50214" lon="6.75893">
        <ele>366</ele>
        <time>2015-09-27T09:54:56.000Z</time>
      </trkpt>
      <trkpt lat="47.50215" lon="6.75896">
        <ele>366</ele>
        <time>2015-09-27T09:54:57.000Z</time>
      </trkpt>
      <trkpt lat="47.50217" lon="6.75901">
        <ele>366</ele>
        <time>2015-09-27T09:54:59.000Z</time>
      </trkpt>
      <trkpt lat="47.50217" lon="6.75904">
        <ele>366</ele>
        <time>2015-09-27T09:55:00.000Z</time>
      </trkpt>
      <trkpt lat="47.50218" lon="6.75909">
        <ele>366</ele>
        <time>2015-09-27T09:55:02.000Z</time>
      </trkpt>
      <trkpt lat="47.50219" lon="6.75911">
        <ele>366</ele>
        <time>2015-09-27T09:55:03.000Z</time>
      </trkpt>
      <trkpt lat="47.5022" lon="6.75917">
        <ele>366</ele>
        <time>2015-09-27T09:55:05.000Z</time>
      </trkpt>
      <trkpt lat="47.5022" lon="6.75919">
        <ele>367</ele>
        <time>2015-09-27T09:55:06.000Z</time>
      </trkpt>
      <trkpt lat="47.50221" lon="6.75925">
        <ele>367</ele>
        <time>2015-09-27T09:55:08.000Z</time>
      </trkpt>
      <trkpt lat="47.50222" lon="6.75928">
        <ele>367</ele>
        <time>2015-09-27T09:55:09.000Z</time>
      </trkpt>
      <trkpt lat="47.50223" lon="6.75933">
        <ele>367</ele>
        <time>2015-09-27T09:55:11.000Z</time>
      </trkpt>
      <trkpt lat="47.50224" lon="6.75935">
        <ele>368</ele>
        <time>2015-09-27T09:55:12.000Z</time>
      </trkpt>
      <trkpt lat="47.50225" lon="6.7594">
        <ele>368</ele>
        <time>2015-09-27T09:55:14.000Z</time>
      </trkpt>
      <trkpt lat="47.50226" lon="6.75943">
        <ele>368</ele>
        <time>2015-09-27T09:55:15.000Z</time>
      </trkpt>
      <trkpt lat="47.50227" lon="6.75948">
        <ele>368</ele>
        <time>2015-09-27T09:55:17.000Z</time>
      </trkpt>
      <trkpt lat="47.50228" lon="6.75951">
        <ele>368</ele>
        <time>2015-09-27T09:55:18.000Z</time>
      </trkpt>
      <trkpt lat="47.50228" lon="6.75955">
        <ele>368</ele>
        <time>2015-09-27T09:55:20.000Z</time>
      </trkpt>
      <trkpt lat="47.50229" lon="6.75957">
        <ele>368</ele>
        <time>2015-09-27T09:55:21.000Z</time>
      </trkpt>
      <trkpt lat="47.50229" lon="6.75962">
        <ele>368</ele>
        <time>2015-09-27T09:55:23.000Z</time>
      </trkpt>
      <trkpt lat="47.50229" lon="6.75964">
        <ele>368</ele>
        <time>2015-09-27T09:55:24.000Z</time>
      </trkpt>
      <trkpt lat="47.5023" lon="6.7597">
        <ele>368</ele>
        <time>2015-09-27T09:55:27.000Z</time>
      </trkpt>
      <trkpt lat="47.5023" lon="6.75972">
        <ele>368</ele>
        <time>2015-09-27T09:55:28.000Z</time>
      </trkpt>
      <trkpt lat="47.5023" lon="6.75978">
        <ele>368</ele>
        <time>2015-09-27T09:55:31.000Z</time>
      </trkpt>
      <trkpt lat="47.5023" lon="6.75979">
        <ele>368</ele>
        <time>2015-09-27T09:55:32.000Z</time>
      </trkpt>
      <trkpt lat="47.5023" lon="6.75985">
        <ele>368</ele>
        <time>2015-09-27T09:55:35.000Z</time>
      </trkpt>
      <trkpt lat="47.5023" lon="6.75986">
        <ele>368</ele>
        <time>2015-09-27T09:55:36.000Z</time>
      </trkpt>
      <trkpt lat="47.50227" lon="6.7599">
        <ele>368</ele>
        <time>2015-09-27T09:55:42.000Z</time>
      </trkpt>
      <trkpt lat="47.50226" lon="6.7599">
        <ele>368</ele>
        <time>2015-09-27T09:55:43.000Z</time>
      </trkpt>
      <trkpt lat="47.50223" lon="6.75993">
        <ele>368</ele>
        <time>2015-09-27T09:55:47.000Z</time>
      </trkpt>
      <trkpt lat="47.50222" lon="6.75994">
        <ele>368</ele>
        <time>2015-09-27T09:55:48.000Z</time>
      </trkpt>
      <trkpt lat="47.50218" lon="6.75997">
        <ele>369</ele>
        <time>2015-09-27T09:55:55.000Z</time>
      </trkpt>
      <trkpt lat="47.50217" lon="6.75997">
        <ele>369</ele>
        <time>2015-09-27T09:55:56.000Z</time>
      </trkpt>
      <trkpt lat="47.50213" lon="6.75998">
        <ele>369</ele>
        <time>2015-09-27T09:56:00.000Z</time>
      </trkpt>
      <trkpt lat="47.50212" lon="6.75999">
        <ele>369</ele>
        <time>2015-09-27T09:56:01.000Z</time>
      </trkpt>
      <trkpt lat="47.50209" lon="6.76001">
        <ele>372</ele>
        <time>2015-09-27T09:56:04.000Z</time>
      </trkpt>
      <trkpt lat="47.50208" lon="6.76002">
        <ele>372</ele>
        <time>2015-09-27T09:56:05.000Z</time>
      </trkpt>
      <trkpt lat="47.50204" lon="6.76003">
        <ele>372</ele>
        <time>2015-09-27T09:56:09.000Z</time>
      </trkpt>
      <trkpt lat="47.50203" lon="6.76004">
        <ele>372</ele>
        <time>2015-09-27T09:56:10.000Z</time>
      </trkpt>
      <trkpt lat="47.50199" lon="6.76007">
        <ele>372</ele>
        <time>2015-09-27T09:56:15.000Z</time>
      </trkpt>
      <trkpt lat="47.50198" lon="6.76007">
        <ele>372</ele>
        <time>2015-09-27T09:56:16.000Z</time>
      </trkpt>
      <trkpt lat="47.50194" lon="6.76009">
        <ele>372</ele>
        <time>2015-09-27T09:56:20.000Z</time>
      </trkpt>
      <trkpt lat="47.50193" lon="6.76009">
        <ele>372</ele>
        <time>2015-09-27T09:56:21.000Z</time>
      </trkpt>
      <trkpt lat="47.50189" lon="6.76011">
        <ele>372</ele>
        <time>2015-09-27T09:56:24.000Z</time>
      </trkpt>
      <trkpt lat="47.50188" lon="6.76011">
        <ele>372</ele>
        <time>2015-09-27T09:56:25.000Z</time>
      </trkpt>
      <trkpt lat="47.50184" lon="6.76014">
        <ele>372</ele>
        <time>2015-09-27T09:56:28.000Z</time>
      </trkpt>
      <trkpt lat="47.50183" lon="6.76014">
        <ele>372</ele>
        <time>2015-09-27T09:56:29.000Z</time>
      </trkpt>
      <trkpt lat="47.5018" lon="6.76014">
        <ele>372</ele>
        <time>2015-09-27T09:56:34.000Z</time>
      </trkpt>
      <trkpt lat="47.50179" lon="6.76014">
        <ele>372</ele>
        <time>2015-09-27T09:56:35.000Z</time>
      </trkpt>
      <trkpt lat="47.50175" lon="6.76016">
        <ele>372</ele>
        <time>2015-09-27T09:56:38.000Z</time>
      </trkpt>
      <trkpt lat="47.50174" lon="6.76016">
        <ele>372</ele>
        <time>2015-09-27T09:56:39.000Z</time>
      </trkpt>
      <trkpt lat="47.50171" lon="6.76017">
        <ele>372</ele>
        <time>2015-09-27T09:56:42.000Z</time>
      </trkpt>
      <trkpt lat="47.5017" lon="6.76018">
        <ele>372</ele>
        <time>2015-09-27T09:56:43.000Z</time>
      </trkpt>
      <trkpt lat="47.50165" lon="6.76018">
        <ele>375</ele>
        <time>2015-09-27T09:56:46.000Z</time>
      </trkpt>
      <trkpt lat="47.50164" lon="6.76018">
        <ele>375</ele>
        <time>2015-09-27T09:56:47.000Z</time>
      </trkpt>
      <trkpt lat="47.5016" lon="6.7602">
        <ele>375</ele>
        <time>2015-09-27T09:56:51.000Z</time>
      </trkpt>
      <trkpt lat="47.50158" lon="6.7602">
        <ele>375</ele>
        <time>2015-09-27T09:56:52.000Z</time>
      </trkpt>
      <trkpt lat="47.50156" lon="6.76021">
        <ele>375</ele>
        <time>2015-09-27T09:56:54.000Z</time>
      </trkpt>
      <trkpt lat="47.50154" lon="6.76022">
        <ele>376</ele>
        <time>2015-09-27T09:56:55.000Z</time>
      </trkpt>
      <trkpt lat="47.5015" lon="6.76024">
        <ele>376</ele>
        <time>2015-09-27T09:56:59.000Z</time>
      </trkpt>
      <trkpt lat="47.50149" lon="6.76025">
        <ele>376</ele>
        <time>2015-09-27T09:57:00.000Z</time>
      </trkpt>
      <trkpt lat="47.50145" lon="6.76027">
        <ele>376</ele>
        <time>2015-09-27T09:57:04.000Z</time>
      </trkpt>
      <trkpt lat="47.50144" lon="6.76027">
        <ele>377</ele>
        <time>2015-09-27T09:57:05.000Z</time>
      </trkpt>
      <trkpt lat="47.5014" lon="6.76029">
        <ele>377</ele>
        <time>2015-09-27T09:57:09.000Z</time>
      </trkpt>
      <trkpt lat="47.5014" lon="6.7603">
        <ele>377</ele>
        <time>2015-09-27T09:57:10.000Z</time>
      </trkpt>
      <trkpt lat="47.50136" lon="6.76031">
        <ele>377</ele>
        <time>2015-09-27T09:57:14.000Z</time>
      </trkpt>
      <trkpt lat="47.50135" lon="6.76032">
        <ele>377</ele>
        <time>2015-09-27T09:57:15.000Z</time>
      </trkpt>
      <trkpt lat="47.50131" lon="6.76035">
        <ele>378</ele>
        <time>2015-09-27T09:57:19.000Z</time>
      </trkpt>
      <trkpt lat="47.5013" lon="6.76035">
        <ele>378</ele>
        <time>2015-09-27T09:57:20.000Z</time>
      </trkpt>
      <trkpt lat="47.50126" lon="6.76038">
        <ele>378</ele>
        <time>2015-09-27T09:57:26.000Z</time>
      </trkpt>
      <trkpt lat="47.50126" lon="6.76038">
        <ele>378</ele>
        <time>2015-09-27T09:57:27.000Z</time>
      </trkpt>
      <trkpt lat="47.50123" lon="6.7604">
        <ele>379</ele>
        <time>2015-09-27T09:57:30.000Z</time>
      </trkpt>
      <trkpt lat="47.50121" lon="6.76041">
        <ele>379</ele>
        <time>2015-09-27T09:57:31.000Z</time>
      </trkpt>
      <trkpt lat="47.5012" lon="6.76047">
        <ele>379</ele>
        <time>2015-09-27T09:57:36.000Z</time>
      </trkpt>
      <trkpt lat="47.5012" lon="6.76048">
        <ele>379</ele>
        <time>2015-09-27T09:57:37.000Z</time>
      </trkpt>
      <trkpt lat="47.50121" lon="6.76054">
        <ele>379</ele>
        <time>2015-09-27T09:57:43.000Z</time>
      </trkpt>
      <trkpt lat="47.50122" lon="6.76055">
        <ele>379</ele>
        <time>2015-09-27T09:57:44.000Z</time>
      </trkpt>
      <trkpt lat="47.50122" lon="6.76059">
        <ele>379</ele>
        <time>2015-09-27T09:57:46.998Z</time>
      </trkpt>
      <trkpt lat="47.50123" lon="6.76061">
        <ele>379</ele>
        <time>2015-09-27T09:57:48.000Z</time>
      </trkpt>
      <trkpt lat="47.50123" lon="6.76066">
        <ele>380</ele>
        <time>2015-09-27T09:57:50.000Z</time>
      </trkpt>
      <trkpt lat="47.50123" lon="6.76069">
        <ele>380</ele>
        <time>2015-09-27T09:57:51.000Z</time>
      </trkpt>
      <trkpt lat="47.50122" lon="6.76074">
        <ele>380</ele>
        <time>2015-09-27T09:57:53.000Z</time>
      </trkpt>
      <trkpt lat="47.50122" lon="6.76076">
        <ele>380</ele>
        <time>2015-09-27T09:57:54.000Z</time>
      </trkpt>
      <trkpt lat="47.50123" lon="6.76082">
        <ele>380</ele>
        <time>2015-09-27T09:57:57.000Z</time>
      </trkpt>
      <trkpt lat="47.50123" lon="6.76084">
        <ele>383</ele>
        <time>2015-09-27T09:57:58.000Z</time>
      </trkpt>
      <trkpt lat="47.50123" lon="6.76089">
        <ele>383</ele>
        <time>2015-09-27T09:58:00.000Z</time>
      </trkpt>
      <trkpt lat="47.50123" lon="6.76092">
        <ele>383</ele>
        <time>2015-09-27T09:58:01.000Z</time>
      </trkpt>
      <trkpt lat="47.50122" lon="6.76096">
        <ele>384</ele>
        <time>2015-09-27T09:58:03.000Z</time>
      </trkpt>
      <trkpt lat="47.50122" lon="6.76099">
        <ele>384</ele>
        <time>2015-09-27T09:58:04.000Z</time>
      </trkpt>
      <trkpt lat="47.50123" lon="6.76105">
        <ele>384</ele>
        <time>2015-09-27T09:58:06.000Z</time>
      </trkpt>
      <trkpt lat="47.50124" lon="6.76108">
        <ele>384</ele>
        <time>2015-09-27T09:58:07.000Z</time>
      </trkpt>
      <trkpt lat="47.50126" lon="6.76113">
        <ele>384</ele>
        <time>2015-09-27T09:58:09.000Z</time>
      </trkpt>
      <trkpt lat="47.50126" lon="6.76116">
        <ele>384</ele>
        <time>2015-09-27T09:58:10.000Z</time>
      </trkpt>
      <trkpt lat="47.50128" lon="6.76123">
        <ele>384</ele>
        <time>2015-09-27T09:58:12.000Z</time>
      </trkpt>
      <trkpt lat="47.50129" lon="6.76125">
        <ele>384</ele>
        <time>2015-09-27T09:58:13.000Z</time>
      </trkpt>
      <trkpt lat="47.5013" lon="6.76131">
        <ele>384</ele>
        <time>2015-09-27T09:58:15.000Z</time>
      </trkpt>
      <trkpt lat="47.50131" lon="6.76133">
        <ele>384</ele>
        <time>2015-09-27T09:58:16.000Z</time>
      </trkpt>
      <trkpt lat="47.50132" lon="6.76138">
        <ele>384</ele>
        <time>2015-09-27T09:58:18.000Z</time>
      </trkpt>
      <trkpt lat="47.50131" lon="6.76141">
        <ele>384</ele>
        <time>2015-09-27T09:58:19.000Z</time>
      </trkpt>
      <trkpt lat="47.5013" lon="6.76147">
        <ele>384</ele>
        <time>2015-09-27T09:58:21.000Z</time>
      </trkpt>
      <trkpt lat="47.50131" lon="6.7615">
        <ele>384</ele>
        <time>2015-09-27T09:58:22.000Z</time>
      </trkpt>
      <trkpt lat="47.50131" lon="6.76154">
        <ele>384</ele>
        <time>2015-09-27T09:58:23.000Z</time>
      </trkpt>
      <trkpt lat="47.50132" lon="6.76157">
        <ele>384</ele>
        <time>2015-09-27T09:58:24.000Z</time>
      </trkpt>
      <trkpt lat="47.50133" lon="6.76161">
        <ele>384</ele>
        <time>2015-09-27T09:58:25.000Z</time>
      </trkpt>
      <trkpt lat="47.50134" lon="6.76165">
        <ele>383</ele>
        <time>2015-09-27T09:58:26.000Z</time>
      </trkpt>
      <trkpt lat="47.50135" lon="6.7617">
        <ele>387</ele>
        <time>2015-09-27T09:58:28.000Z</time>
      </trkpt>
      <trkpt lat="47.50135" lon="6.76173">
        <ele>387</ele>
        <time>2015-09-27T09:58:29.000Z</time>
      </trkpt>
      <trkpt lat="47.50136" lon="6.76178">
        <ele>387</ele>
        <time>2015-09-27T09:58:31.000Z</time>
      </trkpt>
      <trkpt lat="47.50136" lon="6.76181">
        <ele>388</ele>
        <time>2015-09-27T09:58:32.000Z</time>
      </trkpt>
      <trkpt lat="47.50137" lon="6.76187">
        <ele>388</ele>
        <time>2015-09-27T09:58:34.000Z</time>
      </trkpt>
      <trkpt lat="47.50138" lon="6.7619">
        <ele>388</ele>
        <time>2015-09-27T09:58:35.000Z</time>
      </trkpt>
      <trkpt lat="47.5014" lon="6.76195">
        <ele>388</ele>
        <time>2015-09-27T09:58:37.000Z</time>
      </trkpt>
      <trkpt lat="47.50141" lon="6.76197">
        <ele>388</ele>
        <time>2015-09-27T09:58:38.000Z</time>
      </trkpt>
      <trkpt lat="47.50142" lon="6.76203">
        <ele>388</ele>
        <time>2015-09-27T09:58:40.000Z</time>
      </trkpt>
      <trkpt lat="47.50142" lon="6.76207">
        <ele>389</ele>
        <time>2015-09-27T09:58:41.000Z</time>
      </trkpt>
      <trkpt lat="47.50143" lon="6.7621">
        <ele>389</ele>
        <time>2015-09-27T09:58:42.000Z</time>
      </trkpt>
      <trkpt lat="47.50143" lon="6.76214">
        <ele>389</ele>
        <time>2015-09-27T09:58:43.000Z</time>
      </trkpt>
      <trkpt lat="47.50144" lon="6.76218">
        <ele>389</ele>
        <time>2015-09-27T09:58:44.000Z</time>
      </trkpt>
      <trkpt lat="47.50144" lon="6.76222">
        <ele>389</ele>
        <time>2015-09-27T09:58:45.000Z</time>
      </trkpt>
      <trkpt lat="47.50145" lon="6.76226">
        <ele>389</ele>
        <time>2015-09-27T09:58:46.000Z</time>
      </trkpt>
      <trkpt lat="47.50146" lon="6.7623">
        <ele>389</ele>
        <time>2015-09-27T09:58:47.000Z</time>
      </trkpt>
      <trkpt lat="47.50147" lon="6.76234">
        <ele>389</ele>
        <time>2015-09-27T09:58:48.000Z</time>
      </trkpt>
      <trkpt lat="47.50149" lon="6.76237">
        <ele>389</ele>
        <time>2015-09-27T09:58:49.000Z</time>
      </trkpt>
      <trkpt lat="47.5015" lon="6.7624">
        <ele>389</ele>
        <time>2015-09-27T09:58:50.000Z</time>
      </trkpt>
      <trkpt lat="47.50151" lon="6.76244">
        <ele>388</ele>
        <time>2015-09-27T09:58:51.000Z</time>
      </trkpt>
      <trkpt lat="47.50152" lon="6.76248">
        <ele>388</ele>
        <time>2015-09-27T09:58:52.000Z</time>
      </trkpt>
      <trkpt lat="47.50153" lon="6.76252">
        <ele>391</ele>
        <time>2015-09-27T09:58:53.000Z</time>
      </trkpt>
      <trkpt lat="47.50154" lon="6.76256">
        <ele>391</ele>
        <time>2015-09-27T09:58:54.000Z</time>
      </trkpt>
      <trkpt lat="47.50155" lon="6.76259">
        <ele>391</ele>
        <time>2015-09-27T09:58:55.000Z</time>
      </trkpt>
      <trkpt lat="47.50156" lon="6.76262">
        <ele>391</ele>
        <time>2015-09-27T09:58:56.000Z</time>
      </trkpt>
      <trkpt lat="47.50157" lon="6.76265">
        <ele>392</ele>
        <time>2015-09-27T09:58:57.000Z</time>
      </trkpt>
      <trkpt lat="47.50159" lon="6.76271">
        <ele>392</ele>
        <time>2015-09-27T09:58:59.000Z</time>
      </trkpt>
      <trkpt lat="47.5016" lon="6.76274">
        <ele>393</ele>
        <time>2015-09-27T09:59:00.000Z</time>
      </trkpt>
      <trkpt lat="47.5016" lon="6.76277">
        <ele>393</ele>
        <time>2015-09-27T09:59:01.000Z</time>
      </trkpt>
      <trkpt lat="47.50161" lon="6.76281">
        <ele>393</ele>
        <time>2015-09-27T09:59:02.000Z</time>
      </trkpt>
      <trkpt lat="47.50161" lon="6.76286">
        <ele>394</ele>
        <time>2015-09-27T09:59:03.000Z</time>
      </trkpt>
      <trkpt lat="47.50161" lon="6.7629">
        <ele>394</ele>
        <time>2015-09-27T09:59:04.000Z</time>
      </trkpt>
      <trkpt lat="47.50162" lon="6.76295">
        <ele>394</ele>
        <time>2015-09-27T09:59:05.000Z</time>
      </trkpt>
      <trkpt lat="47.50162" lon="6.76299">
        <ele>394</ele>
        <time>2015-09-27T09:59:06.000Z</time>
      </trkpt>
      <trkpt lat="47.50161" lon="6.76302">
        <ele>394</ele>
        <time>2015-09-27T09:59:07.000Z</time>
      </trkpt>
      <trkpt lat="47.50162" lon="6.76306">
        <ele>394</ele>
        <time>2015-09-27T09:59:08.000Z</time>
      </trkpt>
      <trkpt lat="47.50162" lon="6.7631">
        <ele>394</ele>
        <time>2015-09-27T09:59:09.000Z</time>
      </trkpt>
      <trkpt lat="47.50163" lon="6.76314">
        <ele>394</ele>
        <time>2015-09-27T09:59:10.000Z</time>
      </trkpt>
      <trkpt lat="47.50164" lon="6.76318">
        <ele>394</ele>
        <time>2015-09-27T09:59:11.000Z</time>
      </trkpt>
      <trkpt lat="47.50165" lon="6.76322">
        <ele>393</ele>
        <time>2015-09-27T09:59:12.000Z</time>
      </trkpt>
      <trkpt lat="47.50164" lon="6.76328">
        <ele>392</ele>
        <time>2015-09-27T09:59:14.000Z</time>
      </trkpt>
      <trkpt lat="47.50164" lon="6.76331">
        <ele>392</ele>
        <time>2015-09-27T09:59:15.000Z</time>
      </trkpt>
      <trkpt lat="47.50163" lon="6.76337">
        <ele>393</ele>
        <time>2015-09-27T09:59:17.000Z</time>
      </trkpt>
      <trkpt lat="47.50163" lon="6.76341">
        <ele>394</ele>
        <time>2015-09-27T09:59:18.000Z</time>
      </trkpt>
      <trkpt lat="47.50164" lon="6.76345">
        <ele>395</ele>
        <time>2015-09-27T09:59:19.000Z</time>
      </trkpt>
      <trkpt lat="47.50165" lon="6.7635">
        <ele>396</ele>
        <time>2015-09-27T09:59:20.000Z</time>
      </trkpt>
      <trkpt lat="47.50167" lon="6.76353">
        <ele>390</ele>
        <time>2015-09-27T09:59:21.000Z</time>
      </trkpt>
      <trkpt lat="47.50168" lon="6.76357">
        <ele>390</ele>
        <time>2015-09-27T09:59:22.000Z</time>
      </trkpt>
      <trkpt lat="47.5017" lon="6.76361">
        <ele>391</ele>
        <time>2015-09-27T09:59:23.000Z</time>
      </trkpt>
      <trkpt lat="47.50171" lon="6.76364">
        <ele>391</ele>
        <time>2015-09-27T09:59:24.000Z</time>
      </trkpt>
      <trkpt lat="47.50172" lon="6.76367">
        <ele>391</ele>
        <time>2015-09-27T09:59:25.000Z</time>
      </trkpt>
      <trkpt lat="47.50173" lon="6.76371">
        <ele>391</ele>
        <time>2015-09-27T09:59:26.000Z</time>
      </trkpt>
      <trkpt lat="47.50174" lon="6.76375">
        <ele>391</ele>
        <time>2015-09-27T09:59:27.000Z</time>
      </trkpt>
      <trkpt lat="47.50175" lon="6.76379">
        <ele>391</ele>
        <time>2015-09-27T09:59:28.000Z</time>
      </trkpt>
      <trkpt lat="47.50176" lon="6.76383">
        <ele>392</ele>
        <time>2015-09-27T09:59:29.000Z</time>
      </trkpt>
      <trkpt lat="47.50177" lon="6.76387">
        <ele>392</ele>
        <time>2015-09-27T09:59:30.000Z</time>
      </trkpt>
      <trkpt lat="47.50178" lon="6.76391">
        <ele>392</ele>
        <time>2015-09-27T09:59:31.000Z</time>
      </trkpt>
      <trkpt lat="47.50179" lon="6.76395">
        <ele>393</ele>
        <time>2015-09-27T09:59:32.000Z</time>
      </trkpt>
      <trkpt lat="47.5018" lon="6.76399">
        <ele>393</ele>
        <time>2015-09-27T09:59:33.000Z</time>
      </trkpt>
      <trkpt lat="47.50181" lon="6.76404">
        <ele>394</ele>
        <time>2015-09-27T09:59:34.000Z</time>
      </trkpt>
      <trkpt lat="47.50182" lon="6.76408">
        <ele>394</ele>
        <time>2015-09-27T09:59:35.000Z</time>
      </trkpt>
      <trkpt lat="47.50183" lon="6.76412">
        <ele>394</ele>
        <time>2015-09-27T09:59:36.000Z</time>
      </trkpt>
      <trkpt lat="47.50184" lon="6.76415">
        <ele>394</ele>
        <time>2015-09-27T09:59:37.000Z</time>
      </trkpt>
      <trkpt lat="47.50186" lon="6.76418">
        <ele>397</ele>
        <time>2015-09-27T09:59:38.000Z</time>
      </trkpt>
      <trkpt lat="47.50188" lon="6.76423">
        <ele>396</ele>
        <time>2015-09-27T09:59:40.000Z</time>
      </trkpt>
      <trkpt lat="47.50189" lon="6.76426">
        <ele>396</ele>
        <time>2015-09-27T09:59:41.000Z</time>
      </trkpt>
      <trkpt lat="47.50189" lon="6.76432">
        <ele>396</ele>
        <time>2015-09-27T09:59:43.000Z</time>
      </trkpt>
      <trkpt lat="47.50188" lon="6.76435">
        <ele>396</ele>
        <time>2015-09-27T09:59:44.000Z</time>
      </trkpt>
      <trkpt lat="47.50187" lon="6.76441">
        <ele>396</ele>
        <time>2015-09-27T09:59:46.000Z</time>
      </trkpt>
      <trkpt lat="47.50186" lon="6.76444">
        <ele>397</ele>
        <time>2015-09-27T09:59:47.000Z</time>
      </trkpt>
      <trkpt lat="47.50187" lon="6.76449">
        <ele>397</ele>
        <time>2015-09-27T09:59:49.000Z</time>
      </trkpt>
      <trkpt lat="47.50188" lon="6.76452">
        <ele>397</ele>
        <time>2015-09-27T09:59:50.000Z</time>
      </trkpt>
      <trkpt lat="47.50189" lon="6.76455">
        <ele>397</ele>
        <time>2015-09-27T09:59:51.000Z</time>
      </trkpt>
      <trkpt lat="47.5019" lon="6.76458">
        <ele>397</ele>
        <time>2015-09-27T09:59:52.000Z</time>
      </trkpt>
      <trkpt lat="47.50191" lon="6.76464">
        <ele>397</ele>
        <time>2015-09-27T09:59:54.000Z</time>
      </trkpt>
      <trkpt lat="47.50191" lon="6.76466">
        <ele>397</ele>
        <time>2015-09-27T09:59:55.000Z</time>
      </trkpt>
      <trkpt lat="47.50192" lon="6.76471">
        <ele>397</ele>
        <time>2015-09-27T09:59:57.000Z</time>
      </trkpt>
      <trkpt lat="47.50193" lon="6.76474">
        <ele>397</ele>
        <time>2015-09-27T09:59:58.000Z</time>
      </trkpt>
      <trkpt lat="47.50194" lon="6.76476">
        <ele>398</ele>
        <time>2015-09-27T09:59:59.000Z</time>
      </trkpt>
      <trkpt lat="47.50195" lon="6.7648">
        <ele>398</ele>
        <time>2015-09-27T10:00:00.000Z</time>
      </trkpt>
      <trkpt lat="47.50196" lon="6.76483">
        <ele>398</ele>
        <time>2015-09-27T10:00:01.000Z</time>
      </trkpt>
      <trkpt lat="47.50197" lon="6.76486">
        <ele>398</ele>
        <time>2015-09-27T10:00:02.000Z</time>
      </trkpt>
      <trkpt lat="47.50197" lon="6.7649">
        <ele>398</ele>
        <time>2015-09-27T10:00:03.000Z</time>
      </trkpt>
      <trkpt lat="47.50198" lon="6.76493">
        <ele>398</ele>
        <time>2015-09-27T10:00:04.000Z</time>
      </trkpt>
      <trkpt lat="47.50198" lon="6.76496">
        <ele>398</ele>
        <time>2015-09-27T10:00:05.000Z</time>
      </trkpt>
      <trkpt lat="47.50199" lon="6.765">
        <ele>398</ele>
        <time>2015-09-27T10:00:06.000Z</time>
      </trkpt>
      <trkpt lat="47.50201" lon="6.76505">
        <ele>401</ele>
        <time>2015-09-27T10:00:08.000Z</time>
      </trkpt>
      <trkpt lat="47.50202" lon="6.76507">
        <ele>401</ele>
        <time>2015-09-27T10:00:09.000Z</time>
      </trkpt>
      <trkpt lat="47.50202" lon="6.76512">
        <ele>401</ele>
        <time>2015-09-27T10:00:11.000Z</time>
      </trkpt>
      <trkpt lat="47.50202" lon="6.76515">
        <ele>401</ele>
        <time>2015-09-27T10:00:12.000Z</time>
      </trkpt>
      <trkpt lat="47.50204" lon="6.7652">
        <ele>401</ele>
        <time>2015-09-27T10:00:14.000Z</time>
      </trkpt>
      <trkpt lat="47.50204" lon="6.76523">
        <ele>401</ele>
        <time>2015-09-27T10:00:15.000Z</time>
      </trkpt>
      <trkpt lat="47.50205" lon="6.76527">
        <ele>401</ele>
        <time>2015-09-27T10:00:16.000Z</time>
      </trkpt>
      <trkpt lat="47.50205" lon="6.76531">
        <ele>401</ele>
        <time>2015-09-27T10:00:17.000Z</time>
      </trkpt>
      <trkpt lat="47.50204" lon="6.76535">
        <ele>401</ele>
        <time>2015-09-27T10:00:18.000Z</time>
      </trkpt>
      <trkpt lat="47.50203" lon="6.76539">
        <ele>401</ele>
        <time>2015-09-27T10:00:19.000Z</time>
      </trkpt>
      <trkpt lat="47.50203" lon="6.76543">
        <ele>401</ele>
        <time>2015-09-27T10:00:21.000Z</time>
      </trkpt>
      <trkpt lat="47.50203" lon="6.76545">
        <ele>401</ele>
        <time>2015-09-27T10:00:22.000Z</time>
      </trkpt>
      <trkpt lat="47.50199" lon="6.76548">
        <ele>402</ele>
        <time>2015-09-27T10:00:26.000Z</time>
      </trkpt>
      <trkpt lat="47.50197" lon="6.76549">
        <ele>402</ele>
        <time>2015-09-27T10:00:27.000Z</time>
      </trkpt>
      <trkpt lat="47.50195" lon="6.76552">
        <ele>402</ele>
        <time>2015-09-27T10:00:29.000Z</time>
      </trkpt>
      <trkpt lat="47.50194" lon="6.76554">
        <ele>402</ele>
        <time>2015-09-27T10:00:30.000Z</time>
      </trkpt>
      <trkpt lat="47.5019" lon="6.76555">
        <ele>402</ele>
        <time>2015-09-27T10:00:32.000Z</time>
      </trkpt>
      <trkpt lat="47.50188" lon="6.76554">
        <ele>402</ele>
        <time>2015-09-27T10:00:33.000Z</time>
      </trkpt>
      <trkpt lat="47.50187" lon="6.76557">
        <ele>403</ele>
        <time>2015-09-27T10:00:35.000Z</time>
      </trkpt>
      <trkpt lat="47.50188" lon="6.76561">
        <ele>403</ele>
        <time>2015-09-27T10:00:36.000Z</time>
      </trkpt>
      <trkpt lat="47.50189" lon="6.76566">
        <ele>403</ele>
        <time>2015-09-27T10:00:37.000Z</time>
      </trkpt>
      <trkpt lat="47.50191" lon="6.7657">
        <ele>403</ele>
        <time>2015-09-27T10:00:38.000Z</time>
      </trkpt>
      <trkpt lat="47.50192" lon="6.76574">
        <ele>403</ele>
        <time>2015-09-27T10:00:39.000Z</time>
      </trkpt>
      <trkpt lat="47.50193" lon="6.76578">
        <ele>403</ele>
        <time>2015-09-27T10:00:40.000Z</time>
      </trkpt>
      <trkpt lat="47.50194" lon="6.76582">
        <ele>403</ele>
        <time>2015-09-27T10:00:41.000Z</time>
      </trkpt>
      <trkpt lat="47.50195" lon="6.76585">
        <ele>403</ele>
        <time>2015-09-27T10:00:42.000Z</time>
      </trkpt>
      <trkpt lat="47.50196" lon="6.76589">
        <ele>403</ele>
        <time>2015-09-27T10:00:43.000Z</time>
      </trkpt>
      <trkpt lat="47.50197" lon="6.76593">
        <ele>403</ele>
        <time>2015-09-27T10:00:44.000Z</time>
      </trkpt>
      <trkpt lat="47.50198" lon="6.76597">
        <ele>403</ele>
        <time>2015-09-27T10:00:45.000Z</time>
      </trkpt>
      <trkpt lat="47.50199" lon="6.76601">
        <ele>403</ele>
        <time>2015-09-27T10:00:46.000Z</time>
      </trkpt>
      <trkpt lat="47.502" lon="6.76604">
        <ele>403</ele>
        <time>2015-09-27T10:00:47.000Z</time>
      </trkpt>
      <trkpt lat="47.50201" lon="6.76608">
        <ele>403</ele>
        <time>2015-09-27T10:00:48.000Z</time>
      </trkpt>
      <trkpt lat="47.50202" lon="6.76611">
        <ele>402</ele>
        <time>2015-09-27T10:00:49.000Z</time>
      </trkpt>
      <trkpt lat="47.50203" lon="6.76615">
        <ele>402</ele>
        <time>2015-09-27T10:00:50.000Z</time>
      </trkpt>
      <trkpt lat="47.50204" lon="6.76619">
        <ele>402</ele>
        <time>2015-09-27T10:00:51.000Z</time>
      </trkpt>
      <trkpt lat="47.50204" lon="6.76622">
        <ele>402</ele>
        <time>2015-09-27T10:00:52.000Z</time>
      </trkpt>
      <trkpt lat="47.50205" lon="6.76626">
        <ele>402</ele>
        <time>2015-09-27T10:00:53.000Z</time>
      </trkpt>
      <trkpt lat="47.50205" lon="6.7663">
        <ele>402</ele>
        <time>2015-09-27T10:00:54.000Z</time>
      </trkpt>
      <trkpt lat="47.50206" lon="6.76633">
        <ele>402</ele>
        <time>2015-09-27T10:00:55.000Z</time>
      </trkpt>
      <trkpt lat="47.50207" lon="6.76637">
        <ele>402</ele>
        <time>2015-09-27T10:00:56.000Z</time>
      </trkpt>
      <trkpt lat="47.50209" lon="6.7664">
        <ele>402</ele>
        <time>2015-09-27T10:00:57.000Z</time>
      </trkpt>
      <trkpt lat="47.5021" lon="6.76644">
        <ele>402</ele>
        <time>2015-09-27T10:00:58.000Z</time>
      </trkpt>
      <trkpt lat="47.50211" lon="6.76647">
        <ele>402</ele>
        <time>2015-09-27T10:00:59.000Z</time>
      </trkpt>
      <trkpt lat="47.50212" lon="6.7665">
        <ele>402</ele>
        <time>2015-09-27T10:01:00.000Z</time>
      </trkpt>
      <trkpt lat="47.50214" lon="6.76653">
        <ele>402</ele>
        <time>2015-09-27T10:01:01.000Z</time>
      </trkpt>
      <trkpt lat="47.50215" lon="6.76657">
        <ele>402</ele>
        <time>2015-09-27T10:01:02.000Z</time>
      </trkpt>
      <trkpt lat="47.50217" lon="6.7666">
        <ele>401</ele>
        <time>2015-09-27T10:01:03.000Z</time>
      </trkpt>
      <trkpt lat="47.50218" lon="6.76663">
        <ele>401</ele>
        <time>2015-09-27T10:01:04.000Z</time>
      </trkpt>
      <trkpt lat="47.50219" lon="6.76667">
        <ele>401</ele>
        <time>2015-09-27T10:01:05.000Z</time>
      </trkpt>
      <trkpt lat="47.50219" lon="6.7667">
        <ele>401</ele>
        <time>2015-09-27T10:01:06.000Z</time>
      </trkpt>
      <trkpt lat="47.5022" lon="6.76673">
        <ele>401</ele>
        <time>2015-09-27T10:01:07.000Z</time>
      </trkpt>
      <trkpt lat="47.50221" lon="6.76676">
        <ele>401</ele>
        <time>2015-09-27T10:01:08.000Z</time>
      </trkpt>
      <trkpt lat="47.50222" lon="6.76679">
        <ele>401</ele>
        <time>2015-09-27T10:01:09.000Z</time>
      </trkpt>
      <trkpt lat="47.50223" lon="6.76682">
        <ele>401</ele>
        <time>2015-09-27T10:01:10.000Z</time>
      </trkpt>
      <trkpt lat="47.50225" lon="6.76684">
        <ele>401</ele>
        <time>2015-09-27T10:01:11.000Z</time>
      </trkpt>
      <trkpt lat="47.50226" lon="6.76687">
        <ele>401</ele>
        <time>2015-09-27T10:01:12.000Z</time>
      </trkpt>
      <trkpt lat="47.50227" lon="6.7669">
        <ele>401</ele>
        <time>2015-09-27T10:01:13.000Z</time>
      </trkpt>
      <trkpt lat="47.50229" lon="6.76694">
        <ele>401</ele>
        <time>2015-09-27T10:01:14.000Z</time>
      </trkpt>
      <trkpt lat="47.5023" lon="6.76697">
        <ele>401</ele>
        <time>2015-09-27T10:01:15.000Z</time>
      </trkpt>
      <trkpt lat="47.50231" lon="6.767">
        <ele>401</ele>
        <time>2015-09-27T10:01:16.000Z</time>
      </trkpt>
      <trkpt lat="47.50232" lon="6.76703">
        <ele>401</ele>
        <time>2015-09-27T10:01:17.000Z</time>
      </trkpt>
      <trkpt lat="47.50233" lon="6.76706">
        <ele>401</ele>
        <time>2015-09-27T10:01:18.000Z</time>
      </trkpt>
      <trkpt lat="47.50234" lon="6.76709">
        <ele>401</ele>
        <time>2015-09-27T10:01:19.000Z</time>
      </trkpt>
      <trkpt lat="47.50235" lon="6.76713">
        <ele>401</ele>
        <time>2015-09-27T10:01:20.000Z</time>
      </trkpt>
      <trkpt lat="47.50236" lon="6.76716">
        <ele>401</ele>
        <time>2015-09-27T10:01:21.000Z</time>
      </trkpt>
      <trkpt lat="47.50237" lon="6.76719">
        <ele>401</ele>
        <time>2015-09-27T10:01:22.000Z</time>
      </trkpt>
      <trkpt lat="47.50238" lon="6.76722">
        <ele>401</ele>
        <time>2015-09-27T10:01:23.001Z</time>
      </trkpt>
      <trkpt lat="47.5024" lon="6.76725">
        <ele>401</ele>
        <time>2015-09-27T10:01:24.001Z</time>
      </trkpt>
      <trkpt lat="47.50242" lon="6.76729">
        <ele>401</ele>
        <time>2015-09-27T10:01:25.000Z</time>
      </trkpt>
      <trkpt lat="47.50243" lon="6.76732">
        <ele>401</ele>
        <time>2015-09-27T10:01:26.000Z</time>
      </trkpt>
      <trkpt lat="47.50245" lon="6.76735">
        <ele>401</ele>
        <time>2015-09-27T10:01:27.000Z</time>
      </trkpt>
      <trkpt lat="47.50247" lon="6.76739">
        <ele>401</ele>
        <time>2015-09-27T10:01:28.000Z</time>
      </trkpt>
      <trkpt lat="47.50249" lon="6.76742">
        <ele>401</ele>
        <time>2015-09-27T10:01:29.000Z</time>
      </trkpt>
      <trkpt lat="47.50251" lon="6.76744">
        <ele>400</ele>
        <time>2015-09-27T10:01:30.000Z</time>
      </trkpt>
      <trkpt lat="47.50254" lon="6.76746">
        <ele>400</ele>
        <time>2015-09-27T10:01:31.000Z</time>
      </trkpt>
      <trkpt lat="47.50257" lon="6.76746">
        <ele>400</ele>
        <time>2015-09-27T10:01:32.000Z</time>
      </trkpt>
      <trkpt lat="47.5026" lon="6.76745">
        <ele>399</ele>
        <time>2015-09-27T10:01:33.000Z</time>
      </trkpt>
      <trkpt lat="47.50264" lon="6.76743">
        <ele>399</ele>
        <time>2015-09-27T10:01:34.000Z</time>
      </trkpt>
      <trkpt lat="47.50267" lon="6.76742">
        <ele>399</ele>
        <time>2015-09-27T10:01:35.000Z</time>
      </trkpt>
      <trkpt lat="47.5027" lon="6.7674">
        <ele>399</ele>
        <time>2015-09-27T10:01:36.000Z</time>
      </trkpt>
      <trkpt lat="47.50274" lon="6.76738">
        <ele>399</ele>
        <time>2015-09-27T10:01:37.000Z</time>
      </trkpt>
      <trkpt lat="47.50277" lon="6.76736">
        <ele>399</ele>
        <time>2015-09-27T10:01:38.000Z</time>
      </trkpt>
      <trkpt lat="47.50281" lon="6.76735">
        <ele>399</ele>
        <time>2015-09-27T10:01:39.000Z</time>
      </trkpt>
      <trkpt lat="47.50285" lon="6.76734">
        <ele>399</ele>
        <time>2015-09-27T10:01:40.000Z</time>
      </trkpt>
      <trkpt lat="47.50288" lon="6.76733">
        <ele>399</ele>
        <time>2015-09-27T10:01:41.000Z</time>
      </trkpt>
      <trkpt lat="47.50292" lon="6.76732">
        <ele>399</ele>
        <time>2015-09-27T10:01:42.000Z</time>
      </trkpt>
      <trkpt lat="47.50295" lon="6.76731">
        <ele>399</ele>
        <time>2015-09-27T10:01:43.000Z</time>
      </trkpt>
      <trkpt lat="47.50298" lon="6.76731">
        <ele>399</ele>
        <time>2015-09-27T10:01:44.000Z</time>
      </trkpt>
      <trkpt lat="47.50302" lon="6.76728">
        <ele>398</ele>
        <time>2015-09-27T10:01:46.000Z</time>
      </trkpt>
      <trkpt lat="47.50305" lon="6.76727">
        <ele>398</ele>
        <time>2015-09-27T10:01:47.000Z</time>
      </trkpt>
      <trkpt lat="47.50308" lon="6.76725">
        <ele>398</ele>
        <time>2015-09-27T10:01:48.000Z</time>
      </trkpt>
      <trkpt lat="47.50311" lon="6.76724">
        <ele>398</ele>
        <time>2015-09-27T10:01:48.999Z</time>
      </trkpt>
      <trkpt lat="47.50314" lon="6.76722">
        <ele>398</ele>
        <time>2015-09-27T10:01:50.000Z</time>
      </trkpt>
      <trkpt lat="47.50318" lon="6.7672">
        <ele>398</ele>
        <time>2015-09-27T10:01:51.000Z</time>
      </trkpt>
      <trkpt lat="47.50321" lon="6.76718">
        <ele>398</ele>
        <time>2015-09-27T10:01:52.000Z</time>
      </trkpt>
      <trkpt lat="47.50325" lon="6.76717">
        <ele>398</ele>
        <time>2015-09-27T10:01:53.000Z</time>
      </trkpt>
      <trkpt lat="47.50328" lon="6.76716">
        <ele>398</ele>
        <time>2015-09-27T10:01:54.000Z</time>
      </trkpt>
      <trkpt lat="47.50333" lon="6.76715">
        <ele>398</ele>
        <time>2015-09-27T10:01:55.000Z</time>
      </trkpt>
      <trkpt lat="47.50337" lon="6.76714">
        <ele>398</ele>
        <time>2015-09-27T10:01:56.000Z</time>
      </trkpt>
      <trkpt lat="47.50341" lon="6.76712">
        <ele>398</ele>
        <time>2015-09-27T10:01:57.000Z</time>
      </trkpt>
      <trkpt lat="47.50345" lon="6.76711">
        <ele>398</ele>
        <time>2015-09-27T10:01:58.000Z</time>
      </trkpt>
      <trkpt lat="47.50349" lon="6.7671">
        <ele>398</ele>
        <time>2015-09-27T10:01:59.000Z</time>
      </trkpt>
      <trkpt lat="47.50352" lon="6.76708">
        <ele>397</ele>
        <time>2015-09-27T10:02:00.000Z</time>
      </trkpt>
      <trkpt lat="47.50356" lon="6.76707">
        <ele>397</ele>
        <time>2015-09-27T10:02:01.000Z</time>
      </trkpt>
      <trkpt lat="47.5036" lon="6.76705">
        <ele>397</ele>
        <time>2015-09-27T10:02:02.000Z</time>
      </trkpt>
      <trkpt lat="47.50364" lon="6.76703">
        <ele>397</ele>
        <time>2015-09-27T10:02:03.000Z</time>
      </trkpt>
      <trkpt lat="47.50367" lon="6.76701">
        <ele>397</ele>
        <time>2015-09-27T10:02:04.000Z</time>
      </trkpt>
      <trkpt lat="47.50371" lon="6.76699">
        <ele>397</ele>
        <time>2015-09-27T10:02:05.000Z</time>
      </trkpt>
      <trkpt lat="47.50375" lon="6.76698">
        <ele>397</ele>
        <time>2015-09-27T10:02:06.000Z</time>
      </trkpt>
      <trkpt lat="47.5038" lon="6.76696">
        <ele>397</ele>
        <time>2015-09-27T10:02:07.000Z</time>
      </trkpt>
      <trkpt lat="47.50384" lon="6.76695">
        <ele>397</ele>
        <time>2015-09-27T10:02:07.999Z</time>
      </trkpt>
      <trkpt lat="47.50388" lon="6.76694">
        <ele>397</ele>
        <time>2015-09-27T10:02:09.000Z</time>
      </trkpt>
      <trkpt lat="47.50393" lon="6.76693">
        <ele>397</ele>
        <time>2015-09-27T10:02:10.000Z</time>
      </trkpt>
      <trkpt lat="47.50396" lon="6.76691">
        <ele>397</ele>
        <time>2015-09-27T10:02:11.000Z</time>
      </trkpt>
      <trkpt lat="47.50399" lon="6.7669">
        <ele>397</ele>
        <time>2015-09-27T10:02:12.000Z</time>
      </trkpt>
      <trkpt lat="47.50402" lon="6.76688">
        <ele>397</ele>
        <time>2015-09-27T10:02:13.000Z</time>
      </trkpt>
      <trkpt lat="47.50405" lon="6.76687">
        <ele>397</ele>
        <time>2015-09-27T10:02:14.000Z</time>
      </trkpt>
      <trkpt lat="47.50409" lon="6.76685">
        <ele>397</ele>
        <time>2015-09-27T10:02:15.000Z</time>
      </trkpt>
      <trkpt lat="47.50412" lon="6.76684">
        <ele>397</ele>
        <time>2015-09-27T10:02:16.000Z</time>
      </trkpt>
      <trkpt lat="47.50416" lon="6.76684">
        <ele>397</ele>
        <time>2015-09-27T10:02:17.000Z</time>
      </trkpt>
      <trkpt lat="47.5042" lon="6.76683">
        <ele>397</ele>
        <time>2015-09-27T10:02:18.000Z</time>
      </trkpt>
      <trkpt lat="47.50424" lon="6.76682">
        <ele>397</ele>
        <time>2015-09-27T10:02:19.000Z</time>
      </trkpt>
      <trkpt lat="47.50428" lon="6.76682">
        <ele>397</ele>
        <time>2015-09-27T10:02:20.000Z</time>
      </trkpt>
      <trkpt lat="47.50431" lon="6.76681">
        <ele>397</ele>
        <time>2015-09-27T10:02:21.000Z</time>
      </trkpt>
      <trkpt lat="47.50435" lon="6.76679">
        <ele>397</ele>
        <time>2015-09-27T10:02:22.000Z</time>
      </trkpt>
      <trkpt lat="47.50438" lon="6.76678">
        <ele>397</ele>
        <time>2015-09-27T10:02:23.000Z</time>
      </trkpt>
      <trkpt lat="47.50442" lon="6.76676">
        <ele>397</ele>
        <time>2015-09-27T10:02:24.001Z</time>
      </trkpt>
      <trkpt lat="47.50446" lon="6.76675">
        <ele>397</ele>
        <time>2015-09-27T10:02:25.000Z</time>
      </trkpt>
      <trkpt lat="47.50449" lon="6.76674">
        <ele>397</ele>
        <time>2015-09-27T10:02:26.000Z</time>
      </trkpt>
      <trkpt lat="47.50452" lon="6.76672">
        <ele>397</ele>
        <time>2015-09-27T10:02:27.000Z</time>
      </trkpt>
      <trkpt lat="47.50456" lon="6.76671">
        <ele>397</ele>
        <time>2015-09-27T10:02:28.000Z</time>
      </trkpt>
      <trkpt lat="47.50459" lon="6.7667">
        <ele>397</ele>
        <time>2015-09-27T10:02:29.000Z</time>
      </trkpt>
      <trkpt lat="47.50462" lon="6.76669">
        <ele>397</ele>
        <time>2015-09-27T10:02:30.000Z</time>
      </trkpt>
      <trkpt lat="47.50466" lon="6.76667">
        <ele>397</ele>
        <time>2015-09-27T10:02:31.000Z</time>
      </trkpt>
      <trkpt lat="47.50469" lon="6.76666">
        <ele>398</ele>
        <time>2015-09-27T10:02:32.000Z</time>
      </trkpt>
      <trkpt lat="47.50472" lon="6.76664">
        <ele>398</ele>
        <time>2015-09-27T10:02:33.000Z</time>
      </trkpt>
      <trkpt lat="47.50475" lon="6.76663">
        <ele>398</ele>
        <time>2015-09-27T10:02:34.000Z</time>
      </trkpt>
      <trkpt lat="47.50479" lon="6.76661">
        <ele>399</ele>
        <time>2015-09-27T10:02:35.000Z</time>
      </trkpt>
      <trkpt lat="47.50482" lon="6.7666">
        <ele>399</ele>
        <time>2015-09-27T10:02:36.000Z</time>
      </trkpt>
      <trkpt lat="47.50485" lon="6.76659">
        <ele>399</ele>
        <time>2015-09-27T10:02:37.000Z</time>
      </trkpt>
      <trkpt lat="47.50489" lon="6.76659">
        <ele>399</ele>
        <time>2015-09-27T10:02:38.000Z</time>
      </trkpt>
      <trkpt lat="47.50491" lon="6.76658">
        <ele>399</ele>
        <time>2015-09-27T10:02:39.000Z</time>
      </trkpt>
      <trkpt lat="47.50494" lon="6.76656">
        <ele>399</ele>
        <time>2015-09-27T10:02:40.000Z</time>
      </trkpt>
      <trkpt lat="47.50496" lon="6.76655">
        <ele>399</ele>
        <time>2015-09-27T10:02:41.000Z</time>
      </trkpt>
      <trkpt lat="47.50499" lon="6.76654">
        <ele>399</ele>
        <time>2015-09-27T10:02:42.000Z</time>
      </trkpt>
      <trkpt lat="47.50502" lon="6.76653">
        <ele>399</ele>
        <time>2015-09-27T10:02:43.000Z</time>
      </trkpt>
      <trkpt lat="47.50509" lon="6.76656">
        <ele>399</ele>
        <time>2015-09-27T10:02:44.000Z</time>
      </trkpt>
      <trkpt lat="47.50513" lon="6.76656">
        <ele>399</ele>
        <time>2015-09-27T10:02:45.000Z</time>
      </trkpt>
      <trkpt lat="47.50515" lon="6.76655">
        <ele>399</ele>
        <time>2015-09-27T10:02:46.000Z</time>
      </trkpt>
      <trkpt lat="47.50518" lon="6.76654">
        <ele>399</ele>
        <time>2015-09-27T10:02:47.000Z</time>
      </trkpt>
      <trkpt lat="47.50521" lon="6.76652">
        <ele>399</ele>
        <time>2015-09-27T10:02:48.000Z</time>
      </trkpt>
      <trkpt lat="47.50524" lon="6.76651">
        <ele>399</ele>
        <time>2015-09-27T10:02:49.000Z</time>
      </trkpt>
      <trkpt lat="47.50528" lon="6.76651">
        <ele>399</ele>
        <time>2015-09-27T10:02:50.000Z</time>
      </trkpt>
      <trkpt lat="47.50531" lon="6.76649">
        <ele>399</ele>
        <time>2015-09-27T10:02:51.000Z</time>
      </trkpt>
      <trkpt lat="47.50533" lon="6.76648">
        <ele>399</ele>
        <time>2015-09-27T10:02:52.000Z</time>
      </trkpt>
      <trkpt lat="47.50536" lon="6.76646">
        <ele>399</ele>
        <time>2015-09-27T10:02:52.999Z</time>
      </trkpt>
      <trkpt lat="47.50538" lon="6.76645">
        <ele>399</ele>
        <time>2015-09-27T10:02:54.000Z</time>
      </trkpt>
      <trkpt lat="47.50541" lon="6.76644">
        <ele>399</ele>
        <time>2015-09-27T10:02:55.000Z</time>
      </trkpt>
      <trkpt lat="47.50544" lon="6.76643">
        <ele>399</ele>
        <time>2015-09-27T10:02:56.000Z</time>
      </trkpt>
      <trkpt lat="47.50547" lon="6.76643">
        <ele>399</ele>
        <time>2015-09-27T10:02:57.000Z</time>
      </trkpt>
      <trkpt lat="47.5055" lon="6.76642">
        <ele>399</ele>
        <time>2015-09-27T10:02:58.000Z</time>
      </trkpt>
      <trkpt lat="47.50554" lon="6.76641">
        <ele>399</ele>
        <time>2015-09-27T10:02:59.000Z</time>
      </trkpt>
      <trkpt lat="47.50557" lon="6.7664">
        <ele>399</ele>
        <time>2015-09-27T10:03:00.000Z</time>
      </trkpt>
      <trkpt lat="47.50561" lon="6.7664">
        <ele>399</ele>
        <time>2015-09-27T10:03:01.000Z</time>
      </trkpt>
      <trkpt lat="47.50565" lon="6.76639">
        <ele>399</ele>
        <time>2015-09-27T10:03:02.000Z</time>
      </trkpt>
      <trkpt lat="47.50568" lon="6.76638">
        <ele>399</ele>
        <time>2015-09-27T10:03:03.000Z</time>
      </trkpt>
      <trkpt lat="47.50572" lon="6.76637">
        <ele>399</ele>
        <time>2015-09-27T10:03:04.000Z</time>
      </trkpt>
      <trkpt lat="47.50576" lon="6.76636">
        <ele>399</ele>
        <time>2015-09-27T10:03:05.000Z</time>
      </trkpt>
      <trkpt lat="47.5058" lon="6.76635">
        <ele>399</ele>
        <time>2015-09-27T10:03:06.000Z</time>
      </trkpt>
      <trkpt lat="47.50584" lon="6.76634">
        <ele>398</ele>
        <time>2015-09-27T10:03:07.000Z</time>
      </trkpt>
      <trkpt lat="47.50588" lon="6.76632">
        <ele>398</ele>
        <time>2015-09-27T10:03:08.000Z</time>
      </trkpt>
      <trkpt lat="47.50592" lon="6.7663">
        <ele>398</ele>
        <time>2015-09-27T10:03:09.000Z</time>
      </trkpt>
      <trkpt lat="47.50596" lon="6.76629">
        <ele>398</ele>
        <time>2015-09-27T10:03:10.000Z</time>
      </trkpt>
      <trkpt lat="47.506" lon="6.76627">
        <ele>398</ele>
        <time>2015-09-27T10:03:11.000Z</time>
      </trkpt>
      <trkpt lat="47.50605" lon="6.76625">
        <ele>398</ele>
        <time>2015-09-27T10:03:12.000Z</time>
      </trkpt>
      <trkpt lat="47.50609" lon="6.76623">
        <ele>397</ele>
        <time>2015-09-27T10:03:13.000Z</time>
      </trkpt>
      <trkpt lat="47.50613" lon="6.76621">
        <ele>397</ele>
        <time>2015-09-27T10:03:14.000Z</time>
      </trkpt>
      <trkpt lat="47.50618" lon="6.76619">
        <ele>397</ele>
        <time>2015-09-27T10:03:15.000Z</time>
      </trkpt>
      <trkpt lat="47.50622" lon="6.76616">
        <ele>397</ele>
        <time>2015-09-27T10:03:16.000Z</time>
      </trkpt>
      <trkpt lat="47.50626" lon="6.76612">
        <ele>397</ele>
        <time>2015-09-27T10:03:17.000Z</time>
      </trkpt>
      <trkpt lat="47.5063" lon="6.7661">
        <ele>397</ele>
        <time>2015-09-27T10:03:18.000Z</time>
      </trkpt>
      <trkpt lat="47.50635" lon="6.76607">
        <ele>397</ele>
        <time>2015-09-27T10:03:19.000Z</time>
      </trkpt>
      <trkpt lat="47.50639" lon="6.76603">
        <ele>397</ele>
        <time>2015-09-27T10:03:20.000Z</time>
      </trkpt>
      <trkpt lat="47.50644" lon="6.76601">
        <ele>397</ele>
        <time>2015-09-27T10:03:21.000Z</time>
      </trkpt>
      <trkpt lat="47.50649" lon="6.76599">
        <ele>397</ele>
        <time>2015-09-27T10:03:22.000Z</time>
      </trkpt>
      <trkpt lat="47.50654" lon="6.76597">
        <ele>397</ele>
        <time>2015-09-27T10:03:23.000Z</time>
      </trkpt>
      <trkpt lat="47.50659" lon="6.76596">
        <ele>397</ele>
        <time>2015-09-27T10:03:24.000Z</time>
      </trkpt>
      <trkpt lat="47.50664" lon="6.76595">
        <ele>397</ele>
        <time>2015-09-27T10:03:25.000Z</time>
      </trkpt>
      <trkpt lat="47.50669" lon="6.76593">
        <ele>396</ele>
        <time>2015-09-27T10:03:26.000Z</time>
      </trkpt>
      <trkpt lat="47.50674" lon="6.76592">
        <ele>396</ele>
        <time>2015-09-27T10:03:27.000Z</time>
      </trkpt>
      <trkpt lat="47.50679" lon="6.76592">
        <ele>396</ele>
        <time>2015-09-27T10:03:28.000Z</time>
      </trkpt>
      <trkpt lat="47.50685" lon="6.76591">
        <ele>396</ele>
        <time>2015-09-27T10:03:29.000Z</time>
      </trkpt>
      <trkpt lat="47.5069" lon="6.76591">
        <ele>395</ele>
        <time>2015-09-27T10:03:30.000Z</time>
      </trkpt>
      <trkpt lat="47.50695" lon="6.76591">
        <ele>395</ele>
        <time>2015-09-27T10:03:31.000Z</time>
      </trkpt>
      <trkpt lat="47.507" lon="6.76591">
        <ele>395</ele>
        <time>2015-09-27T10:03:32.000Z</time>
      </trkpt>
      <trkpt lat="47.50705" lon="6.7659">
        <ele>395</ele>
        <time>2015-09-27T10:03:33.000Z</time>
      </trkpt>
      <trkpt lat="47.5071" lon="6.76591">
        <ele>395</ele>
        <time>2015-09-27T10:03:34.000Z</time>
      </trkpt>
      <trkpt lat="47.50715" lon="6.76592">
        <ele>395</ele>
        <time>2015-09-27T10:03:35.000Z</time>
      </trkpt>
      <trkpt lat="47.50719" lon="6.76594">
        <ele>394</ele>
        <time>2015-09-27T10:03:36.000Z</time>
      </trkpt>
      <trkpt lat="47.50723" lon="6.76594">
        <ele>394</ele>
        <time>2015-09-27T10:03:37.000Z</time>
      </trkpt>
      <trkpt lat="47.50727" lon="6.76595">
        <ele>394</ele>
        <time>2015-09-27T10:03:38.000Z</time>
      </trkpt>
      <trkpt lat="47.50731" lon="6.76596">
        <ele>394</ele>
        <time>2015-09-27T10:03:39.000Z</time>
      </trkpt>
      <trkpt lat="47.50735" lon="6.76596">
        <ele>394</ele>
        <time>2015-09-27T10:03:40.000Z</time>
      </trkpt>
      <trkpt lat="47.50739" lon="6.76597">
        <ele>394</ele>
        <time>2015-09-27T10:03:41.000Z</time>
      </trkpt>
      <trkpt lat="47.50743" lon="6.76597">
        <ele>394</ele>
        <time>2015-09-27T10:03:42.000Z</time>
      </trkpt>
      <trkpt lat="47.50747" lon="6.76597">
        <ele>394</ele>
        <time>2015-09-27T10:03:43.000Z</time>
      </trkpt>
      <trkpt lat="47.50752" lon="6.76598">
        <ele>393</ele>
        <time>2015-09-27T10:03:44.000Z</time>
      </trkpt>
      <trkpt lat="47.50756" lon="6.76597">
        <ele>392</ele>
        <time>2015-09-27T10:03:45.000Z</time>
      </trkpt>
      <trkpt lat="47.50761" lon="6.76597">
        <ele>392</ele>
        <time>2015-09-27T10:03:46.000Z</time>
      </trkpt>
      <trkpt lat="47.50766" lon="6.76597">
        <ele>392</ele>
        <time>2015-09-27T10:03:47.000Z</time>
      </trkpt>
      <trkpt lat="47.50771" lon="6.76596">
        <ele>392</ele>
        <time>2015-09-27T10:03:48.000Z</time>
      </trkpt>
      <trkpt lat="47.50776" lon="6.76595">
        <ele>392</ele>
        <time>2015-09-27T10:03:49.000Z</time>
      </trkpt>
      <trkpt lat="47.50781" lon="6.76593">
        <ele>391</ele>
        <time>2015-09-27T10:03:50.000Z</time>
      </trkpt>
      <trkpt lat="47.50786" lon="6.76592">
        <ele>391</ele>
        <time>2015-09-27T10:03:51.000Z</time>
      </trkpt>
      <trkpt lat="47.50791" lon="6.76592">
        <ele>391</ele>
        <time>2015-09-27T10:03:52.000Z</time>
      </trkpt>
      <trkpt lat="47.50795" lon="6.76589">
        <ele>391</ele>
        <time>2015-09-27T10:03:53.000Z</time>
      </trkpt>
      <trkpt lat="47.508" lon="6.76587">
        <ele>391</ele>
        <time>2015-09-27T10:03:54.000Z</time>
      </trkpt>
      <trkpt lat="47.50803" lon="6.76586">
        <ele>391</ele>
        <time>2015-09-27T10:03:55.000Z</time>
      </trkpt>
      <trkpt lat="47.50806" lon="6.76586">
        <ele>390</ele>
        <time>2015-09-27T10:03:56.000Z</time>
      </trkpt>
      <trkpt lat="47.50807" lon="6.76591">
        <ele>390</ele>
        <time>2015-09-27T10:03:57.000Z</time>
      </trkpt>
      <trkpt lat="47.50807" lon="6.76594">
        <ele>390</ele>
        <time>2015-09-27T10:03:58.000Z</time>
      </trkpt>
      <trkpt lat="47.50809" lon="6.76597">
        <ele>390</ele>
        <time>2015-09-27T10:03:59.000Z</time>
      </trkpt>
      <trkpt lat="47.5081" lon="6.766">
        <ele>390</ele>
        <time>2015-09-27T10:04:00.000Z</time>
      </trkpt>
      <trkpt lat="47.50812" lon="6.76598">
        <ele>390</ele>
        <time>2015-09-27T10:04:01.000Z</time>
      </trkpt>
      <trkpt lat="47.50815" lon="6.76597">
        <ele>390</ele>
        <time>2015-09-27T10:04:02.000Z</time>
      </trkpt>
      <trkpt lat="47.50817" lon="6.76595">
        <ele>390</ele>
        <time>2015-09-27T10:04:03.000Z</time>
      </trkpt>
      <trkpt lat="47.50819" lon="6.76594">
        <ele>390</ele>
        <time>2015-09-27T10:04:04.000Z</time>
      </trkpt>
      <trkpt lat="47.50822" lon="6.76595">
        <ele>390</ele>
        <time>2015-09-27T10:04:05.000Z</time>
      </trkpt>
      <trkpt lat="47.50824" lon="6.76597">
        <ele>390</ele>
        <time>2015-09-27T10:04:06.000Z</time>
      </trkpt>
      <trkpt lat="47.50826" lon="6.76601">
        <ele>390</ele>
        <time>2015-09-27T10:04:07.000Z</time>
      </trkpt>
      <trkpt lat="47.50828" lon="6.76606">
        <ele>390</ele>
        <time>2015-09-27T10:04:08.000Z</time>
      </trkpt>
      <trkpt lat="47.5083" lon="6.76612">
        <ele>390</ele>
        <time>2015-09-27T10:04:09.000Z</time>
      </trkpt>
      <trkpt lat="47.50832" lon="6.76618">
        <ele>390</ele>
        <time>2015-09-27T10:04:10.000Z</time>
      </trkpt>
      <trkpt lat="47.50835" lon="6.76624">
        <ele>387</ele>
        <time>2015-09-27T10:04:11.000Z</time>
      </trkpt>
      <trkpt lat="47.50837" lon="6.76629">
        <ele>387</ele>
        <time>2015-09-27T10:04:12.000Z</time>
      </trkpt>
      <trkpt lat="47.50839" lon="6.76635">
        <ele>387</ele>
        <time>2015-09-27T10:04:13.000Z</time>
      </trkpt>
      <trkpt lat="47.50841" lon="6.76643">
        <ele>387</ele>
        <time>2015-09-27T10:04:14.000Z</time>
      </trkpt>
      <trkpt lat="47.50844" lon="6.76648">
        <ele>387</ele>
        <time>2015-09-27T10:04:15.000Z</time>
      </trkpt>
      <trkpt lat="47.50846" lon="6.76654">
        <ele>387</ele>
        <time>2015-09-27T10:04:16.000Z</time>
      </trkpt>
      <trkpt lat="47.5085" lon="6.76663">
        <ele>387</ele>
        <time>2015-09-27T10:04:17.000Z</time>
      </trkpt>
      <trkpt lat="47.50853" lon="6.7667">
        <ele>386</ele>
        <time>2015-09-27T10:04:18.000Z</time>
      </trkpt>
      <trkpt lat="47.50856" lon="6.76677">
        <ele>385</ele>
        <time>2015-09-27T10:04:19.000Z</time>
      </trkpt>
      <trkpt lat="47.50859" lon="6.76683">
        <ele>385</ele>
        <time>2015-09-27T10:04:20.000Z</time>
      </trkpt>
      <trkpt lat="47.50861" lon="6.7669">
        <ele>384</ele>
        <time>2015-09-27T10:04:21.000Z</time>
      </trkpt>
      <trkpt lat="47.50864" lon="6.76696">
        <ele>384</ele>
        <time>2015-09-27T10:04:22.000Z</time>
      </trkpt>
      <trkpt lat="47.50864" lon="6.76702">
        <ele>384</ele>
        <time>2015-09-27T10:04:23.000Z</time>
      </trkpt>
      <trkpt lat="47.50865" lon="6.76708">
        <ele>384</ele>
        <time>2015-09-27T10:04:24.000Z</time>
      </trkpt>
      <trkpt lat="47.50869" lon="6.76715">
        <ele>383</ele>
        <time>2015-09-27T10:04:25.000Z</time>
      </trkpt>
      <trkpt lat="47.50872" lon="6.76723">
        <ele>383</ele>
        <time>2015-09-27T10:04:26.000Z</time>
      </trkpt>
      <trkpt lat="47.50874" lon="6.76729">
        <ele>383</ele>
        <time>2015-09-27T10:04:27.000Z</time>
      </trkpt>
      <trkpt lat="47.50877" lon="6.76736">
        <ele>383</ele>
        <time>2015-09-27T10:04:28.000Z</time>
      </trkpt>
      <trkpt lat="47.5088" lon="6.76743">
        <ele>382</ele>
        <time>2015-09-27T10:04:29.000Z</time>
      </trkpt>
      <trkpt lat="47.50882" lon="6.76749">
        <ele>382</ele>
        <time>2015-09-27T10:04:30.000Z</time>
      </trkpt>
      <trkpt lat="47.50884" lon="6.76757">
        <ele>381</ele>
        <time>2015-09-27T10:04:31.000Z</time>
      </trkpt>
      <trkpt lat="47.50886" lon="6.76764">
        <ele>381</ele>
        <time>2015-09-27T10:04:32.000Z</time>
      </trkpt>
      <trkpt lat="47.50889" lon="6.76771">
        <ele>381</ele>
        <time>2015-09-27T10:04:33.000Z</time>
      </trkpt>
      <trkpt lat="47.50892" lon="6.76778">
        <ele>381</ele>
        <time>2015-09-27T10:04:34.000Z</time>
      </trkpt>
      <trkpt lat="47.50896" lon="6.76786">
        <ele>381</ele>
        <time>2015-09-27T10:04:35.000Z</time>
      </trkpt>
      <trkpt lat="47.50899" lon="6.76794">
        <ele>381</ele>
        <time>2015-09-27T10:04:36.000Z</time>
      </trkpt>
      <trkpt lat="47.50903" lon="6.76801">
        <ele>381</ele>
        <time>2015-09-27T10:04:37.000Z</time>
      </trkpt>
      <trkpt lat="47.50906" lon="6.76807">
        <ele>381</ele>
        <time>2015-09-27T10:04:38.000Z</time>
      </trkpt>
      <trkpt lat="47.50909" lon="6.76813">
        <ele>381</ele>
        <time>2015-09-27T10:04:39.000Z</time>
      </trkpt>
      <trkpt lat="47.50911" lon="6.7682">
        <ele>381</ele>
        <time>2015-09-27T10:04:40.000Z</time>
      </trkpt>
      <trkpt lat="47.50914" lon="6.76827">
        <ele>380</ele>
        <time>2015-09-27T10:04:41.002Z</time>
      </trkpt>
      <trkpt lat="47.50917" lon="6.76833">
        <ele>380</ele>
        <time>2015-09-27T10:04:42.000Z</time>
      </trkpt>
      <trkpt lat="47.50919" lon="6.7684">
        <ele>379</ele>
        <time>2015-09-27T10:04:43.000Z</time>
      </trkpt>
      <trkpt lat="47.50922" lon="6.76847">
        <ele>379</ele>
        <time>2015-09-27T10:04:44.000Z</time>
      </trkpt>
      <trkpt lat="47.50925" lon="6.76853">
        <ele>379</ele>
        <time>2015-09-27T10:04:45.000Z</time>
      </trkpt>
      <trkpt lat="47.50929" lon="6.7686">
        <ele>378</ele>
        <time>2015-09-27T10:04:46.000Z</time>
      </trkpt>
      <trkpt lat="47.50935" lon="6.76865">
        <ele>378</ele>
        <time>2015-09-27T10:04:47.000Z</time>
      </trkpt>
      <trkpt lat="47.50938" lon="6.76871">
        <ele>378</ele>
        <time>2015-09-27T10:04:48.000Z</time>
      </trkpt>
      <trkpt lat="47.50944" lon="6.76878">
        <ele>378</ele>
        <time>2015-09-27T10:04:49.000Z</time>
      </trkpt>
      <trkpt lat="47.50951" lon="6.76885">
        <ele>378</ele>
        <time>2015-09-27T10:04:50.000Z</time>
      </trkpt>
      <trkpt lat="47.50956" lon="6.7689">
        <ele>377</ele>
        <time>2015-09-27T10:04:51.000Z</time>
      </trkpt>
      <trkpt lat="47.50961" lon="6.76893">
        <ele>377</ele>
        <time>2015-09-27T10:04:52.000Z</time>
      </trkpt>
      <trkpt lat="47.50965" lon="6.76895">
        <ele>377</ele>
        <time>2015-09-27T10:04:53.000Z</time>
      </trkpt>
      <trkpt lat="47.50969" lon="6.76899">
        <ele>377</ele>
        <time>2015-09-27T10:04:54.000Z</time>
      </trkpt>
      <trkpt lat="47.50974" lon="6.76902">
        <ele>377</ele>
        <time>2015-09-27T10:04:55.000Z</time>
      </trkpt>
      <trkpt lat="47.5098" lon="6.76902">
        <ele>377</ele>
        <time>2015-09-27T10:04:56.000Z</time>
      </trkpt>
      <trkpt lat="47.50985" lon="6.76902">
        <ele>377</ele>
        <time>2015-09-27T10:04:57.000Z</time>
      </trkpt>
      <trkpt lat="47.50991" lon="6.76904">
        <ele>377</ele>
        <time>2015-09-27T10:04:58.000Z</time>
      </trkpt>
      <trkpt lat="47.50996" lon="6.76907">
        <ele>376</ele>
        <time>2015-09-27T10:04:59.000Z</time>
      </trkpt>
      <trkpt lat="47.51" lon="6.76915">
        <ele>376</ele>
        <time>2015-09-27T10:05:00.000Z</time>
      </trkpt>
      <trkpt lat="47.51002" lon="6.76921">
        <ele>376</ele>
        <time>2015-09-27T10:05:01.000Z</time>
      </trkpt>
      <trkpt lat="47.51004" lon="6.76926">
        <ele>376</ele>
        <time>2015-09-27T10:05:02.000Z</time>
      </trkpt>
      <trkpt lat="47.51008" lon="6.7693">
        <ele>375</ele>
        <time>2015-09-27T10:05:03.000Z</time>
      </trkpt>
      <trkpt lat="47.51013" lon="6.76933">
        <ele>375</ele>
        <time>2015-09-27T10:05:04.000Z</time>
      </trkpt>
      <trkpt lat="47.51018" lon="6.76936">
        <ele>375</ele>
        <time>2015-09-27T10:05:05.000Z</time>
      </trkpt>
      <trkpt lat="47.51023" lon="6.76939">
        <ele>375</ele>
        <time>2015-09-27T10:05:06.000Z</time>
      </trkpt>
      <trkpt lat="47.51028" lon="6.76942">
        <ele>375</ele>
        <time>2015-09-27T10:05:07.000Z</time>
      </trkpt>
      <trkpt lat="47.51032" lon="6.76944">
        <ele>375</ele>
        <time>2015-09-27T10:05:07.999Z</time>
      </trkpt>
      <trkpt lat="47.51036" lon="6.76948">
        <ele>375</ele>
        <time>2015-09-27T10:05:09.000Z</time>
      </trkpt>
      <trkpt lat="47.51039" lon="6.76951">
        <ele>375</ele>
        <time>2015-09-27T10:05:10.000Z</time>
      </trkpt>
      <trkpt lat="47.51044" lon="6.76955">
        <ele>375</ele>
        <time>2015-09-27T10:05:11.000Z</time>
      </trkpt>
      <trkpt lat="47.51047" lon="6.76956">
        <ele>375</ele>
        <time>2015-09-27T10:05:12.000Z</time>
      </trkpt>
      <trkpt lat="47.51049" lon="6.76959">
        <ele>375</ele>
        <time>2015-09-27T10:05:13.000Z</time>
      </trkpt>
      <trkpt lat="47.51054" lon="6.76964">
        <ele>375</ele>
        <time>2015-09-27T10:05:14.000Z</time>
      </trkpt>
      <trkpt lat="47.51059" lon="6.76968">
        <ele>375</ele>
        <time>2015-09-27T10:05:15.000Z</time>
      </trkpt>
      <trkpt lat="47.51064" lon="6.76974">
        <ele>375</ele>
        <time>2015-09-27T10:05:16.000Z</time>
      </trkpt>
      <trkpt lat="47.51068" lon="6.76978">
        <ele>375</ele>
        <time>2015-09-27T10:05:17.000Z</time>
      </trkpt>
      <trkpt lat="47.5107" lon="6.76984">
        <ele>375</ele>
        <time>2015-09-27T10:05:18.000Z</time>
      </trkpt>
      <trkpt lat="47.51073" lon="6.7699">
        <ele>375</ele>
        <time>2015-09-27T10:05:19.000Z</time>
      </trkpt>
      <trkpt lat="47.51076" lon="6.76996">
        <ele>375</ele>
        <time>2015-09-27T10:05:20.000Z</time>
      </trkpt>
      <trkpt lat="47.51079" lon="6.77">
        <ele>375</ele>
        <time>2015-09-27T10:05:21.000Z</time>
      </trkpt>
      <trkpt lat="47.51081" lon="6.77004">
        <ele>374</ele>
        <time>2015-09-27T10:05:21.999Z</time>
      </trkpt>
      <trkpt lat="47.51086" lon="6.77006">
        <ele>375</ele>
        <time>2015-09-27T10:05:23.000Z</time>
      </trkpt>
      <trkpt lat="47.51089" lon="6.77009">
        <ele>375</ele>
        <time>2015-09-27T10:05:24.000Z</time>
      </trkpt>
      <trkpt lat="47.51093" lon="6.77012">
        <ele>375</ele>
        <time>2015-09-27T10:05:25.000Z</time>
      </trkpt>
      <trkpt lat="47.51097" lon="6.77016">
        <ele>375</ele>
        <time>2015-09-27T10:05:25.999Z</time>
      </trkpt>
      <trkpt lat="47.511" lon="6.77019">
        <ele>375</ele>
        <time>2015-09-27T10:05:27.000Z</time>
      </trkpt>
      <trkpt lat="47.51104" lon="6.77024">
        <ele>375</ele>
        <time>2015-09-27T10:05:28.000Z</time>
      </trkpt>
      <trkpt lat="47.51108" lon="6.77026">
        <ele>375</ele>
        <time>2015-09-27T10:05:29.000Z</time>
      </trkpt>
      <trkpt lat="47.51112" lon="6.77029">
        <ele>375</ele>
        <time>2015-09-27T10:05:30.000Z</time>
      </trkpt>
      <trkpt lat="47.51116" lon="6.77033">
        <ele>375</ele>
        <time>2015-09-27T10:05:31.000Z</time>
      </trkpt>
      <trkpt lat="47.5112" lon="6.77037">
        <ele>375</ele>
        <time>2015-09-27T10:05:32.000Z</time>
      </trkpt>
      <trkpt lat="47.51124" lon="6.7704">
        <ele>375</ele>
        <time>2015-09-27T10:05:33.000Z</time>
      </trkpt>
      <trkpt lat="47.51128" lon="6.77043">
        <ele>375</ele>
        <time>2015-09-27T10:05:34.000Z</time>
      </trkpt>
      <trkpt lat="47.51132" lon="6.77046">
        <ele>375</ele>
        <time>2015-09-27T10:05:35.000Z</time>
      </trkpt>
      <trkpt lat="47.51137" lon="6.77049">
        <ele>375</ele>
        <time>2015-09-27T10:05:36.000Z</time>
      </trkpt>
      <trkpt lat="47.51141" lon="6.77052">
        <ele>376</ele>
        <time>2015-09-27T10:05:37.000Z</time>
      </trkpt>
      <trkpt lat="47.51145" lon="6.77055">
        <ele>376</ele>
        <time>2015-09-27T10:05:38.000Z</time>
      </trkpt>
      <trkpt lat="47.51149" lon="6.77058">
        <ele>376</ele>
        <time>2015-09-27T10:05:39.000Z</time>
      </trkpt>
      <trkpt lat="47.51152" lon="6.77062">
        <ele>376</ele>
        <time>2015-09-27T10:05:40.000Z</time>
      </trkpt>
      <trkpt lat="47.51155" lon="6.77066">
        <ele>376</ele>
        <time>2015-09-27T10:05:41.000Z</time>
      </trkpt>
      <trkpt lat="47.51159" lon="6.7707">
        <ele>377</ele>
        <time>2015-09-27T10:05:42.000Z</time>
      </trkpt>
      <trkpt lat="47.51162" lon="6.77073">
        <ele>377</ele>
        <time>2015-09-27T10:05:43.000Z</time>
      </trkpt>
      <trkpt lat="47.51165" lon="6.77078">
        <ele>377</ele>
        <time>2015-09-27T10:05:44.000Z</time>
      </trkpt>
      <trkpt lat="47.51167" lon="6.77082">
        <ele>378</ele>
        <time>2015-09-27T10:05:45.000Z</time>
      </trkpt>
      <trkpt lat="47.51169" lon="6.77087">
        <ele>378</ele>
        <time>2015-09-27T10:05:46.000Z</time>
      </trkpt>
      <trkpt lat="47.51172" lon="6.77091">
        <ele>378</ele>
        <time>2015-09-27T10:05:47.000Z</time>
      </trkpt>
      <trkpt lat="47.51174" lon="6.77095">
        <ele>378</ele>
        <time>2015-09-27T10:05:48.000Z</time>
      </trkpt>
      <trkpt lat="47.51178" lon="6.771">
        <ele>378</ele>
        <time>2015-09-27T10:05:49.000Z</time>
      </trkpt>
      <trkpt lat="47.5118" lon="6.77106">
        <ele>378</ele>
        <time>2015-09-27T10:05:50.000Z</time>
      </trkpt>
      <trkpt lat="47.51181" lon="6.77112">
        <ele>378</ele>
        <time>2015-09-27T10:05:51.000Z</time>
      </trkpt>
      <trkpt lat="47.51183" lon="6.77118">
        <ele>378</ele>
        <time>2015-09-27T10:05:52.000Z</time>
      </trkpt>
      <trkpt lat="47.51185" lon="6.77123">
        <ele>378</ele>
        <time>2015-09-27T10:05:53.000Z</time>
      </trkpt>
      <trkpt lat="47.51187" lon="6.77128">
        <ele>378</ele>
        <time>2015-09-27T10:05:54.000Z</time>
      </trkpt>
      <trkpt lat="47.51189" lon="6.77132">
        <ele>378</ele>
        <time>2015-09-27T10:05:55.000Z</time>
      </trkpt>
      <trkpt lat="47.51191" lon="6.77136">
        <ele>378</ele>
        <time>2015-09-27T10:05:56.000Z</time>
      </trkpt>
      <trkpt lat="47.51193" lon="6.77139">
        <ele>378</ele>
        <time>2015-09-27T10:05:57.000Z</time>
      </trkpt>
      <trkpt lat="47.51195" lon="6.77143">
        <ele>378</ele>
        <time>2015-09-27T10:05:58.000Z</time>
      </trkpt>
      <trkpt lat="47.51197" lon="6.77147">
        <ele>378</ele>
        <time>2015-09-27T10:05:59.000Z</time>
      </trkpt>
      <trkpt lat="47.51198" lon="6.77151">
        <ele>378</ele>
        <time>2015-09-27T10:06:00.000Z</time>
      </trkpt>
      <trkpt lat="47.512" lon="6.77154">
        <ele>378</ele>
        <time>2015-09-27T10:06:01.000Z</time>
      </trkpt>
      <trkpt lat="47.51202" lon="6.77158">
        <ele>378</ele>
        <time>2015-09-27T10:06:02.000Z</time>
      </trkpt>
      <trkpt lat="47.51204" lon="6.77161">
        <ele>378</ele>
        <time>2015-09-27T10:06:03.000Z</time>
      </trkpt>
      <trkpt lat="47.51206" lon="6.77165">
        <ele>378</ele>
        <time>2015-09-27T10:06:04.000Z</time>
      </trkpt>
      <trkpt lat="47.51208" lon="6.77168">
        <ele>376</ele>
        <time>2015-09-27T10:06:05.000Z</time>
      </trkpt>
      <trkpt lat="47.51209" lon="6.77172">
        <ele>376</ele>
        <time>2015-09-27T10:06:06.000Z</time>
      </trkpt>
      <trkpt lat="47.51211" lon="6.77176">
        <ele>376</ele>
        <time>2015-09-27T10:06:07.000Z</time>
      </trkpt>
      <trkpt lat="47.51213" lon="6.7718">
        <ele>376</ele>
        <time>2015-09-27T10:06:08.000Z</time>
      </trkpt>
      <trkpt lat="47.51215" lon="6.77184">
        <ele>376</ele>
        <time>2015-09-27T10:06:09.000Z</time>
      </trkpt>
      <trkpt lat="47.51218" lon="6.77188">
        <ele>376</ele>
        <time>2015-09-27T10:06:10.000Z</time>
      </trkpt>
      <trkpt lat="47.5122" lon="6.77191">
        <ele>376</ele>
        <time>2015-09-27T10:06:11.000Z</time>
      </trkpt>
      <trkpt lat="47.51222" lon="6.77195">
        <ele>376</ele>
        <time>2015-09-27T10:06:12.000Z</time>
      </trkpt>
      <trkpt lat="47.51224" lon="6.77199">
        <ele>376</ele>
        <time>2015-09-27T10:06:13.000Z</time>
      </trkpt>
      <trkpt lat="47.51226" lon="6.77203">
        <ele>376</ele>
        <time>2015-09-27T10:06:14.000Z</time>
      </trkpt>
      <trkpt lat="47.51228" lon="6.77206">
        <ele>376</ele>
        <time>2015-09-27T10:06:15.000Z</time>
      </trkpt>
      <trkpt lat="47.51229" lon="6.7721">
        <ele>376</ele>
        <time>2015-09-27T10:06:16.001Z</time>
      </trkpt>
      <trkpt lat="47.51231" lon="6.77214">
        <ele>376</ele>
        <time>2015-09-27T10:06:17.000Z</time>
      </trkpt>
      <trkpt lat="47.51233" lon="6.77217">
        <ele>376</ele>
        <time>2015-09-27T10:06:18.000Z</time>
      </trkpt>
      <trkpt lat="47.51236" lon="6.77221">
        <ele>376</ele>
        <time>2015-09-27T10:06:19.000Z</time>
      </trkpt>
      <trkpt lat="47.51238" lon="6.77225">
        <ele>376</ele>
        <time>2015-09-27T10:06:20.000Z</time>
      </trkpt>
      <trkpt lat="47.5124" lon="6.77229">
        <ele>376</ele>
        <time>2015-09-27T10:06:21.000Z</time>
      </trkpt>
      <trkpt lat="47.51242" lon="6.77232">
        <ele>377</ele>
        <time>2015-09-27T10:06:22.000Z</time>
      </trkpt>
      <trkpt lat="47.51244" lon="6.77236">
        <ele>377</ele>
        <time>2015-09-27T10:06:23.000Z</time>
      </trkpt>
      <trkpt lat="47.51246" lon="6.77239">
        <ele>377</ele>
        <time>2015-09-27T10:06:24.000Z</time>
      </trkpt>
      <trkpt lat="47.51248" lon="6.77243">
        <ele>378</ele>
        <time>2015-09-27T10:06:25.000Z</time>
      </trkpt>
      <trkpt lat="47.51251" lon="6.77246">
        <ele>379</ele>
        <time>2015-09-27T10:06:26.000Z</time>
      </trkpt>
      <trkpt lat="47.51253" lon="6.7725">
        <ele>379</ele>
        <time>2015-09-27T10:06:27.000Z</time>
      </trkpt>
      <trkpt lat="47.51256" lon="6.77253">
        <ele>378</ele>
        <time>2015-09-27T10:06:28.000Z</time>
      </trkpt>
      <trkpt lat="47.51259" lon="6.77256">
        <ele>378</ele>
        <time>2015-09-27T10:06:29.000Z</time>
      </trkpt>
      <trkpt lat="47.51262" lon="6.77259">
        <ele>378</ele>
        <time>2015-09-27T10:06:30.000Z</time>
      </trkpt>
      <trkpt lat="47.51266" lon="6.77262">
        <ele>377</ele>
        <time>2015-09-27T10:06:31.000Z</time>
      </trkpt>
      <trkpt lat="47.51269" lon="6.77264">
        <ele>377</ele>
        <time>2015-09-27T10:06:32.000Z</time>
      </trkpt>
      <trkpt lat="47.51273" lon="6.77266">
        <ele>377</ele>
        <time>2015-09-27T10:06:33.000Z</time>
      </trkpt>
      <trkpt lat="47.51276" lon="6.77268">
        <ele>377</ele>
        <time>2015-09-27T10:06:34.000Z</time>
      </trkpt>
      <trkpt lat="47.5128" lon="6.7727">
        <ele>377</ele>
        <time>2015-09-27T10:06:35.000Z</time>
      </trkpt>
      <trkpt lat="47.51284" lon="6.77272">
        <ele>377</ele>
        <time>2015-09-27T10:06:36.000Z</time>
      </trkpt>
      <trkpt lat="47.51291" lon="6.77272">
        <ele>377</ele>
        <time>2015-09-27T10:06:37.000Z</time>
      </trkpt>
      <trkpt lat="47.51295" lon="6.77275">
        <ele>377</ele>
        <time>2015-09-27T10:06:38.000Z</time>
      </trkpt>
      <trkpt lat="47.513" lon="6.77278">
        <ele>377</ele>
        <time>2015-09-27T10:06:39.000Z</time>
      </trkpt>
      <trkpt lat="47.51304" lon="6.7728">
        <ele>377</ele>
        <time>2015-09-27T10:06:40.000Z</time>
      </trkpt>
      <trkpt lat="47.51309" lon="6.77283">
        <ele>377</ele>
        <time>2015-09-27T10:06:41.000Z</time>
      </trkpt>
      <trkpt lat="47.51314" lon="6.77284">
        <ele>377</ele>
        <time>2015-09-27T10:06:42.000Z</time>
      </trkpt>
      <trkpt lat="47.51319" lon="6.77287">
        <ele>377</ele>
        <time>2015-09-27T10:06:43.000Z</time>
      </trkpt>
      <trkpt lat="47.51325" lon="6.77288">
        <ele>378</ele>
        <time>2015-09-27T10:06:44.000Z</time>
      </trkpt>
      <trkpt lat="47.5133" lon="6.77287">
        <ele>378</ele>
        <time>2015-09-27T10:06:45.000Z</time>
      </trkpt>
      <trkpt lat="47.51336" lon="6.77284">
        <ele>378</ele>
        <time>2015-09-27T10:06:46.000Z</time>
      </trkpt>
      <trkpt lat="47.51341" lon="6.77281">
        <ele>378</ele>
        <time>2015-09-27T10:06:47.000Z</time>
      </trkpt>
      <trkpt lat="47.51347" lon="6.77276">
        <ele>378</ele>
        <time>2015-09-27T10:06:48.000Z</time>
      </trkpt>
      <trkpt lat="47.51353" lon="6.7727">
        <ele>378</ele>
        <time>2015-09-27T10:06:49.000Z</time>
      </trkpt>
      <trkpt lat="47.51359" lon="6.77264">
        <ele>378</ele>
        <time>2015-09-27T10:06:50.000Z</time>
      </trkpt>
      <trkpt lat="47.51368" lon="6.7726">
        <ele>378</ele>
        <time>2015-09-27T10:06:51.000Z</time>
      </trkpt>
      <trkpt lat="47.51376" lon="6.77255">
        <ele>377</ele>
        <time>2015-09-27T10:06:52.000Z</time>
      </trkpt>
      <trkpt lat="47.51384" lon="6.7725">
        <ele>376</ele>
        <time>2015-09-27T10:06:53.000Z</time>
      </trkpt>
      <trkpt lat="47.51392" lon="6.77245">
        <ele>376</ele>
        <time>2015-09-27T10:06:54.000Z</time>
      </trkpt>
      <trkpt lat="47.51399" lon="6.77241">
        <ele>376</ele>
        <time>2015-09-27T10:06:55.000Z</time>
      </trkpt>
      <trkpt lat="47.51407" lon="6.77236">
        <ele>376</ele>
        <time>2015-09-27T10:06:56.000Z</time>
      </trkpt>
      <trkpt lat="47.51416" lon="6.77232">
        <ele>376</ele>
        <time>2015-09-27T10:06:57.000Z</time>
      </trkpt>
      <trkpt lat="47.51424" lon="6.77228">
        <ele>375</ele>
        <time>2015-09-27T10:06:58.000Z</time>
      </trkpt>
      <trkpt lat="47.51432" lon="6.77224">
        <ele>375</ele>
        <time>2015-09-27T10:06:59.000Z</time>
      </trkpt>
      <trkpt lat="47.51439" lon="6.7722">
        <ele>375</ele>
        <time>2015-09-27T10:07:00.000Z</time>
      </trkpt>
      <trkpt lat="47.51446" lon="6.77217">
        <ele>375</ele>
        <time>2015-09-27T10:07:01.000Z</time>
      </trkpt>
      <trkpt lat="47.51453" lon="6.77213">
        <ele>375</ele>
        <time>2015-09-27T10:07:02.000Z</time>
      </trkpt>
      <trkpt lat="47.5146" lon="6.7721">
        <ele>375</ele>
        <time>2015-09-27T10:07:03.000Z</time>
      </trkpt>
      <trkpt lat="47.51465" lon="6.77208">
        <ele>375</ele>
        <time>2015-09-27T10:07:04.000Z</time>
      </trkpt>
      <trkpt lat="47.51471" lon="6.77205">
        <ele>375</ele>
        <time>2015-09-27T10:07:05.000Z</time>
      </trkpt>
      <trkpt lat="47.51475" lon="6.77205">
        <ele>375</ele>
        <time>2015-09-27T10:07:06.000Z</time>
      </trkpt>
      <trkpt lat="47.51478" lon="6.77206">
        <ele>375</ele>
        <time>2015-09-27T10:07:07.000Z</time>
      </trkpt>
      <trkpt lat="47.51481" lon="6.7721">
        <ele>375</ele>
        <time>2015-09-27T10:07:08.000Z</time>
      </trkpt>
      <trkpt lat="47.5148" lon="6.77217">
        <ele>375</ele>
        <time>2015-09-27T10:07:09.000Z</time>
      </trkpt>
      <trkpt lat="47.51481" lon="6.77223">
        <ele>375</ele>
        <time>2015-09-27T10:07:10.000Z</time>
      </trkpt>
      <trkpt lat="47.51481" lon="6.77229">
        <ele>375</ele>
        <time>2015-09-27T10:07:11.000Z</time>
      </trkpt>
      <trkpt lat="47.51482" lon="6.77235">
        <ele>375</ele>
        <time>2015-09-27T10:07:12.000Z</time>
      </trkpt>
      <trkpt lat="47.51482" lon="6.77241">
        <ele>375</ele>
        <time>2015-09-27T10:07:13.000Z</time>
      </trkpt>
      <trkpt lat="47.51482" lon="6.77247">
        <ele>376</ele>
        <time>2015-09-27T10:07:14.000Z</time>
      </trkpt>
      <trkpt lat="47.51483" lon="6.77252">
        <ele>376</ele>
        <time>2015-09-27T10:07:15.000Z</time>
      </trkpt>
      <trkpt lat="47.51483" lon="6.77258">
        <ele>376</ele>
        <time>2015-09-27T10:07:16.000Z</time>
      </trkpt>
      <trkpt lat="47.51483" lon="6.77264">
        <ele>376</ele>
        <time>2015-09-27T10:07:17.000Z</time>
      </trkpt>
      <trkpt lat="47.51483" lon="6.7727">
        <ele>377</ele>
        <time>2015-09-27T10:07:18.000Z</time>
      </trkpt>
      <trkpt lat="47.51484" lon="6.77276">
        <ele>377</ele>
        <time>2015-09-27T10:07:19.000Z</time>
      </trkpt>
      <trkpt lat="47.51484" lon="6.77282">
        <ele>377</ele>
        <time>2015-09-27T10:07:20.000Z</time>
      </trkpt>
      <trkpt lat="47.51485" lon="6.77288">
        <ele>377</ele>
        <time>2015-09-27T10:07:21.000Z</time>
      </trkpt>
      <trkpt lat="47.51485" lon="6.77294">
        <ele>377</ele>
        <time>2015-09-27T10:07:22.000Z</time>
      </trkpt>
      <trkpt lat="47.51486" lon="6.77299">
        <ele>377</ele>
        <time>2015-09-27T10:07:23.000Z</time>
      </trkpt>
      <trkpt lat="47.51486" lon="6.77305">
        <ele>377</ele>
        <time>2015-09-27T10:07:24.000Z</time>
      </trkpt>
      <trkpt lat="47.51487" lon="6.77311">
        <ele>377</ele>
        <time>2015-09-27T10:07:25.000Z</time>
      </trkpt>
      <trkpt lat="47.51487" lon="6.77316">
        <ele>377</ele>
        <time>2015-09-27T10:07:26.000Z</time>
      </trkpt>
      <trkpt lat="47.51489" lon="6.7732">
        <ele>377</ele>
        <time>2015-09-27T10:07:27.000Z</time>
      </trkpt>
      <trkpt lat="47.51491" lon="6.77325">
        <ele>377</ele>
        <time>2015-09-27T10:07:28.001Z</time>
      </trkpt>
      <trkpt lat="47.51496" lon="6.77328">
        <ele>378</ele>
        <time>2015-09-27T10:07:29.000Z</time>
      </trkpt>
      <trkpt lat="47.51499" lon="6.7733">
        <ele>378</ele>
        <time>2015-09-27T10:07:30.000Z</time>
      </trkpt>
      <trkpt lat="47.51503" lon="6.77332">
        <ele>378</ele>
        <time>2015-09-27T10:07:31.000Z</time>
      </trkpt>
      <trkpt lat="47.51507" lon="6.77334">
        <ele>379</ele>
        <time>2015-09-27T10:07:32.000Z</time>
      </trkpt>
      <trkpt lat="47.51511" lon="6.77336">
        <ele>379</ele>
        <time>2015-09-27T10:07:33.000Z</time>
      </trkpt>
      <trkpt lat="47.51514" lon="6.77338">
        <ele>379</ele>
        <time>2015-09-27T10:07:34.000Z</time>
      </trkpt>
      <trkpt lat="47.51517" lon="6.7734">
        <ele>379</ele>
        <time>2015-09-27T10:07:35.000Z</time>
      </trkpt>
      <trkpt lat="47.5152" lon="6.77343">
        <ele>379</ele>
        <time>2015-09-27T10:07:36.000Z</time>
      </trkpt>
      <trkpt lat="47.51523" lon="6.77345">
        <ele>380</ele>
        <time>2015-09-27T10:07:37.000Z</time>
      </trkpt>
      <trkpt lat="47.51526" lon="6.77348">
        <ele>380</ele>
        <time>2015-09-27T10:07:38.000Z</time>
      </trkpt>
      <trkpt lat="47.51529" lon="6.7735">
        <ele>380</ele>
        <time>2015-09-27T10:07:39.000Z</time>
      </trkpt>
      <trkpt lat="47.51531" lon="6.77353">
        <ele>380</ele>
        <time>2015-09-27T10:07:40.000Z</time>
      </trkpt>
      <trkpt lat="47.51534" lon="6.77356">
        <ele>380</ele>
        <time>2015-09-27T10:07:41.000Z</time>
      </trkpt>
      <trkpt lat="47.51537" lon="6.77359">
        <ele>380</ele>
        <time>2015-09-27T10:07:42.000Z</time>
      </trkpt>
      <trkpt lat="47.51539" lon="6.77362">
        <ele>380</ele>
        <time>2015-09-27T10:07:43.000Z</time>
      </trkpt>
      <trkpt lat="47.51542" lon="6.77365">
        <ele>380</ele>
        <time>2015-09-27T10:07:44.000Z</time>
      </trkpt>
      <trkpt lat="47.51544" lon="6.77369">
        <ele>380</ele>
        <time>2015-09-27T10:07:45.000Z</time>
      </trkpt>
      <trkpt lat="47.51547" lon="6.77372">
        <ele>381</ele>
        <time>2015-09-27T10:07:46.000Z</time>
      </trkpt>
      <trkpt lat="47.5155" lon="6.77375">
        <ele>381</ele>
        <time>2015-09-27T10:07:47.000Z</time>
      </trkpt>
      <trkpt lat="47.51552" lon="6.77379">
        <ele>381</ele>
        <time>2015-09-27T10:07:48.000Z</time>
      </trkpt>
      <trkpt lat="47.51555" lon="6.77382">
        <ele>381</ele>
        <time>2015-09-27T10:07:49.000Z</time>
      </trkpt>
      <trkpt lat="47.51558" lon="6.77385">
        <ele>381</ele>
        <time>2015-09-27T10:07:50.000Z</time>
      </trkpt>
      <trkpt lat="47.51561" lon="6.77389">
        <ele>381</ele>
        <time>2015-09-27T10:07:51.000Z</time>
      </trkpt>
      <trkpt lat="47.51563" lon="6.77392">
        <ele>381</ele>
        <time>2015-09-27T10:07:52.000Z</time>
      </trkpt>
      <trkpt lat="47.51566" lon="6.77395">
        <ele>381</ele>
        <time>2015-09-27T10:07:53.000Z</time>
      </trkpt>
      <trkpt lat="47.51569" lon="6.77398">
        <ele>381</ele>
        <time>2015-09-27T10:07:54.000Z</time>
      </trkpt>
      <trkpt lat="47.51571" lon="6.77401">
        <ele>382</ele>
        <time>2015-09-27T10:07:55.000Z</time>
      </trkpt>
      <trkpt lat="47.51574" lon="6.77404">
        <ele>382</ele>
        <time>2015-09-27T10:07:56.000Z</time>
      </trkpt>
      <trkpt lat="47.51576" lon="6.77407">
        <ele>382</ele>
        <time>2015-09-27T10:07:57.000Z</time>
      </trkpt>
      <trkpt lat="47.51579" lon="6.7741">
        <ele>382</ele>
        <time>2015-09-27T10:07:58.000Z</time>
      </trkpt>
      <trkpt lat="47.51582" lon="6.77413">
        <ele>383</ele>
        <time>2015-09-27T10:07:59.000Z</time>
      </trkpt>
      <trkpt lat="47.51584" lon="6.77416">
        <ele>383</ele>
        <time>2015-09-27T10:08:00.000Z</time>
      </trkpt>
      <trkpt lat="47.51586" lon="6.77419">
        <ele>383</ele>
        <time>2015-09-27T10:08:01.000Z</time>
      </trkpt>
      <trkpt lat="47.51589" lon="6.77422">
        <ele>384</ele>
        <time>2015-09-27T10:08:02.000Z</time>
      </trkpt>
      <trkpt lat="47.51591" lon="6.77425">
        <ele>384</ele>
        <time>2015-09-27T10:08:03.000Z</time>
      </trkpt>
      <trkpt lat="47.51594" lon="6.77428">
        <ele>384</ele>
        <time>2015-09-27T10:08:04.000Z</time>
      </trkpt>
      <trkpt lat="47.51596" lon="6.77431">
        <ele>384</ele>
        <time>2015-09-27T10:08:05.000Z</time>
      </trkpt>
      <trkpt lat="47.51599" lon="6.77433">
        <ele>385</ele>
        <time>2015-09-27T10:08:06.000Z</time>
      </trkpt>
      <trkpt lat="47.51601" lon="6.77436">
        <ele>385</ele>
        <time>2015-09-27T10:08:07.000Z</time>
      </trkpt>
      <trkpt lat="47.51603" lon="6.77439">
        <ele>385</ele>
        <time>2015-09-27T10:08:08.000Z</time>
      </trkpt>
      <trkpt lat="47.51605" lon="6.77441">
        <ele>385</ele>
        <time>2015-09-27T10:08:09.000Z</time>
      </trkpt>
      <trkpt lat="47.51607" lon="6.77444">
        <ele>385</ele>
        <time>2015-09-27T10:08:10.000Z</time>
      </trkpt>
      <trkpt lat="47.51609" lon="6.77447">
        <ele>385</ele>
        <time>2015-09-27T10:08:11.000Z</time>
      </trkpt>
      <trkpt lat="47.51611" lon="6.7745">
        <ele>385</ele>
        <time>2015-09-27T10:08:12.000Z</time>
      </trkpt>
      <trkpt lat="47.51613" lon="6.77453">
        <ele>385</ele>
        <time>2015-09-27T10:08:13.000Z</time>
      </trkpt>
      <trkpt lat="47.51614" lon="6.77456">
        <ele>385</ele>
        <time>2015-09-27T10:08:14.000Z</time>
      </trkpt>
      <trkpt lat="47.51616" lon="6.77459">
        <ele>386</ele>
        <time>2015-09-27T10:08:15.000Z</time>
      </trkpt>
      <trkpt lat="47.51618" lon="6.77462">
        <ele>386</ele>
        <time>2015-09-27T10:08:16.000Z</time>
      </trkpt>
      <trkpt lat="47.5162" lon="6.77465">
        <ele>386</ele>
        <time>2015-09-27T10:08:17.000Z</time>
      </trkpt>
      <trkpt lat="47.51623" lon="6.77468">
        <ele>386</ele>
        <time>2015-09-27T10:08:18.000Z</time>
      </trkpt>
      <trkpt lat="47.51625" lon="6.77471">
        <ele>386</ele>
        <time>2015-09-27T10:08:19.000Z</time>
      </trkpt>
      <trkpt lat="47.51627" lon="6.77473">
        <ele>386</ele>
        <time>2015-09-27T10:08:20.000Z</time>
      </trkpt>
      <trkpt lat="47.51629" lon="6.77476">
        <ele>386</ele>
        <time>2015-09-27T10:08:21.000Z</time>
      </trkpt>
      <trkpt lat="47.51631" lon="6.77478">
        <ele>386</ele>
        <time>2015-09-27T10:08:22.000Z</time>
      </trkpt>
      <trkpt lat="47.51634" lon="6.77481">
        <ele>386</ele>
        <time>2015-09-27T10:08:23.000Z</time>
      </trkpt>
      <trkpt lat="47.51636" lon="6.77484">
        <ele>386</ele>
        <time>2015-09-27T10:08:24.000Z</time>
      </trkpt>
      <trkpt lat="47.51638" lon="6.77487">
        <ele>387</ele>
        <time>2015-09-27T10:08:25.000Z</time>
      </trkpt>
      <trkpt lat="47.5164" lon="6.77489">
        <ele>387</ele>
        <time>2015-09-27T10:08:26.000Z</time>
      </trkpt>
      <trkpt lat="47.51643" lon="6.77492">
        <ele>387</ele>
        <time>2015-09-27T10:08:27.000Z</time>
      </trkpt>
      <trkpt lat="47.51645" lon="6.77495">
        <ele>387</ele>
        <time>2015-09-27T10:08:28.000Z</time>
      </trkpt>
      <trkpt lat="47.51648" lon="6.77498">
        <ele>387</ele>
        <time>2015-09-27T10:08:29.000Z</time>
      </trkpt>
      <trkpt lat="47.5165" lon="6.775">
        <ele>388</ele>
        <time>2015-09-27T10:08:30.000Z</time>
      </trkpt>
      <trkpt lat="47.51652" lon="6.77503">
        <ele>388</ele>
        <time>2015-09-27T10:08:31.000Z</time>
      </trkpt>
      <trkpt lat="47.51655" lon="6.77506">
        <ele>388</ele>
        <time>2015-09-27T10:08:32.000Z</time>
      </trkpt>
      <trkpt lat="47.51657" lon="6.77509">
        <ele>388</ele>
        <time>2015-09-27T10:08:33.000Z</time>
      </trkpt>
      <trkpt lat="47.51659" lon="6.77511">
        <ele>388</ele>
        <time>2015-09-27T10:08:34.000Z</time>
      </trkpt>
      <trkpt lat="47.51661" lon="6.77514">
        <ele>388</ele>
        <time>2015-09-27T10:08:35.000Z</time>
      </trkpt>
      <trkpt lat="47.51663" lon="6.77517">
        <ele>388</ele>
        <time>2015-09-27T10:08:36.000Z</time>
      </trkpt>
      <trkpt lat="47.51665" lon="6.7752">
        <ele>388</ele>
        <time>2015-09-27T10:08:37.000Z</time>
      </trkpt>
      <trkpt lat="47.51667" lon="6.77523">
        <ele>390</ele>
        <time>2015-09-27T10:08:38.000Z</time>
      </trkpt>
      <trkpt lat="47.5167" lon="6.77526">
        <ele>390</ele>
        <time>2015-09-27T10:08:39.000Z</time>
      </trkpt>
      <trkpt lat="47.51672" lon="6.77529">
        <ele>390</ele>
        <time>2015-09-27T10:08:40.000Z</time>
      </trkpt>
      <trkpt lat="47.51674" lon="6.77532">
        <ele>390</ele>
        <time>2015-09-27T10:08:41.000Z</time>
      </trkpt>
      <trkpt lat="47.51676" lon="6.77535">
        <ele>390</ele>
        <time>2015-09-27T10:08:42.000Z</time>
      </trkpt>
      <trkpt lat="47.51679" lon="6.77537">
        <ele>390</ele>
        <time>2015-09-27T10:08:43.000Z</time>
      </trkpt>
      <trkpt lat="47.51681" lon="6.7754">
        <ele>390</ele>
        <time>2015-09-27T10:08:44.000Z</time>
      </trkpt>
      <trkpt lat="47.51683" lon="6.77542">
        <ele>390</ele>
        <time>2015-09-27T10:08:45.000Z</time>
      </trkpt>
      <trkpt lat="47.51684" lon="6.77545">
        <ele>390</ele>
        <time>2015-09-27T10:08:46.000Z</time>
      </trkpt>
      <trkpt lat="47.51686" lon="6.77547">
        <ele>390</ele>
        <time>2015-09-27T10:08:47.000Z</time>
      </trkpt>
      <trkpt lat="47.51688" lon="6.7755">
        <ele>390</ele>
        <time>2015-09-27T10:08:48.000Z</time>
      </trkpt>
      <trkpt lat="47.5169" lon="6.77553">
        <ele>390</ele>
        <time>2015-09-27T10:08:49.000Z</time>
      </trkpt>
      <trkpt lat="47.51693" lon="6.77556">
        <ele>390</ele>
        <time>2015-09-27T10:08:50.000Z</time>
      </trkpt>
      <trkpt lat="47.51695" lon="6.77559">
        <ele>390</ele>
        <time>2015-09-27T10:08:51.000Z</time>
      </trkpt>
      <trkpt lat="47.51698" lon="6.77557">
        <ele>390</ele>
        <time>2015-09-27T10:08:59.000Z</time>
      </trkpt>
      <trkpt lat="47.51699" lon="6.77556">
        <ele>390</ele>
        <time>2015-09-27T10:09:00.000Z</time>
      </trkpt>
      <trkpt lat="47.51702" lon="6.77552">
        <ele>390</ele>
        <time>2015-09-27T10:09:02.000Z</time>
      </trkpt>
      <trkpt lat="47.51705" lon="6.77549">
        <ele>390</ele>
        <time>2015-09-27T10:09:03.000Z</time>
      </trkpt>
      <trkpt lat="47.51707" lon="6.77546">
        <ele>390</ele>
        <time>2015-09-27T10:09:04.000Z</time>
      </trkpt>
      <trkpt lat="47.5171" lon="6.77542">
        <ele>390</ele>
        <time>2015-09-27T10:09:05.000Z</time>
      </trkpt>
      <trkpt lat="47.51712" lon="6.77539">
        <ele>390</ele>
        <time>2015-09-27T10:09:06.000Z</time>
      </trkpt>
      <trkpt lat="47.51714" lon="6.77535">
        <ele>390</ele>
        <time>2015-09-27T10:09:07.000Z</time>
      </trkpt>
      <trkpt lat="47.51715" lon="6.77529">
        <ele>390</ele>
        <time>2015-09-27T10:09:08.000Z</time>
      </trkpt>
      <trkpt lat="47.51716" lon="6.77523">
        <ele>390</ele>
        <time>2015-09-27T10:09:09.000Z</time>
      </trkpt>
      <trkpt lat="47.51718" lon="6.77518">
        <ele>390</ele>
        <time>2015-09-27T10:09:10.000Z</time>
      </trkpt>
      <trkpt lat="47.51719" lon="6.77512">
        <ele>390</ele>
        <time>2015-09-27T10:09:11.000Z</time>
      </trkpt>
      <trkpt lat="47.5172" lon="6.77507">
        <ele>390</ele>
        <time>2015-09-27T10:09:12.000Z</time>
      </trkpt>
      <trkpt lat="47.51721" lon="6.77501">
        <ele>390</ele>
        <time>2015-09-27T10:09:13.000Z</time>
      </trkpt>
      <trkpt lat="47.51722" lon="6.77496">
        <ele>389</ele>
        <time>2015-09-27T10:09:14.000Z</time>
      </trkpt>
      <trkpt lat="47.51724" lon="6.7749">
        <ele>389</ele>
        <time>2015-09-27T10:09:15.000Z</time>
      </trkpt>
      <trkpt lat="47.51735" lon="6.77483">
        <ele>389</ele>
        <time>2015-09-27T10:09:17.000Z</time>
      </trkpt>
      <trkpt lat="47.51739" lon="6.77482">
        <ele>389</ele>
        <time>2015-09-27T10:09:18.000Z</time>
      </trkpt>
      <trkpt lat="47.51744" lon="6.77485">
        <ele>389</ele>
        <time>2015-09-27T10:09:19.000Z</time>
      </trkpt>
      <trkpt lat="47.51749" lon="6.77486">
        <ele>389</ele>
        <time>2015-09-27T10:09:19.999Z</time>
      </trkpt>
      <trkpt lat="47.51752" lon="6.77484">
        <ele>389</ele>
        <time>2015-09-27T10:09:21.000Z</time>
      </trkpt>
      <trkpt lat="47.51756" lon="6.77484">
        <ele>389</ele>
        <time>2015-09-27T10:09:22.000Z</time>
      </trkpt>
      <trkpt lat="47.51759" lon="6.77484">
        <ele>389</ele>
        <time>2015-09-27T10:09:23.000Z</time>
      </trkpt>
      <trkpt lat="47.51762" lon="6.77485">
        <ele>389</ele>
        <time>2015-09-27T10:09:24.000Z</time>
      </trkpt>
      <trkpt lat="47.51765" lon="6.77485">
        <ele>389</ele>
        <time>2015-09-27T10:09:25.000Z</time>
      </trkpt>
      <trkpt lat="47.51769" lon="6.77485">
        <ele>389</ele>
        <time>2015-09-27T10:09:26.000Z</time>
      </trkpt>
      <trkpt lat="47.51772" lon="6.77485">
        <ele>388</ele>
        <time>2015-09-27T10:09:26.999Z</time>
      </trkpt>
      <trkpt lat="47.51776" lon="6.77484">
        <ele>388</ele>
        <time>2015-09-27T10:09:28.000Z</time>
      </trkpt>
      <trkpt lat="47.5178" lon="6.77485">
        <ele>388</ele>
        <time>2015-09-27T10:09:29.000Z</time>
      </trkpt>
      <trkpt lat="47.51784" lon="6.77486">
        <ele>388</ele>
        <time>2015-09-27T10:09:30.000Z</time>
      </trkpt>
      <trkpt lat="47.51788" lon="6.77488">
        <ele>388</ele>
        <time>2015-09-27T10:09:31.000Z</time>
      </trkpt>
      <trkpt lat="47.51793" lon="6.77491">
        <ele>388</ele>
        <time>2015-09-27T10:09:32.000Z</time>
      </trkpt>
      <trkpt lat="47.51798" lon="6.77493">
        <ele>388</ele>
        <time>2015-09-27T10:09:33.000Z</time>
      </trkpt>
      <trkpt lat="47.51802" lon="6.77494">
        <ele>388</ele>
        <time>2015-09-27T10:09:34.000Z</time>
      </trkpt>
      <trkpt lat="47.51805" lon="6.77489">
        <ele>388</ele>
        <time>2015-09-27T10:09:35.000Z</time>
      </trkpt>
      <trkpt lat="47.51806" lon="6.77485">
        <ele>388</ele>
        <time>2015-09-27T10:09:36.000Z</time>
      </trkpt>
      <trkpt lat="47.51805" lon="6.77481">
        <ele>388</ele>
        <time>2015-09-27T10:09:37.000Z</time>
      </trkpt>
      <trkpt lat="47.51805" lon="6.77478">
        <ele>388</ele>
        <time>2015-09-27T10:09:38.000Z</time>
      </trkpt>
      <trkpt lat="47.51804" lon="6.77474">
        <ele>388</ele>
        <time>2015-09-27T10:09:39.000Z</time>
      </trkpt>
      <trkpt lat="47.51804" lon="6.77471">
        <ele>388</ele>
        <time>2015-09-27T10:09:40.000Z</time>
      </trkpt>
      <trkpt lat="47.51803" lon="6.77466">
        <ele>388</ele>
        <time>2015-09-27T10:09:42.000Z</time>
      </trkpt>
      <trkpt lat="47.51803" lon="6.77464">
        <ele>388</ele>
        <time>2015-09-27T10:09:43.000Z</time>
      </trkpt>
      <trkpt lat="47.51802" lon="6.77458">
        <ele>388</ele>
        <time>2015-09-27T10:09:46.000Z</time>
      </trkpt>
      <trkpt lat="47.51802" lon="6.77457">
        <ele>388</ele>
        <time>2015-09-27T10:09:47.000Z</time>
      </trkpt>
      <trkpt lat="47.51798" lon="6.77458">
        <ele>388</ele>
        <time>2015-09-27T10:09:52.000Z</time>
      </trkpt>
      <trkpt lat="47.51796" lon="6.77458">
        <ele>388</ele>
        <time>2015-09-27T10:09:53.000Z</time>
      </trkpt>
      <trkpt lat="47.51796" lon="6.77465">
        <ele>388</ele>
        <time>2015-09-27T10:10:27.000Z</time>
      </trkpt>
      <trkpt lat="47.51796" lon="6.77466">
        <ele>388</ele>
        <time>2015-09-27T10:10:28.000Z</time>
      </trkpt>
      <trkpt lat="47.51796" lon="6.77471">
        <ele>388</ele>
        <time>2015-09-27T10:10:36.000Z</time>
      </trkpt>
      <trkpt lat="47.51795" lon="6.77472">
        <ele>388</ele>
        <time>2015-09-27T10:10:37.000Z</time>
      </trkpt>
      <trkpt lat="47.51799" lon="6.77474">
        <ele>388</ele>
        <time>2015-09-27T10:10:43.000Z</time>
      </trkpt>
      <trkpt lat="47.518" lon="6.77474">
        <ele>388</ele>
        <time>2015-09-27T10:10:44.000Z</time>
      </trkpt>
      <trkpt lat="47.518" lon="6.77474">
        <ele>388</ele>
        <time>2015-09-27T10:12:56.000Z</time>
      </trkpt>
    </trkseg>
  </trk>
</gpx>